<?xml version='1.0' encoding='UTF-8'?><gpx version="1.1" creator="JPX - https://github.com/jenetics/jpx" xmlns="http://www.topografix.com/GPX/1/1"><trk><trkseg><trkpt lat="44.2089602" lon="11.3458242"><ele>551.0</ele><time>2026-05-01T07:09:35.135Z</time></trkpt><trkpt lat="44.2088955" lon="11.3458352"><ele>551.0</ele><time>2026-05-01T07:09:37.136Z</time></trkpt><trkpt lat="44.2088275" lon="11.3458217"><ele>551.0</ele><time>2026-05-01T07:09:39.138Z</time></trkpt><trkpt lat="44.2087297" lon="11.3458193"><ele>551.0</ele><time>2026-05-01T07:09:41.137Z</time></trkpt><trkpt lat="44.2086263" lon="11.3458347"><ele>551.0</ele><time>2026-05-01T07:09:43.138Z</time></trkpt><trkpt lat="44.2085242" lon="11.3458522"><ele>551.0</ele><time>2026-05-01T07:09:45.135Z</time></trkpt><trkpt lat="44.2084223" lon="11.3458678"><ele>551.0</ele><time>2026-05-01T07:09:47.136Z</time></trkpt><trkpt lat="44.2083257" lon="11.345894"><ele>551.0</ele><time>2026-05-01T07:09:49.136Z</time></trkpt><trkpt lat="44.2082523" lon="11.3459128"><ele>551.0</ele><time>2026-05-01T07:09:51.135Z</time></trkpt><trkpt lat="44.2081838" lon="11.3459122"><ele>551.0</ele><time>2026-05-01T07:09:53.136Z</time></trkpt><trkpt lat="44.208105" lon="11.3458413"><ele>551.0</ele><time>2026-05-01T07:09:55.139Z</time></trkpt><trkpt lat="44.2080043" lon="11.3457235"><ele>552.0</ele><time>2026-05-01T07:09:57.137Z</time></trkpt><trkpt lat="44.2079468" lon="11.3456518"><ele>553.0</ele><time>2026-05-01T07:09:58.134Z</time></trkpt><trkpt lat="44.2078872" lon="11.345577"><ele>554.0</ele><time>2026-05-01T07:09:59.135Z</time></trkpt><trkpt lat="44.207824" lon="11.3455033"><ele>555.0</ele><time>2026-05-01T07:10:00.133Z</time></trkpt><trkpt lat="44.2077553" lon="11.3454437"><ele>556.0</ele><time>2026-05-01T07:10:01.134Z</time></trkpt><trkpt lat="44.207683" lon="11.3454057"><ele>557.0</ele><time>2026-05-01T07:10:02.136Z</time></trkpt><trkpt lat="44.2076133" lon="11.3453928"><ele>556.5</ele><time>2026-05-01T07:10:03.136Z</time></trkpt><trkpt lat="44.2075438" lon="11.3453982"><ele>556.0</ele><time>2026-05-01T07:10:04.137Z</time></trkpt><trkpt lat="44.2074728" lon="11.3454185"><ele>555.5</ele><time>2026-05-01T07:10:05.138Z</time></trkpt><trkpt lat="44.207401" lon="11.3454467"><ele>555.0</ele><time>2026-05-01T07:10:06.138Z</time></trkpt><trkpt lat="44.2073288" lon="11.3454822"><ele>554.5</ele><time>2026-05-01T07:10:07.138Z</time></trkpt><trkpt lat="44.2072533" lon="11.3455178"><ele>554.0</ele><time>2026-05-01T07:10:08.139Z</time></trkpt><trkpt lat="44.2071737" lon="11.3455483"><ele>554.0</ele><time>2026-05-01T07:10:09.138Z</time></trkpt><trkpt lat="44.2070917" lon="11.3455777"><ele>554.0</ele><time>2026-05-01T07:10:10.138Z</time></trkpt><trkpt lat="44.2070072" lon="11.3455998"><ele>554.0</ele><time>2026-05-01T07:10:11.138Z</time></trkpt><trkpt lat="44.2069205" lon="11.3456132"><ele>554.0</ele><time>2026-05-01T07:10:12.137Z</time></trkpt><trkpt lat="44.2068382" lon="11.3456178"><ele>554.0</ele><time>2026-05-01T07:10:13.138Z</time></trkpt><trkpt lat="44.2067662" lon="11.3456192"><ele>554.0</ele><time>2026-05-01T07:10:14.138Z</time></trkpt><trkpt lat="44.2066957" lon="11.3456192"><ele>554.0</ele><time>2026-05-01T07:10:15.137Z</time></trkpt><trkpt lat="44.2066208" lon="11.3456218"><ele>554.0</ele><time>2026-05-01T07:10:16.136Z</time></trkpt><trkpt lat="44.2065413" lon="11.345623"><ele>554.0</ele><time>2026-05-01T07:10:17.138Z</time></trkpt><trkpt lat="44.2064547" lon="11.3456217"><ele>554.0</ele><time>2026-05-01T07:10:18.138Z</time></trkpt><trkpt lat="44.2063605" lon="11.3456217"><ele>554.0</ele><time>2026-05-01T07:10:19.136Z</time></trkpt><trkpt lat="44.2062618" lon="11.3456273"><ele>554.0</ele><time>2026-05-01T07:10:20.138Z</time></trkpt><trkpt lat="44.206165" lon="11.3456375"><ele>553.8</ele><time>2026-05-01T07:10:21.138Z</time></trkpt><trkpt lat="44.2060745" lon="11.3456452"><ele>553.5999999999999</ele><time>2026-05-01T07:10:22.138Z</time></trkpt><trkpt lat="44.2059907" lon="11.3456468"><ele>553.4</ele><time>2026-05-01T07:10:23.137Z</time></trkpt><trkpt lat="44.2059192" lon="11.345648"><ele>553.1999999999999</ele><time>2026-05-01T07:10:24.135Z</time></trkpt><trkpt lat="44.205798" lon="11.3456447"><ele>553.0</ele><time>2026-05-01T07:10:26.136Z</time></trkpt><trkpt lat="44.2056993" lon="11.3456205"><ele>553.8333333333334</ele><time>2026-05-01T07:10:28.138Z</time></trkpt><trkpt lat="44.2056043" lon="11.3455872"><ele>554.6666666666667</ele><time>2026-05-01T07:10:30.138Z</time></trkpt><trkpt lat="44.205497" lon="11.3455278"><ele>555.5</ele><time>2026-05-01T07:10:32.139Z</time></trkpt><trkpt lat="44.2054438" lon="11.3454745"><ele>556.3333333333334</ele><time>2026-05-01T07:10:33.137Z</time></trkpt><trkpt lat="44.2053947" lon="11.3454098"><ele>557.1666666666666</ele><time>2026-05-01T07:10:34.137Z</time></trkpt><trkpt lat="44.2053472" lon="11.345341"><ele>558.0</ele><time>2026-05-01T07:10:35.137Z</time></trkpt><trkpt lat="44.2053037" lon="11.3452775"><ele>555.1999999999999</ele><time>2026-05-01T07:10:36.138Z</time></trkpt><trkpt lat="44.2052308" lon="11.345156"><ele>552.4</ele><time>2026-05-01T07:10:38.138Z</time></trkpt><trkpt lat="44.2051812" lon="11.3450792"><ele>549.5999999999999</ele><time>2026-05-01T07:10:40.137Z</time></trkpt><trkpt lat="44.2051087" lon="11.3450482"><ele>546.8</ele><time>2026-05-01T07:10:42.137Z</time></trkpt><trkpt lat="44.204975" lon="11.3450552"><ele>544.0</ele><time>2026-05-01T07:10:44.138Z</time></trkpt><trkpt lat="44.204889" lon="11.3450812"><ele>545.3333333333334</ele><time>2026-05-01T07:10:45.137Z</time></trkpt><trkpt lat="44.2048017" lon="11.3451012"><ele>546.6666666666667</ele><time>2026-05-01T07:10:46.138Z</time></trkpt><trkpt lat="44.2047182" lon="11.345114"><ele>548.0</ele><time>2026-05-01T07:10:47.135Z</time></trkpt><trkpt lat="44.2046337" lon="11.3451237"><ele>549.3333333333334</ele><time>2026-05-01T07:10:48.136Z</time></trkpt><trkpt lat="44.2045482" lon="11.3451248"><ele>550.6666666666666</ele><time>2026-05-01T07:10:49.134Z</time></trkpt><trkpt lat="44.2044605" lon="11.345115"><ele>552.0</ele><time>2026-05-01T07:10:50.136Z</time></trkpt><trkpt lat="44.2043723" lon="11.345099"><ele>552.0</ele><time>2026-05-01T07:10:51.137Z</time></trkpt><trkpt lat="44.2042883" lon="11.3450865"><ele>552.0</ele><time>2026-05-01T07:10:52.138Z</time></trkpt><trkpt lat="44.2042048" lon="11.345088"><ele>552.0</ele><time>2026-05-01T07:10:53.137Z</time></trkpt><trkpt lat="44.2041207" lon="11.3451063"><ele>552.0</ele><time>2026-05-01T07:10:54.137Z</time></trkpt><trkpt lat="44.204044" lon="11.3451345"><ele>552.0</ele><time>2026-05-01T07:10:55.136Z</time></trkpt><trkpt lat="44.203983" lon="11.3451723"><ele>552.0</ele><time>2026-05-01T07:10:56.138Z</time></trkpt><trkpt lat="44.2039343" lon="11.3453163"><ele>553.5</ele><time>2026-05-01T07:10:58.136Z</time></trkpt><trkpt lat="44.2038885" lon="11.3454562"><ele>555.0</ele><time>2026-05-01T07:11:00.138Z</time></trkpt><trkpt lat="44.2037797" lon="11.3455263"><ele>556.5</ele><time>2026-05-01T07:11:02.137Z</time></trkpt><trkpt lat="44.203714" lon="11.345539"><ele>558.0</ele><time>2026-05-01T07:11:03.137Z</time></trkpt><trkpt lat="44.2036372" lon="11.3455395"><ele>559.5</ele><time>2026-05-01T07:11:04.136Z</time></trkpt><trkpt lat="44.2035618" lon="11.3455413"><ele>561.0</ele><time>2026-05-01T07:11:05.137Z</time></trkpt><trkpt lat="44.203495" lon="11.3455527"><ele>562.0</ele><time>2026-05-01T07:11:06.136Z</time></trkpt><trkpt lat="44.2033788" lon="11.345594"><ele>563.0</ele><time>2026-05-01T07:11:08.139Z</time></trkpt><trkpt lat="44.2032653" lon="11.3456387"><ele>564.0</ele><time>2026-05-01T07:11:10.137Z</time></trkpt><trkpt lat="44.203201" lon="11.3456488"><ele>565.0</ele><time>2026-05-01T07:11:11.137Z</time></trkpt><trkpt lat="44.2030807" lon="11.3456452"><ele>566.0</ele><time>2026-05-01T07:11:13.135Z</time></trkpt><trkpt lat="44.2029728" lon="11.3456228"><ele>567.0</ele><time>2026-05-01T07:11:15.136Z</time></trkpt><trkpt lat="44.202858" lon="11.345575"><ele>568.0</ele><time>2026-05-01T07:11:17.137Z</time></trkpt><trkpt lat="44.2027355" lon="11.3455702"><ele>569.0</ele><time>2026-05-01T07:11:19.136Z</time></trkpt><trkpt lat="44.2026733" lon="11.3455905"><ele>570.0</ele><time>2026-05-01T07:11:20.136Z</time></trkpt><trkpt lat="44.202564" lon="11.3456582"><ele>571.0</ele><time>2026-05-01T07:11:22.134Z</time></trkpt><trkpt lat="44.2025097" lon="11.3457108"><ele>571.0</ele><time>2026-05-01T07:11:23.136Z</time></trkpt><trkpt lat="44.2024023" lon="11.345806"><ele>571.0</ele><time>2026-05-01T07:11:25.135Z</time></trkpt><trkpt lat="44.2022823" lon="11.3458417"><ele>571.0</ele><time>2026-05-01T07:11:27.136Z</time></trkpt><trkpt lat="44.202146" lon="11.3458228"><ele>571.0</ele><time>2026-05-01T07:11:29.139Z</time></trkpt><trkpt lat="44.2020743" lon="11.34581"><ele>573.1666666666667</ele><time>2026-05-01T07:11:30.139Z</time></trkpt><trkpt lat="44.2020083" lon="11.345807"><ele>575.3333333333334</ele><time>2026-05-01T07:11:31.139Z</time></trkpt><trkpt lat="44.2019202" lon="11.3458628"><ele>577.5</ele><time>2026-05-01T07:11:33.136Z</time></trkpt><trkpt lat="44.2019193" lon="11.3459733"><ele>579.6666666666666</ele><time>2026-05-01T07:11:35.138Z</time></trkpt><trkpt lat="44.2019052" lon="11.3460885"><ele>581.8333333333333</ele><time>2026-05-01T07:11:37.135Z</time></trkpt><trkpt lat="44.2018228" lon="11.3461742"><ele>584.0</ele><time>2026-05-01T07:11:39.136Z</time></trkpt><trkpt lat="44.201713" lon="11.3462048"><ele>584.0</ele><time>2026-05-01T07:11:41.139Z</time></trkpt><trkpt lat="44.2016063" lon="11.3461848"><ele>584.0</ele><time>2026-05-01T07:11:43.138Z</time></trkpt><trkpt lat="44.2014917" lon="11.346168"><ele>584.0</ele><time>2026-05-01T07:11:45.137Z</time></trkpt><trkpt lat="44.2014287" lon="11.346169"><ele>584.0</ele><time>2026-05-01T07:11:46.138Z</time></trkpt><trkpt lat="44.2013137" lon="11.3461848"><ele>584.0</ele><time>2026-05-01T07:11:48.137Z</time></trkpt><trkpt lat="44.2012447" lon="11.3461805"><ele>587.25</ele><time>2026-05-01T07:11:49.139Z</time></trkpt><trkpt lat="44.2011292" lon="11.3462025"><ele>590.5</ele><time>2026-05-01T07:11:51.138Z</time></trkpt><trkpt lat="44.2010163" lon="11.3462763"><ele>593.75</ele><time>2026-05-01T07:11:53.138Z</time></trkpt><trkpt lat="44.2009323" lon="11.3463772"><ele>597.0</ele><time>2026-05-01T07:11:55.137Z</time></trkpt><trkpt lat="44.2008727" lon="11.3465177"><ele>598.8000000000001</ele><time>2026-05-01T07:11:57.138Z</time></trkpt><trkpt lat="44.2007887" lon="11.3466117"><ele>600.6</ele><time>2026-05-01T07:11:59.137Z</time></trkpt><trkpt lat="44.2006725" lon="11.3466473"><ele>602.4000000000001</ele><time>2026-05-01T07:12:01.135Z</time></trkpt><trkpt lat="44.2005597" lon="11.3466383"><ele>604.2</ele><time>2026-05-01T07:12:03.135Z</time></trkpt><trkpt lat="44.2004605" lon="11.3466803"><ele>606.0</ele><time>2026-05-01T07:12:05.137Z</time></trkpt><trkpt lat="44.2004038" lon="11.3467795"><ele>609.2</ele><time>2026-05-01T07:12:07.136Z</time></trkpt><trkpt lat="44.2003538" lon="11.3468922"><ele>612.4000000000001</ele><time>2026-05-01T07:12:09.139Z</time></trkpt><trkpt lat="44.2002808" lon="11.3469535"><ele>615.6</ele><time>2026-05-01T07:12:11.138Z</time></trkpt><trkpt lat="44.2001773" lon="11.3470097"><ele>618.8000000000001</ele><time>2026-05-01T07:12:13.137Z</time></trkpt><trkpt lat="44.20007" lon="11.3470527"><ele>622.0</ele><time>2026-05-01T07:12:15.137Z</time></trkpt><trkpt lat="44.1999587" lon="11.347019"><ele>622.0</ele><time>2026-05-01T07:12:17.137Z</time></trkpt><trkpt lat="44.1998533" lon="11.3470265"><ele>622.0</ele><time>2026-05-01T07:12:19.136Z</time></trkpt><trkpt lat="44.1997373" lon="11.34704"><ele>622.0</ele><time>2026-05-01T07:12:21.138Z</time></trkpt><trkpt lat="44.1996307" lon="11.3470207"><ele>622.0</ele><time>2026-05-01T07:12:23.142Z</time></trkpt><trkpt lat="44.1995378" lon="11.3469285"><ele>622.0</ele><time>2026-05-01T07:12:25.135Z</time></trkpt><trkpt lat="44.1994248" lon="11.3468875"><ele>624.1666666666667</ele><time>2026-05-01T07:12:27.135Z</time></trkpt><trkpt lat="44.1993153" lon="11.346887"><ele>626.3333333333334</ele><time>2026-05-01T07:12:29.138Z</time></trkpt><trkpt lat="44.1992527" lon="11.3468335"><ele>628.5</ele><time>2026-05-01T07:12:31.137Z</time></trkpt><trkpt lat="44.1992347" lon="11.3467212"><ele>630.6666666666666</ele><time>2026-05-01T07:12:33.137Z</time></trkpt><trkpt lat="44.1991953" lon="11.3466463"><ele>632.8333333333333</ele><time>2026-05-01T07:12:46.137Z</time></trkpt><trkpt lat="44.1991325" lon="11.3465683"><ele>635.0</ele><time>2026-05-01T07:12:49.136Z</time></trkpt><trkpt lat="44.1990777" lon="11.3465138"><ele>635.0</ele><time>2026-05-01T07:12:51.134Z</time></trkpt><trkpt lat="44.199013" lon="11.3464592"><ele>635.0</ele><time>2026-05-01T07:12:53.136Z</time></trkpt><trkpt lat="44.1989397" lon="11.3463998"><ele>635.0</ele><time>2026-05-01T07:12:56.137Z</time></trkpt><trkpt lat="44.1988667" lon="11.3463858"><ele>635.0</ele><time>2026-05-01T07:12:58.136Z</time></trkpt><trkpt lat="44.1987897" lon="11.3463735"><ele>635.0</ele><time>2026-05-01T07:13:00.135Z</time></trkpt><trkpt lat="44.198712" lon="11.3463653"><ele>635.0</ele><time>2026-05-01T07:13:02.136Z</time></trkpt><trkpt lat="44.1986242" lon="11.34642"><ele>636.3333333333333</ele><time>2026-05-01T07:13:04.136Z</time></trkpt><trkpt lat="44.198534" lon="11.3465313"><ele>637.6666666666666</ele><time>2026-05-01T07:13:06.136Z</time></trkpt><trkpt lat="44.198484" lon="11.3465932"><ele>639.0</ele><time>2026-05-01T07:13:07.135Z</time></trkpt><trkpt lat="44.198432" lon="11.3466552"><ele>640.3333333333334</ele><time>2026-05-01T07:13:08.137Z</time></trkpt><trkpt lat="44.1983723" lon="11.3467102"><ele>641.6666666666667</ele><time>2026-05-01T07:13:09.138Z</time></trkpt><trkpt lat="44.1983007" lon="11.3467562"><ele>643.0</ele><time>2026-05-01T07:13:10.138Z</time></trkpt><trkpt lat="44.198216" lon="11.3468027"><ele>644.1428571428571</ele><time>2026-05-01T07:13:11.138Z</time></trkpt><trkpt lat="44.1981447" lon="11.3468297"><ele>645.2857142857143</ele><time>2026-05-01T07:13:12.138Z</time></trkpt><trkpt lat="44.1980763" lon="11.3468303"><ele>646.4285714285714</ele><time>2026-05-01T07:13:13.137Z</time></trkpt><trkpt lat="44.1980067" lon="11.3468072"><ele>647.5714285714286</ele><time>2026-05-01T07:13:14.135Z</time></trkpt><trkpt lat="44.1979377" lon="11.3467662"><ele>648.7142857142858</ele><time>2026-05-01T07:13:15.135Z</time></trkpt><trkpt lat="44.1978683" lon="11.3467173"><ele>649.8571428571429</ele><time>2026-05-01T07:13:16.135Z</time></trkpt><trkpt lat="44.1978008" lon="11.3466658"><ele>651.0</ele><time>2026-05-01T07:13:17.136Z</time></trkpt><trkpt lat="44.1977372" lon="11.3465995"><ele>651.0</ele><time>2026-05-01T07:13:18.138Z</time></trkpt><trkpt lat="44.1976898" lon="11.3465142"><ele>651.0</ele><time>2026-05-01T07:13:19.137Z</time></trkpt><trkpt lat="44.1976537" lon="11.3464395"><ele>651.0</ele><time>2026-05-01T07:13:20.137Z</time></trkpt><trkpt lat="44.1975805" lon="11.3463225"><ele>651.0</ele><time>2026-05-01T07:13:22.137Z</time></trkpt><trkpt lat="44.1975047" lon="11.3462105"><ele>651.0</ele><time>2026-05-01T07:13:24.139Z</time></trkpt><trkpt lat="44.1974993" lon="11.3460717"><ele>651.3333333333334</ele><time>2026-05-01T07:13:26.138Z</time></trkpt><trkpt lat="44.1974753" lon="11.3459762"><ele>651.6666666666666</ele><time>2026-05-01T07:13:28.137Z</time></trkpt><trkpt lat="44.1973893" lon="11.3459377"><ele>652.0</ele><time>2026-05-01T07:13:30.137Z</time></trkpt><trkpt lat="44.1973212" lon="11.345926"><ele>652.3333333333333</ele><time>2026-05-01T07:13:31.137Z</time></trkpt><trkpt lat="44.1972407" lon="11.3459183"><ele>652.6666666666666</ele><time>2026-05-01T07:13:32.137Z</time></trkpt><trkpt lat="44.1971617" lon="11.3459195"><ele>653.0</ele><time>2026-05-01T07:13:33.137Z</time></trkpt><trkpt lat="44.1970973" lon="11.3459215"><ele>654.4</ele><time>2026-05-01T07:13:34.137Z</time></trkpt><trkpt lat="44.1970063" lon="11.345933"><ele>655.8</ele><time>2026-05-01T07:13:36.137Z</time></trkpt><trkpt lat="44.1968882" lon="11.345924"><ele>657.2</ele><time>2026-05-01T07:13:38.135Z</time></trkpt><trkpt lat="44.1968083" lon="11.3459182"><ele>658.6</ele><time>2026-05-01T07:13:39.135Z</time></trkpt><trkpt lat="44.1967238" lon="11.3459058"><ele>660.0</ele><time>2026-05-01T07:13:40.133Z</time></trkpt><trkpt lat="44.1966398" lon="11.3458818"><ele>660.0</ele><time>2026-05-01T07:13:41.134Z</time></trkpt><trkpt lat="44.1965753" lon="11.3458658"><ele>660.0</ele><time>2026-05-01T07:13:42.134Z</time></trkpt><trkpt lat="44.1964805" lon="11.3458512"><ele>660.0</ele><time>2026-05-01T07:13:44.136Z</time></trkpt><trkpt lat="44.1963988" lon="11.3458448"><ele>660.0</ele><time>2026-05-01T07:13:46.136Z</time></trkpt><trkpt lat="44.1963178" lon="11.3458792"><ele>660.0</ele><time>2026-05-01T07:13:48.135Z</time></trkpt><trkpt lat="44.1962332" lon="11.34593"><ele>660.0</ele><time>2026-05-01T07:13:50.135Z</time></trkpt><trkpt lat="44.196161" lon="11.3460095"><ele>661.8</ele><time>2026-05-01T07:13:52.136Z</time></trkpt><trkpt lat="44.196097" lon="11.3461085"><ele>663.6</ele><time>2026-05-01T07:13:54.136Z</time></trkpt><trkpt lat="44.1959937" lon="11.3462133"><ele>665.4000000000001</ele><time>2026-05-01T07:13:56.135Z</time></trkpt><trkpt lat="44.1958968" lon="11.346266"><ele>667.2</ele><time>2026-05-01T07:13:58.134Z</time></trkpt><trkpt lat="44.1957925" lon="11.3462433"><ele>669.0</ele><time>2026-05-01T07:14:00.135Z</time></trkpt><trkpt lat="44.1957132" lon="11.3462303"><ele>669.5714285714286</ele><time>2026-05-01T07:14:01.135Z</time></trkpt><trkpt lat="44.1956455" lon="11.3462103"><ele>670.1428571428571</ele><time>2026-05-01T07:14:02.136Z</time></trkpt><trkpt lat="44.1955822" lon="11.3461757"><ele>670.7142857142858</ele><time>2026-05-01T07:14:03.133Z</time></trkpt><trkpt lat="44.195525" lon="11.3461353"><ele>671.2857142857142</ele><time>2026-05-01T07:14:04.135Z</time></trkpt><trkpt lat="44.1954547" lon="11.346091"><ele>671.8571428571428</ele><time>2026-05-01T07:14:05.135Z</time></trkpt><trkpt lat="44.19539" lon="11.3460477"><ele>672.4285714285714</ele><time>2026-05-01T07:14:06.134Z</time></trkpt><trkpt lat="44.1953287" lon="11.3460045"><ele>673.0</ele><time>2026-05-01T07:14:07.135Z</time></trkpt><trkpt lat="44.1952573" lon="11.345972"><ele>673.0</ele><time>2026-05-01T07:14:08.139Z</time></trkpt><trkpt lat="44.1951802" lon="11.3459425"><ele>673.0</ele><time>2026-05-01T07:14:09.137Z</time></trkpt><trkpt lat="44.1951063" lon="11.3459095"><ele>673.0</ele><time>2026-05-01T07:14:10.138Z</time></trkpt><trkpt lat="44.1950305" lon="11.3458803"><ele>673.0</ele><time>2026-05-01T07:14:11.138Z</time></trkpt><trkpt lat="44.1949615" lon="11.3458612"><ele>673.0</ele><time>2026-05-01T07:14:12.137Z</time></trkpt><trkpt lat="44.1948932" lon="11.3458492"><ele>673.0</ele><time>2026-05-01T07:14:13.136Z</time></trkpt><trkpt lat="44.1947955" lon="11.345841"><ele>673.4</ele><time>2026-05-01T07:14:15.136Z</time></trkpt><trkpt lat="44.1947293" lon="11.3458382"><ele>673.8</ele><time>2026-05-01T07:14:17.137Z</time></trkpt><trkpt lat="44.1946555" lon="11.3458327"><ele>674.2</ele><time>2026-05-01T07:14:19.137Z</time></trkpt><trkpt lat="44.194522" lon="11.3458193"><ele>674.6</ele><time>2026-05-01T07:14:21.137Z</time></trkpt><trkpt lat="44.1944358" lon="11.3458065"><ele>675.0</ele><time>2026-05-01T07:14:22.136Z</time></trkpt><trkpt lat="44.1943408" lon="11.345786"><ele>675.0</ele><time>2026-05-01T07:14:23.137Z</time></trkpt><trkpt lat="44.194257" lon="11.3457687"><ele>675.0</ele><time>2026-05-01T07:14:24.136Z</time></trkpt><trkpt lat="44.19418" lon="11.3457622"><ele>675.0</ele><time>2026-05-01T07:14:25.136Z</time></trkpt><trkpt lat="44.1941115" lon="11.3457685"><ele>675.0</ele><time>2026-05-01T07:14:26.136Z</time></trkpt><trkpt lat="44.1940085" lon="11.3457635"><ele>675.0</ele><time>2026-05-01T07:14:28.136Z</time></trkpt><trkpt lat="44.1939465" lon="11.3456728"><ele>675.0</ele><time>2026-05-01T07:14:30.134Z</time></trkpt><trkpt lat="44.1939155" lon="11.34559"><ele>675.6666666666666</ele><time>2026-05-01T07:14:31.135Z</time></trkpt><trkpt lat="44.1938808" lon="11.345497"><ele>676.3333333333334</ele><time>2026-05-01T07:14:32.135Z</time></trkpt><trkpt lat="44.1938425" lon="11.3454028"><ele>677.0</ele><time>2026-05-01T07:14:33.136Z</time></trkpt><trkpt lat="44.1937983" lon="11.3453073"><ele>677.6666666666667</ele><time>2026-05-01T07:14:34.136Z</time></trkpt><trkpt lat="44.1937522" lon="11.3452168"><ele>678.3333333333334</ele><time>2026-05-01T07:14:35.136Z</time></trkpt><trkpt lat="44.1936998" lon="11.3451387"><ele>679.0</ele><time>2026-05-01T07:14:36.136Z</time></trkpt><trkpt lat="44.193641" lon="11.345073"><ele>679.0</ele><time>2026-05-01T07:14:37.135Z</time></trkpt><trkpt lat="44.1935755" lon="11.3450168"><ele>679.0</ele><time>2026-05-01T07:14:38.137Z</time></trkpt><trkpt lat="44.193503" lon="11.3449817"><ele>679.0</ele><time>2026-05-01T07:14:39.135Z</time></trkpt><trkpt lat="44.1934342" lon="11.3449563"><ele>679.0</ele><time>2026-05-01T07:14:40.136Z</time></trkpt><trkpt lat="44.1933708" lon="11.344939"><ele>679.0</ele><time>2026-05-01T07:14:41.136Z</time></trkpt><trkpt lat="44.1932598" lon="11.3449293"><ele>679.0</ele><time>2026-05-01T07:14:43.136Z</time></trkpt><trkpt lat="44.1931962" lon="11.344901"><ele>681.1666666666667</ele><time>2026-05-01T07:14:45.136Z</time></trkpt><trkpt lat="44.1931645" lon="11.34481"><ele>683.3333333333334</ele><time>2026-05-01T07:14:49.137Z</time></trkpt><trkpt lat="44.1931255" lon="11.3447158"><ele>685.5</ele><time>2026-05-01T07:14:51.135Z</time></trkpt><trkpt lat="44.1930555" lon="11.3445685"><ele>687.6666666666666</ele><time>2026-05-01T07:14:53.135Z</time></trkpt><trkpt lat="44.19303" lon="11.344488"><ele>689.8333333333333</ele><time>2026-05-01T07:14:54.135Z</time></trkpt><trkpt lat="44.1930173" lon="11.3443975"><ele>692.0</ele><time>2026-05-01T07:14:55.135Z</time></trkpt><trkpt lat="44.1930163" lon="11.3443093"><ele>692.0</ele><time>2026-05-01T07:14:56.135Z</time></trkpt><trkpt lat="44.1930482" lon="11.3441903"><ele>692.0</ele><time>2026-05-01T07:14:58.136Z</time></trkpt><trkpt lat="44.1931072" lon="11.3441475"><ele>692.0</ele><time>2026-05-01T07:15:01.136Z</time></trkpt><trkpt lat="44.1931767" lon="11.3441577"><ele>692.0</ele><time>2026-05-01T07:15:03.135Z</time></trkpt><trkpt lat="44.1932998" lon="11.3441948"><ele>692.0</ele><time>2026-05-01T07:15:05.136Z</time></trkpt><trkpt lat="44.1934038" lon="11.3441622"><ele>691.6666666666666</ele><time>2026-05-01T07:15:07.136Z</time></trkpt><trkpt lat="44.1934137" lon="11.3440502"><ele>691.3333333333333</ele><time>2026-05-01T07:15:09.135Z</time></trkpt><trkpt lat="44.1933865" lon="11.3439563"><ele>691.0</ele><time>2026-05-01T07:15:10.135Z</time></trkpt><trkpt lat="44.1933565" lon="11.3438477"><ele>690.6666666666666</ele><time>2026-05-01T07:15:11.136Z</time></trkpt><trkpt lat="44.1933138" lon="11.343731"><ele>690.3333333333334</ele><time>2026-05-01T07:15:12.133Z</time></trkpt><trkpt lat="44.1932602" lon="11.3436047"><ele>690.0</ele><time>2026-05-01T07:15:13.134Z</time></trkpt><trkpt lat="44.1932047" lon="11.343471"><ele>691.4</ele><time>2026-05-01T07:15:14.134Z</time></trkpt><trkpt lat="44.1931563" lon="11.3433418"><ele>692.8</ele><time>2026-05-01T07:15:15.133Z</time></trkpt><trkpt lat="44.1931063" lon="11.3432172"><ele>694.2</ele><time>2026-05-01T07:15:16.133Z</time></trkpt><trkpt lat="44.1930572" lon="11.3431087"><ele>695.6</ele><time>2026-05-01T07:15:17.133Z</time></trkpt><trkpt lat="44.1930197" lon="11.3429982"><ele>697.0</ele><time>2026-05-01T07:15:18.133Z</time></trkpt><trkpt lat="44.1929863" lon="11.3428987"><ele>698.1666666666667</ele><time>2026-05-01T07:15:19.132Z</time></trkpt><trkpt lat="44.192966" lon="11.342814"><ele>699.3333333333334</ele><time>2026-05-01T07:15:20.134Z</time></trkpt><trkpt lat="44.1929523" lon="11.3427258"><ele>700.5</ele><time>2026-05-01T07:15:21.134Z</time></trkpt><trkpt lat="44.1929427" lon="11.3426295"><ele>701.6666666666666</ele><time>2026-05-01T07:15:22.135Z</time></trkpt><trkpt lat="44.1929347" lon="11.3425288"><ele>702.8333333333333</ele><time>2026-05-01T07:15:23.135Z</time></trkpt><trkpt lat="44.192932" lon="11.3423627"><ele>704.0</ele><time>2026-05-01T07:15:25.135Z</time></trkpt><trkpt lat="44.192933" lon="11.3422017"><ele>704.6</ele><time>2026-05-01T07:15:27.135Z</time></trkpt><trkpt lat="44.1929392" lon="11.3420415"><ele>705.2</ele><time>2026-05-01T07:15:29.135Z</time></trkpt><trkpt lat="44.1929543" lon="11.3418932"><ele>705.8000000000001</ele><time>2026-05-01T07:15:31.134Z</time></trkpt><trkpt lat="44.1929775" lon="11.3417733"><ele>706.4000000000001</ele><time>2026-05-01T07:15:33.134Z</time></trkpt><trkpt lat="44.1929912" lon="11.341665"><ele>707.0</ele><time>2026-05-01T07:15:36.134Z</time></trkpt><trkpt lat="44.1929928" lon="11.3415662"><ele>707.0</ele><time>2026-05-01T07:15:44.134Z</time></trkpt><trkpt lat="44.1930407" lon="11.3414567"><ele>707.0</ele><time>2026-05-01T07:15:51.136Z</time></trkpt><trkpt lat="44.1930842" lon="11.3413763"><ele>707.0</ele><time>2026-05-01T07:15:52.135Z</time></trkpt><trkpt lat="44.1931233" lon="11.3412698"><ele>707.0</ele><time>2026-05-01T07:15:53.136Z</time></trkpt><trkpt lat="44.1931487" lon="11.3411572"><ele>707.0</ele><time>2026-05-01T07:15:54.135Z</time></trkpt><trkpt lat="44.1931697" lon="11.3410237"><ele>707.0</ele><time>2026-05-01T07:15:55.135Z</time></trkpt><trkpt lat="44.1931817" lon="11.3408847"><ele>707.3333333333333</ele><time>2026-05-01T07:15:56.136Z</time></trkpt><trkpt lat="44.193183" lon="11.3407682"><ele>707.6666666666666</ele><time>2026-05-01T07:15:57.135Z</time></trkpt><trkpt lat="44.1931637" lon="11.3406647"><ele>708.0</ele><time>2026-05-01T07:15:58.136Z</time></trkpt><trkpt lat="44.1931118" lon="11.340567"><ele>708.3333333333334</ele><time>2026-05-01T07:15:59.137Z</time></trkpt><trkpt lat="44.1930362" lon="11.3404602"><ele>708.6666666666667</ele><time>2026-05-01T07:16:00.136Z</time></trkpt><trkpt lat="44.1929703" lon="11.3403692"><ele>709.0</ele><time>2026-05-01T07:16:01.136Z</time></trkpt><trkpt lat="44.1929165" lon="11.3402955"><ele>709.8333333333334</ele><time>2026-05-01T07:16:02.137Z</time></trkpt><trkpt lat="44.1928672" lon="11.3402252"><ele>710.6666666666667</ele><time>2026-05-01T07:16:03.136Z</time></trkpt><trkpt lat="44.1928143" lon="11.3401498"><ele>711.5</ele><time>2026-05-01T07:16:04.136Z</time></trkpt><trkpt lat="44.1927567" lon="11.3400712"><ele>712.3333333333334</ele><time>2026-05-01T07:16:05.135Z</time></trkpt><trkpt lat="44.1926952" lon="11.3399952"><ele>713.1666666666666</ele><time>2026-05-01T07:16:06.134Z</time></trkpt><trkpt lat="44.1926217" lon="11.3399292"><ele>714.0</ele><time>2026-05-01T07:16:07.133Z</time></trkpt><trkpt lat="44.1925413" lon="11.3398728"><ele>714.0</ele><time>2026-05-01T07:16:08.134Z</time></trkpt><trkpt lat="44.1924573" lon="11.3398238"><ele>714.0</ele><time>2026-05-01T07:16:09.134Z</time></trkpt><trkpt lat="44.1923722" lon="11.3397853"><ele>714.0</ele><time>2026-05-01T07:16:10.135Z</time></trkpt><trkpt lat="44.192286" lon="11.3397493"><ele>714.0</ele><time>2026-05-01T07:16:11.136Z</time></trkpt><trkpt lat="44.1922005" lon="11.339709"><ele>714.0</ele><time>2026-05-01T07:16:12.135Z</time></trkpt><trkpt lat="44.1921165" lon="11.3396665"><ele>716.8333333333334</ele><time>2026-05-01T07:16:13.136Z</time></trkpt><trkpt lat="44.1920325" lon="11.33962"><ele>719.6666666666666</ele><time>2026-05-01T07:16:14.137Z</time></trkpt><trkpt lat="44.1919515" lon="11.3395677"><ele>722.5</ele><time>2026-05-01T07:16:15.136Z</time></trkpt><trkpt lat="44.1918697" lon="11.3395183"><ele>725.3333333333333</ele><time>2026-05-01T07:16:16.136Z</time></trkpt><trkpt lat="44.1917858" lon="11.3394758"><ele>728.1666666666666</ele><time>2026-05-01T07:16:17.135Z</time></trkpt><trkpt lat="44.1917037" lon="11.3394383"><ele>731.0</ele><time>2026-05-01T07:16:18.135Z</time></trkpt><trkpt lat="44.191624" lon="11.3394027"><ele>731.0</ele><time>2026-05-01T07:16:19.135Z</time></trkpt><trkpt lat="44.191544" lon="11.3393647"><ele>731.0</ele><time>2026-05-01T07:16:20.135Z</time></trkpt><trkpt lat="44.1914722" lon="11.3393188"><ele>731.0</ele><time>2026-05-01T07:16:21.136Z</time></trkpt><trkpt lat="44.1913938" lon="11.3392128"><ele>731.0</ele><time>2026-05-01T07:16:23.136Z</time></trkpt><trkpt lat="44.191401" lon="11.3390733"><ele>731.0</ele><time>2026-05-01T07:16:25.135Z</time></trkpt><trkpt lat="44.1914357" lon="11.338986"><ele>731.0</ele><time>2026-05-01T07:16:26.135Z</time></trkpt><trkpt lat="44.1914805" lon="11.3388768"><ele>731.8</ele><time>2026-05-01T07:16:27.134Z</time></trkpt><trkpt lat="44.191528" lon="11.3387668"><ele>732.5999999999999</ele><time>2026-05-01T07:16:28.135Z</time></trkpt><trkpt lat="44.1915767" lon="11.3386547"><ele>733.4</ele><time>2026-05-01T07:16:29.134Z</time></trkpt><trkpt lat="44.191623" lon="11.3385432"><ele>734.2</ele><time>2026-05-01T07:16:30.133Z</time></trkpt><trkpt lat="44.1916692" lon="11.338437"><ele>735.0</ele><time>2026-05-01T07:16:31.133Z</time></trkpt><trkpt lat="44.1917185" lon="11.3383372"><ele>735.0</ele><time>2026-05-01T07:16:32.133Z</time></trkpt><trkpt lat="44.1917687" lon="11.338238"><ele>735.0</ele><time>2026-05-01T07:16:33.132Z</time></trkpt><trkpt lat="44.191814" lon="11.3381412"><ele>735.0</ele><time>2026-05-01T07:16:34.133Z</time></trkpt><trkpt lat="44.1918607" lon="11.33804"><ele>735.0</ele><time>2026-05-01T07:16:35.135Z</time></trkpt><trkpt lat="44.1919035" lon="11.3379337"><ele>735.0</ele><time>2026-05-01T07:16:36.134Z</time></trkpt><trkpt lat="44.1919412" lon="11.3378392"><ele>735.0</ele><time>2026-05-01T07:16:37.134Z</time></trkpt><trkpt lat="44.1919812" lon="11.3377473"><ele>735.8333333333334</ele><time>2026-05-01T07:16:38.134Z</time></trkpt><trkpt lat="44.1920258" lon="11.3376572"><ele>736.6666666666666</ele><time>2026-05-01T07:16:39.134Z</time></trkpt><trkpt lat="44.1920792" lon="11.3375865"><ele>737.5</ele><time>2026-05-01T07:16:40.135Z</time></trkpt><trkpt lat="44.1921462" lon="11.3375395"><ele>738.3333333333333</ele><time>2026-05-01T07:16:41.135Z</time></trkpt><trkpt lat="44.1922315" lon="11.3375052"><ele>739.1666666666666</ele><time>2026-05-01T07:16:42.135Z</time></trkpt><trkpt lat="44.1923285" lon="11.3374735"><ele>740.0</ele><time>2026-05-01T07:16:43.134Z</time></trkpt><trkpt lat="44.1924293" lon="11.3374452"><ele>740.0</ele><time>2026-05-01T07:16:44.135Z</time></trkpt><trkpt lat="44.1925293" lon="11.3374185"><ele>740.0</ele><time>2026-05-01T07:16:45.134Z</time></trkpt><trkpt lat="44.1926278" lon="11.3373942"><ele>740.0</ele><time>2026-05-01T07:16:46.134Z</time></trkpt><trkpt lat="44.192724" lon="11.3373717"><ele>740.0</ele><time>2026-05-01T07:16:47.133Z</time></trkpt><trkpt lat="44.1928213" lon="11.3373395"><ele>740.0</ele><time>2026-05-01T07:16:48.134Z</time></trkpt><trkpt lat="44.1929197" lon="11.337298"><ele>740.0</ele><time>2026-05-01T07:16:49.134Z</time></trkpt><trkpt lat="44.1930167" lon="11.337259"><ele>740.0</ele><time>2026-05-01T07:16:50.135Z</time></trkpt><trkpt lat="44.1931122" lon="11.3372322"><ele>740.0</ele><time>2026-05-01T07:16:51.134Z</time></trkpt><trkpt lat="44.1932072" lon="11.337216"><ele>740.0</ele><time>2026-05-01T07:16:52.134Z</time></trkpt><trkpt lat="44.1933033" lon="11.3372047"><ele>740.0</ele><time>2026-05-01T07:16:53.134Z</time></trkpt><trkpt lat="44.1933988" lon="11.3371962"><ele>742.3333333333333</ele><time>2026-05-01T07:16:54.133Z</time></trkpt><trkpt lat="44.1934777" lon="11.3371822"><ele>744.6666666666666</ele><time>2026-05-01T07:16:55.133Z</time></trkpt><trkpt lat="44.193542" lon="11.3370802"><ele>747.0</ele><time>2026-05-01T07:16:57.132Z</time></trkpt><trkpt lat="44.1935397" lon="11.3369923"><ele>749.3333333333334</ele><time>2026-05-01T07:16:58.133Z</time></trkpt><trkpt lat="44.1935333" lon="11.3368978"><ele>751.6666666666667</ele><time>2026-05-01T07:16:59.135Z</time></trkpt><trkpt lat="44.1935233" lon="11.3367962"><ele>754.0</ele><time>2026-05-01T07:17:00.135Z</time></trkpt><trkpt lat="44.1935133" lon="11.3366928"><ele>754.0</ele><time>2026-05-01T07:17:01.135Z</time></trkpt><trkpt lat="44.1935055" lon="11.3365808"><ele>754.0</ele><time>2026-05-01T07:17:02.135Z</time></trkpt><trkpt lat="44.193502" lon="11.3364665"><ele>754.0</ele><time>2026-05-01T07:17:03.135Z</time></trkpt><trkpt lat="44.1935005" lon="11.3363457"><ele>754.0</ele><time>2026-05-01T07:17:04.135Z</time></trkpt><trkpt lat="44.1934993" lon="11.3362167"><ele>754.0</ele><time>2026-05-01T07:17:05.134Z</time></trkpt><trkpt lat="44.1934997" lon="11.3360833"><ele>754.0</ele><time>2026-05-01T07:17:06.134Z</time></trkpt><trkpt lat="44.1935045" lon="11.3359513"><ele>756.0</ele><time>2026-05-01T07:17:07.134Z</time></trkpt><trkpt lat="44.1935197" lon="11.3358303"><ele>758.0</ele><time>2026-05-01T07:17:08.134Z</time></trkpt><trkpt lat="44.1935385" lon="11.3357175"><ele>760.0</ele><time>2026-05-01T07:17:09.135Z</time></trkpt><trkpt lat="44.193546" lon="11.3356065"><ele>762.0</ele><time>2026-05-01T07:17:10.133Z</time></trkpt><trkpt lat="44.1935375" lon="11.335503"><ele>764.0</ele><time>2026-05-01T07:17:11.135Z</time></trkpt><trkpt lat="44.1935188" lon="11.335407"><ele>766.0</ele><time>2026-05-01T07:17:12.134Z</time></trkpt><trkpt lat="44.1934965" lon="11.3353195"><ele>768.1999999999999</ele><time>2026-05-01T07:17:13.134Z</time></trkpt><trkpt lat="44.1934472" lon="11.3352327"><ele>770.4</ele><time>2026-05-01T07:17:15.134Z</time></trkpt><trkpt lat="44.1934252" lon="11.3351203"><ele>772.6</ele><time>2026-05-01T07:17:17.135Z</time></trkpt><trkpt lat="44.1934182" lon="11.3349417"><ele>774.8</ele><time>2026-05-01T07:17:19.132Z</time></trkpt><trkpt lat="44.1934112" lon="11.3348448"><ele>777.0</ele><time>2026-05-01T07:17:20.133Z</time></trkpt><trkpt lat="44.1933922" lon="11.334676"><ele>778.0</ele><time>2026-05-01T07:17:22.132Z</time></trkpt><trkpt lat="44.1933447" lon="11.3345213"><ele>779.0</ele><time>2026-05-01T07:17:24.135Z</time></trkpt><trkpt lat="44.1933082" lon="11.3344383"><ele>780.0</ele><time>2026-05-01T07:17:25.134Z</time></trkpt><trkpt lat="44.1932665" lon="11.3343397"><ele>781.0</ele><time>2026-05-01T07:17:26.134Z</time></trkpt><trkpt lat="44.1932167" lon="11.3342268"><ele>782.0</ele><time>2026-05-01T07:17:27.134Z</time></trkpt><trkpt lat="44.1931567" lon="11.3341017"><ele>782.0</ele><time>2026-05-01T07:17:28.134Z</time></trkpt><trkpt lat="44.1930885" lon="11.3339713"><ele>782.0</ele><time>2026-05-01T07:17:29.135Z</time></trkpt><trkpt lat="44.193012" lon="11.3338453"><ele>782.0</ele><time>2026-05-01T07:17:30.135Z</time></trkpt><trkpt lat="44.1929248" lon="11.3337338"><ele>782.0</ele><time>2026-05-01T07:17:31.135Z</time></trkpt><trkpt lat="44.1928273" lon="11.3336448"><ele>788.0</ele><time>2026-05-01T07:17:32.134Z</time></trkpt><trkpt lat="44.192721" lon="11.3335878"><ele>794.0</ele><time>2026-05-01T07:17:33.134Z</time></trkpt><trkpt lat="44.192606" lon="11.3335735"><ele>800.0</ele><time>2026-05-01T07:17:34.133Z</time></trkpt><trkpt lat="44.1924897" lon="11.3335982"><ele>806.0</ele><time>2026-05-01T07:17:35.133Z</time></trkpt><trkpt lat="44.1923725" lon="11.3336468"><ele>810.0</ele><time>2026-05-01T07:17:36.133Z</time></trkpt><trkpt lat="44.1922545" lon="11.333704"><ele>814.0</ele><time>2026-05-01T07:17:37.133Z</time></trkpt><trkpt lat="44.1921347" lon="11.3337623"><ele>818.0</ele><time>2026-05-01T07:17:38.133Z</time></trkpt><trkpt lat="44.1920167" lon="11.3338242"><ele>822.0</ele><time>2026-05-01T07:17:39.133Z</time></trkpt><trkpt lat="44.1918973" lon="11.3338855"><ele>820.75</ele><time>2026-05-01T07:17:40.134Z</time></trkpt><trkpt lat="44.1917772" lon="11.3339498"><ele>819.5</ele><time>2026-05-01T07:17:41.134Z</time></trkpt><trkpt lat="44.1916592" lon="11.3340195"><ele>818.25</ele><time>2026-05-01T07:17:42.134Z</time></trkpt><trkpt lat="44.1915438" lon="11.3340997"><ele>817.0</ele><time>2026-05-01T07:17:43.133Z</time></trkpt><trkpt lat="44.1914297" lon="11.3341855"><ele>817.0</ele><time>2026-05-01T07:17:44.133Z</time></trkpt><trkpt lat="44.1913157" lon="11.3342735"><ele>817.0</ele><time>2026-05-01T07:17:45.132Z</time></trkpt><trkpt lat="44.1911988" lon="11.3343595"><ele>817.0</ele><time>2026-05-01T07:17:46.132Z</time></trkpt><trkpt lat="44.1910775" lon="11.3344287"><ele>817.0</ele><time>2026-05-01T07:17:47.132Z</time></trkpt><trkpt lat="44.1909505" lon="11.334477"><ele>817.0</ele><time>2026-05-01T07:17:48.134Z</time></trkpt><trkpt lat="44.1908213" lon="11.3345183"><ele>817.0</ele><time>2026-05-01T07:17:49.133Z</time></trkpt><trkpt lat="44.1906938" lon="11.3345568"><ele>817.0</ele><time>2026-05-01T07:17:50.133Z</time></trkpt><trkpt lat="44.1905682" lon="11.3345972"><ele>817.0</ele><time>2026-05-01T07:17:51.133Z</time></trkpt><trkpt lat="44.190443" lon="11.3346385"><ele>814.75</ele><time>2026-05-01T07:17:52.133Z</time></trkpt><trkpt lat="44.19032" lon="11.3346792"><ele>812.5</ele><time>2026-05-01T07:17:53.133Z</time></trkpt><trkpt lat="44.190199" lon="11.3347217"><ele>810.25</ele><time>2026-05-01T07:17:54.132Z</time></trkpt><trkpt lat="44.1900767" lon="11.334762"><ele>808.0</ele><time>2026-05-01T07:17:55.132Z</time></trkpt><trkpt lat="44.1899542" lon="11.334792"><ele>807.25</ele><time>2026-05-01T07:17:56.134Z</time></trkpt><trkpt lat="44.1898398" lon="11.334783"><ele>806.5</ele><time>2026-05-01T07:17:57.133Z</time></trkpt><trkpt lat="44.1897388" lon="11.3347275"><ele>805.75</ele><time>2026-05-01T07:17:58.133Z</time></trkpt><trkpt lat="44.1896547" lon="11.3346277"><ele>805.0</ele><time>2026-05-01T07:17:59.134Z</time></trkpt><trkpt lat="44.189589" lon="11.3344942"><ele>808.25</ele><time>2026-05-01T07:18:00.134Z</time></trkpt><trkpt lat="44.1895295" lon="11.3343462"><ele>811.5</ele><time>2026-05-01T07:18:01.133Z</time></trkpt><trkpt lat="44.1894722" lon="11.3341902"><ele>814.75</ele><time>2026-05-01T07:18:02.133Z</time></trkpt><trkpt lat="44.1894127" lon="11.3340315"><ele>818.0</ele><time>2026-05-01T07:18:03.133Z</time></trkpt><trkpt lat="44.1893495" lon="11.3338745"><ele>822.5</ele><time>2026-05-01T07:18:04.133Z</time></trkpt><trkpt lat="44.1892832" lon="11.3337195"><ele>827.0</ele><time>2026-05-01T07:18:05.134Z</time></trkpt><trkpt lat="44.1892102" lon="11.3335687"><ele>831.5</ele><time>2026-05-01T07:18:06.133Z</time></trkpt><trkpt lat="44.1891232" lon="11.3334317"><ele>836.0</ele><time>2026-05-01T07:18:07.133Z</time></trkpt><trkpt lat="44.189023" lon="11.3333147"><ele>835.0</ele><time>2026-05-01T07:18:08.132Z</time></trkpt><trkpt lat="44.1889092" lon="11.333227"><ele>834.0</ele><time>2026-05-01T07:18:09.131Z</time></trkpt><trkpt lat="44.1887892" lon="11.33316"><ele>833.0</ele><time>2026-05-01T07:18:10.133Z</time></trkpt><trkpt lat="44.1886688" lon="11.3331015"><ele>832.0</ele><time>2026-05-01T07:18:11.132Z</time></trkpt><trkpt lat="44.1885505" lon="11.3330375"><ele>836.0</ele><time>2026-05-01T07:18:12.133Z</time></trkpt><trkpt lat="44.1884315" lon="11.3329732"><ele>840.0</ele><time>2026-05-01T07:18:13.133Z</time></trkpt><trkpt lat="44.1883077" lon="11.3329132"><ele>844.0</ele><time>2026-05-01T07:18:14.134Z</time></trkpt><trkpt lat="44.1881777" lon="11.3328722"><ele>848.0</ele><time>2026-05-01T07:18:15.133Z</time></trkpt><trkpt lat="44.1880483" lon="11.3328465"><ele>849.0</ele><time>2026-05-01T07:18:16.133Z</time></trkpt><trkpt lat="44.1879183" lon="11.3328483"><ele>850.0</ele><time>2026-05-01T07:18:17.134Z</time></trkpt><trkpt lat="44.1877903" lon="11.3328738"><ele>851.0</ele><time>2026-05-01T07:18:18.133Z</time></trkpt><trkpt lat="44.1876663" lon="11.3329222"><ele>852.0</ele><time>2026-05-01T07:18:19.132Z</time></trkpt><trkpt lat="44.187552" lon="11.3330062"><ele>851.75</ele><time>2026-05-01T07:18:20.134Z</time></trkpt><trkpt lat="44.187451" lon="11.3331218"><ele>851.5</ele><time>2026-05-01T07:18:21.133Z</time></trkpt><trkpt lat="44.187365" lon="11.3332612"><ele>851.25</ele><time>2026-05-01T07:18:22.133Z</time></trkpt><trkpt lat="44.1872872" lon="11.3334055"><ele>851.0</ele><time>2026-05-01T07:18:23.135Z</time></trkpt><trkpt lat="44.1872007" lon="11.3335263"><ele>851.0</ele><time>2026-05-01T07:18:24.133Z</time></trkpt><trkpt lat="44.1871035" lon="11.3335975"><ele>851.0</ele><time>2026-05-01T07:18:25.134Z</time></trkpt><trkpt lat="44.1869897" lon="11.3336293"><ele>851.0</ele><time>2026-05-01T07:18:26.134Z</time></trkpt><trkpt lat="44.1868662" lon="11.3336463"><ele>851.0</ele><time>2026-05-01T07:18:27.134Z</time></trkpt><trkpt lat="44.1867393" lon="11.3336658"><ele>851.0</ele><time>2026-05-01T07:18:28.133Z</time></trkpt><trkpt lat="44.1866167" lon="11.3337067"><ele>851.0</ele><time>2026-05-01T07:18:29.133Z</time></trkpt><trkpt lat="44.1865012" lon="11.3337833"><ele>851.0</ele><time>2026-05-01T07:18:30.133Z</time></trkpt><trkpt lat="44.1863968" lon="11.3338913"><ele>851.0</ele><time>2026-05-01T07:18:31.133Z</time></trkpt><trkpt lat="44.1863092" lon="11.3340323"><ele>852.5</ele><time>2026-05-01T07:18:32.133Z</time></trkpt><trkpt lat="44.186231" lon="11.334186"><ele>854.0</ele><time>2026-05-01T07:18:33.132Z</time></trkpt><trkpt lat="44.1861417" lon="11.3343135"><ele>855.5</ele><time>2026-05-01T07:18:34.132Z</time></trkpt><trkpt lat="44.186032" lon="11.3343925"><ele>857.0</ele><time>2026-05-01T07:18:35.133Z</time></trkpt><trkpt lat="44.1859085" lon="11.334426"><ele>857.0</ele><time>2026-05-01T07:18:36.132Z</time></trkpt><trkpt lat="44.1857787" lon="11.3344202"><ele>857.0</ele><time>2026-05-01T07:18:37.134Z</time></trkpt><trkpt lat="44.1856447" lon="11.3344023"><ele>857.0</ele><time>2026-05-01T07:18:38.133Z</time></trkpt><trkpt lat="44.1855098" lon="11.334371"><ele>857.0</ele><time>2026-05-01T07:18:39.134Z</time></trkpt><trkpt lat="44.1853757" lon="11.3343475"><ele>861.0</ele><time>2026-05-01T07:18:40.133Z</time></trkpt><trkpt lat="44.185245" lon="11.3343587"><ele>865.0</ele><time>2026-05-01T07:18:41.133Z</time></trkpt><trkpt lat="44.1851213" lon="11.3344187"><ele>869.0</ele><time>2026-05-01T07:18:42.133Z</time></trkpt><trkpt lat="44.1849988" lon="11.3345102"><ele>873.0</ele><time>2026-05-01T07:18:43.133Z</time></trkpt><trkpt lat="44.1848757" lon="11.3346098"><ele>871.5</ele><time>2026-05-01T07:18:44.133Z</time></trkpt><trkpt lat="44.1847543" lon="11.3347132"><ele>870.0</ele><time>2026-05-01T07:18:45.133Z</time></trkpt><trkpt lat="44.184633" lon="11.3348082"><ele>868.5</ele><time>2026-05-01T07:18:46.133Z</time></trkpt><trkpt lat="44.1845108" lon="11.3348912"><ele>867.0</ele><time>2026-05-01T07:18:47.133Z</time></trkpt><trkpt lat="44.184387" lon="11.3349618"><ele>867.0</ele><time>2026-05-01T07:18:48.133Z</time></trkpt><trkpt lat="44.1842628" lon="11.3350253"><ele>867.0</ele><time>2026-05-01T07:18:49.133Z</time></trkpt><trkpt lat="44.1841403" lon="11.3350878"><ele>867.0</ele><time>2026-05-01T07:18:50.133Z</time></trkpt><trkpt lat="44.1840198" lon="11.3351473"><ele>867.0</ele><time>2026-05-01T07:18:51.133Z</time></trkpt><trkpt lat="44.1838997" lon="11.335201"><ele>870.0</ele><time>2026-05-01T07:18:52.133Z</time></trkpt><trkpt lat="44.1837782" lon="11.3352448"><ele>873.0</ele><time>2026-05-01T07:18:53.135Z</time></trkpt><trkpt lat="44.183655" lon="11.3352722"><ele>876.0</ele><time>2026-05-01T07:18:54.133Z</time></trkpt><trkpt lat="44.183531" lon="11.3352743"><ele>879.0</ele><time>2026-05-01T07:18:55.133Z</time></trkpt><trkpt lat="44.1834042" lon="11.335263"><ele>879.0</ele><time>2026-05-01T07:18:56.133Z</time></trkpt><trkpt lat="44.1832758" lon="11.335244"><ele>879.0</ele><time>2026-05-01T07:18:57.132Z</time></trkpt><trkpt lat="44.1831473" lon="11.3352202"><ele>879.0</ele><time>2026-05-01T07:18:58.132Z</time></trkpt><trkpt lat="44.1830178" lon="11.3351962"><ele>879.0</ele><time>2026-05-01T07:18:59.132Z</time></trkpt><trkpt lat="44.1828892" lon="11.3351827"><ele>880.75</ele><time>2026-05-01T07:19:00.132Z</time></trkpt><trkpt lat="44.1827615" lon="11.335199"><ele>882.5</ele><time>2026-05-01T07:19:01.133Z</time></trkpt><trkpt lat="44.182636" lon="11.3352443"><ele>884.25</ele><time>2026-05-01T07:19:02.134Z</time></trkpt><trkpt lat="44.1825138" lon="11.3353003"><ele>886.0</ele><time>2026-05-01T07:19:03.134Z</time></trkpt><trkpt lat="44.1823917" lon="11.3353565"><ele>887.5</ele><time>2026-05-01T07:19:04.135Z</time></trkpt><trkpt lat="44.1822678" lon="11.3354068"><ele>889.0</ele><time>2026-05-01T07:19:05.134Z</time></trkpt><trkpt lat="44.1821387" lon="11.3354447"><ele>890.5</ele><time>2026-05-01T07:19:06.134Z</time></trkpt><trkpt lat="44.182006" lon="11.3354735"><ele>892.0</ele><time>2026-05-01T07:19:07.133Z</time></trkpt><trkpt lat="44.1818723" lon="11.3354992"><ele>892.0</ele><time>2026-05-01T07:19:08.134Z</time></trkpt><trkpt lat="44.1817402" lon="11.335508"><ele>892.0</ele><time>2026-05-01T07:19:09.134Z</time></trkpt><trkpt lat="44.1816152" lon="11.3354727"><ele>892.0</ele><time>2026-05-01T07:19:10.133Z</time></trkpt><trkpt lat="44.1815053" lon="11.3353965"><ele>892.0</ele><time>2026-05-01T07:19:11.134Z</time></trkpt><trkpt lat="44.1814107" lon="11.335288"><ele>892.25</ele><time>2026-05-01T07:19:12.133Z</time></trkpt><trkpt lat="44.1813165" lon="11.3351763"><ele>892.5</ele><time>2026-05-01T07:19:13.133Z</time></trkpt><trkpt lat="44.1812095" lon="11.3350852"><ele>892.75</ele><time>2026-05-01T07:19:14.133Z</time></trkpt><trkpt lat="44.1810943" lon="11.3350113"><ele>893.0</ele><time>2026-05-01T07:19:15.133Z</time></trkpt><trkpt lat="44.1809718" lon="11.334958"><ele>893.0</ele><time>2026-05-01T07:19:16.133Z</time></trkpt><trkpt lat="44.1808402" lon="11.334932"><ele>893.0</ele><time>2026-05-01T07:19:17.133Z</time></trkpt><trkpt lat="44.180706" lon="11.3349272"><ele>893.0</ele><time>2026-05-01T07:19:18.133Z</time></trkpt><trkpt lat="44.1805695" lon="11.3349312"><ele>893.0</ele><time>2026-05-01T07:19:19.133Z</time></trkpt><trkpt lat="44.180432" lon="11.3349373"><ele>893.75</ele><time>2026-05-01T07:19:20.135Z</time></trkpt><trkpt lat="44.1802955" lon="11.3349438"><ele>894.5</ele><time>2026-05-01T07:19:21.133Z</time></trkpt><trkpt lat="44.1801617" lon="11.3349598"><ele>895.25</ele><time>2026-05-01T07:19:22.132Z</time></trkpt><trkpt lat="44.1800293" lon="11.334991"><ele>896.0</ele><time>2026-05-01T07:19:23.132Z</time></trkpt><trkpt lat="44.1798988" lon="11.3350367"><ele>902.25</ele><time>2026-05-01T07:19:24.132Z</time></trkpt><trkpt lat="44.179773" lon="11.335095"><ele>908.5</ele><time>2026-05-01T07:19:25.132Z</time></trkpt><trkpt lat="44.1796505" lon="11.3351555"><ele>914.75</ele><time>2026-05-01T07:19:26.133Z</time></trkpt><trkpt lat="44.1795307" lon="11.3352203"><ele>921.0</ele><time>2026-05-01T07:19:27.133Z</time></trkpt><trkpt lat="44.1794148" lon="11.3352892"><ele>921.0</ele><time>2026-05-01T07:19:28.133Z</time></trkpt><trkpt lat="44.1793105" lon="11.3353793"><ele>921.0</ele><time>2026-05-01T07:19:29.134Z</time></trkpt><trkpt lat="44.179226" lon="11.335493"><ele>921.0</ele><time>2026-05-01T07:19:30.134Z</time></trkpt><trkpt lat="44.1791765" lon="11.3356367"><ele>921.0</ele><time>2026-05-01T07:19:31.132Z</time></trkpt><trkpt lat="44.179163" lon="11.3357997"><ele>915.75</ele><time>2026-05-01T07:19:32.133Z</time></trkpt><trkpt lat="44.1791662" lon="11.3359705"><ele>910.5</ele><time>2026-05-01T07:19:33.134Z</time></trkpt><trkpt lat="44.179169" lon="11.3361405"><ele>905.25</ele><time>2026-05-01T07:19:34.134Z</time></trkpt><trkpt lat="44.1791575" lon="11.3363072"><ele>900.0</ele><time>2026-05-01T07:19:35.134Z</time></trkpt><trkpt lat="44.1791165" lon="11.3364553"><ele>899.2</ele><time>2026-05-01T07:19:36.136Z</time></trkpt><trkpt lat="44.1790477" lon="11.3365795"><ele>898.4</ele><time>2026-05-01T07:19:37.134Z</time></trkpt><trkpt lat="44.1789608" lon="11.3366805"><ele>897.5999999999999</ele><time>2026-05-01T07:19:38.134Z</time></trkpt><trkpt lat="44.1788642" lon="11.3367377"><ele>896.8</ele><time>2026-05-01T07:19:39.134Z</time></trkpt><trkpt lat="44.1787648" lon="11.3367317"><ele>896.0</ele><time>2026-05-01T07:19:40.134Z</time></trkpt><trkpt lat="44.178674" lon="11.3366655"><ele>899.75</ele><time>2026-05-01T07:19:41.135Z</time></trkpt><trkpt lat="44.1785892" lon="11.336561"><ele>903.5</ele><time>2026-05-01T07:19:42.135Z</time></trkpt><trkpt lat="44.1785027" lon="11.3364428"><ele>907.25</ele><time>2026-05-01T07:19:43.135Z</time></trkpt><trkpt lat="44.1784108" lon="11.3363288"><ele>911.0</ele><time>2026-05-01T07:19:44.136Z</time></trkpt><trkpt lat="44.1783117" lon="11.3362318"><ele>914.25</ele><time>2026-05-01T07:19:45.135Z</time></trkpt><trkpt lat="44.1782003" lon="11.3361617"><ele>917.5</ele><time>2026-05-01T07:19:46.132Z</time></trkpt><trkpt lat="44.1780802" lon="11.3361315"><ele>920.75</ele><time>2026-05-01T07:19:47.134Z</time></trkpt><trkpt lat="44.1779587" lon="11.3361558"><ele>924.0</ele><time>2026-05-01T07:19:48.133Z</time></trkpt><trkpt lat="44.17784" lon="11.3362175"><ele>923.5</ele><time>2026-05-01T07:19:49.133Z</time></trkpt><trkpt lat="44.1777233" lon="11.3362967"><ele>923.0</ele><time>2026-05-01T07:19:50.135Z</time></trkpt><trkpt lat="44.1776115" lon="11.3363898"><ele>922.5</ele><time>2026-05-01T07:19:51.135Z</time></trkpt><trkpt lat="44.1775068" lon="11.3365022"><ele>922.0</ele><time>2026-05-01T07:19:52.136Z</time></trkpt><trkpt lat="44.1774078" lon="11.336626"><ele>928.25</ele><time>2026-05-01T07:19:53.135Z</time></trkpt><trkpt lat="44.1773147" lon="11.3367543"><ele>934.5</ele><time>2026-05-01T07:19:54.134Z</time></trkpt><trkpt lat="44.17724" lon="11.3368857"><ele>940.75</ele><time>2026-05-01T07:19:55.135Z</time></trkpt><trkpt lat="44.177202" lon="11.3370322"><ele>947.0</ele><time>2026-05-01T07:19:56.135Z</time></trkpt><trkpt lat="44.1772113" lon="11.3371833"><ele>945.2</ele><time>2026-05-01T07:19:57.134Z</time></trkpt><trkpt lat="44.1772468" lon="11.3373333"><ele>943.4000000000001</ele><time>2026-05-01T07:19:58.134Z</time></trkpt><trkpt lat="44.1772742" lon="11.3374863"><ele>941.5999999999999</ele><time>2026-05-01T07:19:59.138Z</time></trkpt><trkpt lat="44.1772705" lon="11.3376383"><ele>939.8</ele><time>2026-05-01T07:20:00.135Z</time></trkpt><trkpt lat="44.1772358" lon="11.3377892"><ele>938.0</ele><time>2026-05-01T07:20:01.136Z</time></trkpt><trkpt lat="44.1771792" lon="11.3379272"><ele>938.0</ele><time>2026-05-01T07:20:02.136Z</time></trkpt><trkpt lat="44.1771013" lon="11.3380373"><ele>938.0</ele><time>2026-05-01T07:20:03.135Z</time></trkpt><trkpt lat="44.1770067" lon="11.3381228"><ele>938.0</ele><time>2026-05-01T07:20:04.134Z</time></trkpt><trkpt lat="44.1769047" lon="11.338175"><ele>938.0</ele><time>2026-05-01T07:20:05.138Z</time></trkpt><trkpt lat="44.1768037" lon="11.3381762"><ele>938.0</ele><time>2026-05-01T07:20:06.135Z</time></trkpt><trkpt lat="44.1767005" lon="11.3381355"><ele>935.75</ele><time>2026-05-01T07:20:07.135Z</time></trkpt><trkpt lat="44.1765915" lon="11.338075"><ele>933.5</ele><time>2026-05-01T07:20:08.141Z</time></trkpt><trkpt lat="44.1764753" lon="11.3380072"><ele>931.25</ele><time>2026-05-01T07:20:09.135Z</time></trkpt><trkpt lat="44.1763547" lon="11.3379388"><ele>929.0</ele><time>2026-05-01T07:20:10.134Z</time></trkpt><trkpt lat="44.1762305" lon="11.3378692"><ele>933.5</ele><time>2026-05-01T07:20:11.134Z</time></trkpt><trkpt lat="44.176107" lon="11.3377955"><ele>938.0</ele><time>2026-05-01T07:20:12.133Z</time></trkpt><trkpt lat="44.1759897" lon="11.3377085"><ele>942.5</ele><time>2026-05-01T07:20:13.132Z</time></trkpt><trkpt lat="44.1758807" lon="11.3376082"><ele>947.0</ele><time>2026-05-01T07:20:14.133Z</time></trkpt><trkpt lat="44.1757867" lon="11.337489"><ele>947.0</ele><time>2026-05-01T07:20:15.134Z</time></trkpt><trkpt lat="44.1757087" lon="11.3373518"><ele>947.0</ele><time>2026-05-01T07:20:16.134Z</time></trkpt><trkpt lat="44.1756452" lon="11.3372018"><ele>947.0</ele><time>2026-05-01T07:20:17.134Z</time></trkpt><trkpt lat="44.1755805" lon="11.3370525"><ele>947.0</ele><time>2026-05-01T07:20:18.134Z</time></trkpt><trkpt lat="44.1754982" lon="11.3369212"><ele>948.25</ele><time>2026-05-01T07:20:19.133Z</time></trkpt><trkpt lat="44.1754" lon="11.3368092"><ele>949.5</ele><time>2026-05-01T07:20:20.133Z</time></trkpt><trkpt lat="44.1752928" lon="11.336715"><ele>950.75</ele><time>2026-05-01T07:20:21.134Z</time></trkpt><trkpt lat="44.1751827" lon="11.3366368"><ele>952.0</ele><time>2026-05-01T07:20:22.134Z</time></trkpt><trkpt lat="44.1750697" lon="11.3365878"><ele>952.0</ele><time>2026-05-01T07:20:23.135Z</time></trkpt><trkpt lat="44.1749523" lon="11.3365802"><ele>952.0</ele><time>2026-05-01T07:20:24.133Z</time></trkpt><trkpt lat="44.1748315" lon="11.336611"><ele>952.0</ele><time>2026-05-01T07:20:25.133Z</time></trkpt><trkpt lat="44.1747138" lon="11.3366663"><ele>952.0</ele><time>2026-05-01T07:20:26.135Z</time></trkpt><trkpt lat="44.1746023" lon="11.3367347"><ele>953.75</ele><time>2026-05-01T07:20:27.135Z</time></trkpt><trkpt lat="44.174497" lon="11.3368157"><ele>955.5</ele><time>2026-05-01T07:20:28.135Z</time></trkpt><trkpt lat="44.1743973" lon="11.3369"><ele>957.25</ele><time>2026-05-01T07:20:29.135Z</time></trkpt><trkpt lat="44.1742995" lon="11.3369837"><ele>959.0</ele><time>2026-05-01T07:20:30.134Z</time></trkpt><trkpt lat="44.1742018" lon="11.3370673"><ele>959.0</ele><time>2026-05-01T07:20:31.134Z</time></trkpt><trkpt lat="44.1741052" lon="11.3371503"><ele>959.0000000000001</ele><time>2026-05-01T07:20:32.135Z</time></trkpt><trkpt lat="44.1740127" lon="11.3372307"><ele>959.0000000000001</ele><time>2026-05-01T07:20:33.135Z</time></trkpt><trkpt lat="44.1739242" lon="11.3373102"><ele>959.0</ele><time>2026-05-01T07:20:34.133Z</time></trkpt><trkpt lat="44.1738432" lon="11.3373987"><ele>959.0</ele><time>2026-05-01T07:20:35.132Z</time></trkpt><trkpt lat="44.1737712" lon="11.337503"><ele>960.0000000000001</ele><time>2026-05-01T07:20:36.132Z</time></trkpt><trkpt lat="44.173712" lon="11.337615"><ele>961.0</ele><time>2026-05-01T07:20:37.132Z</time></trkpt><trkpt lat="44.1736643" lon="11.3377178"><ele>962.0</ele><time>2026-05-01T07:20:38.133Z</time></trkpt><trkpt lat="44.1736263" lon="11.3378022"><ele>963.0</ele><time>2026-05-01T07:20:39.134Z</time></trkpt><trkpt lat="44.1735743" lon="11.337914"><ele>964.0000000000001</ele><time>2026-05-01T07:20:41.134Z</time></trkpt><trkpt lat="44.173531" lon="11.3380107"><ele>965.0</ele><time>2026-05-01T07:20:43.133Z</time></trkpt><trkpt lat="44.1734667" lon="11.338122"><ele>965.0000000000001</ele><time>2026-05-01T07:20:45.133Z</time></trkpt><trkpt lat="44.1733917" lon="11.3382028"><ele>965.0</ele><time>2026-05-01T07:20:47.134Z</time></trkpt><trkpt lat="44.1733108" lon="11.3382597"><ele>965.0</ele><time>2026-05-01T07:20:49.135Z</time></trkpt><trkpt lat="44.1732288" lon="11.338295"><ele>965.0</ele><time>2026-05-01T07:20:51.133Z</time></trkpt><trkpt lat="44.1731447" lon="11.3383548"><ele>965.0000000000001</ele><time>2026-05-01T07:20:53.134Z</time></trkpt><trkpt lat="44.1732033" lon="11.3384227"><ele>965.0</ele><time>2026-05-01T07:21:00.134Z</time></trkpt><trkpt lat="44.1733045" lon="11.3383675"><ele>965.0000000000001</ele><time>2026-05-01T07:21:02.133Z</time></trkpt><trkpt lat="44.1733992" lon="11.3382865"><ele>965.0</ele><time>2026-05-01T07:21:04.135Z</time></trkpt><trkpt lat="44.1734823" lon="11.3382157"><ele>965.0</ele><time>2026-05-01T07:21:06.134Z</time></trkpt><trkpt lat="44.173533" lon="11.338141"><ele>965.0</ele><time>2026-05-01T07:21:08.135Z</time></trkpt><trkpt lat="44.1735782" lon="11.3380483"><ele>965.0000000000001</ele><time>2026-05-01T07:21:11.134Z</time></trkpt><trkpt lat="44.1736037" lon="11.337965"><ele>965.0</ele><time>2026-05-01T07:21:21.134Z</time></trkpt><trkpt lat="44.1735387" lon="11.3379737"><ele>965.0</ele><time>2026-05-01T07:21:25.132Z</time></trkpt><trkpt lat="44.173487" lon="11.3380865"><ele>965.0</ele><time>2026-05-01T07:21:27.132Z</time></trkpt><trkpt lat="44.1734032" lon="11.3381848"><ele>965.0</ele><time>2026-05-01T07:21:29.135Z</time></trkpt><trkpt lat="44.173294" lon="11.3382582"><ele>965.0</ele><time>2026-05-01T07:21:31.135Z</time></trkpt><trkpt lat="44.1731738" lon="11.3383037"><ele>964.2</ele><time>2026-05-01T07:21:33.136Z</time></trkpt><trkpt lat="44.173053" lon="11.3383238"><ele>963.4</ele><time>2026-05-01T07:21:35.135Z</time></trkpt><trkpt lat="44.1729507" lon="11.3383233"><ele>962.5999999999999</ele><time>2026-05-01T07:21:37.134Z</time></trkpt><trkpt lat="44.1728642" lon="11.3383215"><ele>961.8</ele><time>2026-05-01T07:21:39.134Z</time></trkpt><trkpt lat="44.1727848" lon="11.3382942"><ele>961.0</ele><time>2026-05-01T07:21:41.136Z</time></trkpt><trkpt lat="44.1727283" lon="11.3382538"><ele>960.9999999999999</ele><time>2026-05-01T07:21:43.134Z</time></trkpt><trkpt lat="44.1727075" lon="11.3383432"><ele>961.0</ele><time>2026-05-01T07:21:50.132Z</time></trkpt><trkpt lat="44.1727888" lon="11.3383842"><ele>961.0</ele><time>2026-05-01T07:21:52.132Z</time></trkpt><trkpt lat="44.172879" lon="11.3384235"><ele>961.0</ele><time>2026-05-01T07:21:54.134Z</time></trkpt><trkpt lat="44.1729627" lon="11.3384598"><ele>960.9999999999999</ele><time>2026-05-01T07:21:56.134Z</time></trkpt><trkpt lat="44.1730425" lon="11.3384607"><ele>961.0</ele><time>2026-05-01T07:21:58.135Z</time></trkpt><trkpt lat="44.1731223" lon="11.338454"><ele>961.6666666666666</ele><time>2026-05-01T07:22:00.134Z</time></trkpt><trkpt lat="44.1731945" lon="11.338428"><ele>962.3333333333333</ele><time>2026-05-01T07:22:02.134Z</time></trkpt><trkpt lat="44.1732718" lon="11.3383875"><ele>963.0</ele><time>2026-05-01T07:22:04.134Z</time></trkpt><trkpt lat="44.173352" lon="11.3383425"><ele>963.6666666666667</ele><time>2026-05-01T07:22:06.134Z</time></trkpt><trkpt lat="44.1734115" lon="11.3382847"><ele>964.3333333333334</ele><time>2026-05-01T07:22:08.135Z</time></trkpt><trkpt lat="44.1734612" lon="11.3382308"><ele>965.0</ele><time>2026-05-01T07:22:10.134Z</time></trkpt><trkpt lat="44.1735335" lon="11.3381577"><ele>965.0000000000001</ele><time>2026-05-01T07:22:13.132Z</time></trkpt><trkpt lat="44.173483" lon="11.338101"><ele>965.0</ele><time>2026-05-01T07:23:04.131Z</time></trkpt><trkpt lat="44.1734007" lon="11.3381815"><ele>965.0</ele><time>2026-05-01T07:23:06.133Z</time></trkpt><trkpt lat="44.1733495" lon="11.3382442"><ele>965.0</ele><time>2026-05-01T07:23:07.134Z</time></trkpt><trkpt lat="44.173285" lon="11.3383015"><ele>965.0000000000001</ele><time>2026-05-01T07:23:08.134Z</time></trkpt><trkpt lat="44.173215" lon="11.3383468"><ele>965.0</ele><time>2026-05-01T07:23:09.133Z</time></trkpt><trkpt lat="44.1731492" lon="11.3383832"><ele>964.3333333333334</ele><time>2026-05-01T07:23:10.133Z</time></trkpt><trkpt lat="44.1730868" lon="11.3384167"><ele>963.6666666666667</ele><time>2026-05-01T07:23:11.134Z</time></trkpt><trkpt lat="44.1730265" lon="11.3384653"><ele>963.0</ele><time>2026-05-01T07:23:12.136Z</time></trkpt><trkpt lat="44.1729778" lon="11.3385258"><ele>962.3333333333333</ele><time>2026-05-01T07:23:13.134Z</time></trkpt><trkpt lat="44.1729135" lon="11.3386392"><ele>961.6666666666666</ele><time>2026-05-01T07:23:15.135Z</time></trkpt><trkpt lat="44.172897" lon="11.338741"><ele>961.0</ele><time>2026-05-01T07:23:17.135Z</time></trkpt><trkpt lat="44.1729028" lon="11.3388512"><ele>961.8</ele><time>2026-05-01T07:23:19.135Z</time></trkpt><trkpt lat="44.172892" lon="11.3389807"><ele>962.5999999999999</ele><time>2026-05-01T07:23:21.134Z</time></trkpt><trkpt lat="44.1728455" lon="11.339121"><ele>963.4</ele><time>2026-05-01T07:23:23.134Z</time></trkpt><trkpt lat="44.1727852" lon="11.3392655"><ele>964.2</ele><time>2026-05-01T07:23:25.133Z</time></trkpt><trkpt lat="44.1727348" lon="11.3394035"><ele>965.0</ele><time>2026-05-01T07:23:27.133Z</time></trkpt><trkpt lat="44.1726835" lon="11.3395682"><ele>965.0000000000001</ele><time>2026-05-01T07:23:29.132Z</time></trkpt><trkpt lat="44.1726675" lon="11.3396642"><ele>965.0</ele><time>2026-05-01T07:23:30.133Z</time></trkpt><trkpt lat="44.1726652" lon="11.3397725"><ele>965.0</ele><time>2026-05-01T07:23:31.133Z</time></trkpt><trkpt lat="44.1726698" lon="11.3398848"><ele>965.0</ele><time>2026-05-01T07:23:32.133Z</time></trkpt><trkpt lat="44.172663" lon="11.3399892"><ele>965.0000000000001</ele><time>2026-05-01T07:23:33.134Z</time></trkpt><trkpt lat="44.1726387" lon="11.3400952"><ele>965.0</ele><time>2026-05-01T07:23:34.132Z</time></trkpt><trkpt lat="44.1726003" lon="11.3401963"><ele>965.8333333333334</ele><time>2026-05-01T07:23:35.134Z</time></trkpt><trkpt lat="44.1725517" lon="11.3402933"><ele>966.6666666666667</ele><time>2026-05-01T07:23:36.133Z</time></trkpt><trkpt lat="44.1725023" lon="11.3403945"><ele>967.5</ele><time>2026-05-01T07:23:37.134Z</time></trkpt><trkpt lat="44.1724627" lon="11.3404987"><ele>968.3333333333333</ele><time>2026-05-01T07:23:38.134Z</time></trkpt><trkpt lat="44.1724468" lon="11.3406072"><ele>969.1666666666666</ele><time>2026-05-01T07:23:39.132Z</time></trkpt><trkpt lat="44.1724552" lon="11.3407095"><ele>970.0</ele><time>2026-05-01T07:23:40.133Z</time></trkpt><trkpt lat="44.1724718" lon="11.3408045"><ele>970.1666666666666</ele><time>2026-05-01T07:23:41.134Z</time></trkpt><trkpt lat="44.1724972" lon="11.3408908"><ele>970.3333333333333</ele><time>2026-05-01T07:23:42.134Z</time></trkpt><trkpt lat="44.1725292" lon="11.3409837"><ele>970.5</ele><time>2026-05-01T07:23:43.135Z</time></trkpt><trkpt lat="44.1725533" lon="11.341083"><ele>970.6666666666667</ele><time>2026-05-01T07:23:44.134Z</time></trkpt><trkpt lat="44.172571" lon="11.3411808"><ele>970.8333333333334</ele><time>2026-05-01T07:23:45.133Z</time></trkpt><trkpt lat="44.1725777" lon="11.341274"><ele>971.0</ele><time>2026-05-01T07:23:46.134Z</time></trkpt><trkpt lat="44.1725602" lon="11.3414465"><ele>970.1666666666667</ele><time>2026-05-01T07:23:48.135Z</time></trkpt><trkpt lat="44.172537" lon="11.3415455"><ele>969.3333333333334</ele><time>2026-05-01T07:23:49.136Z</time></trkpt><trkpt lat="44.1725083" lon="11.3416422"><ele>968.5</ele><time>2026-05-01T07:23:50.135Z</time></trkpt><trkpt lat="44.1724825" lon="11.341729"><ele>967.6666666666667</ele><time>2026-05-01T07:23:51.132Z</time></trkpt><trkpt lat="44.1724252" lon="11.3418317"><ele>966.8333333333334</ele><time>2026-05-01T07:23:53.133Z</time></trkpt><trkpt lat="44.1723438" lon="11.3418718"><ele>966.0</ele><time>2026-05-01T07:23:55.134Z</time></trkpt><trkpt lat="44.1722137" lon="11.3418223"><ele>965.4</ele><time>2026-05-01T07:23:57.134Z</time></trkpt><trkpt lat="44.1721295" lon="11.3417705"><ele>964.8</ele><time>2026-05-01T07:23:58.134Z</time></trkpt><trkpt lat="44.17204" lon="11.3416982"><ele>964.1999999999999</ele><time>2026-05-01T07:23:59.134Z</time></trkpt><trkpt lat="44.1719447" lon="11.3416153"><ele>963.5999999999999</ele><time>2026-05-01T07:24:00.133Z</time></trkpt><trkpt lat="44.1718402" lon="11.341535"><ele>963.0</ele><time>2026-05-01T07:24:01.133Z</time></trkpt><trkpt lat="44.1717337" lon="11.3414577"><ele>963.0</ele><time>2026-05-01T07:24:02.133Z</time></trkpt><trkpt lat="44.1716293" lon="11.3413892"><ele>963.0</ele><time>2026-05-01T07:24:03.133Z</time></trkpt><trkpt lat="44.1715272" lon="11.3413378"><ele>963.0</ele><time>2026-05-01T07:24:04.133Z</time></trkpt><trkpt lat="44.1714318" lon="11.3413015"><ele>963.0</ele><time>2026-05-01T07:24:05.134Z</time></trkpt><trkpt lat="44.1713335" lon="11.341275"><ele>963.0</ele><time>2026-05-01T07:24:06.133Z</time></trkpt><trkpt lat="44.1712338" lon="11.3412633"><ele>958.4</ele><time>2026-05-01T07:24:07.133Z</time></trkpt><trkpt lat="44.1711375" lon="11.341265"><ele>953.8</ele><time>2026-05-01T07:24:08.134Z</time></trkpt><trkpt lat="44.1710378" lon="11.3412738"><ele>949.2</ele><time>2026-05-01T07:24:09.133Z</time></trkpt><trkpt lat="44.1709445" lon="11.3412865"><ele>944.6</ele><time>2026-05-01T07:24:10.133Z</time></trkpt><trkpt lat="44.1708525" lon="11.3412785"><ele>940.0</ele><time>2026-05-01T07:24:11.132Z</time></trkpt><trkpt lat="44.1707652" lon="11.341251"><ele>937.8333333333333</ele><time>2026-05-01T07:24:12.135Z</time></trkpt><trkpt lat="44.1706825" lon="11.3411963"><ele>935.6666666666666</ele><time>2026-05-01T07:24:13.133Z</time></trkpt><trkpt lat="44.170605" lon="11.3411205"><ele>933.5</ele><time>2026-05-01T07:24:14.133Z</time></trkpt><trkpt lat="44.1705307" lon="11.3410712"><ele>931.3333333333333</ele><time>2026-05-01T07:24:15.133Z</time></trkpt><trkpt lat="44.1704497" lon="11.3410465"><ele>929.1666666666666</ele><time>2026-05-01T07:24:16.132Z</time></trkpt><trkpt lat="44.170354" lon="11.3410348"><ele>927.0</ele><time>2026-05-01T07:24:17.132Z</time></trkpt><trkpt lat="44.1702537" lon="11.3410305"><ele>927.0</ele><time>2026-05-01T07:24:18.131Z</time></trkpt><trkpt lat="44.1701608" lon="11.3410242"><ele>927.0</ele><time>2026-05-01T07:24:19.131Z</time></trkpt><trkpt lat="44.1700985" lon="11.3409895"><ele>927.0</ele><time>2026-05-01T07:24:20.133Z</time></trkpt><trkpt lat="44.170052" lon="11.340922"><ele>927.0</ele><time>2026-05-01T07:24:21.133Z</time></trkpt><trkpt lat="44.1700127" lon="11.3408292"><ele>927.0</ele><time>2026-05-01T07:24:22.133Z</time></trkpt><trkpt lat="44.1699767" lon="11.3407207"><ele>927.0</ele><time>2026-05-01T07:24:23.134Z</time></trkpt><trkpt lat="44.169933" lon="11.3406018"><ele>924.4000000000001</ele><time>2026-05-01T07:24:24.132Z</time></trkpt><trkpt lat="44.1698733" lon="11.3404858"><ele>921.8000000000001</ele><time>2026-05-01T07:24:25.132Z</time></trkpt><trkpt lat="44.1698065" lon="11.3403705"><ele>919.2</ele><time>2026-05-01T07:24:26.134Z</time></trkpt><trkpt lat="44.1697418" lon="11.3402582"><ele>916.6</ele><time>2026-05-01T07:24:27.133Z</time></trkpt><trkpt lat="44.1696783" lon="11.3401438"><ele>914.0</ele><time>2026-05-01T07:24:28.133Z</time></trkpt><trkpt lat="44.1696143" lon="11.3400278"><ele>912.6</ele><time>2026-05-01T07:24:29.133Z</time></trkpt><trkpt lat="44.1695478" lon="11.3399127"><ele>911.2</ele><time>2026-05-01T07:24:30.134Z</time></trkpt><trkpt lat="44.169481" lon="11.3397973"><ele>909.8000000000001</ele><time>2026-05-01T07:24:31.133Z</time></trkpt><trkpt lat="44.1694155" lon="11.339684"><ele>908.4000000000001</ele><time>2026-05-01T07:24:32.133Z</time></trkpt><trkpt lat="44.169339" lon="11.3395828"><ele>907.0</ele><time>2026-05-01T07:24:33.132Z</time></trkpt><trkpt lat="44.169265" lon="11.3395038"><ele>905.6666666666666</ele><time>2026-05-01T07:24:34.133Z</time></trkpt><trkpt lat="44.1691873" lon="11.3394475"><ele>904.3333333333333</ele><time>2026-05-01T07:24:35.133Z</time></trkpt><trkpt lat="44.1691067" lon="11.3394052"><ele>903.0</ele><time>2026-05-01T07:24:36.134Z</time></trkpt><trkpt lat="44.1690263" lon="11.339363"><ele>901.6666666666667</ele><time>2026-05-01T07:24:37.134Z</time></trkpt><trkpt lat="44.168944" lon="11.3393082"><ele>900.3333333333334</ele><time>2026-05-01T07:24:38.134Z</time></trkpt><trkpt lat="44.1688657" lon="11.3392432"><ele>899.0</ele><time>2026-05-01T07:24:39.133Z</time></trkpt><trkpt lat="44.1687865" lon="11.3391772"><ele>897.6</ele><time>2026-05-01T07:24:40.133Z</time></trkpt><trkpt lat="44.1687067" lon="11.3391045"><ele>896.2</ele><time>2026-05-01T07:24:41.132Z</time></trkpt><trkpt lat="44.1686398" lon="11.3390125"><ele>894.8000000000001</ele><time>2026-05-01T07:24:42.132Z</time></trkpt><trkpt lat="44.1685955" lon="11.3389062"><ele>893.4000000000001</ele><time>2026-05-01T07:24:43.132Z</time></trkpt><trkpt lat="44.1685523" lon="11.3387932"><ele>892.0</ele><time>2026-05-01T07:24:44.133Z</time></trkpt><trkpt lat="44.1684907" lon="11.3386747"><ele>890.4000000000001</ele><time>2026-05-01T07:24:45.133Z</time></trkpt><trkpt lat="44.1684178" lon="11.3385573"><ele>888.8000000000001</ele><time>2026-05-01T07:24:46.133Z</time></trkpt><trkpt lat="44.1683377" lon="11.338453"><ele>887.2</ele><time>2026-05-01T07:24:47.133Z</time></trkpt><trkpt lat="44.1682482" lon="11.3383532"><ele>885.6</ele><time>2026-05-01T07:24:48.132Z</time></trkpt><trkpt lat="44.1681587" lon="11.338262"><ele>884.0</ele><time>2026-05-01T07:24:49.132Z</time></trkpt><trkpt lat="44.1680688" lon="11.3381668"><ele>882.4000000000001</ele><time>2026-05-01T07:24:50.133Z</time></trkpt><trkpt lat="44.1679777" lon="11.3380712"><ele>880.8000000000001</ele><time>2026-05-01T07:24:51.133Z</time></trkpt><trkpt lat="44.1678852" lon="11.3379857"><ele>879.1999999999999</ele><time>2026-05-01T07:24:52.134Z</time></trkpt><trkpt lat="44.1677907" lon="11.3379092"><ele>877.5999999999999</ele><time>2026-05-01T07:24:53.133Z</time></trkpt><trkpt lat="44.1677028" lon="11.3378395"><ele>876.0</ele><time>2026-05-01T07:24:54.133Z</time></trkpt><trkpt lat="44.1676195" lon="11.3377577"><ele>875.4</ele><time>2026-05-01T07:24:55.133Z</time></trkpt><trkpt lat="44.1675392" lon="11.3376717"><ele>874.8</ele><time>2026-05-01T07:24:56.133Z</time></trkpt><trkpt lat="44.1674625" lon="11.3375797"><ele>874.1999999999999</ele><time>2026-05-01T07:24:57.133Z</time></trkpt><trkpt lat="44.167384" lon="11.3374862"><ele>873.5999999999999</ele><time>2026-05-01T07:24:58.134Z</time></trkpt><trkpt lat="44.1673033" lon="11.337395"><ele>873.0</ele><time>2026-05-01T07:24:59.133Z</time></trkpt><trkpt lat="44.1672183" lon="11.337309"><ele>871.1666666666666</ele><time>2026-05-01T07:25:00.134Z</time></trkpt><trkpt lat="44.1671362" lon="11.3372335"><ele>869.3333333333333</ele><time>2026-05-01T07:25:01.133Z</time></trkpt><trkpt lat="44.167053" lon="11.3371727"><ele>867.5</ele><time>2026-05-01T07:25:02.133Z</time></trkpt><trkpt lat="44.1669768" lon="11.3371347"><ele>865.6666666666666</ele><time>2026-05-01T07:25:03.133Z</time></trkpt><trkpt lat="44.1669183" lon="11.3370852"><ele>863.8333333333333</ele><time>2026-05-01T07:25:04.133Z</time></trkpt><trkpt lat="44.1668732" lon="11.337018"><ele>862.0</ele><time>2026-05-01T07:25:05.133Z</time></trkpt><trkpt lat="44.1668312" lon="11.3369292"><ele>862.3333333333333</ele><time>2026-05-01T07:25:06.132Z</time></trkpt><trkpt lat="44.1667878" lon="11.3368352"><ele>862.6666666666666</ele><time>2026-05-01T07:25:07.132Z</time></trkpt><trkpt lat="44.1667473" lon="11.3367395"><ele>863.0</ele><time>2026-05-01T07:25:08.133Z</time></trkpt><trkpt lat="44.1667222" lon="11.336638"><ele>863.3333333333333</ele><time>2026-05-01T07:25:09.133Z</time></trkpt><trkpt lat="44.166702" lon="11.336541"><ele>863.6666666666666</ele><time>2026-05-01T07:25:10.133Z</time></trkpt><trkpt lat="44.1666715" lon="11.3364567"><ele>864.0</ele><time>2026-05-01T07:25:11.133Z</time></trkpt><trkpt lat="44.1665738" lon="11.3363763"><ele>863.6666666666666</ele><time>2026-05-01T07:25:13.132Z</time></trkpt><trkpt lat="44.166467" lon="11.3363498"><ele>863.3333333333333</ele><time>2026-05-01T07:25:15.133Z</time></trkpt><trkpt lat="44.1663462" lon="11.3363752"><ele>863.0</ele><time>2026-05-01T07:25:17.132Z</time></trkpt><trkpt lat="44.166278" lon="11.3364045"><ele>862.6666666666666</ele><time>2026-05-01T07:25:18.132Z</time></trkpt><trkpt lat="44.1662122" lon="11.3364463"><ele>862.3333333333333</ele><time>2026-05-01T07:25:19.131Z</time></trkpt><trkpt lat="44.166152" lon="11.336492"><ele>862.0</ele><time>2026-05-01T07:25:20.132Z</time></trkpt><trkpt lat="44.16604" lon="11.3365655"><ele>860.8333333333333</ele><time>2026-05-01T07:25:22.132Z</time></trkpt><trkpt lat="44.1659247" lon="11.336601"><ele>859.6666666666666</ele><time>2026-05-01T07:25:24.133Z</time></trkpt><trkpt lat="44.1658612" lon="11.3366288"><ele>858.5</ele><time>2026-05-01T07:25:25.132Z</time></trkpt><trkpt lat="44.1657903" lon="11.3366643"><ele>857.3333333333333</ele><time>2026-05-01T07:25:26.135Z</time></trkpt><trkpt lat="44.1657138" lon="11.3367085"><ele>856.1666666666666</ele><time>2026-05-01T07:25:27.133Z</time></trkpt><trkpt lat="44.1656377" lon="11.33675"><ele>855.0</ele><time>2026-05-01T07:25:28.132Z</time></trkpt><trkpt lat="44.1655657" lon="11.336778"><ele>854.0</ele><time>2026-05-01T07:25:29.131Z</time></trkpt><trkpt lat="44.1654938" lon="11.3368012"><ele>853.0</ele><time>2026-05-01T07:25:30.13Z</time></trkpt><trkpt lat="44.1654285" lon="11.3368158"><ele>852.0</ele><time>2026-05-01T07:25:31.129Z</time></trkpt><trkpt lat="44.1653115" lon="11.3368715"><ele>851.0</ele><time>2026-05-01T07:25:33.131Z</time></trkpt><trkpt lat="44.1652508" lon="11.3368982"><ele>850.0</ele><time>2026-05-01T07:25:34.132Z</time></trkpt><trkpt lat="44.1651795" lon="11.3369102"><ele>849.0</ele><time>2026-05-01T07:25:35.133Z</time></trkpt><trkpt lat="44.1650972" lon="11.336922"><ele>849.0</ele><time>2026-05-01T07:25:36.132Z</time></trkpt><trkpt lat="44.1650165" lon="11.3369305"><ele>849.0</ele><time>2026-05-01T07:25:37.131Z</time></trkpt><trkpt lat="44.1649378" lon="11.3369475"><ele>849.0</ele><time>2026-05-01T07:25:38.131Z</time></trkpt><trkpt lat="44.1648593" lon="11.3369748"><ele>849.0</ele><time>2026-05-01T07:25:39.131Z</time></trkpt><trkpt lat="44.1647847" lon="11.3370168"><ele>849.0</ele><time>2026-05-01T07:25:40.132Z</time></trkpt><trkpt lat="44.1647125" lon="11.3370397"><ele>849.0</ele><time>2026-05-01T07:25:41.132Z</time></trkpt><trkpt lat="44.1646153" lon="11.337107"><ele>847.3333333333334</ele><time>2026-05-01T07:25:43.132Z</time></trkpt><trkpt lat="44.1646007" lon="11.3372585"><ele>845.6666666666667</ele><time>2026-05-01T07:25:45.133Z</time></trkpt><trkpt lat="44.1646155" lon="11.3373595"><ele>844.0</ele><time>2026-05-01T07:25:46.133Z</time></trkpt><trkpt lat="44.1646328" lon="11.3374713"><ele>842.3333333333334</ele><time>2026-05-01T07:25:47.133Z</time></trkpt><trkpt lat="44.1646528" lon="11.337585"><ele>840.6666666666667</ele><time>2026-05-01T07:25:48.133Z</time></trkpt><trkpt lat="44.1646803" lon="11.3376968"><ele>839.0</ele><time>2026-05-01T07:25:49.132Z</time></trkpt><trkpt lat="44.1647078" lon="11.337802"><ele>839.0000000000001</ele><time>2026-05-01T07:25:50.132Z</time></trkpt><trkpt lat="44.1647327" lon="11.3379052"><ele>839.0</ele><time>2026-05-01T07:25:51.131Z</time></trkpt><trkpt lat="44.164747" lon="11.3380092"><ele>839.0</ele><time>2026-05-01T07:25:52.132Z</time></trkpt><trkpt lat="44.1647373" lon="11.3381018"><ele>839.0</ele><time>2026-05-01T07:25:53.132Z</time></trkpt><trkpt lat="44.1647007" lon="11.338183"><ele>839.0000000000001</ele><time>2026-05-01T07:25:54.131Z</time></trkpt><trkpt lat="44.1646423" lon="11.3382567"><ele>839.0</ele><time>2026-05-01T07:25:55.13Z</time></trkpt><trkpt lat="44.1645718" lon="11.338319"><ele>840.6666666666667</ele><time>2026-05-01T07:25:56.131Z</time></trkpt><trkpt lat="44.1644875" lon="11.3383535"><ele>842.3333333333334</ele><time>2026-05-01T07:25:57.131Z</time></trkpt><trkpt lat="44.164403" lon="11.3383655"><ele>844.0</ele><time>2026-05-01T07:25:58.132Z</time></trkpt><trkpt lat="44.1643177" lon="11.3383532"><ele>845.6666666666667</ele><time>2026-05-01T07:25:59.132Z</time></trkpt><trkpt lat="44.1642277" lon="11.3383393"><ele>847.3333333333334</ele><time>2026-05-01T07:26:00.132Z</time></trkpt><trkpt lat="44.1641335" lon="11.3383332"><ele>849.0</ele><time>2026-05-01T07:26:01.134Z</time></trkpt><trkpt lat="44.1640357" lon="11.3383378"><ele>847.8333333333334</ele><time>2026-05-01T07:26:02.132Z</time></trkpt><trkpt lat="44.1639417" lon="11.3383628"><ele>846.6666666666667</ele><time>2026-05-01T07:26:03.132Z</time></trkpt><trkpt lat="44.1638628" lon="11.338409"><ele>845.5</ele><time>2026-05-01T07:26:04.132Z</time></trkpt><trkpt lat="44.1638135" lon="11.3384748"><ele>844.3333333333334</ele><time>2026-05-01T07:26:05.133Z</time></trkpt><trkpt lat="44.1637915" lon="11.3385627"><ele>843.1666666666667</ele><time>2026-05-01T07:26:06.131Z</time></trkpt><trkpt lat="44.1637833" lon="11.3386732"><ele>842.0</ele><time>2026-05-01T07:26:07.133Z</time></trkpt><trkpt lat="44.1637792" lon="11.3388002"><ele>842.2</ele><time>2026-05-01T07:26:08.132Z</time></trkpt><trkpt lat="44.1637673" lon="11.3389365"><ele>842.4000000000001</ele><time>2026-05-01T07:26:09.13Z</time></trkpt><trkpt lat="44.1637502" lon="11.3390772"><ele>842.5999999999999</ele><time>2026-05-01T07:26:10.131Z</time></trkpt><trkpt lat="44.163734" lon="11.3392108"><ele>842.8</ele><time>2026-05-01T07:26:11.132Z</time></trkpt><trkpt lat="44.1637292" lon="11.3393257"><ele>843.0</ele><time>2026-05-01T07:26:12.131Z</time></trkpt><trkpt lat="44.1637522" lon="11.3394285"><ele>843.0</ele><time>2026-05-01T07:26:13.131Z</time></trkpt><trkpt lat="44.1638033" lon="11.3395113"><ele>843.0</ele><time>2026-05-01T07:26:14.132Z</time></trkpt><trkpt lat="44.16388" lon="11.3395833"><ele>843.0</ele><time>2026-05-01T07:26:15.133Z</time></trkpt><trkpt lat="44.163969" lon="11.339662"><ele>843.0</ele><time>2026-05-01T07:26:16.133Z</time></trkpt><trkpt lat="44.1640557" lon="11.3397593"><ele>843.0</ele><time>2026-05-01T07:26:17.132Z</time></trkpt><trkpt lat="44.1641322" lon="11.3398837"><ele>843.5</ele><time>2026-05-01T07:26:18.13Z</time></trkpt><trkpt lat="44.1641987" lon="11.3400273"><ele>844.0</ele><time>2026-05-01T07:26:19.13Z</time></trkpt><trkpt lat="44.164261" lon="11.3401733"><ele>844.5</ele><time>2026-05-01T07:26:20.13Z</time></trkpt><trkpt lat="44.1643217" lon="11.3403193"><ele>845.0</ele><time>2026-05-01T07:26:21.129Z</time></trkpt><trkpt lat="44.1643758" lon="11.3404713"><ele>836.75</ele><time>2026-05-01T07:26:22.13Z</time></trkpt><trkpt lat="44.1644303" lon="11.3406228"><ele>828.5</ele><time>2026-05-01T07:26:23.133Z</time></trkpt><trkpt lat="44.1644843" lon="11.3407775"><ele>820.25</ele><time>2026-05-01T07:26:24.13Z</time></trkpt><trkpt lat="44.1645313" lon="11.3409283"><ele>812.0</ele><time>2026-05-01T07:26:25.132Z</time></trkpt><trkpt lat="44.1645717" lon="11.341068"><ele>812.0</ele><time>2026-05-01T07:26:26.13Z</time></trkpt><trkpt lat="44.1645875" lon="11.3412035"><ele>812.0</ele><time>2026-05-01T07:26:27.129Z</time></trkpt><trkpt lat="44.1645688" lon="11.3413375"><ele>812.0</ele><time>2026-05-01T07:26:28.13Z</time></trkpt><trkpt lat="44.1645298" lon="11.3414627"><ele>812.0</ele><time>2026-05-01T07:26:29.129Z</time></trkpt><trkpt lat="44.1644958" lon="11.341592"><ele>812.0</ele><time>2026-05-01T07:26:30.13Z</time></trkpt><trkpt lat="44.1644742" lon="11.3417353"><ele>810.5</ele><time>2026-05-01T07:26:31.128Z</time></trkpt><trkpt lat="44.164463" lon="11.3418942"><ele>809.0</ele><time>2026-05-01T07:26:32.129Z</time></trkpt><trkpt lat="44.1644602" lon="11.3420693"><ele>807.5</ele><time>2026-05-01T07:26:33.129Z</time></trkpt><trkpt lat="44.1644647" lon="11.3422505"><ele>806.0</ele><time>2026-05-01T07:26:34.13Z</time></trkpt><trkpt lat="44.1644723" lon="11.3424293"><ele>805.0</ele><time>2026-05-01T07:26:35.129Z</time></trkpt><trkpt lat="44.1644648" lon="11.3426062"><ele>804.0</ele><time>2026-05-01T07:26:36.13Z</time></trkpt><trkpt lat="44.1644262" lon="11.3427677"><ele>803.0</ele><time>2026-05-01T07:26:37.129Z</time></trkpt><trkpt lat="44.1643748" lon="11.3429053"><ele>802.0</ele><time>2026-05-01T07:26:38.131Z</time></trkpt><trkpt lat="44.164341" lon="11.3430323"><ele>801.6</ele><time>2026-05-01T07:26:39.13Z</time></trkpt><trkpt lat="44.1643335" lon="11.3431572"><ele>801.2</ele><time>2026-05-01T07:26:40.13Z</time></trkpt><trkpt lat="44.1643487" lon="11.3432853"><ele>800.8</ele><time>2026-05-01T07:26:41.131Z</time></trkpt><trkpt lat="44.1643863" lon="11.3434202"><ele>800.4</ele><time>2026-05-01T07:26:42.13Z</time></trkpt><trkpt lat="44.1644358" lon="11.3435652"><ele>800.0</ele><time>2026-05-01T07:26:43.129Z</time></trkpt><trkpt lat="44.1644842" lon="11.3437093"><ele>800.0</ele><time>2026-05-01T07:26:44.131Z</time></trkpt><trkpt lat="44.1645232" lon="11.343856"><ele>800.0</ele><time>2026-05-01T07:26:45.129Z</time></trkpt><trkpt lat="44.1645488" lon="11.3439968"><ele>800.0</ele><time>2026-05-01T07:26:46.13Z</time></trkpt><trkpt lat="44.1645597" lon="11.3441132"><ele>800.0</ele><time>2026-05-01T07:26:47.13Z</time></trkpt><trkpt lat="44.1645507" lon="11.3442562"><ele>800.0</ele><time>2026-05-01T07:26:49.131Z</time></trkpt><trkpt lat="44.1644717" lon="11.3443062"><ele>799.4285714285714</ele><time>2026-05-01T07:26:51.132Z</time></trkpt><trkpt lat="44.1644048" lon="11.3442973"><ele>798.8571428571429</ele><time>2026-05-01T07:26:52.133Z</time></trkpt><trkpt lat="44.1643312" lon="11.3442757"><ele>798.2857142857142</ele><time>2026-05-01T07:26:53.133Z</time></trkpt><trkpt lat="44.1642582" lon="11.3442487"><ele>797.7142857142858</ele><time>2026-05-01T07:26:54.133Z</time></trkpt><trkpt lat="44.1641845" lon="11.3442332"><ele>797.1428571428571</ele><time>2026-05-01T07:26:55.134Z</time></trkpt><trkpt lat="44.1641128" lon="11.3442385"><ele>796.5714285714286</ele><time>2026-05-01T07:26:56.132Z</time></trkpt><trkpt lat="44.1640443" lon="11.3442637"><ele>796.0</ele><time>2026-05-01T07:26:57.133Z</time></trkpt><trkpt lat="44.1639795" lon="11.344301"><ele>791.9999999999999</ele><time>2026-05-01T07:26:58.132Z</time></trkpt><trkpt lat="44.1639125" lon="11.3443445"><ele>788.0</ele><time>2026-05-01T07:26:59.134Z</time></trkpt><trkpt lat="44.1638355" lon="11.344382"><ele>784.0</ele><time>2026-05-01T07:27:00.134Z</time></trkpt><trkpt lat="44.16375" lon="11.3444033"><ele>780.0</ele><time>2026-05-01T07:27:01.132Z</time></trkpt><trkpt lat="44.1636645" lon="11.344409"><ele>775.9999999999999</ele><time>2026-05-01T07:27:02.134Z</time></trkpt><trkpt lat="44.1635813" lon="11.3444082"><ele>772.0</ele><time>2026-05-01T07:27:03.133Z</time></trkpt><trkpt lat="44.163502" lon="11.3444163"><ele>772.0000000000001</ele><time>2026-05-01T07:27:04.133Z</time></trkpt><trkpt lat="44.1634315" lon="11.3444465"><ele>772.0</ele><time>2026-05-01T07:27:05.133Z</time></trkpt><trkpt lat="44.1633747" lon="11.3445007"><ele>772.0</ele><time>2026-05-01T07:27:06.134Z</time></trkpt><trkpt lat="44.1633303" lon="11.344571"><ele>772.0</ele><time>2026-05-01T07:27:07.131Z</time></trkpt><trkpt lat="44.1632998" lon="11.3446537"><ele>772.0</ele><time>2026-05-01T07:27:08.134Z</time></trkpt><trkpt lat="44.1632698" lon="11.344741"><ele>772.0000000000001</ele><time>2026-05-01T07:27:09.132Z</time></trkpt><trkpt lat="44.1632417" lon="11.3448217"><ele>772.0</ele><time>2026-05-01T07:27:10.133Z</time></trkpt><trkpt lat="44.1631797" lon="11.3448848"><ele>769.4999999999999</ele><time>2026-05-01T07:27:12.135Z</time></trkpt><trkpt lat="44.1631318" lon="11.3448105"><ele>767.0</ele><time>2026-05-01T07:27:14.134Z</time></trkpt><trkpt lat="44.1631327" lon="11.3446765"><ele>764.5</ele><time>2026-05-01T07:27:16.134Z</time></trkpt><trkpt lat="44.1631115" lon="11.3445252"><ele>762.0</ele><time>2026-05-01T07:27:18.134Z</time></trkpt><trkpt lat="44.1630928" lon="11.34443"><ele>759.5</ele><time>2026-05-01T07:27:19.133Z</time></trkpt><trkpt lat="44.1630663" lon="11.3443338"><ele>757.0</ele><time>2026-05-01T07:27:20.134Z</time></trkpt><trkpt lat="44.1630452" lon="11.3442373"><ele>757.0</ele><time>2026-05-01T07:27:21.133Z</time></trkpt><trkpt lat="44.1630277" lon="11.344145"><ele>757.0</ele><time>2026-05-01T07:27:22.133Z</time></trkpt><trkpt lat="44.1630097" lon="11.344057"><ele>757.0</ele><time>2026-05-01T07:27:23.135Z</time></trkpt><trkpt lat="44.1629625" lon="11.3439227"><ele>757.0</ele><time>2026-05-01T07:27:25.133Z</time></trkpt><trkpt lat="44.1628735" lon="11.3438848"><ele>757.0</ele><time>2026-05-01T07:27:27.133Z</time></trkpt><trkpt lat="44.1627612" lon="11.3438967"><ele>757.0</ele><time>2026-05-01T07:27:29.135Z</time></trkpt><trkpt lat="44.1626345" lon="11.3439007"><ele>757.0</ele><time>2026-05-01T07:27:31.132Z</time></trkpt><trkpt lat="44.1625643" lon="11.3439073"><ele>757.0</ele><time>2026-05-01T07:27:32.133Z</time></trkpt><trkpt lat="44.1624925" lon="11.3439133"><ele>757.0</ele><time>2026-05-01T07:27:33.132Z</time></trkpt><trkpt lat="44.1624222" lon="11.3439093"><ele>757.0</ele><time>2026-05-01T07:27:34.132Z</time></trkpt><trkpt lat="44.1623465" lon="11.343891"><ele>757.0</ele><time>2026-05-01T07:27:35.134Z</time></trkpt><trkpt lat="44.1622697" lon="11.3438593"><ele>757.0</ele><time>2026-05-01T07:27:36.135Z</time></trkpt><trkpt lat="44.1621977" lon="11.3438142"><ele>757.0</ele><time>2026-05-01T07:27:37.134Z</time></trkpt><trkpt lat="44.1621435" lon="11.3437512"><ele>752.8</ele><time>2026-05-01T07:27:38.135Z</time></trkpt><trkpt lat="44.1621128" lon="11.3435945"><ele>748.6</ele><time>2026-05-01T07:27:40.134Z</time></trkpt><trkpt lat="44.1621363" lon="11.3434998"><ele>744.4</ele><time>2026-05-01T07:27:41.135Z</time></trkpt><trkpt lat="44.1621748" lon="11.3433892"><ele>740.1999999999999</ele><time>2026-05-01T07:27:42.134Z</time></trkpt><trkpt lat="44.1622167" lon="11.343268"><ele>736.0</ele><time>2026-05-01T07:27:43.133Z</time></trkpt><trkpt lat="44.1622592" lon="11.3431537"><ele>736.0</ele><time>2026-05-01T07:27:44.135Z</time></trkpt><trkpt lat="44.1623038" lon="11.3430525"><ele>736.0</ele><time>2026-05-01T07:27:45.133Z</time></trkpt><trkpt lat="44.1623462" lon="11.3429562"><ele>736.0</ele><time>2026-05-01T07:27:46.134Z</time></trkpt><trkpt lat="44.1623712" lon="11.3428523"><ele>736.0</ele><time>2026-05-01T07:27:47.134Z</time></trkpt><trkpt lat="44.1623818" lon="11.3427397"><ele>736.0</ele><time>2026-05-01T07:27:48.134Z</time></trkpt><trkpt lat="44.1623875" lon="11.342621"><ele>736.0</ele><time>2026-05-01T07:27:49.13Z</time></trkpt><trkpt lat="44.1623867" lon="11.3424975"><ele>736.5</ele><time>2026-05-01T07:27:50.131Z</time></trkpt><trkpt lat="44.1623843" lon="11.3423773"><ele>737.0</ele><time>2026-05-01T07:27:51.132Z</time></trkpt><trkpt lat="44.1623832" lon="11.342254"><ele>737.5</ele><time>2026-05-01T07:27:52.133Z</time></trkpt><trkpt lat="44.1623777" lon="11.3421287"><ele>738.0</ele><time>2026-05-01T07:27:53.133Z</time></trkpt><trkpt lat="44.1623685" lon="11.3420175"><ele>738.5</ele><time>2026-05-01T07:27:54.133Z</time></trkpt><trkpt lat="44.1623552" lon="11.3419207"><ele>739.0</ele><time>2026-05-01T07:27:55.132Z</time></trkpt><trkpt lat="44.162336" lon="11.3418295"><ele>739.0</ele><time>2026-05-01T07:27:56.132Z</time></trkpt><trkpt lat="44.1623083" lon="11.3417372"><ele>739.0</ele><time>2026-05-01T07:27:57.131Z</time></trkpt><trkpt lat="44.1622765" lon="11.3416422"><ele>739.0</ele><time>2026-05-01T07:27:58.132Z</time></trkpt><trkpt lat="44.1622358" lon="11.3415563"><ele>739.0</ele><time>2026-05-01T07:27:59.132Z</time></trkpt><trkpt lat="44.1621935" lon="11.3414783"><ele>739.0</ele><time>2026-05-01T07:28:00.134Z</time></trkpt><trkpt lat="44.16216" lon="11.3413422"><ele>739.0</ele><time>2026-05-01T07:28:02.135Z</time></trkpt><trkpt lat="44.1621718" lon="11.3411767"><ele>740.5</ele><time>2026-05-01T07:28:04.133Z</time></trkpt><trkpt lat="44.162156" lon="11.3410075"><ele>742.0</ele><time>2026-05-01T07:28:06.133Z</time></trkpt><trkpt lat="44.162137" lon="11.3409235"><ele>743.5</ele><time>2026-05-01T07:28:07.134Z</time></trkpt><trkpt lat="44.1621242" lon="11.3408297"><ele>745.0</ele><time>2026-05-01T07:28:08.133Z</time></trkpt><trkpt lat="44.1621085" lon="11.3407097"><ele>746.5</ele><time>2026-05-01T07:28:09.133Z</time></trkpt><trkpt lat="44.1620953" lon="11.340604"><ele>748.0</ele><time>2026-05-01T07:28:10.133Z</time></trkpt><trkpt lat="44.1620822" lon="11.3405158"><ele>749.5</ele><time>2026-05-01T07:28:11.134Z</time></trkpt><trkpt lat="44.1620333" lon="11.3404238"><ele>751.0</ele><time>2026-05-01T07:28:13.133Z</time></trkpt><trkpt lat="44.1619425" lon="11.3404053"><ele>752.5</ele><time>2026-05-01T07:28:15.134Z</time></trkpt><trkpt lat="44.1618693" lon="11.3403982"><ele>754.0</ele><time>2026-05-01T07:28:16.132Z</time></trkpt><trkpt lat="44.1618112" lon="11.340364"><ele>755.5</ele><time>2026-05-01T07:28:17.134Z</time></trkpt><trkpt lat="44.1617547" lon="11.3403102"><ele>757.0</ele><time>2026-05-01T07:28:18.133Z</time></trkpt><trkpt lat="44.1616628" lon="11.340236"><ele>757.0</ele><time>2026-05-01T07:28:20.132Z</time></trkpt><trkpt lat="44.1615752" lon="11.3402135"><ele>757.0</ele><time>2026-05-01T07:28:22.131Z</time></trkpt><trkpt lat="44.1614902" lon="11.3401798"><ele>757.0</ele><time>2026-05-01T07:28:24.131Z</time></trkpt><trkpt lat="44.1614008" lon="11.3401428"><ele>757.0</ele><time>2026-05-01T07:28:26.134Z</time></trkpt><trkpt lat="44.1613162" lon="11.3400583"><ele>757.0</ele><time>2026-05-01T07:28:28.134Z</time></trkpt><trkpt lat="44.161256" lon="11.3399685"><ele>756.0</ele><time>2026-05-01T07:28:30.134Z</time></trkpt><trkpt lat="44.161172" lon="11.3398788"><ele>755.0</ele><time>2026-05-01T07:28:33.134Z</time></trkpt><trkpt lat="44.1610908" lon="11.3398093"><ele>754.0</ele><time>2026-05-01T07:28:35.133Z</time></trkpt><trkpt lat="44.1610113" lon="11.339737"><ele>753.0</ele><time>2026-05-01T07:28:37.133Z</time></trkpt><trkpt lat="44.1609492" lon="11.3396442"><ele>752.0</ele><time>2026-05-01T07:28:39.135Z</time></trkpt><trkpt lat="44.1609112" lon="11.3395365"><ele>753.6666666666666</ele><time>2026-05-01T07:28:41.133Z</time></trkpt><trkpt lat="44.1608972" lon="11.3394502"><ele>755.3333333333333</ele><time>2026-05-01T07:28:43.133Z</time></trkpt><trkpt lat="44.160848" lon="11.3393382"><ele>757.0</ele><time>2026-05-01T07:28:45.132Z</time></trkpt><trkpt lat="44.1608193" lon="11.3392288"><ele>758.6666666666666</ele><time>2026-05-01T07:28:47.132Z</time></trkpt><trkpt lat="44.1607605" lon="11.3391907"><ele>760.3333333333334</ele><time>2026-05-01T07:28:50.134Z</time></trkpt><trkpt lat="44.1606735" lon="11.3391952"><ele>762.0</ele><time>2026-05-01T07:28:53.134Z</time></trkpt><trkpt lat="44.1606212" lon="11.3392512"><ele>764.0</ele><time>2026-05-01T07:28:55.133Z</time></trkpt><trkpt lat="44.1605418" lon="11.3393038"><ele>766.0</ele><time>2026-05-01T07:28:58.132Z</time></trkpt><trkpt lat="44.1604692" lon="11.3393068"><ele>768.0</ele><time>2026-05-01T07:29:00.133Z</time></trkpt><trkpt lat="44.1603758" lon="11.3393423"><ele>770.0</ele><time>2026-05-01T07:29:03.132Z</time></trkpt><trkpt lat="44.1603372" lon="11.339438"><ele>772.0</ele><time>2026-05-01T07:29:05.133Z</time></trkpt><trkpt lat="44.1602975" lon="11.3395082"><ele>774.0</ele><time>2026-05-01T07:29:10.132Z</time></trkpt><trkpt lat="44.1602748" lon="11.3396063"><ele>774.0</ele><time>2026-05-01T07:29:15.134Z</time></trkpt><trkpt lat="44.1602368" lon="11.3397248"><ele>774.0</ele><time>2026-05-01T07:29:18.135Z</time></trkpt><trkpt lat="44.1601702" lon="11.3397753"><ele>774.0</ele><time>2026-05-01T07:29:20.137Z</time></trkpt><trkpt lat="44.1601053" lon="11.3397943"><ele>774.0</ele><time>2026-05-01T07:29:22.135Z</time></trkpt><trkpt lat="44.1600327" lon="11.3397795"><ele>774.0</ele><time>2026-05-01T07:29:25.135Z</time></trkpt><trkpt lat="44.1599625" lon="11.3397533"><ele>774.0</ele><time>2026-05-01T07:29:27.134Z</time></trkpt><trkpt lat="44.1598863" lon="11.3397135"><ele>774.6666666666666</ele><time>2026-05-01T07:29:29.135Z</time></trkpt><trkpt lat="44.1597983" lon="11.339661"><ele>775.3333333333333</ele><time>2026-05-01T07:29:31.134Z</time></trkpt><trkpt lat="44.1597237" lon="11.33968"><ele>776.0</ele><time>2026-05-01T07:29:33.135Z</time></trkpt><trkpt lat="44.1596693" lon="11.3397307"><ele>776.6666666666666</ele><time>2026-05-01T07:29:34.133Z</time></trkpt><trkpt lat="44.1596143" lon="11.339788"><ele>777.3333333333333</ele><time>2026-05-01T07:29:35.134Z</time></trkpt><trkpt lat="44.1595532" lon="11.3398465"><ele>778.0</ele><time>2026-05-01T07:29:36.132Z</time></trkpt><trkpt lat="44.1594873" lon="11.3399018"><ele>776.3333333333333</ele><time>2026-05-01T07:29:37.133Z</time></trkpt><trkpt lat="44.1594227" lon="11.3399517"><ele>774.6666666666666</ele><time>2026-05-01T07:29:38.134Z</time></trkpt><trkpt lat="44.159354" lon="11.3400042"><ele>773.0</ele><time>2026-05-01T07:29:39.134Z</time></trkpt><trkpt lat="44.1592825" lon="11.3400573"><ele>771.3333333333333</ele><time>2026-05-01T07:29:40.135Z</time></trkpt><trkpt lat="44.1592078" lon="11.3401045"><ele>769.6666666666666</ele><time>2026-05-01T07:29:41.134Z</time></trkpt><trkpt lat="44.1591317" lon="11.3401275"><ele>768.0</ele><time>2026-05-01T07:29:42.135Z</time></trkpt><trkpt lat="44.1590487" lon="11.3401323"><ele>767.8333333333334</ele><time>2026-05-01T07:29:43.135Z</time></trkpt><trkpt lat="44.1589655" lon="11.340136"><ele>767.6666666666666</ele><time>2026-05-01T07:29:44.135Z</time></trkpt><trkpt lat="44.1588837" lon="11.3401433"><ele>767.5</ele><time>2026-05-01T07:29:45.135Z</time></trkpt><trkpt lat="44.1587985" lon="11.3401503"><ele>767.3333333333333</ele><time>2026-05-01T07:29:46.136Z</time></trkpt><trkpt lat="44.158708" lon="11.3401583"><ele>767.1666666666666</ele><time>2026-05-01T07:29:47.135Z</time></trkpt><trkpt lat="44.158606" lon="11.3401758"><ele>767.0</ele><time>2026-05-01T07:29:48.136Z</time></trkpt><trkpt lat="44.1585032" lon="11.3401908"><ele>767.0</ele><time>2026-05-01T07:29:49.135Z</time></trkpt><trkpt lat="44.1584005" lon="11.3402062"><ele>767.0</ele><time>2026-05-01T07:29:50.136Z</time></trkpt><trkpt lat="44.1582897" lon="11.3402122"><ele>767.0</ele><time>2026-05-01T07:29:51.135Z</time></trkpt><trkpt lat="44.1581762" lon="11.3402117"><ele>767.0</ele><time>2026-05-01T07:29:52.136Z</time></trkpt><trkpt lat="44.1580658" lon="11.3402205"><ele>767.0</ele><time>2026-05-01T07:29:53.136Z</time></trkpt><trkpt lat="44.1579623" lon="11.3402322"><ele>766.6</ele><time>2026-05-01T07:29:54.135Z</time></trkpt><trkpt lat="44.1578658" lon="11.3402593"><ele>766.2</ele><time>2026-05-01T07:29:55.136Z</time></trkpt><trkpt lat="44.1577807" lon="11.3403048"><ele>765.8</ele><time>2026-05-01T07:29:56.14Z</time></trkpt><trkpt lat="44.1577008" lon="11.3403717"><ele>765.4</ele><time>2026-05-01T07:29:57.136Z</time></trkpt><trkpt lat="44.1576192" lon="11.3404573"><ele>765.0</ele><time>2026-05-01T07:29:58.135Z</time></trkpt><trkpt lat="44.1575425" lon="11.3405403"><ele>763.6666666666666</ele><time>2026-05-01T07:29:59.136Z</time></trkpt><trkpt lat="44.1574708" lon="11.340613"><ele>762.3333333333334</ele><time>2026-05-01T07:30:00.133Z</time></trkpt><trkpt lat="44.1573967" lon="11.3406682"><ele>761.0</ele><time>2026-05-01T07:30:01.134Z</time></trkpt><trkpt lat="44.1573128" lon="11.340705"><ele>759.6666666666667</ele><time>2026-05-01T07:30:02.135Z</time></trkpt><trkpt lat="44.1572232" lon="11.3407407"><ele>758.3333333333334</ele><time>2026-05-01T07:30:03.135Z</time></trkpt><trkpt lat="44.1571345" lon="11.3407812"><ele>757.0</ele><time>2026-05-01T07:30:04.136Z</time></trkpt><trkpt lat="44.1570447" lon="11.340823"><ele>756.0</ele><time>2026-05-01T07:30:05.136Z</time></trkpt><trkpt lat="44.1569565" lon="11.340892"><ele>755.0</ele><time>2026-05-01T07:30:06.137Z</time></trkpt><trkpt lat="44.1568637" lon="11.340985"><ele>754.0</ele><time>2026-05-01T07:30:07.136Z</time></trkpt><trkpt lat="44.1567625" lon="11.3410817"><ele>753.0</ele><time>2026-05-01T07:30:08.136Z</time></trkpt><trkpt lat="44.1566602" lon="11.3411647"><ele>753.0</ele><time>2026-05-01T07:30:09.135Z</time></trkpt><trkpt lat="44.1565648" lon="11.3412517"><ele>753.0</ele><time>2026-05-01T07:30:10.134Z</time></trkpt><trkpt lat="44.1564797" lon="11.3413458"><ele>753.0</ele><time>2026-05-01T07:30:11.134Z</time></trkpt><trkpt lat="44.1563968" lon="11.3414313"><ele>753.0</ele><time>2026-05-01T07:30:12.134Z</time></trkpt><trkpt lat="44.1563132" lon="11.3414977"><ele>753.0</ele><time>2026-05-01T07:30:13.135Z</time></trkpt><trkpt lat="44.1562387" lon="11.3415463"><ele>750.8</ele><time>2026-05-01T07:30:14.135Z</time></trkpt><trkpt lat="44.1561238" lon="11.3415635"><ele>748.5999999999999</ele><time>2026-05-01T07:30:16.135Z</time></trkpt><trkpt lat="44.156054" lon="11.341606"><ele>746.4000000000001</ele><time>2026-05-01T07:30:18.135Z</time></trkpt><trkpt lat="44.156006" lon="11.3417112"><ele>744.2</ele><time>2026-05-01T07:30:20.136Z</time></trkpt><trkpt lat="44.1559107" lon="11.3418208"><ele>742.0</ele><time>2026-05-01T07:30:22.135Z</time></trkpt><trkpt lat="44.1558032" lon="11.3418825"><ele>741.0</ele><time>2026-05-01T07:30:24.133Z</time></trkpt><trkpt lat="44.155695" lon="11.3419052"><ele>740.0</ele><time>2026-05-01T07:30:26.133Z</time></trkpt><trkpt lat="44.1555647" lon="11.3418838"><ele>739.0</ele><time>2026-05-01T07:30:28.135Z</time></trkpt><trkpt lat="44.1554922" lon="11.3418675"><ele>738.0</ele><time>2026-05-01T07:30:29.137Z</time></trkpt><trkpt lat="44.1553892" lon="11.3419143"><ele>737.0</ele><time>2026-05-01T07:30:31.135Z</time></trkpt><trkpt lat="44.1553147" lon="11.3420567"><ele>737.0</ele><time>2026-05-01T07:30:33.135Z</time></trkpt><trkpt lat="44.155269" lon="11.3421283"><ele>737.0</ele><time>2026-05-01T07:30:34.135Z</time></trkpt><trkpt lat="44.1552062" lon="11.3421853"><ele>737.0</ele><time>2026-05-01T07:30:35.136Z</time></trkpt><trkpt lat="44.1551273" lon="11.342263"><ele>737.0</ele><time>2026-05-01T07:30:36.134Z</time></trkpt><trkpt lat="44.1550545" lon="11.3423662"><ele>737.0</ele><time>2026-05-01T07:30:37.136Z</time></trkpt><trkpt lat="44.1549915" lon="11.3424767"><ele>737.0</ele><time>2026-05-01T07:30:38.134Z</time></trkpt><trkpt lat="44.1549248" lon="11.3425787"><ele>733.8</ele><time>2026-05-01T07:30:39.135Z</time></trkpt><trkpt lat="44.1548463" lon="11.3426795"><ele>730.6</ele><time>2026-05-01T07:30:40.135Z</time></trkpt><trkpt lat="44.1547667" lon="11.3427763"><ele>727.4</ele><time>2026-05-01T07:30:41.136Z</time></trkpt><trkpt lat="44.1546957" lon="11.3428798"><ele>724.1999999999999</ele><time>2026-05-01T07:30:42.135Z</time></trkpt><trkpt lat="44.1546372" lon="11.342976"><ele>721.0</ele><time>2026-05-01T07:30:43.137Z</time></trkpt><trkpt lat="44.1545885" lon="11.3430387"><ele>720.8333333333334</ele><time>2026-05-01T07:30:44.136Z</time></trkpt><trkpt lat="44.154498" lon="11.3430628"><ele>720.6666666666667</ele><time>2026-05-01T07:30:46.134Z</time></trkpt><trkpt lat="44.154389" lon="11.3430797"><ele>720.5</ele><time>2026-05-01T07:30:48.134Z</time></trkpt><trkpt lat="44.1543312" lon="11.3431363"><ele>720.3333333333334</ele><time>2026-05-01T07:30:49.135Z</time></trkpt><trkpt lat="44.154257" lon="11.3431995"><ele>720.1666666666666</ele><time>2026-05-01T07:30:50.134Z</time></trkpt><trkpt lat="44.1541807" lon="11.3432518"><ele>720.0</ele><time>2026-05-01T07:30:51.134Z</time></trkpt><trkpt lat="44.1541143" lon="11.3433005"><ele>720.0</ele><time>2026-05-01T07:30:52.135Z</time></trkpt><trkpt lat="44.1540627" lon="11.3433763"><ele>720.0</ele><time>2026-05-01T07:30:53.136Z</time></trkpt><trkpt lat="44.1540345" lon="11.3434865"><ele>720.0</ele><time>2026-05-01T07:30:54.135Z</time></trkpt><trkpt lat="44.1540123" lon="11.3436232"><ele>720.0</ele><time>2026-05-01T07:30:55.136Z</time></trkpt><trkpt lat="44.153997" lon="11.3437635"><ele>720.0</ele><time>2026-05-01T07:30:56.136Z</time></trkpt><trkpt lat="44.1539793" lon="11.3438975"><ele>717.6</ele><time>2026-05-01T07:30:57.137Z</time></trkpt><trkpt lat="44.1539523" lon="11.3440217"><ele>715.2</ele><time>2026-05-01T07:30:58.136Z</time></trkpt><trkpt lat="44.1539065" lon="11.3441287"><ele>712.8</ele><time>2026-05-01T07:30:59.138Z</time></trkpt><trkpt lat="44.1538373" lon="11.3442263"><ele>710.4</ele><time>2026-05-01T07:31:00.14Z</time></trkpt><trkpt lat="44.1537452" lon="11.3443202"><ele>708.0</ele><time>2026-05-01T07:31:01.137Z</time></trkpt><trkpt lat="44.1536378" lon="11.3444072"><ele>708.0</ele><time>2026-05-01T07:31:02.137Z</time></trkpt><trkpt lat="44.1535233" lon="11.344487"><ele>708.0</ele><time>2026-05-01T07:31:03.137Z</time></trkpt><trkpt lat="44.1534053" lon="11.3445587"><ele>708.0</ele><time>2026-05-01T07:31:04.138Z</time></trkpt><trkpt lat="44.1532897" lon="11.3446228"><ele>708.0</ele><time>2026-05-01T07:31:05.138Z</time></trkpt><trkpt lat="44.1531765" lon="11.344674"><ele>706.75</ele><time>2026-05-01T07:31:06.137Z</time></trkpt><trkpt lat="44.1530622" lon="11.3447072"><ele>705.5</ele><time>2026-05-01T07:31:07.136Z</time></trkpt><trkpt lat="44.1529462" lon="11.3447235"><ele>704.25</ele><time>2026-05-01T07:31:08.137Z</time></trkpt><trkpt lat="44.1528195" lon="11.3447273"><ele>703.0</ele><time>2026-05-01T07:31:09.137Z</time></trkpt><trkpt lat="44.1526848" lon="11.3447242"><ele>703.0</ele><time>2026-05-01T07:31:10.137Z</time></trkpt><trkpt lat="44.1525428" lon="11.3447167"><ele>703.0</ele><time>2026-05-01T07:31:11.137Z</time></trkpt><trkpt lat="44.1524042" lon="11.3447088"><ele>703.0</ele><time>2026-05-01T07:31:12.134Z</time></trkpt><trkpt lat="44.1522743" lon="11.3447012"><ele>703.0</ele><time>2026-05-01T07:31:13.135Z</time></trkpt><trkpt lat="44.1521547" lon="11.3446908"><ele>701.8333333333334</ele><time>2026-05-01T07:31:14.135Z</time></trkpt><trkpt lat="44.152048" lon="11.3446682"><ele>700.6666666666667</ele><time>2026-05-01T07:31:15.134Z</time></trkpt><trkpt lat="44.1519565" lon="11.3446295"><ele>699.5</ele><time>2026-05-01T07:31:16.137Z</time></trkpt><trkpt lat="44.1518838" lon="11.3445795"><ele>698.3333333333334</ele><time>2026-05-01T07:31:17.136Z</time></trkpt><trkpt lat="44.1518305" lon="11.344523"><ele>697.1666666666666</ele><time>2026-05-01T07:31:18.135Z</time></trkpt><trkpt lat="44.1517648" lon="11.3444945"><ele>696.0</ele><time>2026-05-01T07:31:20.135Z</time></trkpt><trkpt lat="44.151691" lon="11.344536"><ele>696.0</ele><time>2026-05-01T07:31:23.136Z</time></trkpt><trkpt lat="44.1516208" lon="11.3445807"><ele>696.0</ele><time>2026-05-01T07:31:25.135Z</time></trkpt><trkpt lat="44.1515392" lon="11.3446615"><ele>696.0</ele><time>2026-05-01T07:31:27.136Z</time></trkpt><trkpt lat="44.1514917" lon="11.3447443"><ele>696.0</ele><time>2026-05-01T07:31:28.135Z</time></trkpt><trkpt lat="44.1514482" lon="11.3448298"><ele>696.0</ele><time>2026-05-01T07:31:29.135Z</time></trkpt><trkpt lat="44.1513948" lon="11.344893"><ele>696.0</ele><time>2026-05-01T07:31:30.135Z</time></trkpt><trkpt lat="44.1513328" lon="11.3449545"><ele>694.1666666666666</ele><time>2026-05-01T07:31:31.135Z</time></trkpt><trkpt lat="44.1512855" lon="11.3450177"><ele>692.3333333333334</ele><time>2026-05-01T07:31:32.134Z</time></trkpt><trkpt lat="44.1512435" lon="11.3451062"><ele>690.5</ele><time>2026-05-01T07:31:33.134Z</time></trkpt><trkpt lat="44.1512088" lon="11.3452165"><ele>688.6666666666667</ele><time>2026-05-01T07:31:34.135Z</time></trkpt><trkpt lat="44.1511735" lon="11.3453245"><ele>686.8333333333334</ele><time>2026-05-01T07:31:35.136Z</time></trkpt><trkpt lat="44.151138" lon="11.3454285"><ele>685.0</ele><time>2026-05-01T07:31:36.136Z</time></trkpt><trkpt lat="44.151104" lon="11.34553"><ele>684.7142857142857</ele><time>2026-05-01T07:31:37.133Z</time></trkpt><trkpt lat="44.1510725" lon="11.3456263"><ele>684.4285714285714</ele><time>2026-05-01T07:31:38.133Z</time></trkpt><trkpt lat="44.151031" lon="11.3457127"><ele>684.1428571428571</ele><time>2026-05-01T07:31:39.133Z</time></trkpt><trkpt lat="44.150986" lon="11.3457855"><ele>683.8571428571429</ele><time>2026-05-01T07:31:40.133Z</time></trkpt><trkpt lat="44.1509378" lon="11.3458485"><ele>683.5714285714286</ele><time>2026-05-01T07:31:41.136Z</time></trkpt><trkpt lat="44.1508828" lon="11.3459158"><ele>683.2857142857143</ele><time>2026-05-01T07:31:42.134Z</time></trkpt><trkpt lat="44.150821" lon="11.3459583"><ele>683.0</ele><time>2026-05-01T07:31:43.135Z</time></trkpt><trkpt lat="44.1507407" lon="11.3459927"><ele>681.0</ele><time>2026-05-01T07:31:44.134Z</time></trkpt><trkpt lat="44.1506633" lon="11.3460108"><ele>679.0</ele><time>2026-05-01T07:31:45.135Z</time></trkpt><trkpt lat="44.1505878" lon="11.346032"><ele>677.0</ele><time>2026-05-01T07:31:46.134Z</time></trkpt><trkpt lat="44.1505207" lon="11.3460418"><ele>675.0</ele><time>2026-05-01T07:31:47.135Z</time></trkpt><trkpt lat="44.1504015" lon="11.3460445"><ele>673.0</ele><time>2026-05-01T07:31:49.134Z</time></trkpt><trkpt lat="44.1502932" lon="11.3460908"><ele>673.0</ele><time>2026-05-01T07:31:51.135Z</time></trkpt><trkpt lat="44.1502022" lon="11.346122"><ele>673.0</ele><time>2026-05-01T07:31:53.134Z</time></trkpt><trkpt lat="44.1501232" lon="11.3461737"><ele>673.0</ele><time>2026-05-01T07:31:55.134Z</time></trkpt><trkpt lat="44.1500383" lon="11.346168"><ele>673.0</ele><time>2026-05-01T07:31:57.134Z</time></trkpt><trkpt lat="44.1499593" lon="11.3462252"><ele>673.0</ele><time>2026-05-01T07:31:59.134Z</time></trkpt><trkpt lat="44.1498845" lon="11.3463432"><ele>671.5714285714286</ele><time>2026-05-01T07:32:01.133Z</time></trkpt><trkpt lat="44.1498268" lon="11.346387"><ele>670.1428571428571</ele><time>2026-05-01T07:32:02.133Z</time></trkpt><trkpt lat="44.1497565" lon="11.346439"><ele>668.7142857142857</ele><time>2026-05-01T07:32:03.131Z</time></trkpt><trkpt lat="44.1496957" lon="11.346481"><ele>667.2857142857142</ele><time>2026-05-01T07:32:04.132Z</time></trkpt><trkpt lat="44.1496368" lon="11.346526"><ele>665.8571428571429</ele><time>2026-05-01T07:32:05.134Z</time></trkpt><trkpt lat="44.149569" lon="11.3465675"><ele>664.4285714285713</ele><time>2026-05-01T07:32:06.135Z</time></trkpt><trkpt lat="44.1494923" lon="11.3466283"><ele>663.0</ele><time>2026-05-01T07:32:07.132Z</time></trkpt><trkpt lat="44.1494182" lon="11.3467025"><ele>663.0</ele><time>2026-05-01T07:32:08.135Z</time></trkpt><trkpt lat="44.1493422" lon="11.3467825"><ele>663.0</ele><time>2026-05-01T07:32:09.133Z</time></trkpt><trkpt lat="44.1492725" lon="11.3468587"><ele>663.0</ele><time>2026-05-01T07:32:10.134Z</time></trkpt><trkpt lat="44.1492138" lon="11.3469318"><ele>663.0</ele><time>2026-05-01T07:32:11.134Z</time></trkpt><trkpt lat="44.1491685" lon="11.3470212"><ele>663.0</ele><time>2026-05-01T07:32:12.133Z</time></trkpt><trkpt lat="44.1491265" lon="11.3471068"><ele>663.0</ele><time>2026-05-01T07:32:13.133Z</time></trkpt><trkpt lat="44.1490775" lon="11.347183"><ele>660.8333333333334</ele><time>2026-05-01T07:32:14.133Z</time></trkpt><trkpt lat="44.149026" lon="11.347237"><ele>658.6666666666666</ele><time>2026-05-01T07:32:15.134Z</time></trkpt><trkpt lat="44.148962" lon="11.3473785"><ele>656.5</ele><time>2026-05-01T07:32:17.134Z</time></trkpt><trkpt lat="44.1488885" lon="11.347508"><ele>654.3333333333333</ele><time>2026-05-01T07:32:19.133Z</time></trkpt><trkpt lat="44.1488458" lon="11.3475837"><ele>652.1666666666666</ele><time>2026-05-01T07:32:20.134Z</time></trkpt><trkpt lat="44.1488112" lon="11.3476645"><ele>650.0</ele><time>2026-05-01T07:32:21.135Z</time></trkpt><trkpt lat="44.1487755" lon="11.347743"><ele>650.0</ele><time>2026-05-01T07:32:22.134Z</time></trkpt><trkpt lat="44.1487028" lon="11.3478313"><ele>650.0</ele><time>2026-05-01T07:32:24.133Z</time></trkpt><trkpt lat="44.1486287" lon="11.34792"><ele>650.0</ele><time>2026-05-01T07:32:26.132Z</time></trkpt><trkpt lat="44.1485372" lon="11.3480225"><ele>650.0</ele><time>2026-05-01T07:32:28.131Z</time></trkpt><trkpt lat="44.1484587" lon="11.3481253"><ele>650.0</ele><time>2026-05-01T07:32:30.133Z</time></trkpt><trkpt lat="44.1484073" lon="11.3482482"><ele>649.4</ele><time>2026-05-01T07:32:32.133Z</time></trkpt><trkpt lat="44.1483653" lon="11.348399"><ele>648.8</ele><time>2026-05-01T07:32:34.133Z</time></trkpt><trkpt lat="44.1483327" lon="11.3484743"><ele>648.2</ele><time>2026-05-01T07:32:35.134Z</time></trkpt><trkpt lat="44.148284" lon="11.348572"><ele>647.6</ele><time>2026-05-01T07:32:36.133Z</time></trkpt><trkpt lat="44.1482193" lon="11.348683"><ele>647.0</ele><time>2026-05-01T07:32:37.133Z</time></trkpt><trkpt lat="44.148159" lon="11.348806"><ele>644.2</ele><time>2026-05-01T07:32:38.133Z</time></trkpt><trkpt lat="44.1480982" lon="11.3489317"><ele>641.4000000000001</ele><time>2026-05-01T07:32:39.133Z</time></trkpt><trkpt lat="44.1480472" lon="11.3490533"><ele>638.5999999999999</ele><time>2026-05-01T07:32:40.134Z</time></trkpt><trkpt lat="44.1480022" lon="11.3491623"><ele>635.8</ele><time>2026-05-01T07:32:41.133Z</time></trkpt><trkpt lat="44.147961" lon="11.3492873"><ele>633.0</ele><time>2026-05-01T07:32:42.133Z</time></trkpt><trkpt lat="44.1479198" lon="11.3494058"><ele>633.0</ele><time>2026-05-01T07:32:43.133Z</time></trkpt><trkpt lat="44.1478727" lon="11.3495215"><ele>633.0</ele><time>2026-05-01T07:32:44.134Z</time></trkpt><trkpt lat="44.1478347" lon="11.3496257"><ele>633.0</ele><time>2026-05-01T07:32:45.133Z</time></trkpt><trkpt lat="44.1477932" lon="11.3497142"><ele>633.0</ele><time>2026-05-01T07:32:46.134Z</time></trkpt><trkpt lat="44.147748" lon="11.349785"><ele>633.0</ele><time>2026-05-01T07:32:47.135Z</time></trkpt><trkpt lat="44.147695" lon="11.3498552"><ele>633.0</ele><time>2026-05-01T07:32:48.133Z</time></trkpt><trkpt lat="44.147641" lon="11.349924"><ele>633.0</ele><time>2026-05-01T07:32:49.134Z</time></trkpt><trkpt lat="44.1475875" lon="11.3499932"><ele>633.0</ele><time>2026-05-01T07:32:50.132Z</time></trkpt><trkpt lat="44.1475382" lon="11.3500657"><ele>633.0</ele><time>2026-05-01T07:32:51.132Z</time></trkpt><trkpt lat="44.1474918" lon="11.3501403"><ele>633.0</ele><time>2026-05-01T07:32:52.132Z</time></trkpt><trkpt lat="44.1474518" lon="11.3502162"><ele>633.0</ele><time>2026-05-01T07:32:53.132Z</time></trkpt><trkpt lat="44.147379" lon="11.3503602"><ele>633.0</ele><time>2026-05-01T07:32:55.133Z</time></trkpt><trkpt lat="44.1473425" lon="11.3504388"><ele>629.8</ele><time>2026-05-01T07:32:56.135Z</time></trkpt><trkpt lat="44.1473067" lon="11.3505188"><ele>626.5999999999999</ele><time>2026-05-01T07:32:57.134Z</time></trkpt><trkpt lat="44.1472605" lon="11.3505822"><ele>623.4000000000001</ele><time>2026-05-01T07:32:58.133Z</time></trkpt><trkpt lat="44.1471938" lon="11.3507062"><ele>620.2</ele><time>2026-05-01T07:33:00.134Z</time></trkpt><trkpt lat="44.1471175" lon="11.3508568"><ele>617.0</ele><time>2026-05-01T07:33:02.134Z</time></trkpt><trkpt lat="44.1470693" lon="11.3509348"><ele>616.8333333333333</ele><time>2026-05-01T07:33:03.133Z</time></trkpt><trkpt lat="44.1470277" lon="11.3510162"><ele>616.6666666666666</ele><time>2026-05-01T07:33:04.134Z</time></trkpt><trkpt lat="44.1469853" lon="11.3510857"><ele>616.5</ele><time>2026-05-01T07:33:05.133Z</time></trkpt><trkpt lat="44.1469382" lon="11.3511463"><ele>616.3333333333334</ele><time>2026-05-01T07:33:06.134Z</time></trkpt><trkpt lat="44.1468923" lon="11.3512073"><ele>616.1666666666667</ele><time>2026-05-01T07:33:07.134Z</time></trkpt><trkpt lat="44.1468218" lon="11.3513083"><ele>616.0</ele><time>2026-05-01T07:33:09.134Z</time></trkpt><trkpt lat="44.1467433" lon="11.351362"><ele>614.8</ele><time>2026-05-01T07:33:11.135Z</time></trkpt><trkpt lat="44.1466837" lon="11.3514422"><ele>613.6</ele><time>2026-05-01T07:33:13.134Z</time></trkpt><trkpt lat="44.146627" lon="11.3516032"><ele>612.4</ele><time>2026-05-01T07:33:15.132Z</time></trkpt><trkpt lat="44.1465762" lon="11.351703"><ele>611.2</ele><time>2026-05-01T07:33:16.132Z</time></trkpt><trkpt lat="44.1465067" lon="11.351806"><ele>610.0</ele><time>2026-05-01T07:33:17.133Z</time></trkpt><trkpt lat="44.1464378" lon="11.3519243"><ele>606.25</ele><time>2026-05-01T07:33:18.133Z</time></trkpt><trkpt lat="44.1463515" lon="11.3520768"><ele>602.5</ele><time>2026-05-01T07:33:19.134Z</time></trkpt><trkpt lat="44.146272" lon="11.3522208"><ele>598.75</ele><time>2026-05-01T07:33:20.134Z</time></trkpt><trkpt lat="44.146201" lon="11.35235"><ele>595.0</ele><time>2026-05-01T07:33:21.134Z</time></trkpt><trkpt lat="44.146129" lon="11.3524708"><ele>595.0</ele><time>2026-05-01T07:33:22.133Z</time></trkpt><trkpt lat="44.146059" lon="11.3525953"><ele>595.0</ele><time>2026-05-01T07:33:23.134Z</time></trkpt><trkpt lat="44.1459888" lon="11.3527167"><ele>595.0</ele><time>2026-05-01T07:33:24.134Z</time></trkpt><trkpt lat="44.145919" lon="11.3528335"><ele>595.0</ele><time>2026-05-01T07:33:25.134Z</time></trkpt><trkpt lat="44.145854" lon="11.3529483"><ele>595.0</ele><time>2026-05-01T07:33:26.135Z</time></trkpt><trkpt lat="44.1457977" lon="11.3530665"><ele>594.2</ele><time>2026-05-01T07:33:27.133Z</time></trkpt><trkpt lat="44.1457465" lon="11.3531775"><ele>593.4</ele><time>2026-05-01T07:33:28.135Z</time></trkpt><trkpt lat="44.1456883" lon="11.35329"><ele>592.6</ele><time>2026-05-01T07:33:29.135Z</time></trkpt><trkpt lat="44.1456352" lon="11.3533947"><ele>591.8</ele><time>2026-05-01T07:33:30.136Z</time></trkpt><trkpt lat="44.1455848" lon="11.3534985"><ele>591.0</ele><time>2026-05-01T07:33:31.134Z</time></trkpt><trkpt lat="44.1455363" lon="11.3536077"><ele>590.0</ele><time>2026-05-01T07:33:32.134Z</time></trkpt><trkpt lat="44.1454848" lon="11.3537123"><ele>589.0</ele><time>2026-05-01T07:33:33.134Z</time></trkpt><trkpt lat="44.1454337" lon="11.3537765"><ele>588.0</ele><time>2026-05-01T07:33:34.134Z</time></trkpt><trkpt lat="44.1453215" lon="11.3538138"><ele>587.0</ele><time>2026-05-01T07:33:36.134Z</time></trkpt><trkpt lat="44.1452635" lon="11.3537742"><ele>586.0</ele><time>2026-05-01T07:33:37.134Z</time></trkpt><trkpt lat="44.145215" lon="11.353712"><ele>585.0</ele><time>2026-05-01T07:33:38.134Z</time></trkpt><trkpt lat="44.1451658" lon="11.3536487"><ele>585.0</ele><time>2026-05-01T07:33:39.132Z</time></trkpt><trkpt lat="44.1451085" lon="11.3536115"><ele>585.0</ele><time>2026-05-01T07:33:40.132Z</time></trkpt><trkpt lat="44.1450433" lon="11.3536133"><ele>585.0</ele><time>2026-05-01T07:33:41.133Z</time></trkpt><trkpt lat="44.1449737" lon="11.353643"><ele>585.0</ele><time>2026-05-01T07:33:42.133Z</time></trkpt><trkpt lat="44.1448967" lon="11.3536975"><ele>585.0</ele><time>2026-05-01T07:33:43.134Z</time></trkpt><trkpt lat="44.1448165" lon="11.3537512"><ele>585.0</ele><time>2026-05-01T07:33:44.133Z</time></trkpt><trkpt lat="44.1447407" lon="11.3538053"><ele>581.0</ele><time>2026-05-01T07:33:45.134Z</time></trkpt><trkpt lat="44.1446767" lon="11.353873"><ele>577.0</ele><time>2026-05-01T07:33:46.133Z</time></trkpt><trkpt lat="44.1446328" lon="11.3539588"><ele>573.0</ele><time>2026-05-01T07:33:47.134Z</time></trkpt><trkpt lat="44.1446132" lon="11.3540603"><ele>569.0</ele><time>2026-05-01T07:33:48.134Z</time></trkpt><trkpt lat="44.1446082" lon="11.3541582"><ele>565.0</ele><time>2026-05-01T07:33:49.133Z</time></trkpt><trkpt lat="44.1446105" lon="11.3542475"><ele>561.0</ele><time>2026-05-01T07:33:50.135Z</time></trkpt><trkpt lat="44.1446088" lon="11.3544163"><ele>561.0</ele><time>2026-05-01T07:33:52.134Z</time></trkpt><trkpt lat="44.1445953" lon="11.354509"><ele>561.0</ele><time>2026-05-01T07:33:53.134Z</time></trkpt><trkpt lat="44.1445808" lon="11.3546003"><ele>561.0</ele><time>2026-05-01T07:33:54.133Z</time></trkpt><trkpt lat="44.1445662" lon="11.3547013"><ele>561.0</ele><time>2026-05-01T07:33:55.134Z</time></trkpt><trkpt lat="44.14455" lon="11.3548027"><ele>561.0</ele><time>2026-05-01T07:33:56.135Z</time></trkpt><trkpt lat="44.1445248" lon="11.35491"><ele>561.0</ele><time>2026-05-01T07:33:57.134Z</time></trkpt><trkpt lat="44.1444928" lon="11.3550082"><ele>561.0</ele><time>2026-05-01T07:33:58.134Z</time></trkpt><trkpt lat="44.144471" lon="11.3551077"><ele>560.1666666666666</ele><time>2026-05-01T07:33:59.134Z</time></trkpt><trkpt lat="44.1444488" lon="11.3552127"><ele>559.3333333333334</ele><time>2026-05-01T07:34:00.134Z</time></trkpt><trkpt lat="44.1444253" lon="11.3553212"><ele>558.5</ele><time>2026-05-01T07:34:01.134Z</time></trkpt><trkpt lat="44.1444053" lon="11.3554263"><ele>557.6666666666667</ele><time>2026-05-01T07:34:02.135Z</time></trkpt><trkpt lat="44.1443847" lon="11.3555297"><ele>556.8333333333334</ele><time>2026-05-01T07:34:03.133Z</time></trkpt><trkpt lat="44.1443543" lon="11.355637"><ele>556.0</ele><time>2026-05-01T07:34:04.133Z</time></trkpt><trkpt lat="44.1443198" lon="11.3557353"><ele>555.2857142857142</ele><time>2026-05-01T07:34:05.132Z</time></trkpt><trkpt lat="44.1442863" lon="11.3558198"><ele>554.5714285714286</ele><time>2026-05-01T07:34:06.132Z</time></trkpt><trkpt lat="44.1442462" lon="11.3558907"><ele>553.8571428571429</ele><time>2026-05-01T07:34:07.134Z</time></trkpt><trkpt lat="44.1442043" lon="11.3559658"><ele>553.1428571428571</ele><time>2026-05-01T07:34:08.134Z</time></trkpt><trkpt lat="44.1441635" lon="11.3560542"><ele>552.4285714285714</ele><time>2026-05-01T07:34:09.132Z</time></trkpt><trkpt lat="44.1441305" lon="11.3561427"><ele>551.7142857142857</ele><time>2026-05-01T07:34:10.133Z</time></trkpt><trkpt lat="44.144111" lon="11.356228"><ele>551.0</ele><time>2026-05-01T07:34:11.134Z</time></trkpt><trkpt lat="44.1441287" lon="11.3563827"><ele>548.4</ele><time>2026-05-01T07:34:13.134Z</time></trkpt><trkpt lat="44.1441507" lon="11.3565175"><ele>545.8</ele><time>2026-05-01T07:34:15.134Z</time></trkpt><trkpt lat="44.1440728" lon="11.3565792"><ele>543.1999999999999</ele><time>2026-05-01T07:34:17.135Z</time></trkpt><trkpt lat="44.143964" lon="11.3566185"><ele>540.6</ele><time>2026-05-01T07:34:19.134Z</time></trkpt><trkpt lat="44.1438453" lon="11.356678"><ele>538.0</ele><time>2026-05-01T07:34:21.135Z</time></trkpt><trkpt lat="44.1437183" lon="11.356691"><ele>536.5</ele><time>2026-05-01T07:34:23.135Z</time></trkpt><trkpt lat="44.1436412" lon="11.3566677"><ele>535.0</ele><time>2026-05-01T07:34:24.135Z</time></trkpt><trkpt lat="44.143562" lon="11.3566507"><ele>533.5</ele><time>2026-05-01T07:34:25.135Z</time></trkpt><trkpt lat="44.1434842" lon="11.3566363"><ele>532.0</ele><time>2026-05-01T07:34:26.135Z</time></trkpt><trkpt lat="44.1434108" lon="11.3566245"><ele>530.5</ele><time>2026-05-01T07:34:27.134Z</time></trkpt><trkpt lat="44.1433148" lon="11.3566033"><ele>529.0</ele><time>2026-05-01T07:34:29.132Z</time></trkpt><trkpt lat="44.1432625" lon="11.3566765"><ele>529.0</ele><time>2026-05-01T07:34:32.134Z</time></trkpt><trkpt lat="44.1433133" lon="11.3568223"><ele>529.0</ele><time>2026-05-01T07:34:34.133Z</time></trkpt><trkpt lat="44.1433485" lon="11.3569055"><ele>529.0</ele><time>2026-05-01T07:34:35.134Z</time></trkpt><trkpt lat="44.1433798" lon="11.356993"><ele>529.0</ele><time>2026-05-01T07:34:36.134Z</time></trkpt><trkpt lat="44.1434042" lon="11.3571305"><ele>529.0</ele><time>2026-05-01T07:34:38.134Z</time></trkpt><trkpt lat="44.1433105" lon="11.3571875"><ele>529.0</ele><time>2026-05-01T07:34:40.134Z</time></trkpt><trkpt lat="44.143248" lon="11.3571652"><ele>529.0</ele><time>2026-05-01T07:34:41.135Z</time></trkpt><trkpt lat="44.143188" lon="11.3571107"><ele>529.0</ele><time>2026-05-01T07:34:42.134Z</time></trkpt><trkpt lat="44.1431292" lon="11.3570332"><ele>529.0</ele><time>2026-05-01T07:34:43.134Z</time></trkpt><trkpt lat="44.1430662" lon="11.3569483"><ele>529.0</ele><time>2026-05-01T07:34:44.133Z</time></trkpt><trkpt lat="44.1429933" lon="11.3568747"><ele>529.0</ele><time>2026-05-01T07:34:45.134Z</time></trkpt><trkpt lat="44.1429133" lon="11.3568145"><ele>528.6666666666667</ele><time>2026-05-01T07:34:46.134Z</time></trkpt><trkpt lat="44.1428363" lon="11.3567553"><ele>528.3333333333334</ele><time>2026-05-01T07:34:47.134Z</time></trkpt><trkpt lat="44.1427562" lon="11.356696"><ele>528.0</ele><time>2026-05-01T07:34:48.134Z</time></trkpt><trkpt lat="44.1426743" lon="11.3566427"><ele>527.6666666666666</ele><time>2026-05-01T07:34:49.134Z</time></trkpt><trkpt lat="44.1425978" lon="11.3565962"><ele>527.3333333333333</ele><time>2026-05-01T07:34:50.135Z</time></trkpt><trkpt lat="44.1425255" lon="11.356555"><ele>527.0</ele><time>2026-05-01T07:34:51.134Z</time></trkpt><trkpt lat="44.1424473" lon="11.3565237"><ele>529.4</ele><time>2026-05-01T07:34:52.133Z</time></trkpt><trkpt lat="44.1423545" lon="11.3565188"><ele>531.8000000000001</ele><time>2026-05-01T07:34:53.133Z</time></trkpt><trkpt lat="44.1422563" lon="11.3565443"><ele>534.2</ele><time>2026-05-01T07:34:54.132Z</time></trkpt><trkpt lat="44.1421607" lon="11.3565997"><ele>536.6</ele><time>2026-05-01T07:34:55.131Z</time></trkpt><trkpt lat="44.1420707" lon="11.3566767"><ele>539.0</ele><time>2026-05-01T07:34:56.134Z</time></trkpt><trkpt lat="44.1419858" lon="11.3567517"><ele>539.0</ele><time>2026-05-01T07:34:57.134Z</time></trkpt><trkpt lat="44.1418983" lon="11.3568105"><ele>539.0</ele><time>2026-05-01T07:34:58.135Z</time></trkpt><trkpt lat="44.141801" lon="11.3568415"><ele>539.0</ele><time>2026-05-01T07:34:59.135Z</time></trkpt><trkpt lat="44.141695" lon="11.3568497"><ele>539.0</ele><time>2026-05-01T07:35:00.134Z</time></trkpt><trkpt lat="44.1415863" lon="11.3568633"><ele>539.0</ele><time>2026-05-01T07:35:01.133Z</time></trkpt><trkpt lat="44.1414812" lon="11.356917"><ele>540.0</ele><time>2026-05-01T07:35:02.135Z</time></trkpt><trkpt lat="44.1413828" lon="11.3569995"><ele>541.0</ele><time>2026-05-01T07:35:03.134Z</time></trkpt><trkpt lat="44.1412883" lon="11.3570927"><ele>542.0</ele><time>2026-05-01T07:35:04.134Z</time></trkpt><trkpt lat="44.1411972" lon="11.3571905"><ele>543.0</ele><time>2026-05-01T07:35:05.134Z</time></trkpt><trkpt lat="44.1411142" lon="11.3573032"><ele>543.0</ele><time>2026-05-01T07:35:06.134Z</time></trkpt><trkpt lat="44.1410433" lon="11.3574372"><ele>543.0</ele><time>2026-05-01T07:35:07.134Z</time></trkpt><trkpt lat="44.1409815" lon="11.3575805"><ele>543.0</ele><time>2026-05-01T07:35:08.135Z</time></trkpt><trkpt lat="44.140918" lon="11.3577178"><ele>543.0</ele><time>2026-05-01T07:35:09.135Z</time></trkpt><trkpt lat="44.140847" lon="11.3578327"><ele>543.0</ele><time>2026-05-01T07:35:10.135Z</time></trkpt><trkpt lat="44.1407713" lon="11.357904"><ele>543.0</ele><time>2026-05-01T07:35:11.134Z</time></trkpt><trkpt lat="44.1406883" lon="11.3579277"><ele>543.0</ele><time>2026-05-01T07:35:12.134Z</time></trkpt><trkpt lat="44.1405913" lon="11.3579128"><ele>543.0</ele><time>2026-05-01T07:35:13.135Z</time></trkpt><trkpt lat="44.1404877" lon="11.3578953"><ele>543.0</ele><time>2026-05-01T07:35:14.135Z</time></trkpt><trkpt lat="44.1403885" lon="11.3579088"><ele>544.25</ele><time>2026-05-01T07:35:15.135Z</time></trkpt><trkpt lat="44.1402915" lon="11.3579633"><ele>545.5</ele><time>2026-05-01T07:35:16.135Z</time></trkpt><trkpt lat="44.1401947" lon="11.3580565"><ele>546.75</ele><time>2026-05-01T07:35:17.133Z</time></trkpt><trkpt lat="44.140102" lon="11.3581645"><ele>548.0</ele><time>2026-05-01T07:35:18.132Z</time></trkpt><trkpt lat="44.1400023" lon="11.3582553"><ele>548.0</ele><time>2026-05-01T07:35:19.132Z</time></trkpt><trkpt lat="44.1398895" lon="11.358328"><ele>548.0</ele><time>2026-05-01T07:35:20.133Z</time></trkpt><trkpt lat="44.1397697" lon="11.3584032"><ele>548.0</ele><time>2026-05-01T07:35:21.134Z</time></trkpt><trkpt lat="44.1396682" lon="11.3584932"><ele>548.0</ele><time>2026-05-01T07:35:22.134Z</time></trkpt><trkpt lat="44.1395858" lon="11.3585822"><ele>548.5</ele><time>2026-05-01T07:35:23.134Z</time></trkpt><trkpt lat="44.1394947" lon="11.3586615"><ele>549.0</ele><time>2026-05-01T07:35:24.134Z</time></trkpt><trkpt lat="44.1393863" lon="11.358727"><ele>549.5</ele><time>2026-05-01T07:35:25.135Z</time></trkpt><trkpt lat="44.1392688" lon="11.3587987"><ele>550.0</ele><time>2026-05-01T07:35:26.135Z</time></trkpt><trkpt lat="44.1391532" lon="11.3589013"><ele>550.0</ele><time>2026-05-01T07:35:27.134Z</time></trkpt><trkpt lat="44.1390537" lon="11.3590143"><ele>550.0</ele><time>2026-05-01T07:35:28.133Z</time></trkpt><trkpt lat="44.138953" lon="11.3591203"><ele>550.0</ele><time>2026-05-01T07:35:29.135Z</time></trkpt><trkpt lat="44.1388428" lon="11.35921"><ele>550.0</ele><time>2026-05-01T07:35:30.135Z</time></trkpt><trkpt lat="44.138721" lon="11.3592777"><ele>551.5</ele><time>2026-05-01T07:35:31.134Z</time></trkpt><trkpt lat="44.1385925" lon="11.3593262"><ele>553.0</ele><time>2026-05-01T07:35:32.135Z</time></trkpt><trkpt lat="44.1384763" lon="11.3593748"><ele>554.5</ele><time>2026-05-01T07:35:33.134Z</time></trkpt><trkpt lat="44.1383773" lon="11.3594497"><ele>556.0</ele><time>2026-05-01T07:35:34.134Z</time></trkpt><trkpt lat="44.138292" lon="11.3595327"><ele>556.6</ele><time>2026-05-01T07:35:35.135Z</time></trkpt><trkpt lat="44.1382082" lon="11.3595803"><ele>557.2</ele><time>2026-05-01T07:35:36.134Z</time></trkpt><trkpt lat="44.1381143" lon="11.3595805"><ele>557.8</ele><time>2026-05-01T07:35:37.134Z</time></trkpt><trkpt lat="44.1380153" lon="11.359544"><ele>558.4</ele><time>2026-05-01T07:35:38.134Z</time></trkpt><trkpt lat="44.1379193" lon="11.3595032"><ele>559.0</ele><time>2026-05-01T07:35:39.135Z</time></trkpt><trkpt lat="44.1378217" lon="11.3594845"><ele>559.0</ele><time>2026-05-01T07:35:40.134Z</time></trkpt><trkpt lat="44.1377302" lon="11.3594978"><ele>559.0</ele><time>2026-05-01T07:35:41.133Z</time></trkpt><trkpt lat="44.1376527" lon="11.3595455"><ele>559.0</ele><time>2026-05-01T07:35:42.132Z</time></trkpt><trkpt lat="44.1375967" lon="11.3596217"><ele>559.0</ele><time>2026-05-01T07:35:43.132Z</time></trkpt><trkpt lat="44.1375632" lon="11.3597282"><ele>559.0</ele><time>2026-05-01T07:35:44.134Z</time></trkpt><trkpt lat="44.1375482" lon="11.3598552"><ele>559.0</ele><time>2026-05-01T07:35:45.133Z</time></trkpt><trkpt lat="44.13754" lon="11.3599902"><ele>558.0</ele><time>2026-05-01T07:35:46.134Z</time></trkpt><trkpt lat="44.1375188" lon="11.3601192"><ele>557.0</ele><time>2026-05-01T07:35:47.134Z</time></trkpt><trkpt lat="44.1374762" lon="11.3602355"><ele>556.0</ele><time>2026-05-01T07:35:48.134Z</time></trkpt><trkpt lat="44.1374153" lon="11.360344"><ele>555.0</ele><time>2026-05-01T07:35:49.135Z</time></trkpt><trkpt lat="44.1373407" lon="11.3604498"><ele>554.0</ele><time>2026-05-01T07:35:50.134Z</time></trkpt><trkpt lat="44.137257" lon="11.3605585"><ele>557.5</ele><time>2026-05-01T07:35:51.135Z</time></trkpt><trkpt lat="44.1371653" lon="11.3606705"><ele>561.0</ele><time>2026-05-01T07:35:52.134Z</time></trkpt><trkpt lat="44.1370683" lon="11.3607832"><ele>564.5</ele><time>2026-05-01T07:35:53.137Z</time></trkpt><trkpt lat="44.1369663" lon="11.3608918"><ele>568.0</ele><time>2026-05-01T07:35:54.135Z</time></trkpt><trkpt lat="44.136859" lon="11.3609998"><ele>568.0</ele><time>2026-05-01T07:35:55.136Z</time></trkpt><trkpt lat="44.1367518" lon="11.3611132"><ele>568.0</ele><time>2026-05-01T07:35:56.136Z</time></trkpt><trkpt lat="44.1366477" lon="11.3612312"><ele>568.0</ele><time>2026-05-01T07:35:57.134Z</time></trkpt><trkpt lat="44.1365477" lon="11.3613517"><ele>568.0</ele><time>2026-05-01T07:35:58.135Z</time></trkpt><trkpt lat="44.13645" lon="11.361468"><ele>569.25</ele><time>2026-05-01T07:35:59.137Z</time></trkpt><trkpt lat="44.1363497" lon="11.3615685"><ele>570.5</ele><time>2026-05-01T07:36:00.135Z</time></trkpt><trkpt lat="44.13624" lon="11.3616473"><ele>571.75</ele><time>2026-05-01T07:36:01.135Z</time></trkpt><trkpt lat="44.1361235" lon="11.3617108"><ele>573.0</ele><time>2026-05-01T07:36:02.134Z</time></trkpt><trkpt lat="44.1360083" lon="11.3617767"><ele>573.0</ele><time>2026-05-01T07:36:03.135Z</time></trkpt><trkpt lat="44.1358963" lon="11.3618587"><ele>573.0</ele><time>2026-05-01T07:36:04.135Z</time></trkpt><trkpt lat="44.1357867" lon="11.3619542"><ele>573.0</ele><time>2026-05-01T07:36:05.136Z</time></trkpt><trkpt lat="44.1356825" lon="11.3620595"><ele>573.0</ele><time>2026-05-01T07:36:06.133Z</time></trkpt><trkpt lat="44.1355827" lon="11.3621717"><ele>576.5</ele><time>2026-05-01T07:36:07.132Z</time></trkpt><trkpt lat="44.1354852" lon="11.3622892"><ele>580.0</ele><time>2026-05-01T07:36:08.134Z</time></trkpt><trkpt lat="44.1353877" lon="11.3624093"><ele>583.5</ele><time>2026-05-01T07:36:09.133Z</time></trkpt><trkpt lat="44.1352882" lon="11.362531"><ele>587.0</ele><time>2026-05-01T07:36:10.135Z</time></trkpt><trkpt lat="44.135188" lon="11.3626513"><ele>587.0</ele><time>2026-05-01T07:36:11.136Z</time></trkpt><trkpt lat="44.135089" lon="11.3627717"><ele>587.0</ele><time>2026-05-01T07:36:12.134Z</time></trkpt><trkpt lat="44.134991" lon="11.3628915"><ele>587.0</ele><time>2026-05-01T07:36:13.135Z</time></trkpt><trkpt lat="44.1348937" lon="11.3630077"><ele>587.0</ele><time>2026-05-01T07:36:14.135Z</time></trkpt><trkpt lat="44.1347985" lon="11.3631227"><ele>589.75</ele><time>2026-05-01T07:36:15.135Z</time></trkpt><trkpt lat="44.1347073" lon="11.3632413"><ele>592.5</ele><time>2026-05-01T07:36:16.137Z</time></trkpt><trkpt lat="44.1346218" lon="11.3633647"><ele>595.25</ele><time>2026-05-01T07:36:17.135Z</time></trkpt><trkpt lat="44.1345393" lon="11.3634808"><ele>598.0</ele><time>2026-05-01T07:36:18.135Z</time></trkpt><trkpt lat="44.1344557" lon="11.3635668"><ele>598.0</ele><time>2026-05-01T07:36:19.134Z</time></trkpt><trkpt lat="44.1343675" lon="11.3636162"><ele>598.0</ele><time>2026-05-01T07:36:20.137Z</time></trkpt><trkpt lat="44.134274" lon="11.3636278"><ele>598.0</ele><time>2026-05-01T07:36:21.135Z</time></trkpt><trkpt lat="44.1341718" lon="11.363614"><ele>598.0</ele><time>2026-05-01T07:36:22.135Z</time></trkpt><trkpt lat="44.1340675" lon="11.3636027"><ele>598.0</ele><time>2026-05-01T07:36:23.135Z</time></trkpt><trkpt lat="44.133973" lon="11.363604"><ele>597.1666666666667</ele><time>2026-05-01T07:36:24.134Z</time></trkpt><trkpt lat="44.1338963" lon="11.3636185"><ele>596.3333333333334</ele><time>2026-05-01T07:36:25.136Z</time></trkpt><trkpt lat="44.1337925" lon="11.3637065"><ele>595.5</ele><time>2026-05-01T07:36:27.136Z</time></trkpt><trkpt lat="44.1337582" lon="11.363793"><ele>594.6666666666666</ele><time>2026-05-01T07:36:28.136Z</time></trkpt><trkpt lat="44.133734" lon="11.363904"><ele>593.8333333333333</ele><time>2026-05-01T07:36:29.137Z</time></trkpt><trkpt lat="44.1337127" lon="11.3640328"><ele>593.0</ele><time>2026-05-01T07:36:30.134Z</time></trkpt><trkpt lat="44.1336915" lon="11.3641745"><ele>593.0</ele><time>2026-05-01T07:36:31.135Z</time></trkpt><trkpt lat="44.1336722" lon="11.3643342"><ele>593.0</ele><time>2026-05-01T07:36:32.135Z</time></trkpt><trkpt lat="44.1336523" lon="11.3645033"><ele>593.0</ele><time>2026-05-01T07:36:33.134Z</time></trkpt><trkpt lat="44.1336267" lon="11.3646678"><ele>593.0</ele><time>2026-05-01T07:36:34.135Z</time></trkpt><trkpt lat="44.133592" lon="11.3648388"><ele>593.25</ele><time>2026-05-01T07:36:35.137Z</time></trkpt><trkpt lat="44.1335537" lon="11.3650088"><ele>593.5</ele><time>2026-05-01T07:36:36.136Z</time></trkpt><trkpt lat="44.1335173" lon="11.3651783"><ele>593.75</ele><time>2026-05-01T07:36:37.137Z</time></trkpt><trkpt lat="44.1334897" lon="11.365353"><ele>594.0</ele><time>2026-05-01T07:36:38.137Z</time></trkpt><trkpt lat="44.133474" lon="11.3655355"><ele>594.0</ele><time>2026-05-01T07:36:39.136Z</time></trkpt><trkpt lat="44.1334682" lon="11.3657258"><ele>594.0</ele><time>2026-05-01T07:36:40.136Z</time></trkpt><trkpt lat="44.1334658" lon="11.3659198"><ele>594.0</ele><time>2026-05-01T07:36:41.137Z</time></trkpt><trkpt lat="44.1334575" lon="11.3661125"><ele>594.0</ele><time>2026-05-01T07:36:42.137Z</time></trkpt><trkpt lat="44.1334368" lon="11.3662977"><ele>595.0</ele><time>2026-05-01T07:36:43.136Z</time></trkpt><trkpt lat="44.1333963" lon="11.3664738"><ele>596.0</ele><time>2026-05-01T07:36:44.137Z</time></trkpt><trkpt lat="44.1333312" lon="11.3666483"><ele>597.0</ele><time>2026-05-01T07:36:45.136Z</time></trkpt><trkpt lat="44.1332538" lon="11.3668247"><ele>598.0</ele><time>2026-05-01T07:36:46.137Z</time></trkpt><trkpt lat="44.133182" lon="11.3669942"><ele>596.5</ele><time>2026-05-01T07:36:47.137Z</time></trkpt><trkpt lat="44.1331145" lon="11.3671683"><ele>595.0</ele><time>2026-05-01T07:36:48.136Z</time></trkpt><trkpt lat="44.1330467" lon="11.3673415"><ele>593.5</ele><time>2026-05-01T07:36:49.136Z</time></trkpt><trkpt lat="44.1329762" lon="11.3675078"><ele>592.0</ele><time>2026-05-01T07:36:50.137Z</time></trkpt><trkpt lat="44.1329148" lon="11.367669"><ele>592.0</ele><time>2026-05-01T07:36:51.136Z</time></trkpt><trkpt lat="44.1328703" lon="11.367833"><ele>592.0</ele><time>2026-05-01T07:36:52.136Z</time></trkpt><trkpt lat="44.1328397" lon="11.3679955"><ele>592.0</ele><time>2026-05-01T07:36:53.137Z</time></trkpt><trkpt lat="44.1328052" lon="11.3681467"><ele>592.0</ele><time>2026-05-01T07:36:54.136Z</time></trkpt><trkpt lat="44.1327558" lon="11.36829"><ele>593.8000000000001</ele><time>2026-05-01T07:36:55.134Z</time></trkpt><trkpt lat="44.1326973" lon="11.3684187"><ele>595.6</ele><time>2026-05-01T07:36:56.135Z</time></trkpt><trkpt lat="44.1326362" lon="11.3685295"><ele>597.4000000000001</ele><time>2026-05-01T07:36:57.134Z</time></trkpt><trkpt lat="44.1325717" lon="11.368625"><ele>599.2</ele><time>2026-05-01T07:36:58.134Z</time></trkpt><trkpt lat="44.132507" lon="11.3687013"><ele>601.0</ele><time>2026-05-01T07:36:59.136Z</time></trkpt><trkpt lat="44.1324413" lon="11.3687627"><ele>599.3333333333334</ele><time>2026-05-01T07:37:00.137Z</time></trkpt><trkpt lat="44.1323743" lon="11.3688153"><ele>597.6666666666667</ele><time>2026-05-01T07:37:01.138Z</time></trkpt><trkpt lat="44.1323023" lon="11.3688488"><ele>596.0</ele><time>2026-05-01T07:37:02.137Z</time></trkpt><trkpt lat="44.1322308" lon="11.3688782"><ele>594.3333333333334</ele><time>2026-05-01T07:37:03.136Z</time></trkpt><trkpt lat="44.1321677" lon="11.3689258"><ele>592.6666666666666</ele><time>2026-05-01T07:37:04.136Z</time></trkpt><trkpt lat="44.1321103" lon="11.3689965"><ele>591.0</ele><time>2026-05-01T07:37:05.137Z</time></trkpt><trkpt lat="44.132061" lon="11.369082"><ele>591.0</ele><time>2026-05-01T07:37:06.135Z</time></trkpt><trkpt lat="44.1320132" lon="11.369175"><ele>591.0</ele><time>2026-05-01T07:37:07.136Z</time></trkpt><trkpt lat="44.1319577" lon="11.3692622"><ele>591.0</ele><time>2026-05-01T07:37:08.136Z</time></trkpt><trkpt lat="44.1318975" lon="11.3693253"><ele>591.0</ele><time>2026-05-01T07:37:09.135Z</time></trkpt><trkpt lat="44.131825" lon="11.3693582"><ele>591.0</ele><time>2026-05-01T07:37:10.135Z</time></trkpt><trkpt lat="44.1317445" lon="11.3693723"><ele>591.0</ele><time>2026-05-01T07:37:11.136Z</time></trkpt><trkpt lat="44.131658" lon="11.3693873"><ele>591.0</ele><time>2026-05-01T07:37:12.135Z</time></trkpt><trkpt lat="44.131569" lon="11.3694147"><ele>591.0</ele><time>2026-05-01T07:37:13.136Z</time></trkpt><trkpt lat="44.131487" lon="11.3694462"><ele>591.0</ele><time>2026-05-01T07:37:14.136Z</time></trkpt><trkpt lat="44.1314022" lon="11.369474"><ele>591.0</ele><time>2026-05-01T07:37:15.136Z</time></trkpt><trkpt lat="44.1313135" lon="11.3695043"><ele>591.0</ele><time>2026-05-01T07:37:16.136Z</time></trkpt><trkpt lat="44.1312168" lon="11.3695322"><ele>588.2</ele><time>2026-05-01T07:37:17.135Z</time></trkpt><trkpt lat="44.1311185" lon="11.3695448"><ele>585.4000000000001</ele><time>2026-05-01T07:37:18.135Z</time></trkpt><trkpt lat="44.1310293" lon="11.3695472"><ele>582.6</ele><time>2026-05-01T07:37:19.135Z</time></trkpt><trkpt lat="44.1309475" lon="11.3695405"><ele>579.8000000000001</ele><time>2026-05-01T07:37:20.134Z</time></trkpt><trkpt lat="44.1308767" lon="11.3695112"><ele>577.0</ele><time>2026-05-01T07:37:21.134Z</time></trkpt><trkpt lat="44.1307702" lon="11.3694707"><ele>575.8333333333334</ele><time>2026-05-01T07:37:23.135Z</time></trkpt><trkpt lat="44.1306513" lon="11.3694953"><ele>574.6666666666667</ele><time>2026-05-01T07:37:25.134Z</time></trkpt><trkpt lat="44.130585" lon="11.3695017"><ele>573.5</ele><time>2026-05-01T07:37:26.135Z</time></trkpt><trkpt lat="44.130494" lon="11.3695862"><ele>572.3333333333334</ele><time>2026-05-01T07:37:28.135Z</time></trkpt><trkpt lat="44.1304365" lon="11.3696325"><ele>571.1666666666666</ele><time>2026-05-01T07:37:29.136Z</time></trkpt><trkpt lat="44.1303558" lon="11.3696588"><ele>570.0</ele><time>2026-05-01T07:37:30.137Z</time></trkpt><trkpt lat="44.1302608" lon="11.3696653"><ele>570.0</ele><time>2026-05-01T07:37:31.135Z</time></trkpt><trkpt lat="44.130157" lon="11.3696665"><ele>570.0</ele><time>2026-05-01T07:37:32.136Z</time></trkpt><trkpt lat="44.1300488" lon="11.3696797"><ele>570.0</ele><time>2026-05-01T07:37:33.135Z</time></trkpt><trkpt lat="44.1299402" lon="11.3697042"><ele>570.0</ele><time>2026-05-01T07:37:34.135Z</time></trkpt><trkpt lat="44.129833" lon="11.3697308"><ele>570.0</ele><time>2026-05-01T07:37:35.137Z</time></trkpt><trkpt lat="44.1297293" lon="11.369745"><ele>569.8</ele><time>2026-05-01T07:37:36.136Z</time></trkpt><trkpt lat="44.1296328" lon="11.3697363"><ele>569.6</ele><time>2026-05-01T07:37:37.136Z</time></trkpt><trkpt lat="44.1295368" lon="11.3697043"><ele>569.4</ele><time>2026-05-01T07:37:38.136Z</time></trkpt><trkpt lat="44.1294458" lon="11.3696475"><ele>569.2</ele><time>2026-05-01T07:37:39.135Z</time></trkpt><trkpt lat="44.1293662" lon="11.3695785"><ele>569.0</ele><time>2026-05-01T07:37:40.135Z</time></trkpt><trkpt lat="44.1292877" lon="11.3695263"><ele>568.5</ele><time>2026-05-01T07:37:41.135Z</time></trkpt><trkpt lat="44.1292148" lon="11.3695"><ele>568.0</ele><time>2026-05-01T07:37:42.134Z</time></trkpt><trkpt lat="44.1291305" lon="11.3694935"><ele>567.5</ele><time>2026-05-01T07:37:43.135Z</time></trkpt><trkpt lat="44.1290407" lon="11.369501"><ele>567.0</ele><time>2026-05-01T07:37:44.133Z</time></trkpt><trkpt lat="44.1289518" lon="11.3695177"><ele>566.5</ele><time>2026-05-01T07:37:45.133Z</time></trkpt><trkpt lat="44.1288537" lon="11.3695478"><ele>566.0</ele><time>2026-05-01T07:37:46.134Z</time></trkpt><trkpt lat="44.128756" lon="11.3695763"><ele>564.2</ele><time>2026-05-01T07:37:47.133Z</time></trkpt><trkpt lat="44.1286597" lon="11.3696063"><ele>562.4000000000001</ele><time>2026-05-01T07:37:48.135Z</time></trkpt><trkpt lat="44.1285668" lon="11.3696295"><ele>560.6</ele><time>2026-05-01T07:37:49.135Z</time></trkpt><trkpt lat="44.1284718" lon="11.3696565"><ele>558.8000000000001</ele><time>2026-05-01T07:37:50.135Z</time></trkpt><trkpt lat="44.1283772" lon="11.369686"><ele>557.0</ele><time>2026-05-01T07:37:51.135Z</time></trkpt><trkpt lat="44.1282827" lon="11.3697177"><ele>555.8333333333333</ele><time>2026-05-01T07:37:52.137Z</time></trkpt><trkpt lat="44.1281915" lon="11.3697438"><ele>554.6666666666666</ele><time>2026-05-01T07:37:53.137Z</time></trkpt><trkpt lat="44.12811" lon="11.3697505"><ele>553.5</ele><time>2026-05-01T07:37:54.136Z</time></trkpt><trkpt lat="44.1280307" lon="11.3697457"><ele>552.3333333333334</ele><time>2026-05-01T07:37:55.137Z</time></trkpt><trkpt lat="44.1279525" lon="11.3697235"><ele>551.1666666666667</ele><time>2026-05-01T07:37:56.137Z</time></trkpt><trkpt lat="44.1278523" lon="11.3696832"><ele>550.0</ele><time>2026-05-01T07:37:57.136Z</time></trkpt><trkpt lat="44.1277428" lon="11.369632"><ele>550.0</ele><time>2026-05-01T07:37:58.135Z</time></trkpt><trkpt lat="44.1276472" lon="11.3695895"><ele>550.0</ele><time>2026-05-01T07:37:59.136Z</time></trkpt><trkpt lat="44.1275595" lon="11.369567"><ele>550.0</ele><time>2026-05-01T07:38:00.136Z</time></trkpt><trkpt lat="44.1274575" lon="11.3695753"><ele>550.0</ele><time>2026-05-01T07:38:01.135Z</time></trkpt><trkpt lat="44.1273417" lon="11.3695858"><ele>550.0</ele><time>2026-05-01T07:38:02.136Z</time></trkpt><trkpt lat="44.127216" lon="11.3695953"><ele>550.6</ele><time>2026-05-01T07:38:03.135Z</time></trkpt><trkpt lat="44.1271042" lon="11.369589"><ele>551.2</ele><time>2026-05-01T07:38:04.135Z</time></trkpt><trkpt lat="44.1269983" lon="11.3695868"><ele>551.8</ele><time>2026-05-01T07:38:05.136Z</time></trkpt><trkpt lat="44.1268992" lon="11.3696022"><ele>552.4</ele><time>2026-05-01T07:38:06.135Z</time></trkpt><trkpt lat="44.126803" lon="11.36964"><ele>553.0</ele><time>2026-05-01T07:38:07.134Z</time></trkpt><trkpt lat="44.1266957" lon="11.3697017"><ele>552.25</ele><time>2026-05-01T07:38:08.135Z</time></trkpt><trkpt lat="44.1265785" lon="11.3697653"><ele>551.5</ele><time>2026-05-01T07:38:09.133Z</time></trkpt><trkpt lat="44.1264547" lon="11.3698293"><ele>550.75</ele><time>2026-05-01T07:38:10.134Z</time></trkpt><trkpt lat="44.1263397" lon="11.3698893"><ele>550.0</ele><time>2026-05-01T07:38:11.133Z</time></trkpt><trkpt lat="44.1262297" lon="11.3699462"><ele>550.0</ele><time>2026-05-01T07:38:12.134Z</time></trkpt><trkpt lat="44.1261153" lon="11.3700013"><ele>550.0</ele><time>2026-05-01T07:38:13.135Z</time></trkpt><trkpt lat="44.1259985" lon="11.3700557"><ele>550.0</ele><time>2026-05-01T07:38:14.135Z</time></trkpt><trkpt lat="44.1258837" lon="11.3701118"><ele>550.0</ele><time>2026-05-01T07:38:15.134Z</time></trkpt><trkpt lat="44.1257662" lon="11.3701623"><ele>549.5</ele><time>2026-05-01T07:38:16.134Z</time></trkpt><trkpt lat="44.1256467" lon="11.3702045"><ele>549.0</ele><time>2026-05-01T07:38:17.135Z</time></trkpt><trkpt lat="44.1255243" lon="11.370238"><ele>548.5</ele><time>2026-05-01T07:38:18.135Z</time></trkpt><trkpt lat="44.1253945" lon="11.3702595"><ele>548.0</ele><time>2026-05-01T07:38:19.135Z</time></trkpt><trkpt lat="44.125264" lon="11.3702795"><ele>548.0</ele><time>2026-05-01T07:38:20.134Z</time></trkpt><trkpt lat="44.1251353" lon="11.3703062"><ele>548.0</ele><time>2026-05-01T07:38:21.134Z</time></trkpt><trkpt lat="44.1250113" lon="11.370346"><ele>548.0</ele><time>2026-05-01T07:38:22.134Z</time></trkpt><trkpt lat="44.1249063" lon="11.3703903"><ele>548.0</ele><time>2026-05-01T07:38:23.137Z</time></trkpt><trkpt lat="44.1248142" lon="11.3704513"><ele>543.75</ele><time>2026-05-01T07:38:24.134Z</time></trkpt><trkpt lat="44.124716" lon="11.3705365"><ele>539.5</ele><time>2026-05-01T07:38:25.135Z</time></trkpt><trkpt lat="44.1246107" lon="11.3706313"><ele>535.25</ele><time>2026-05-01T07:38:26.135Z</time></trkpt><trkpt lat="44.1244973" lon="11.3707382"><ele>531.0</ele><time>2026-05-01T07:38:27.135Z</time></trkpt><trkpt lat="44.1243907" lon="11.3708403"><ele>531.0</ele><time>2026-05-01T07:38:28.136Z</time></trkpt><trkpt lat="44.1242872" lon="11.3709393"><ele>531.0</ele><time>2026-05-01T07:38:29.139Z</time></trkpt><trkpt lat="44.124187" lon="11.3710392"><ele>531.0</ele><time>2026-05-01T07:38:30.135Z</time></trkpt><trkpt lat="44.1240898" lon="11.371138"><ele>531.0</ele><time>2026-05-01T07:38:31.136Z</time></trkpt><trkpt lat="44.1239952" lon="11.3712362"><ele>528.0</ele><time>2026-05-01T07:38:32.136Z</time></trkpt><trkpt lat="44.123903" lon="11.3713333"><ele>525.0</ele><time>2026-05-01T07:38:33.134Z</time></trkpt><trkpt lat="44.1238192" lon="11.3714282"><ele>522.0</ele><time>2026-05-01T07:38:34.134Z</time></trkpt><trkpt lat="44.12374" lon="11.3715288"><ele>519.0</ele><time>2026-05-01T07:38:35.134Z</time></trkpt><trkpt lat="44.1236663" lon="11.3716355"><ele>516.0</ele><time>2026-05-01T07:38:36.134Z</time></trkpt><trkpt lat="44.1235965" lon="11.371747"><ele>515.4</ele><time>2026-05-01T07:38:37.135Z</time></trkpt><trkpt lat="44.1235352" lon="11.3718688"><ele>514.8</ele><time>2026-05-01T07:38:38.135Z</time></trkpt><trkpt lat="44.1234825" lon="11.3719957"><ele>514.1999999999999</ele><time>2026-05-01T07:38:39.135Z</time></trkpt><trkpt lat="44.1234353" lon="11.3721085"><ele>513.6</ele><time>2026-05-01T07:38:40.134Z</time></trkpt><trkpt lat="44.1233805" lon="11.3722035"><ele>513.0</ele><time>2026-05-01T07:38:41.136Z</time></trkpt><trkpt lat="44.1233358" lon="11.3722888"><ele>511.0</ele><time>2026-05-01T07:38:42.135Z</time></trkpt><trkpt lat="44.1233122" lon="11.3723853"><ele>509.0</ele><time>2026-05-01T07:38:43.134Z</time></trkpt><trkpt lat="44.1232958" lon="11.372499"><ele>507.0</ele><time>2026-05-01T07:38:44.136Z</time></trkpt><trkpt lat="44.1232817" lon="11.3726177"><ele>505.0</ele><time>2026-05-01T07:38:45.135Z</time></trkpt><trkpt lat="44.1232602" lon="11.3727405"><ele>503.0</ele><time>2026-05-01T07:38:46.136Z</time></trkpt><trkpt lat="44.1232285" lon="11.3728685"><ele>501.0</ele><time>2026-05-01T07:38:47.136Z</time></trkpt><trkpt lat="44.1231985" lon="11.373006"><ele>496.25</ele><time>2026-05-01T07:38:48.135Z</time></trkpt><trkpt lat="44.1231668" lon="11.3731457"><ele>491.5</ele><time>2026-05-01T07:38:49.135Z</time></trkpt><trkpt lat="44.123116" lon="11.3732722"><ele>486.75</ele><time>2026-05-01T07:38:50.136Z</time></trkpt><trkpt lat="44.1230333" lon="11.3734043"><ele>482.0</ele><time>2026-05-01T07:38:51.136Z</time></trkpt><trkpt lat="44.1229248" lon="11.3735545"><ele>482.0</ele><time>2026-05-01T07:38:52.135Z</time></trkpt><trkpt lat="44.1228178" lon="11.373704"><ele>482.0</ele><time>2026-05-01T07:38:53.136Z</time></trkpt><trkpt lat="44.122717" lon="11.3738403"><ele>482.0</ele><time>2026-05-01T07:38:54.136Z</time></trkpt><trkpt lat="44.1226192" lon="11.3739655"><ele>482.0</ele><time>2026-05-01T07:38:55.136Z</time></trkpt><trkpt lat="44.1225227" lon="11.3740937"><ele>481.25</ele><time>2026-05-01T07:38:56.136Z</time></trkpt><trkpt lat="44.1224355" lon="11.3742237"><ele>480.5</ele><time>2026-05-01T07:38:57.137Z</time></trkpt><trkpt lat="44.1223587" lon="11.3743567"><ele>479.75</ele><time>2026-05-01T07:38:58.133Z</time></trkpt><trkpt lat="44.1222885" lon="11.3744955"><ele>479.0</ele><time>2026-05-01T07:38:59.135Z</time></trkpt><trkpt lat="44.1222253" lon="11.3746435"><ele>475.0</ele><time>2026-05-01T07:39:00.134Z</time></trkpt><trkpt lat="44.122168" lon="11.3747953"><ele>471.0</ele><time>2026-05-01T07:39:01.135Z</time></trkpt><trkpt lat="44.1221157" lon="11.374951"><ele>467.0</ele><time>2026-05-01T07:39:02.136Z</time></trkpt><trkpt lat="44.1220637" lon="11.3751065"><ele>463.0</ele><time>2026-05-01T07:39:03.135Z</time></trkpt><trkpt lat="44.1220062" lon="11.3752587"><ele>463.0</ele><time>2026-05-01T07:39:04.135Z</time></trkpt><trkpt lat="44.121939" lon="11.375404"><ele>463.0</ele><time>2026-05-01T07:39:05.136Z</time></trkpt><trkpt lat="44.1218633" lon="11.3755347"><ele>463.0</ele><time>2026-05-01T07:39:06.136Z</time></trkpt><trkpt lat="44.1217783" lon="11.3756535"><ele>463.0</ele><time>2026-05-01T07:39:07.135Z</time></trkpt><trkpt lat="44.1216885" lon="11.3757658"><ele>462.25</ele><time>2026-05-01T07:39:08.135Z</time></trkpt><trkpt lat="44.1215945" lon="11.3758763"><ele>461.5</ele><time>2026-05-01T07:39:09.134Z</time></trkpt><trkpt lat="44.1215002" lon="11.3759882"><ele>460.75</ele><time>2026-05-01T07:39:10.135Z</time></trkpt><trkpt lat="44.1214048" lon="11.3761007"><ele>460.0</ele><time>2026-05-01T07:39:11.135Z</time></trkpt><trkpt lat="44.1213092" lon="11.376212"><ele>456.8</ele><time>2026-05-01T07:39:12.134Z</time></trkpt><trkpt lat="44.1212155" lon="11.3763195"><ele>453.6</ele><time>2026-05-01T07:39:13.135Z</time></trkpt><trkpt lat="44.121135" lon="11.37641"><ele>450.4</ele><time>2026-05-01T07:39:14.134Z</time></trkpt><trkpt lat="44.1210717" lon="11.3764943"><ele>447.2</ele><time>2026-05-01T07:39:15.134Z</time></trkpt><trkpt lat="44.1210277" lon="11.3765945"><ele>444.0</ele><time>2026-05-01T07:39:16.134Z</time></trkpt><trkpt lat="44.1209958" lon="11.3767008"><ele>443.6666666666667</ele><time>2026-05-01T07:39:17.135Z</time></trkpt><trkpt lat="44.1209587" lon="11.3768048"><ele>443.33333333333337</ele><time>2026-05-01T07:39:18.134Z</time></trkpt><trkpt lat="44.1209117" lon="11.3769052"><ele>443.0</ele><time>2026-05-01T07:39:19.135Z</time></trkpt><trkpt lat="44.120857" lon="11.377005"><ele>442.6666666666667</ele><time>2026-05-01T07:39:20.136Z</time></trkpt><trkpt lat="44.1207967" lon="11.3771022"><ele>442.33333333333337</ele><time>2026-05-01T07:39:21.133Z</time></trkpt><trkpt lat="44.1207315" lon="11.3772"><ele>442.0</ele><time>2026-05-01T07:39:22.132Z</time></trkpt><trkpt lat="44.120665" lon="11.3773023"><ele>439.6</ele><time>2026-05-01T07:39:23.133Z</time></trkpt><trkpt lat="44.120595" lon="11.3773975"><ele>437.20000000000005</ele><time>2026-05-01T07:39:24.132Z</time></trkpt><trkpt lat="44.1205253" lon="11.3774885"><ele>434.8</ele><time>2026-05-01T07:39:25.132Z</time></trkpt><trkpt lat="44.120459" lon="11.3775773"><ele>432.4</ele><time>2026-05-01T07:39:26.135Z</time></trkpt><trkpt lat="44.1203945" lon="11.377662"><ele>430.0</ele><time>2026-05-01T07:39:27.135Z</time></trkpt><trkpt lat="44.1203292" lon="11.3777403"><ele>430.00000000000006</ele><time>2026-05-01T07:39:28.134Z</time></trkpt><trkpt lat="44.1202658" lon="11.377822"><ele>430.0</ele><time>2026-05-01T07:39:29.135Z</time></trkpt><trkpt lat="44.1202047" lon="11.3779075"><ele>430.0</ele><time>2026-05-01T07:39:30.134Z</time></trkpt><trkpt lat="44.1201422" lon="11.3779908"><ele>430.0</ele><time>2026-05-01T07:39:31.133Z</time></trkpt><trkpt lat="44.1200843" lon="11.3780635"><ele>430.00000000000006</ele><time>2026-05-01T07:39:32.135Z</time></trkpt><trkpt lat="44.1200355" lon="11.3781222"><ele>430.0</ele><time>2026-05-01T07:39:33.135Z</time></trkpt><trkpt lat="44.1199532" lon="11.3781438"><ele>430.00000000000006</ele><time>2026-05-01T07:39:35.137Z</time></trkpt><trkpt lat="44.1199085" lon="11.3780157"><ele>430.0</ele><time>2026-05-01T07:39:37.136Z</time></trkpt><trkpt lat="44.1199028" lon="11.3779105"><ele>430.0</ele><time>2026-05-01T07:39:38.135Z</time></trkpt><trkpt lat="44.1199058" lon="11.3777913"><ele>430.0</ele><time>2026-05-01T07:39:39.134Z</time></trkpt><trkpt lat="44.1199133" lon="11.3776662"><ele>430.00000000000006</ele><time>2026-05-01T07:39:40.135Z</time></trkpt><trkpt lat="44.1199178" lon="11.3775467"><ele>430.0</ele><time>2026-05-01T07:39:41.134Z</time></trkpt><trkpt lat="44.1199212" lon="11.3774365"><ele>430.0</ele><time>2026-05-01T07:39:42.135Z</time></trkpt><trkpt lat="44.1199242" lon="11.3773238"><ele>430.0</ele><time>2026-05-01T07:39:43.134Z</time></trkpt><trkpt lat="44.119929" lon="11.3772195"><ele>430.0</ele><time>2026-05-01T07:39:44.134Z</time></trkpt><trkpt lat="44.1199287" lon="11.377123"><ele>430.0</ele><time>2026-05-01T07:39:45.133Z</time></trkpt><trkpt lat="44.1198662" lon="11.3770062"><ele>430.0</ele><time>2026-05-01T07:39:47.132Z</time></trkpt><trkpt lat="44.1197417" lon="11.377024"><ele>429.50000000000006</ele><time>2026-05-01T07:39:49.133Z</time></trkpt><trkpt lat="44.1196597" lon="11.3770637"><ele>429.0</ele><time>2026-05-01T07:39:50.133Z</time></trkpt><trkpt lat="44.1195707" lon="11.3771045"><ele>428.5</ele><time>2026-05-01T07:39:51.134Z</time></trkpt><trkpt lat="44.1194858" lon="11.37714"><ele>428.0</ele><time>2026-05-01T07:39:52.134Z</time></trkpt><trkpt lat="44.1194087" lon="11.377173"><ele>427.50000000000006</ele><time>2026-05-01T07:39:53.134Z</time></trkpt><trkpt lat="44.1193262" lon="11.3772045"><ele>427.0</ele><time>2026-05-01T07:39:54.133Z</time></trkpt><trkpt lat="44.1192365" lon="11.377241"><ele>427.0</ele><time>2026-05-01T07:39:55.134Z</time></trkpt><trkpt lat="44.119145" lon="11.3772792"><ele>427.00000000000006</ele><time>2026-05-01T07:39:56.135Z</time></trkpt><trkpt lat="44.1190548" lon="11.377318"><ele>427.00000000000006</ele><time>2026-05-01T07:39:57.134Z</time></trkpt><trkpt lat="44.1189632" lon="11.377356"><ele>427.0</ele><time>2026-05-01T07:39:58.134Z</time></trkpt><trkpt lat="44.1188717" lon="11.3773882"><ele>427.0</ele><time>2026-05-01T07:39:59.134Z</time></trkpt><trkpt lat="44.1187792" lon="11.3774255"><ele>426.20000000000005</ele><time>2026-05-01T07:40:00.135Z</time></trkpt><trkpt lat="44.1186847" lon="11.377464"><ele>425.40000000000003</ele><time>2026-05-01T07:40:01.134Z</time></trkpt><trkpt lat="44.1185847" lon="11.3774962"><ele>424.6</ele><time>2026-05-01T07:40:02.134Z</time></trkpt><trkpt lat="44.1184887" lon="11.3775318"><ele>423.79999999999995</ele><time>2026-05-01T07:40:03.133Z</time></trkpt><trkpt lat="44.1183933" lon="11.37757"><ele>423.0</ele><time>2026-05-01T07:40:04.132Z</time></trkpt><trkpt lat="44.118295" lon="11.377613"><ele>422.59999999999997</ele><time>2026-05-01T07:40:05.133Z</time></trkpt><trkpt lat="44.1181958" lon="11.3776533"><ele>422.2</ele><time>2026-05-01T07:40:06.134Z</time></trkpt><trkpt lat="44.1180983" lon="11.3776908"><ele>421.8</ele><time>2026-05-01T07:40:07.132Z</time></trkpt><trkpt lat="44.1180022" lon="11.3777282"><ele>421.4</ele><time>2026-05-01T07:40:08.134Z</time></trkpt><trkpt lat="44.1179097" lon="11.3777635"><ele>421.0</ele><time>2026-05-01T07:40:09.134Z</time></trkpt><trkpt lat="44.1178217" lon="11.3778018"><ele>421.00000000000006</ele><time>2026-05-01T07:40:10.133Z</time></trkpt><trkpt lat="44.1177402" lon="11.3778357"><ele>421.0</ele><time>2026-05-01T07:40:11.132Z</time></trkpt><trkpt lat="44.1176645" lon="11.3778662"><ele>421.0</ele><time>2026-05-01T07:40:12.132Z</time></trkpt><trkpt lat="44.1175923" lon="11.3778893"><ele>421.0</ele><time>2026-05-01T07:40:13.131Z</time></trkpt><trkpt lat="44.117518" lon="11.3779157"><ele>421.00000000000006</ele><time>2026-05-01T07:40:14.131Z</time></trkpt><trkpt lat="44.1174472" lon="11.3779473"><ele>421.0</ele><time>2026-05-01T07:40:15.134Z</time></trkpt><trkpt lat="44.1173778" lon="11.3779847"><ele>421.00000000000006</ele><time>2026-05-01T07:40:16.134Z</time></trkpt><trkpt lat="44.117318" lon="11.3780512"><ele>421.0</ele><time>2026-05-01T07:40:17.136Z</time></trkpt><trkpt lat="44.1172765" lon="11.3781465"><ele>421.0</ele><time>2026-05-01T07:40:18.134Z</time></trkpt><trkpt lat="44.117259" lon="11.3782643"><ele>421.0</ele><time>2026-05-01T07:40:19.134Z</time></trkpt><trkpt lat="44.1172617" lon="11.3783908"><ele>421.00000000000006</ele><time>2026-05-01T07:40:20.134Z</time></trkpt><trkpt lat="44.1172745" lon="11.3785138"><ele>421.0</ele><time>2026-05-01T07:40:21.134Z</time></trkpt><trkpt lat="44.1172892" lon="11.3786385"><ele>421.00000000000006</ele><time>2026-05-01T07:40:22.134Z</time></trkpt><trkpt lat="44.1173055" lon="11.3787588"><ele>421.0</ele><time>2026-05-01T07:40:23.134Z</time></trkpt><trkpt lat="44.1173213" lon="11.378874"><ele>421.0</ele><time>2026-05-01T07:40:24.135Z</time></trkpt><trkpt lat="44.117337" lon="11.3789822"><ele>421.0</ele><time>2026-05-01T07:40:25.136Z</time></trkpt><trkpt lat="44.1173527" lon="11.3790845"><ele>421.00000000000006</ele><time>2026-05-01T07:40:26.135Z</time></trkpt><trkpt lat="44.1173675" lon="11.3791848"><ele>421.0</ele><time>2026-05-01T07:40:27.134Z</time></trkpt><trkpt lat="44.1173817" lon="11.3792803"><ele>420.50000000000006</ele><time>2026-05-01T07:40:28.135Z</time></trkpt><trkpt lat="44.1173915" lon="11.379376"><ele>420.0</ele><time>2026-05-01T07:40:29.135Z</time></trkpt><trkpt lat="44.1173817" lon="11.379473"><ele>419.5</ele><time>2026-05-01T07:40:30.135Z</time></trkpt><trkpt lat="44.1173473" lon="11.3795712"><ele>419.0</ele><time>2026-05-01T07:40:31.135Z</time></trkpt><trkpt lat="44.1172877" lon="11.3796557"><ele>418.50000000000006</ele><time>2026-05-01T07:40:32.136Z</time></trkpt><trkpt lat="44.1172067" lon="11.3797118"><ele>418.0</ele><time>2026-05-01T07:40:33.134Z</time></trkpt><trkpt lat="44.1171138" lon="11.3797447"><ele>418.0</ele><time>2026-05-01T07:40:34.133Z</time></trkpt><trkpt lat="44.1170157" lon="11.3797765"><ele>418.0</ele><time>2026-05-01T07:40:35.133Z</time></trkpt><trkpt lat="44.1169143" lon="11.3798092"><ele>418.0</ele><time>2026-05-01T07:40:36.131Z</time></trkpt><trkpt lat="44.1168075" lon="11.3798472"><ele>418.0</ele><time>2026-05-01T07:40:37.131Z</time></trkpt><trkpt lat="44.1167017" lon="11.3798825"><ele>418.0</ele><time>2026-05-01T07:40:38.133Z</time></trkpt><trkpt lat="44.1165952" lon="11.379922"><ele>418.25</ele><time>2026-05-01T07:40:39.132Z</time></trkpt><trkpt lat="44.1164867" lon="11.3799615"><ele>418.5</ele><time>2026-05-01T07:40:40.133Z</time></trkpt><trkpt lat="44.1163763" lon="11.3800033"><ele>418.75</ele><time>2026-05-01T07:40:41.134Z</time></trkpt><trkpt lat="44.1162628" lon="11.3800463"><ele>419.0</ele><time>2026-05-01T07:40:42.133Z</time></trkpt><trkpt lat="44.1161468" lon="11.3800893"><ele>419.0</ele><time>2026-05-01T07:40:43.133Z</time></trkpt><trkpt lat="44.1160298" lon="11.3801282"><ele>419.0</ele><time>2026-05-01T07:40:44.134Z</time></trkpt><trkpt lat="44.1159113" lon="11.3801628"><ele>419.0</ele><time>2026-05-01T07:40:45.135Z</time></trkpt><trkpt lat="44.115791" lon="11.380183"><ele>419.0</ele><time>2026-05-01T07:40:46.134Z</time></trkpt><trkpt lat="44.1156728" lon="11.3801793"><ele>420.5</ele><time>2026-05-01T07:40:47.135Z</time></trkpt><trkpt lat="44.1155578" lon="11.3801592"><ele>422.0</ele><time>2026-05-01T07:40:48.135Z</time></trkpt><trkpt lat="44.1154425" lon="11.3801407"><ele>423.5</ele><time>2026-05-01T07:40:49.135Z</time></trkpt><trkpt lat="44.115325" lon="11.3801408"><ele>425.0</ele><time>2026-05-01T07:40:50.135Z</time></trkpt><trkpt lat="44.1152092" lon="11.3801762"><ele>425.0</ele><time>2026-05-01T07:40:51.136Z</time></trkpt><trkpt lat="44.1150967" lon="11.3802398"><ele>425.0</ele><time>2026-05-01T07:40:52.134Z</time></trkpt><trkpt lat="44.114987" lon="11.3803212"><ele>425.0</ele><time>2026-05-01T07:40:53.136Z</time></trkpt><trkpt lat="44.1148807" lon="11.3804122"><ele>425.0</ele><time>2026-05-01T07:40:54.135Z</time></trkpt><trkpt lat="44.1147855" lon="11.3805018"><ele>425.4</ele><time>2026-05-01T07:40:55.134Z</time></trkpt><trkpt lat="44.1147012" lon="11.3805853"><ele>425.8</ele><time>2026-05-01T07:40:56.134Z</time></trkpt><trkpt lat="44.1146235" lon="11.380657"><ele>426.20000000000005</ele><time>2026-05-01T07:40:57.134Z</time></trkpt><trkpt lat="44.1145463" lon="11.380723"><ele>426.6</ele><time>2026-05-01T07:40:58.135Z</time></trkpt><trkpt lat="44.114463" lon="11.3807805"><ele>427.0</ele><time>2026-05-01T07:40:59.135Z</time></trkpt><trkpt lat="44.1143862" lon="11.3808217"><ele>427.0</ele><time>2026-05-01T07:41:00.134Z</time></trkpt><trkpt lat="44.1143177" lon="11.3808498"><ele>427.00000000000006</ele><time>2026-05-01T07:41:01.132Z</time></trkpt><trkpt lat="44.1142067" lon="11.3808693"><ele>427.00000000000006</ele><time>2026-05-01T07:41:03.132Z</time></trkpt><trkpt lat="44.1141617" lon="11.3807988"><ele>427.0</ele><time>2026-05-01T07:41:05.134Z</time></trkpt><trkpt lat="44.114145" lon="11.3806608"><ele>427.0</ele><time>2026-05-01T07:41:07.134Z</time></trkpt><trkpt lat="44.1141065" lon="11.3804923"><ele>428.0</ele><time>2026-05-01T07:41:09.134Z</time></trkpt><trkpt lat="44.1140958" lon="11.3804017"><ele>429.0</ele><time>2026-05-01T07:41:10.134Z</time></trkpt><trkpt lat="44.1140882" lon="11.3803122"><ele>430.0</ele><time>2026-05-01T07:41:11.134Z</time></trkpt><trkpt lat="44.1140762" lon="11.3802208"><ele>431.0</ele><time>2026-05-01T07:41:12.132Z</time></trkpt><trkpt lat="44.1140653" lon="11.380123"><ele>432.0</ele><time>2026-05-01T07:41:13.133Z</time></trkpt><trkpt lat="44.1140543" lon="11.3800268"><ele>433.0</ele><time>2026-05-01T07:41:14.134Z</time></trkpt><trkpt lat="44.114042" lon="11.379937"><ele>434.0</ele><time>2026-05-01T07:41:15.134Z</time></trkpt><trkpt lat="44.1140153" lon="11.379785"><ele>436.6</ele><time>2026-05-01T07:41:17.134Z</time></trkpt><trkpt lat="44.1139777" lon="11.3796393"><ele>439.2</ele><time>2026-05-01T07:41:19.134Z</time></trkpt><trkpt lat="44.1139377" lon="11.3794862"><ele>441.80000000000007</ele><time>2026-05-01T07:41:21.134Z</time></trkpt><trkpt lat="44.1138852" lon="11.3793457"><ele>444.40000000000003</ele><time>2026-05-01T07:41:23.135Z</time></trkpt><trkpt lat="44.1138288" lon="11.3792207"><ele>447.0</ele><time>2026-05-01T07:41:25.133Z</time></trkpt><trkpt lat="44.1137712" lon="11.3790748"><ele>447.0</ele><time>2026-05-01T07:41:27.134Z</time></trkpt><trkpt lat="44.1137388" lon="11.3789937"><ele>447.00000000000006</ele><time>2026-05-01T07:41:28.134Z</time></trkpt><trkpt lat="44.1137065" lon="11.3789122"><ele>447.00000000000006</ele><time>2026-05-01T07:41:29.137Z</time></trkpt><trkpt lat="44.1136615" lon="11.3787605"><ele>447.0</ele><time>2026-05-01T07:41:31.137Z</time></trkpt><trkpt lat="44.1136052" lon="11.3786283"><ele>447.0</ele><time>2026-05-01T07:41:33.135Z</time></trkpt><trkpt lat="44.113548" lon="11.3785037"><ele>449.6</ele><time>2026-05-01T07:41:35.136Z</time></trkpt><trkpt lat="44.1134718" lon="11.378382"><ele>452.20000000000005</ele><time>2026-05-01T07:41:37.135Z</time></trkpt><trkpt lat="44.1134012" lon="11.378261"><ele>454.8</ele><time>2026-05-01T07:41:39.136Z</time></trkpt><trkpt lat="44.113361" lon="11.3781932"><ele>457.4</ele><time>2026-05-01T07:41:40.137Z</time></trkpt><trkpt lat="44.113282" lon="11.3780635"><ele>460.0</ele><time>2026-05-01T07:41:42.135Z</time></trkpt><trkpt lat="44.1132147" lon="11.3779455"><ele>460.50000000000006</ele><time>2026-05-01T07:41:44.136Z</time></trkpt><trkpt lat="44.1131767" lon="11.3778668"><ele>461.0</ele><time>2026-05-01T07:41:45.135Z</time></trkpt><trkpt lat="44.1131413" lon="11.377784"><ele>461.5</ele><time>2026-05-01T07:41:46.134Z</time></trkpt><trkpt lat="44.1131057" lon="11.3776873"><ele>462.0</ele><time>2026-05-01T07:41:47.137Z</time></trkpt><trkpt lat="44.1130847" lon="11.3775953"><ele>462.50000000000006</ele><time>2026-05-01T07:41:48.135Z</time></trkpt><trkpt lat="44.113031" lon="11.3774428"><ele>463.0</ele><time>2026-05-01T07:41:50.133Z</time></trkpt><trkpt lat="44.1129798" lon="11.3773762"><ele>463.00000000000006</ele><time>2026-05-01T07:41:51.133Z</time></trkpt><trkpt lat="44.1129263" lon="11.377294"><ele>463.0</ele><time>2026-05-01T07:41:52.133Z</time></trkpt><trkpt lat="44.1128703" lon="11.3771957"><ele>463.0</ele><time>2026-05-01T07:41:53.136Z</time></trkpt><trkpt lat="44.1128028" lon="11.3770928"><ele>463.0</ele><time>2026-05-01T07:41:54.134Z</time></trkpt><trkpt lat="44.1127423" lon="11.3770052"><ele>463.00000000000006</ele><time>2026-05-01T07:41:55.134Z</time></trkpt><trkpt lat="44.1126878" lon="11.3769272"><ele>463.0</ele><time>2026-05-01T07:41:56.135Z</time></trkpt><trkpt lat="44.1126477" lon="11.3768508"><ele>464.33333333333337</ele><time>2026-05-01T07:41:57.135Z</time></trkpt><trkpt lat="44.1125977" lon="11.3767513"><ele>465.6666666666667</ele><time>2026-05-01T07:41:58.135Z</time></trkpt><trkpt lat="44.1125385" lon="11.376657"><ele>467.0</ele><time>2026-05-01T07:41:59.134Z</time></trkpt><trkpt lat="44.1124765" lon="11.3765882"><ele>468.33333333333337</ele><time>2026-05-01T07:42:00.135Z</time></trkpt><trkpt lat="44.1124058" lon="11.3765185"><ele>469.6666666666667</ele><time>2026-05-01T07:42:01.135Z</time></trkpt><trkpt lat="44.1123348" lon="11.3764415"><ele>471.0</ele><time>2026-05-01T07:42:02.135Z</time></trkpt><trkpt lat="44.1122677" lon="11.3763715"><ele>472.57142857142867</ele><time>2026-05-01T07:42:03.135Z</time></trkpt><trkpt lat="44.1122017" lon="11.3763097"><ele>474.14285714285717</ele><time>2026-05-01T07:42:04.134Z</time></trkpt><trkpt lat="44.1121378" lon="11.3762418"><ele>475.7142857142858</ele><time>2026-05-01T07:42:05.136Z</time></trkpt><trkpt lat="44.1120827" lon="11.3761745"><ele>477.28571428571433</ele><time>2026-05-01T07:42:06.135Z</time></trkpt><trkpt lat="44.1120287" lon="11.3761285"><ele>478.8571428571429</ele><time>2026-05-01T07:42:07.135Z</time></trkpt><trkpt lat="44.1119685" lon="11.3760938"><ele>480.42857142857144</ele><time>2026-05-01T07:42:08.135Z</time></trkpt><trkpt lat="44.1118992" lon="11.3760632"><ele>482.0</ele><time>2026-05-01T07:42:09.135Z</time></trkpt><trkpt lat="44.1118265" lon="11.3760273"><ele>481.99999999999994</ele><time>2026-05-01T07:42:10.135Z</time></trkpt><trkpt lat="44.1117553" lon="11.3759942"><ele>482.0</ele><time>2026-05-01T07:42:11.136Z</time></trkpt><trkpt lat="44.1116915" lon="11.3759503"><ele>482.0</ele><time>2026-05-01T07:42:12.136Z</time></trkpt><trkpt lat="44.111632" lon="11.3758923"><ele>482.0</ele><time>2026-05-01T07:42:13.135Z</time></trkpt><trkpt lat="44.1115697" lon="11.3758357"><ele>481.99999999999994</ele><time>2026-05-01T07:42:14.134Z</time></trkpt><trkpt lat="44.111516" lon="11.3757808"><ele>482.0</ele><time>2026-05-01T07:42:15.133Z</time></trkpt><trkpt lat="44.111428" lon="11.3756605"><ele>481.5714285714286</ele><time>2026-05-01T07:42:17.134Z</time></trkpt><trkpt lat="44.1113938" lon="11.3755782"><ele>481.1428571428572</ele><time>2026-05-01T07:42:18.134Z</time></trkpt><trkpt lat="44.111357" lon="11.375489"><ele>480.7142857142857</ele><time>2026-05-01T07:42:19.136Z</time></trkpt><trkpt lat="44.1113205" lon="11.3753863"><ele>480.28571428571433</ele><time>2026-05-01T07:42:20.135Z</time></trkpt><trkpt lat="44.1112967" lon="11.3752915"><ele>479.8571428571429</ele><time>2026-05-01T07:42:21.137Z</time></trkpt><trkpt lat="44.1112658" lon="11.3752005"><ele>479.42857142857144</ele><time>2026-05-01T07:42:22.136Z</time></trkpt><trkpt lat="44.1112253" lon="11.3751135"><ele>479.0</ele><time>2026-05-01T07:42:23.135Z</time></trkpt><trkpt lat="44.111187" lon="11.3750202"><ele>480.3333333333333</ele><time>2026-05-01T07:42:24.134Z</time></trkpt><trkpt lat="44.11115" lon="11.3749112"><ele>481.66666666666663</ele><time>2026-05-01T07:42:25.134Z</time></trkpt><trkpt lat="44.1111117" lon="11.374795"><ele>483.0</ele><time>2026-05-01T07:42:26.135Z</time></trkpt><trkpt lat="44.1110795" lon="11.3746953"><ele>484.33333333333337</ele><time>2026-05-01T07:42:27.134Z</time></trkpt><trkpt lat="44.1110533" lon="11.3746118"><ele>485.6666666666667</ele><time>2026-05-01T07:42:28.134Z</time></trkpt><trkpt lat="44.1109933" lon="11.3744838"><ele>487.0</ele><time>2026-05-01T07:42:30.135Z</time></trkpt><trkpt lat="44.1108737" lon="11.3743988"><ele>488.1666666666667</ele><time>2026-05-01T07:42:32.135Z</time></trkpt><trkpt lat="44.1108055" lon="11.3743388"><ele>489.33333333333337</ele><time>2026-05-01T07:42:33.135Z</time></trkpt><trkpt lat="44.1107402" lon="11.3742733"><ele>490.5</ele><time>2026-05-01T07:42:34.136Z</time></trkpt><trkpt lat="44.110685" lon="11.3742003"><ele>491.66666666666663</ele><time>2026-05-01T07:42:35.135Z</time></trkpt><trkpt lat="44.110643" lon="11.3741307"><ele>492.8333333333333</ele><time>2026-05-01T07:42:36.134Z</time></trkpt><trkpt lat="44.1106007" lon="11.3740548"><ele>494.0</ele><time>2026-05-01T07:42:37.135Z</time></trkpt><trkpt lat="44.1105188" lon="11.3739437"><ele>494.4</ele><time>2026-05-01T07:42:39.133Z</time></trkpt><trkpt lat="44.1104143" lon="11.3738968"><ele>494.79999999999995</ele><time>2026-05-01T07:42:41.133Z</time></trkpt><trkpt lat="44.1103465" lon="11.3738617"><ele>495.20000000000005</ele><time>2026-05-01T07:42:43.134Z</time></trkpt><trkpt lat="44.1102712" lon="11.3737973"><ele>495.6</ele><time>2026-05-01T07:42:45.135Z</time></trkpt><trkpt lat="44.1102182" lon="11.3737498"><ele>496.0</ele><time>2026-05-01T07:42:46.134Z</time></trkpt><trkpt lat="44.1101183" lon="11.3736593"><ele>498.8</ele><time>2026-05-01T07:42:48.134Z</time></trkpt><trkpt lat="44.1100148" lon="11.3735687"><ele>501.6</ele><time>2026-05-01T07:42:50.134Z</time></trkpt><trkpt lat="44.109911" lon="11.3734642"><ele>504.4</ele><time>2026-05-01T07:42:52.132Z</time></trkpt><trkpt lat="44.1098605" lon="11.373406"><ele>507.2</ele><time>2026-05-01T07:42:53.135Z</time></trkpt><trkpt lat="44.1098082" lon="11.3733457"><ele>510.0</ele><time>2026-05-01T07:42:54.133Z</time></trkpt><trkpt lat="44.1097432" lon="11.3732575"><ele>511.1666666666667</ele><time>2026-05-01T07:42:56.133Z</time></trkpt><trkpt lat="44.1096413" lon="11.3732397"><ele>512.3333333333334</ele><time>2026-05-01T07:44:09.134Z</time></trkpt><trkpt lat="44.109701" lon="11.373299"><ele>513.5</ele><time>2026-05-01T07:44:42.132Z</time></trkpt><trkpt lat="44.1097733" lon="11.3733778"><ele>514.6666666666667</ele><time>2026-05-01T07:44:45.134Z</time></trkpt><trkpt lat="44.1098265" lon="11.3734433"><ele>515.8333333333334</ele><time>2026-05-01T07:44:48.133Z</time></trkpt><trkpt lat="44.1098533" lon="11.373341"><ele>517.0</ele><time>2026-05-01T07:45:06.13Z</time></trkpt><trkpt lat="44.10981" lon="11.37325"><ele>517.0</ele><time>2026-05-01T07:45:09.133Z</time></trkpt><trkpt lat="44.1097615" lon="11.3731862"><ele>517.0</ele><time>2026-05-01T07:45:11.134Z</time></trkpt><trkpt lat="44.1097063" lon="11.3731342"><ele>517.0</ele><time>2026-05-01T07:45:20.134Z</time></trkpt><trkpt lat="44.1097705" lon="11.3731948"><ele>517.0</ele><time>2026-05-01T07:45:30.133Z</time></trkpt><trkpt lat="44.1098303" lon="11.3732805"><ele>517.0</ele><time>2026-05-01T07:45:51.135Z</time></trkpt><trkpt lat="44.1099055" lon="11.3733098"><ele>517.0</ele><time>2026-05-01T07:45:54.133Z</time></trkpt><trkpt lat="44.1099718" lon="11.3733617"><ele>515.8333333333334</ele><time>2026-05-01T07:45:57.133Z</time></trkpt><trkpt lat="44.1100405" lon="11.373425"><ele>514.6666666666667</ele><time>2026-05-01T07:46:00.135Z</time></trkpt><trkpt lat="44.1101158" lon="11.3734773"><ele>513.5</ele><time>2026-05-01T07:46:04.136Z</time></trkpt><trkpt lat="44.110181" lon="11.3735037"><ele>512.3333333333334</ele><time>2026-05-01T07:46:07.138Z</time></trkpt><trkpt lat="44.1102377" lon="11.3734402"><ele>511.1666666666667</ele><time>2026-05-01T07:46:10.136Z</time></trkpt><trkpt lat="44.1103003" lon="11.3733813"><ele>510.0</ele><time>2026-05-01T07:46:14.137Z</time></trkpt><trkpt lat="44.1103775" lon="11.3733823"><ele>510.0</ele><time>2026-05-01T07:46:18.135Z</time></trkpt><trkpt lat="44.1104588" lon="11.3733875"><ele>510.0</ele><time>2026-05-01T07:46:21.134Z</time></trkpt><trkpt lat="44.1105233" lon="11.3733807"><ele>510.0</ele><time>2026-05-01T07:46:23.136Z</time></trkpt><trkpt lat="44.110611" lon="11.3734137"><ele>510.0</ele><time>2026-05-01T07:46:26.138Z</time></trkpt><trkpt lat="44.110692" lon="11.3733933"><ele>510.0</ele><time>2026-05-01T07:46:29.137Z</time></trkpt><trkpt lat="44.1107632" lon="11.3733355"><ele>510.0</ele><time>2026-05-01T07:46:32.138Z</time></trkpt><trkpt lat="44.1108182" lon="11.373287"><ele>507.5714285714286</ele><time>2026-05-01T07:46:35.136Z</time></trkpt><trkpt lat="44.1108618" lon="11.3731925"><ele>505.1428571428572</ele><time>2026-05-01T07:46:39.137Z</time></trkpt><trkpt lat="44.1108913" lon="11.3731107"><ele>502.7142857142857</ele><time>2026-05-01T07:46:42.136Z</time></trkpt><trkpt lat="44.1109405" lon="11.3730475"><ele>500.28571428571433</ele><time>2026-05-01T07:46:49.137Z</time></trkpt><trkpt lat="44.110995" lon="11.3731043"><ele>497.8571428571429</ele><time>2026-05-01T07:46:54.136Z</time></trkpt><trkpt lat="44.1110712" lon="11.3730638"><ele>495.42857142857144</ele><time>2026-05-01T07:47:07.134Z</time></trkpt><trkpt lat="44.1111408" lon="11.3730542"><ele>493.0</ele><time>2026-05-01T07:47:11.133Z</time></trkpt><trkpt lat="44.1111907" lon="11.3731437"><ele>493.00000000000006</ele><time>2026-05-01T07:47:15.134Z</time></trkpt><trkpt lat="44.1111688" lon="11.373251"><ele>493.0</ele><time>2026-05-01T07:47:18.136Z</time></trkpt><trkpt lat="44.1110938" lon="11.3732697"><ele>493.0</ele><time>2026-05-01T07:47:21.134Z</time></trkpt><trkpt lat="44.1110098" lon="11.3732293"><ele>493.0</ele><time>2026-05-01T07:47:24.135Z</time></trkpt><trkpt lat="44.1109488" lon="11.3732687"><ele>493.00000000000006</ele><time>2026-05-01T07:47:26.135Z</time></trkpt><trkpt lat="44.1109068" lon="11.3733673"><ele>493.0</ele><time>2026-05-01T07:47:28.135Z</time></trkpt><trkpt lat="44.1108707" lon="11.3734477"><ele>493.0</ele><time>2026-05-01T07:47:30.137Z</time></trkpt><trkpt lat="44.1107773" lon="11.3734707"><ele>493.0</ele><time>2026-05-01T07:47:33.135Z</time></trkpt><trkpt lat="44.1107058" lon="11.37345"><ele>493.0</ele><time>2026-05-01T07:47:35.135Z</time></trkpt><trkpt lat="44.110644" lon="11.3734135"><ele>493.0</ele><time>2026-05-01T07:47:37.136Z</time></trkpt><trkpt lat="44.1105823" lon="11.3733832"><ele>493.0</ele><time>2026-05-01T07:47:39.136Z</time></trkpt><trkpt lat="44.110514" lon="11.373375"><ele>493.0</ele><time>2026-05-01T07:47:41.136Z</time></trkpt><trkpt lat="44.110451" lon="11.373389"><ele>493.0</ele><time>2026-05-01T07:47:43.135Z</time></trkpt><trkpt lat="44.1103542" lon="11.3733793"><ele>495.42857142857144</ele><time>2026-05-01T07:47:46.134Z</time></trkpt><trkpt lat="44.1102965" lon="11.3734175"><ele>497.8571428571429</ele><time>2026-05-01T07:47:48.134Z</time></trkpt><trkpt lat="44.1102505" lon="11.3734785"><ele>500.28571428571433</ele><time>2026-05-01T07:47:50.135Z</time></trkpt><trkpt lat="44.1101992" lon="11.373534"><ele>502.7142857142857</ele><time>2026-05-01T07:47:57.134Z</time></trkpt><trkpt lat="44.1101372" lon="11.3734877"><ele>505.1428571428572</ele><time>2026-05-01T07:48:00.135Z</time></trkpt><trkpt lat="44.1100697" lon="11.3734353"><ele>507.5714285714286</ele><time>2026-05-01T07:48:04.137Z</time></trkpt><trkpt lat="44.1100085" lon="11.3733832"><ele>510.0</ele><time>2026-05-01T07:48:07.135Z</time></trkpt><trkpt lat="44.1099487" lon="11.3733292"><ele>511.0</ele><time>2026-05-01T07:48:11.135Z</time></trkpt><trkpt lat="44.10989" lon="11.3733693"><ele>512.0</ele><time>2026-05-01T07:48:16.134Z</time></trkpt><trkpt lat="44.1098443" lon="11.3734505"><ele>513.0</ele><time>2026-05-01T07:48:26.134Z</time></trkpt><trkpt lat="44.1097817" lon="11.3734893"><ele>514.0</ele><time>2026-05-01T07:48:29.135Z</time></trkpt><trkpt lat="44.1096987" lon="11.3735257"><ele>515.0</ele><time>2026-05-01T07:48:32.134Z</time></trkpt><trkpt lat="44.1096242" lon="11.3735465"><ele>516.0</ele><time>2026-05-01T07:48:35.134Z</time></trkpt><trkpt lat="44.1095552" lon="11.3735577"><ele>517.0</ele><time>2026-05-01T07:49:11.132Z</time></trkpt><trkpt lat="44.1094827" lon="11.3736153"><ele>517.0</ele><time>2026-05-01T07:49:15.134Z</time></trkpt><trkpt lat="44.1094242" lon="11.373651"><ele>517.0</ele><time>2026-05-01T07:49:18.134Z</time></trkpt><trkpt lat="44.1093508" lon="11.373657"><ele>517.0</ele><time>2026-05-01T07:49:21.135Z</time></trkpt><trkpt lat="44.109269" lon="11.373646"><ele>517.0</ele><time>2026-05-01T07:49:24.135Z</time></trkpt><trkpt lat="44.1092247" lon="11.3737183"><ele>517.0</ele><time>2026-05-01T07:49:27.133Z</time></trkpt><trkpt lat="44.1092068" lon="11.3738085"><ele>517.0</ele><time>2026-05-01T07:49:29.133Z</time></trkpt><trkpt lat="44.1091778" lon="11.373898"><ele>517.0</ele><time>2026-05-01T07:49:31.133Z</time></trkpt><trkpt lat="44.1091345" lon="11.3739728"><ele>515.6</ele><time>2026-05-01T07:49:34.132Z</time></trkpt><trkpt lat="44.1091313" lon="11.3740637"><ele>514.2</ele><time>2026-05-01T07:49:41.134Z</time></trkpt><trkpt lat="44.1091183" lon="11.3741818"><ele>512.8</ele><time>2026-05-01T07:49:43.134Z</time></trkpt><trkpt lat="44.1090697" lon="11.3742757"><ele>511.4</ele><time>2026-05-01T07:49:45.134Z</time></trkpt><trkpt lat="44.1089862" lon="11.374317"><ele>510.0</ele><time>2026-05-01T07:49:47.134Z</time></trkpt><trkpt lat="44.1088583" lon="11.3743202"><ele>510.0</ele><time>2026-05-01T07:49:49.134Z</time></trkpt><trkpt lat="44.1087548" lon="11.3742885"><ele>510.0</ele><time>2026-05-01T07:49:51.134Z</time></trkpt><trkpt lat="44.108694" lon="11.374316"><ele>510.0</ele><time>2026-05-01T07:49:54.135Z</time></trkpt><trkpt lat="44.108733" lon="11.3744215"><ele>510.0</ele><time>2026-05-01T07:49:58.134Z</time></trkpt><trkpt lat="44.108804" lon="11.3744508"><ele>510.0</ele><time>2026-05-01T07:50:01.132Z</time></trkpt><trkpt lat="44.108728" lon="11.3744328"><ele>510.0</ele><time>2026-05-01T07:50:15.135Z</time></trkpt><trkpt lat="44.1086782" lon="11.3743755"><ele>510.0</ele><time>2026-05-01T07:50:17.137Z</time></trkpt><trkpt lat="44.108715" lon="11.3742878"><ele>510.0</ele><time>2026-05-01T07:50:20.135Z</time></trkpt><trkpt lat="44.1087967" lon="11.3743083"><ele>510.0</ele><time>2026-05-01T07:50:22.133Z</time></trkpt><trkpt lat="44.1089232" lon="11.3743302"><ele>510.0</ele><time>2026-05-01T07:50:24.132Z</time></trkpt><trkpt lat="44.1090363" lon="11.3742968"><ele>510.0</ele><time>2026-05-01T07:50:26.133Z</time></trkpt><trkpt lat="44.1090985" lon="11.3742182"><ele>511.1666666666667</ele><time>2026-05-01T07:50:28.133Z</time></trkpt><trkpt lat="44.1091203" lon="11.3740957"><ele>512.3333333333334</ele><time>2026-05-01T07:50:30.134Z</time></trkpt><trkpt lat="44.1091223" lon="11.3740072"><ele>513.5</ele><time>2026-05-01T07:50:32.134Z</time></trkpt><trkpt lat="44.1091725" lon="11.3739108"><ele>514.6666666666667</ele><time>2026-05-01T07:50:36.133Z</time></trkpt><trkpt lat="44.1091898" lon="11.3737932"><ele>515.8333333333334</ele><time>2026-05-01T07:50:38.135Z</time></trkpt><trkpt lat="44.109208" lon="11.3737022"><ele>517.0</ele><time>2026-05-01T07:50:40.134Z</time></trkpt><trkpt lat="44.1092835" lon="11.3736655"><ele>517.0</ele><time>2026-05-01T07:50:46.135Z</time></trkpt><trkpt lat="44.1093837" lon="11.3736655"><ele>517.0</ele><time>2026-05-01T07:50:49.132Z</time></trkpt><trkpt lat="44.1094638" lon="11.373663"><ele>517.0</ele><time>2026-05-01T07:50:51.132Z</time></trkpt><trkpt lat="44.109533" lon="11.3736567"><ele>517.0</ele><time>2026-05-01T07:50:53.136Z</time></trkpt><trkpt lat="44.1096183" lon="11.3735807"><ele>517.0</ele><time>2026-05-01T07:50:56.135Z</time></trkpt><trkpt lat="44.1096885" lon="11.3735218"><ele>517.0</ele><time>2026-05-01T07:50:58.134Z</time></trkpt><trkpt lat="44.1097713" lon="11.3734995"><ele>517.0</ele><time>2026-05-01T07:51:01.134Z</time></trkpt><trkpt lat="44.1098388" lon="11.3734885"><ele>517.0</ele><time>2026-05-01T07:51:08.136Z</time></trkpt><trkpt lat="44.1099095" lon="11.373561"><ele>517.0</ele><time>2026-05-01T07:51:11.134Z</time></trkpt><trkpt lat="44.1099782" lon="11.3736225"><ele>517.0</ele><time>2026-05-01T07:51:13.133Z</time></trkpt><trkpt lat="44.1100498" lon="11.3736833"><ele>517.0</ele><time>2026-05-01T07:51:15.134Z</time></trkpt><trkpt lat="44.1101258" lon="11.373749"><ele>517.0</ele><time>2026-05-01T07:51:17.134Z</time></trkpt><trkpt lat="44.1102092" lon="11.373814"><ele>516.0</ele><time>2026-05-01T07:51:19.134Z</time></trkpt><trkpt lat="44.11027" lon="11.3738462"><ele>515.0</ele><time>2026-05-01T07:51:21.133Z</time></trkpt><trkpt lat="44.1103417" lon="11.3738603"><ele>514.0</ele><time>2026-05-01T07:51:24.134Z</time></trkpt><trkpt lat="44.1104048" lon="11.3738627"><ele>513.0</ele><time>2026-05-01T07:51:34.133Z</time></trkpt><trkpt lat="44.1104727" lon="11.373821"><ele>512.0</ele><time>2026-05-01T07:51:36.133Z</time></trkpt><trkpt lat="44.1105427" lon="11.373792"><ele>511.0</ele><time>2026-05-01T07:51:38.133Z</time></trkpt><trkpt lat="44.1106168" lon="11.3737993"><ele>510.0</ele><time>2026-05-01T07:51:41.136Z</time></trkpt><trkpt lat="44.1106453" lon="11.373881"><ele>510.0</ele><time>2026-05-01T07:51:44.134Z</time></trkpt><trkpt lat="44.1106987" lon="11.3739307"><ele>510.0</ele><time>2026-05-01T07:51:49.135Z</time></trkpt><trkpt lat="44.1106675" lon="11.3738415"><ele>510.0</ele><time>2026-05-01T07:52:40.135Z</time></trkpt><trkpt lat="44.1105817" lon="11.3738352"><ele>510.0</ele><time>2026-05-01T07:52:44.136Z</time></trkpt><trkpt lat="44.1104825" lon="11.3738798"><ele>510.0</ele><time>2026-05-01T07:52:46.135Z</time></trkpt><trkpt lat="44.1104763" lon="11.3739687"><ele>510.0</ele><time>2026-05-01T07:52:56.136Z</time></trkpt><trkpt lat="44.1105228" lon="11.3740545"><ele>507.2</ele><time>2026-05-01T07:52:58.134Z</time></trkpt><trkpt lat="44.1106023" lon="11.3741777"><ele>504.4</ele><time>2026-05-01T07:53:00.135Z</time></trkpt><trkpt lat="44.110701" lon="11.37428"><ele>501.6</ele><time>2026-05-01T07:53:02.134Z</time></trkpt><trkpt lat="44.1107573" lon="11.3743292"><ele>498.8</ele><time>2026-05-01T07:53:03.135Z</time></trkpt><trkpt lat="44.1108528" lon="11.3744013"><ele>496.0</ele><time>2026-05-01T07:53:05.135Z</time></trkpt><trkpt lat="44.1109123" lon="11.374506"><ele>495.6666666666667</ele><time>2026-05-01T07:53:07.136Z</time></trkpt><trkpt lat="44.1109523" lon="11.3746518"><ele>495.33333333333337</ele><time>2026-05-01T07:53:09.135Z</time></trkpt><trkpt lat="44.110975" lon="11.3747453"><ele>495.0</ele><time>2026-05-01T07:53:10.135Z</time></trkpt><trkpt lat="44.111007" lon="11.3748577"><ele>494.66666666666663</ele><time>2026-05-01T07:53:11.135Z</time></trkpt><trkpt lat="44.1110485" lon="11.3749703"><ele>494.3333333333333</ele><time>2026-05-01T07:53:12.136Z</time></trkpt><trkpt lat="44.1110908" lon="11.375067"><ele>494.0</ele><time>2026-05-01T07:53:13.135Z</time></trkpt><trkpt lat="44.1111288" lon="11.3751608"><ele>492.8333333333333</ele><time>2026-05-01T07:53:14.136Z</time></trkpt><trkpt lat="44.111153" lon="11.3752487"><ele>491.66666666666663</ele><time>2026-05-01T07:53:15.133Z</time></trkpt><trkpt lat="44.111183" lon="11.37533"><ele>490.5</ele><time>2026-05-01T07:53:16.133Z</time></trkpt><trkpt lat="44.111219" lon="11.3754185"><ele>489.33333333333337</ele><time>2026-05-01T07:53:17.133Z</time></trkpt><trkpt lat="44.1112535" lon="11.3755012"><ele>488.1666666666667</ele><time>2026-05-01T07:53:18.135Z</time></trkpt><trkpt lat="44.1113312" lon="11.3756238"><ele>487.0</ele><time>2026-05-01T07:53:20.135Z</time></trkpt><trkpt lat="44.1113892" lon="11.3756728"><ele>486.28571428571433</ele><time>2026-05-01T07:53:21.134Z</time></trkpt><trkpt lat="44.1114492" lon="11.3757302"><ele>485.57142857142856</ele><time>2026-05-01T07:53:22.134Z</time></trkpt><trkpt lat="44.1115023" lon="11.3757837"><ele>484.8571428571429</ele><time>2026-05-01T07:53:23.135Z</time></trkpt><trkpt lat="44.111562" lon="11.3758277"><ele>484.14285714285717</ele><time>2026-05-01T07:53:24.134Z</time></trkpt><trkpt lat="44.1116307" lon="11.3758515"><ele>483.42857142857144</ele><time>2026-05-01T07:53:25.136Z</time></trkpt><trkpt lat="44.1117082" lon="11.3758707"><ele>482.7142857142857</ele><time>2026-05-01T07:53:26.136Z</time></trkpt><trkpt lat="44.1117808" lon="11.3759028"><ele>482.0</ele><time>2026-05-01T07:53:27.135Z</time></trkpt><trkpt lat="44.1118417" lon="11.3759443"><ele>481.99999999999994</ele><time>2026-05-01T07:53:28.137Z</time></trkpt><trkpt lat="44.1119007" lon="11.3759947"><ele>482.0</ele><time>2026-05-01T07:53:29.135Z</time></trkpt><trkpt lat="44.111957" lon="11.3760542"><ele>482.0</ele><time>2026-05-01T07:53:30.135Z</time></trkpt><trkpt lat="44.1120135" lon="11.3761127"><ele>482.0</ele><time>2026-05-01T07:53:31.135Z</time></trkpt><trkpt lat="44.1120785" lon="11.3761772"><ele>481.99999999999994</ele><time>2026-05-01T07:53:32.136Z</time></trkpt><trkpt lat="44.1121433" lon="11.376251"><ele>482.0</ele><time>2026-05-01T07:53:33.134Z</time></trkpt><trkpt lat="44.1122103" lon="11.3763217"><ele>480.3333333333333</ele><time>2026-05-01T07:53:34.135Z</time></trkpt><trkpt lat="44.1122738" lon="11.3763875"><ele>478.66666666666663</ele><time>2026-05-01T07:53:35.135Z</time></trkpt><trkpt lat="44.1123298" lon="11.37646"><ele>477.0</ele><time>2026-05-01T07:53:36.135Z</time></trkpt><trkpt lat="44.11238" lon="11.3765435"><ele>475.33333333333337</ele><time>2026-05-01T07:53:37.136Z</time></trkpt><trkpt lat="44.1124273" lon="11.376636"><ele>473.6666666666667</ele><time>2026-05-01T07:53:38.136Z</time></trkpt><trkpt lat="44.112472" lon="11.3767245"><ele>472.0</ele><time>2026-05-01T07:53:39.134Z</time></trkpt><trkpt lat="44.1125152" lon="11.3768068"><ele>471.83333333333337</ele><time>2026-05-01T07:53:40.133Z</time></trkpt><trkpt lat="44.1125687" lon="11.3768908"><ele>471.6666666666667</ele><time>2026-05-01T07:53:41.134Z</time></trkpt><trkpt lat="44.1126245" lon="11.376981"><ele>471.5</ele><time>2026-05-01T07:53:42.133Z</time></trkpt><trkpt lat="44.1126762" lon="11.3770608"><ele>471.33333333333337</ele><time>2026-05-01T07:53:43.133Z</time></trkpt><trkpt lat="44.112728" lon="11.3771333"><ele>471.1666666666667</ele><time>2026-05-01T07:53:44.134Z</time></trkpt><trkpt lat="44.1127792" lon="11.3771968"><ele>471.0</ele><time>2026-05-01T07:53:45.134Z</time></trkpt><trkpt lat="44.1128242" lon="11.3772738"><ele>469.6666666666667</ele><time>2026-05-01T07:53:46.135Z</time></trkpt><trkpt lat="44.1128528" lon="11.3773645"><ele>468.33333333333337</ele><time>2026-05-01T07:53:47.136Z</time></trkpt><trkpt lat="44.1128748" lon="11.3774575"><ele>467.0</ele><time>2026-05-01T07:53:48.134Z</time></trkpt><trkpt lat="44.1129062" lon="11.3775438"><ele>465.6666666666667</ele><time>2026-05-01T07:53:49.134Z</time></trkpt><trkpt lat="44.112953" lon="11.3776417"><ele>464.33333333333337</ele><time>2026-05-01T07:53:50.135Z</time></trkpt><trkpt lat="44.112998" lon="11.3777328"><ele>463.0</ele><time>2026-05-01T07:53:51.134Z</time></trkpt><trkpt lat="44.1130493" lon="11.3778133"><ele>463.00000000000006</ele><time>2026-05-01T07:53:52.135Z</time></trkpt><trkpt lat="44.1131002" lon="11.3778915"><ele>463.0</ele><time>2026-05-01T07:53:53.135Z</time></trkpt><trkpt lat="44.1131508" lon="11.377969"><ele>463.0</ele><time>2026-05-01T07:53:54.136Z</time></trkpt><trkpt lat="44.1131967" lon="11.3780513"><ele>463.0</ele><time>2026-05-01T07:53:55.136Z</time></trkpt><trkpt lat="44.1132377" lon="11.3781313"><ele>463.00000000000006</ele><time>2026-05-01T07:53:56.135Z</time></trkpt><trkpt lat="44.113314" lon="11.378266"><ele>463.0</ele><time>2026-05-01T07:53:58.134Z</time></trkpt><trkpt lat="44.1133905" lon="11.3784028"><ele>462.4</ele><time>2026-05-01T07:54:00.136Z</time></trkpt><trkpt lat="44.1134457" lon="11.3785377"><ele>461.79999999999995</ele><time>2026-05-01T07:54:02.134Z</time></trkpt><trkpt lat="44.113507" lon="11.3786898"><ele>461.2</ele><time>2026-05-01T07:54:04.132Z</time></trkpt><trkpt lat="44.1135695" lon="11.3788487"><ele>460.6</ele><time>2026-05-01T07:54:06.133Z</time></trkpt><trkpt lat="44.1136082" lon="11.3789302"><ele>460.0</ele><time>2026-05-01T07:54:07.132Z</time></trkpt><trkpt lat="44.11364" lon="11.3790073"><ele>456.75</ele><time>2026-05-01T07:54:08.134Z</time></trkpt><trkpt lat="44.1136993" lon="11.3791467"><ele>453.5</ele><time>2026-05-01T07:54:10.133Z</time></trkpt><trkpt lat="44.1137572" lon="11.3792975"><ele>450.25</ele><time>2026-05-01T07:54:12.134Z</time></trkpt><trkpt lat="44.1138102" lon="11.3794502"><ele>447.0</ele><time>2026-05-01T07:54:14.136Z</time></trkpt><trkpt lat="44.1138512" lon="11.3796018"><ele>444.40000000000003</ele><time>2026-05-01T07:54:16.134Z</time></trkpt><trkpt lat="44.1138793" lon="11.3797245"><ele>441.80000000000007</ele><time>2026-05-01T07:54:18.134Z</time></trkpt><trkpt lat="44.1139028" lon="11.3798528"><ele>439.2</ele><time>2026-05-01T07:54:20.135Z</time></trkpt><trkpt lat="44.113926" lon="11.3800062"><ele>436.6</ele><time>2026-05-01T07:54:22.134Z</time></trkpt><trkpt lat="44.1139553" lon="11.3801638"><ele>434.0</ele><time>2026-05-01T07:54:24.134Z</time></trkpt><trkpt lat="44.1139832" lon="11.3803188"><ele>434.0</ele><time>2026-05-01T07:54:26.135Z</time></trkpt><trkpt lat="44.1140222" lon="11.3804563"><ele>434.0</ele><time>2026-05-01T07:54:28.133Z</time></trkpt><trkpt lat="44.1140487" lon="11.3805805"><ele>434.0</ele><time>2026-05-01T07:54:30.132Z</time></trkpt><trkpt lat="44.1140542" lon="11.3806775"><ele>434.0</ele><time>2026-05-01T07:54:32.136Z</time></trkpt><trkpt lat="44.1139397" lon="11.380711"><ele>434.0</ele><time>2026-05-01T07:54:35.138Z</time></trkpt><trkpt lat="44.1138547" lon="11.3806927"><ele>434.0</ele><time>2026-05-01T07:54:36.136Z</time></trkpt><trkpt lat="44.1137622" lon="11.3806553"><ele>434.0</ele><time>2026-05-01T07:54:37.137Z</time></trkpt><trkpt lat="44.1136642" lon="11.3806025"><ele>434.0</ele><time>2026-05-01T07:54:38.138Z</time></trkpt><trkpt lat="44.1135648" lon="11.3805475"><ele>434.0</ele><time>2026-05-01T07:54:39.137Z</time></trkpt><trkpt lat="44.1134765" lon="11.3805043"><ele>434.0</ele><time>2026-05-01T07:54:40.137Z</time></trkpt><trkpt lat="44.1134148" lon="11.3804678"><ele>433.99999999999994</ele><time>2026-05-01T07:54:41.137Z</time></trkpt><trkpt lat="44.1133523" lon="11.3804212"><ele>434.0</ele><time>2026-05-01T07:54:44.137Z</time></trkpt><trkpt lat="44.1133808" lon="11.380506"><ele>434.0</ele><time>2026-05-01T07:56:04.136Z</time></trkpt><trkpt lat="44.1133168" lon="11.3805297"><ele>434.0</ele><time>2026-05-01T07:56:06.135Z</time></trkpt><trkpt lat="44.1132387" lon="11.3806118"><ele>433.99999999999994</ele><time>2026-05-01T07:56:08.135Z</time></trkpt><trkpt lat="44.1131703" lon="11.3806957"><ele>434.0</ele><time>2026-05-01T07:56:10.136Z</time></trkpt><trkpt lat="44.1130668" lon="11.3807113"><ele>431.6</ele><time>2026-05-01T07:56:12.137Z</time></trkpt><trkpt lat="44.1129602" lon="11.3807578"><ele>429.2</ele><time>2026-05-01T07:56:14.137Z</time></trkpt><trkpt lat="44.1129117" lon="11.380918"><ele>426.8</ele><time>2026-05-01T07:56:16.135Z</time></trkpt><trkpt lat="44.1129217" lon="11.3810172"><ele>424.40000000000003</ele><time>2026-05-01T07:56:17.136Z</time></trkpt><trkpt lat="44.1129445" lon="11.3811123"><ele>422.0</ele><time>2026-05-01T07:56:18.136Z</time></trkpt><trkpt lat="44.1129717" lon="11.3812067"><ele>421.99999999999994</ele><time>2026-05-01T07:56:19.137Z</time></trkpt><trkpt lat="44.1129992" lon="11.3813003"><ele>422.0</ele><time>2026-05-01T07:56:20.137Z</time></trkpt><trkpt lat="44.1130248" lon="11.3813907"><ele>422.0</ele><time>2026-05-01T07:56:21.137Z</time></trkpt><trkpt lat="44.1130475" lon="11.381474"><ele>422.0</ele><time>2026-05-01T07:56:22.136Z</time></trkpt><trkpt lat="44.1130817" lon="11.3816097"><ele>421.99999999999994</ele><time>2026-05-01T07:56:24.137Z</time></trkpt><trkpt lat="44.113096" lon="11.381766"><ele>422.0</ele><time>2026-05-01T07:56:26.138Z</time></trkpt><trkpt lat="44.113097" lon="11.3818567"><ele>421.7142857142857</ele><time>2026-05-01T07:56:27.136Z</time></trkpt><trkpt lat="44.113098" lon="11.381952"><ele>421.42857142857144</ele><time>2026-05-01T07:56:28.138Z</time></trkpt><trkpt lat="44.1130958" lon="11.3820473"><ele>421.1428571428571</ele><time>2026-05-01T07:56:29.137Z</time></trkpt><trkpt lat="44.1130798" lon="11.3821427"><ele>420.8571428571429</ele><time>2026-05-01T07:56:30.136Z</time></trkpt><trkpt lat="44.113053" lon="11.3822278"><ele>420.57142857142856</ele><time>2026-05-01T07:56:31.134Z</time></trkpt><trkpt lat="44.1130212" lon="11.3823073"><ele>420.2857142857143</ele><time>2026-05-01T07:56:32.134Z</time></trkpt><trkpt lat="44.1129692" lon="11.3824107"><ele>420.0</ele><time>2026-05-01T07:56:34.134Z</time></trkpt><trkpt lat="44.1129218" lon="11.3825192"><ele>419.8</ele><time>2026-05-01T07:56:45.136Z</time></trkpt><trkpt lat="44.1128602" lon="11.3826618"><ele>419.6</ele><time>2026-05-01T07:56:47.137Z</time></trkpt><trkpt lat="44.1128152" lon="11.3827543"><ele>419.4</ele><time>2026-05-01T07:56:48.139Z</time></trkpt><trkpt lat="44.1127635" lon="11.3828545"><ele>419.2</ele><time>2026-05-01T07:56:49.138Z</time></trkpt><trkpt lat="44.1127085" lon="11.3829605"><ele>419.0</ele><time>2026-05-01T07:56:50.136Z</time></trkpt><trkpt lat="44.112652" lon="11.3830695"><ele>419.4</ele><time>2026-05-01T07:56:51.136Z</time></trkpt><trkpt lat="44.1125948" lon="11.3831788"><ele>419.79999999999995</ele><time>2026-05-01T07:56:52.136Z</time></trkpt><trkpt lat="44.112535" lon="11.3832888"><ele>420.20000000000005</ele><time>2026-05-01T07:56:53.137Z</time></trkpt><trkpt lat="44.1124718" lon="11.3833987"><ele>420.6</ele><time>2026-05-01T07:56:54.138Z</time></trkpt><trkpt lat="44.1124057" lon="11.3835063"><ele>421.0</ele><time>2026-05-01T07:56:55.136Z</time></trkpt><trkpt lat="44.1123302" lon="11.3836028"><ele>421.6</ele><time>2026-05-01T07:56:56.135Z</time></trkpt><trkpt lat="44.1122447" lon="11.3836818"><ele>422.20000000000005</ele><time>2026-05-01T07:56:57.134Z</time></trkpt><trkpt lat="44.112152" lon="11.3837398"><ele>422.79999999999995</ele><time>2026-05-01T07:56:58.134Z</time></trkpt><trkpt lat="44.1120545" lon="11.3837823"><ele>423.4</ele><time>2026-05-01T07:56:59.137Z</time></trkpt><trkpt lat="44.1119545" lon="11.3838092"><ele>424.0</ele><time>2026-05-01T07:57:00.136Z</time></trkpt><trkpt lat="44.1118542" lon="11.3838172"><ele>424.0</ele><time>2026-05-01T07:57:01.137Z</time></trkpt><trkpt lat="44.1117602" lon="11.3837998"><ele>424.0</ele><time>2026-05-01T07:57:02.137Z</time></trkpt><trkpt lat="44.1116835" lon="11.383785"><ele>424.0</ele><time>2026-05-01T07:57:03.135Z</time></trkpt><trkpt lat="44.1115867" lon="11.383894"><ele>424.0</ele><time>2026-05-01T07:57:05.138Z</time></trkpt><trkpt lat="44.1115558" lon="11.3839962"><ele>424.0</ele><time>2026-05-01T07:57:06.137Z</time></trkpt><trkpt lat="44.1115098" lon="11.3840758"><ele>426.33333333333337</ele><time>2026-05-01T07:57:07.137Z</time></trkpt><trkpt lat="44.111443" lon="11.3841015"><ele>428.6666666666667</ele><time>2026-05-01T07:57:08.137Z</time></trkpt><trkpt lat="44.1113642" lon="11.3840838"><ele>431.0</ele><time>2026-05-01T07:57:09.138Z</time></trkpt><trkpt lat="44.1112843" lon="11.384069"><ele>433.33333333333337</ele><time>2026-05-01T07:57:10.136Z</time></trkpt><trkpt lat="44.1112193" lon="11.3840947"><ele>435.6666666666667</ele><time>2026-05-01T07:57:11.139Z</time></trkpt><trkpt lat="44.1111898" lon="11.3842317"><ele>438.0</ele><time>2026-05-01T07:57:13.136Z</time></trkpt><trkpt lat="44.1112295" lon="11.384302"><ele>438.0</ele><time>2026-05-01T07:57:14.137Z</time></trkpt><trkpt lat="44.111289" lon="11.3843723"><ele>438.0</ele><time>2026-05-01T07:57:15.136Z</time></trkpt><trkpt lat="44.1113472" lon="11.384449"><ele>438.0</ele><time>2026-05-01T07:57:16.136Z</time></trkpt><trkpt lat="44.1113952" lon="11.3845382"><ele>438.0</ele><time>2026-05-01T07:57:17.137Z</time></trkpt><trkpt lat="44.1114387" lon="11.384638"><ele>438.0</ele><time>2026-05-01T07:57:18.136Z</time></trkpt><trkpt lat="44.1114802" lon="11.3847475"><ele>438.0</ele><time>2026-05-01T07:57:19.136Z</time></trkpt><trkpt lat="44.1115242" lon="11.3848547"><ele>439.6666666666667</ele><time>2026-05-01T07:57:20.135Z</time></trkpt><trkpt lat="44.1115715" lon="11.3849537"><ele>441.33333333333337</ele><time>2026-05-01T07:57:21.133Z</time></trkpt><trkpt lat="44.1116157" lon="11.385044"><ele>443.0</ele><time>2026-05-01T07:57:22.133Z</time></trkpt><trkpt lat="44.1116447" lon="11.3851237"><ele>444.6666666666667</ele><time>2026-05-01T07:57:23.134Z</time></trkpt><trkpt lat="44.1116405" lon="11.3852963"><ele>446.33333333333337</ele><time>2026-05-01T07:57:25.136Z</time></trkpt><trkpt lat="44.1116273" lon="11.385392"><ele>448.0</ele><time>2026-05-01T07:57:26.137Z</time></trkpt><trkpt lat="44.1116077" lon="11.385493"><ele>449.6666666666667</ele><time>2026-05-01T07:57:27.136Z</time></trkpt><trkpt lat="44.111584" lon="11.385591"><ele>451.33333333333337</ele><time>2026-05-01T07:57:28.137Z</time></trkpt><trkpt lat="44.1115553" lon="11.3856878"><ele>453.0</ele><time>2026-05-01T07:57:29.137Z</time></trkpt><trkpt lat="44.1115175" lon="11.3857852"><ele>454.66666666666663</ele><time>2026-05-01T07:57:30.137Z</time></trkpt><trkpt lat="44.1114618" lon="11.3858658"><ele>456.3333333333333</ele><time>2026-05-01T07:57:31.137Z</time></trkpt><trkpt lat="44.1113892" lon="11.3859377"><ele>458.0</ele><time>2026-05-01T07:57:32.138Z</time></trkpt><trkpt lat="44.1113082" lon="11.3860102"><ele>458.59999999999997</ele><time>2026-05-01T07:57:33.137Z</time></trkpt><trkpt lat="44.1112237" lon="11.3860832"><ele>459.19999999999993</ele><time>2026-05-01T07:57:34.137Z</time></trkpt><trkpt lat="44.1111318" lon="11.3861502"><ele>459.8</ele><time>2026-05-01T07:57:35.138Z</time></trkpt><trkpt lat="44.1110312" lon="11.386194"><ele>460.4</ele><time>2026-05-01T07:57:36.138Z</time></trkpt><trkpt lat="44.1109247" lon="11.3862127"><ele>461.0</ele><time>2026-05-01T07:57:37.138Z</time></trkpt><trkpt lat="44.1108128" lon="11.3862167"><ele>462.5</ele><time>2026-05-01T07:57:38.137Z</time></trkpt><trkpt lat="44.1106972" lon="11.3862172"><ele>464.0</ele><time>2026-05-01T07:57:39.136Z</time></trkpt><trkpt lat="44.1105775" lon="11.386216"><ele>465.5</ele><time>2026-05-01T07:57:40.136Z</time></trkpt><trkpt lat="44.110457" lon="11.3862142"><ele>467.0</ele><time>2026-05-01T07:57:41.136Z</time></trkpt><trkpt lat="44.1103375" lon="11.3862117"><ele>467.0</ele><time>2026-05-01T07:57:42.137Z</time></trkpt><trkpt lat="44.11022" lon="11.3862092"><ele>467.00000000000006</ele><time>2026-05-01T07:57:43.136Z</time></trkpt><trkpt lat="44.1101078" lon="11.386195"><ele>467.00000000000006</ele><time>2026-05-01T07:57:44.135Z</time></trkpt><trkpt lat="44.1100057" lon="11.3861928"><ele>467.0</ele><time>2026-05-01T07:57:45.133Z</time></trkpt><trkpt lat="44.1099113" lon="11.3862352"><ele>467.0</ele><time>2026-05-01T07:57:46.133Z</time></trkpt><trkpt lat="44.1098243" lon="11.3863123"><ele>470.25</ele><time>2026-05-01T07:57:47.133Z</time></trkpt><trkpt lat="44.1097407" lon="11.3864155"><ele>473.5</ele><time>2026-05-01T07:57:48.134Z</time></trkpt><trkpt lat="44.109656" lon="11.3865287"><ele>476.75</ele><time>2026-05-01T07:57:49.135Z</time></trkpt><trkpt lat="44.1095695" lon="11.3866415"><ele>480.0</ele><time>2026-05-01T07:57:50.138Z</time></trkpt><trkpt lat="44.1094818" lon="11.3867493"><ele>480.0</ele><time>2026-05-01T07:57:51.136Z</time></trkpt><trkpt lat="44.1094013" lon="11.3868478"><ele>480.0</ele><time>2026-05-01T07:57:52.135Z</time></trkpt><trkpt lat="44.1093197" lon="11.3869232"><ele>480.0</ele><time>2026-05-01T07:57:53.136Z</time></trkpt><trkpt lat="44.1092247" lon="11.3869617"><ele>480.0</ele><time>2026-05-01T07:57:54.136Z</time></trkpt><trkpt lat="44.1091198" lon="11.3869552"><ele>480.0</ele><time>2026-05-01T07:57:55.137Z</time></trkpt><trkpt lat="44.1090072" lon="11.3869223"><ele>481.0</ele><time>2026-05-01T07:57:56.137Z</time></trkpt><trkpt lat="44.1088912" lon="11.3868807"><ele>482.0</ele><time>2026-05-01T07:57:57.137Z</time></trkpt><trkpt lat="44.1087777" lon="11.3868355"><ele>483.0</ele><time>2026-05-01T07:57:58.137Z</time></trkpt><trkpt lat="44.108667" lon="11.386792"><ele>484.0</ele><time>2026-05-01T07:57:59.138Z</time></trkpt><trkpt lat="44.108559" lon="11.3867543"><ele>484.00000000000006</ele><time>2026-05-01T07:58:00.137Z</time></trkpt><trkpt lat="44.1084587" lon="11.3867228"><ele>484.0</ele><time>2026-05-01T07:58:01.136Z</time></trkpt><trkpt lat="44.108368" lon="11.3867035"><ele>484.0</ele><time>2026-05-01T07:58:02.136Z</time></trkpt><trkpt lat="44.1082863" lon="11.3867085"><ele>484.0</ele><time>2026-05-01T07:58:03.137Z</time></trkpt><trkpt lat="44.1082132" lon="11.386744"><ele>484.00000000000006</ele><time>2026-05-01T07:58:04.137Z</time></trkpt><trkpt lat="44.1081515" lon="11.3868067"><ele>484.0</ele><time>2026-05-01T07:58:05.138Z</time></trkpt><trkpt lat="44.108099" lon="11.3868952"><ele>484.50000000000006</ele><time>2026-05-01T07:58:06.137Z</time></trkpt><trkpt lat="44.1080503" lon="11.3870048"><ele>485.0</ele><time>2026-05-01T07:58:07.137Z</time></trkpt><trkpt lat="44.1080003" lon="11.3871155"><ele>485.5</ele><time>2026-05-01T07:58:08.138Z</time></trkpt><trkpt lat="44.1079445" lon="11.3872003"><ele>486.0</ele><time>2026-05-01T07:58:09.135Z</time></trkpt><trkpt lat="44.1078812" lon="11.38724"><ele>486.50000000000006</ele><time>2026-05-01T07:58:10.135Z</time></trkpt><trkpt lat="44.1078083" lon="11.3872368"><ele>487.0</ele><time>2026-05-01T07:58:11.136Z</time></trkpt><trkpt lat="44.1077213" lon="11.3872115"><ele>487.0</ele><time>2026-05-01T07:58:12.136Z</time></trkpt><trkpt lat="44.1076235" lon="11.3871793"><ele>487.00000000000006</ele><time>2026-05-01T07:58:13.137Z</time></trkpt><trkpt lat="44.1075245" lon="11.3871465"><ele>487.00000000000006</ele><time>2026-05-01T07:58:14.138Z</time></trkpt><trkpt lat="44.1074358" lon="11.3870902"><ele>487.0</ele><time>2026-05-01T07:58:15.139Z</time></trkpt><trkpt lat="44.1073585" lon="11.3869975"><ele>487.0</ele><time>2026-05-01T07:58:16.137Z</time></trkpt><trkpt lat="44.1072843" lon="11.3868793"><ele>487.40000000000003</ele><time>2026-05-01T07:58:17.137Z</time></trkpt><trkpt lat="44.1072045" lon="11.386776"><ele>487.80000000000007</ele><time>2026-05-01T07:58:18.137Z</time></trkpt><trkpt lat="44.1071242" lon="11.3866932"><ele>488.2</ele><time>2026-05-01T07:58:19.137Z</time></trkpt><trkpt lat="44.1070457" lon="11.3866448"><ele>488.6</ele><time>2026-05-01T07:58:20.137Z</time></trkpt><trkpt lat="44.106979" lon="11.3866458"><ele>489.0</ele><time>2026-05-01T07:58:21.137Z</time></trkpt><trkpt lat="44.1068735" lon="11.3867707"><ele>489.0</ele><time>2026-05-01T07:58:23.137Z</time></trkpt><trkpt lat="44.106825" lon="11.3868915"><ele>489.0</ele><time>2026-05-01T07:58:24.137Z</time></trkpt><trkpt lat="44.106776" lon="11.3870232"><ele>489.0</ele><time>2026-05-01T07:58:25.136Z</time></trkpt><trkpt lat="44.1067178" lon="11.387166"><ele>489.0</ele><time>2026-05-01T07:58:26.138Z</time></trkpt><trkpt lat="44.1066558" lon="11.387299"><ele>489.0</ele><time>2026-05-01T07:58:27.137Z</time></trkpt><trkpt lat="44.1065803" lon="11.3874055"><ele>491.0</ele><time>2026-05-01T07:58:28.137Z</time></trkpt><trkpt lat="44.1064893" lon="11.3874688"><ele>493.0</ele><time>2026-05-01T07:58:29.138Z</time></trkpt><trkpt lat="44.1063857" lon="11.3875118"><ele>495.0</ele><time>2026-05-01T07:58:30.137Z</time></trkpt><trkpt lat="44.1062842" lon="11.3875663"><ele>497.0</ele><time>2026-05-01T07:58:31.137Z</time></trkpt><trkpt lat="44.1061875" lon="11.3876568"><ele>499.0</ele><time>2026-05-01T07:58:32.136Z</time></trkpt><trkpt lat="44.1060873" lon="11.387782"><ele>499.0</ele><time>2026-05-01T07:58:33.135Z</time></trkpt><trkpt lat="44.1059872" lon="11.3879227"><ele>499.0</ele><time>2026-05-01T07:58:34.134Z</time></trkpt><trkpt lat="44.1058935" lon="11.3880562"><ele>499.0</ele><time>2026-05-01T07:58:35.134Z</time></trkpt><trkpt lat="44.1058018" lon="11.3881725"><ele>499.0</ele><time>2026-05-01T07:58:36.135Z</time></trkpt><trkpt lat="44.1057043" lon="11.3882617"><ele>502.0</ele><time>2026-05-01T07:58:37.136Z</time></trkpt><trkpt lat="44.1055975" lon="11.3883223"><ele>505.0</ele><time>2026-05-01T07:58:38.138Z</time></trkpt><trkpt lat="44.1054808" lon="11.3883698"><ele>508.0</ele><time>2026-05-01T07:58:39.137Z</time></trkpt><trkpt lat="44.1053698" lon="11.3883937"><ele>511.0</ele><time>2026-05-01T07:58:40.137Z</time></trkpt><trkpt lat="44.1052638" lon="11.3883822"><ele>511.0</ele><time>2026-05-01T07:58:41.139Z</time></trkpt><trkpt lat="44.1051585" lon="11.3883323"><ele>511.0</ele><time>2026-05-01T07:58:42.137Z</time></trkpt><trkpt lat="44.1050518" lon="11.3882748"><ele>511.0</ele><time>2026-05-01T07:58:43.137Z</time></trkpt><trkpt lat="44.104946" lon="11.388231"><ele>511.0</ele><time>2026-05-01T07:58:44.137Z</time></trkpt><trkpt lat="44.1048425" lon="11.3882118"><ele>511.0</ele><time>2026-05-01T07:58:45.137Z</time></trkpt><trkpt lat="44.1047382" lon="11.3882215"><ele>512.2</ele><time>2026-05-01T07:58:46.137Z</time></trkpt><trkpt lat="44.1046338" lon="11.3882598"><ele>513.4000000000001</ele><time>2026-05-01T07:58:47.136Z</time></trkpt><trkpt lat="44.1045308" lon="11.3883213"><ele>514.6</ele><time>2026-05-01T07:58:48.137Z</time></trkpt><trkpt lat="44.1044403" lon="11.3883965"><ele>515.8000000000001</ele><time>2026-05-01T07:58:49.137Z</time></trkpt><trkpt lat="44.1043623" lon="11.3884777"><ele>517.0</ele><time>2026-05-01T07:58:50.139Z</time></trkpt><trkpt lat="44.1042888" lon="11.3885703"><ele>517.0</ele><time>2026-05-01T07:58:51.137Z</time></trkpt><trkpt lat="44.1042085" lon="11.388672"><ele>517.0</ele><time>2026-05-01T07:58:52.137Z</time></trkpt><trkpt lat="44.1041248" lon="11.3887752"><ele>517.0</ele><time>2026-05-01T07:58:53.137Z</time></trkpt><trkpt lat="44.1040385" lon="11.3888767"><ele>517.0</ele><time>2026-05-01T07:58:54.137Z</time></trkpt><trkpt lat="44.1039437" lon="11.3889767"><ele>519.75</ele><time>2026-05-01T07:58:55.138Z</time></trkpt><trkpt lat="44.1038467" lon="11.3890753"><ele>522.5</ele><time>2026-05-01T07:58:56.138Z</time></trkpt><trkpt lat="44.103753" lon="11.3891745"><ele>525.25</ele><time>2026-05-01T07:58:57.137Z</time></trkpt><trkpt lat="44.1036642" lon="11.389272"><ele>528.0</ele><time>2026-05-01T07:58:58.135Z</time></trkpt><trkpt lat="44.1035942" lon="11.3893768"><ele>528.0</ele><time>2026-05-01T07:58:59.135Z</time></trkpt><trkpt lat="44.1035557" lon="11.3894877"><ele>528.0</ele><time>2026-05-01T07:59:00.135Z</time></trkpt><trkpt lat="44.103548" lon="11.3895957"><ele>528.0</ele><time>2026-05-01T07:59:01.135Z</time></trkpt><trkpt lat="44.1035362" lon="11.3896857"><ele>528.0</ele><time>2026-05-01T07:59:02.137Z</time></trkpt><trkpt lat="44.1034977" lon="11.3897648"><ele>528.0</ele><time>2026-05-01T07:59:03.137Z</time></trkpt><trkpt lat="44.1034348" lon="11.3898488"><ele>528.0</ele><time>2026-05-01T07:59:04.136Z</time></trkpt><trkpt lat="44.1033647" lon="11.389936"><ele>529.6</ele><time>2026-05-01T07:59:05.136Z</time></trkpt><trkpt lat="44.1032927" lon="11.3900293"><ele>531.1999999999999</ele><time>2026-05-01T07:59:06.135Z</time></trkpt><trkpt lat="44.1032247" lon="11.3901237"><ele>532.8</ele><time>2026-05-01T07:59:07.137Z</time></trkpt><trkpt lat="44.1031578" lon="11.3902155"><ele>534.4</ele><time>2026-05-01T07:59:08.136Z</time></trkpt><trkpt lat="44.1030907" lon="11.3903167"><ele>536.0</ele><time>2026-05-01T07:59:09.137Z</time></trkpt><trkpt lat="44.1030233" lon="11.3904132"><ele>538.4</ele><time>2026-05-01T07:59:10.136Z</time></trkpt><trkpt lat="44.1029597" lon="11.3905112"><ele>540.8</ele><time>2026-05-01T07:59:11.136Z</time></trkpt><trkpt lat="44.1029018" lon="11.390607"><ele>543.1999999999999</ele><time>2026-05-01T07:59:12.137Z</time></trkpt><trkpt lat="44.1028483" lon="11.3907095"><ele>545.6</ele><time>2026-05-01T07:59:13.136Z</time></trkpt><trkpt lat="44.1027947" lon="11.3908367"><ele>548.0</ele><time>2026-05-01T07:59:14.137Z</time></trkpt><trkpt lat="44.1027392" lon="11.3909617"><ele>548.0</ele><time>2026-05-01T07:59:15.137Z</time></trkpt><trkpt lat="44.1026843" lon="11.3910962"><ele>548.0</ele><time>2026-05-01T07:59:16.136Z</time></trkpt><trkpt lat="44.1026338" lon="11.3912385"><ele>548.0</ele><time>2026-05-01T07:59:17.137Z</time></trkpt><trkpt lat="44.1025843" lon="11.3913828"><ele>548.0</ele><time>2026-05-01T07:59:18.136Z</time></trkpt><trkpt lat="44.1025292" lon="11.3915317"><ele>550.0</ele><time>2026-05-01T07:59:19.137Z</time></trkpt><trkpt lat="44.1024703" lon="11.391673"><ele>552.0</ele><time>2026-05-01T07:59:20.137Z</time></trkpt><trkpt lat="44.102418" lon="11.3918102"><ele>554.0</ele><time>2026-05-01T07:59:21.136Z</time></trkpt><trkpt lat="44.1023743" lon="11.3919293"><ele>556.0</ele><time>2026-05-01T07:59:22.136Z</time></trkpt><trkpt lat="44.1023385" lon="11.392034"><ele>558.0</ele><time>2026-05-01T07:59:23.135Z</time></trkpt><trkpt lat="44.1023007" lon="11.3921373"><ele>559.6</ele><time>2026-05-01T07:59:24.136Z</time></trkpt><trkpt lat="44.1022452" lon="11.3922448"><ele>561.1999999999999</ele><time>2026-05-01T07:59:25.135Z</time></trkpt><trkpt lat="44.1021742" lon="11.3923348"><ele>562.8</ele><time>2026-05-01T07:59:26.136Z</time></trkpt><trkpt lat="44.1020845" lon="11.3924122"><ele>564.4</ele><time>2026-05-01T07:59:27.137Z</time></trkpt><trkpt lat="44.1019785" lon="11.3924993"><ele>566.0</ele><time>2026-05-01T07:59:28.137Z</time></trkpt><trkpt lat="44.101872" lon="11.3925917"><ele>566.0</ele><time>2026-05-01T07:59:29.137Z</time></trkpt><trkpt lat="44.1017728" lon="11.3926843"><ele>566.0</ele><time>2026-05-01T07:59:30.139Z</time></trkpt><trkpt lat="44.101674" lon="11.3927722"><ele>566.0</ele><time>2026-05-01T07:59:31.137Z</time></trkpt><trkpt lat="44.1015672" lon="11.3928473"><ele>566.0</ele><time>2026-05-01T07:59:32.137Z</time></trkpt><trkpt lat="44.1014573" lon="11.3929098"><ele>566.75</ele><time>2026-05-01T07:59:33.136Z</time></trkpt><trkpt lat="44.1013485" lon="11.3929683"><ele>567.5</ele><time>2026-05-01T07:59:34.137Z</time></trkpt><trkpt lat="44.1012403" lon="11.3930343"><ele>568.25</ele><time>2026-05-01T07:59:35.137Z</time></trkpt><trkpt lat="44.1011373" lon="11.3931057"><ele>569.0</ele><time>2026-05-01T07:59:36.137Z</time></trkpt><trkpt lat="44.101045" lon="11.3931842"><ele>569.6</ele><time>2026-05-01T07:59:37.138Z</time></trkpt><trkpt lat="44.1009605" lon="11.3932732"><ele>570.2</ele><time>2026-05-01T07:59:38.139Z</time></trkpt><trkpt lat="44.1008698" lon="11.3933645"><ele>570.8000000000001</ele><time>2026-05-01T07:59:39.138Z</time></trkpt><trkpt lat="44.1007765" lon="11.3934472"><ele>571.4</ele><time>2026-05-01T07:59:40.137Z</time></trkpt><trkpt lat="44.1006992" lon="11.393531"><ele>572.0</ele><time>2026-05-01T07:59:41.143Z</time></trkpt><trkpt lat="44.1006375" lon="11.393637"><ele>572.0</ele><time>2026-05-01T07:59:42.137Z</time></trkpt><trkpt lat="44.1005918" lon="11.3937595"><ele>572.0</ele><time>2026-05-01T07:59:43.137Z</time></trkpt><trkpt lat="44.1005528" lon="11.3939075"><ele>572.0</ele><time>2026-05-01T07:59:44.137Z</time></trkpt><trkpt lat="44.1005143" lon="11.3940688"><ele>572.0</ele><time>2026-05-01T07:59:45.137Z</time></trkpt><trkpt lat="44.1004757" lon="11.3942303"><ele>573.0</ele><time>2026-05-01T07:59:46.137Z</time></trkpt><trkpt lat="44.10044" lon="11.3943943"><ele>574.0</ele><time>2026-05-01T07:59:47.136Z</time></trkpt><trkpt lat="44.100418" lon="11.3945548"><ele>575.0</ele><time>2026-05-01T07:59:48.135Z</time></trkpt><trkpt lat="44.1004052" lon="11.3947057"><ele>576.0</ele><time>2026-05-01T07:59:49.135Z</time></trkpt><trkpt lat="44.100378" lon="11.3948368"><ele>577.0</ele><time>2026-05-01T07:59:50.136Z</time></trkpt><trkpt lat="44.1003227" lon="11.3949508"><ele>579.75</ele><time>2026-05-01T07:59:51.138Z</time></trkpt><trkpt lat="44.1002442" lon="11.395069"><ele>582.5</ele><time>2026-05-01T07:59:52.137Z</time></trkpt><trkpt lat="44.1001792" lon="11.395192"><ele>585.25</ele><time>2026-05-01T07:59:53.138Z</time></trkpt><trkpt lat="44.1001335" lon="11.3953365"><ele>588.0</ele><time>2026-05-01T07:59:54.137Z</time></trkpt><trkpt lat="44.1000923" lon="11.3954963"><ele>590.75</ele><time>2026-05-01T07:59:55.138Z</time></trkpt><trkpt lat="44.1000503" lon="11.3956682"><ele>593.5</ele><time>2026-05-01T07:59:56.138Z</time></trkpt><trkpt lat="44.1000073" lon="11.3958487"><ele>596.25</ele><time>2026-05-01T07:59:57.137Z</time></trkpt><trkpt lat="44.0999717" lon="11.3960187"><ele>599.0</ele><time>2026-05-01T07:59:58.136Z</time></trkpt><trkpt lat="44.0999475" lon="11.3961725"><ele>599.0</ele><time>2026-05-01T07:59:59.137Z</time></trkpt><trkpt lat="44.099941" lon="11.3963145"><ele>599.0</ele><time>2026-05-01T08:00:00.137Z</time></trkpt><trkpt lat="44.099952" lon="11.3964342"><ele>599.0</ele><time>2026-05-01T08:00:01.136Z</time></trkpt><trkpt lat="44.0999602" lon="11.3965377"><ele>599.0</ele><time>2026-05-01T08:00:02.138Z</time></trkpt><trkpt lat="44.099947" lon="11.3966255"><ele>599.0</ele><time>2026-05-01T08:00:03.138Z</time></trkpt><trkpt lat="44.0999068" lon="11.3967133"><ele>599.0</ele><time>2026-05-01T08:00:04.136Z</time></trkpt><trkpt lat="44.0998442" lon="11.396806"><ele>598.8</ele><time>2026-05-01T08:00:05.139Z</time></trkpt><trkpt lat="44.0997843" lon="11.3968973"><ele>598.5999999999999</ele><time>2026-05-01T08:00:06.138Z</time></trkpt><trkpt lat="44.0997337" lon="11.3970025"><ele>598.4</ele><time>2026-05-01T08:00:07.137Z</time></trkpt><trkpt lat="44.0996855" lon="11.3971267"><ele>598.1999999999999</ele><time>2026-05-01T08:00:08.137Z</time></trkpt><trkpt lat="44.0996343" lon="11.3972587"><ele>598.0</ele><time>2026-05-01T08:00:09.136Z</time></trkpt><trkpt lat="44.0995923" lon="11.3973698"><ele>600.0</ele><time>2026-05-01T08:00:10.136Z</time></trkpt><trkpt lat="44.0995838" lon="11.3975125"><ele>602.0</ele><time>2026-05-01T08:00:12.134Z</time></trkpt><trkpt lat="44.0995937" lon="11.3976092"><ele>604.0</ele><time>2026-05-01T08:00:13.134Z</time></trkpt><trkpt lat="44.0996087" lon="11.397723"><ele>606.0</ele><time>2026-05-01T08:00:14.134Z</time></trkpt><trkpt lat="44.0996308" lon="11.3978505"><ele>608.0</ele><time>2026-05-01T08:00:15.136Z</time></trkpt><trkpt lat="44.0996583" lon="11.3979723"><ele>610.0</ele><time>2026-05-01T08:00:16.137Z</time></trkpt><trkpt lat="44.0996845" lon="11.3980903"><ele>610.3333333333334</ele><time>2026-05-01T08:00:17.137Z</time></trkpt><trkpt lat="44.0997065" lon="11.3982082"><ele>610.6666666666667</ele><time>2026-05-01T08:00:18.136Z</time></trkpt><trkpt lat="44.0997103" lon="11.3983305"><ele>611.0</ele><time>2026-05-01T08:00:19.136Z</time></trkpt><trkpt lat="44.0996918" lon="11.3984507"><ele>611.3333333333334</ele><time>2026-05-01T08:00:20.137Z</time></trkpt><trkpt lat="44.099652" lon="11.398554"><ele>611.6666666666666</ele><time>2026-05-01T08:00:21.136Z</time></trkpt><trkpt lat="44.0995902" lon="11.3986483"><ele>612.0</ele><time>2026-05-01T08:00:22.136Z</time></trkpt><trkpt lat="44.0995183" lon="11.3987407"><ele>612.0</ele><time>2026-05-01T08:00:23.137Z</time></trkpt><trkpt lat="44.0994525" lon="11.3988332"><ele>612.0</ele><time>2026-05-01T08:00:24.136Z</time></trkpt><trkpt lat="44.0994002" lon="11.3989272"><ele>612.0</ele><time>2026-05-01T08:00:25.138Z</time></trkpt><trkpt lat="44.0993693" lon="11.3990247"><ele>612.0</ele><time>2026-05-01T08:00:26.136Z</time></trkpt><trkpt lat="44.0993592" lon="11.3991188"><ele>612.0</ele><time>2026-05-01T08:00:27.136Z</time></trkpt><trkpt lat="44.099351" lon="11.3992257"><ele>612.0</ele><time>2026-05-01T08:00:28.137Z</time></trkpt><trkpt lat="44.0993367" lon="11.3993353"><ele>610.6</ele><time>2026-05-01T08:00:29.136Z</time></trkpt><trkpt lat="44.0993157" lon="11.3994562"><ele>609.2</ele><time>2026-05-01T08:00:30.137Z</time></trkpt><trkpt lat="44.0992845" lon="11.399601"><ele>607.8</ele><time>2026-05-01T08:00:31.136Z</time></trkpt><trkpt lat="44.0992403" lon="11.3997378"><ele>606.4</ele><time>2026-05-01T08:00:32.137Z</time></trkpt><trkpt lat="44.0991815" lon="11.3998618"><ele>605.0</ele><time>2026-05-01T08:00:33.137Z</time></trkpt><trkpt lat="44.0991155" lon="11.399962"><ele>605.5</ele><time>2026-05-01T08:00:34.137Z</time></trkpt><trkpt lat="44.0990478" lon="11.4000432"><ele>606.0</ele><time>2026-05-01T08:00:35.136Z</time></trkpt><trkpt lat="44.098999" lon="11.4001212"><ele>606.5</ele><time>2026-05-01T08:00:36.134Z</time></trkpt><trkpt lat="44.0989753" lon="11.4002618"><ele>607.0</ele><time>2026-05-01T08:00:38.134Z</time></trkpt><trkpt lat="44.0990017" lon="11.4003467"><ele>607.5</ele><time>2026-05-01T08:00:39.132Z</time></trkpt><trkpt lat="44.0990412" lon="11.4004492"><ele>608.0</ele><time>2026-05-01T08:00:40.136Z</time></trkpt><trkpt lat="44.0990597" lon="11.4005543"><ele>608.0</ele><time>2026-05-01T08:00:41.138Z</time></trkpt><trkpt lat="44.0990635" lon="11.4006718"><ele>608.0</ele><time>2026-05-01T08:00:42.135Z</time></trkpt><trkpt lat="44.0990727" lon="11.4008107"><ele>608.0</ele><time>2026-05-01T08:00:43.136Z</time></trkpt><trkpt lat="44.0990962" lon="11.4009535"><ele>608.0</ele><time>2026-05-01T08:00:44.136Z</time></trkpt><trkpt lat="44.099137" lon="11.401079"><ele>608.0</ele><time>2026-05-01T08:00:45.135Z</time></trkpt><trkpt lat="44.0991995" lon="11.4012113"><ele>605.0</ele><time>2026-05-01T08:00:46.138Z</time></trkpt><trkpt lat="44.0992557" lon="11.4013552"><ele>602.0</ele><time>2026-05-01T08:00:47.136Z</time></trkpt><trkpt lat="44.09931" lon="11.4015023"><ele>599.0</ele><time>2026-05-01T08:00:48.134Z</time></trkpt><trkpt lat="44.0993528" lon="11.4016357"><ele>596.0</ele><time>2026-05-01T08:00:49.135Z</time></trkpt><trkpt lat="44.0993938" lon="11.4017543"><ele>593.0</ele><time>2026-05-01T08:00:50.135Z</time></trkpt><trkpt lat="44.0994275" lon="11.4018545"><ele>593.0</ele><time>2026-05-01T08:00:51.135Z</time></trkpt><trkpt lat="44.0994417" lon="11.4019498"><ele>593.0</ele><time>2026-05-01T08:00:52.136Z</time></trkpt><trkpt lat="44.099428" lon="11.4020483"><ele>593.0</ele><time>2026-05-01T08:00:53.136Z</time></trkpt><trkpt lat="44.0993793" lon="11.4021685"><ele>593.0</ele><time>2026-05-01T08:00:54.135Z</time></trkpt><trkpt lat="44.099318" lon="11.402294"><ele>593.0</ele><time>2026-05-01T08:00:55.136Z</time></trkpt><trkpt lat="44.099255" lon="11.4024135"><ele>591.3333333333333</ele><time>2026-05-01T08:00:56.137Z</time></trkpt><trkpt lat="44.0992072" lon="11.4025307"><ele>589.6666666666666</ele><time>2026-05-01T08:00:57.135Z</time></trkpt><trkpt lat="44.0991815" lon="11.4026397"><ele>588.0</ele><time>2026-05-01T08:00:58.134Z</time></trkpt><trkpt lat="44.0991927" lon="11.4027465"><ele>586.3333333333334</ele><time>2026-05-01T08:00:59.135Z</time></trkpt><trkpt lat="44.0992185" lon="11.4028632"><ele>584.6666666666667</ele><time>2026-05-01T08:01:00.135Z</time></trkpt><trkpt lat="44.0992258" lon="11.4029695"><ele>583.0</ele><time>2026-05-01T08:01:01.134Z</time></trkpt><trkpt lat="44.0992062" lon="11.4030692"><ele>582.3333333333334</ele><time>2026-05-01T08:01:02.135Z</time></trkpt><trkpt lat="44.0991752" lon="11.4031612"><ele>581.6666666666667</ele><time>2026-05-01T08:01:03.133Z</time></trkpt><trkpt lat="44.099144" lon="11.4032467"><ele>581.0</ele><time>2026-05-01T08:01:04.134Z</time></trkpt><trkpt lat="44.0990998" lon="11.403341"><ele>580.3333333333334</ele><time>2026-05-01T08:01:05.136Z</time></trkpt><trkpt lat="44.0990628" lon="11.4034327"><ele>579.6666666666666</ele><time>2026-05-01T08:01:06.135Z</time></trkpt><trkpt lat="44.099064" lon="11.403574"><ele>579.0</ele><time>2026-05-01T08:01:08.136Z</time></trkpt><trkpt lat="44.0991782" lon="11.403665"><ele>579.0</ele><time>2026-05-01T08:01:10.134Z</time></trkpt><trkpt lat="44.0992527" lon="11.4036715"><ele>579.0</ele><time>2026-05-01T08:01:11.133Z</time></trkpt><trkpt lat="44.0993322" lon="11.4036632"><ele>579.0</ele><time>2026-05-01T08:01:12.134Z</time></trkpt><trkpt lat="44.099413" lon="11.4036692"><ele>579.0</ele><time>2026-05-01T08:01:13.132Z</time></trkpt><trkpt lat="44.0994872" lon="11.4036748"><ele>579.0</ele><time>2026-05-01T08:01:14.135Z</time></trkpt><trkpt lat="44.0996067" lon="11.4037335"><ele>579.0</ele><time>2026-05-01T08:01:16.133Z</time></trkpt><trkpt lat="44.0996757" lon="11.4037925"><ele>580.0</ele><time>2026-05-01T08:01:17.134Z</time></trkpt><trkpt lat="44.099756" lon="11.4038605"><ele>581.0</ele><time>2026-05-01T08:01:18.133Z</time></trkpt><trkpt lat="44.099837" lon="11.4039215"><ele>582.0</ele><time>2026-05-01T08:01:19.134Z</time></trkpt><trkpt lat="44.0999033" lon="11.4039743"><ele>583.0</ele><time>2026-05-01T08:01:20.133Z</time></trkpt><trkpt lat="44.0999565" lon="11.404026"><ele>584.0</ele><time>2026-05-01T08:01:21.134Z</time></trkpt><trkpt lat="44.0999847" lon="11.4041752"><ele>585.0</ele><time>2026-05-01T08:01:23.137Z</time></trkpt><trkpt lat="44.099969" lon="11.4042865"><ele>585.0</ele><time>2026-05-01T08:01:24.135Z</time></trkpt><trkpt lat="44.0999625" lon="11.4043988"><ele>585.0</ele><time>2026-05-01T08:01:25.135Z</time></trkpt><trkpt lat="44.0999507" lon="11.4045027"><ele>585.0</ele><time>2026-05-01T08:01:26.134Z</time></trkpt><trkpt lat="44.09994" lon="11.4046055"><ele>585.0</ele><time>2026-05-01T08:01:27.133Z</time></trkpt><trkpt lat="44.0999197" lon="11.4047133"><ele>585.0</ele><time>2026-05-01T08:01:28.132Z</time></trkpt><trkpt lat="44.0998975" lon="11.404824"><ele>585.0</ele><time>2026-05-01T08:01:29.135Z</time></trkpt><trkpt lat="44.0998787" lon="11.4049255"><ele>590.0</ele><time>2026-05-01T08:01:30.134Z</time></trkpt><trkpt lat="44.0998542" lon="11.4050262"><ele>595.0</ele><time>2026-05-01T08:01:31.135Z</time></trkpt><trkpt lat="44.0998152" lon="11.4051175"><ele>600.0</ele><time>2026-05-01T08:01:32.135Z</time></trkpt><trkpt lat="44.099773" lon="11.4052117"><ele>605.0</ele><time>2026-05-01T08:01:33.135Z</time></trkpt><trkpt lat="44.0997338" lon="11.4052825"><ele>610.0</ele><time>2026-05-01T08:01:34.135Z</time></trkpt><trkpt lat="44.0996428" lon="11.4053752"><ele>615.0</ele><time>2026-05-01T08:01:36.135Z</time></trkpt><trkpt lat="44.0995855" lon="11.4054185"><ele>615.0</ele><time>2026-05-01T08:01:37.134Z</time></trkpt><trkpt lat="44.0995252" lon="11.4054613"><ele>615.0</ele><time>2026-05-01T08:01:38.134Z</time></trkpt><trkpt lat="44.0994637" lon="11.4055028"><ele>615.0</ele><time>2026-05-01T08:01:39.135Z</time></trkpt><trkpt lat="44.0994025" lon="11.4055357"><ele>615.0</ele><time>2026-05-01T08:01:40.135Z</time></trkpt><trkpt lat="44.0993242" lon="11.4055655"><ele>615.0</ele><time>2026-05-01T08:01:41.135Z</time></trkpt><trkpt lat="44.0992327" lon="11.4055948"><ele>615.0</ele><time>2026-05-01T08:01:42.134Z</time></trkpt><trkpt lat="44.0991373" lon="11.4056207"><ele>619.0</ele><time>2026-05-01T08:01:43.134Z</time></trkpt><trkpt lat="44.099043" lon="11.4056547"><ele>623.0</ele><time>2026-05-01T08:01:44.135Z</time></trkpt><trkpt lat="44.0989655" lon="11.4056927"><ele>627.0</ele><time>2026-05-01T08:01:45.134Z</time></trkpt><trkpt lat="44.098907" lon="11.4057425"><ele>631.0</ele><time>2026-05-01T08:01:46.133Z</time></trkpt><trkpt lat="44.0988535" lon="11.4058058"><ele>635.0</ele><time>2026-05-01T08:01:47.134Z</time></trkpt><trkpt lat="44.0988097" lon="11.4059597"><ele>639.0</ele><time>2026-05-01T08:01:49.133Z</time></trkpt><trkpt lat="44.0987763" lon="11.4061132"><ele>639.0</ele><time>2026-05-01T08:01:51.133Z</time></trkpt><trkpt lat="44.0987405" lon="11.4061855"><ele>639.0</ele><time>2026-05-01T08:01:52.132Z</time></trkpt><trkpt lat="44.0986805" lon="11.4062505"><ele>639.0</ele><time>2026-05-01T08:01:53.133Z</time></trkpt><trkpt lat="44.0985978" lon="11.4063255"><ele>639.0</ele><time>2026-05-01T08:01:54.133Z</time></trkpt><trkpt lat="44.0984978" lon="11.4064202"><ele>639.0</ele><time>2026-05-01T08:01:55.133Z</time></trkpt><trkpt lat="44.0984123" lon="11.4064923"><ele>639.5</ele><time>2026-05-01T08:01:56.134Z</time></trkpt><trkpt lat="44.0983435" lon="11.4065665"><ele>640.0</ele><time>2026-05-01T08:01:57.133Z</time></trkpt><trkpt lat="44.0982988" lon="11.4066582"><ele>640.5</ele><time>2026-05-01T08:01:58.135Z</time></trkpt><trkpt lat="44.0982683" lon="11.4067558"><ele>641.0</ele><time>2026-05-01T08:01:59.134Z</time></trkpt><trkpt lat="44.0982418" lon="11.406864"><ele>641.5</ele><time>2026-05-01T08:02:00.136Z</time></trkpt><trkpt lat="44.0982048" lon="11.406961"><ele>642.0</ele><time>2026-05-01T08:02:01.135Z</time></trkpt><trkpt lat="44.0981618" lon="11.4070407"><ele>642.0</ele><time>2026-05-01T08:02:02.135Z</time></trkpt><trkpt lat="44.0981105" lon="11.407131"><ele>642.0</ele><time>2026-05-01T08:02:03.135Z</time></trkpt><trkpt lat="44.0980595" lon="11.4072358"><ele>642.0</ele><time>2026-05-01T08:02:04.134Z</time></trkpt><trkpt lat="44.0980022" lon="11.4073467"><ele>642.0</ele><time>2026-05-01T08:02:05.136Z</time></trkpt><trkpt lat="44.0979438" lon="11.4074422"><ele>642.0</ele><time>2026-05-01T08:02:06.134Z</time></trkpt><trkpt lat="44.0978883" lon="11.4075435"><ele>644.1666666666666</ele><time>2026-05-01T08:02:07.134Z</time></trkpt><trkpt lat="44.0978392" lon="11.4076397"><ele>646.3333333333334</ele><time>2026-05-01T08:02:08.135Z</time></trkpt><trkpt lat="44.0977957" lon="11.4077417"><ele>648.5</ele><time>2026-05-01T08:02:09.134Z</time></trkpt><trkpt lat="44.0977533" lon="11.4078542"><ele>650.6666666666667</ele><time>2026-05-01T08:02:10.134Z</time></trkpt><trkpt lat="44.0977105" lon="11.4079607"><ele>652.8333333333334</ele><time>2026-05-01T08:02:11.136Z</time></trkpt><trkpt lat="44.0976645" lon="11.408049"><ele>655.0</ele><time>2026-05-01T08:02:12.134Z</time></trkpt><trkpt lat="44.0975992" lon="11.4081112"><ele>656.0</ele><time>2026-05-01T08:02:13.134Z</time></trkpt><trkpt lat="44.0975035" lon="11.4081627"><ele>657.0</ele><time>2026-05-01T08:02:14.133Z</time></trkpt><trkpt lat="44.0974035" lon="11.4081905"><ele>658.0</ele><time>2026-05-01T08:02:15.135Z</time></trkpt><trkpt lat="44.0973108" lon="11.4081977"><ele>659.0</ele><time>2026-05-01T08:02:16.133Z</time></trkpt><trkpt lat="44.097228" lon="11.4082165"><ele>660.0</ele><time>2026-05-01T08:02:17.133Z</time></trkpt><trkpt lat="44.0971485" lon="11.4082627"><ele>660.4</ele><time>2026-05-01T08:02:18.135Z</time></trkpt><trkpt lat="44.0970623" lon="11.4083182"><ele>660.8</ele><time>2026-05-01T08:02:19.135Z</time></trkpt><trkpt lat="44.096968" lon="11.4083617"><ele>661.2</ele><time>2026-05-01T08:02:20.134Z</time></trkpt><trkpt lat="44.0968612" lon="11.4083935"><ele>661.6</ele><time>2026-05-01T08:02:21.134Z</time></trkpt><trkpt lat="44.0967567" lon="11.4084152"><ele>662.0</ele><time>2026-05-01T08:02:22.134Z</time></trkpt><trkpt lat="44.0966625" lon="11.408441"><ele>663.5</ele><time>2026-05-01T08:02:23.135Z</time></trkpt><trkpt lat="44.0965767" lon="11.408472"><ele>665.0</ele><time>2026-05-01T08:02:24.134Z</time></trkpt><trkpt lat="44.0964977" lon="11.4084832"><ele>666.5</ele><time>2026-05-01T08:02:25.134Z</time></trkpt><trkpt lat="44.0964223" lon="11.408459"><ele>668.0</ele><time>2026-05-01T08:02:26.122Z</time></trkpt><trkpt lat="44.0963357" lon="11.4084198"><ele>669.5</ele><time>2026-05-01T08:02:27.135Z</time></trkpt><trkpt lat="44.0962492" lon="11.4083963"><ele>671.0</ele><time>2026-05-01T08:02:28.133Z</time></trkpt><trkpt lat="44.0961557" lon="11.4083802"><ele>671.0</ele><time>2026-05-01T08:02:29.134Z</time></trkpt><trkpt lat="44.0960568" lon="11.4083505"><ele>671.0</ele><time>2026-05-01T08:02:30.135Z</time></trkpt><trkpt lat="44.0959768" lon="11.4083248"><ele>671.0</ele><time>2026-05-01T08:02:31.133Z</time></trkpt><trkpt lat="44.0959122" lon="11.408316"><ele>671.0</ele><time>2026-05-01T08:02:32.134Z</time></trkpt><trkpt lat="44.0958438" lon="11.4082323"><ele>671.0</ele><time>2026-05-01T08:02:34.134Z</time></trkpt><trkpt lat="44.0958042" lon="11.4080682"><ele>669.5999999999999</ele><time>2026-05-01T08:02:36.133Z</time></trkpt><trkpt lat="44.0957695" lon="11.4079475"><ele>668.2</ele><time>2026-05-01T08:02:37.135Z</time></trkpt><trkpt lat="44.0957252" lon="11.4078212"><ele>666.8</ele><time>2026-05-01T08:02:38.133Z</time></trkpt><trkpt lat="44.0956843" lon="11.4077083"><ele>665.4000000000001</ele><time>2026-05-01T08:02:39.132Z</time></trkpt><trkpt lat="44.0956387" lon="11.4076123"><ele>664.0</ele><time>2026-05-01T08:02:40.132Z</time></trkpt><trkpt lat="44.0955772" lon="11.4075175"><ele>665.2</ele><time>2026-05-01T08:02:41.133Z</time></trkpt><trkpt lat="44.0955122" lon="11.4074118"><ele>666.4000000000001</ele><time>2026-05-01T08:02:42.133Z</time></trkpt><trkpt lat="44.0954588" lon="11.4073137"><ele>667.6</ele><time>2026-05-01T08:02:43.135Z</time></trkpt><trkpt lat="44.095412" lon="11.407236"><ele>668.8</ele><time>2026-05-01T08:02:44.135Z</time></trkpt><trkpt lat="44.0953352" lon="11.407146"><ele>670.0</ele><time>2026-05-01T08:02:45.136Z</time></trkpt><trkpt lat="44.0952623" lon="11.4070493"><ele>670.0</ele><time>2026-05-01T08:02:46.135Z</time></trkpt><trkpt lat="44.095186" lon="11.4069578"><ele>670.0</ele><time>2026-05-01T08:02:47.137Z</time></trkpt><trkpt lat="44.0951147" lon="11.4068607"><ele>670.0</ele><time>2026-05-01T08:02:48.136Z</time></trkpt><trkpt lat="44.0950603" lon="11.4067783"><ele>670.0</ele><time>2026-05-01T08:02:49.137Z</time></trkpt><trkpt lat="44.0949755" lon="11.4067142"><ele>670.0</ele><time>2026-05-01T08:02:51.137Z</time></trkpt><trkpt lat="44.0949212" lon="11.4067877"><ele>671.2</ele><time>2026-05-01T08:02:53.137Z</time></trkpt><trkpt lat="44.0948557" lon="11.406945"><ele>672.4</ele><time>2026-05-01T08:02:55.136Z</time></trkpt><trkpt lat="44.0948265" lon="11.4070242"><ele>673.5999999999999</ele><time>2026-05-01T08:02:56.137Z</time></trkpt><trkpt lat="44.0947958" lon="11.407101"><ele>674.8</ele><time>2026-05-01T08:02:57.136Z</time></trkpt><trkpt lat="44.094747" lon="11.4072162"><ele>676.0</ele><time>2026-05-01T08:02:59.136Z</time></trkpt><trkpt lat="44.0947372" lon="11.4073722"><ele>676.0</ele><time>2026-05-01T08:03:01.137Z</time></trkpt><trkpt lat="44.0946848" lon="11.4075218"><ele>676.0</ele><time>2026-05-01T08:03:03.134Z</time></trkpt><trkpt lat="44.0946307" lon="11.4076502"><ele>676.0</ele><time>2026-05-01T08:03:05.134Z</time></trkpt><trkpt lat="44.0946283" lon="11.4078272"><ele>676.0</ele><time>2026-05-01T08:03:07.137Z</time></trkpt><trkpt lat="44.094639" lon="11.4079817"><ele>678.3333333333334</ele><time>2026-05-01T08:03:09.136Z</time></trkpt><trkpt lat="44.0946753" lon="11.408088"><ele>680.6666666666667</ele><time>2026-05-01T08:03:11.137Z</time></trkpt><trkpt lat="44.0946922" lon="11.4081762"><ele>683.0</ele><time>2026-05-01T08:03:13.137Z</time></trkpt><trkpt lat="44.0947155" lon="11.408328"><ele>685.3333333333334</ele><time>2026-05-01T08:03:15.138Z</time></trkpt><trkpt lat="44.09473" lon="11.4084327"><ele>687.6666666666666</ele><time>2026-05-01T08:03:16.137Z</time></trkpt><trkpt lat="44.0947407" lon="11.4085267"><ele>690.0</ele><time>2026-05-01T08:03:17.136Z</time></trkpt><trkpt lat="44.0947468" lon="11.4086232"><ele>690.0</ele><time>2026-05-01T08:03:18.136Z</time></trkpt><trkpt lat="44.0947505" lon="11.4087152"><ele>690.0</ele><time>2026-05-01T08:03:19.135Z</time></trkpt><trkpt lat="44.094736" lon="11.4088752"><ele>690.0</ele><time>2026-05-01T08:03:21.136Z</time></trkpt><trkpt lat="44.0946973" lon="11.4090395"><ele>690.0</ele><time>2026-05-01T08:03:23.136Z</time></trkpt><trkpt lat="44.0946825" lon="11.4091317"><ele>690.0</ele><time>2026-05-01T08:03:24.136Z</time></trkpt><trkpt lat="44.0946663" lon="11.4092335"><ele>690.0</ele><time>2026-05-01T08:03:25.136Z</time></trkpt><trkpt lat="44.094659" lon="11.4093303"><ele>691.5</ele><time>2026-05-01T08:03:26.136Z</time></trkpt><trkpt lat="44.0946553" lon="11.4094245"><ele>693.0</ele><time>2026-05-01T08:03:27.134Z</time></trkpt><trkpt lat="44.094648" lon="11.4095222"><ele>694.5</ele><time>2026-05-01T08:03:28.135Z</time></trkpt><trkpt lat="44.0946343" lon="11.4096242"><ele>696.0</ele><time>2026-05-01T08:03:29.134Z</time></trkpt><trkpt lat="44.0946267" lon="11.4097235"><ele>697.5</ele><time>2026-05-01T08:03:30.135Z</time></trkpt><trkpt lat="44.0945937" lon="11.409887"><ele>699.0</ele><time>2026-05-01T08:03:32.137Z</time></trkpt><trkpt lat="44.0945735" lon="11.4100132"><ele>700.8000000000001</ele><time>2026-05-01T08:03:34.135Z</time></trkpt><trkpt lat="44.094552" lon="11.4101628"><ele>702.6</ele><time>2026-05-01T08:03:36.136Z</time></trkpt><trkpt lat="44.0945428" lon="11.4102935"><ele>704.4</ele><time>2026-05-01T08:03:38.136Z</time></trkpt><trkpt lat="44.0945693" lon="11.4104345"><ele>706.2</ele><time>2026-05-01T08:03:40.134Z</time></trkpt><trkpt lat="44.0945872" lon="11.4105553"><ele>708.0</ele><time>2026-05-01T08:03:42.135Z</time></trkpt><trkpt lat="44.094637" lon="11.4106933"><ele>709.0</ele><time>2026-05-01T08:03:44.137Z</time></trkpt><trkpt lat="44.094633" lon="11.410859"><ele>710.0</ele><time>2026-05-01T08:03:46.135Z</time></trkpt><trkpt lat="44.0946105" lon="11.410944"><ele>711.0</ele><time>2026-05-01T08:03:47.136Z</time></trkpt><trkpt lat="44.0945428" lon="11.4110937"><ele>712.0</ele><time>2026-05-01T08:03:49.137Z</time></trkpt><trkpt lat="44.094491" lon="11.4111813"><ele>713.0</ele><time>2026-05-01T08:03:50.137Z</time></trkpt><trkpt lat="44.0944377" lon="11.411265"><ele>714.2</ele><time>2026-05-01T08:03:51.136Z</time></trkpt><trkpt lat="44.0943925" lon="11.4113533"><ele>715.4</ele><time>2026-05-01T08:03:52.134Z</time></trkpt><trkpt lat="44.0943637" lon="11.411495"><ele>716.6</ele><time>2026-05-01T08:03:54.133Z</time></trkpt><trkpt lat="44.0943095" lon="11.4115847"><ele>717.8000000000001</ele><time>2026-05-01T08:03:56.137Z</time></trkpt><trkpt lat="44.0942573" lon="11.411637"><ele>719.0</ele><time>2026-05-01T08:03:57.136Z</time></trkpt><trkpt lat="44.094134" lon="11.4116848"><ele>717.4000000000001</ele><time>2026-05-01T08:03:59.136Z</time></trkpt><trkpt lat="44.0940522" lon="11.4116945"><ele>715.8</ele><time>2026-05-01T08:04:00.137Z</time></trkpt><trkpt lat="44.0939633" lon="11.411708"><ele>714.2</ele><time>2026-05-01T08:04:01.136Z</time></trkpt><trkpt lat="44.0938778" lon="11.411718"><ele>712.5999999999999</ele><time>2026-05-01T08:04:02.136Z</time></trkpt><trkpt lat="44.0938018" lon="11.4117277"><ele>711.0</ele><time>2026-05-01T08:04:03.136Z</time></trkpt><trkpt lat="44.0936853" lon="11.4117572"><ele>711.0</ele><time>2026-05-01T08:04:05.136Z</time></trkpt><trkpt lat="44.093616" lon="11.4118435"><ele>711.0</ele><time>2026-05-01T08:04:07.136Z</time></trkpt><trkpt lat="44.0935677" lon="11.4119577"><ele>711.0</ele><time>2026-05-01T08:04:09.135Z</time></trkpt><trkpt lat="44.0935465" lon="11.4121217"><ele>711.0</ele><time>2026-05-01T08:04:11.136Z</time></trkpt><trkpt lat="44.0935545" lon="11.4123018"><ele>711.0</ele><time>2026-05-01T08:04:13.135Z</time></trkpt><trkpt lat="44.093558" lon="11.4124035"><ele>712.4</ele><time>2026-05-01T08:04:14.136Z</time></trkpt><trkpt lat="44.0935498" lon="11.412498"><ele>713.8</ele><time>2026-05-01T08:04:15.136Z</time></trkpt><trkpt lat="44.093486" lon="11.412674"><ele>715.1999999999999</ele><time>2026-05-01T08:04:17.133Z</time></trkpt><trkpt lat="44.0934388" lon="11.4127853"><ele>716.5999999999999</ele><time>2026-05-01T08:04:18.133Z</time></trkpt><trkpt lat="44.0933983" lon="11.4128855"><ele>718.0</ele><time>2026-05-01T08:04:19.137Z</time></trkpt><trkpt lat="44.0933512" lon="11.4129728"><ele>718.8333333333334</ele><time>2026-05-01T08:04:20.134Z</time></trkpt><trkpt lat="44.093293" lon="11.4130497"><ele>719.6666666666667</ele><time>2026-05-01T08:04:21.135Z</time></trkpt><trkpt lat="44.0932413" lon="11.4131145"><ele>720.5</ele><time>2026-05-01T08:04:22.135Z</time></trkpt><trkpt lat="44.0931893" lon="11.4131658"><ele>721.3333333333334</ele><time>2026-05-01T08:04:23.135Z</time></trkpt><trkpt lat="44.0931315" lon="11.4132103"><ele>722.1666666666666</ele><time>2026-05-01T08:04:24.135Z</time></trkpt><trkpt lat="44.0930288" lon="11.4132968"><ele>723.0</ele><time>2026-05-01T08:04:26.136Z</time></trkpt><trkpt lat="44.0929643" lon="11.4133572"><ele>720.5714285714287</ele><time>2026-05-01T08:04:27.135Z</time></trkpt><trkpt lat="44.0928938" lon="11.413421"><ele>718.1428571428571</ele><time>2026-05-01T08:04:28.135Z</time></trkpt><trkpt lat="44.092831" lon="11.4134867"><ele>715.7142857142858</ele><time>2026-05-01T08:04:29.135Z</time></trkpt><trkpt lat="44.0927697" lon="11.413542"><ele>713.2857142857143</ele><time>2026-05-01T08:04:30.134Z</time></trkpt><trkpt lat="44.0927065" lon="11.4135838"><ele>710.8571428571429</ele><time>2026-05-01T08:04:31.135Z</time></trkpt><trkpt lat="44.0926452" lon="11.4136217"><ele>708.4285714285714</ele><time>2026-05-01T08:04:32.135Z</time></trkpt><trkpt lat="44.0925907" lon="11.41367"><ele>706.0</ele><time>2026-05-01T08:04:33.136Z</time></trkpt><trkpt lat="44.0925337" lon="11.4137267"><ele>706.0</ele><time>2026-05-01T08:04:34.135Z</time></trkpt><trkpt lat="44.0924747" lon="11.413783"><ele>706.0</ele><time>2026-05-01T08:04:35.135Z</time></trkpt><trkpt lat="44.0924068" lon="11.4138533"><ele>706.0</ele><time>2026-05-01T08:04:36.135Z</time></trkpt><trkpt lat="44.0923232" lon="11.4139348"><ele>706.0</ele><time>2026-05-01T08:04:37.135Z</time></trkpt><trkpt lat="44.092238" lon="11.4140148"><ele>706.0</ele><time>2026-05-01T08:04:38.136Z</time></trkpt><trkpt lat="44.0921537" lon="11.4140857"><ele>705.8</ele><time>2026-05-01T08:04:39.136Z</time></trkpt><trkpt lat="44.092056" lon="11.4141377"><ele>705.5999999999999</ele><time>2026-05-01T08:04:40.137Z</time></trkpt><trkpt lat="44.0919502" lon="11.4141827"><ele>705.4</ele><time>2026-05-01T08:04:41.135Z</time></trkpt><trkpt lat="44.0918448" lon="11.4142362"><ele>705.2</ele><time>2026-05-01T08:04:42.134Z</time></trkpt><trkpt lat="44.0917393" lon="11.4142997"><ele>705.0</ele><time>2026-05-01T08:04:43.134Z</time></trkpt><trkpt lat="44.0916403" lon="11.4143602"><ele>704.5</ele><time>2026-05-01T08:04:44.134Z</time></trkpt><trkpt lat="44.0915538" lon="11.4144003"><ele>704.0</ele><time>2026-05-01T08:04:45.135Z</time></trkpt><trkpt lat="44.09148" lon="11.414416"><ele>703.5</ele><time>2026-05-01T08:04:46.136Z</time></trkpt><trkpt lat="44.0914037" lon="11.4144072"><ele>703.0</ele><time>2026-05-01T08:04:47.137Z</time></trkpt><trkpt lat="44.0913205" lon="11.4143685"><ele>702.5</ele><time>2026-05-01T08:04:48.137Z</time></trkpt><trkpt lat="44.0912352" lon="11.4143173"><ele>702.0</ele><time>2026-05-01T08:04:49.136Z</time></trkpt><trkpt lat="44.0911483" lon="11.4142895"><ele>702.0</ele><time>2026-05-01T08:04:50.137Z</time></trkpt><trkpt lat="44.0910582" lon="11.4143018"><ele>702.0</ele><time>2026-05-01T08:04:51.137Z</time></trkpt><trkpt lat="44.0909793" lon="11.4143427"><ele>702.0</ele><time>2026-05-01T08:04:52.135Z</time></trkpt><trkpt lat="44.0909148" lon="11.4144173"><ele>702.0</ele><time>2026-05-01T08:04:53.136Z</time></trkpt><trkpt lat="44.0908495" lon="11.4145168"><ele>702.0</ele><time>2026-05-01T08:04:54.135Z</time></trkpt><trkpt lat="44.0907837" lon="11.4146157"><ele>700.0</ele><time>2026-05-01T08:04:55.136Z</time></trkpt><trkpt lat="44.0907193" lon="11.4147083"><ele>698.0</ele><time>2026-05-01T08:04:56.136Z</time></trkpt><trkpt lat="44.0906528" lon="11.4147647"><ele>696.0</ele><time>2026-05-01T08:04:57.136Z</time></trkpt><trkpt lat="44.0905798" lon="11.414774"><ele>694.0</ele><time>2026-05-01T08:04:58.137Z</time></trkpt><trkpt lat="44.0904932" lon="11.4147573"><ele>692.0</ele><time>2026-05-01T08:04:59.136Z</time></trkpt><trkpt lat="44.0904043" lon="11.4147327"><ele>690.0</ele><time>2026-05-01T08:05:00.135Z</time></trkpt><trkpt lat="44.0903157" lon="11.4146992"><ele>690.4</ele><time>2026-05-01T08:05:01.135Z</time></trkpt><trkpt lat="44.0902252" lon="11.414654"><ele>690.8</ele><time>2026-05-01T08:05:02.137Z</time></trkpt><trkpt lat="44.0901423" lon="11.4145898"><ele>691.2</ele><time>2026-05-01T08:05:03.136Z</time></trkpt><trkpt lat="44.0900678" lon="11.4145152"><ele>691.6</ele><time>2026-05-01T08:05:04.137Z</time></trkpt><trkpt lat="44.0899892" lon="11.4144568"><ele>692.0</ele><time>2026-05-01T08:05:05.134Z</time></trkpt><trkpt lat="44.0899088" lon="11.4144343"><ele>690.5</ele><time>2026-05-01T08:05:06.132Z</time></trkpt><trkpt lat="44.089819" lon="11.4144352"><ele>689.0</ele><time>2026-05-01T08:05:07.132Z</time></trkpt><trkpt lat="44.0897048" lon="11.4144587"><ele>687.5</ele><time>2026-05-01T08:05:08.134Z</time></trkpt><trkpt lat="44.0895813" lon="11.4145028"><ele>686.0</ele><time>2026-05-01T08:05:09.135Z</time></trkpt><trkpt lat="44.089458" lon="11.4145647"><ele>686.0</ele><time>2026-05-01T08:05:10.138Z</time></trkpt><trkpt lat="44.0893395" lon="11.4146463"><ele>686.0</ele><time>2026-05-01T08:05:11.137Z</time></trkpt><trkpt lat="44.0892227" lon="11.4147327"><ele>686.0</ele><time>2026-05-01T08:05:12.135Z</time></trkpt><trkpt lat="44.089107" lon="11.4148023"><ele>686.0</ele><time>2026-05-01T08:05:13.135Z</time></trkpt><trkpt lat="44.088994" lon="11.4148638"><ele>687.5</ele><time>2026-05-01T08:05:14.136Z</time></trkpt><trkpt lat="44.0888837" lon="11.414934"><ele>689.0</ele><time>2026-05-01T08:05:15.137Z</time></trkpt><trkpt lat="44.088779" lon="11.4150162"><ele>690.5</ele><time>2026-05-01T08:05:16.136Z</time></trkpt><trkpt lat="44.0886835" lon="11.4151192"><ele>692.0</ele><time>2026-05-01T08:05:17.135Z</time></trkpt><trkpt lat="44.0885902" lon="11.4152338"><ele>692.0</ele><time>2026-05-01T08:05:18.136Z</time></trkpt><trkpt lat="44.0884952" lon="11.415346"><ele>692.0</ele><time>2026-05-01T08:05:19.138Z</time></trkpt><trkpt lat="44.0883978" lon="11.4154592"><ele>692.0</ele><time>2026-05-01T08:05:20.137Z</time></trkpt><trkpt lat="44.088306" lon="11.4155745"><ele>692.0</ele><time>2026-05-01T08:05:21.137Z</time></trkpt><trkpt lat="44.0882215" lon="11.4156907"><ele>694.25</ele><time>2026-05-01T08:05:22.137Z</time></trkpt><trkpt lat="44.0881355" lon="11.4158"><ele>696.5</ele><time>2026-05-01T08:05:23.138Z</time></trkpt><trkpt lat="44.0880422" lon="11.4159025"><ele>698.75</ele><time>2026-05-01T08:05:24.136Z</time></trkpt><trkpt lat="44.0879423" lon="11.4160058"><ele>701.0</ele><time>2026-05-01T08:05:25.136Z</time></trkpt><trkpt lat="44.0878367" lon="11.4161128"><ele>701.0</ele><time>2026-05-01T08:05:26.138Z</time></trkpt><trkpt lat="44.0877263" lon="11.4162122"><ele>701.0</ele><time>2026-05-01T08:05:27.137Z</time></trkpt><trkpt lat="44.0876115" lon="11.4163003"><ele>701.0</ele><time>2026-05-01T08:05:28.139Z</time></trkpt><trkpt lat="44.0874927" lon="11.4163785"><ele>701.0</ele><time>2026-05-01T08:05:29.138Z</time></trkpt><trkpt lat="44.0873735" lon="11.416453"><ele>704.25</ele><time>2026-05-01T08:05:30.134Z</time></trkpt><trkpt lat="44.0872615" lon="11.4165175"><ele>707.5</ele><time>2026-05-01T08:05:31.135Z</time></trkpt><trkpt lat="44.0871507" lon="11.4165688"><ele>710.75</ele><time>2026-05-01T08:05:32.135Z</time></trkpt><trkpt lat="44.0870388" lon="11.4165993"><ele>714.0</ele><time>2026-05-01T08:05:33.135Z</time></trkpt><trkpt lat="44.086931" lon="11.4165993"><ele>714.0</ele><time>2026-05-01T08:05:34.138Z</time></trkpt><trkpt lat="44.086821" lon="11.4165742"><ele>714.0</ele><time>2026-05-01T08:05:35.135Z</time></trkpt><trkpt lat="44.086705" lon="11.4165202"><ele>714.0</ele><time>2026-05-01T08:05:36.136Z</time></trkpt><trkpt lat="44.0865843" lon="11.4164493"><ele>714.0</ele><time>2026-05-01T08:05:37.136Z</time></trkpt><trkpt lat="44.0864493" lon="11.4163772"><ele>710.0</ele><time>2026-05-01T08:05:38.135Z</time></trkpt><trkpt lat="44.0863133" lon="11.4163127"><ele>706.0</ele><time>2026-05-01T08:05:39.136Z</time></trkpt><trkpt lat="44.086181" lon="11.416249"><ele>702.0</ele><time>2026-05-01T08:05:40.136Z</time></trkpt><trkpt lat="44.0860487" lon="11.416186"><ele>698.0</ele><time>2026-05-01T08:05:41.136Z</time></trkpt><trkpt lat="44.0859092" lon="11.4161212"><ele>698.0</ele><time>2026-05-01T08:05:42.135Z</time></trkpt><trkpt lat="44.0857743" lon="11.4160578"><ele>698.0</ele><time>2026-05-01T08:05:43.136Z</time></trkpt><trkpt lat="44.0856438" lon="11.416007"><ele>698.0</ele><time>2026-05-01T08:05:44.137Z</time></trkpt><trkpt lat="44.085508" lon="11.415984"><ele>698.0</ele><time>2026-05-01T08:05:45.135Z</time></trkpt><trkpt lat="44.0853777" lon="11.4159995"><ele>698.25</ele><time>2026-05-01T08:05:46.134Z</time></trkpt><trkpt lat="44.0852555" lon="11.4160277"><ele>698.5</ele><time>2026-05-01T08:05:47.136Z</time></trkpt><trkpt lat="44.0851387" lon="11.4160365"><ele>698.75</ele><time>2026-05-01T08:05:48.137Z</time></trkpt><trkpt lat="44.085022" lon="11.4160092"><ele>699.0</ele><time>2026-05-01T08:05:49.136Z</time></trkpt><trkpt lat="44.0849058" lon="11.4159535"><ele>699.0</ele><time>2026-05-01T08:05:50.138Z</time></trkpt><trkpt lat="44.0847853" lon="11.4158795"><ele>699.0</ele><time>2026-05-01T08:05:51.135Z</time></trkpt><trkpt lat="44.0846725" lon="11.415792"><ele>699.0</ele><time>2026-05-01T08:05:52.137Z</time></trkpt><trkpt lat="44.0845755" lon="11.4156875"><ele>699.0</ele><time>2026-05-01T08:05:53.136Z</time></trkpt><trkpt lat="44.0844832" lon="11.4155608"><ele>696.25</ele><time>2026-05-01T08:05:54.134Z</time></trkpt><trkpt lat="44.0843805" lon="11.4154483"><ele>693.5</ele><time>2026-05-01T08:05:55.133Z</time></trkpt><trkpt lat="44.0842637" lon="11.4153698"><ele>690.75</ele><time>2026-05-01T08:05:56.133Z</time></trkpt><trkpt lat="44.0841287" lon="11.4153315"><ele>688.0</ele><time>2026-05-01T08:05:57.132Z</time></trkpt><trkpt lat="44.0839738" lon="11.4153187"><ele>686.3333333333334</ele><time>2026-05-01T08:05:58.133Z</time></trkpt><trkpt lat="44.0838077" lon="11.4153115"><ele>684.6666666666666</ele><time>2026-05-01T08:05:59.136Z</time></trkpt><trkpt lat="44.083647" lon="11.4153067"><ele>683.0</ele><time>2026-05-01T08:06:00.135Z</time></trkpt><trkpt lat="44.0834907" lon="11.4153108"><ele>683.0</ele><time>2026-05-01T08:06:01.135Z</time></trkpt><trkpt lat="44.0833425" lon="11.4153367"><ele>683.0</ele><time>2026-05-01T08:06:02.135Z</time></trkpt><trkpt lat="44.0832078" lon="11.415377"><ele>683.0</ele><time>2026-05-01T08:06:03.135Z</time></trkpt><trkpt lat="44.0830878" lon="11.4154173"><ele>683.0</ele><time>2026-05-01T08:06:04.136Z</time></trkpt><trkpt lat="44.0829783" lon="11.4154443"><ele>682.4</ele><time>2026-05-01T08:06:05.136Z</time></trkpt><trkpt lat="44.0828728" lon="11.415442"><ele>681.8</ele><time>2026-05-01T08:06:06.135Z</time></trkpt><trkpt lat="44.0827718" lon="11.4154002"><ele>681.2</ele><time>2026-05-01T08:06:07.135Z</time></trkpt><trkpt lat="44.0826783" lon="11.4153225"><ele>680.6</ele><time>2026-05-01T08:06:08.136Z</time></trkpt><trkpt lat="44.0826007" lon="11.4152162"><ele>680.0</ele><time>2026-05-01T08:06:09.137Z</time></trkpt><trkpt lat="44.0825417" lon="11.415092"><ele>680.0</ele><time>2026-05-01T08:06:10.135Z</time></trkpt><trkpt lat="44.082482" lon="11.4149542"><ele>680.0</ele><time>2026-05-01T08:06:11.135Z</time></trkpt><trkpt lat="44.0824147" lon="11.4148133"><ele>680.0</ele><time>2026-05-01T08:06:12.135Z</time></trkpt><trkpt lat="44.0823485" lon="11.4146758"><ele>680.0</ele><time>2026-05-01T08:06:13.134Z</time></trkpt><trkpt lat="44.082284" lon="11.4145392"><ele>677.75</ele><time>2026-05-01T08:06:14.136Z</time></trkpt><trkpt lat="44.082218" lon="11.4144005"><ele>675.5</ele><time>2026-05-01T08:06:15.136Z</time></trkpt><trkpt lat="44.0821523" lon="11.4142635"><ele>673.25</ele><time>2026-05-01T08:06:16.135Z</time></trkpt><trkpt lat="44.0820917" lon="11.414129"><ele>671.0</ele><time>2026-05-01T08:06:17.135Z</time></trkpt><trkpt lat="44.0820297" lon="11.4139892"><ele>671.0</ele><time>2026-05-01T08:06:18.135Z</time></trkpt><trkpt lat="44.0819603" lon="11.4138445"><ele>671.0</ele><time>2026-05-01T08:06:19.133Z</time></trkpt><trkpt lat="44.0818872" lon="11.413692"><ele>671.0</ele><time>2026-05-01T08:06:20.135Z</time></trkpt><trkpt lat="44.0818153" lon="11.41354"><ele>671.0</ele><time>2026-05-01T08:06:21.133Z</time></trkpt><trkpt lat="44.0817455" lon="11.4133925"><ele>670.8</ele><time>2026-05-01T08:06:22.132Z</time></trkpt><trkpt lat="44.0816762" lon="11.4132525"><ele>670.5999999999999</ele><time>2026-05-01T08:06:23.135Z</time></trkpt><trkpt lat="44.0816048" lon="11.4131267"><ele>670.4</ele><time>2026-05-01T08:06:24.134Z</time></trkpt><trkpt lat="44.081525" lon="11.4130268"><ele>670.2</ele><time>2026-05-01T08:06:25.135Z</time></trkpt><trkpt lat="44.0814425" lon="11.4129555"><ele>670.0</ele><time>2026-05-01T08:06:26.134Z</time></trkpt><trkpt lat="44.0813625" lon="11.4129085"><ele>671.2</ele><time>2026-05-01T08:06:27.137Z</time></trkpt><trkpt lat="44.0812957" lon="11.4128797"><ele>672.4</ele><time>2026-05-01T08:06:28.136Z</time></trkpt><trkpt lat="44.0811808" lon="11.4128587"><ele>673.5999999999999</ele><time>2026-05-01T08:06:30.135Z</time></trkpt><trkpt lat="44.081056" lon="11.4128482"><ele>674.8</ele><time>2026-05-01T08:06:32.137Z</time></trkpt><trkpt lat="44.080985" lon="11.412837"><ele>676.0</ele><time>2026-05-01T08:06:33.136Z</time></trkpt><trkpt lat="44.0809045" lon="11.4128212"><ele>676.0</ele><time>2026-05-01T08:06:34.136Z</time></trkpt><trkpt lat="44.080814" lon="11.412814"><ele>676.0</ele><time>2026-05-01T08:06:35.137Z</time></trkpt><trkpt lat="44.0807127" lon="11.412814"><ele>676.0</ele><time>2026-05-01T08:06:36.136Z</time></trkpt><trkpt lat="44.0806055" lon="11.4128123"><ele>676.0</ele><time>2026-05-01T08:06:37.136Z</time></trkpt><trkpt lat="44.0804963" lon="11.412807"><ele>676.0</ele><time>2026-05-01T08:06:38.136Z</time></trkpt><trkpt lat="44.0803877" lon="11.412798"><ele>677.4</ele><time>2026-05-01T08:06:39.137Z</time></trkpt><trkpt lat="44.0802802" lon="11.4127917"><ele>678.8</ele><time>2026-05-01T08:06:40.136Z</time></trkpt><trkpt lat="44.0801742" lon="11.4127993"><ele>680.1999999999999</ele><time>2026-05-01T08:06:41.137Z</time></trkpt><trkpt lat="44.0800702" lon="11.4128252"><ele>681.5999999999999</ele><time>2026-05-01T08:06:42.136Z</time></trkpt><trkpt lat="44.0799773" lon="11.4128683"><ele>683.0</ele><time>2026-05-01T08:06:43.135Z</time></trkpt><trkpt lat="44.0798988" lon="11.4129253"><ele>683.8333333333333</ele><time>2026-05-01T08:06:44.137Z</time></trkpt><trkpt lat="44.0798277" lon="11.412989"><ele>684.6666666666666</ele><time>2026-05-01T08:06:45.136Z</time></trkpt><trkpt lat="44.079766" lon="11.4130388"><ele>685.5</ele><time>2026-05-01T08:06:46.134Z</time></trkpt><trkpt lat="44.079705" lon="11.4130665"><ele>686.3333333333334</ele><time>2026-05-01T08:06:47.136Z</time></trkpt><trkpt lat="44.079644" lon="11.413008"><ele>687.1666666666667</ele><time>2026-05-01T08:06:49.137Z</time></trkpt><trkpt lat="44.0796903" lon="11.4128655"><ele>688.0</ele><time>2026-05-01T08:06:51.136Z</time></trkpt><trkpt lat="44.0797197" lon="11.4127603"><ele>688.5</ele><time>2026-05-01T08:06:52.136Z</time></trkpt><trkpt lat="44.0797428" lon="11.4126453"><ele>689.0</ele><time>2026-05-01T08:06:53.137Z</time></trkpt><trkpt lat="44.0797633" lon="11.4125407"><ele>689.5</ele><time>2026-05-01T08:06:54.136Z</time></trkpt><trkpt lat="44.0797762" lon="11.4124518"><ele>690.0</ele><time>2026-05-01T08:06:55.138Z</time></trkpt><trkpt lat="44.0797572" lon="11.412353"><ele>690.5</ele><time>2026-05-01T08:06:57.135Z</time></trkpt><trkpt lat="44.0796618" lon="11.4123148"><ele>691.0</ele><time>2026-05-01T08:06:59.137Z</time></trkpt><trkpt lat="44.0795903" lon="11.4123035"><ele>691.0</ele><time>2026-05-01T08:07:00.136Z</time></trkpt><trkpt lat="44.0795092" lon="11.4122878"><ele>691.0</ele><time>2026-05-01T08:07:01.135Z</time></trkpt><trkpt lat="44.0794253" lon="11.4122622"><ele>691.0</ele><time>2026-05-01T08:07:02.135Z</time></trkpt><trkpt lat="44.0793392" lon="11.4122187"><ele>691.0</ele><time>2026-05-01T08:07:03.137Z</time></trkpt><trkpt lat="44.0792568" lon="11.4121517"><ele>691.0</ele><time>2026-05-01T08:07:04.135Z</time></trkpt><trkpt lat="44.0791805" lon="11.4120622"><ele>691.0</ele><time>2026-05-01T08:07:05.135Z</time></trkpt><trkpt lat="44.0791128" lon="11.4119642"><ele>691.0</ele><time>2026-05-01T08:07:06.135Z</time></trkpt><trkpt lat="44.079057" lon="11.4118753"><ele>691.0</ele><time>2026-05-01T08:07:07.135Z</time></trkpt><trkpt lat="44.0789885" lon="11.4118008"><ele>691.0</ele><time>2026-05-01T08:07:08.133Z</time></trkpt><trkpt lat="44.0789053" lon="11.4117372"><ele>691.0</ele><time>2026-05-01T08:07:09.134Z</time></trkpt><trkpt lat="44.078829" lon="11.4116773"><ele>691.0</ele><time>2026-05-01T08:07:10.133Z</time></trkpt><trkpt lat="44.0787478" lon="11.4116425"><ele>691.0</ele><time>2026-05-01T08:07:11.134Z</time></trkpt><trkpt lat="44.0786693" lon="11.4116272"><ele>691.0</ele><time>2026-05-01T08:07:12.136Z</time></trkpt><trkpt lat="44.0785937" lon="11.4116308"><ele>691.0</ele><time>2026-05-01T08:07:13.135Z</time></trkpt><trkpt lat="44.0785308" lon="11.4116632"><ele>691.0</ele><time>2026-05-01T08:07:14.136Z</time></trkpt><trkpt lat="44.078483" lon="11.4117347"><ele>691.0</ele><time>2026-05-01T08:07:15.135Z</time></trkpt><trkpt lat="44.0784462" lon="11.411834"><ele>690.9999999999999</ele><time>2026-05-01T08:07:16.136Z</time></trkpt><trkpt lat="44.0784178" lon="11.4119258"><ele>691.0</ele><time>2026-05-01T08:07:17.134Z</time></trkpt><trkpt lat="44.0783778" lon="11.412003"><ele>691.0</ele><time>2026-05-01T08:07:18.135Z</time></trkpt><trkpt lat="44.0783167" lon="11.4120575"><ele>691.0</ele><time>2026-05-01T08:07:19.135Z</time></trkpt><trkpt lat="44.0782492" lon="11.412091"><ele>691.0</ele><time>2026-05-01T08:07:20.135Z</time></trkpt><trkpt lat="44.0781818" lon="11.4120993"><ele>690.9999999999999</ele><time>2026-05-01T08:07:21.134Z</time></trkpt><trkpt lat="44.0781035" lon="11.4120813"><ele>691.0</ele><time>2026-05-01T08:07:22.135Z</time></trkpt><trkpt lat="44.0780103" lon="11.4120583"><ele>690.1999999999999</ele><time>2026-05-01T08:07:23.135Z</time></trkpt><trkpt lat="44.0779158" lon="11.4120542"><ele>689.4</ele><time>2026-05-01T08:07:24.134Z</time></trkpt><trkpt lat="44.077819" lon="11.4120677"><ele>688.6</ele><time>2026-05-01T08:07:25.134Z</time></trkpt><trkpt lat="44.0777303" lon="11.4120888"><ele>687.8</ele><time>2026-05-01T08:07:26.137Z</time></trkpt><trkpt lat="44.0776515" lon="11.4120977"><ele>687.0</ele><time>2026-05-01T08:07:27.134Z</time></trkpt><trkpt lat="44.0775592" lon="11.4120997"><ele>687.0</ele><time>2026-05-01T08:07:28.134Z</time></trkpt><trkpt lat="44.0774622" lon="11.4120958"><ele>687.0</ele><time>2026-05-01T08:07:29.134Z</time></trkpt><trkpt lat="44.0773698" lon="11.4120845"><ele>687.0</ele><time>2026-05-01T08:07:30.137Z</time></trkpt><trkpt lat="44.0772733" lon="11.4120608"><ele>687.0</ele><time>2026-05-01T08:07:31.135Z</time></trkpt><trkpt lat="44.0771813" lon="11.4120297"><ele>687.0</ele><time>2026-05-01T08:07:32.133Z</time></trkpt><trkpt lat="44.0771005" lon="11.4119695"><ele>686.4000000000001</ele><time>2026-05-01T08:07:33.132Z</time></trkpt><trkpt lat="44.0770285" lon="11.4119003"><ele>685.8000000000001</ele><time>2026-05-01T08:07:34.132Z</time></trkpt><trkpt lat="44.0769592" lon="11.4118413"><ele>685.2</ele><time>2026-05-01T08:07:35.132Z</time></trkpt><trkpt lat="44.0768795" lon="11.411811"><ele>684.6</ele><time>2026-05-01T08:07:36.132Z</time></trkpt><trkpt lat="44.0767863" lon="11.411782"><ele>684.0</ele><time>2026-05-01T08:07:37.134Z</time></trkpt><trkpt lat="44.0766783" lon="11.4117352"><ele>683.4000000000001</ele><time>2026-05-01T08:07:38.134Z</time></trkpt><trkpt lat="44.0765728" lon="11.4116665"><ele>682.8</ele><time>2026-05-01T08:07:39.135Z</time></trkpt><trkpt lat="44.076479" lon="11.4115957"><ele>682.2</ele><time>2026-05-01T08:07:40.136Z</time></trkpt><trkpt lat="44.0763883" lon="11.411539"><ele>681.5999999999999</ele><time>2026-05-01T08:07:41.133Z</time></trkpt><trkpt lat="44.0763023" lon="11.4115048"><ele>681.0</ele><time>2026-05-01T08:07:42.132Z</time></trkpt><trkpt lat="44.0762148" lon="11.411503"><ele>681.0</ele><time>2026-05-01T08:07:43.133Z</time></trkpt><trkpt lat="44.076121" lon="11.4115285"><ele>681.0</ele><time>2026-05-01T08:07:44.133Z</time></trkpt><trkpt lat="44.0760292" lon="11.4115615"><ele>681.0</ele><time>2026-05-01T08:07:45.133Z</time></trkpt><trkpt lat="44.075943" lon="11.4115793"><ele>681.0</ele><time>2026-05-01T08:07:46.133Z</time></trkpt><trkpt lat="44.0758682" lon="11.4115748"><ele>681.0</ele><time>2026-05-01T08:07:47.136Z</time></trkpt><trkpt lat="44.0757973" lon="11.4115475"><ele>681.0</ele><time>2026-05-01T08:07:48.134Z</time></trkpt><trkpt lat="44.0757243" lon="11.4114953"><ele>680.5</ele><time>2026-05-01T08:07:49.134Z</time></trkpt><trkpt lat="44.0756493" lon="11.4114268"><ele>680.0</ele><time>2026-05-01T08:07:50.134Z</time></trkpt><trkpt lat="44.075579" lon="11.4113668"><ele>679.5</ele><time>2026-05-01T08:07:51.135Z</time></trkpt><trkpt lat="44.0755107" lon="11.4113202"><ele>679.0</ele><time>2026-05-01T08:07:52.133Z</time></trkpt><trkpt lat="44.0754413" lon="11.4112762"><ele>678.5</ele><time>2026-05-01T08:07:53.135Z</time></trkpt><trkpt lat="44.0753687" lon="11.4112348"><ele>678.0</ele><time>2026-05-01T08:07:54.133Z</time></trkpt><trkpt lat="44.0752985" lon="11.411209"><ele>678.5999999999999</ele><time>2026-05-01T08:07:55.133Z</time></trkpt><trkpt lat="44.0752125" lon="11.4111903"><ele>679.1999999999999</ele><time>2026-05-01T08:07:56.133Z</time></trkpt><trkpt lat="44.0751157" lon="11.4111832"><ele>679.8</ele><time>2026-05-01T08:07:57.132Z</time></trkpt><trkpt lat="44.0750242" lon="11.4111685"><ele>680.4</ele><time>2026-05-01T08:07:58.132Z</time></trkpt><trkpt lat="44.0749398" lon="11.4111323"><ele>681.0</ele><time>2026-05-01T08:07:59.133Z</time></trkpt><trkpt lat="44.074854" lon="11.4110707"><ele>681.0</ele><time>2026-05-01T08:08:00.136Z</time></trkpt><trkpt lat="44.0747745" lon="11.4109905"><ele>681.0</ele><time>2026-05-01T08:08:01.137Z</time></trkpt><trkpt lat="44.0746932" lon="11.4108995"><ele>681.0</ele><time>2026-05-01T08:08:02.133Z</time></trkpt><trkpt lat="44.0746048" lon="11.4107825"><ele>681.0</ele><time>2026-05-01T08:08:03.133Z</time></trkpt><trkpt lat="44.0745157" lon="11.4106683"><ele>681.0</ele><time>2026-05-01T08:08:04.133Z</time></trkpt><trkpt lat="44.0744413" lon="11.4105545"><ele>681.4</ele><time>2026-05-01T08:08:05.136Z</time></trkpt><trkpt lat="44.0743725" lon="11.4104418"><ele>681.8</ele><time>2026-05-01T08:08:06.134Z</time></trkpt><trkpt lat="44.0743045" lon="11.4103283"><ele>682.1999999999999</ele><time>2026-05-01T08:08:07.135Z</time></trkpt><trkpt lat="44.0742375" lon="11.4102277"><ele>682.5999999999999</ele><time>2026-05-01T08:08:08.136Z</time></trkpt><trkpt lat="44.0741607" lon="11.41015"><ele>683.0</ele><time>2026-05-01T08:08:09.134Z</time></trkpt><trkpt lat="44.0740745" lon="11.4100837"><ele>681.4</ele><time>2026-05-01T08:08:10.134Z</time></trkpt><trkpt lat="44.0739855" lon="11.4100302"><ele>679.8</ele><time>2026-05-01T08:08:11.137Z</time></trkpt><trkpt lat="44.073901" lon="11.4099765"><ele>678.2</ele><time>2026-05-01T08:08:12.135Z</time></trkpt><trkpt lat="44.073823" lon="11.4099098"><ele>676.6</ele><time>2026-05-01T08:08:13.135Z</time></trkpt><trkpt lat="44.073745" lon="11.409822"><ele>675.0</ele><time>2026-05-01T08:08:14.135Z</time></trkpt><trkpt lat="44.0736718" lon="11.4097205"><ele>676.0</ele><time>2026-05-01T08:08:15.133Z</time></trkpt><trkpt lat="44.0736142" lon="11.4096175"><ele>677.0</ele><time>2026-05-01T08:08:16.133Z</time></trkpt><trkpt lat="44.0735605" lon="11.4095292"><ele>678.0</ele><time>2026-05-01T08:08:17.135Z</time></trkpt><trkpt lat="44.073498" lon="11.4094615"><ele>679.0</ele><time>2026-05-01T08:08:18.133Z</time></trkpt><trkpt lat="44.0734193" lon="11.4093963"><ele>680.0</ele><time>2026-05-01T08:08:19.134Z</time></trkpt><trkpt lat="44.0733358" lon="11.4093353"><ele>681.0</ele><time>2026-05-01T08:08:20.134Z</time></trkpt><trkpt lat="44.0732423" lon="11.4092798"><ele>681.5</ele><time>2026-05-01T08:08:21.135Z</time></trkpt><trkpt lat="44.0731305" lon="11.4092395"><ele>682.0</ele><time>2026-05-01T08:08:22.131Z</time></trkpt><trkpt lat="44.0730103" lon="11.4092095"><ele>682.5</ele><time>2026-05-01T08:08:23.133Z</time></trkpt><trkpt lat="44.0728973" lon="11.4091837"><ele>683.0</ele><time>2026-05-01T08:08:24.132Z</time></trkpt><trkpt lat="44.0727815" lon="11.409158"><ele>683.0</ele><time>2026-05-01T08:08:25.132Z</time></trkpt><trkpt lat="44.072662" lon="11.4091337"><ele>683.0</ele><time>2026-05-01T08:08:26.136Z</time></trkpt><trkpt lat="44.0725487" lon="11.4091167"><ele>683.0</ele><time>2026-05-01T08:08:27.133Z</time></trkpt><trkpt lat="44.072451" lon="11.4090987"><ele>683.0</ele><time>2026-05-01T08:08:28.135Z</time></trkpt><trkpt lat="44.0723718" lon="11.409083"><ele>683.0</ele><time>2026-05-01T08:08:29.135Z</time></trkpt><trkpt lat="44.0723043" lon="11.4090445"><ele>682.8</ele><time>2026-05-01T08:08:30.135Z</time></trkpt><trkpt lat="44.0722267" lon="11.4089772"><ele>682.5999999999999</ele><time>2026-05-01T08:08:31.133Z</time></trkpt><trkpt lat="44.0721395" lon="11.4089025"><ele>682.4000000000001</ele><time>2026-05-01T08:08:32.134Z</time></trkpt><trkpt lat="44.0720365" lon="11.4088203"><ele>682.2</ele><time>2026-05-01T08:08:33.134Z</time></trkpt><trkpt lat="44.07193" lon="11.4087373"><ele>682.0</ele><time>2026-05-01T08:08:34.134Z</time></trkpt><trkpt lat="44.0718373" lon="11.4086602"><ele>683.4000000000001</ele><time>2026-05-01T08:08:35.135Z</time></trkpt><trkpt lat="44.0717507" lon="11.4085753"><ele>684.8000000000001</ele><time>2026-05-01T08:08:36.135Z</time></trkpt><trkpt lat="44.0716732" lon="11.4085028"><ele>686.2</ele><time>2026-05-01T08:08:37.134Z</time></trkpt><trkpt lat="44.0715908" lon="11.4084367"><ele>687.6</ele><time>2026-05-01T08:08:38.134Z</time></trkpt><trkpt lat="44.0715092" lon="11.4083703"><ele>689.0</ele><time>2026-05-01T08:08:39.134Z</time></trkpt><trkpt lat="44.0714392" lon="11.4082937"><ele>689.6666666666666</ele><time>2026-05-01T08:08:40.133Z</time></trkpt><trkpt lat="44.0713925" lon="11.4082033"><ele>690.3333333333333</ele><time>2026-05-01T08:08:41.134Z</time></trkpt><trkpt lat="44.071343" lon="11.4081095"><ele>691.0</ele><time>2026-05-01T08:08:42.133Z</time></trkpt><trkpt lat="44.0712932" lon="11.4080217"><ele>691.6666666666666</ele><time>2026-05-01T08:08:43.134Z</time></trkpt><trkpt lat="44.0712135" lon="11.4079223"><ele>692.3333333333334</ele><time>2026-05-01T08:08:45.133Z</time></trkpt><trkpt lat="44.0711543" lon="11.4078383"><ele>693.0</ele><time>2026-05-01T08:08:47.133Z</time></trkpt><trkpt lat="44.0710927" lon="11.4077482"><ele>693.1666666666666</ele><time>2026-05-01T08:08:49.132Z</time></trkpt><trkpt lat="44.0709822" lon="11.407684"><ele>693.3333333333334</ele><time>2026-05-01T08:08:51.137Z</time></trkpt><trkpt lat="44.070912" lon="11.4076627"><ele>693.5</ele><time>2026-05-01T08:08:52.134Z</time></trkpt><trkpt lat="44.0708372" lon="11.4076482"><ele>693.6666666666667</ele><time>2026-05-01T08:08:54.135Z</time></trkpt><trkpt lat="44.0707405" lon="11.407646"><ele>693.8333333333334</ele><time>2026-05-01T08:08:56.136Z</time></trkpt><trkpt lat="44.0706733" lon="11.4076438"><ele>694.0</ele><time>2026-05-01T08:08:57.134Z</time></trkpt><trkpt lat="44.070591" lon="11.4076408"><ele>696.3333333333334</ele><time>2026-05-01T08:08:58.134Z</time></trkpt><trkpt lat="44.0704918" lon="11.4076447"><ele>698.6666666666667</ele><time>2026-05-01T08:08:59.135Z</time></trkpt><trkpt lat="44.0703965" lon="11.4076573"><ele>701.0</ele><time>2026-05-01T08:09:00.135Z</time></trkpt><trkpt lat="44.0703228" lon="11.407653"><ele>703.3333333333334</ele><time>2026-05-01T08:09:01.137Z</time></trkpt><trkpt lat="44.0702482" lon="11.4075532"><ele>705.6666666666666</ele><time>2026-05-01T08:09:03.135Z</time></trkpt><trkpt lat="44.0702375" lon="11.4074655"><ele>708.0</ele><time>2026-05-01T08:09:04.133Z</time></trkpt><trkpt lat="44.070228" lon="11.4073725"><ele>708.0</ele><time>2026-05-01T08:09:05.135Z</time></trkpt><trkpt lat="44.0701743" lon="11.407229"><ele>708.0</ele><time>2026-05-01T08:09:07.135Z</time></trkpt><trkpt lat="44.0701147" lon="11.4071543"><ele>708.0</ele><time>2026-05-01T08:09:08.135Z</time></trkpt><trkpt lat="44.0700362" lon="11.4070737"><ele>708.0</ele><time>2026-05-01T08:09:09.135Z</time></trkpt><trkpt lat="44.0699563" lon="11.4069867"><ele>708.0</ele><time>2026-05-01T08:09:10.134Z</time></trkpt><trkpt lat="44.0698747" lon="11.4068963"><ele>708.4</ele><time>2026-05-01T08:09:11.132Z</time></trkpt><trkpt lat="44.0697995" lon="11.4068052"><ele>708.8</ele><time>2026-05-01T08:09:12.132Z</time></trkpt><trkpt lat="44.0697245" lon="11.4067175"><ele>709.2</ele><time>2026-05-01T08:09:13.134Z</time></trkpt><trkpt lat="44.0696537" lon="11.4066275"><ele>709.6</ele><time>2026-05-01T08:09:14.134Z</time></trkpt><trkpt lat="44.069591" lon="11.4065322"><ele>710.0</ele><time>2026-05-01T08:09:15.134Z</time></trkpt><trkpt lat="44.0695337" lon="11.4064447"><ele>710.0</ele><time>2026-05-01T08:09:16.134Z</time></trkpt><trkpt lat="44.0694875" lon="11.4063565"><ele>710.0</ele><time>2026-05-01T08:09:17.135Z</time></trkpt><trkpt lat="44.0694668" lon="11.4062552"><ele>710.0</ele><time>2026-05-01T08:09:18.136Z</time></trkpt><trkpt lat="44.0694603" lon="11.4061475"><ele>710.0</ele><time>2026-05-01T08:09:19.134Z</time></trkpt><trkpt lat="44.0694557" lon="11.4060268"><ele>710.0</ele><time>2026-05-01T08:09:20.136Z</time></trkpt><trkpt lat="44.0694508" lon="11.405903"><ele>710.0</ele><time>2026-05-01T08:09:21.136Z</time></trkpt><trkpt lat="44.0694442" lon="11.4057933"><ele>708.1666666666666</ele><time>2026-05-01T08:09:22.135Z</time></trkpt><trkpt lat="44.0694443" lon="11.4056807"><ele>706.3333333333333</ele><time>2026-05-01T08:09:23.135Z</time></trkpt><trkpt lat="44.0694473" lon="11.4055668"><ele>704.5</ele><time>2026-05-01T08:09:24.135Z</time></trkpt><trkpt lat="44.069447" lon="11.405453"><ele>702.6666666666666</ele><time>2026-05-01T08:09:25.135Z</time></trkpt><trkpt lat="44.0694392" lon="11.4053473"><ele>700.8333333333334</ele><time>2026-05-01T08:09:26.136Z</time></trkpt><trkpt lat="44.0694273" lon="11.4052447"><ele>699.0</ele><time>2026-05-01T08:09:27.136Z</time></trkpt><trkpt lat="44.0694045" lon="11.4051572"><ele>696.8000000000001</ele><time>2026-05-01T08:09:28.135Z</time></trkpt><trkpt lat="44.0693393" lon="11.4050185"><ele>694.6</ele><time>2026-05-01T08:09:30.136Z</time></trkpt><trkpt lat="44.069329" lon="11.404866"><ele>692.4</ele><time>2026-05-01T08:09:32.136Z</time></trkpt><trkpt lat="44.069366" lon="11.404711"><ele>690.2</ele><time>2026-05-01T08:09:34.136Z</time></trkpt><trkpt lat="44.0694197" lon="11.4046595"><ele>688.0</ele><time>2026-05-01T08:09:35.134Z</time></trkpt><trkpt lat="44.0694928" lon="11.4046008"><ele>686.5</ele><time>2026-05-01T08:09:36.133Z</time></trkpt><trkpt lat="44.0695655" lon="11.4045338"><ele>685.0</ele><time>2026-05-01T08:09:37.134Z</time></trkpt><trkpt lat="44.0696163" lon="11.4044605"><ele>683.5</ele><time>2026-05-01T08:09:38.133Z</time></trkpt><trkpt lat="44.0696358" lon="11.4043712"><ele>682.0</ele><time>2026-05-01T08:09:39.136Z</time></trkpt><trkpt lat="44.069635" lon="11.4042495"><ele>680.5</ele><time>2026-05-01T08:09:40.135Z</time></trkpt><trkpt lat="44.069631" lon="11.404115"><ele>679.0</ele><time>2026-05-01T08:09:41.135Z</time></trkpt><trkpt lat="44.0696417" lon="11.4039818"><ele>679.0</ele><time>2026-05-01T08:09:42.135Z</time></trkpt><trkpt lat="44.0696638" lon="11.403852"><ele>679.0</ele><time>2026-05-01T08:09:43.135Z</time></trkpt><trkpt lat="44.0696875" lon="11.4037233"><ele>679.0</ele><time>2026-05-01T08:09:44.136Z</time></trkpt><trkpt lat="44.0696977" lon="11.4036178"><ele>679.0</ele><time>2026-05-01T08:09:45.134Z</time></trkpt><trkpt lat="44.0697097" lon="11.4034993"><ele>679.0</ele><time>2026-05-01T08:09:46.135Z</time></trkpt><trkpt lat="44.0697195" lon="11.403374"><ele>679.0</ele><time>2026-05-01T08:09:47.135Z</time></trkpt><trkpt lat="44.0697158" lon="11.4032715"><ele>679.1666666666667</ele><time>2026-05-01T08:09:48.134Z</time></trkpt><trkpt lat="44.0697007" lon="11.4031685"><ele>679.3333333333334</ele><time>2026-05-01T08:09:49.135Z</time></trkpt><trkpt lat="44.0696773" lon="11.403056"><ele>679.5</ele><time>2026-05-01T08:09:50.135Z</time></trkpt><trkpt lat="44.0696572" lon="11.402941"><ele>679.6666666666666</ele><time>2026-05-01T08:09:51.135Z</time></trkpt><trkpt lat="44.0696438" lon="11.402831"><ele>679.8333333333333</ele><time>2026-05-01T08:09:52.137Z</time></trkpt><trkpt lat="44.0696267" lon="11.4027098"><ele>680.0</ele><time>2026-05-01T08:09:53.134Z</time></trkpt><trkpt lat="44.069615" lon="11.4026025"><ele>680.0</ele><time>2026-05-01T08:09:54.134Z</time></trkpt><trkpt lat="44.0696147" lon="11.4025055"><ele>680.0</ele><time>2026-05-01T08:09:55.134Z</time></trkpt><trkpt lat="44.0696188" lon="11.4024115"><ele>680.0</ele><time>2026-05-01T08:09:56.135Z</time></trkpt><trkpt lat="44.069618" lon="11.4022852"><ele>680.0</ele><time>2026-05-01T08:09:58.135Z</time></trkpt><trkpt lat="44.0696035" lon="11.402179"><ele>680.0</ele><time>2026-05-01T08:10:02.132Z</time></trkpt><trkpt lat="44.069575" lon="11.4020795"><ele>680.0</ele><time>2026-05-01T08:10:05.134Z</time></trkpt><trkpt lat="44.0695762" lon="11.4019665"><ele>679.6</ele><time>2026-05-01T08:10:09.135Z</time></trkpt><trkpt lat="44.0695818" lon="11.4018698"><ele>679.2</ele><time>2026-05-01T08:10:10.135Z</time></trkpt><trkpt lat="44.069592" lon="11.4017428"><ele>678.8</ele><time>2026-05-01T08:10:11.137Z</time></trkpt><trkpt lat="44.0696103" lon="11.4015965"><ele>678.4</ele><time>2026-05-01T08:10:12.133Z</time></trkpt><trkpt lat="44.0696313" lon="11.4014542"><ele>678.0</ele><time>2026-05-01T08:10:13.136Z</time></trkpt><trkpt lat="44.0696565" lon="11.4013188"><ele>678.0</ele><time>2026-05-01T08:10:14.136Z</time></trkpt><trkpt lat="44.0696912" lon="11.401178"><ele>678.0</ele><time>2026-05-01T08:10:15.135Z</time></trkpt><trkpt lat="44.069713" lon="11.4010432"><ele>678.0</ele><time>2026-05-01T08:10:16.135Z</time></trkpt><trkpt lat="44.0697225" lon="11.4009028"><ele>678.0</ele><time>2026-05-01T08:10:17.136Z</time></trkpt><trkpt lat="44.0697185" lon="11.4007407"><ele>678.0</ele><time>2026-05-01T08:10:18.136Z</time></trkpt><trkpt lat="44.0697028" lon="11.4006003"><ele>678.2</ele><time>2026-05-01T08:10:19.136Z</time></trkpt><trkpt lat="44.0696873" lon="11.4004792"><ele>678.4</ele><time>2026-05-01T08:10:20.137Z</time></trkpt><trkpt lat="44.069669" lon="11.4003398"><ele>678.6</ele><time>2026-05-01T08:10:21.136Z</time></trkpt><trkpt lat="44.0696547" lon="11.4002025"><ele>678.8000000000001</ele><time>2026-05-01T08:10:22.135Z</time></trkpt><trkpt lat="44.0696367" lon="11.4000698"><ele>679.0</ele><time>2026-05-01T08:10:23.137Z</time></trkpt><trkpt lat="44.0696175" lon="11.3999422"><ele>679.0</ele><time>2026-05-01T08:10:24.133Z</time></trkpt><trkpt lat="44.0695968" lon="11.3998223"><ele>679.0</ele><time>2026-05-01T08:10:25.134Z</time></trkpt><trkpt lat="44.0695738" lon="11.3996942"><ele>679.0</ele><time>2026-05-01T08:10:26.134Z</time></trkpt><trkpt lat="44.0695475" lon="11.3995722"><ele>679.0</ele><time>2026-05-01T08:10:27.133Z</time></trkpt><trkpt lat="44.0695242" lon="11.3994503"><ele>679.0</ele><time>2026-05-01T08:10:28.137Z</time></trkpt><trkpt lat="44.0695103" lon="11.3993212"><ele>679.2</ele><time>2026-05-01T08:10:29.137Z</time></trkpt><trkpt lat="44.0695158" lon="11.399177"><ele>679.4000000000001</ele><time>2026-05-01T08:10:30.136Z</time></trkpt><trkpt lat="44.0695393" lon="11.3990163"><ele>679.6</ele><time>2026-05-01T08:10:31.136Z</time></trkpt><trkpt lat="44.069559" lon="11.3988687"><ele>679.8</ele><time>2026-05-01T08:10:32.138Z</time></trkpt><trkpt lat="44.0695698" lon="11.398731"><ele>680.0</ele><time>2026-05-01T08:10:33.138Z</time></trkpt><trkpt lat="44.0695805" lon="11.3986112"><ele>680.0</ele><time>2026-05-01T08:10:34.136Z</time></trkpt><trkpt lat="44.069584" lon="11.3984758"><ele>680.0</ele><time>2026-05-01T08:10:36.135Z</time></trkpt><trkpt lat="44.0695735" lon="11.398365"><ele>680.0</ele><time>2026-05-01T08:10:38.137Z</time></trkpt><trkpt lat="44.0695963" lon="11.398206"><ele>680.0</ele><time>2026-05-01T08:10:40.136Z</time></trkpt><trkpt lat="44.069609" lon="11.3981098"><ele>680.0</ele><time>2026-05-01T08:10:41.137Z</time></trkpt><trkpt lat="44.0696208" lon="11.3979995"><ele>680.0</ele><time>2026-05-01T08:10:42.136Z</time></trkpt><trkpt lat="44.0696368" lon="11.3978892"><ele>679.8333333333333</ele><time>2026-05-01T08:10:43.136Z</time></trkpt><trkpt lat="44.0696578" lon="11.3977647"><ele>679.6666666666666</ele><time>2026-05-01T08:10:44.136Z</time></trkpt><trkpt lat="44.0696722" lon="11.397634"><ele>679.5</ele><time>2026-05-01T08:10:45.135Z</time></trkpt><trkpt lat="44.069669" lon="11.3974995"><ele>679.3333333333334</ele><time>2026-05-01T08:10:46.137Z</time></trkpt><trkpt lat="44.0696625" lon="11.3973785"><ele>679.1666666666667</ele><time>2026-05-01T08:10:47.135Z</time></trkpt><trkpt lat="44.0696552" lon="11.3972772"><ele>679.0</ele><time>2026-05-01T08:10:48.135Z</time></trkpt><trkpt lat="44.0696567" lon="11.3971665"><ele>679.0</ele><time>2026-05-01T08:10:49.133Z</time></trkpt><trkpt lat="44.0696662" lon="11.3970465"><ele>679.0</ele><time>2026-05-01T08:10:50.135Z</time></trkpt><trkpt lat="44.069688" lon="11.3969338"><ele>679.0</ele><time>2026-05-01T08:10:51.135Z</time></trkpt><trkpt lat="44.0697265" lon="11.3968122"><ele>679.0</ele><time>2026-05-01T08:10:52.134Z</time></trkpt><trkpt lat="44.0697735" lon="11.3966637"><ele>679.0</ele><time>2026-05-01T08:10:53.136Z</time></trkpt><trkpt lat="44.0698158" lon="11.3965277"><ele>679.0</ele><time>2026-05-01T08:10:54.136Z</time></trkpt><trkpt lat="44.0698405" lon="11.3964007"><ele>679.0</ele><time>2026-05-01T08:10:55.136Z</time></trkpt><trkpt lat="44.0698528" lon="11.3962677"><ele>679.0</ele><time>2026-05-01T08:10:56.137Z</time></trkpt><trkpt lat="44.0698463" lon="11.3961447"><ele>679.0</ele><time>2026-05-01T08:10:57.135Z</time></trkpt><trkpt lat="44.0698142" lon="11.3960082"><ele>679.0</ele><time>2026-05-01T08:10:58.136Z</time></trkpt><trkpt lat="44.069768" lon="11.3958425"><ele>678.75</ele><time>2026-05-01T08:10:59.137Z</time></trkpt><trkpt lat="44.0697288" lon="11.3956853"><ele>678.5</ele><time>2026-05-01T08:11:00.137Z</time></trkpt><trkpt lat="44.0697075" lon="11.3955228"><ele>678.25</ele><time>2026-05-01T08:11:01.136Z</time></trkpt><trkpt lat="44.0696925" lon="11.3953683"><ele>678.0</ele><time>2026-05-01T08:11:02.137Z</time></trkpt><trkpt lat="44.0696808" lon="11.3952308"><ele>678.2</ele><time>2026-05-01T08:11:03.135Z</time></trkpt><trkpt lat="44.0696888" lon="11.3951087"><ele>678.4</ele><time>2026-05-01T08:11:04.136Z</time></trkpt><trkpt lat="44.0697193" lon="11.3950003"><ele>678.6</ele><time>2026-05-01T08:11:05.135Z</time></trkpt><trkpt lat="44.0697542" lon="11.3948978"><ele>678.8000000000001</ele><time>2026-05-01T08:11:06.135Z</time></trkpt><trkpt lat="44.0697802" lon="11.3947792"><ele>679.0</ele><time>2026-05-01T08:11:07.134Z</time></trkpt><trkpt lat="44.0697998" lon="11.3946325"><ele>679.0</ele><time>2026-05-01T08:11:08.135Z</time></trkpt><trkpt lat="44.06982" lon="11.394474"><ele>679.0</ele><time>2026-05-01T08:11:09.136Z</time></trkpt><trkpt lat="44.0698477" lon="11.3942887"><ele>679.0</ele><time>2026-05-01T08:11:10.135Z</time></trkpt><trkpt lat="44.0698913" lon="11.394113"><ele>679.0</ele><time>2026-05-01T08:11:11.136Z</time></trkpt><trkpt lat="44.0699488" lon="11.39396"><ele>681.8000000000001</ele><time>2026-05-01T08:11:12.136Z</time></trkpt><trkpt lat="44.0700107" lon="11.3938147"><ele>684.6</ele><time>2026-05-01T08:11:13.133Z</time></trkpt><trkpt lat="44.070072" lon="11.3936845"><ele>687.4</ele><time>2026-05-01T08:11:14.134Z</time></trkpt><trkpt lat="44.0701275" lon="11.3935673"><ele>690.2</ele><time>2026-05-01T08:11:15.133Z</time></trkpt><trkpt lat="44.0701798" lon="11.3934493"><ele>693.0</ele><time>2026-05-01T08:11:16.135Z</time></trkpt><trkpt lat="44.0702328" lon="11.3933308"><ele>693.0</ele><time>2026-05-01T08:11:17.135Z</time></trkpt><trkpt lat="44.0702738" lon="11.3932068"><ele>693.0</ele><time>2026-05-01T08:11:18.135Z</time></trkpt><trkpt lat="44.0703152" lon="11.3930507"><ele>693.0</ele><time>2026-05-01T08:11:19.136Z</time></trkpt><trkpt lat="44.0703657" lon="11.3928917"><ele>693.0</ele><time>2026-05-01T08:11:20.136Z</time></trkpt><trkpt lat="44.0704133" lon="11.3927552"><ele>692.2</ele><time>2026-05-01T08:11:21.134Z</time></trkpt><trkpt lat="44.0704577" lon="11.3926405"><ele>691.4</ele><time>2026-05-01T08:11:22.135Z</time></trkpt><trkpt lat="44.0704973" lon="11.3925293"><ele>690.6</ele><time>2026-05-01T08:11:23.135Z</time></trkpt><trkpt lat="44.0705308" lon="11.392414"><ele>689.8000000000001</ele><time>2026-05-01T08:11:24.135Z</time></trkpt><trkpt lat="44.0705492" lon="11.3922738"><ele>689.0</ele><time>2026-05-01T08:11:25.135Z</time></trkpt><trkpt lat="44.0705652" lon="11.392111"><ele>689.0</ele><time>2026-05-01T08:11:26.137Z</time></trkpt><trkpt lat="44.0705898" lon="11.3919617"><ele>689.0</ele><time>2026-05-01T08:11:27.135Z</time></trkpt><trkpt lat="44.0706028" lon="11.391818"><ele>689.0</ele><time>2026-05-01T08:11:28.136Z</time></trkpt><trkpt lat="44.0705928" lon="11.3916628"><ele>689.0</ele><time>2026-05-01T08:11:29.136Z</time></trkpt><trkpt lat="44.0705798" lon="11.3915187"><ele>689.0</ele><time>2026-05-01T08:11:30.135Z</time></trkpt><trkpt lat="44.070584" lon="11.3913893"><ele>689.8000000000001</ele><time>2026-05-01T08:11:31.135Z</time></trkpt><trkpt lat="44.0705993" lon="11.3912617"><ele>690.6</ele><time>2026-05-01T08:11:32.136Z</time></trkpt><trkpt lat="44.07063" lon="11.39113"><ele>691.4</ele><time>2026-05-01T08:11:33.136Z</time></trkpt><trkpt lat="44.0706687" lon="11.390995"><ele>692.2</ele><time>2026-05-01T08:11:34.136Z</time></trkpt><trkpt lat="44.0707063" lon="11.3908613"><ele>693.0</ele><time>2026-05-01T08:11:35.136Z</time></trkpt><trkpt lat="44.070749" lon="11.3907138"><ele>697.0</ele><time>2026-05-01T08:11:36.135Z</time></trkpt><trkpt lat="44.0708008" lon="11.390549"><ele>701.0</ele><time>2026-05-01T08:11:37.133Z</time></trkpt><trkpt lat="44.0708538" lon="11.390376"><ele>705.0</ele><time>2026-05-01T08:11:38.132Z</time></trkpt><trkpt lat="44.0709033" lon="11.3902072"><ele>709.0</ele><time>2026-05-01T08:11:39.135Z</time></trkpt><trkpt lat="44.0709522" lon="11.3900537"><ele>710.2</ele><time>2026-05-01T08:11:40.132Z</time></trkpt><trkpt lat="44.0710058" lon="11.3899053"><ele>711.4000000000001</ele><time>2026-05-01T08:11:41.134Z</time></trkpt><trkpt lat="44.0710513" lon="11.3897678"><ele>712.6</ele><time>2026-05-01T08:11:42.135Z</time></trkpt><trkpt lat="44.0710983" lon="11.389645"><ele>713.8</ele><time>2026-05-01T08:11:43.136Z</time></trkpt><trkpt lat="44.0711522" lon="11.3895503"><ele>715.0</ele><time>2026-05-01T08:11:44.136Z</time></trkpt><trkpt lat="44.0712207" lon="11.389478"><ele>715.0</ele><time>2026-05-01T08:11:45.136Z</time></trkpt><trkpt lat="44.0712987" lon="11.3894137"><ele>715.0</ele><time>2026-05-01T08:11:46.134Z</time></trkpt><trkpt lat="44.0713618" lon="11.3893398"><ele>715.0</ele><time>2026-05-01T08:11:47.135Z</time></trkpt><trkpt lat="44.0714228" lon="11.3892433"><ele>715.0</ele><time>2026-05-01T08:11:48.135Z</time></trkpt><trkpt lat="44.071478" lon="11.3891293"><ele>715.0</ele><time>2026-05-01T08:11:49.135Z</time></trkpt><trkpt lat="44.0715283" lon="11.3889952"><ele>715.0</ele><time>2026-05-01T08:11:50.135Z</time></trkpt><trkpt lat="44.0715673" lon="11.3888645"><ele>715.0</ele><time>2026-05-01T08:11:51.135Z</time></trkpt><trkpt lat="44.0716005" lon="11.3887277"><ele>715.0</ele><time>2026-05-01T08:11:52.134Z</time></trkpt><trkpt lat="44.0716287" lon="11.3885862"><ele>715.0</ele><time>2026-05-01T08:11:53.135Z</time></trkpt><trkpt lat="44.0716565" lon="11.3884443"><ele>715.0</ele><time>2026-05-01T08:11:54.134Z</time></trkpt><trkpt lat="44.0716813" lon="11.3883"><ele>716.2</ele><time>2026-05-01T08:11:55.136Z</time></trkpt><trkpt lat="44.0717057" lon="11.3881618"><ele>717.4</ele><time>2026-05-01T08:11:56.136Z</time></trkpt><trkpt lat="44.0717355" lon="11.3880372"><ele>718.5999999999999</ele><time>2026-05-01T08:11:57.134Z</time></trkpt><trkpt lat="44.0717658" lon="11.3878982"><ele>719.8</ele><time>2026-05-01T08:11:58.134Z</time></trkpt><trkpt lat="44.0717965" lon="11.387752"><ele>721.0</ele><time>2026-05-01T08:11:59.136Z</time></trkpt><trkpt lat="44.0718258" lon="11.3876148"><ele>721.0</ele><time>2026-05-01T08:12:00.134Z</time></trkpt><trkpt lat="44.071855" lon="11.3874837"><ele>721.0</ele><time>2026-05-01T08:12:01.134Z</time></trkpt><trkpt lat="44.0718853" lon="11.3873547"><ele>721.0</ele><time>2026-05-01T08:12:02.132Z</time></trkpt><trkpt lat="44.071919" lon="11.3872312"><ele>721.0</ele><time>2026-05-01T08:12:03.135Z</time></trkpt><trkpt lat="44.0719562" lon="11.387121"><ele>721.0</ele><time>2026-05-01T08:12:04.132Z</time></trkpt><trkpt lat="44.0719975" lon="11.387019"><ele>721.0</ele><time>2026-05-01T08:12:05.135Z</time></trkpt><trkpt lat="44.0720283" lon="11.3869232"><ele>721.0</ele><time>2026-05-01T08:12:06.136Z</time></trkpt><trkpt lat="44.0720433" lon="11.3868128"><ele>721.0</ele><time>2026-05-01T08:12:07.135Z</time></trkpt><trkpt lat="44.0720415" lon="11.3866907"><ele>721.0</ele><time>2026-05-01T08:12:08.136Z</time></trkpt><trkpt lat="44.0720238" lon="11.3865728"><ele>721.0</ele><time>2026-05-01T08:12:09.133Z</time></trkpt><trkpt lat="44.0720098" lon="11.3864608"><ele>721.0</ele><time>2026-05-01T08:12:10.134Z</time></trkpt><trkpt lat="44.0720035" lon="11.3863593"><ele>721.3333333333334</ele><time>2026-05-01T08:12:11.133Z</time></trkpt><trkpt lat="44.0720245" lon="11.3862013"><ele>721.6666666666667</ele><time>2026-05-01T08:12:13.134Z</time></trkpt><trkpt lat="44.0720443" lon="11.386112"><ele>722.0</ele><time>2026-05-01T08:12:16.135Z</time></trkpt><trkpt lat="44.0720092" lon="11.3860143"><ele>722.3333333333334</ele><time>2026-05-01T08:13:17.132Z</time></trkpt><trkpt lat="44.0719185" lon="11.3860732"><ele>722.6666666666666</ele><time>2026-05-01T08:13:19.131Z</time></trkpt><trkpt lat="44.0718562" lon="11.3861375"><ele>723.0</ele><time>2026-05-01T08:13:20.133Z</time></trkpt><trkpt lat="44.0717865" lon="11.3862197"><ele>723.0</ele><time>2026-05-01T08:13:21.134Z</time></trkpt><trkpt lat="44.0717165" lon="11.3863082"><ele>723.0</ele><time>2026-05-01T08:13:22.133Z</time></trkpt><trkpt lat="44.0716443" lon="11.3863825"><ele>723.0</ele><time>2026-05-01T08:13:23.136Z</time></trkpt><trkpt lat="44.0715623" lon="11.386431"><ele>723.0</ele><time>2026-05-01T08:13:24.136Z</time></trkpt><trkpt lat="44.0714647" lon="11.3864467"><ele>723.0</ele><time>2026-05-01T08:13:25.133Z</time></trkpt><trkpt lat="44.071359" lon="11.3864173"><ele>719.5</ele><time>2026-05-01T08:13:26.135Z</time></trkpt><trkpt lat="44.071255" lon="11.3863488"><ele>716.0</ele><time>2026-05-01T08:13:27.136Z</time></trkpt><trkpt lat="44.0711532" lon="11.3862603"><ele>712.5</ele><time>2026-05-01T08:13:28.135Z</time></trkpt><trkpt lat="44.0710578" lon="11.3861658"><ele>709.0</ele><time>2026-05-01T08:13:29.135Z</time></trkpt><trkpt lat="44.0709677" lon="11.3860685"><ele>709.0</ele><time>2026-05-01T08:13:30.133Z</time></trkpt><trkpt lat="44.0708822" lon="11.385966"><ele>709.0</ele><time>2026-05-01T08:13:31.135Z</time></trkpt><trkpt lat="44.0707992" lon="11.3858545"><ele>709.0</ele><time>2026-05-01T08:13:32.135Z</time></trkpt><trkpt lat="44.0707183" lon="11.3857313"><ele>709.0</ele><time>2026-05-01T08:13:33.135Z</time></trkpt><trkpt lat="44.0706415" lon="11.3855968"><ele>704.5</ele><time>2026-05-01T08:13:34.133Z</time></trkpt><trkpt lat="44.0705712" lon="11.385452"><ele>700.0</ele><time>2026-05-01T08:13:35.135Z</time></trkpt><trkpt lat="44.0705102" lon="11.3852987"><ele>695.5</ele><time>2026-05-01T08:13:36.135Z</time></trkpt><trkpt lat="44.070456" lon="11.3851392"><ele>691.0</ele><time>2026-05-01T08:13:37.135Z</time></trkpt><trkpt lat="44.0704018" lon="11.3849762"><ele>691.0</ele><time>2026-05-01T08:13:38.136Z</time></trkpt><trkpt lat="44.0703452" lon="11.3848117"><ele>691.0</ele><time>2026-05-01T08:13:39.134Z</time></trkpt><trkpt lat="44.0702885" lon="11.3846465"><ele>691.0</ele><time>2026-05-01T08:13:40.131Z</time></trkpt><trkpt lat="44.0702352" lon="11.3844787"><ele>691.0</ele><time>2026-05-01T08:13:41.131Z</time></trkpt><trkpt lat="44.0701903" lon="11.3843045"><ele>691.75</ele><time>2026-05-01T08:13:42.131Z</time></trkpt><trkpt lat="44.0701493" lon="11.3841287"><ele>692.5</ele><time>2026-05-01T08:13:43.131Z</time></trkpt><trkpt lat="44.0700972" lon="11.3839612"><ele>693.25</ele><time>2026-05-01T08:13:44.133Z</time></trkpt><trkpt lat="44.0700258" lon="11.3838095"><ele>694.0</ele><time>2026-05-01T08:13:45.132Z</time></trkpt><trkpt lat="44.0699348" lon="11.38368"><ele>694.0</ele><time>2026-05-01T08:13:46.133Z</time></trkpt><trkpt lat="44.0698235" lon="11.3835835"><ele>694.0</ele><time>2026-05-01T08:13:47.132Z</time></trkpt><trkpt lat="44.0696963" lon="11.3835193"><ele>694.0</ele><time>2026-05-01T08:13:48.132Z</time></trkpt><trkpt lat="44.0695642" lon="11.3834597"><ele>694.0</ele><time>2026-05-01T08:13:49.132Z</time></trkpt><trkpt lat="44.0694343" lon="11.3833832"><ele>694.0</ele><time>2026-05-01T08:13:50.132Z</time></trkpt><trkpt lat="44.0693097" lon="11.3832937"><ele>694.0</ele><time>2026-05-01T08:13:51.133Z</time></trkpt><trkpt lat="44.069189" lon="11.3832082"><ele>694.0</ele><time>2026-05-01T08:13:52.132Z</time></trkpt><trkpt lat="44.0690678" lon="11.3831423"><ele>694.0</ele><time>2026-05-01T08:13:53.133Z</time></trkpt><trkpt lat="44.068947" lon="11.3831227"><ele>693.5</ele><time>2026-05-01T08:13:54.132Z</time></trkpt><trkpt lat="44.0688392" lon="11.3831683"><ele>693.0</ele><time>2026-05-01T08:13:55.131Z</time></trkpt><trkpt lat="44.0687558" lon="11.3832657"><ele>692.5</ele><time>2026-05-01T08:13:56.132Z</time></trkpt><trkpt lat="44.0686948" lon="11.3834042"><ele>692.0</ele><time>2026-05-01T08:13:57.131Z</time></trkpt><trkpt lat="44.0686633" lon="11.3835717"><ele>692.0</ele><time>2026-05-01T08:13:58.132Z</time></trkpt><trkpt lat="44.0686528" lon="11.3837538"><ele>692.0</ele><time>2026-05-01T08:13:59.132Z</time></trkpt><trkpt lat="44.068645" lon="11.3839448"><ele>692.0</ele><time>2026-05-01T08:14:00.133Z</time></trkpt><trkpt lat="44.068629" lon="11.3841397"><ele>692.0</ele><time>2026-05-01T08:14:01.133Z</time></trkpt><trkpt lat="44.0686067" lon="11.3843345"><ele>692.0</ele><time>2026-05-01T08:14:02.132Z</time></trkpt><trkpt lat="44.0685822" lon="11.3845313"><ele>692.0</ele><time>2026-05-01T08:14:03.133Z</time></trkpt><trkpt lat="44.0685535" lon="11.3847282"><ele>692.0</ele><time>2026-05-01T08:14:04.135Z</time></trkpt><trkpt lat="44.068522" lon="11.3849222"><ele>692.0</ele><time>2026-05-01T08:14:05.132Z</time></trkpt><trkpt lat="44.0684818" lon="11.3851113"><ele>691.25</ele><time>2026-05-01T08:14:06.131Z</time></trkpt><trkpt lat="44.0684335" lon="11.3852957"><ele>690.5</ele><time>2026-05-01T08:14:07.13Z</time></trkpt><trkpt lat="44.0683828" lon="11.3854777"><ele>689.75</ele><time>2026-05-01T08:14:08.132Z</time></trkpt><trkpt lat="44.0683372" lon="11.3856615"><ele>689.0</ele><time>2026-05-01T08:14:09.133Z</time></trkpt><trkpt lat="44.0682997" lon="11.3858492"><ele>692.25</ele><time>2026-05-01T08:14:10.134Z</time></trkpt><trkpt lat="44.0682653" lon="11.3860367"><ele>695.5</ele><time>2026-05-01T08:14:11.133Z</time></trkpt><trkpt lat="44.0682303" lon="11.3862202"><ele>698.75</ele><time>2026-05-01T08:14:12.132Z</time></trkpt><trkpt lat="44.0681895" lon="11.3863853"><ele>702.0</ele><time>2026-05-01T08:14:13.132Z</time></trkpt><trkpt lat="44.0681342" lon="11.3865293"><ele>702.0</ele><time>2026-05-01T08:14:14.134Z</time></trkpt><trkpt lat="44.068055" lon="11.3866407"><ele>702.0</ele><time>2026-05-01T08:14:15.134Z</time></trkpt><trkpt lat="44.067954" lon="11.3867123"><ele>702.0</ele><time>2026-05-01T08:14:16.133Z</time></trkpt><trkpt lat="44.0678415" lon="11.3867653"><ele>702.0</ele><time>2026-05-01T08:14:17.132Z</time></trkpt><trkpt lat="44.0677267" lon="11.3868207"><ele>702.0</ele><time>2026-05-01T08:14:18.135Z</time></trkpt><trkpt lat="44.0676145" lon="11.3868782"><ele>702.0</ele><time>2026-05-01T08:14:19.133Z</time></trkpt><trkpt lat="44.0675095" lon="11.3869425"><ele>702.0</ele><time>2026-05-01T08:14:20.133Z</time></trkpt><trkpt lat="44.0674248" lon="11.387034"><ele>702.0</ele><time>2026-05-01T08:14:21.132Z</time></trkpt><trkpt lat="44.0673728" lon="11.387163"><ele>702.0</ele><time>2026-05-01T08:14:22.134Z</time></trkpt><trkpt lat="44.0673442" lon="11.3873178"><ele>705.75</ele><time>2026-05-01T08:14:23.134Z</time></trkpt><trkpt lat="44.0673243" lon="11.387485"><ele>709.5</ele><time>2026-05-01T08:14:24.136Z</time></trkpt><trkpt lat="44.0672962" lon="11.3876528"><ele>713.25</ele><time>2026-05-01T08:14:25.134Z</time></trkpt><trkpt lat="44.0672572" lon="11.3878205"><ele>717.0</ele><time>2026-05-01T08:14:26.135Z</time></trkpt><trkpt lat="44.0672087" lon="11.387986"><ele>714.5</ele><time>2026-05-01T08:14:27.133Z</time></trkpt><trkpt lat="44.0671503" lon="11.3881515"><ele>712.0</ele><time>2026-05-01T08:14:28.133Z</time></trkpt><trkpt lat="44.0670873" lon="11.3883183"><ele>709.5</ele><time>2026-05-01T08:14:29.133Z</time></trkpt><trkpt lat="44.0670198" lon="11.3884847"><ele>707.0</ele><time>2026-05-01T08:14:30.13Z</time></trkpt><trkpt lat="44.0669455" lon="11.388647"><ele>707.0</ele><time>2026-05-01T08:14:31.131Z</time></trkpt><trkpt lat="44.066861" lon="11.3888033"><ele>707.0</ele><time>2026-05-01T08:14:32.131Z</time></trkpt><trkpt lat="44.0667685" lon="11.3889492"><ele>707.0</ele><time>2026-05-01T08:14:33.134Z</time></trkpt><trkpt lat="44.0666707" lon="11.389085"><ele>707.0</ele><time>2026-05-01T08:14:34.133Z</time></trkpt><trkpt lat="44.0665683" lon="11.3892125"><ele>710.75</ele><time>2026-05-01T08:14:35.132Z</time></trkpt><trkpt lat="44.066466" lon="11.389335"><ele>714.5</ele><time>2026-05-01T08:14:36.134Z</time></trkpt><trkpt lat="44.0663598" lon="11.3894422"><ele>718.25</ele><time>2026-05-01T08:14:37.132Z</time></trkpt><trkpt lat="44.0662438" lon="11.3895158"><ele>722.0</ele><time>2026-05-01T08:14:38.134Z</time></trkpt><trkpt lat="44.0661237" lon="11.3895632"><ele>722.0</ele><time>2026-05-01T08:14:39.133Z</time></trkpt><trkpt lat="44.0660155" lon="11.3896192"><ele>722.0</ele><time>2026-05-01T08:14:40.131Z</time></trkpt><trkpt lat="44.0659277" lon="11.3897157"><ele>722.0</ele><time>2026-05-01T08:14:41.131Z</time></trkpt><trkpt lat="44.065865" lon="11.389851"><ele>722.0</ele><time>2026-05-01T08:14:42.131Z</time></trkpt><trkpt lat="44.0658232" lon="11.3900052"><ele>720.5</ele><time>2026-05-01T08:14:43.132Z</time></trkpt><trkpt lat="44.0657868" lon="11.3901578"><ele>719.0</ele><time>2026-05-01T08:14:44.132Z</time></trkpt><trkpt lat="44.06573" lon="11.3902953"><ele>717.5</ele><time>2026-05-01T08:14:45.131Z</time></trkpt><trkpt lat="44.0656505" lon="11.3904223"><ele>716.0</ele><time>2026-05-01T08:14:46.13Z</time></trkpt><trkpt lat="44.0655653" lon="11.3905535"><ele>723.0</ele><time>2026-05-01T08:14:47.13Z</time></trkpt><trkpt lat="44.0654925" lon="11.3907038"><ele>730.0</ele><time>2026-05-01T08:14:48.129Z</time></trkpt><trkpt lat="44.0654378" lon="11.3908723"><ele>737.0</ele><time>2026-05-01T08:14:49.129Z</time></trkpt><trkpt lat="44.0653985" lon="11.3910548"><ele>744.0</ele><time>2026-05-01T08:14:50.13Z</time></trkpt><trkpt lat="44.0653628" lon="11.3912418"><ele>741.25</ele><time>2026-05-01T08:14:51.131Z</time></trkpt><trkpt lat="44.0653278" lon="11.3914298"><ele>738.5</ele><time>2026-05-01T08:14:52.131Z</time></trkpt><trkpt lat="44.0652933" lon="11.3916092"><ele>735.75</ele><time>2026-05-01T08:14:53.131Z</time></trkpt><trkpt lat="44.0652535" lon="11.391777"><ele>733.0</ele><time>2026-05-01T08:14:54.13Z</time></trkpt><trkpt lat="44.0651918" lon="11.3919312"><ele>733.0</ele><time>2026-05-01T08:14:55.13Z</time></trkpt><trkpt lat="44.0651063" lon="11.3920723"><ele>733.0</ele><time>2026-05-01T08:14:56.13Z</time></trkpt><trkpt lat="44.0650105" lon="11.3922132"><ele>733.0</ele><time>2026-05-01T08:14:57.131Z</time></trkpt><trkpt lat="44.0649162" lon="11.3923555"><ele>733.0</ele><time>2026-05-01T08:14:58.135Z</time></trkpt><trkpt lat="44.0648225" lon="11.3924902"><ele>727.25</ele><time>2026-05-01T08:14:59.132Z</time></trkpt><trkpt lat="44.0647192" lon="11.3926057"><ele>721.5</ele><time>2026-05-01T08:15:00.131Z</time></trkpt><trkpt lat="44.0646035" lon="11.392698"><ele>715.75</ele><time>2026-05-01T08:15:01.132Z</time></trkpt><trkpt lat="44.064486" lon="11.3927748"><ele>710.0</ele><time>2026-05-01T08:15:02.132Z</time></trkpt><trkpt lat="44.0643715" lon="11.392823"><ele>710.0</ele><time>2026-05-01T08:15:03.133Z</time></trkpt><trkpt lat="44.0642755" lon="11.392811"><ele>710.0</ele><time>2026-05-01T08:15:04.134Z</time></trkpt><trkpt lat="44.064205" lon="11.3927382"><ele>710.0</ele><time>2026-05-01T08:15:05.135Z</time></trkpt><trkpt lat="44.0641537" lon="11.3926185"><ele>710.0</ele><time>2026-05-01T08:15:06.134Z</time></trkpt><trkpt lat="44.0640995" lon="11.3924842"><ele>710.0</ele><time>2026-05-01T08:15:07.133Z</time></trkpt><trkpt lat="44.0640253" lon="11.3923518"><ele>710.5</ele><time>2026-05-01T08:15:08.133Z</time></trkpt><trkpt lat="44.0639297" lon="11.39223"><ele>711.0</ele><time>2026-05-01T08:15:09.132Z</time></trkpt><trkpt lat="44.063821" lon="11.3921165"><ele>711.5</ele><time>2026-05-01T08:15:10.132Z</time></trkpt><trkpt lat="44.0637085" lon="11.3920027"><ele>712.0</ele><time>2026-05-01T08:15:11.132Z</time></trkpt><trkpt lat="44.0636057" lon="11.3918795"><ele>712.0</ele><time>2026-05-01T08:15:12.134Z</time></trkpt><trkpt lat="44.0635148" lon="11.3917497"><ele>712.0</ele><time>2026-05-01T08:15:13.132Z</time></trkpt><trkpt lat="44.063427" lon="11.3916282"><ele>712.0</ele><time>2026-05-01T08:15:14.132Z</time></trkpt><trkpt lat="44.063334" lon="11.3915293"><ele>712.0</ele><time>2026-05-01T08:15:15.132Z</time></trkpt><trkpt lat="44.0632352" lon="11.391473"><ele>713.5</ele><time>2026-05-01T08:15:16.132Z</time></trkpt><trkpt lat="44.0631393" lon="11.3914748"><ele>715.0</ele><time>2026-05-01T08:15:17.131Z</time></trkpt><trkpt lat="44.0630617" lon="11.3915327"><ele>716.5</ele><time>2026-05-01T08:15:18.13Z</time></trkpt><trkpt lat="44.0630142" lon="11.3916252"><ele>718.0</ele><time>2026-05-01T08:15:19.129Z</time></trkpt><trkpt lat="44.0630048" lon="11.3917395"><ele>719.5</ele><time>2026-05-01T08:15:20.131Z</time></trkpt><trkpt lat="44.0630225" lon="11.3918603"><ele>721.0</ele><time>2026-05-01T08:15:21.129Z</time></trkpt><trkpt lat="44.063048" lon="11.391993"><ele>721.0</ele><time>2026-05-01T08:15:22.132Z</time></trkpt><trkpt lat="44.063074" lon="11.3921362"><ele>721.0</ele><time>2026-05-01T08:15:23.132Z</time></trkpt><trkpt lat="44.0630958" lon="11.3922865"><ele>721.0</ele><time>2026-05-01T08:15:24.132Z</time></trkpt><trkpt lat="44.0631117" lon="11.3924428"><ele>721.0</ele><time>2026-05-01T08:15:25.133Z</time></trkpt><trkpt lat="44.0631142" lon="11.3926"><ele>721.0</ele><time>2026-05-01T08:15:26.133Z</time></trkpt><trkpt lat="44.0630935" lon="11.3927548"><ele>727.5</ele><time>2026-05-01T08:15:27.132Z</time></trkpt><trkpt lat="44.0630607" lon="11.3929113"><ele>734.0</ele><time>2026-05-01T08:15:28.132Z</time></trkpt><trkpt lat="44.0630352" lon="11.393075"><ele>740.5</ele><time>2026-05-01T08:15:29.134Z</time></trkpt><trkpt lat="44.0630177" lon="11.393241"><ele>747.0</ele><time>2026-05-01T08:15:30.131Z</time></trkpt><trkpt lat="44.0629958" lon="11.3934055"><ele>748.0</ele><time>2026-05-01T08:15:31.132Z</time></trkpt><trkpt lat="44.06296" lon="11.39357"><ele>749.0</ele><time>2026-05-01T08:15:32.136Z</time></trkpt><trkpt lat="44.0629288" lon="11.393739"><ele>750.0</ele><time>2026-05-01T08:15:33.134Z</time></trkpt><trkpt lat="44.062908" lon="11.3939145"><ele>751.0</ele><time>2026-05-01T08:15:34.133Z</time></trkpt><trkpt lat="44.0628992" lon="11.3940933"><ele>748.25</ele><time>2026-05-01T08:15:35.134Z</time></trkpt><trkpt lat="44.0628987" lon="11.394273"><ele>745.5</ele><time>2026-05-01T08:15:36.133Z</time></trkpt><trkpt lat="44.0628983" lon="11.394447"><ele>742.75</ele><time>2026-05-01T08:15:37.133Z</time></trkpt><trkpt lat="44.0628858" lon="11.3946023"><ele>740.0</ele><time>2026-05-01T08:15:38.133Z</time></trkpt><trkpt lat="44.0628477" lon="11.3947357"><ele>734.75</ele><time>2026-05-01T08:15:39.131Z</time></trkpt><trkpt lat="44.062776" lon="11.3948393"><ele>729.5</ele><time>2026-05-01T08:15:40.132Z</time></trkpt><trkpt lat="44.0626822" lon="11.394922"><ele>724.25</ele><time>2026-05-01T08:15:41.133Z</time></trkpt><trkpt lat="44.0625753" lon="11.3949978"><ele>719.0</ele><time>2026-05-01T08:15:42.132Z</time></trkpt><trkpt lat="44.0624592" lon="11.3950617"><ele>727.25</ele><time>2026-05-01T08:15:43.13Z</time></trkpt><trkpt lat="44.0623385" lon="11.3951197"><ele>735.5</ele><time>2026-05-01T08:15:44.131Z</time></trkpt><trkpt lat="44.0622192" lon="11.395176"><ele>743.75</ele><time>2026-05-01T08:15:45.13Z</time></trkpt><trkpt lat="44.062101" lon="11.3952338"><ele>752.0</ele><time>2026-05-01T08:15:46.131Z</time></trkpt><trkpt lat="44.061987" lon="11.3953017"><ele>752.0</ele><time>2026-05-01T08:15:47.132Z</time></trkpt><trkpt lat="44.0618818" lon="11.395393"><ele>752.0</ele><time>2026-05-01T08:15:48.132Z</time></trkpt><trkpt lat="44.061788" lon="11.3955062"><ele>752.0</ele><time>2026-05-01T08:15:49.134Z</time></trkpt><trkpt lat="44.0617168" lon="11.3956393"><ele>752.0</ele><time>2026-05-01T08:15:50.132Z</time></trkpt><trkpt lat="44.061683" lon="11.3957835"><ele>746.8</ele><time>2026-05-01T08:15:51.132Z</time></trkpt><trkpt lat="44.0616883" lon="11.3959243"><ele>741.6</ele><time>2026-05-01T08:15:52.132Z</time></trkpt><trkpt lat="44.0617165" lon="11.3960512"><ele>736.4</ele><time>2026-05-01T08:15:53.133Z</time></trkpt><trkpt lat="44.0617227" lon="11.3961717"><ele>731.1999999999999</ele><time>2026-05-01T08:15:54.132Z</time></trkpt><trkpt lat="44.0616935" lon="11.3962967"><ele>726.0</ele><time>2026-05-01T08:15:55.132Z</time></trkpt><trkpt lat="44.0616325" lon="11.3964168"><ele>728.25</ele><time>2026-05-01T08:15:56.133Z</time></trkpt><trkpt lat="44.0615448" lon="11.3965198"><ele>730.5</ele><time>2026-05-01T08:15:57.132Z</time></trkpt><trkpt lat="44.061441" lon="11.3966192"><ele>732.75</ele><time>2026-05-01T08:15:58.136Z</time></trkpt><trkpt lat="44.0613407" lon="11.3967337"><ele>735.0</ele><time>2026-05-01T08:15:59.133Z</time></trkpt><trkpt lat="44.0612668" lon="11.3968677"><ele>735.0</ele><time>2026-05-01T08:16:00.133Z</time></trkpt><trkpt lat="44.0612168" lon="11.3970032"><ele>735.0</ele><time>2026-05-01T08:16:01.131Z</time></trkpt><trkpt lat="44.061161" lon="11.3971237"><ele>735.0</ele><time>2026-05-01T08:16:02.135Z</time></trkpt><trkpt lat="44.0610873" lon="11.3972047"><ele>735.0</ele><time>2026-05-01T08:16:03.135Z</time></trkpt><trkpt lat="44.0609992" lon="11.3972355"><ele>735.0</ele><time>2026-05-01T08:16:04.135Z</time></trkpt><trkpt lat="44.0609055" lon="11.3972098"><ele>735.0</ele><time>2026-05-01T08:16:05.135Z</time></trkpt><trkpt lat="44.0608047" lon="11.3971502"><ele>735.0</ele><time>2026-05-01T08:16:06.134Z</time></trkpt><trkpt lat="44.0606942" lon="11.3970893"><ele>735.0</ele><time>2026-05-01T08:16:07.131Z</time></trkpt><trkpt lat="44.0605762" lon="11.3970663"><ele>735.0</ele><time>2026-05-01T08:16:08.131Z</time></trkpt><trkpt lat="44.0604582" lon="11.3970995"><ele>736.75</ele><time>2026-05-01T08:16:09.131Z</time></trkpt><trkpt lat="44.0603502" lon="11.3971842"><ele>738.5</ele><time>2026-05-01T08:16:10.136Z</time></trkpt><trkpt lat="44.0602543" lon="11.3973025"><ele>740.25</ele><time>2026-05-01T08:16:11.134Z</time></trkpt><trkpt lat="44.060176" lon="11.397447"><ele>742.0</ele><time>2026-05-01T08:16:12.134Z</time></trkpt><trkpt lat="44.0601263" lon="11.397613"><ele>742.0</ele><time>2026-05-01T08:16:13.134Z</time></trkpt><trkpt lat="44.0600983" lon="11.3977773"><ele>742.0</ele><time>2026-05-01T08:16:14.134Z</time></trkpt><trkpt lat="44.0600622" lon="11.3979223"><ele>742.0</ele><time>2026-05-01T08:16:15.135Z</time></trkpt><trkpt lat="44.0599992" lon="11.3980282"><ele>742.0</ele><time>2026-05-01T08:16:16.134Z</time></trkpt><trkpt lat="44.0599102" lon="11.3980783"><ele>742.0</ele><time>2026-05-01T08:16:17.134Z</time></trkpt><trkpt lat="44.059808" lon="11.3980748"><ele>739.75</ele><time>2026-05-01T08:16:18.134Z</time></trkpt><trkpt lat="44.0597" lon="11.3980315"><ele>737.5</ele><time>2026-05-01T08:16:19.134Z</time></trkpt><trkpt lat="44.0595907" lon="11.3979612"><ele>735.25</ele><time>2026-05-01T08:16:20.134Z</time></trkpt><trkpt lat="44.0594788" lon="11.3978825"><ele>733.0</ele><time>2026-05-01T08:16:21.133Z</time></trkpt><trkpt lat="44.0593607" lon="11.397817"><ele>738.25</ele><time>2026-05-01T08:16:22.133Z</time></trkpt><trkpt lat="44.0592353" lon="11.3977812"><ele>743.5</ele><time>2026-05-01T08:16:23.134Z</time></trkpt><trkpt lat="44.059106" lon="11.39778"><ele>748.75</ele><time>2026-05-01T08:16:24.132Z</time></trkpt><trkpt lat="44.0589777" lon="11.3978137"><ele>754.0</ele><time>2026-05-01T08:16:25.133Z</time></trkpt><trkpt lat="44.058852" lon="11.3978622"><ele>754.0</ele><time>2026-05-01T08:16:26.133Z</time></trkpt><trkpt lat="44.0587263" lon="11.3979"><ele>754.0</ele><time>2026-05-01T08:16:27.135Z</time></trkpt><trkpt lat="44.0586012" lon="11.3979088"><ele>754.0</ele><time>2026-05-01T08:16:28.133Z</time></trkpt><trkpt lat="44.0584765" lon="11.3978967"><ele>754.0</ele><time>2026-05-01T08:16:29.133Z</time></trkpt><trkpt lat="44.0583543" lon="11.3978637"><ele>749.75</ele><time>2026-05-01T08:16:30.134Z</time></trkpt><trkpt lat="44.0582343" lon="11.3978115"><ele>745.5</ele><time>2026-05-01T08:16:31.132Z</time></trkpt><trkpt lat="44.0581175" lon="11.3977427"><ele>741.25</ele><time>2026-05-01T08:16:32.132Z</time></trkpt><trkpt lat="44.0580077" lon="11.3976532"><ele>737.0</ele><time>2026-05-01T08:16:33.131Z</time></trkpt><trkpt lat="44.0579105" lon="11.3975407"><ele>737.0</ele><time>2026-05-01T08:16:34.135Z</time></trkpt><trkpt lat="44.0578287" lon="11.3974073"><ele>737.0</ele><time>2026-05-01T08:16:35.132Z</time></trkpt><trkpt lat="44.0577632" lon="11.3972582"><ele>737.0</ele><time>2026-05-01T08:16:36.133Z</time></trkpt><trkpt lat="44.0577282" lon="11.39709"><ele>737.0</ele><time>2026-05-01T08:16:37.132Z</time></trkpt><trkpt lat="44.0577243" lon="11.3969163"><ele>740.0</ele><time>2026-05-01T08:16:38.133Z</time></trkpt><trkpt lat="44.057721" lon="11.396738"><ele>743.0</ele><time>2026-05-01T08:16:39.132Z</time></trkpt><trkpt lat="44.0576977" lon="11.3965583"><ele>746.0</ele><time>2026-05-01T08:16:40.133Z</time></trkpt><trkpt lat="44.0576508" lon="11.3963808"><ele>749.0</ele><time>2026-05-01T08:16:41.134Z</time></trkpt><trkpt lat="44.0575925" lon="11.3962035"><ele>745.75</ele><time>2026-05-01T08:16:42.132Z</time></trkpt><trkpt lat="44.057535" lon="11.3960223"><ele>742.5</ele><time>2026-05-01T08:16:43.133Z</time></trkpt><trkpt lat="44.0574797" lon="11.3958417"><ele>739.25</ele><time>2026-05-01T08:16:44.133Z</time></trkpt><trkpt lat="44.0574242" lon="11.3956643"><ele>736.0</ele><time>2026-05-01T08:16:45.133Z</time></trkpt><trkpt lat="44.0573718" lon="11.3954915"><ele>736.0</ele><time>2026-05-01T08:16:46.132Z</time></trkpt><trkpt lat="44.057334" lon="11.3953308"><ele>736.0</ele><time>2026-05-01T08:16:47.134Z</time></trkpt><trkpt lat="44.057324" lon="11.3951843"><ele>736.0</ele><time>2026-05-01T08:16:48.134Z</time></trkpt><trkpt lat="44.0573545" lon="11.3950602"><ele>736.0</ele><time>2026-05-01T08:16:49.132Z</time></trkpt><trkpt lat="44.0574228" lon="11.3949662"><ele>736.0</ele><time>2026-05-01T08:16:50.133Z</time></trkpt><trkpt lat="44.0575127" lon="11.3948997"><ele>740.6666666666667</ele><time>2026-05-01T08:16:51.132Z</time></trkpt><trkpt lat="44.0575943" lon="11.394831"><ele>745.3333333333334</ele><time>2026-05-01T08:16:52.134Z</time></trkpt><trkpt lat="44.0576493" lon="11.394735"><ele>750.0</ele><time>2026-05-01T08:16:53.133Z</time></trkpt><trkpt lat="44.0576608" lon="11.3946243"><ele>754.6666666666666</ele><time>2026-05-01T08:16:54.134Z</time></trkpt><trkpt lat="44.0576253" lon="11.3945245"><ele>759.3333333333333</ele><time>2026-05-01T08:16:55.132Z</time></trkpt><trkpt lat="44.057556" lon="11.3944398"><ele>764.0</ele><time>2026-05-01T08:16:56.133Z</time></trkpt><trkpt lat="44.0574698" lon="11.394355"><ele>762.25</ele><time>2026-05-01T08:16:57.13Z</time></trkpt><trkpt lat="44.057376" lon="11.3942618"><ele>760.5</ele><time>2026-05-01T08:16:58.129Z</time></trkpt><trkpt lat="44.0572737" lon="11.3941695"><ele>758.75</ele><time>2026-05-01T08:16:59.13Z</time></trkpt><trkpt lat="44.0571635" lon="11.3940857"><ele>757.0</ele><time>2026-05-01T08:17:00.132Z</time></trkpt><trkpt lat="44.0570497" lon="11.394014"><ele>757.0</ele><time>2026-05-01T08:17:01.132Z</time></trkpt><trkpt lat="44.0569407" lon="11.3939455"><ele>757.0</ele><time>2026-05-01T08:17:02.134Z</time></trkpt><trkpt lat="44.0568567" lon="11.3938612"><ele>757.0</ele><time>2026-05-01T08:17:03.132Z</time></trkpt><trkpt lat="44.0568078" lon="11.3937495"><ele>757.0</ele><time>2026-05-01T08:17:04.133Z</time></trkpt><trkpt lat="44.0568013" lon="11.3936193"><ele>757.0</ele><time>2026-05-01T08:17:05.132Z</time></trkpt><trkpt lat="44.0568212" lon="11.3934797"><ele>761.4000000000001</ele><time>2026-05-01T08:17:06.132Z</time></trkpt><trkpt lat="44.0568367" lon="11.3933395"><ele>765.8000000000001</ele><time>2026-05-01T08:17:07.133Z</time></trkpt><trkpt lat="44.0568303" lon="11.3932095"><ele>770.2</ele><time>2026-05-01T08:17:08.133Z</time></trkpt><trkpt lat="44.0567922" lon="11.3930945"><ele>774.6</ele><time>2026-05-01T08:17:09.132Z</time></trkpt><trkpt lat="44.0567245" lon="11.3930247"><ele>779.0</ele><time>2026-05-01T08:17:10.133Z</time></trkpt><trkpt lat="44.0566418" lon="11.3930175"><ele>776.0</ele><time>2026-05-01T08:17:11.131Z</time></trkpt><trkpt lat="44.056561" lon="11.3930698"><ele>773.0</ele><time>2026-05-01T08:17:12.13Z</time></trkpt><trkpt lat="44.0564795" lon="11.3931545"><ele>770.0</ele><time>2026-05-01T08:17:13.13Z</time></trkpt><trkpt lat="44.056388" lon="11.3932377"><ele>767.0</ele><time>2026-05-01T08:17:14.132Z</time></trkpt><trkpt lat="44.0562845" lon="11.3932893"><ele>764.0</ele><time>2026-05-01T08:17:15.131Z</time></trkpt><trkpt lat="44.0561773" lon="11.393296"><ele>764.0</ele><time>2026-05-01T08:17:16.132Z</time></trkpt><trkpt lat="44.0560832" lon="11.3932437"><ele>764.0</ele><time>2026-05-01T08:17:17.133Z</time></trkpt><trkpt lat="44.0560147" lon="11.393134"><ele>764.0</ele><time>2026-05-01T08:17:18.132Z</time></trkpt><trkpt lat="44.0559553" lon="11.392993"><ele>764.0</ele><time>2026-05-01T08:17:19.134Z</time></trkpt><trkpt lat="44.0558902" lon="11.3928347"><ele>765.75</ele><time>2026-05-01T08:17:20.131Z</time></trkpt><trkpt lat="44.0558197" lon="11.39267"><ele>767.5</ele><time>2026-05-01T08:17:21.129Z</time></trkpt><trkpt lat="44.0557457" lon="11.3924962"><ele>769.25</ele><time>2026-05-01T08:17:22.129Z</time></trkpt><trkpt lat="44.0556758" lon="11.3923198"><ele>771.0</ele><time>2026-05-01T08:17:23.13Z</time></trkpt><trkpt lat="44.05561" lon="11.3921463"><ele>774.5</ele><time>2026-05-01T08:17:24.129Z</time></trkpt><trkpt lat="44.0555473" lon="11.3919793"><ele>778.0</ele><time>2026-05-01T08:17:25.131Z</time></trkpt><trkpt lat="44.0554853" lon="11.3918163"><ele>781.5</ele><time>2026-05-01T08:17:26.133Z</time></trkpt><trkpt lat="44.0554228" lon="11.3916562"><ele>785.0</ele><time>2026-05-01T08:17:27.134Z</time></trkpt><trkpt lat="44.0553698" lon="11.3914893"><ele>787.5</ele><time>2026-05-01T08:17:28.13Z</time></trkpt><trkpt lat="44.0553412" lon="11.3913133"><ele>790.0</ele><time>2026-05-01T08:17:29.131Z</time></trkpt><trkpt lat="44.0553397" lon="11.3911355"><ele>792.5</ele><time>2026-05-01T08:17:30.131Z</time></trkpt><trkpt lat="44.0553497" lon="11.3909588"><ele>795.0</ele><time>2026-05-01T08:17:31.133Z</time></trkpt><trkpt lat="44.0553555" lon="11.3907807"><ele>795.0</ele><time>2026-05-01T08:17:32.132Z</time></trkpt><trkpt lat="44.0553518" lon="11.3906012"><ele>795.0</ele><time>2026-05-01T08:17:33.132Z</time></trkpt><trkpt lat="44.055339" lon="11.3904288"><ele>795.0</ele><time>2026-05-01T08:17:34.132Z</time></trkpt><trkpt lat="44.0553245" lon="11.3902777"><ele>795.0</ele><time>2026-05-01T08:17:35.132Z</time></trkpt><trkpt lat="44.0552952" lon="11.3901573"><ele>797.3333333333334</ele><time>2026-05-01T08:17:36.132Z</time></trkpt><trkpt lat="44.055239" lon="11.3900853"><ele>799.6666666666667</ele><time>2026-05-01T08:17:37.131Z</time></trkpt><trkpt lat="44.0551642" lon="11.3900715"><ele>802.0</ele><time>2026-05-01T08:17:38.132Z</time></trkpt><trkpt lat="44.0550918" lon="11.3901202"><ele>804.3333333333334</ele><time>2026-05-01T08:17:39.131Z</time></trkpt><trkpt lat="44.0550238" lon="11.3902143"><ele>806.6666666666667</ele><time>2026-05-01T08:17:40.13Z</time></trkpt><trkpt lat="44.0549578" lon="11.3903352"><ele>809.0</ele><time>2026-05-01T08:17:41.132Z</time></trkpt><trkpt lat="44.0548873" lon="11.3904625"><ele>807.2</ele><time>2026-05-01T08:17:42.132Z</time></trkpt><trkpt lat="44.0548057" lon="11.3905642"><ele>805.4000000000001</ele><time>2026-05-01T08:17:43.131Z</time></trkpt><trkpt lat="44.0547085" lon="11.3906282"><ele>803.6</ele><time>2026-05-01T08:17:44.132Z</time></trkpt><trkpt lat="44.0546002" lon="11.3906518"><ele>801.8</ele><time>2026-05-01T08:17:45.129Z</time></trkpt><trkpt lat="44.0544835" lon="11.3906458"><ele>800.0</ele><time>2026-05-01T08:17:46.129Z</time></trkpt><trkpt lat="44.0543617" lon="11.390619"><ele>800.0</ele><time>2026-05-01T08:17:47.13Z</time></trkpt><trkpt lat="44.0542357" lon="11.3905753"><ele>800.0</ele><time>2026-05-01T08:17:48.13Z</time></trkpt><trkpt lat="44.0541083" lon="11.390526"><ele>800.0</ele><time>2026-05-01T08:17:49.131Z</time></trkpt><trkpt lat="44.0539768" lon="11.3904768"><ele>800.0</ele><time>2026-05-01T08:17:50.132Z</time></trkpt><trkpt lat="44.0538408" lon="11.3904307"><ele>805.0</ele><time>2026-05-01T08:17:51.132Z</time></trkpt><trkpt lat="44.053701" lon="11.3904065"><ele>810.0</ele><time>2026-05-01T08:17:52.132Z</time></trkpt><trkpt lat="44.0535602" lon="11.3904033"><ele>815.0</ele><time>2026-05-01T08:17:53.133Z</time></trkpt><trkpt lat="44.0534208" lon="11.3904053"><ele>820.0</ele><time>2026-05-01T08:17:54.133Z</time></trkpt><trkpt lat="44.0532852" lon="11.3904133"><ele>820.0</ele><time>2026-05-01T08:17:55.133Z</time></trkpt><trkpt lat="44.0531548" lon="11.3904438"><ele>820.0</ele><time>2026-05-01T08:17:56.135Z</time></trkpt><trkpt lat="44.05303" lon="11.3904952"><ele>820.0</ele><time>2026-05-01T08:17:57.136Z</time></trkpt><trkpt lat="44.0529082" lon="11.3905365"><ele>820.0</ele><time>2026-05-01T08:17:58.134Z</time></trkpt><trkpt lat="44.052786" lon="11.3905497"><ele>820.0</ele><time>2026-05-01T08:17:59.135Z</time></trkpt><trkpt lat="44.0526628" lon="11.3905278"><ele>820.0</ele><time>2026-05-01T08:18:00.136Z</time></trkpt><trkpt lat="44.0525383" lon="11.390479"><ele>820.0</ele><time>2026-05-01T08:18:01.134Z</time></trkpt><trkpt lat="44.0524103" lon="11.390419"><ele>820.0</ele><time>2026-05-01T08:18:02.135Z</time></trkpt><trkpt lat="44.0522782" lon="11.3903562"><ele>819.5</ele><time>2026-05-01T08:18:03.134Z</time></trkpt><trkpt lat="44.0521433" lon="11.3902927"><ele>819.0</ele><time>2026-05-01T08:18:04.134Z</time></trkpt><trkpt lat="44.0520082" lon="11.3902288"><ele>818.5</ele><time>2026-05-01T08:18:05.137Z</time></trkpt><trkpt lat="44.051872" lon="11.3901655"><ele>818.0</ele><time>2026-05-01T08:18:06.137Z</time></trkpt><trkpt lat="44.0517352" lon="11.3901095"><ele>818.5</ele><time>2026-05-01T08:18:07.134Z</time></trkpt><trkpt lat="44.0515967" lon="11.3900817"><ele>819.0</ele><time>2026-05-01T08:18:08.135Z</time></trkpt><trkpt lat="44.0514568" lon="11.3900885"><ele>819.5</ele><time>2026-05-01T08:18:09.134Z</time></trkpt><trkpt lat="44.0513175" lon="11.3901012"><ele>820.0</ele><time>2026-05-01T08:18:10.131Z</time></trkpt><trkpt lat="44.0511778" lon="11.3900962"><ele>820.0</ele><time>2026-05-01T08:18:11.132Z</time></trkpt><trkpt lat="44.0510412" lon="11.3900603"><ele>820.0</ele><time>2026-05-01T08:18:12.133Z</time></trkpt><trkpt lat="44.0509123" lon="11.3899943"><ele>820.0</ele><time>2026-05-01T08:18:13.133Z</time></trkpt><trkpt lat="44.0507892" lon="11.3899097"><ele>820.0</ele><time>2026-05-01T08:18:14.134Z</time></trkpt><trkpt lat="44.050665" lon="11.3898285"><ele>822.25</ele><time>2026-05-01T08:18:15.135Z</time></trkpt><trkpt lat="44.0505372" lon="11.3897602"><ele>824.5</ele><time>2026-05-01T08:18:16.135Z</time></trkpt><trkpt lat="44.0504058" lon="11.3897037"><ele>826.75</ele><time>2026-05-01T08:18:17.135Z</time></trkpt><trkpt lat="44.050271" lon="11.389661"><ele>829.0</ele><time>2026-05-01T08:18:18.133Z</time></trkpt><trkpt lat="44.0501332" lon="11.3896335"><ele>832.75</ele><time>2026-05-01T08:18:19.134Z</time></trkpt><trkpt lat="44.0499938" lon="11.3896218"><ele>836.5</ele><time>2026-05-01T08:18:20.135Z</time></trkpt><trkpt lat="44.0498552" lon="11.3896262"><ele>840.25</ele><time>2026-05-01T08:18:21.133Z</time></trkpt><trkpt lat="44.0497182" lon="11.389656"><ele>844.0</ele><time>2026-05-01T08:18:22.132Z</time></trkpt><trkpt lat="44.0495827" lon="11.3897097"><ele>844.0</ele><time>2026-05-01T08:18:23.132Z</time></trkpt><trkpt lat="44.0494515" lon="11.3897842"><ele>844.0</ele><time>2026-05-01T08:18:24.132Z</time></trkpt><trkpt lat="44.0493262" lon="11.3898715"><ele>844.0</ele><time>2026-05-01T08:18:25.133Z</time></trkpt><trkpt lat="44.0492102" lon="11.3899695"><ele>844.0</ele><time>2026-05-01T08:18:26.132Z</time></trkpt><trkpt lat="44.0491117" lon="11.390071"><ele>845.25</ele><time>2026-05-01T08:18:27.136Z</time></trkpt><trkpt lat="44.0490448" lon="11.3902018"><ele>846.5</ele><time>2026-05-01T08:18:28.133Z</time></trkpt><trkpt lat="44.0490082" lon="11.3903583"><ele>847.75</ele><time>2026-05-01T08:18:29.134Z</time></trkpt><trkpt lat="44.048976" lon="11.3905278"><ele>849.0</ele><time>2026-05-01T08:18:30.133Z</time></trkpt><trkpt lat="44.0489283" lon="11.3906943"><ele>849.0</ele><time>2026-05-01T08:18:31.135Z</time></trkpt><trkpt lat="44.0488668" lon="11.3908587"><ele>849.0</ele><time>2026-05-01T08:18:32.136Z</time></trkpt><trkpt lat="44.0487953" lon="11.3910213"><ele>849.0</ele><time>2026-05-01T08:18:33.133Z</time></trkpt><trkpt lat="44.0487273" lon="11.391186"><ele>849.0</ele><time>2026-05-01T08:18:34.131Z</time></trkpt><trkpt lat="44.0486722" lon="11.3913522"><ele>848.2</ele><time>2026-05-01T08:18:35.132Z</time></trkpt><trkpt lat="44.0486238" lon="11.3915025"><ele>847.4000000000001</ele><time>2026-05-01T08:18:36.133Z</time></trkpt><trkpt lat="44.0485702" lon="11.391617"><ele>846.6</ele><time>2026-05-01T08:18:37.13Z</time></trkpt><trkpt lat="44.048512" lon="11.3916615"><ele>845.8</ele><time>2026-05-01T08:18:38.136Z</time></trkpt><trkpt lat="44.04844" lon="11.3915647"><ele>845.0</ele><time>2026-05-01T08:18:40.134Z</time></trkpt><trkpt lat="44.0484305" lon="11.3914598"><ele>845.8</ele><time>2026-05-01T08:18:41.136Z</time></trkpt><trkpt lat="44.048421" lon="11.3913327"><ele>846.6</ele><time>2026-05-01T08:18:42.135Z</time></trkpt><trkpt lat="44.0484028" lon="11.3911917"><ele>847.4000000000001</ele><time>2026-05-01T08:18:43.135Z</time></trkpt><trkpt lat="44.048365" lon="11.3910515"><ele>848.2</ele><time>2026-05-01T08:18:44.134Z</time></trkpt><trkpt lat="44.0483147" lon="11.3909067"><ele>849.0</ele><time>2026-05-01T08:18:45.135Z</time></trkpt><trkpt lat="44.0482565" lon="11.3907563"><ele>850.0</ele><time>2026-05-01T08:18:46.134Z</time></trkpt><trkpt lat="44.0481943" lon="11.3906075"><ele>851.0</ele><time>2026-05-01T08:18:47.133Z</time></trkpt><trkpt lat="44.0481228" lon="11.3904708"><ele>852.0</ele><time>2026-05-01T08:18:48.133Z</time></trkpt><trkpt lat="44.0480325" lon="11.3903612"><ele>853.0</ele><time>2026-05-01T08:18:49.133Z</time></trkpt><trkpt lat="44.0479227" lon="11.3902947"><ele>856.5</ele><time>2026-05-01T08:18:50.133Z</time></trkpt><trkpt lat="44.0478005" lon="11.3902832"><ele>860.0</ele><time>2026-05-01T08:18:51.133Z</time></trkpt><trkpt lat="44.04768" lon="11.3903257"><ele>863.5</ele><time>2026-05-01T08:18:52.133Z</time></trkpt><trkpt lat="44.0475675" lon="11.3904038"><ele>867.0</ele><time>2026-05-01T08:18:53.135Z</time></trkpt><trkpt lat="44.0474623" lon="11.3904838"><ele>865.1666666666666</ele><time>2026-05-01T08:18:54.135Z</time></trkpt><trkpt lat="44.0473692" lon="11.3905237"><ele>863.3333333333333</ele><time>2026-05-01T08:18:55.136Z</time></trkpt><trkpt lat="44.0472938" lon="11.390498"><ele>861.5</ele><time>2026-05-01T08:18:56.136Z</time></trkpt><trkpt lat="44.0472507" lon="11.3904148"><ele>859.6666666666666</ele><time>2026-05-01T08:18:57.136Z</time></trkpt><trkpt lat="44.0472332" lon="11.3902958"><ele>857.8333333333333</ele><time>2026-05-01T08:18:58.135Z</time></trkpt><trkpt lat="44.0472237" lon="11.3901552"><ele>856.0</ele><time>2026-05-01T08:18:59.133Z</time></trkpt><trkpt lat="44.0472153" lon="11.39"><ele>856.0</ele><time>2026-05-01T08:19:00.132Z</time></trkpt><trkpt lat="44.0472062" lon="11.389833"><ele>856.0</ele><time>2026-05-01T08:19:01.133Z</time></trkpt><trkpt lat="44.0471935" lon="11.3896592"><ele>856.0</ele><time>2026-05-01T08:19:02.134Z</time></trkpt><trkpt lat="44.0471708" lon="11.389483"><ele>856.0</ele><time>2026-05-01T08:19:03.136Z</time></trkpt><trkpt lat="44.0471363" lon="11.3893052"><ele>859.5</ele><time>2026-05-01T08:19:04.139Z</time></trkpt><trkpt lat="44.0471075" lon="11.389129"><ele>863.0</ele><time>2026-05-01T08:19:05.137Z</time></trkpt><trkpt lat="44.0470987" lon="11.388962"><ele>866.5</ele><time>2026-05-01T08:19:06.135Z</time></trkpt><trkpt lat="44.0471117" lon="11.3888105"><ele>870.0</ele><time>2026-05-01T08:19:07.136Z</time></trkpt><trkpt lat="44.0471288" lon="11.3886637"><ele>872.2</ele><time>2026-05-01T08:19:08.134Z</time></trkpt><trkpt lat="44.0471343" lon="11.3885172"><ele>874.4</ele><time>2026-05-01T08:19:09.134Z</time></trkpt><trkpt lat="44.0471195" lon="11.3883737"><ele>876.5999999999999</ele><time>2026-05-01T08:19:10.135Z</time></trkpt><trkpt lat="44.0470733" lon="11.3882422"><ele>878.8</ele><time>2026-05-01T08:19:11.135Z</time></trkpt><trkpt lat="44.0469957" lon="11.388135"><ele>881.0</ele><time>2026-05-01T08:19:12.133Z</time></trkpt><trkpt lat="44.046896" lon="11.3880575"><ele>881.1999999999999</ele><time>2026-05-01T08:19:13.133Z</time></trkpt><trkpt lat="44.0467945" lon="11.3880037"><ele>881.3999999999999</ele><time>2026-05-01T08:19:14.136Z</time></trkpt><trkpt lat="44.0466988" lon="11.3879602"><ele>881.6</ele><time>2026-05-01T08:19:15.134Z</time></trkpt><trkpt lat="44.046608" lon="11.3879385"><ele>881.8</ele><time>2026-05-01T08:19:16.136Z</time></trkpt><trkpt lat="44.0465305" lon="11.3879418"><ele>882.0</ele><time>2026-05-01T08:19:17.136Z</time></trkpt><trkpt lat="44.046455" lon="11.3879578"><ele>881.6</ele><time>2026-05-01T08:19:18.136Z</time></trkpt><trkpt lat="44.0463722" lon="11.3879782"><ele>881.2</ele><time>2026-05-01T08:19:19.136Z</time></trkpt><trkpt lat="44.0462813" lon="11.38801"><ele>880.8</ele><time>2026-05-01T08:19:20.135Z</time></trkpt><trkpt lat="44.0461863" lon="11.3880553"><ele>880.4</ele><time>2026-05-01T08:19:21.138Z</time></trkpt><trkpt lat="44.046089" lon="11.3881042"><ele>880.0</ele><time>2026-05-01T08:19:22.136Z</time></trkpt><trkpt lat="44.0459923" lon="11.388158"><ele>880.0</ele><time>2026-05-01T08:19:23.133Z</time></trkpt><trkpt lat="44.0459005" lon="11.3882202"><ele>880.0</ele><time>2026-05-01T08:19:24.134Z</time></trkpt><trkpt lat="44.0458148" lon="11.3882925"><ele>880.0</ele><time>2026-05-01T08:19:25.133Z</time></trkpt><trkpt lat="44.0457333" lon="11.3883718"><ele>880.0</ele><time>2026-05-01T08:19:26.136Z</time></trkpt><trkpt lat="44.0456547" lon="11.3884602"><ele>880.0</ele><time>2026-05-01T08:19:27.136Z</time></trkpt><trkpt lat="44.045579" lon="11.388554"><ele>879.8</ele><time>2026-05-01T08:19:28.136Z</time></trkpt><trkpt lat="44.0455117" lon="11.3886595"><ele>879.6</ele><time>2026-05-01T08:19:29.138Z</time></trkpt><trkpt lat="44.0454553" lon="11.3887775"><ele>879.4000000000001</ele><time>2026-05-01T08:19:30.136Z</time></trkpt><trkpt lat="44.0454075" lon="11.3889045"><ele>879.2</ele><time>2026-05-01T08:19:31.137Z</time></trkpt><trkpt lat="44.0453605" lon="11.3890287"><ele>879.0</ele><time>2026-05-01T08:19:32.137Z</time></trkpt><trkpt lat="44.0453185" lon="11.3891522"><ele>878.6</ele><time>2026-05-01T08:19:33.134Z</time></trkpt><trkpt lat="44.0452755" lon="11.3892732"><ele>878.2</ele><time>2026-05-01T08:19:34.135Z</time></trkpt><trkpt lat="44.0452185" lon="11.3893883"><ele>877.8000000000001</ele><time>2026-05-01T08:19:35.136Z</time></trkpt><trkpt lat="44.0451475" lon="11.3895003"><ele>877.4000000000001</ele><time>2026-05-01T08:19:36.138Z</time></trkpt><trkpt lat="44.0450615" lon="11.3896085"><ele>877.0</ele><time>2026-05-01T08:19:37.134Z</time></trkpt><trkpt lat="44.0449727" lon="11.389708"><ele>881.2</ele><time>2026-05-01T08:19:38.136Z</time></trkpt><trkpt lat="44.044885" lon="11.3897985"><ele>885.4000000000001</ele><time>2026-05-01T08:19:39.137Z</time></trkpt><trkpt lat="44.0448072" lon="11.3899003"><ele>889.5999999999999</ele><time>2026-05-01T08:19:40.134Z</time></trkpt><trkpt lat="44.0447437" lon="11.3900185"><ele>893.8</ele><time>2026-05-01T08:19:41.134Z</time></trkpt><trkpt lat="44.0446945" lon="11.3901543"><ele>898.0</ele><time>2026-05-01T08:19:42.134Z</time></trkpt><trkpt lat="44.0446577" lon="11.3903063"><ele>898.0</ele><time>2026-05-01T08:19:43.135Z</time></trkpt><trkpt lat="44.0446392" lon="11.3904693"><ele>898.0</ele><time>2026-05-01T08:19:44.136Z</time></trkpt><trkpt lat="44.0446363" lon="11.390635"><ele>898.0</ele><time>2026-05-01T08:19:45.135Z</time></trkpt><trkpt lat="44.0446417" lon="11.3907947"><ele>898.0</ele><time>2026-05-01T08:19:46.138Z</time></trkpt><trkpt lat="44.044648" lon="11.3909492"><ele>896.0</ele><time>2026-05-01T08:19:47.134Z</time></trkpt><trkpt lat="44.0446587" lon="11.3911012"><ele>894.0</ele><time>2026-05-01T08:19:48.135Z</time></trkpt><trkpt lat="44.044671" lon="11.3912475"><ele>892.0</ele><time>2026-05-01T08:19:49.132Z</time></trkpt><trkpt lat="44.0446807" lon="11.3913875"><ele>890.0</ele><time>2026-05-01T08:19:50.133Z</time></trkpt><trkpt lat="44.0446863" lon="11.3915147"><ele>888.0</ele><time>2026-05-01T08:19:51.132Z</time></trkpt><trkpt lat="44.0446868" lon="11.3916295"><ele>886.5</ele><time>2026-05-01T08:19:52.135Z</time></trkpt><trkpt lat="44.0446923" lon="11.3917303"><ele>885.0</ele><time>2026-05-01T08:19:53.134Z</time></trkpt><trkpt lat="44.0447063" lon="11.3918832"><ele>883.5</ele><time>2026-05-01T08:19:55.134Z</time></trkpt><trkpt lat="44.0447415" lon="11.3919795"><ele>882.0</ele><time>2026-05-01T08:19:57.133Z</time></trkpt><trkpt lat="44.0447788" lon="11.392116"><ele>880.5</ele><time>2026-05-01T08:19:59.133Z</time></trkpt><trkpt lat="44.0448263" lon="11.3922112"><ele>879.0</ele><time>2026-05-01T08:20:00.133Z</time></trkpt><trkpt lat="44.0448912" lon="11.3923153"><ele>877.0</ele><time>2026-05-01T08:20:01.135Z</time></trkpt><trkpt lat="44.0449667" lon="11.3924287"><ele>875.0000000000001</ele><time>2026-05-01T08:20:02.134Z</time></trkpt><trkpt lat="44.0450248" lon="11.3925247"><ele>873.0000000000001</ele><time>2026-05-01T08:20:03.134Z</time></trkpt><trkpt lat="44.0450567" lon="11.3926118"><ele>871.0</ele><time>2026-05-01T08:20:04.132Z</time></trkpt><trkpt lat="44.0450373" lon="11.3927925"><ele>869.0</ele><time>2026-05-01T08:20:06.137Z</time></trkpt><trkpt lat="44.0450138" lon="11.3929005"><ele>869.0000000000001</ele><time>2026-05-01T08:20:07.134Z</time></trkpt><trkpt lat="44.0450092" lon="11.3930002"><ele>869.0</ele><time>2026-05-01T08:20:08.136Z</time></trkpt><trkpt lat="44.0450193" lon="11.3931128"><ele>869.0</ele><time>2026-05-01T08:20:10.134Z</time></trkpt><trkpt lat="44.0449528" lon="11.3931945"><ele>869.0</ele><time>2026-05-01T08:20:17.135Z</time></trkpt><trkpt lat="44.044931" lon="11.3933043"><ele>869.0000000000001</ele><time>2026-05-01T08:20:19.134Z</time></trkpt><trkpt lat="44.0449138" lon="11.393429"><ele>869.0</ele><time>2026-05-01T08:20:21.136Z</time></trkpt><trkpt lat="44.0449137" lon="11.3935598"><ele>870.8000000000001</ele><time>2026-05-01T08:20:23.136Z</time></trkpt><trkpt lat="44.0449328" lon="11.3936917"><ele>872.6000000000001</ele><time>2026-05-01T08:20:25.136Z</time></trkpt><trkpt lat="44.0449622" lon="11.3938163"><ele>874.4</ele><time>2026-05-01T08:20:27.136Z</time></trkpt><trkpt lat="44.0449947" lon="11.393946"><ele>876.2</ele><time>2026-05-01T08:20:29.136Z</time></trkpt><trkpt lat="44.0450298" lon="11.394098"><ele>878.0</ele><time>2026-05-01T08:20:31.135Z</time></trkpt><trkpt lat="44.0450248" lon="11.3942497"><ele>878.0</ele><time>2026-05-01T08:20:33.134Z</time></trkpt><trkpt lat="44.0449772" lon="11.3943665"><ele>878.0</ele><time>2026-05-01T08:20:35.134Z</time></trkpt><trkpt lat="44.0449017" lon="11.3944373"><ele>878.0</ele><time>2026-05-01T08:20:41.132Z</time></trkpt><trkpt lat="44.0448193" lon="11.3945107"><ele>878.0</ele><time>2026-05-01T08:20:43.132Z</time></trkpt><trkpt lat="44.044763" lon="11.3946027"><ele>878.0</ele><time>2026-05-01T08:20:45.133Z</time></trkpt><trkpt lat="44.0447335" lon="11.3947138"><ele>873.5999999999999</ele><time>2026-05-01T08:20:47.134Z</time></trkpt><trkpt lat="44.0447012" lon="11.3948272"><ele>869.1999999999999</ele><time>2026-05-01T08:20:49.134Z</time></trkpt><trkpt lat="44.0446777" lon="11.3949463"><ele>864.8</ele><time>2026-05-01T08:20:51.133Z</time></trkpt><trkpt lat="44.0446558" lon="11.3951118"><ele>860.4</ele><time>2026-05-01T08:20:53.134Z</time></trkpt><trkpt lat="44.0446492" lon="11.3952438"><ele>856.0</ele><time>2026-05-01T08:20:55.133Z</time></trkpt><trkpt lat="44.0446958" lon="11.395359"><ele>856.0</ele><time>2026-05-01T08:20:57.132Z</time></trkpt><trkpt lat="44.044792" lon="11.395493"><ele>856.0</ele><time>2026-05-01T08:20:59.135Z</time></trkpt><trkpt lat="44.0448417" lon="11.3955777"><ele>856.0</ele><time>2026-05-01T08:21:00.134Z</time></trkpt><trkpt lat="44.0448932" lon="11.395724"><ele>856.0</ele><time>2026-05-01T08:21:02.132Z</time></trkpt><trkpt lat="44.0449468" lon="11.3958705"><ele>854.0</ele><time>2026-05-01T08:21:04.131Z</time></trkpt><trkpt lat="44.0449953" lon="11.3959907"><ele>851.9999999999999</ele><time>2026-05-01T08:21:06.132Z</time></trkpt><trkpt lat="44.0450253" lon="11.3961325"><ele>850.0</ele><time>2026-05-01T08:21:08.132Z</time></trkpt><trkpt lat="44.04501" lon="11.3962375"><ele>848.0</ele><time>2026-05-01T08:21:10.131Z</time></trkpt><trkpt lat="44.0449473" lon="11.3963387"><ele>846.0</ele><time>2026-05-01T08:21:12.131Z</time></trkpt><trkpt lat="44.0448752" lon="11.3964567"><ele>846.0</ele><time>2026-05-01T08:21:14.132Z</time></trkpt><trkpt lat="44.0448233" lon="11.3965248"><ele>846.0</ele><time>2026-05-01T08:21:15.133Z</time></trkpt><trkpt lat="44.0447517" lon="11.3966262"><ele>846.0</ele><time>2026-05-01T08:21:17.132Z</time></trkpt><trkpt lat="44.0447333" lon="11.3967527"><ele>846.0</ele><time>2026-05-01T08:21:19.134Z</time></trkpt><trkpt lat="44.0447503" lon="11.3969113"><ele>846.0</ele><time>2026-05-01T08:21:21.132Z</time></trkpt><trkpt lat="44.0448048" lon="11.3970413"><ele>846.0</ele><time>2026-05-01T08:21:23.133Z</time></trkpt><trkpt lat="44.0448705" lon="11.3971587"><ele>846.0</ele><time>2026-05-01T08:21:25.132Z</time></trkpt><trkpt lat="44.044883" lon="11.3973097"><ele>846.0</ele><time>2026-05-01T08:21:27.132Z</time></trkpt><trkpt lat="44.0449102" lon="11.3974722"><ele>846.0</ele><time>2026-05-01T08:21:29.132Z</time></trkpt><trkpt lat="44.0449447" lon="11.3976313"><ele>852.4</ele><time>2026-05-01T08:21:31.134Z</time></trkpt><trkpt lat="44.0449972" lon="11.3977248"><ele>858.8</ele><time>2026-05-01T08:21:33.132Z</time></trkpt><trkpt lat="44.0450753" lon="11.3977783"><ele>865.1999999999999</ele><time>2026-05-01T08:21:35.133Z</time></trkpt><trkpt lat="44.0450952" lon="11.3978875"><ele>871.5999999999999</ele><time>2026-05-01T08:21:37.131Z</time></trkpt><trkpt lat="44.0450692" lon="11.3980528"><ele>878.0</ele><time>2026-05-01T08:21:39.131Z</time></trkpt><trkpt lat="44.0450408" lon="11.3981648"><ele>878.0</ele><time>2026-05-01T08:21:41.132Z</time></trkpt><trkpt lat="44.0450478" lon="11.398311"><ele>878.0</ele><time>2026-05-01T08:21:43.13Z</time></trkpt><trkpt lat="44.045088" lon="11.398482"><ele>878.0</ele><time>2026-05-01T08:21:45.132Z</time></trkpt><trkpt lat="44.0451212" lon="11.398623"><ele>878.0</ele><time>2026-05-01T08:21:47.134Z</time></trkpt><trkpt lat="44.0450918" lon="11.39878"><ele>878.5999999999999</ele><time>2026-05-01T08:21:49.133Z</time></trkpt><trkpt lat="44.0451002" lon="11.3989398"><ele>879.1999999999999</ele><time>2026-05-01T08:21:51.13Z</time></trkpt><trkpt lat="44.0451002" lon="11.399029"><ele>879.8</ele><time>2026-05-01T08:21:52.131Z</time></trkpt><trkpt lat="44.0451173" lon="11.399185"><ele>880.4</ele><time>2026-05-01T08:21:54.132Z</time></trkpt><trkpt lat="44.0450892" lon="11.3993172"><ele>881.0</ele><time>2026-05-01T08:21:56.132Z</time></trkpt><trkpt lat="44.0450377" lon="11.3994258"><ele>878.5999999999999</ele><time>2026-05-01T08:21:58.131Z</time></trkpt><trkpt lat="44.0449598" lon="11.3995412"><ele>876.1999999999999</ele><time>2026-05-01T08:22:00.132Z</time></trkpt><trkpt lat="44.0448597" lon="11.3996022"><ele>873.8000000000001</ele><time>2026-05-01T08:22:02.132Z</time></trkpt><trkpt lat="44.0448368" lon="11.3997102"><ele>871.4000000000001</ele><time>2026-05-01T08:22:04.131Z</time></trkpt><trkpt lat="44.0448328" lon="11.3998678"><ele>869.0</ele><time>2026-05-01T08:22:06.132Z</time></trkpt><trkpt lat="44.0447915" lon="11.4000217"><ele>869.0</ele><time>2026-05-01T08:22:08.133Z</time></trkpt><trkpt lat="44.0447705" lon="11.4001472"><ele>869.0000000000001</ele><time>2026-05-01T08:22:10.132Z</time></trkpt><trkpt lat="44.0447183" lon="11.4002648"><ele>869.0000000000001</ele><time>2026-05-01T08:22:12.132Z</time></trkpt><trkpt lat="44.0446442" lon="11.4003242"><ele>869.0</ele><time>2026-05-01T08:22:14.13Z</time></trkpt><trkpt lat="44.0445123" lon="11.4003337"><ele>869.0</ele><time>2026-05-01T08:22:16.13Z</time></trkpt><trkpt lat="44.0443883" lon="11.400356"><ele>869.0</ele><time>2026-05-01T08:22:18.129Z</time></trkpt><trkpt lat="44.0443248" lon="11.40039"><ele>869.0000000000001</ele><time>2026-05-01T08:22:19.129Z</time></trkpt><trkpt lat="44.0442413" lon="11.4005035"><ele>869.0000000000001</ele><time>2026-05-01T08:22:21.13Z</time></trkpt><trkpt lat="44.0441875" lon="11.4006485"><ele>869.0</ele><time>2026-05-01T08:22:23.132Z</time></trkpt><trkpt lat="44.044147" lon="11.40079"><ele>869.0</ele><time>2026-05-01T08:22:25.132Z</time></trkpt><trkpt lat="44.044126" lon="11.4009475"><ele>869.0000000000001</ele><time>2026-05-01T08:22:27.132Z</time></trkpt><trkpt lat="44.0440938" lon="11.4010308"><ele>869.0</ele><time>2026-05-01T08:22:28.131Z</time></trkpt><trkpt lat="44.0440647" lon="11.4011095"><ele>869.0</ele><time>2026-05-01T08:22:29.131Z</time></trkpt><trkpt lat="44.0440427" lon="11.4012212"><ele>869.0</ele><time>2026-05-01T08:22:31.131Z</time></trkpt><trkpt lat="44.0440062" lon="11.4013488"><ele>869.0000000000001</ele><time>2026-05-01T08:22:33.131Z</time></trkpt><trkpt lat="44.0439888" lon="11.4014442"><ele>869.0</ele><time>2026-05-01T08:22:35.131Z</time></trkpt><trkpt lat="44.043941" lon="11.4015368"><ele>875.2</ele><time>2026-05-01T08:22:38.131Z</time></trkpt><trkpt lat="44.0438357" lon="11.4015568"><ele>881.4000000000001</ele><time>2026-05-01T08:22:40.129Z</time></trkpt><trkpt lat="44.0437473" lon="11.4015663"><ele>887.6</ele><time>2026-05-01T08:22:42.128Z</time></trkpt><trkpt lat="44.0436513" lon="11.4015472"><ele>893.8</ele><time>2026-05-01T08:22:44.13Z</time></trkpt><trkpt lat="44.0435787" lon="11.4015042"><ele>900.0</ele><time>2026-05-01T08:22:46.132Z</time></trkpt><trkpt lat="44.0434998" lon="11.4014787"><ele>900.0</ele><time>2026-05-01T08:22:48.132Z</time></trkpt><trkpt lat="44.0433897" lon="11.4014667"><ele>900.0</ele><time>2026-05-01T08:22:50.132Z</time></trkpt><trkpt lat="44.0432722" lon="11.4014665"><ele>900.0</ele><time>2026-05-01T08:22:52.13Z</time></trkpt><trkpt lat="44.0432078" lon="11.4014583"><ele>900.0</ele><time>2026-05-01T08:22:53.13Z</time></trkpt><trkpt lat="44.0431162" lon="11.4014357"><ele>900.0</ele><time>2026-05-01T08:22:55.13Z</time></trkpt><trkpt lat="44.0430078" lon="11.4014368"><ele>903.0</ele><time>2026-05-01T08:22:57.132Z</time></trkpt><trkpt lat="44.042916" lon="11.4013895"><ele>906.0</ele><time>2026-05-01T08:22:59.132Z</time></trkpt><trkpt lat="44.0428448" lon="11.401293"><ele>909.0</ele><time>2026-05-01T08:23:01.132Z</time></trkpt><trkpt lat="44.0427592" lon="11.4012227"><ele>912.0</ele><time>2026-05-01T08:23:03.131Z</time></trkpt><trkpt lat="44.042679" lon="11.401182"><ele>915.0</ele><time>2026-05-01T08:23:05.131Z</time></trkpt><trkpt lat="44.0425702" lon="11.4011782"><ele>910.1666666666666</ele><time>2026-05-01T08:23:07.13Z</time></trkpt><trkpt lat="44.042486" lon="11.4011918"><ele>905.3333333333333</ele><time>2026-05-01T08:23:09.134Z</time></trkpt><trkpt lat="44.0424187" lon="11.4012572"><ele>900.5</ele><time>2026-05-01T08:23:11.135Z</time></trkpt><trkpt lat="44.0423453" lon="11.4012935"><ele>895.6666666666666</ele><time>2026-05-01T08:23:14.132Z</time></trkpt><trkpt lat="44.0422773" lon="11.4012818"><ele>890.8333333333333</ele><time>2026-05-01T08:23:21.132Z</time></trkpt><trkpt lat="44.0422065" lon="11.4012762"><ele>886.0</ele><time>2026-05-01T08:23:24.132Z</time></trkpt><trkpt lat="44.042123" lon="11.4012782"><ele>886.0</ele><time>2026-05-01T08:23:26.131Z</time></trkpt><trkpt lat="44.0420218" lon="11.4013008"><ele>885.9999999999999</ele><time>2026-05-01T08:23:28.129Z</time></trkpt><trkpt lat="44.0419192" lon="11.4013558"><ele>885.9999999999999</ele><time>2026-05-01T08:23:30.13Z</time></trkpt><trkpt lat="44.0418067" lon="11.401407"><ele>886.0</ele><time>2026-05-01T08:23:32.132Z</time></trkpt><trkpt lat="44.0417233" lon="11.4015107"><ele>886.0</ele><time>2026-05-01T08:23:34.131Z</time></trkpt><trkpt lat="44.0416732" lon="11.4015638"><ele>889.1666666666666</ele><time>2026-05-01T08:23:35.132Z</time></trkpt><trkpt lat="44.0415785" lon="11.4016738"><ele>892.3333333333333</ele><time>2026-05-01T08:23:37.132Z</time></trkpt><trkpt lat="44.0415263" lon="11.4017322"><ele>895.5</ele><time>2026-05-01T08:23:38.133Z</time></trkpt><trkpt lat="44.0414538" lon="11.4017998"><ele>898.6666666666667</ele><time>2026-05-01T08:23:40.131Z</time></trkpt><trkpt lat="44.041507" lon="11.4018612"><ele>901.8333333333334</ele><time>2026-05-01T08:23:46.132Z</time></trkpt><trkpt lat="44.0415848" lon="11.4018745"><ele>905.0</ele><time>2026-05-01T08:23:48.135Z</time></trkpt><trkpt lat="44.0416708" lon="11.4018318"><ele>906.3333333333334</ele><time>2026-05-01T08:23:51.132Z</time></trkpt><trkpt lat="44.04174" lon="11.4018125"><ele>907.6666666666667</ele><time>2026-05-01T08:23:53.132Z</time></trkpt><trkpt lat="44.041821" lon="11.4018508"><ele>909.0</ele><time>2026-05-01T08:23:55.131Z</time></trkpt><trkpt lat="44.0419063" lon="11.4018773"><ele>910.3333333333333</ele><time>2026-05-01T08:23:57.134Z</time></trkpt><trkpt lat="44.0419947" lon="11.401871"><ele>911.6666666666666</ele><time>2026-05-01T08:23:59.135Z</time></trkpt><trkpt lat="44.0420432" lon="11.4019668"><ele>913.0</ele><time>2026-05-01T08:24:01.133Z</time></trkpt><trkpt lat="44.0420767" lon="11.4020607"><ele>912.9999999999999</ele><time>2026-05-01T08:24:02.134Z</time></trkpt><trkpt lat="44.0421193" lon="11.4021425"><ele>913.0</ele><time>2026-05-01T08:24:03.135Z</time></trkpt><trkpt lat="44.0421713" lon="11.40221"><ele>913.0</ele><time>2026-05-01T08:24:04.134Z</time></trkpt><trkpt lat="44.0422403" lon="11.4022698"><ele>913.0</ele><time>2026-05-01T08:24:05.135Z</time></trkpt><trkpt lat="44.0423002" lon="11.4023198"><ele>912.9999999999999</ele><time>2026-05-01T08:24:06.134Z</time></trkpt><trkpt lat="44.0424087" lon="11.40239"><ele>913.0</ele><time>2026-05-01T08:24:08.133Z</time></trkpt><trkpt lat="44.0424832" lon="11.4024093"><ele>916.4</ele><time>2026-05-01T08:24:09.133Z</time></trkpt><trkpt lat="44.0425645" lon="11.402432"><ele>919.8</ele><time>2026-05-01T08:24:10.133Z</time></trkpt><trkpt lat="44.0426525" lon="11.4024583"><ele>923.2</ele><time>2026-05-01T08:24:11.134Z</time></trkpt><trkpt lat="44.0427422" lon="11.4024955"><ele>926.6</ele><time>2026-05-01T08:24:12.134Z</time></trkpt><trkpt lat="44.0428318" lon="11.4025498"><ele>930.0</ele><time>2026-05-01T08:24:13.134Z</time></trkpt><trkpt lat="44.0429133" lon="11.4026172"><ele>930.0</ele><time>2026-05-01T08:24:14.135Z</time></trkpt><trkpt lat="44.0429905" lon="11.4026847"><ele>930.0</ele><time>2026-05-01T08:24:15.135Z</time></trkpt><trkpt lat="44.0430537" lon="11.402756"><ele>930.0</ele><time>2026-05-01T08:24:16.135Z</time></trkpt><trkpt lat="44.0431172" lon="11.4028153"><ele>930.0</ele><time>2026-05-01T08:24:17.132Z</time></trkpt><trkpt lat="44.0431787" lon="11.4028703"><ele>930.0</ele><time>2026-05-01T08:24:18.131Z</time></trkpt><trkpt lat="44.043238" lon="11.4029165"><ele>930.0</ele><time>2026-05-01T08:24:19.132Z</time></trkpt><trkpt lat="44.0433048" lon="11.4029548"><ele>931.0</ele><time>2026-05-01T08:24:20.131Z</time></trkpt><trkpt lat="44.0433785" lon="11.402988"><ele>932.0</ele><time>2026-05-01T08:24:21.133Z</time></trkpt><trkpt lat="44.0434572" lon="11.4030157"><ele>933.0</ele><time>2026-05-01T08:24:22.133Z</time></trkpt><trkpt lat="44.0435417" lon="11.4030787"><ele>934.0</ele><time>2026-05-01T08:24:24.134Z</time></trkpt><trkpt lat="44.043588" lon="11.4031947"><ele>935.0</ele><time>2026-05-01T08:24:26.134Z</time></trkpt><trkpt lat="44.0436585" lon="11.4033203"><ele>934.8333333333334</ele><time>2026-05-01T08:24:28.133Z</time></trkpt><trkpt lat="44.0437168" lon="11.4034652"><ele>934.6666666666667</ele><time>2026-05-01T08:24:30.132Z</time></trkpt><trkpt lat="44.0437375" lon="11.4035627"><ele>934.5</ele><time>2026-05-01T08:24:31.132Z</time></trkpt><trkpt lat="44.0437692" lon="11.4036745"><ele>934.3333333333333</ele><time>2026-05-01T08:24:32.132Z</time></trkpt><trkpt lat="44.0437963" lon="11.4037903"><ele>934.1666666666666</ele><time>2026-05-01T08:24:33.132Z</time></trkpt><trkpt lat="44.0438232" lon="11.4038835"><ele>934.0</ele><time>2026-05-01T08:24:34.133Z</time></trkpt><trkpt lat="44.0438452" lon="11.4039817"><ele>934.0</ele><time>2026-05-01T08:24:35.134Z</time></trkpt><trkpt lat="44.0439043" lon="11.404134"><ele>934.0000000000001</ele><time>2026-05-01T08:24:37.132Z</time></trkpt><trkpt lat="44.0439932" lon="11.4042398"><ele>934.0000000000001</ele><time>2026-05-01T08:24:39.132Z</time></trkpt><trkpt lat="44.044051" lon="11.4042972"><ele>934.0</ele><time>2026-05-01T08:24:40.133Z</time></trkpt><trkpt lat="44.0440987" lon="11.4043657"><ele>934.0</ele><time>2026-05-01T08:24:41.133Z</time></trkpt><trkpt lat="44.0441455" lon="11.4044665"><ele>932.1666666666666</ele><time>2026-05-01T08:24:42.131Z</time></trkpt><trkpt lat="44.044186" lon="11.4045572"><ele>930.3333333333333</ele><time>2026-05-01T08:24:43.131Z</time></trkpt><trkpt lat="44.0442118" lon="11.4047043"><ele>928.5</ele><time>2026-05-01T08:24:45.132Z</time></trkpt><trkpt lat="44.0441912" lon="11.4047938"><ele>926.6666666666667</ele><time>2026-05-01T08:24:46.133Z</time></trkpt><trkpt lat="44.0441583" lon="11.404908"><ele>924.8333333333334</ele><time>2026-05-01T08:24:47.132Z</time></trkpt><trkpt lat="44.0441252" lon="11.4050393"><ele>923.0</ele><time>2026-05-01T08:24:48.133Z</time></trkpt><trkpt lat="44.0440832" lon="11.4051678"><ele>923.0</ele><time>2026-05-01T08:24:49.132Z</time></trkpt><trkpt lat="44.0440498" lon="11.4052857"><ele>923.0</ele><time>2026-05-01T08:24:50.132Z</time></trkpt><trkpt lat="44.0440312" lon="11.4053927"><ele>923.0</ele><time>2026-05-01T08:24:51.13Z</time></trkpt><trkpt lat="44.0440213" lon="11.4055073"><ele>923.0</ele><time>2026-05-01T08:24:52.13Z</time></trkpt><trkpt lat="44.0440217" lon="11.4056462"><ele>923.0</ele><time>2026-05-01T08:24:53.13Z</time></trkpt><trkpt lat="44.0440222" lon="11.4057957"><ele>923.8</ele><time>2026-05-01T08:24:54.13Z</time></trkpt><trkpt lat="44.044024" lon="11.4059333"><ele>924.5999999999999</ele><time>2026-05-01T08:24:55.13Z</time></trkpt><trkpt lat="44.0440217" lon="11.4060652"><ele>925.4000000000001</ele><time>2026-05-01T08:24:56.13Z</time></trkpt><trkpt lat="44.0440013" lon="11.4061848"><ele>926.2</ele><time>2026-05-01T08:24:57.13Z</time></trkpt><trkpt lat="44.043972" lon="11.40632"><ele>927.0</ele><time>2026-05-01T08:24:58.13Z</time></trkpt><trkpt lat="44.043966" lon="11.4064262"><ele>927.0</ele><time>2026-05-01T08:24:59.131Z</time></trkpt><trkpt lat="44.0440093" lon="11.406541"><ele>927.0</ele><time>2026-05-01T08:25:01.13Z</time></trkpt><trkpt lat="44.0441113" lon="11.406551"><ele>927.0</ele><time>2026-05-01T08:25:03.132Z</time></trkpt><trkpt lat="44.044196" lon="11.4065043"><ele>927.0</ele><time>2026-05-01T08:25:04.132Z</time></trkpt><trkpt lat="44.0442972" lon="11.4064587"><ele>927.0</ele><time>2026-05-01T08:25:05.133Z</time></trkpt><trkpt lat="44.0443947" lon="11.4064482"><ele>931.0</ele><time>2026-05-01T08:25:06.13Z</time></trkpt><trkpt lat="44.0445002" lon="11.4064498"><ele>935.0</ele><time>2026-05-01T08:25:07.129Z</time></trkpt><trkpt lat="44.0446028" lon="11.4064815"><ele>939.0</ele><time>2026-05-01T08:25:08.13Z</time></trkpt><trkpt lat="44.0446982" lon="11.4065115"><ele>943.0</ele><time>2026-05-01T08:25:09.13Z</time></trkpt><trkpt lat="44.0447888" lon="11.4065265"><ele>947.0</ele><time>2026-05-01T08:25:10.131Z</time></trkpt><trkpt lat="44.044869" lon="11.4065185"><ele>947.0</ele><time>2026-05-01T08:25:11.131Z</time></trkpt><trkpt lat="44.0449467" lon="11.4065027"><ele>946.9999999999999</ele><time>2026-05-01T08:25:12.131Z</time></trkpt><trkpt lat="44.045019" lon="11.4064737"><ele>947.0</ele><time>2026-05-01T08:25:13.131Z</time></trkpt><trkpt lat="44.0450838" lon="11.4064772"><ele>947.0</ele><time>2026-05-01T08:25:14.131Z</time></trkpt><trkpt lat="44.0451437" lon="11.4065118"><ele>946.9999999999999</ele><time>2026-05-01T08:25:15.131Z</time></trkpt><trkpt lat="44.0451963" lon="11.4065775"><ele>947.0</ele><time>2026-05-01T08:25:16.132Z</time></trkpt><trkpt lat="44.0452355" lon="11.4066618"><ele>947.0</ele><time>2026-05-01T08:25:17.132Z</time></trkpt><trkpt lat="44.045249" lon="11.4067522"><ele>946.6</ele><time>2026-05-01T08:25:18.131Z</time></trkpt><trkpt lat="44.0452478" lon="11.406872"><ele>946.2</ele><time>2026-05-01T08:25:19.132Z</time></trkpt><trkpt lat="44.0452473" lon="11.4070092"><ele>945.8</ele><time>2026-05-01T08:25:20.131Z</time></trkpt><trkpt lat="44.0452555" lon="11.4071368"><ele>945.4</ele><time>2026-05-01T08:25:21.131Z</time></trkpt><trkpt lat="44.0452647" lon="11.40727"><ele>945.0</ele><time>2026-05-01T08:25:22.131Z</time></trkpt><trkpt lat="44.045287" lon="11.4073797"><ele>941.3333333333334</ele><time>2026-05-01T08:25:23.131Z</time></trkpt><trkpt lat="44.0453158" lon="11.407478"><ele>937.6666666666667</ele><time>2026-05-01T08:25:24.132Z</time></trkpt><trkpt lat="44.0453525" lon="11.4075582"><ele>934.0</ele><time>2026-05-01T08:25:25.133Z</time></trkpt><trkpt lat="44.045433" lon="11.4076287"><ele>930.3333333333334</ele><time>2026-05-01T08:25:27.132Z</time></trkpt><trkpt lat="44.0455098" lon="11.40763"><ele>926.6666666666667</ele><time>2026-05-01T08:25:28.133Z</time></trkpt><trkpt lat="44.0455923" lon="11.4076255"><ele>923.0</ele><time>2026-05-01T08:25:29.133Z</time></trkpt><trkpt lat="44.0456887" lon="11.4076412"><ele>923.0000000000001</ele><time>2026-05-01T08:25:30.132Z</time></trkpt><trkpt lat="44.0457678" lon="11.4076683"><ele>923.0</ele><time>2026-05-01T08:25:31.13Z</time></trkpt><trkpt lat="44.0458455" lon="11.4077057"><ele>923.0</ele><time>2026-05-01T08:25:32.13Z</time></trkpt><trkpt lat="44.0459095" lon="11.407754"><ele>923.0</ele><time>2026-05-01T08:25:33.13Z</time></trkpt><trkpt lat="44.0459868" lon="11.4078502"><ele>923.0000000000001</ele><time>2026-05-01T08:25:34.13Z</time></trkpt><trkpt lat="44.04605" lon="11.4079558"><ele>923.0</ele><time>2026-05-01T08:25:35.131Z</time></trkpt><trkpt lat="44.0460998" lon="11.4080743"><ele>922.0</ele><time>2026-05-01T08:25:36.132Z</time></trkpt><trkpt lat="44.0461463" lon="11.4081868"><ele>921.0</ele><time>2026-05-01T08:25:37.131Z</time></trkpt><trkpt lat="44.0461933" lon="11.4082648"><ele>920.0</ele><time>2026-05-01T08:25:38.131Z</time></trkpt><trkpt lat="44.0463073" lon="11.4083483"><ele>919.0</ele><time>2026-05-01T08:25:40.13Z</time></trkpt><trkpt lat="44.0463883" lon="11.4083938"><ele>918.0</ele><time>2026-05-01T08:25:41.131Z</time></trkpt><trkpt lat="44.0464792" lon="11.4084863"><ele>918.0</ele><time>2026-05-01T08:25:42.131Z</time></trkpt><trkpt lat="44.0465505" lon="11.4085707"><ele>918.0</ele><time>2026-05-01T08:25:43.13Z</time></trkpt><trkpt lat="44.0466238" lon="11.4086552"><ele>918.0</ele><time>2026-05-01T08:25:44.132Z</time></trkpt><trkpt lat="44.0467085" lon="11.4087722"><ele>918.0</ele><time>2026-05-01T08:25:45.132Z</time></trkpt><trkpt lat="44.0467723" lon="11.40891"><ele>918.0</ele><time>2026-05-01T08:25:46.132Z</time></trkpt><trkpt lat="44.0468263" lon="11.4090563"><ele>918.2</ele><time>2026-05-01T08:25:47.133Z</time></trkpt><trkpt lat="44.0468493" lon="11.4091992"><ele>918.4</ele><time>2026-05-01T08:25:48.131Z</time></trkpt><trkpt lat="44.0468547" lon="11.4093223"><ele>918.6000000000001</ele><time>2026-05-01T08:25:49.131Z</time></trkpt><trkpt lat="44.0468735" lon="11.4094442"><ele>918.8000000000001</ele><time>2026-05-01T08:25:50.131Z</time></trkpt><trkpt lat="44.0469092" lon="11.4095673"><ele>919.0</ele><time>2026-05-01T08:25:51.131Z</time></trkpt><trkpt lat="44.046952" lon="11.409698"><ele>916.2</ele><time>2026-05-01T08:25:52.131Z</time></trkpt><trkpt lat="44.0469878" lon="11.4098212"><ele>913.4000000000001</ele><time>2026-05-01T08:25:53.133Z</time></trkpt><trkpt lat="44.047035" lon="11.409947"><ele>910.6</ele><time>2026-05-01T08:25:54.132Z</time></trkpt><trkpt lat="44.0470788" lon="11.4100688"><ele>907.8</ele><time>2026-05-01T08:25:55.13Z</time></trkpt><trkpt lat="44.0471178" lon="11.410195"><ele>905.0</ele><time>2026-05-01T08:25:56.129Z</time></trkpt><trkpt lat="44.0471443" lon="11.4103117"><ele>905.0</ele><time>2026-05-01T08:25:57.131Z</time></trkpt><trkpt lat="44.0471783" lon="11.4104102"><ele>905.0</ele><time>2026-05-01T08:25:58.132Z</time></trkpt><trkpt lat="44.0472125" lon="11.4105005"><ele>905.0</ele><time>2026-05-01T08:25:59.135Z</time></trkpt><trkpt lat="44.0472387" lon="11.4106482"><ele>905.0</ele><time>2026-05-01T08:26:01.134Z</time></trkpt><trkpt lat="44.0471967" lon="11.4108293"><ele>905.0</ele><time>2026-05-01T08:26:03.133Z</time></trkpt><trkpt lat="44.0471603" lon="11.410925"><ele>905.3333333333334</ele><time>2026-05-01T08:26:04.132Z</time></trkpt><trkpt lat="44.0471273" lon="11.4110353"><ele>905.6666666666667</ele><time>2026-05-01T08:26:05.132Z</time></trkpt><trkpt lat="44.0471043" lon="11.4111422"><ele>906.0</ele><time>2026-05-01T08:26:06.133Z</time></trkpt><trkpt lat="44.0470963" lon="11.4112497"><ele>906.3333333333333</ele><time>2026-05-01T08:26:07.134Z</time></trkpt><trkpt lat="44.0470963" lon="11.4113643"><ele>906.6666666666666</ele><time>2026-05-01T08:26:08.134Z</time></trkpt><trkpt lat="44.0471172" lon="11.4114822"><ele>907.0</ele><time>2026-05-01T08:26:09.133Z</time></trkpt><trkpt lat="44.0471545" lon="11.4116043"><ele>907.0</ele><time>2026-05-01T08:26:10.132Z</time></trkpt><trkpt lat="44.0472" lon="11.4117325"><ele>907.0</ele><time>2026-05-01T08:26:11.133Z</time></trkpt><trkpt lat="44.0472457" lon="11.411858"><ele>907.0</ele><time>2026-05-01T08:26:12.131Z</time></trkpt><trkpt lat="44.0472973" lon="11.4119817"><ele>907.0</ele><time>2026-05-01T08:26:13.131Z</time></trkpt><trkpt lat="44.0473453" lon="11.4121063"><ele>907.0</ele><time>2026-05-01T08:26:14.133Z</time></trkpt><trkpt lat="44.0473862" lon="11.4122353"><ele>908.6</ele><time>2026-05-01T08:26:15.133Z</time></trkpt><trkpt lat="44.047415" lon="11.4123648"><ele>910.2</ele><time>2026-05-01T08:26:16.132Z</time></trkpt><trkpt lat="44.047437" lon="11.4124952"><ele>911.8</ele><time>2026-05-01T08:26:17.133Z</time></trkpt><trkpt lat="44.0474645" lon="11.4126265"><ele>913.4</ele><time>2026-05-01T08:26:18.135Z</time></trkpt><trkpt lat="44.0475" lon="11.4127443"><ele>915.0</ele><time>2026-05-01T08:26:19.132Z</time></trkpt><trkpt lat="44.0475443" lon="11.4128552"><ele>915.0</ele><time>2026-05-01T08:26:20.133Z</time></trkpt><trkpt lat="44.047604" lon="11.4129628"><ele>915.0</ele><time>2026-05-01T08:26:21.131Z</time></trkpt><trkpt lat="44.0476757" lon="11.4130583"><ele>915.0</ele><time>2026-05-01T08:26:22.131Z</time></trkpt><trkpt lat="44.0477558" lon="11.4131465"><ele>915.0</ele><time>2026-05-01T08:26:23.132Z</time></trkpt><trkpt lat="44.047823" lon="11.4132312"><ele>915.0</ele><time>2026-05-01T08:26:24.133Z</time></trkpt><trkpt lat="44.0478855" lon="11.4133343"><ele>914.8</ele><time>2026-05-01T08:26:25.133Z</time></trkpt><trkpt lat="44.0479433" lon="11.4134593"><ele>914.6</ele><time>2026-05-01T08:26:26.135Z</time></trkpt><trkpt lat="44.0480012" lon="11.4136017"><ele>914.4000000000001</ele><time>2026-05-01T08:26:27.133Z</time></trkpt><trkpt lat="44.0480653" lon="11.41373"><ele>914.2</ele><time>2026-05-01T08:26:28.133Z</time></trkpt><trkpt lat="44.0481348" lon="11.4138527"><ele>914.0</ele><time>2026-05-01T08:26:29.133Z</time></trkpt><trkpt lat="44.048208" lon="11.4139758"><ele>913.2</ele><time>2026-05-01T08:26:30.133Z</time></trkpt><trkpt lat="44.0482793" lon="11.4140972"><ele>912.4000000000001</ele><time>2026-05-01T08:26:31.133Z</time></trkpt><trkpt lat="44.0483495" lon="11.414214"><ele>911.6</ele><time>2026-05-01T08:26:32.131Z</time></trkpt><trkpt lat="44.0484223" lon="11.4143253"><ele>910.8</ele><time>2026-05-01T08:26:33.133Z</time></trkpt><trkpt lat="44.0484985" lon="11.4144265"><ele>910.0</ele><time>2026-05-01T08:26:34.132Z</time></trkpt><trkpt lat="44.0485792" lon="11.4145107"><ele>909.9999999999999</ele><time>2026-05-01T08:26:35.133Z</time></trkpt><trkpt lat="44.0486562" lon="11.4145773"><ele>910.0</ele><time>2026-05-01T08:26:36.134Z</time></trkpt><trkpt lat="44.0487217" lon="11.4146297"><ele>910.0</ele><time>2026-05-01T08:26:37.133Z</time></trkpt><trkpt lat="44.0488188" lon="11.414691"><ele>910.0</ele><time>2026-05-01T08:26:39.135Z</time></trkpt><trkpt lat="44.0488928" lon="11.4147405"><ele>909.9999999999999</ele><time>2026-05-01T08:26:41.134Z</time></trkpt><trkpt lat="44.0489573" lon="11.4148033"><ele>910.0</ele><time>2026-05-01T08:26:43.133Z</time></trkpt><trkpt lat="44.049037" lon="11.4148943"><ele>911.4</ele><time>2026-05-01T08:26:45.132Z</time></trkpt><trkpt lat="44.0491042" lon="11.414987"><ele>912.8</ele><time>2026-05-01T08:26:47.131Z</time></trkpt><trkpt lat="44.0491525" lon="11.4150945"><ele>914.2</ele><time>2026-05-01T08:26:49.136Z</time></trkpt><trkpt lat="44.0491882" lon="11.415212"><ele>915.6</ele><time>2026-05-01T08:26:51.137Z</time></trkpt><trkpt lat="44.0492217" lon="11.4153343"><ele>917.0</ele><time>2026-05-01T08:26:53.135Z</time></trkpt><trkpt lat="44.0492533" lon="11.415474"><ele>917.6</ele><time>2026-05-01T08:26:55.134Z</time></trkpt><trkpt lat="44.0492758" lon="11.415627"><ele>918.2</ele><time>2026-05-01T08:26:57.135Z</time></trkpt><trkpt lat="44.0493147" lon="11.415744"><ele>918.8</ele><time>2026-05-01T08:26:59.136Z</time></trkpt><trkpt lat="44.0493605" lon="11.4158402"><ele>919.4</ele><time>2026-05-01T08:27:05.136Z</time></trkpt><trkpt lat="44.0493895" lon="11.4159182"><ele>920.0</ele><time>2026-05-01T08:27:08.132Z</time></trkpt><trkpt lat="44.0494303" lon="11.4160688"><ele>920.0</ele><time>2026-05-01T08:27:11.132Z</time></trkpt><trkpt lat="44.0494647" lon="11.4162185"><ele>920.0</ele><time>2026-05-01T08:27:13.133Z</time></trkpt><trkpt lat="44.0494518" lon="11.4163517"><ele>920.0</ele><time>2026-05-01T08:27:15.132Z</time></trkpt><trkpt lat="44.0494533" lon="11.4164735"><ele>920.0</ele><time>2026-05-01T08:27:17.132Z</time></trkpt><trkpt lat="44.0494688" lon="11.4165762"><ele>920.0</ele><time>2026-05-01T08:27:19.133Z</time></trkpt><trkpt lat="44.0494863" lon="11.4166893"><ele>920.6666666666667</ele><time>2026-05-01T08:27:21.133Z</time></trkpt><trkpt lat="44.0494428" lon="11.4167842"><ele>921.3333333333334</ele><time>2026-05-01T08:27:23.133Z</time></trkpt><trkpt lat="44.0493582" lon="11.4168675"><ele>922.0</ele><time>2026-05-01T08:27:25.132Z</time></trkpt><trkpt lat="44.0493095" lon="11.416982"><ele>922.6666666666667</ele><time>2026-05-01T08:27:27.131Z</time></trkpt><trkpt lat="44.049322" lon="11.417078"><ele>923.3333333333334</ele><time>2026-05-01T08:27:29.131Z</time></trkpt><trkpt lat="44.0493045" lon="11.4171863"><ele>924.0</ele><time>2026-05-01T08:27:31.131Z</time></trkpt><trkpt lat="44.049248" lon="11.4172553"><ele>926.1666666666666</ele><time>2026-05-01T08:27:33.129Z</time></trkpt><trkpt lat="44.0492262" lon="11.4173577"><ele>928.3333333333333</ele><time>2026-05-01T08:27:35.129Z</time></trkpt><trkpt lat="44.049226" lon="11.4174553"><ele>930.5</ele><time>2026-05-01T08:27:37.132Z</time></trkpt><trkpt lat="44.0491928" lon="11.4175747"><ele>932.6666666666666</ele><time>2026-05-01T08:27:39.131Z</time></trkpt><trkpt lat="44.0491627" lon="11.4177117"><ele>934.8333333333333</ele><time>2026-05-01T08:27:41.132Z</time></trkpt><trkpt lat="44.049157" lon="11.4178308"><ele>937.0</ele><time>2026-05-01T08:27:43.131Z</time></trkpt><trkpt lat="44.0491533" lon="11.417978"><ele>934.3333333333333</ele><time>2026-05-01T08:27:45.13Z</time></trkpt><trkpt lat="44.0491153" lon="11.418072"><ele>931.6666666666666</ele><time>2026-05-01T08:27:47.131Z</time></trkpt><trkpt lat="44.0490505" lon="11.4180765"><ele>929.0</ele><time>2026-05-01T08:27:49.131Z</time></trkpt><trkpt lat="44.0489808" lon="11.418121"><ele>926.3333333333333</ele><time>2026-05-01T08:27:51.131Z</time></trkpt><trkpt lat="44.0489027" lon="11.418168"><ele>923.6666666666666</ele><time>2026-05-01T08:27:53.133Z</time></trkpt><trkpt lat="44.0488768" lon="11.4182625"><ele>921.0</ele><time>2026-05-01T08:27:55.13Z</time></trkpt><trkpt lat="44.048874" lon="11.4183782"><ele>921.0</ele><time>2026-05-01T08:27:57.13Z</time></trkpt><trkpt lat="44.0488785" lon="11.4184977"><ele>921.0</ele><time>2026-05-01T08:27:59.13Z</time></trkpt><trkpt lat="44.0488728" lon="11.4186243"><ele>921.0</ele><time>2026-05-01T08:28:01.131Z</time></trkpt><trkpt lat="44.0488268" lon="11.4187125"><ele>921.0</ele><time>2026-05-01T08:28:03.132Z</time></trkpt><trkpt lat="44.0487877" lon="11.4187893"><ele>921.0</ele><time>2026-05-01T08:28:05.131Z</time></trkpt><trkpt lat="44.0487107" lon="11.4188698"><ele>921.0</ele><time>2026-05-01T08:28:07.131Z</time></trkpt><trkpt lat="44.0486272" lon="11.4189598"><ele>921.5999999999999</ele><time>2026-05-01T08:28:09.133Z</time></trkpt><trkpt lat="44.0485555" lon="11.4190853"><ele>922.1999999999999</ele><time>2026-05-01T08:28:11.133Z</time></trkpt><trkpt lat="44.0484368" lon="11.4191063"><ele>922.8000000000001</ele><time>2026-05-01T08:28:13.134Z</time></trkpt><trkpt lat="44.0483617" lon="11.419132"><ele>923.4000000000001</ele><time>2026-05-01T08:28:14.136Z</time></trkpt><trkpt lat="44.0482572" lon="11.4191953"><ele>924.0</ele><time>2026-05-01T08:28:16.133Z</time></trkpt><trkpt lat="44.0481775" lon="11.4192393"><ele>924.0</ele><time>2026-05-01T08:28:18.133Z</time></trkpt><trkpt lat="44.0481203" lon="11.4193403"><ele>924.0</ele><time>2026-05-01T08:28:20.135Z</time></trkpt><trkpt lat="44.0481427" lon="11.4194598"><ele>924.0</ele><time>2026-05-01T08:28:22.133Z</time></trkpt><trkpt lat="44.0482033" lon="11.4195345"><ele>924.0</ele><time>2026-05-01T08:28:24.132Z</time></trkpt><trkpt lat="44.0482703" lon="11.41959"><ele>924.0</ele><time>2026-05-01T08:28:27.133Z</time></trkpt><trkpt lat="44.048312" lon="11.4196578"><ele>924.0</ele><time>2026-05-01T08:28:29.133Z</time></trkpt><trkpt lat="44.0483627" lon="11.4197263"><ele>925.0</ele><time>2026-05-01T08:28:31.134Z</time></trkpt><trkpt lat="44.0484575" lon="11.4197847"><ele>926.0</ele><time>2026-05-01T08:28:34.135Z</time></trkpt><trkpt lat="44.0485537" lon="11.4198038"><ele>927.0</ele><time>2026-05-01T08:28:36.133Z</time></trkpt><trkpt lat="44.048618" lon="11.4198453"><ele>928.0</ele><time>2026-05-01T08:28:38.133Z</time></trkpt><trkpt lat="44.0486468" lon="11.419933"><ele>929.0</ele><time>2026-05-01T08:28:40.135Z</time></trkpt><trkpt lat="44.0486648" lon="11.4200323"><ele>930.0</ele><time>2026-05-01T08:28:43.134Z</time></trkpt><trkpt lat="44.0486682" lon="11.4201553"><ele>930.0</ele><time>2026-05-01T08:28:46.131Z</time></trkpt><trkpt lat="44.0486585" lon="11.4202795"><ele>930.0</ele><time>2026-05-01T08:28:49.131Z</time></trkpt><trkpt lat="44.0486252" lon="11.4203842"><ele>930.0</ele><time>2026-05-01T08:28:51.133Z</time></trkpt><trkpt lat="44.048596" lon="11.4204972"><ele>930.0</ele><time>2026-05-01T08:28:54.134Z</time></trkpt><trkpt lat="44.048562" lon="11.4206025"><ele>930.0</ele><time>2026-05-01T08:28:56.133Z</time></trkpt><trkpt lat="44.0485283" lon="11.420722"><ele>930.0</ele><time>2026-05-01T08:28:59.133Z</time></trkpt><trkpt lat="44.0484943" lon="11.4208045"><ele>929.8333333333334</ele><time>2026-05-01T08:29:01.132Z</time></trkpt><trkpt lat="44.0484745" lon="11.4208943"><ele>929.6666666666667</ele><time>2026-05-01T08:29:03.132Z</time></trkpt><trkpt lat="44.0484613" lon="11.4209958"><ele>929.5</ele><time>2026-05-01T08:29:05.132Z</time></trkpt><trkpt lat="44.0484255" lon="11.4211242"><ele>929.3333333333334</ele><time>2026-05-01T08:29:07.132Z</time></trkpt><trkpt lat="44.0483973" lon="11.4212045"><ele>929.1666666666667</ele><time>2026-05-01T08:29:08.133Z</time></trkpt><trkpt lat="44.0483583" lon="11.4213323"><ele>929.0</ele><time>2026-05-01T08:29:10.133Z</time></trkpt><trkpt lat="44.048349" lon="11.4214322"><ele>923.5000000000001</ele><time>2026-05-01T08:29:12.132Z</time></trkpt><trkpt lat="44.0482808" lon="11.421546"><ele>918.0</ele><time>2026-05-01T08:29:15.132Z</time></trkpt><trkpt lat="44.0482397" lon="11.4216452"><ele>912.5</ele><time>2026-05-01T08:29:17.132Z</time></trkpt><trkpt lat="44.0481933" lon="11.421739"><ele>907.0</ele><time>2026-05-01T08:29:19.132Z</time></trkpt><trkpt lat="44.048184" lon="11.4218337"><ele>901.5000000000001</ele><time>2026-05-01T08:29:22.134Z</time></trkpt><trkpt lat="44.0481647" lon="11.4219317"><ele>896.0</ele><time>2026-05-01T08:29:25.134Z</time></trkpt><trkpt lat="44.0481143" lon="11.4220385"><ele>896.0000000000001</ele><time>2026-05-01T08:29:28.133Z</time></trkpt><trkpt lat="44.0480628" lon="11.4221362"><ele>896.0</ele><time>2026-05-01T08:29:30.133Z</time></trkpt><trkpt lat="44.0479713" lon="11.422194"><ele>896.0</ele><time>2026-05-01T08:29:32.135Z</time></trkpt><trkpt lat="44.04789" lon="11.4222468"><ele>896.0</ele><time>2026-05-01T08:29:34.134Z</time></trkpt><trkpt lat="44.0478707" lon="11.4223395"><ele>896.0000000000001</ele><time>2026-05-01T08:29:36.131Z</time></trkpt><trkpt lat="44.0478647" lon="11.4224697"><ele>896.0</ele><time>2026-05-01T08:29:38.131Z</time></trkpt><trkpt lat="44.0478193" lon="11.422591"><ele>899.3333333333334</ele><time>2026-05-01T08:29:40.134Z</time></trkpt><trkpt lat="44.0477712" lon="11.4226988"><ele>902.6666666666667</ele><time>2026-05-01T08:29:42.133Z</time></trkpt><trkpt lat="44.0477448" lon="11.4228082"><ele>906.0</ele><time>2026-05-01T08:29:44.133Z</time></trkpt><trkpt lat="44.0476942" lon="11.4229317"><ele>909.3333333333333</ele><time>2026-05-01T08:29:46.133Z</time></trkpt><trkpt lat="44.0476392" lon="11.4230047"><ele>912.6666666666666</ele><time>2026-05-01T08:29:48.133Z</time></trkpt><trkpt lat="44.0475838" lon="11.42307"><ele>916.0</ele><time>2026-05-01T08:29:50.133Z</time></trkpt><trkpt lat="44.0475197" lon="11.4231575"><ele>914.9999999999999</ele><time>2026-05-01T08:29:52.133Z</time></trkpt><trkpt lat="44.0474252" lon="11.423216"><ele>914.0</ele><time>2026-05-01T08:29:54.133Z</time></trkpt><trkpt lat="44.0473538" lon="11.4231998"><ele>913.0</ele><time>2026-05-01T08:29:56.134Z</time></trkpt><trkpt lat="44.0472637" lon="11.4232497"><ele>912.0</ele><time>2026-05-01T08:29:58.134Z</time></trkpt><trkpt lat="44.0472242" lon="11.423345"><ele>910.9999999999999</ele><time>2026-05-01T08:30:00.131Z</time></trkpt><trkpt lat="44.0472062" lon="11.4234665"><ele>910.0</ele><time>2026-05-01T08:30:02.13Z</time></trkpt><trkpt lat="44.0471738" lon="11.4236017"><ele>909.9999999999999</ele><time>2026-05-01T08:30:04.133Z</time></trkpt><trkpt lat="44.0471248" lon="11.4236995"><ele>910.0</ele><time>2026-05-01T08:30:06.133Z</time></trkpt><trkpt lat="44.047089" lon="11.4237802"><ele>910.0</ele><time>2026-05-01T08:30:10.132Z</time></trkpt><trkpt lat="44.0470085" lon="11.423837"><ele>910.0</ele><time>2026-05-01T08:30:13.132Z</time></trkpt><trkpt lat="44.0469393" lon="11.423962"><ele>909.9999999999999</ele><time>2026-05-01T08:30:16.135Z</time></trkpt><trkpt lat="44.0468667" lon="11.4240278"><ele>910.0</ele><time>2026-05-01T08:30:18.133Z</time></trkpt><trkpt lat="44.0467748" lon="11.4240362"><ele>913.4999999999999</ele><time>2026-05-01T08:30:20.133Z</time></trkpt><trkpt lat="44.0467117" lon="11.424076"><ele>917.0</ele><time>2026-05-01T08:30:22.132Z</time></trkpt><trkpt lat="44.0466323" lon="11.4241502"><ele>920.5</ele><time>2026-05-01T08:30:25.131Z</time></trkpt><trkpt lat="44.046575" lon="11.4241957"><ele>924.0</ele><time>2026-05-01T08:30:27.13Z</time></trkpt><trkpt lat="44.0464832" lon="11.424225"><ele>927.4999999999999</ele><time>2026-05-01T08:30:29.132Z</time></trkpt><trkpt lat="44.0464175" lon="11.4242523"><ele>931.0</ele><time>2026-05-01T08:30:31.131Z</time></trkpt><trkpt lat="44.046336" lon="11.4242772"><ele>931.0</ele><time>2026-05-01T08:30:34.133Z</time></trkpt><trkpt lat="44.04625" lon="11.4242577"><ele>930.9999999999999</ele><time>2026-05-01T08:30:36.133Z</time></trkpt><trkpt lat="44.0461468" lon="11.4242297"><ele>930.9999999999999</ele><time>2026-05-01T08:30:38.135Z</time></trkpt><trkpt lat="44.046075" lon="11.4242567"><ele>931.0</ele><time>2026-05-01T08:30:40.134Z</time></trkpt><trkpt lat="44.0459787" lon="11.4243238"><ele>931.0</ele><time>2026-05-01T08:30:42.134Z</time></trkpt><trkpt lat="44.045899" lon="11.4243267"><ele>931.0</ele><time>2026-05-01T08:30:44.135Z</time></trkpt><trkpt lat="44.0458017" lon="11.4243263"><ele>931.0</ele><time>2026-05-01T08:30:46.133Z</time></trkpt><trkpt lat="44.0457308" lon="11.4243677"><ele>931.0</ele><time>2026-05-01T08:30:48.134Z</time></trkpt><trkpt lat="44.0456662" lon="11.4243808"><ele>931.0</ele><time>2026-05-01T08:30:50.135Z</time></trkpt><trkpt lat="44.045605" lon="11.4244093"><ele>931.0</ele><time>2026-05-01T08:30:52.132Z</time></trkpt><trkpt lat="44.0455477" lon="11.4244538"><ele>931.0</ele><time>2026-05-01T08:30:56.135Z</time></trkpt><trkpt lat="44.0455427" lon="11.4245585"><ele>931.0</ele><time>2026-05-01T08:30:59.136Z</time></trkpt><trkpt lat="44.045586" lon="11.424666"><ele>929.4285714285714</ele><time>2026-05-01T08:31:02.135Z</time></trkpt><trkpt lat="44.0456517" lon="11.4247575"><ele>927.8571428571429</ele><time>2026-05-01T08:31:05.135Z</time></trkpt><trkpt lat="44.0457038" lon="11.4248525"><ele>926.2857142857142</ele><time>2026-05-01T08:31:07.134Z</time></trkpt><trkpt lat="44.045737" lon="11.4249312"><ele>924.7142857142857</ele><time>2026-05-01T08:31:09.134Z</time></trkpt><trkpt lat="44.0457417" lon="11.425021"><ele>923.1428571428571</ele><time>2026-05-01T08:31:12.134Z</time></trkpt><trkpt lat="44.0457035" lon="11.4250918"><ele>921.5714285714284</ele><time>2026-05-01T08:31:54.132Z</time></trkpt><trkpt lat="44.045693" lon="11.4251807"><ele>919.9999999999999</ele><time>2026-05-01T08:32:14.133Z</time></trkpt><trkpt lat="44.0457438" lon="11.4252788"><ele>920.0000000000001</ele><time>2026-05-01T08:32:18.136Z</time></trkpt><trkpt lat="44.0457843" lon="11.425377"><ele>920.0</ele><time>2026-05-01T08:32:22.133Z</time></trkpt><trkpt lat="44.0457932" lon="11.4254762"><ele>920.0</ele><time>2026-05-01T08:32:25.132Z</time></trkpt><trkpt lat="44.045787" lon="11.425567"><ele>920.0</ele><time>2026-05-01T08:32:27.131Z</time></trkpt><trkpt lat="44.0457407" lon="11.4256813"><ele>920.0000000000001</ele><time>2026-05-01T08:32:29.131Z</time></trkpt><trkpt lat="44.0456922" lon="11.4257988"><ele>920.0</ele><time>2026-05-01T08:32:31.133Z</time></trkpt><trkpt lat="44.0456725" lon="11.4259143"><ele>918.6</ele><time>2026-05-01T08:32:33.132Z</time></trkpt><trkpt lat="44.0456307" lon="11.4260638"><ele>917.2</ele><time>2026-05-01T08:32:35.131Z</time></trkpt><trkpt lat="44.0455835" lon="11.4261935"><ele>915.8</ele><time>2026-05-01T08:32:37.131Z</time></trkpt><trkpt lat="44.0455497" lon="11.426302"><ele>914.4</ele><time>2026-05-01T08:32:39.134Z</time></trkpt><trkpt lat="44.0454972" lon="11.4263985"><ele>913.0</ele><time>2026-05-01T08:32:41.134Z</time></trkpt><trkpt lat="44.0454447" lon="11.426511"><ele>912.9999999999999</ele><time>2026-05-01T08:32:43.134Z</time></trkpt><trkpt lat="44.045396" lon="11.4265995"><ele>913.0</ele><time>2026-05-01T08:32:45.133Z</time></trkpt><trkpt lat="44.0453607" lon="11.4267098"><ele>913.0</ele><time>2026-05-01T08:32:47.135Z</time></trkpt><trkpt lat="44.0453382" lon="11.4268373"><ele>913.0</ele><time>2026-05-01T08:32:50.132Z</time></trkpt><trkpt lat="44.0453383" lon="11.4269443"><ele>912.9999999999999</ele><time>2026-05-01T08:32:52.132Z</time></trkpt><trkpt lat="44.0453197" lon="11.4270662"><ele>913.0</ele><time>2026-05-01T08:32:54.13Z</time></trkpt><trkpt lat="44.0453055" lon="11.4271933"><ele>914.9999999999999</ele><time>2026-05-01T08:32:56.132Z</time></trkpt><trkpt lat="44.0452903" lon="11.4273212"><ele>917.0</ele><time>2026-05-01T08:32:58.133Z</time></trkpt><trkpt lat="44.0452678" lon="11.427437"><ele>919.0</ele><time>2026-05-01T08:33:00.132Z</time></trkpt><trkpt lat="44.0452228" lon="11.427556"><ele>921.0</ele><time>2026-05-01T08:33:02.135Z</time></trkpt><trkpt lat="44.0452038" lon="11.4276407"><ele>922.9999999999999</ele><time>2026-05-01T08:33:07.133Z</time></trkpt><trkpt lat="44.045188" lon="11.427734"><ele>925.0</ele><time>2026-05-01T08:33:23.133Z</time></trkpt><trkpt lat="44.0451688" lon="11.4278308"><ele>924.9999999999999</ele><time>2026-05-01T08:33:25.132Z</time></trkpt><trkpt lat="44.0451453" lon="11.4279385"><ele>925.0</ele><time>2026-05-01T08:33:27.132Z</time></trkpt><trkpt lat="44.0451092" lon="11.4280265"><ele>925.0</ele><time>2026-05-01T08:33:29.134Z</time></trkpt><trkpt lat="44.0450528" lon="11.4281292"><ele>925.0</ele><time>2026-05-01T08:33:32.133Z</time></trkpt><trkpt lat="44.0450038" lon="11.4282112"><ele>924.9999999999999</ele><time>2026-05-01T08:33:34.132Z</time></trkpt><trkpt lat="44.0449637" lon="11.4282905"><ele>925.0</ele><time>2026-05-01T08:33:36.131Z</time></trkpt><trkpt lat="44.0448982" lon="11.4283673"><ele>918.6</ele><time>2026-05-01T08:33:38.132Z</time></trkpt><trkpt lat="44.0448463" lon="11.4284732"><ele>912.2</ele><time>2026-05-01T08:33:40.131Z</time></trkpt><trkpt lat="44.0447798" lon="11.4286183"><ele>905.8</ele><time>2026-05-01T08:33:42.131Z</time></trkpt><trkpt lat="44.0447262" lon="11.4286907"><ele>899.4</ele><time>2026-05-01T08:33:43.131Z</time></trkpt><trkpt lat="44.0446703" lon="11.428758"><ele>893.0</ele><time>2026-05-01T08:33:44.131Z</time></trkpt><trkpt lat="44.0445892" lon="11.4288888"><ele>891.8333333333334</ele><time>2026-05-01T08:33:46.132Z</time></trkpt><trkpt lat="44.0445267" lon="11.4290117"><ele>890.6666666666667</ele><time>2026-05-01T08:33:48.133Z</time></trkpt><trkpt lat="44.0444592" lon="11.4290783"><ele>889.5</ele><time>2026-05-01T08:33:50.134Z</time></trkpt><trkpt lat="44.0444142" lon="11.4291428"><ele>888.3333333333333</ele><time>2026-05-01T08:33:52.134Z</time></trkpt><trkpt lat="44.0443892" lon="11.4292308"><ele>887.1666666666666</ele><time>2026-05-01T08:33:56.133Z</time></trkpt><trkpt lat="44.0444062" lon="11.4293377"><ele>886.0</ele><time>2026-05-01T08:34:01.132Z</time></trkpt><trkpt lat="44.0444648" lon="11.4293853"><ele>886.0</ele><time>2026-05-01T08:34:05.131Z</time></trkpt><trkpt lat="44.044475" lon="11.4294737"><ele>886.0</ele><time>2026-05-01T08:34:34.135Z</time></trkpt><trkpt lat="44.044472" lon="11.429562"><ele>886.0</ele><time>2026-05-01T08:36:05.133Z</time></trkpt><trkpt lat="44.0445318" lon="11.429496"><ele>886.0</ele><time>2026-05-01T08:36:49.134Z</time></trkpt><trkpt lat="44.0445987" lon="11.4294453"><ele>886.0</ele><time>2026-05-01T08:36:52.132Z</time></trkpt><trkpt lat="44.0446792" lon="11.429411"><ele>886.0</ele><time>2026-05-01T08:36:55.132Z</time></trkpt><trkpt lat="44.044761" lon="11.4294388"><ele>886.0</ele><time>2026-05-01T08:36:58.133Z</time></trkpt><trkpt lat="44.0448343" lon="11.4295375"><ele>886.0</ele><time>2026-05-01T08:37:00.132Z</time></trkpt><trkpt lat="44.0449158" lon="11.429619"><ele>885.9999999999999</ele><time>2026-05-01T08:37:02.132Z</time></trkpt><trkpt lat="44.0449872" lon="11.429659"><ele>885.9999999999999</ele><time>2026-05-01T08:37:04.132Z</time></trkpt><trkpt lat="44.0450718" lon="11.4296533"><ele>886.0</ele><time>2026-05-01T08:37:06.131Z</time></trkpt><trkpt lat="44.045155" lon="11.42957"><ele>886.0</ele><time>2026-05-01T08:37:08.133Z</time></trkpt><trkpt lat="44.0452203" lon="11.429467"><ele>887.3333333333333</ele><time>2026-05-01T08:37:10.132Z</time></trkpt><trkpt lat="44.0452603" lon="11.4293488"><ele>888.6666666666666</ele><time>2026-05-01T08:37:12.133Z</time></trkpt><trkpt lat="44.0453198" lon="11.429259"><ele>890.0</ele><time>2026-05-01T08:37:15.132Z</time></trkpt><trkpt lat="44.0453807" lon="11.4292223"><ele>891.3333333333333</ele><time>2026-05-01T08:37:17.131Z</time></trkpt><trkpt lat="44.0454365" lon="11.4291377"><ele>892.6666666666666</ele><time>2026-05-01T08:37:21.129Z</time></trkpt><trkpt lat="44.0455137" lon="11.4290637"><ele>894.0</ele><time>2026-05-01T08:37:24.129Z</time></trkpt><trkpt lat="44.045567" lon="11.4290157"><ele>894.0</ele><time>2026-05-01T08:37:26.13Z</time></trkpt><trkpt lat="44.045661" lon="11.4290243"><ele>894.0000000000001</ele><time>2026-05-01T08:37:29.13Z</time></trkpt><trkpt lat="44.0457545" lon="11.4290135"><ele>894.0000000000001</ele><time>2026-05-01T08:37:31.13Z</time></trkpt><trkpt lat="44.0458625" lon="11.429018"><ele>894.0</ele><time>2026-05-01T08:37:33.131Z</time></trkpt><trkpt lat="44.045944" lon="11.4291065"><ele>894.0</ele><time>2026-05-01T08:37:35.131Z</time></trkpt><trkpt lat="44.045972" lon="11.4292905"><ele>891.3333333333334</ele><time>2026-05-01T08:37:37.132Z</time></trkpt><trkpt lat="44.0459735" lon="11.429392"><ele>888.6666666666667</ele><time>2026-05-01T08:37:38.131Z</time></trkpt><trkpt lat="44.0459787" lon="11.429494"><ele>886.0</ele><time>2026-05-01T08:37:39.131Z</time></trkpt><trkpt lat="44.04606" lon="11.4296138"><ele>883.3333333333334</ele><time>2026-05-01T08:37:41.131Z</time></trkpt><trkpt lat="44.0461467" lon="11.429622"><ele>880.6666666666667</ele><time>2026-05-01T08:37:42.132Z</time></trkpt><trkpt lat="44.0462417" lon="11.4296222"><ele>878.0</ele><time>2026-05-01T08:37:43.132Z</time></trkpt><trkpt lat="44.0463288" lon="11.4296073"><ele>878.0000000000001</ele><time>2026-05-01T08:37:44.132Z</time></trkpt><trkpt lat="44.0464188" lon="11.4295875"><ele>878.0</ele><time>2026-05-01T08:37:45.13Z</time></trkpt><trkpt lat="44.04651" lon="11.4295585"><ele>878.0</ele><time>2026-05-01T08:37:46.13Z</time></trkpt><trkpt lat="44.0465882" lon="11.4295307"><ele>878.0</ele><time>2026-05-01T08:37:47.13Z</time></trkpt><trkpt lat="44.046669" lon="11.4294975"><ele>878.0000000000001</ele><time>2026-05-01T08:37:48.13Z</time></trkpt><trkpt lat="44.0467407" lon="11.429463"><ele>878.0</ele><time>2026-05-01T08:37:49.13Z</time></trkpt><trkpt lat="44.0468517" lon="11.4294655"><ele>877.8</ele><time>2026-05-01T08:37:51.131Z</time></trkpt><trkpt lat="44.0469628" lon="11.429559"><ele>877.5999999999999</ele><time>2026-05-01T08:37:53.13Z</time></trkpt><trkpt lat="44.0470628" lon="11.429653"><ele>877.4000000000001</ele><time>2026-05-01T08:37:55.131Z</time></trkpt><trkpt lat="44.0471267" lon="11.4297083"><ele>877.2</ele><time>2026-05-01T08:37:56.131Z</time></trkpt><trkpt lat="44.0471902" lon="11.4297725"><ele>877.0</ele><time>2026-05-01T08:37:57.132Z</time></trkpt><trkpt lat="44.0472323" lon="11.4298478"><ele>877.0</ele><time>2026-05-01T08:37:58.13Z</time></trkpt><trkpt lat="44.0472393" lon="11.4300203"><ele>877.0</ele><time>2026-05-01T08:38:00.13Z</time></trkpt><trkpt lat="44.0472493" lon="11.430138"><ele>877.0</ele><time>2026-05-01T08:38:01.131Z</time></trkpt><trkpt lat="44.0472515" lon="11.4302563"><ele>877.0</ele><time>2026-05-01T08:38:02.13Z</time></trkpt><trkpt lat="44.0472465" lon="11.4303782"><ele>877.0</ele><time>2026-05-01T08:38:03.13Z</time></trkpt><trkpt lat="44.047241" lon="11.4304958"><ele>876.6</ele><time>2026-05-01T08:38:04.13Z</time></trkpt><trkpt lat="44.0472715" lon="11.4306638"><ele>876.2</ele><time>2026-05-01T08:38:06.13Z</time></trkpt><trkpt lat="44.0473667" lon="11.4307812"><ele>875.8</ele><time>2026-05-01T08:38:08.13Z</time></trkpt><trkpt lat="44.0474245" lon="11.43084"><ele>875.4</ele><time>2026-05-01T08:38:09.13Z</time></trkpt><trkpt lat="44.0474717" lon="11.4309252"><ele>875.0</ele><time>2026-05-01T08:38:10.129Z</time></trkpt><trkpt lat="44.0475072" lon="11.43103"><ele>882.0</ele><time>2026-05-01T08:38:11.129Z</time></trkpt><trkpt lat="44.0475278" lon="11.4311552"><ele>889.0</ele><time>2026-05-01T08:38:12.128Z</time></trkpt><trkpt lat="44.047526" lon="11.431281"><ele>896.0</ele><time>2026-05-01T08:38:13.128Z</time></trkpt><trkpt lat="44.0475138" lon="11.4314038"><ele>903.0</ele><time>2026-05-01T08:38:14.13Z</time></trkpt><trkpt lat="44.0475037" lon="11.431544"><ele>910.0</ele><time>2026-05-01T08:38:15.13Z</time></trkpt><trkpt lat="44.0474933" lon="11.4316632"><ele>909.6666666666666</ele><time>2026-05-01T08:38:16.13Z</time></trkpt><trkpt lat="44.0474913" lon="11.4317975"><ele>909.3333333333333</ele><time>2026-05-01T08:38:17.13Z</time></trkpt><trkpt lat="44.0474827" lon="11.4319063"><ele>909.0</ele><time>2026-05-01T08:38:18.129Z</time></trkpt><trkpt lat="44.0474572" lon="11.431997"><ele>908.6666666666667</ele><time>2026-05-01T08:38:19.129Z</time></trkpt><trkpt lat="44.0473928" lon="11.432102"><ele>908.3333333333334</ele><time>2026-05-01T08:38:21.13Z</time></trkpt><trkpt lat="44.047332" lon="11.4321462"><ele>908.0</ele><time>2026-05-01T08:38:22.129Z</time></trkpt><trkpt lat="44.0472708" lon="11.4321973"><ele>908.0000000000001</ele><time>2026-05-01T08:38:23.13Z</time></trkpt><trkpt lat="44.0472192" lon="11.432253"><ele>908.0</ele><time>2026-05-01T08:38:24.129Z</time></trkpt><trkpt lat="44.0471792" lon="11.4323435"><ele>908.0</ele><time>2026-05-01T08:38:25.129Z</time></trkpt><trkpt lat="44.0471428" lon="11.4324753"><ele>908.0</ele><time>2026-05-01T08:38:26.13Z</time></trkpt><trkpt lat="44.0471042" lon="11.4325822"><ele>908.0000000000001</ele><time>2026-05-01T08:38:27.13Z</time></trkpt><trkpt lat="44.0470848" lon="11.4327135"><ele>908.0</ele><time>2026-05-01T08:38:28.129Z</time></trkpt><trkpt lat="44.0470807" lon="11.4328412"><ele>908.0000000000001</ele><time>2026-05-01T08:38:29.129Z</time></trkpt><trkpt lat="44.0470898" lon="11.4329605"><ele>908.0</ele><time>2026-05-01T08:38:30.131Z</time></trkpt><trkpt lat="44.0471198" lon="11.433084"><ele>908.0</ele><time>2026-05-01T08:38:31.132Z</time></trkpt><trkpt lat="44.0471443" lon="11.4331828"><ele>908.0</ele><time>2026-05-01T08:38:32.131Z</time></trkpt><trkpt lat="44.047175" lon="11.4332718"><ele>908.0000000000001</ele><time>2026-05-01T08:38:33.132Z</time></trkpt><trkpt lat="44.0472377" lon="11.4334115"><ele>908.0</ele><time>2026-05-01T08:38:35.13Z</time></trkpt><trkpt lat="44.04728" lon="11.4335035"><ele>911.2</ele><time>2026-05-01T08:38:36.13Z</time></trkpt><trkpt lat="44.0473135" lon="11.4336095"><ele>914.4</ele><time>2026-05-01T08:38:37.129Z</time></trkpt><trkpt lat="44.0473312" lon="11.4337408"><ele>917.6000000000001</ele><time>2026-05-01T08:38:38.131Z</time></trkpt><trkpt lat="44.0473563" lon="11.4338845"><ele>920.8000000000001</ele><time>2026-05-01T08:38:39.131Z</time></trkpt><trkpt lat="44.047387" lon="11.4340148"><ele>924.0</ele><time>2026-05-01T08:38:40.132Z</time></trkpt><trkpt lat="44.0474295" lon="11.4341385"><ele>931.0</ele><time>2026-05-01T08:38:41.132Z</time></trkpt><trkpt lat="44.0474828" lon="11.4342548"><ele>938.0000000000001</ele><time>2026-05-01T08:38:42.132Z</time></trkpt><trkpt lat="44.0474942" lon="11.4343922"><ele>945.0000000000001</ele><time>2026-05-01T08:38:43.131Z</time></trkpt><trkpt lat="44.047498" lon="11.4345303"><ele>952.0</ele><time>2026-05-01T08:38:44.133Z</time></trkpt><trkpt lat="44.0475058" lon="11.4346708"><ele>959.0</ele><time>2026-05-01T08:38:45.131Z</time></trkpt><trkpt lat="44.0474993" lon="11.4347938"><ele>959.0</ele><time>2026-05-01T08:38:46.131Z</time></trkpt><trkpt lat="44.0474873" lon="11.43491"><ele>959.0000000000001</ele><time>2026-05-01T08:38:47.132Z</time></trkpt><trkpt lat="44.0474503" lon="11.4350117"><ele>959.0000000000001</ele><time>2026-05-01T08:38:48.129Z</time></trkpt><trkpt lat="44.0474038" lon="11.435108"><ele>959.0</ele><time>2026-05-01T08:38:49.131Z</time></trkpt><trkpt lat="44.0473807" lon="11.4352363"><ele>959.0</ele><time>2026-05-01T08:38:50.131Z</time></trkpt><trkpt lat="44.0473692" lon="11.435383"><ele>952.2</ele><time>2026-05-01T08:38:51.13Z</time></trkpt><trkpt lat="44.0473697" lon="11.4355322"><ele>945.4000000000001</ele><time>2026-05-01T08:38:52.131Z</time></trkpt><trkpt lat="44.0473625" lon="11.4356702"><ele>938.6</ele><time>2026-05-01T08:38:53.131Z</time></trkpt><trkpt lat="44.0473355" lon="11.4357787"><ele>931.8</ele><time>2026-05-01T08:38:54.13Z</time></trkpt><trkpt lat="44.0472847" lon="11.4358793"><ele>925.0</ele><time>2026-05-01T08:38:55.131Z</time></trkpt><trkpt lat="44.0472315" lon="11.435989"><ele>925.0</ele><time>2026-05-01T08:38:56.131Z</time></trkpt><trkpt lat="44.047187" lon="11.4361128"><ele>925.0</ele><time>2026-05-01T08:38:57.132Z</time></trkpt><trkpt lat="44.0471477" lon="11.4362512"><ele>925.0</ele><time>2026-05-01T08:38:58.131Z</time></trkpt><trkpt lat="44.0471188" lon="11.4363845"><ele>925.0</ele><time>2026-05-01T08:38:59.129Z</time></trkpt><trkpt lat="44.0470908" lon="11.4365235"><ele>925.0</ele><time>2026-05-01T08:39:00.129Z</time></trkpt><trkpt lat="44.0470657" lon="11.4366513"><ele>927.4</ele><time>2026-05-01T08:39:01.129Z</time></trkpt><trkpt lat="44.0470315" lon="11.4367692"><ele>929.8</ele><time>2026-05-01T08:39:02.129Z</time></trkpt><trkpt lat="44.0469705" lon="11.436883"><ele>932.2</ele><time>2026-05-01T08:39:03.131Z</time></trkpt><trkpt lat="44.0469053" lon="11.4369902"><ele>934.6</ele><time>2026-05-01T08:39:04.13Z</time></trkpt><trkpt lat="44.0468537" lon="11.4370823"><ele>937.0</ele><time>2026-05-01T08:39:05.131Z</time></trkpt><trkpt lat="44.0467932" lon="11.4371758"><ele>939.8333333333333</ele><time>2026-05-01T08:39:06.131Z</time></trkpt><trkpt lat="44.046726" lon="11.4372515"><ele>942.6666666666666</ele><time>2026-05-01T08:39:07.13Z</time></trkpt><trkpt lat="44.0466633" lon="11.43731"><ele>945.5</ele><time>2026-05-01T08:39:08.129Z</time></trkpt><trkpt lat="44.0465957" lon="11.4373463"><ele>948.3333333333333</ele><time>2026-05-01T08:39:09.129Z</time></trkpt><trkpt lat="44.0465228" lon="11.4373737"><ele>951.1666666666666</ele><time>2026-05-01T08:39:10.13Z</time></trkpt><trkpt lat="44.0464453" lon="11.4374258"><ele>954.0</ele><time>2026-05-01T08:39:11.13Z</time></trkpt><trkpt lat="44.0463875" lon="11.4375188"><ele>951.0</ele><time>2026-05-01T08:39:12.13Z</time></trkpt><trkpt lat="44.0463207" lon="11.4376253"><ele>948.0000000000001</ele><time>2026-05-01T08:39:13.129Z</time></trkpt><trkpt lat="44.0462665" lon="11.4377378"><ele>945.0000000000001</ele><time>2026-05-01T08:39:14.13Z</time></trkpt><trkpt lat="44.0462237" lon="11.4378518"><ele>942.0</ele><time>2026-05-01T08:39:15.13Z</time></trkpt><trkpt lat="44.0461918" lon="11.4379437"><ele>939.0</ele><time>2026-05-01T08:39:16.13Z</time></trkpt><trkpt lat="44.0461387" lon="11.4380455"><ele>939.0</ele><time>2026-05-01T08:39:17.13Z</time></trkpt><trkpt lat="44.0460808" lon="11.4381223"><ele>939.0000000000001</ele><time>2026-05-01T08:39:18.13Z</time></trkpt><trkpt lat="44.046002" lon="11.4381697"><ele>939.0000000000001</ele><time>2026-05-01T08:39:19.129Z</time></trkpt><trkpt lat="44.0459227" lon="11.4382208"><ele>939.0</ele><time>2026-05-01T08:39:20.129Z</time></trkpt><trkpt lat="44.0458077" lon="11.4382518"><ele>939.0</ele><time>2026-05-01T08:39:21.13Z</time></trkpt><trkpt lat="44.0456923" lon="11.4382718"><ele>936.4000000000001</ele><time>2026-05-01T08:39:22.129Z</time></trkpt><trkpt lat="44.0455937" lon="11.4382702"><ele>933.8000000000001</ele><time>2026-05-01T08:39:23.129Z</time></trkpt><trkpt lat="44.045509" lon="11.4382733"><ele>931.1999999999999</ele><time>2026-05-01T08:39:24.129Z</time></trkpt><trkpt lat="44.0454085" lon="11.4382865"><ele>928.5999999999999</ele><time>2026-05-01T08:39:25.127Z</time></trkpt><trkpt lat="44.0453012" lon="11.4382883"><ele>926.0</ele><time>2026-05-01T08:39:26.13Z</time></trkpt><trkpt lat="44.0452182" lon="11.438276"><ele>926.0</ele><time>2026-05-01T08:39:27.129Z</time></trkpt><trkpt lat="44.0451407" lon="11.4382867"><ele>925.9999999999999</ele><time>2026-05-01T08:39:28.132Z</time></trkpt><trkpt lat="44.0450643" lon="11.438341"><ele>925.9999999999999</ele><time>2026-05-01T08:39:29.131Z</time></trkpt><trkpt lat="44.044987" lon="11.4384368"><ele>926.0</ele><time>2026-05-01T08:39:30.132Z</time></trkpt><trkpt lat="44.0449013" lon="11.4385303"><ele>926.0</ele><time>2026-05-01T08:39:31.134Z</time></trkpt><trkpt lat="44.0448027" lon="11.438592"><ele>924.1999999999999</ele><time>2026-05-01T08:39:32.136Z</time></trkpt><trkpt lat="44.0447038" lon="11.438616"><ele>922.3999999999999</ele><time>2026-05-01T08:39:33.136Z</time></trkpt><trkpt lat="44.0445993" lon="11.4386232"><ele>920.6</ele><time>2026-05-01T08:39:34.138Z</time></trkpt><trkpt lat="44.0444913" lon="11.4386168"><ele>918.8</ele><time>2026-05-01T08:39:35.136Z</time></trkpt><trkpt lat="44.0443888" lon="11.4386087"><ele>917.0</ele><time>2026-05-01T08:39:36.136Z</time></trkpt><trkpt lat="44.0443033" lon="11.4386145"><ele>917.0000000000001</ele><time>2026-05-01T08:39:37.135Z</time></trkpt><trkpt lat="44.0442447" lon="11.4386488"><ele>917.0</ele><time>2026-05-01T08:39:38.135Z</time></trkpt><trkpt lat="44.0442195" lon="11.4387388"><ele>917.0</ele><time>2026-05-01T08:39:40.135Z</time></trkpt><trkpt lat="44.0442872" lon="11.4388042"><ele>917.0</ele><time>2026-05-01T08:39:42.136Z</time></trkpt><trkpt lat="44.0444172" lon="11.438849"><ele>917.0000000000001</ele><time>2026-05-01T08:39:44.135Z</time></trkpt><trkpt lat="44.0445033" lon="11.4388645"><ele>917.0</ele><time>2026-05-01T08:39:45.134Z</time></trkpt><trkpt lat="44.0445912" lon="11.4388888"><ele>917.0</ele><time>2026-05-01T08:39:46.133Z</time></trkpt><trkpt lat="44.0446793" lon="11.4389337"><ele>917.0</ele><time>2026-05-01T08:39:47.134Z</time></trkpt><trkpt lat="44.0447615" lon="11.4390105"><ele>917.0</ele><time>2026-05-01T08:39:48.131Z</time></trkpt><trkpt lat="44.0448343" lon="11.4391113"><ele>917.0</ele><time>2026-05-01T08:39:49.132Z</time></trkpt><trkpt lat="44.0449087" lon="11.4392242"><ele>917.0</ele><time>2026-05-01T08:39:50.132Z</time></trkpt><trkpt lat="44.0449742" lon="11.439345"><ele>916.6666666666667</ele><time>2026-05-01T08:39:51.132Z</time></trkpt><trkpt lat="44.0450303" lon="11.4394575"><ele>916.3333333333334</ele><time>2026-05-01T08:39:52.135Z</time></trkpt><trkpt lat="44.0450877" lon="11.4395485"><ele>916.0</ele><time>2026-05-01T08:39:53.133Z</time></trkpt><trkpt lat="44.0451513" lon="11.4396178"><ele>915.6666666666667</ele><time>2026-05-01T08:39:54.133Z</time></trkpt><trkpt lat="44.0452162" lon="11.4396765"><ele>915.3333333333334</ele><time>2026-05-01T08:39:55.131Z</time></trkpt><trkpt lat="44.0452967" lon="11.4397405"><ele>915.0</ele><time>2026-05-01T08:39:56.133Z</time></trkpt><trkpt lat="44.0453765" lon="11.4398165"><ele>915.0</ele><time>2026-05-01T08:39:57.134Z</time></trkpt><trkpt lat="44.045461" lon="11.4398975"><ele>915.0</ele><time>2026-05-01T08:39:58.132Z</time></trkpt><trkpt lat="44.0455428" lon="11.4399747"><ele>915.0</ele><time>2026-05-01T08:39:59.133Z</time></trkpt><trkpt lat="44.045612" lon="11.4400488"><ele>915.0</ele><time>2026-05-01T08:40:00.132Z</time></trkpt><trkpt lat="44.045668" lon="11.440134"><ele>915.0</ele><time>2026-05-01T08:40:01.132Z</time></trkpt><trkpt lat="44.0457145" lon="11.440231"><ele>915.0</ele><time>2026-05-01T08:40:02.133Z</time></trkpt><trkpt lat="44.045745" lon="11.4403235"><ele>915.0</ele><time>2026-05-01T08:40:03.132Z</time></trkpt><trkpt lat="44.0457307" lon="11.44052"><ele>915.0</ele><time>2026-05-01T08:40:05.132Z</time></trkpt><trkpt lat="44.045706" lon="11.4406447"><ele>915.0</ele><time>2026-05-01T08:40:06.132Z</time></trkpt><trkpt lat="44.0456765" lon="11.4407708"><ele>915.0</ele><time>2026-05-01T08:40:07.132Z</time></trkpt><trkpt lat="44.0456633" lon="11.4408987"><ele>913.5</ele><time>2026-05-01T08:40:08.132Z</time></trkpt><trkpt lat="44.0456487" lon="11.4410378"><ele>912.0</ele><time>2026-05-01T08:40:09.133Z</time></trkpt><trkpt lat="44.045638" lon="11.4411852"><ele>910.5</ele><time>2026-05-01T08:40:10.132Z</time></trkpt><trkpt lat="44.0456287" lon="11.4413028"><ele>909.0</ele><time>2026-05-01T08:40:11.133Z</time></trkpt><trkpt lat="44.0456263" lon="11.4414152"><ele>907.5</ele><time>2026-05-01T08:40:12.131Z</time></trkpt><trkpt lat="44.0456482" lon="11.4414978"><ele>906.0</ele><time>2026-05-01T08:40:13.131Z</time></trkpt><trkpt lat="44.0456923" lon="11.4415757"><ele>906.0</ele><time>2026-05-01T08:40:14.131Z</time></trkpt><trkpt lat="44.0457728" lon="11.4416498"><ele>905.9999999999999</ele><time>2026-05-01T08:40:15.132Z</time></trkpt><trkpt lat="44.0458495" lon="11.44176"><ele>905.9999999999999</ele><time>2026-05-01T08:40:16.132Z</time></trkpt><trkpt lat="44.0458995" lon="11.4418748"><ele>906.0</ele><time>2026-05-01T08:40:17.134Z</time></trkpt><trkpt lat="44.0459405" lon="11.4419805"><ele>906.0</ele><time>2026-05-01T08:40:18.133Z</time></trkpt><trkpt lat="44.0459797" lon="11.4420627"><ele>911.0</ele><time>2026-05-01T08:40:19.134Z</time></trkpt><trkpt lat="44.0460768" lon="11.4421237"><ele>915.9999999999999</ele><time>2026-05-01T08:40:21.135Z</time></trkpt><trkpt lat="44.0461565" lon="11.4421103"><ele>920.9999999999999</ele><time>2026-05-01T08:40:22.132Z</time></trkpt><trkpt lat="44.0462822" lon="11.4421528"><ele>926.0</ele><time>2026-05-01T08:40:24.133Z</time></trkpt><trkpt lat="44.046331" lon="11.4422345"><ele>931.0</ele><time>2026-05-01T08:40:25.134Z</time></trkpt><trkpt lat="44.0463715" lon="11.4423397"><ele>931.0</ele><time>2026-05-01T08:40:26.134Z</time></trkpt><trkpt lat="44.0464085" lon="11.442449"><ele>930.9999999999999</ele><time>2026-05-01T08:40:27.133Z</time></trkpt><trkpt lat="44.04646" lon="11.4425487"><ele>930.9999999999999</ele><time>2026-05-01T08:40:28.132Z</time></trkpt><trkpt lat="44.0465188" lon="11.4426373"><ele>931.0</ele><time>2026-05-01T08:40:29.134Z</time></trkpt><trkpt lat="44.046609" lon="11.4427185"><ele>931.0</ele><time>2026-05-01T08:40:31.132Z</time></trkpt><trkpt lat="44.0467195" lon="11.4427055"><ele>933.9999999999999</ele><time>2026-05-01T08:40:33.133Z</time></trkpt><trkpt lat="44.0467827" lon="11.4427008"><ele>937.0</ele><time>2026-05-01T08:40:34.134Z</time></trkpt><trkpt lat="44.0468558" lon="11.4426965"><ele>940.0</ele><time>2026-05-01T08:40:35.134Z</time></trkpt><trkpt lat="44.04694" lon="11.4426892"><ele>943.0</ele><time>2026-05-01T08:40:36.134Z</time></trkpt><trkpt lat="44.0470165" lon="11.4426702"><ele>945.9999999999999</ele><time>2026-05-01T08:40:37.132Z</time></trkpt><trkpt lat="44.047083" lon="11.4426238"><ele>949.0</ele><time>2026-05-01T08:40:38.132Z</time></trkpt><trkpt lat="44.0471333" lon="11.4425428"><ele>948.9999999999999</ele><time>2026-05-01T08:40:39.131Z</time></trkpt><trkpt lat="44.047172" lon="11.4424355"><ele>949.0</ele><time>2026-05-01T08:40:40.131Z</time></trkpt><trkpt lat="44.047206" lon="11.4423233"><ele>949.0</ele><time>2026-05-01T08:40:41.134Z</time></trkpt><trkpt lat="44.0472347" lon="11.4422062"><ele>949.0</ele><time>2026-05-01T08:40:42.133Z</time></trkpt><trkpt lat="44.0472705" lon="11.44209"><ele>948.9999999999999</ele><time>2026-05-01T08:40:43.134Z</time></trkpt><trkpt lat="44.0473113" lon="11.4419797"><ele>949.0</ele><time>2026-05-01T08:40:44.134Z</time></trkpt><trkpt lat="44.0473835" lon="11.4418938"><ele>953.4000000000001</ele><time>2026-05-01T08:40:45.134Z</time></trkpt><trkpt lat="44.0474635" lon="11.4418305"><ele>957.8000000000001</ele><time>2026-05-01T08:40:46.132Z</time></trkpt><trkpt lat="44.0475477" lon="11.4417822"><ele>962.1999999999999</ele><time>2026-05-01T08:40:47.133Z</time></trkpt><trkpt lat="44.0476262" lon="11.4417328"><ele>966.5999999999999</ele><time>2026-05-01T08:40:48.133Z</time></trkpt><trkpt lat="44.04771" lon="11.4416755"><ele>971.0</ele><time>2026-05-01T08:40:49.133Z</time></trkpt><trkpt lat="44.0477952" lon="11.4416127"><ele>971.0</ele><time>2026-05-01T08:40:50.131Z</time></trkpt><trkpt lat="44.0478848" lon="11.4415545"><ele>970.9999999999999</ele><time>2026-05-01T08:40:51.131Z</time></trkpt><trkpt lat="44.0479703" lon="11.4415143"><ele>970.9999999999999</ele><time>2026-05-01T08:40:52.132Z</time></trkpt><trkpt lat="44.0480592" lon="11.4415047"><ele>971.0</ele><time>2026-05-01T08:40:53.134Z</time></trkpt><trkpt lat="44.0481523" lon="11.441502"><ele>971.0</ele><time>2026-05-01T08:40:54.134Z</time></trkpt><trkpt lat="44.0482513" lon="11.4414875"><ele>969.8</ele><time>2026-05-01T08:40:55.134Z</time></trkpt><trkpt lat="44.0483495" lon="11.4414572"><ele>968.5999999999999</ele><time>2026-05-01T08:40:56.134Z</time></trkpt><trkpt lat="44.048445" lon="11.4414328"><ele>967.4</ele><time>2026-05-01T08:40:57.134Z</time></trkpt><trkpt lat="44.0485352" lon="11.4414073"><ele>966.2</ele><time>2026-05-01T08:40:58.133Z</time></trkpt><trkpt lat="44.0486262" lon="11.4413917"><ele>965.0</ele><time>2026-05-01T08:40:59.133Z</time></trkpt><trkpt lat="44.0487278" lon="11.441381"><ele>965.0</ele><time>2026-05-01T08:41:00.132Z</time></trkpt><trkpt lat="44.0488358" lon="11.4413942"><ele>965.0</ele><time>2026-05-01T08:41:01.131Z</time></trkpt><trkpt lat="44.0489307" lon="11.441415"><ele>965.0</ele><time>2026-05-01T08:41:02.13Z</time></trkpt><trkpt lat="44.0490183" lon="11.441463"><ele>965.0</ele><time>2026-05-01T08:41:03.13Z</time></trkpt><trkpt lat="44.0490813" lon="11.4415512"><ele>965.0</ele><time>2026-05-01T08:41:04.131Z</time></trkpt><trkpt lat="44.0491158" lon="11.4416687"><ele>967.4</ele><time>2026-05-01T08:41:05.132Z</time></trkpt><trkpt lat="44.0491568" lon="11.4417855"><ele>969.8</ele><time>2026-05-01T08:41:06.131Z</time></trkpt><trkpt lat="44.0491857" lon="11.4419108"><ele>972.2</ele><time>2026-05-01T08:41:07.129Z</time></trkpt><trkpt lat="44.0492153" lon="11.442048"><ele>974.6</ele><time>2026-05-01T08:41:08.131Z</time></trkpt><trkpt lat="44.049241" lon="11.4421902"><ele>977.0</ele><time>2026-05-01T08:41:09.13Z</time></trkpt><trkpt lat="44.0492547" lon="11.4423368"><ele>977.0</ele><time>2026-05-01T08:41:10.131Z</time></trkpt><trkpt lat="44.0492553" lon="11.4424927"><ele>977.0</ele><time>2026-05-01T08:41:11.131Z</time></trkpt><trkpt lat="44.0492588" lon="11.4426453"><ele>977.0</ele><time>2026-05-01T08:41:12.131Z</time></trkpt><trkpt lat="44.0492635" lon="11.4427787"><ele>977.0</ele><time>2026-05-01T08:41:13.131Z</time></trkpt><trkpt lat="44.0492695" lon="11.4429022"><ele>977.0</ele><time>2026-05-01T08:41:14.131Z</time></trkpt><trkpt lat="44.0492852" lon="11.4430457"><ele>977.0</ele><time>2026-05-01T08:41:15.133Z</time></trkpt><trkpt lat="44.0492847" lon="11.4432098"><ele>977.0</ele><time>2026-05-01T08:41:16.131Z</time></trkpt><trkpt lat="44.0492825" lon="11.4433745"><ele>977.0</ele><time>2026-05-01T08:41:17.131Z</time></trkpt><trkpt lat="44.0492762" lon="11.44354"><ele>977.0</ele><time>2026-05-01T08:41:18.13Z</time></trkpt><trkpt lat="44.049269" lon="11.4436955"><ele>977.8333333333334</ele><time>2026-05-01T08:41:19.129Z</time></trkpt><trkpt lat="44.0492593" lon="11.443838"><ele>978.6666666666667</ele><time>2026-05-01T08:41:20.131Z</time></trkpt><trkpt lat="44.0492513" lon="11.4439638"><ele>979.5</ele><time>2026-05-01T08:41:21.13Z</time></trkpt><trkpt lat="44.0492453" lon="11.4440832"><ele>980.3333333333333</ele><time>2026-05-01T08:41:22.131Z</time></trkpt><trkpt lat="44.0492603" lon="11.4441932"><ele>981.1666666666666</ele><time>2026-05-01T08:41:23.132Z</time></trkpt><trkpt lat="44.049297" lon="11.4442928"><ele>982.0</ele><time>2026-05-01T08:41:24.131Z</time></trkpt><trkpt lat="44.0493557" lon="11.4444113"><ele>982.0</ele><time>2026-05-01T08:41:25.132Z</time></trkpt><trkpt lat="44.0494242" lon="11.4445285"><ele>982.0</ele><time>2026-05-01T08:41:26.13Z</time></trkpt><trkpt lat="44.0494777" lon="11.4446493"><ele>982.0</ele><time>2026-05-01T08:41:27.132Z</time></trkpt><trkpt lat="44.049527" lon="11.4447763"><ele>982.0</ele><time>2026-05-01T08:41:28.131Z</time></trkpt><trkpt lat="44.0495763" lon="11.444903"><ele>982.0</ele><time>2026-05-01T08:41:29.134Z</time></trkpt><trkpt lat="44.0496063" lon="11.4450317"><ele>982.0</ele><time>2026-05-01T08:41:30.133Z</time></trkpt><trkpt lat="44.0496373" lon="11.4451667"><ele>982.0</ele><time>2026-05-01T08:41:31.132Z</time></trkpt><trkpt lat="44.0496687" lon="11.4453217"><ele>982.0</ele><time>2026-05-01T08:41:32.134Z</time></trkpt><trkpt lat="44.049689" lon="11.4454753"><ele>982.0</ele><time>2026-05-01T08:41:33.132Z</time></trkpt><trkpt lat="44.0496985" lon="11.445629"><ele>982.0</ele><time>2026-05-01T08:41:34.133Z</time></trkpt><trkpt lat="44.0497108" lon="11.4457743"><ele>982.6</ele><time>2026-05-01T08:41:35.133Z</time></trkpt><trkpt lat="44.049727" lon="11.4459215"><ele>983.2</ele><time>2026-05-01T08:41:36.132Z</time></trkpt><trkpt lat="44.0497367" lon="11.4460673"><ele>983.8</ele><time>2026-05-01T08:41:37.132Z</time></trkpt><trkpt lat="44.0497298" lon="11.4462122"><ele>984.4</ele><time>2026-05-01T08:41:38.133Z</time></trkpt><trkpt lat="44.0497078" lon="11.4463567"><ele>985.0</ele><time>2026-05-01T08:41:39.134Z</time></trkpt><trkpt lat="44.0496827" lon="11.4464857"><ele>986.6</ele><time>2026-05-01T08:41:40.132Z</time></trkpt><trkpt lat="44.0496507" lon="11.4466057"><ele>988.2</ele><time>2026-05-01T08:41:41.131Z</time></trkpt><trkpt lat="44.049626" lon="11.446734"><ele>989.8</ele><time>2026-05-01T08:41:42.132Z</time></trkpt><trkpt lat="44.0495915" lon="11.446853"><ele>991.4</ele><time>2026-05-01T08:41:43.13Z</time></trkpt><trkpt lat="44.0495545" lon="11.4469638"><ele>993.0</ele><time>2026-05-01T08:41:44.131Z</time></trkpt><trkpt lat="44.0495335" lon="11.4470805"><ele>994.5999999999999</ele><time>2026-05-01T08:41:45.131Z</time></trkpt><trkpt lat="44.0495407" lon="11.4472088"><ele>996.1999999999999</ele><time>2026-05-01T08:41:46.131Z</time></trkpt><trkpt lat="44.0495503" lon="11.4473435"><ele>997.8</ele><time>2026-05-01T08:41:47.131Z</time></trkpt><trkpt lat="44.0495755" lon="11.4474753"><ele>999.4</ele><time>2026-05-01T08:41:48.132Z</time></trkpt><trkpt lat="44.0496168" lon="11.4475913"><ele>1001.0</ele><time>2026-05-01T08:41:49.132Z</time></trkpt><trkpt lat="44.0496658" lon="11.4476718"><ele>1001.0000000000001</ele><time>2026-05-01T08:41:50.131Z</time></trkpt><trkpt lat="44.0497113" lon="11.4477375"><ele>1001.0</ele><time>2026-05-01T08:41:53.131Z</time></trkpt><trkpt lat="44.0497752" lon="11.4478122"><ele>1001.0</ele><time>2026-05-01T08:41:57.132Z</time></trkpt><trkpt lat="44.049827" lon="11.4478732"><ele>1001.0</ele><time>2026-05-01T08:41:59.134Z</time></trkpt><trkpt lat="44.0498887" lon="11.4479508"><ele>1001.0000000000001</ele><time>2026-05-01T08:42:01.132Z</time></trkpt><trkpt lat="44.0499277" lon="11.4481018"><ele>1001.0</ele><time>2026-05-01T08:42:03.134Z</time></trkpt><trkpt lat="44.0499383" lon="11.4481905"><ele>1003.1428571428571</ele><time>2026-05-01T08:42:04.132Z</time></trkpt><trkpt lat="44.0499732" lon="11.4482782"><ele>1005.2857142857142</ele><time>2026-05-01T08:42:05.133Z</time></trkpt><trkpt lat="44.0500155" lon="11.4483643"><ele>1007.4285714285714</ele><time>2026-05-01T08:42:06.131Z</time></trkpt><trkpt lat="44.0500633" lon="11.4484358"><ele>1009.5714285714286</ele><time>2026-05-01T08:42:07.132Z</time></trkpt><trkpt lat="44.0501163" lon="11.4484922"><ele>1011.7142857142857</ele><time>2026-05-01T08:42:08.133Z</time></trkpt><trkpt lat="44.0501723" lon="11.448538"><ele>1013.8571428571429</ele><time>2026-05-01T08:42:09.132Z</time></trkpt><trkpt lat="44.0502362" lon="11.4486167"><ele>1016.0</ele><time>2026-05-01T08:42:10.131Z</time></trkpt><trkpt lat="44.0503045" lon="11.4487135"><ele>1016.0</ele><time>2026-05-01T08:42:11.132Z</time></trkpt><trkpt lat="44.05037" lon="11.4488272"><ele>1015.9999999999999</ele><time>2026-05-01T08:42:12.131Z</time></trkpt><trkpt lat="44.0504092" lon="11.4489572"><ele>1015.9999999999999</ele><time>2026-05-01T08:42:13.132Z</time></trkpt><trkpt lat="44.0504275" lon="11.4490727"><ele>1016.0</ele><time>2026-05-01T08:42:14.131Z</time></trkpt><trkpt lat="44.0504423" lon="11.4491915"><ele>1016.0</ele><time>2026-05-01T08:42:15.129Z</time></trkpt><trkpt lat="44.0504543" lon="11.4493137"><ele>1016.0000000000001</ele><time>2026-05-01T08:42:16.13Z</time></trkpt><trkpt lat="44.0504587" lon="11.4494285"><ele>1016.0</ele><time>2026-05-01T08:42:17.13Z</time></trkpt><trkpt lat="44.0504475" lon="11.449545"><ele>1016.0</ele><time>2026-05-01T08:42:18.129Z</time></trkpt><trkpt lat="44.050413" lon="11.449657"><ele>1016.0</ele><time>2026-05-01T08:42:19.13Z</time></trkpt><trkpt lat="44.0503693" lon="11.4497488"><ele>1016.0000000000001</ele><time>2026-05-01T08:42:20.131Z</time></trkpt><trkpt lat="44.0503263" lon="11.4498353"><ele>1016.0</ele><time>2026-05-01T08:42:21.13Z</time></trkpt><trkpt lat="44.0502958" lon="11.4499377"><ele>1017.1999999999999</ele><time>2026-05-01T08:42:22.131Z</time></trkpt><trkpt lat="44.0502887" lon="11.4500668"><ele>1018.3999999999999</ele><time>2026-05-01T08:42:23.131Z</time></trkpt><trkpt lat="44.05028" lon="11.450204"><ele>1019.6</ele><time>2026-05-01T08:42:24.131Z</time></trkpt><trkpt lat="44.0503113" lon="11.4503675"><ele>1020.8</ele><time>2026-05-01T08:42:25.13Z</time></trkpt><trkpt lat="44.0503413" lon="11.450533"><ele>1022.0</ele><time>2026-05-01T08:42:26.131Z</time></trkpt><trkpt lat="44.0503775" lon="11.4506993"><ele>1023.0</ele><time>2026-05-01T08:42:27.131Z</time></trkpt><trkpt lat="44.0504155" lon="11.4508678"><ele>1024.0</ele><time>2026-05-01T08:42:28.131Z</time></trkpt><trkpt lat="44.0504432" lon="11.4510308"><ele>1025.0</ele><time>2026-05-01T08:42:29.132Z</time></trkpt><trkpt lat="44.0504625" lon="11.4511843"><ele>1026.0</ele><time>2026-05-01T08:42:30.131Z</time></trkpt><trkpt lat="44.0504615" lon="11.451315"><ele>1023.4</ele><time>2026-05-01T08:42:31.132Z</time></trkpt><trkpt lat="44.0504597" lon="11.4514392"><ele>1020.8</ele><time>2026-05-01T08:42:32.133Z</time></trkpt><trkpt lat="44.050473" lon="11.4515607"><ele>1018.1999999999999</ele><time>2026-05-01T08:42:33.132Z</time></trkpt><trkpt lat="44.0504955" lon="11.4516977"><ele>1015.5999999999999</ele><time>2026-05-01T08:42:34.132Z</time></trkpt><trkpt lat="44.050525" lon="11.451843"><ele>1013.0</ele><time>2026-05-01T08:42:35.132Z</time></trkpt><trkpt lat="44.0505507" lon="11.4519907"><ele>1010.8</ele><time>2026-05-01T08:42:36.132Z</time></trkpt><trkpt lat="44.0505615" lon="11.4521393"><ele>1008.5999999999999</ele><time>2026-05-01T08:42:37.131Z</time></trkpt><trkpt lat="44.0505513" lon="11.4522892"><ele>1006.4000000000001</ele><time>2026-05-01T08:42:38.131Z</time></trkpt><trkpt lat="44.0505238" lon="11.452423"><ele>1004.2</ele><time>2026-05-01T08:42:39.13Z</time></trkpt><trkpt lat="44.0505222" lon="11.4525523"><ele>1002.0</ele><time>2026-05-01T08:42:40.129Z</time></trkpt><trkpt lat="44.0505512" lon="11.4526783"><ele>1002.0</ele><time>2026-05-01T08:42:41.131Z</time></trkpt><trkpt lat="44.0505913" lon="11.4527975"><ele>1002.0</ele><time>2026-05-01T08:42:42.13Z</time></trkpt><trkpt lat="44.0506388" lon="11.4528978"><ele>1002.0</ele><time>2026-05-01T08:42:43.133Z</time></trkpt><trkpt lat="44.0506718" lon="11.4529947"><ele>1002.0</ele><time>2026-05-01T08:42:44.132Z</time></trkpt><trkpt lat="44.050682" lon="11.4530958"><ele>1002.0</ele><time>2026-05-01T08:42:45.131Z</time></trkpt><trkpt lat="44.0506753" lon="11.453197"><ele>1002.0</ele><time>2026-05-01T08:42:46.13Z</time></trkpt><trkpt lat="44.0506572" lon="11.4533012"><ele>1001.4000000000001</ele><time>2026-05-01T08:42:47.131Z</time></trkpt><trkpt lat="44.0506315" lon="11.4533967"><ele>1000.8000000000001</ele><time>2026-05-01T08:42:48.131Z</time></trkpt><trkpt lat="44.0506097" lon="11.4534913"><ele>1000.2</ele><time>2026-05-01T08:42:49.13Z</time></trkpt><trkpt lat="44.0505797" lon="11.4536603"><ele>999.6</ele><time>2026-05-01T08:42:51.129Z</time></trkpt><trkpt lat="44.0505685" lon="11.4538122"><ele>999.0</ele><time>2026-05-01T08:42:53.13Z</time></trkpt><trkpt lat="44.05055" lon="11.4539558"><ele>1001.0</ele><time>2026-05-01T08:42:55.129Z</time></trkpt><trkpt lat="44.0505538" lon="11.4541222"><ele>1003.0000000000001</ele><time>2026-05-01T08:42:57.13Z</time></trkpt><trkpt lat="44.0505362" lon="11.4542688"><ele>1005.0000000000001</ele><time>2026-05-01T08:42:59.129Z</time></trkpt><trkpt lat="44.0505187" lon="11.4544053"><ele>1007.0</ele><time>2026-05-01T08:43:01.13Z</time></trkpt><trkpt lat="44.0505002" lon="11.4545388"><ele>1009.0</ele><time>2026-05-01T08:43:03.13Z</time></trkpt><trkpt lat="44.0504872" lon="11.454685"><ele>1011.8333333333333</ele><time>2026-05-01T08:43:05.129Z</time></trkpt><trkpt lat="44.0504748" lon="11.4548265"><ele>1014.6666666666666</ele><time>2026-05-01T08:43:07.129Z</time></trkpt><trkpt lat="44.0504678" lon="11.4549867"><ele>1017.5</ele><time>2026-05-01T08:43:09.131Z</time></trkpt><trkpt lat="44.0504728" lon="11.4550797"><ele>1020.3333333333333</ele><time>2026-05-01T08:43:10.132Z</time></trkpt><trkpt lat="44.0505017" lon="11.4551825"><ele>1023.1666666666666</ele><time>2026-05-01T08:43:11.132Z</time></trkpt><trkpt lat="44.0505305" lon="11.4552818"><ele>1026.0</ele><time>2026-05-01T08:43:12.133Z</time></trkpt><trkpt lat="44.050559" lon="11.4553828"><ele>1027.8333333333333</ele><time>2026-05-01T08:43:13.133Z</time></trkpt><trkpt lat="44.0505832" lon="11.4554868"><ele>1029.6666666666667</ele><time>2026-05-01T08:43:14.132Z</time></trkpt><trkpt lat="44.050603" lon="11.4555943"><ele>1031.5</ele><time>2026-05-01T08:43:15.132Z</time></trkpt><trkpt lat="44.0506207" lon="11.455703"><ele>1033.3333333333335</ele><time>2026-05-01T08:43:16.132Z</time></trkpt><trkpt lat="44.0506268" lon="11.455815"><ele>1035.1666666666667</ele><time>2026-05-01T08:43:17.134Z</time></trkpt><trkpt lat="44.0506245" lon="11.4559288"><ele>1037.0</ele><time>2026-05-01T08:43:18.132Z</time></trkpt><trkpt lat="44.05061" lon="11.456043"><ele>1037.0</ele><time>2026-05-01T08:43:19.134Z</time></trkpt><trkpt lat="44.0505857" lon="11.456159"><ele>1037.0</ele><time>2026-05-01T08:43:20.132Z</time></trkpt><trkpt lat="44.0505555" lon="11.4562712"><ele>1037.0</ele><time>2026-05-01T08:43:21.13Z</time></trkpt><trkpt lat="44.0505218" lon="11.4563847"><ele>1037.0</ele><time>2026-05-01T08:43:22.13Z</time></trkpt><trkpt lat="44.0504865" lon="11.4564927"><ele>1037.0</ele><time>2026-05-01T08:43:23.132Z</time></trkpt><trkpt lat="44.0504465" lon="11.4566008"><ele>1037.0</ele><time>2026-05-01T08:43:24.133Z</time></trkpt><trkpt lat="44.0503972" lon="11.4567135"><ele>1038.6</ele><time>2026-05-01T08:43:25.131Z</time></trkpt><trkpt lat="44.0503402" lon="11.456825"><ele>1040.2</ele><time>2026-05-01T08:43:26.133Z</time></trkpt><trkpt lat="44.0502823" lon="11.4569372"><ele>1041.8</ele><time>2026-05-01T08:43:27.132Z</time></trkpt><trkpt lat="44.0502278" lon="11.4570593"><ele>1043.4</ele><time>2026-05-01T08:43:28.131Z</time></trkpt><trkpt lat="44.0501777" lon="11.4571938"><ele>1045.0</ele><time>2026-05-01T08:43:29.132Z</time></trkpt><trkpt lat="44.0501268" lon="11.457334"><ele>1046.4</ele><time>2026-05-01T08:43:30.13Z</time></trkpt><trkpt lat="44.0500745" lon="11.4574733"><ele>1047.8</ele><time>2026-05-01T08:43:31.13Z</time></trkpt><trkpt lat="44.0500202" lon="11.4576037"><ele>1049.2</ele><time>2026-05-01T08:43:32.131Z</time></trkpt><trkpt lat="44.0499653" lon="11.4577232"><ele>1050.6</ele><time>2026-05-01T08:43:33.133Z</time></trkpt><trkpt lat="44.0499102" lon="11.457838"><ele>1052.0</ele><time>2026-05-01T08:43:34.131Z</time></trkpt><trkpt lat="44.0498492" lon="11.4579422"><ele>1050.0</ele><time>2026-05-01T08:43:35.131Z</time></trkpt><trkpt lat="44.0497935" lon="11.458039"><ele>1048.0</ele><time>2026-05-01T08:43:36.131Z</time></trkpt><trkpt lat="44.0497345" lon="11.4581305"><ele>1046.0</ele><time>2026-05-01T08:43:37.13Z</time></trkpt><trkpt lat="44.0496735" lon="11.4582238"><ele>1044.0</ele><time>2026-05-01T08:43:38.13Z</time></trkpt><trkpt lat="44.0496183" lon="11.458317"><ele>1042.0</ele><time>2026-05-01T08:43:39.13Z</time></trkpt><trkpt lat="44.0495755" lon="11.4584178"><ele>1040.0</ele><time>2026-05-01T08:43:40.131Z</time></trkpt><trkpt lat="44.0495332" lon="11.4585307"><ele>1040.0</ele><time>2026-05-01T08:43:41.131Z</time></trkpt><trkpt lat="44.0494748" lon="11.4586465"><ele>1040.0</ele><time>2026-05-01T08:43:42.13Z</time></trkpt><trkpt lat="44.0494175" lon="11.4587465"><ele>1040.0</ele><time>2026-05-01T08:43:43.131Z</time></trkpt><trkpt lat="44.0493675" lon="11.458836"><ele>1040.0</ele><time>2026-05-01T08:43:44.131Z</time></trkpt><trkpt lat="44.0493278" lon="11.458933"><ele>1040.0</ele><time>2026-05-01T08:43:45.131Z</time></trkpt><trkpt lat="44.0492992" lon="11.4590368"><ele>1040.0</ele><time>2026-05-01T08:43:46.131Z</time></trkpt><trkpt lat="44.0492707" lon="11.4591435"><ele>1038.3333333333335</ele><time>2026-05-01T08:43:47.13Z</time></trkpt><trkpt lat="44.0492442" lon="11.4592647"><ele>1036.6666666666667</ele><time>2026-05-01T08:43:48.13Z</time></trkpt><trkpt lat="44.0492262" lon="11.4593835"><ele>1035.0</ele><time>2026-05-01T08:43:49.13Z</time></trkpt><trkpt lat="44.0492117" lon="11.459488"><ele>1033.3333333333333</ele><time>2026-05-01T08:43:50.13Z</time></trkpt><trkpt lat="44.0491863" lon="11.4595975"><ele>1031.6666666666665</ele><time>2026-05-01T08:43:51.13Z</time></trkpt><trkpt lat="44.0491627" lon="11.4597177"><ele>1030.0</ele><time>2026-05-01T08:43:52.13Z</time></trkpt><trkpt lat="44.0491252" lon="11.4598325"><ele>1030.0</ele><time>2026-05-01T08:43:53.128Z</time></trkpt><trkpt lat="44.0490733" lon="11.4599285"><ele>1030.0</ele><time>2026-05-01T08:43:54.128Z</time></trkpt><trkpt lat="44.0490075" lon="11.4600228"><ele>1030.0</ele><time>2026-05-01T08:43:55.127Z</time></trkpt><trkpt lat="44.0489305" lon="11.4601233"><ele>1030.0</ele><time>2026-05-01T08:43:56.128Z</time></trkpt><trkpt lat="44.048858" lon="11.4602083"><ele>1030.0</ele><time>2026-05-01T08:43:57.129Z</time></trkpt><trkpt lat="44.0487893" lon="11.4602945"><ele>1030.0</ele><time>2026-05-01T08:43:58.129Z</time></trkpt><trkpt lat="44.0487408" lon="11.4603875"><ele>1030.0</ele><time>2026-05-01T08:43:59.128Z</time></trkpt><trkpt lat="44.0486692" lon="11.4604787"><ele>1030.0</ele><time>2026-05-01T08:44:00.128Z</time></trkpt><trkpt lat="44.0485883" lon="11.4605917"><ele>1030.0</ele><time>2026-05-01T08:44:01.13Z</time></trkpt><trkpt lat="44.0485195" lon="11.4607035"><ele>1030.0</ele><time>2026-05-01T08:44:02.131Z</time></trkpt><trkpt lat="44.0484505" lon="11.4608062"><ele>1031.5</ele><time>2026-05-01T08:44:03.13Z</time></trkpt><trkpt lat="44.0483833" lon="11.4609242"><ele>1033.0</ele><time>2026-05-01T08:44:04.129Z</time></trkpt><trkpt lat="44.0483215" lon="11.4610553"><ele>1034.5</ele><time>2026-05-01T08:44:05.13Z</time></trkpt><trkpt lat="44.0482487" lon="11.4612143"><ele>1036.0</ele><time>2026-05-01T08:44:06.131Z</time></trkpt><trkpt lat="44.0481828" lon="11.4613762"><ele>1036.0</ele><time>2026-05-01T08:44:07.131Z</time></trkpt><trkpt lat="44.048117" lon="11.4615447"><ele>1036.0</ele><time>2026-05-01T08:44:08.131Z</time></trkpt><trkpt lat="44.0480545" lon="11.4616985"><ele>1036.0</ele><time>2026-05-01T08:44:09.131Z</time></trkpt><trkpt lat="44.0479923" lon="11.4618517"><ele>1036.0</ele><time>2026-05-01T08:44:10.13Z</time></trkpt><trkpt lat="44.0479412" lon="11.4619947"><ele>1039.0</ele><time>2026-05-01T08:44:11.132Z</time></trkpt><trkpt lat="44.0478907" lon="11.4621372"><ele>1042.0</ele><time>2026-05-01T08:44:12.13Z</time></trkpt><trkpt lat="44.0478335" lon="11.4622672"><ele>1045.0</ele><time>2026-05-01T08:44:13.13Z</time></trkpt><trkpt lat="44.047765" lon="11.4623917"><ele>1048.0</ele><time>2026-05-01T08:44:14.134Z</time></trkpt><trkpt lat="44.0476847" lon="11.462503"><ele>1048.0</ele><time>2026-05-01T08:44:15.13Z</time></trkpt><trkpt lat="44.0476053" lon="11.4626075"><ele>1048.0</ele><time>2026-05-01T08:44:16.13Z</time></trkpt><trkpt lat="44.0475233" lon="11.462702"><ele>1048.0</ele><time>2026-05-01T08:44:17.13Z</time></trkpt><trkpt lat="44.04745" lon="11.4627908"><ele>1048.0</ele><time>2026-05-01T08:44:18.127Z</time></trkpt><trkpt lat="44.0473982" lon="11.4628885"><ele>1048.0</ele><time>2026-05-01T08:44:19.128Z</time></trkpt><trkpt lat="44.0473573" lon="11.4629925"><ele>1043.2</ele><time>2026-05-01T08:44:20.129Z</time></trkpt><trkpt lat="44.0473278" lon="11.463111"><ele>1038.4</ele><time>2026-05-01T08:44:21.129Z</time></trkpt><trkpt lat="44.0473018" lon="11.4632443"><ele>1033.6000000000001</ele><time>2026-05-01T08:44:22.13Z</time></trkpt><trkpt lat="44.0472895" lon="11.4633897"><ele>1028.8</ele><time>2026-05-01T08:44:23.131Z</time></trkpt><trkpt lat="44.0472878" lon="11.4635235"><ele>1024.0</ele><time>2026-05-01T08:44:24.129Z</time></trkpt><trkpt lat="44.0472925" lon="11.463661"><ele>1024.2</ele><time>2026-05-01T08:44:25.13Z</time></trkpt><trkpt lat="44.0472867" lon="11.4637895"><ele>1024.4</ele><time>2026-05-01T08:44:26.13Z</time></trkpt><trkpt lat="44.0472715" lon="11.46391"><ele>1024.6</ele><time>2026-05-01T08:44:27.131Z</time></trkpt><trkpt lat="44.0472557" lon="11.4640447"><ele>1024.8</ele><time>2026-05-01T08:44:28.13Z</time></trkpt><trkpt lat="44.0472273" lon="11.464171"><ele>1025.0</ele><time>2026-05-01T08:44:29.13Z</time></trkpt><trkpt lat="44.0471797" lon="11.464304"><ele>1025.0</ele><time>2026-05-01T08:44:30.13Z</time></trkpt><trkpt lat="44.0471217" lon="11.464448"><ele>1025.0</ele><time>2026-05-01T08:44:31.129Z</time></trkpt><trkpt lat="44.0470598" lon="11.4645972"><ele>1025.0</ele><time>2026-05-01T08:44:32.131Z</time></trkpt><trkpt lat="44.046997" lon="11.4647435"><ele>1025.0</ele><time>2026-05-01T08:44:33.13Z</time></trkpt><trkpt lat="44.0469427" lon="11.4648862"><ele>1026.4</ele><time>2026-05-01T08:44:34.129Z</time></trkpt><trkpt lat="44.0468918" lon="11.4650207"><ele>1027.8</ele><time>2026-05-01T08:44:35.131Z</time></trkpt><trkpt lat="44.0468457" lon="11.4651412"><ele>1029.2</ele><time>2026-05-01T08:44:36.129Z</time></trkpt><trkpt lat="44.046808" lon="11.4652688"><ele>1030.6</ele><time>2026-05-01T08:44:37.131Z</time></trkpt><trkpt lat="44.0468022" lon="11.4654065"><ele>1032.0</ele><time>2026-05-01T08:44:38.132Z</time></trkpt><trkpt lat="44.0467757" lon="11.465526"><ele>1032.3333333333333</ele><time>2026-05-01T08:44:39.131Z</time></trkpt><trkpt lat="44.0467448" lon="11.46563"><ele>1032.6666666666667</ele><time>2026-05-01T08:44:40.132Z</time></trkpt><trkpt lat="44.0467152" lon="11.4657127"><ele>1033.0</ele><time>2026-05-01T08:44:41.132Z</time></trkpt><trkpt lat="44.0466727" lon="11.4658632"><ele>1033.3333333333335</ele><time>2026-05-01T08:44:43.13Z</time></trkpt><trkpt lat="44.046676" lon="11.4659853"><ele>1033.6666666666667</ele><time>2026-05-01T08:44:45.13Z</time></trkpt><trkpt lat="44.0467283" lon="11.4660865"><ele>1034.0</ele><time>2026-05-01T08:44:47.133Z</time></trkpt><trkpt lat="44.0467808" lon="11.4661473"><ele>1034.0</ele><time>2026-05-01T08:44:48.131Z</time></trkpt><trkpt lat="44.04683" lon="11.4662323"><ele>1034.0</ele><time>2026-05-01T08:44:49.133Z</time></trkpt><trkpt lat="44.046884" lon="11.4663473"><ele>1034.0</ele><time>2026-05-01T08:44:50.133Z</time></trkpt><trkpt lat="44.0469315" lon="11.4664632"><ele>1034.0</ele><time>2026-05-01T08:44:51.131Z</time></trkpt><trkpt lat="44.0469805" lon="11.4665538"><ele>1034.0</ele><time>2026-05-01T08:44:52.132Z</time></trkpt><trkpt lat="44.0470327" lon="11.4666217"><ele>1034.0</ele><time>2026-05-01T08:44:53.133Z</time></trkpt><trkpt lat="44.0470887" lon="11.4666945"><ele>1035.2857142857142</ele><time>2026-05-01T08:44:54.131Z</time></trkpt><trkpt lat="44.0471437" lon="11.466768"><ele>1036.5714285714287</ele><time>2026-05-01T08:44:55.131Z</time></trkpt><trkpt lat="44.0471863" lon="11.4668503"><ele>1037.857142857143</ele><time>2026-05-01T08:44:56.132Z</time></trkpt><trkpt lat="44.047212" lon="11.4669395"><ele>1039.142857142857</ele><time>2026-05-01T08:44:57.131Z</time></trkpt><trkpt lat="44.0472223" lon="11.4670508"><ele>1040.4285714285716</ele><time>2026-05-01T08:44:58.131Z</time></trkpt><trkpt lat="44.0472432" lon="11.4671343"><ele>1041.7142857142858</ele><time>2026-05-01T08:44:59.13Z</time></trkpt><trkpt lat="44.0472732" lon="11.4672343"><ele>1043.0</ele><time>2026-05-01T08:45:00.13Z</time></trkpt><trkpt lat="44.047306" lon="11.4673282"><ele>1043.8333333333335</ele><time>2026-05-01T08:45:01.13Z</time></trkpt><trkpt lat="44.047366" lon="11.4674212"><ele>1044.6666666666667</ele><time>2026-05-01T08:45:02.13Z</time></trkpt><trkpt lat="44.0474228" lon="11.4674915"><ele>1045.5</ele><time>2026-05-01T08:45:03.13Z</time></trkpt><trkpt lat="44.0474885" lon="11.4676338"><ele>1046.3333333333333</ele><time>2026-05-01T08:45:05.131Z</time></trkpt><trkpt lat="44.0475142" lon="11.4677335"><ele>1047.1666666666665</ele><time>2026-05-01T08:45:06.129Z</time></trkpt><trkpt lat="44.0475372" lon="11.4678318"><ele>1048.0</ele><time>2026-05-01T08:45:07.129Z</time></trkpt><trkpt lat="44.0475842" lon="11.4679268"><ele>1041.0</ele><time>2026-05-01T08:45:08.129Z</time></trkpt><trkpt lat="44.0476183" lon="11.4680042"><ele>1034.0</ele><time>2026-05-01T08:45:09.128Z</time></trkpt><trkpt lat="44.047688" lon="11.4680732"><ele>1027.0</ele><time>2026-05-01T08:45:11.132Z</time></trkpt><trkpt lat="44.0477635" lon="11.4680627"><ele>1020.0</ele><time>2026-05-01T08:45:13.131Z</time></trkpt><trkpt lat="44.0478858" lon="11.4680482"><ele>1013.0</ele><time>2026-05-01T08:45:15.132Z</time></trkpt><trkpt lat="44.0480075" lon="11.4680738"><ele>1013.0</ele><time>2026-05-01T08:45:17.131Z</time></trkpt><trkpt lat="44.0481107" lon="11.4680912"><ele>1013.0</ele><time>2026-05-01T08:45:19.132Z</time></trkpt><trkpt lat="44.0481757" lon="11.4680208"><ele>1013.0</ele><time>2026-05-01T08:45:21.132Z</time></trkpt><trkpt lat="44.0482225" lon="11.4678727"><ele>1013.0</ele><time>2026-05-01T08:45:23.132Z</time></trkpt><trkpt lat="44.0482737" lon="11.4677292"><ele>1013.0</ele><time>2026-05-01T08:45:25.131Z</time></trkpt><trkpt lat="44.0483235" lon="11.4676457"><ele>1011.5000000000001</ele><time>2026-05-01T08:45:27.131Z</time></trkpt><trkpt lat="44.0483915" lon="11.4676488"><ele>1010.0</ele><time>2026-05-01T08:45:29.131Z</time></trkpt><trkpt lat="44.0484707" lon="11.4675987"><ele>1008.5</ele><time>2026-05-01T08:45:31.13Z</time></trkpt><trkpt lat="44.0485277" lon="11.4675483"><ele>1007.0</ele><time>2026-05-01T08:45:33.129Z</time></trkpt><trkpt lat="44.048565" lon="11.4677012"><ele>1005.5000000000001</ele><time>2026-05-01T08:45:36.131Z</time></trkpt><trkpt lat="44.048597" lon="11.4677767"><ele>1004.0</ele><time>2026-05-01T08:45:37.131Z</time></trkpt><trkpt lat="44.0486502" lon="11.4678945"><ele>1002.8333333333334</ele><time>2026-05-01T08:45:39.131Z</time></trkpt><trkpt lat="44.0487283" lon="11.4679607"><ele>1001.6666666666667</ele><time>2026-05-01T08:45:41.131Z</time></trkpt><trkpt lat="44.0487925" lon="11.4680365"><ele>1000.5</ele><time>2026-05-01T08:45:43.13Z</time></trkpt><trkpt lat="44.048848" lon="11.4681185"><ele>999.3333333333333</ele><time>2026-05-01T08:45:45.131Z</time></trkpt><trkpt lat="44.0488908" lon="11.4681883"><ele>998.1666666666666</ele><time>2026-05-01T08:45:47.13Z</time></trkpt><trkpt lat="44.0489503" lon="11.4682472"><ele>997.0</ele><time>2026-05-01T08:45:49.131Z</time></trkpt><trkpt lat="44.0490152" lon="11.4683025"><ele>996.9999999999999</ele><time>2026-05-01T08:45:52.131Z</time></trkpt><trkpt lat="44.0490748" lon="11.4683615"><ele>997.0</ele><time>2026-05-01T08:45:55.128Z</time></trkpt><trkpt lat="44.049129" lon="11.468418"><ele>996.9999999999999</ele><time>2026-05-01T08:45:58.129Z</time></trkpt><trkpt lat="44.0491693" lon="11.468496"><ele>996.9999999999999</ele><time>2026-05-01T08:46:00.13Z</time></trkpt><trkpt lat="44.0492042" lon="11.4685788"><ele>997.0</ele><time>2026-05-01T08:46:02.131Z</time></trkpt><trkpt lat="44.0492583" lon="11.4686308"><ele>996.9999999999999</ele><time>2026-05-01T08:46:04.132Z</time></trkpt><trkpt lat="44.0493453" lon="11.468657"><ele>996.9999999999999</ele><time>2026-05-01T08:46:06.129Z</time></trkpt><trkpt lat="44.0494222" lon="11.4687115"><ele>993.9999999999999</ele><time>2026-05-01T08:46:08.13Z</time></trkpt><trkpt lat="44.0495067" lon="11.4687913"><ele>991.0</ele><time>2026-05-01T08:46:10.129Z</time></trkpt><trkpt lat="44.0495618" lon="11.4688588"><ele>988.0</ele><time>2026-05-01T08:46:12.13Z</time></trkpt><trkpt lat="44.0496578" lon="11.468904"><ele>985.0</ele><time>2026-05-01T08:46:14.129Z</time></trkpt><trkpt lat="44.0497132" lon="11.4689733"><ele>981.9999999999999</ele><time>2026-05-01T08:46:16.129Z</time></trkpt><trkpt lat="44.0497725" lon="11.4690535"><ele>979.0</ele><time>2026-05-01T08:46:18.129Z</time></trkpt><trkpt lat="44.0498303" lon="11.4691307"><ele>978.9999999999999</ele><time>2026-05-01T08:46:20.128Z</time></trkpt><trkpt lat="44.049878" lon="11.4691992"><ele>979.0</ele><time>2026-05-01T08:46:23.128Z</time></trkpt><trkpt lat="44.0499485" lon="11.4692527"><ele>979.0</ele><time>2026-05-01T08:46:28.128Z</time></trkpt><trkpt lat="44.0500045" lon="11.4693522"><ele>979.0</ele><time>2026-05-01T08:46:32.128Z</time></trkpt><trkpt lat="44.0500527" lon="11.4694433"><ele>978.9999999999999</ele><time>2026-05-01T08:46:35.129Z</time></trkpt><trkpt lat="44.0501192" lon="11.4694488"><ele>979.0</ele><time>2026-05-01T08:46:38.13Z</time></trkpt><trkpt lat="44.0501807" lon="11.4694788"><ele>978.9999999999999</ele><time>2026-05-01T08:46:41.13Z</time></trkpt><trkpt lat="44.0502257" lon="11.4695562"><ele>979.0</ele><time>2026-05-01T08:46:47.129Z</time></trkpt><trkpt lat="44.050265" lon="11.469625"><ele>979.0</ele><time>2026-05-01T08:46:51.13Z</time></trkpt><trkpt lat="44.0503145" lon="11.4697307"><ele>979.0</ele><time>2026-05-01T08:46:55.13Z</time></trkpt><trkpt lat="44.050367" lon="11.4698117"><ele>978.9999999999999</ele><time>2026-05-01T08:46:58.13Z</time></trkpt><trkpt lat="44.0504035" lon="11.4699275"><ele>979.0</ele><time>2026-05-01T08:47:01.13Z</time></trkpt><trkpt lat="44.050459" lon="11.470033"><ele>978.9999999999999</ele><time>2026-05-01T08:47:04.129Z</time></trkpt><trkpt lat="44.0504855" lon="11.4701135"><ele>979.0</ele><time>2026-05-01T08:47:06.13Z</time></trkpt><trkpt lat="44.050516" lon="11.4702127"><ele>979.0</ele><time>2026-05-01T08:47:09.128Z</time></trkpt><trkpt lat="44.0505592" lon="11.4702987"><ele>979.0</ele><time>2026-05-01T08:47:11.128Z</time></trkpt><trkpt lat="44.0506037" lon="11.4704033"><ele>978.9999999999999</ele><time>2026-05-01T08:47:14.13Z</time></trkpt><trkpt lat="44.0505958" lon="11.4705285"><ele>979.0</ele><time>2026-05-01T08:47:17.131Z</time></trkpt><trkpt lat="44.050638" lon="11.4706565"><ele>979.4000000000001</ele><time>2026-05-01T08:47:20.13Z</time></trkpt><trkpt lat="44.0507008" lon="11.4707148"><ele>979.8000000000001</ele><time>2026-05-01T08:47:22.129Z</time></trkpt><trkpt lat="44.0508033" lon="11.4708087"><ele>980.1999999999999</ele><time>2026-05-01T08:47:24.131Z</time></trkpt><trkpt lat="44.050908" lon="11.4708955"><ele>980.5999999999999</ele><time>2026-05-01T08:47:26.129Z</time></trkpt><trkpt lat="44.0509885" lon="11.4709593"><ele>981.0</ele><time>2026-05-01T08:47:28.13Z</time></trkpt><trkpt lat="44.0510653" lon="11.471032"><ele>978.1666666666666</ele><time>2026-05-01T08:47:30.131Z</time></trkpt><trkpt lat="44.0511322" lon="11.471097"><ele>975.3333333333333</ele><time>2026-05-01T08:47:32.131Z</time></trkpt><trkpt lat="44.05121" lon="11.4711672"><ele>972.5</ele><time>2026-05-01T08:47:34.128Z</time></trkpt><trkpt lat="44.0512718" lon="11.4712337"><ele>969.6666666666666</ele><time>2026-05-01T08:47:36.128Z</time></trkpt><trkpt lat="44.051345" lon="11.4713228"><ele>966.8333333333333</ele><time>2026-05-01T08:47:38.131Z</time></trkpt><trkpt lat="44.0514298" lon="11.4713705"><ele>964.0</ele><time>2026-05-01T08:47:40.129Z</time></trkpt><trkpt lat="44.0515" lon="11.4713975"><ele>964.0</ele><time>2026-05-01T08:47:42.128Z</time></trkpt><trkpt lat="44.0515685" lon="11.4714115"><ele>964.0000000000001</ele><time>2026-05-01T08:47:43.129Z</time></trkpt><trkpt lat="44.0516938" lon="11.4714285"><ele>964.0000000000001</ele><time>2026-05-01T08:47:45.128Z</time></trkpt><trkpt lat="44.0517602" lon="11.4714413"><ele>964.0</ele><time>2026-05-01T08:47:46.129Z</time></trkpt><trkpt lat="44.051862" lon="11.4714832"><ele>964.0</ele><time>2026-05-01T08:47:48.13Z</time></trkpt><trkpt lat="44.0519573" lon="11.4715433"><ele>961.4000000000001</ele><time>2026-05-01T08:47:50.129Z</time></trkpt><trkpt lat="44.0520433" lon="11.4716487"><ele>958.8000000000001</ele><time>2026-05-01T08:47:52.129Z</time></trkpt><trkpt lat="44.0521043" lon="11.471735"><ele>956.1999999999999</ele><time>2026-05-01T08:47:54.129Z</time></trkpt><trkpt lat="44.0521843" lon="11.4717102"><ele>953.5999999999999</ele><time>2026-05-01T08:47:56.129Z</time></trkpt><trkpt lat="44.0522548" lon="11.4716112"><ele>951.0</ele><time>2026-05-01T08:47:58.128Z</time></trkpt><trkpt lat="44.0523457" lon="11.47154"><ele>951.0</ele><time>2026-05-01T08:48:00.128Z</time></trkpt><trkpt lat="44.0524538" lon="11.471505"><ele>950.9999999999999</ele><time>2026-05-01T08:48:02.129Z</time></trkpt><trkpt lat="44.0525647" lon="11.4714495"><ele>950.9999999999999</ele><time>2026-05-01T08:48:04.129Z</time></trkpt><trkpt lat="44.0526348" lon="11.4714315"><ele>951.0</ele><time>2026-05-01T08:48:05.128Z</time></trkpt><trkpt lat="44.0527093" lon="11.47141"><ele>951.0</ele><time>2026-05-01T08:48:06.129Z</time></trkpt><trkpt lat="44.0527903" lon="11.471389"><ele>951.0</ele><time>2026-05-01T08:48:07.129Z</time></trkpt><trkpt lat="44.0528723" lon="11.4713608"><ele>951.0</ele><time>2026-05-01T08:48:08.129Z</time></trkpt><trkpt lat="44.0529417" lon="11.471322"><ele>951.0</ele><time>2026-05-01T08:48:09.13Z</time></trkpt><trkpt lat="44.0530155" lon="11.4712922"><ele>951.0</ele><time>2026-05-01T08:48:10.129Z</time></trkpt><trkpt lat="44.053107" lon="11.471264"><ele>951.0</ele><time>2026-05-01T08:48:11.129Z</time></trkpt><trkpt lat="44.0531878" lon="11.471249"><ele>951.0</ele><time>2026-05-01T08:48:12.128Z</time></trkpt><trkpt lat="44.0533268" lon="11.4712272"><ele>951.0</ele><time>2026-05-01T08:48:14.129Z</time></trkpt><trkpt lat="44.0534003" lon="11.4712315"><ele>951.0</ele><time>2026-05-01T08:48:15.129Z</time></trkpt><trkpt lat="44.0534685" lon="11.471233"><ele>951.0</ele><time>2026-05-01T08:48:16.129Z</time></trkpt><trkpt lat="44.0535517" lon="11.4712552"><ele>951.0</ele><time>2026-05-01T08:48:18.128Z</time></trkpt><trkpt lat="44.0536165" lon="11.4712532"><ele>951.0</ele><time>2026-05-01T08:48:20.128Z</time></trkpt><trkpt lat="44.0536872" lon="11.4712905"><ele>951.0</ele><time>2026-05-01T08:48:23.126Z</time></trkpt><trkpt lat="44.0537675" lon="11.4712872"><ele>951.0</ele><time>2026-05-01T08:48:25.126Z</time></trkpt><trkpt lat="44.0538418" lon="11.4712517"><ele>951.0</ele><time>2026-05-01T08:48:27.128Z</time></trkpt><trkpt lat="44.0539175" lon="11.4712402"><ele>951.0</ele><time>2026-05-01T08:48:30.128Z</time></trkpt><trkpt lat="44.053989" lon="11.4712228"><ele>951.0</ele><time>2026-05-01T08:48:32.128Z</time></trkpt><trkpt lat="44.0540543" lon="11.471208"><ele>951.0</ele><time>2026-05-01T08:48:34.128Z</time></trkpt><trkpt lat="44.0541535" lon="11.4711802"><ele>951.0</ele><time>2026-05-01T08:48:36.129Z</time></trkpt><trkpt lat="44.0542527" lon="11.4711485"><ele>951.0</ele><time>2026-05-01T08:48:38.13Z</time></trkpt><trkpt lat="44.054343" lon="11.4711207"><ele>949.4</ele><time>2026-05-01T08:48:40.129Z</time></trkpt><trkpt lat="44.0544562" lon="11.4710792"><ele>947.8</ele><time>2026-05-01T08:48:42.129Z</time></trkpt><trkpt lat="44.0545393" lon="11.4710375"><ele>946.1999999999999</ele><time>2026-05-01T08:48:44.129Z</time></trkpt><trkpt lat="44.0546378" lon="11.4709827"><ele>944.5999999999999</ele><time>2026-05-01T08:48:46.128Z</time></trkpt><trkpt lat="44.0547077" lon="11.4709582"><ele>943.0</ele><time>2026-05-01T08:48:47.127Z</time></trkpt><trkpt lat="44.0548202" lon="11.4709045"><ele>942.9999999999999</ele><time>2026-05-01T08:48:49.126Z</time></trkpt><trkpt lat="44.0548902" lon="11.4708667"><ele>943.0</ele><time>2026-05-01T08:48:50.128Z</time></trkpt><trkpt lat="44.0549617" lon="11.470817"><ele>943.0</ele><time>2026-05-01T08:48:51.129Z</time></trkpt><trkpt lat="44.0550345" lon="11.4707817"><ele>943.0</ele><time>2026-05-01T08:48:52.128Z</time></trkpt><trkpt lat="44.0550973" lon="11.470749"><ele>942.9999999999999</ele><time>2026-05-01T08:48:53.129Z</time></trkpt><trkpt lat="44.0551618" lon="11.4707025"><ele>943.0</ele><time>2026-05-01T08:48:54.129Z</time></trkpt><trkpt lat="44.0552403" lon="11.4706482"><ele>942.4999999999999</ele><time>2026-05-01T08:48:55.128Z</time></trkpt><trkpt lat="44.0553203" lon="11.4706037"><ele>942.0</ele><time>2026-05-01T08:48:56.128Z</time></trkpt><trkpt lat="44.0553818" lon="11.4705642"><ele>941.5</ele><time>2026-05-01T08:48:57.128Z</time></trkpt><trkpt lat="44.0554472" lon="11.4705238"><ele>941.0</ele><time>2026-05-01T08:48:58.128Z</time></trkpt><trkpt lat="44.0555055" lon="11.470483"><ele>940.4999999999999</ele><time>2026-05-01T08:48:59.128Z</time></trkpt><trkpt lat="44.0556008" lon="11.4704363"><ele>940.0</ele><time>2026-05-01T08:49:00.128Z</time></trkpt><trkpt lat="44.0557088" lon="11.4703975"><ele>938.1666666666666</ele><time>2026-05-01T08:49:01.129Z</time></trkpt><trkpt lat="44.055804" lon="11.4703725"><ele>936.3333333333333</ele><time>2026-05-01T08:49:02.13Z</time></trkpt><trkpt lat="44.0558702" lon="11.4703602"><ele>934.5</ele><time>2026-05-01T08:49:03.129Z</time></trkpt><trkpt lat="44.0559357" lon="11.4703552"><ele>932.6666666666667</ele><time>2026-05-01T08:49:04.129Z</time></trkpt><trkpt lat="44.0560037" lon="11.470357"><ele>930.8333333333334</ele><time>2026-05-01T08:49:05.13Z</time></trkpt><trkpt lat="44.056127" lon="11.4703745"><ele>929.0</ele><time>2026-05-01T08:49:07.129Z</time></trkpt><trkpt lat="44.0562085" lon="11.4703912"><ele>929.0000000000001</ele><time>2026-05-01T08:49:08.129Z</time></trkpt><trkpt lat="44.056284" lon="11.470401"><ele>929.0</ele><time>2026-05-01T08:49:09.129Z</time></trkpt><trkpt lat="44.0563542" lon="11.4704152"><ele>929.0</ele><time>2026-05-01T08:49:10.13Z</time></trkpt><trkpt lat="44.0564327" lon="11.4704258"><ele>929.0</ele><time>2026-05-01T08:49:11.127Z</time></trkpt><trkpt lat="44.056497" lon="11.4704453"><ele>929.0000000000001</ele><time>2026-05-01T08:49:12.127Z</time></trkpt><trkpt lat="44.056609" lon="11.4704823"><ele>929.0</ele><time>2026-05-01T08:49:14.128Z</time></trkpt><trkpt lat="44.0566733" lon="11.4704787"><ele>927.6666666666667</ele><time>2026-05-01T08:49:15.127Z</time></trkpt><trkpt lat="44.0567463" lon="11.470466"><ele>926.3333333333334</ele><time>2026-05-01T08:49:16.129Z</time></trkpt><trkpt lat="44.0568363" lon="11.47045"><ele>925.0</ele><time>2026-05-01T08:49:17.129Z</time></trkpt><trkpt lat="44.0569208" lon="11.470449"><ele>923.6666666666667</ele><time>2026-05-01T08:49:18.129Z</time></trkpt><trkpt lat="44.0569973" lon="11.470462"><ele>922.3333333333334</ele><time>2026-05-01T08:49:19.129Z</time></trkpt><trkpt lat="44.0570668" lon="11.470485"><ele>921.0</ele><time>2026-05-01T08:49:20.129Z</time></trkpt><trkpt lat="44.0571495" lon="11.4705228"><ele>921.0</ele><time>2026-05-01T08:49:21.129Z</time></trkpt><trkpt lat="44.057221" lon="11.4705507"><ele>921.0</ele><time>2026-05-01T08:49:22.129Z</time></trkpt><trkpt lat="44.05731" lon="11.4705775"><ele>921.0</ele><time>2026-05-01T08:49:23.128Z</time></trkpt><trkpt lat="44.0573815" lon="11.4705988"><ele>921.0</ele><time>2026-05-01T08:49:24.128Z</time></trkpt><trkpt lat="44.0574445" lon="11.470625"><ele>921.0</ele><time>2026-05-01T08:49:25.129Z</time></trkpt><trkpt lat="44.0575062" lon="11.4706767"><ele>921.0</ele><time>2026-05-01T08:49:26.129Z</time></trkpt><trkpt lat="44.057581" lon="11.4707128"><ele>921.1666666666666</ele><time>2026-05-01T08:49:27.128Z</time></trkpt><trkpt lat="44.0576447" lon="11.4707275"><ele>921.3333333333333</ele><time>2026-05-01T08:49:28.129Z</time></trkpt><trkpt lat="44.0577247" lon="11.4707182"><ele>921.5</ele><time>2026-05-01T08:49:29.129Z</time></trkpt><trkpt lat="44.0578173" lon="11.4707083"><ele>921.6666666666666</ele><time>2026-05-01T08:49:30.129Z</time></trkpt><trkpt lat="44.0578915" lon="11.4707185"><ele>921.8333333333333</ele><time>2026-05-01T08:49:31.128Z</time></trkpt><trkpt lat="44.0579665" lon="11.4707463"><ele>922.0</ele><time>2026-05-01T08:49:32.13Z</time></trkpt><trkpt lat="44.0580305" lon="11.4707775"><ele>922.0</ele><time>2026-05-01T08:49:33.128Z</time></trkpt><trkpt lat="44.0580995" lon="11.4708095"><ele>922.0</ele><time>2026-05-01T08:49:34.129Z</time></trkpt><trkpt lat="44.0582273" lon="11.4708368"><ele>922.0</ele><time>2026-05-01T08:49:36.127Z</time></trkpt><trkpt lat="44.0583145" lon="11.4708337"><ele>922.0</ele><time>2026-05-01T08:49:37.128Z</time></trkpt><trkpt lat="44.058396" lon="11.4708427"><ele>922.0</ele><time>2026-05-01T08:49:38.127Z</time></trkpt><trkpt lat="44.0584753" lon="11.4708685"><ele>921.6</ele><time>2026-05-01T08:49:39.127Z</time></trkpt><trkpt lat="44.0585475" lon="11.470915"><ele>921.2</ele><time>2026-05-01T08:49:40.129Z</time></trkpt><trkpt lat="44.0585817" lon="11.4710037"><ele>920.8</ele><time>2026-05-01T08:49:41.13Z</time></trkpt><trkpt lat="44.0586518" lon="11.4711232"><ele>920.4</ele><time>2026-05-01T08:49:42.13Z</time></trkpt><trkpt lat="44.0587175" lon="11.471231"><ele>920.0</ele><time>2026-05-01T08:49:43.13Z</time></trkpt><trkpt lat="44.0587875" lon="11.4713222"><ele>925.1666666666667</ele><time>2026-05-01T08:49:44.13Z</time></trkpt><trkpt lat="44.0588395" lon="11.4714068"><ele>930.3333333333334</ele><time>2026-05-01T08:49:45.13Z</time></trkpt><trkpt lat="44.0588707" lon="11.471499"><ele>935.5</ele><time>2026-05-01T08:49:46.129Z</time></trkpt><trkpt lat="44.0588823" lon="11.4715893"><ele>940.6666666666667</ele><time>2026-05-01T08:49:47.13Z</time></trkpt><trkpt lat="44.0588883" lon="11.4717317"><ele>945.8333333333334</ele><time>2026-05-01T08:49:49.129Z</time></trkpt><trkpt lat="44.0588298" lon="11.4718782"><ele>951.0</ele><time>2026-05-01T08:49:51.13Z</time></trkpt><trkpt lat="44.0587992" lon="11.4719922"><ele>951.0</ele><time>2026-05-01T08:49:53.129Z</time></trkpt><trkpt lat="44.0587712" lon="11.472094"><ele>951.0</ele><time>2026-05-01T08:49:55.13Z</time></trkpt><trkpt lat="44.0587393" lon="11.4721872"><ele>951.0</ele><time>2026-05-01T08:49:57.129Z</time></trkpt><trkpt lat="44.0587052" lon="11.4723032"><ele>951.0</ele><time>2026-05-01T08:50:00.129Z</time></trkpt><trkpt lat="44.0586848" lon="11.4724345"><ele>951.0</ele><time>2026-05-01T08:50:02.131Z</time></trkpt><trkpt lat="44.0586408" lon="11.4725673"><ele>951.0</ele><time>2026-05-01T08:50:04.129Z</time></trkpt><trkpt lat="44.0586322" lon="11.4726548"><ele>954.0</ele><time>2026-05-01T08:50:05.13Z</time></trkpt><trkpt lat="44.0586288" lon="11.4727855"><ele>956.9999999999999</ele><time>2026-05-01T08:50:07.129Z</time></trkpt><trkpt lat="44.058646" lon="11.4728977"><ele>959.9999999999999</ele><time>2026-05-01T08:50:09.129Z</time></trkpt><trkpt lat="44.0586438" lon="11.4730438"><ele>963.0</ele><time>2026-05-01T08:50:11.13Z</time></trkpt><trkpt lat="44.0586187" lon="11.4731942"><ele>966.0</ele><time>2026-05-01T08:50:13.13Z</time></trkpt><trkpt lat="44.0586007" lon="11.4733052"><ele>966.1666666666666</ele><time>2026-05-01T08:50:16.129Z</time></trkpt><trkpt lat="44.0585785" lon="11.4734022"><ele>966.3333333333333</ele><time>2026-05-01T08:50:19.129Z</time></trkpt><trkpt lat="44.0586043" lon="11.4735018"><ele>966.5</ele><time>2026-05-01T08:50:23.13Z</time></trkpt><trkpt lat="44.0586363" lon="11.4736233"><ele>966.6666666666666</ele><time>2026-05-01T08:50:26.129Z</time></trkpt><trkpt lat="44.058654" lon="11.4737312"><ele>966.8333333333333</ele><time>2026-05-01T08:50:28.129Z</time></trkpt><trkpt lat="44.058623" lon="11.473849"><ele>967.0</ele><time>2026-05-01T08:50:30.131Z</time></trkpt><trkpt lat="44.058597" lon="11.4739827"><ele>966.4999999999999</ele><time>2026-05-01T08:50:32.131Z</time></trkpt><trkpt lat="44.0585685" lon="11.4741108"><ele>966.0</ele><time>2026-05-01T08:50:34.129Z</time></trkpt><trkpt lat="44.0585492" lon="11.4742622"><ele>965.5</ele><time>2026-05-01T08:50:36.129Z</time></trkpt><trkpt lat="44.0585338" lon="11.4743928"><ele>965.0</ele><time>2026-05-01T08:50:38.13Z</time></trkpt><trkpt lat="44.0585172" lon="11.4744878"><ele>964.4999999999999</ele><time>2026-05-01T08:50:40.129Z</time></trkpt><trkpt lat="44.0584572" lon="11.4745475"><ele>964.0</ele><time>2026-05-01T08:50:42.13Z</time></trkpt><trkpt lat="44.0583783" lon="11.474624"><ele>962.0</ele><time>2026-05-01T08:50:44.129Z</time></trkpt><trkpt lat="44.058315" lon="11.4747212"><ele>960.0000000000001</ele><time>2026-05-01T08:50:46.129Z</time></trkpt><trkpt lat="44.058264" lon="11.474857"><ele>958.0000000000001</ele><time>2026-05-01T08:50:48.129Z</time></trkpt><trkpt lat="44.0582252" lon="11.474985"><ele>956.0</ele><time>2026-05-01T08:50:50.128Z</time></trkpt><trkpt lat="44.0581663" lon="11.4750605"><ele>954.0</ele><time>2026-05-01T08:50:52.127Z</time></trkpt><trkpt lat="44.058109" lon="11.4751072"><ele>955.6</ele><time>2026-05-01T08:50:56.13Z</time></trkpt><trkpt lat="44.0581043" lon="11.4752593"><ele>957.2</ele><time>2026-05-01T08:50:58.13Z</time></trkpt><trkpt lat="44.0581288" lon="11.4754072"><ele>958.8000000000001</ele><time>2026-05-01T08:51:00.128Z</time></trkpt><trkpt lat="44.058138" lon="11.4755567"><ele>960.4000000000001</ele><time>2026-05-01T08:51:02.129Z</time></trkpt><trkpt lat="44.0581032" lon="11.4757033"><ele>962.0</ele><time>2026-05-01T08:51:04.128Z</time></trkpt><trkpt lat="44.0580342" lon="11.4757987"><ele>962.0000000000001</ele><time>2026-05-01T08:51:06.129Z</time></trkpt><trkpt lat="44.0579418" lon="11.4758603"><ele>962.0</ele><time>2026-05-01T08:51:08.128Z</time></trkpt><trkpt lat="44.0578628" lon="11.4759257"><ele>962.0</ele><time>2026-05-01T08:51:10.129Z</time></trkpt><trkpt lat="44.0577947" lon="11.4760005"><ele>962.0</ele><time>2026-05-01T08:51:13.129Z</time></trkpt><trkpt lat="44.0578097" lon="11.4761168"><ele>962.0000000000001</ele><time>2026-05-01T08:51:16.128Z</time></trkpt><trkpt lat="44.057839" lon="11.4761968"><ele>962.0</ele><time>2026-05-01T08:51:18.13Z</time></trkpt><trkpt lat="44.0578615" lon="11.4763295"><ele>960.3333333333334</ele><time>2026-05-01T08:51:20.131Z</time></trkpt><trkpt lat="44.0578558" lon="11.4764493"><ele>958.6666666666667</ele><time>2026-05-01T08:51:22.13Z</time></trkpt><trkpt lat="44.0578663" lon="11.4765755"><ele>957.0</ele><time>2026-05-01T08:51:25.13Z</time></trkpt><trkpt lat="44.0578662" lon="11.4766833"><ele>955.3333333333333</ele><time>2026-05-01T08:51:27.129Z</time></trkpt><trkpt lat="44.057865" lon="11.4768363"><ele>953.6666666666666</ele><time>2026-05-01T08:51:29.129Z</time></trkpt><trkpt lat="44.0578788" lon="11.4769457"><ele>952.0</ele><time>2026-05-01T08:51:31.13Z</time></trkpt><trkpt lat="44.0578798" lon="11.4770633"><ele>950.8333333333333</ele><time>2026-05-01T08:51:33.13Z</time></trkpt><trkpt lat="44.0578703" lon="11.4771767"><ele>949.6666666666666</ele><time>2026-05-01T08:51:35.132Z</time></trkpt><trkpt lat="44.0578332" lon="11.4772947"><ele>948.5</ele><time>2026-05-01T08:51:37.13Z</time></trkpt><trkpt lat="44.057817" lon="11.4774027"><ele>947.3333333333333</ele><time>2026-05-01T08:51:39.129Z</time></trkpt><trkpt lat="44.057806" lon="11.4775053"><ele>946.1666666666666</ele><time>2026-05-01T08:51:41.128Z</time></trkpt><trkpt lat="44.0578048" lon="11.4776263"><ele>945.0</ele><time>2026-05-01T08:51:44.128Z</time></trkpt><trkpt lat="44.0577923" lon="11.4777433"><ele>945.0</ele><time>2026-05-01T08:51:47.129Z</time></trkpt><trkpt lat="44.0577608" lon="11.4778345"><ele>945.0</ele><time>2026-05-01T08:51:49.129Z</time></trkpt><trkpt lat="44.057714" lon="11.47791"><ele>945.0</ele><time>2026-05-01T08:51:54.128Z</time></trkpt><trkpt lat="44.0576663" lon="11.4779692"><ele>945.0</ele><time>2026-05-01T08:52:01.128Z</time></trkpt><trkpt lat="44.0576118" lon="11.4780232"><ele>945.0</ele><time>2026-05-01T08:52:07.128Z</time></trkpt><trkpt lat="44.0575722" lon="11.4780932"><ele>945.0</ele><time>2026-05-01T08:52:17.128Z</time></trkpt><trkpt lat="44.0575498" lon="11.4782248"><ele>945.0</ele><time>2026-05-01T08:52:41.129Z</time></trkpt><trkpt lat="44.057524" lon="11.4783182"><ele>945.7142857142858</ele><time>2026-05-01T08:52:46.129Z</time></trkpt><trkpt lat="44.0574805" lon="11.4783893"><ele>946.4285714285714</ele><time>2026-05-01T08:52:50.131Z</time></trkpt><trkpt lat="44.0574798" lon="11.4785077"><ele>947.1428571428571</ele><time>2026-05-01T08:53:41.128Z</time></trkpt><trkpt lat="44.05743" lon="11.4785892"><ele>947.8571428571429</ele><time>2026-05-01T08:54:03.129Z</time></trkpt><trkpt lat="44.0573758" lon="11.4786448"><ele>948.5714285714287</ele><time>2026-05-01T08:54:10.128Z</time></trkpt><trkpt lat="44.0573823" lon="11.4787465"><ele>949.2857142857143</ele><time>2026-05-01T08:54:14.13Z</time></trkpt><trkpt lat="44.0574098" lon="11.4788488"><ele>950.0</ele><time>2026-05-01T08:54:16.129Z</time></trkpt><trkpt lat="44.0574133" lon="11.4789502"><ele>950.0</ele><time>2026-05-01T08:54:18.129Z</time></trkpt><trkpt lat="44.0574005" lon="11.4790582"><ele>950.0</ele><time>2026-05-01T08:54:20.129Z</time></trkpt><trkpt lat="44.0573932" lon="11.4791753"><ele>950.0</ele><time>2026-05-01T08:54:22.129Z</time></trkpt><trkpt lat="44.0573547" lon="11.4793003"><ele>950.0</ele><time>2026-05-01T08:54:24.129Z</time></trkpt><trkpt lat="44.0573143" lon="11.479448"><ele>950.0</ele><time>2026-05-01T08:54:26.13Z</time></trkpt><trkpt lat="44.0572825" lon="11.4795712"><ele>947.0</ele><time>2026-05-01T08:54:28.129Z</time></trkpt><trkpt lat="44.0572522" lon="11.4797262"><ele>944.0</ele><time>2026-05-01T08:54:30.127Z</time></trkpt><trkpt lat="44.0572293" lon="11.4799007"><ele>941.0</ele><time>2026-05-01T08:54:32.128Z</time></trkpt><trkpt lat="44.0572085" lon="11.4800545"><ele>938.0</ele><time>2026-05-01T08:54:34.129Z</time></trkpt><trkpt lat="44.0571568" lon="11.4801387"><ele>935.0</ele><time>2026-05-01T08:54:35.129Z</time></trkpt><trkpt lat="44.0571238" lon="11.4802195"><ele>935.0</ele><time>2026-05-01T08:54:36.129Z</time></trkpt><trkpt lat="44.0570862" lon="11.4803013"><ele>935.0</ele><time>2026-05-01T08:54:37.129Z</time></trkpt><trkpt lat="44.0570448" lon="11.4803688"><ele>935.0</ele><time>2026-05-01T08:54:38.128Z</time></trkpt><trkpt lat="44.0569875" lon="11.4805057"><ele>935.0</ele><time>2026-05-01T08:54:40.129Z</time></trkpt><trkpt lat="44.0569418" lon="11.4806822"><ele>935.0</ele><time>2026-05-01T08:54:42.129Z</time></trkpt><trkpt lat="44.0569343" lon="11.4807975"><ele>933.4</ele><time>2026-05-01T08:54:43.13Z</time></trkpt><trkpt lat="44.056936" lon="11.4809133"><ele>931.8</ele><time>2026-05-01T08:54:44.131Z</time></trkpt><trkpt lat="44.0569382" lon="11.481014"><ele>930.2</ele><time>2026-05-01T08:54:45.129Z</time></trkpt><trkpt lat="44.0569537" lon="11.4811795"><ele>928.6</ele><time>2026-05-01T08:54:47.13Z</time></trkpt><trkpt lat="44.057015" lon="11.4812785"><ele>927.0</ele><time>2026-05-01T08:54:49.128Z</time></trkpt><trkpt lat="44.0570883" lon="11.4813572"><ele>926.6666666666666</ele><time>2026-05-01T08:54:51.129Z</time></trkpt><trkpt lat="44.0571083" lon="11.4814463"><ele>926.3333333333333</ele><time>2026-05-01T08:54:55.127Z</time></trkpt><trkpt lat="44.0570773" lon="11.4815317"><ele>926.0</ele><time>2026-05-01T08:55:02.13Z</time></trkpt><trkpt lat="44.0570567" lon="11.4816407"><ele>925.6666666666666</ele><time>2026-05-01T08:55:05.13Z</time></trkpt><trkpt lat="44.057023" lon="11.4817605"><ele>925.3333333333333</ele><time>2026-05-01T08:55:07.13Z</time></trkpt><trkpt lat="44.057003" lon="11.4819032"><ele>925.0</ele><time>2026-05-01T08:55:09.131Z</time></trkpt><trkpt lat="44.0569952" lon="11.482037"><ele>926.3333333333333</ele><time>2026-05-01T08:55:11.131Z</time></trkpt><trkpt lat="44.0569795" lon="11.4821245"><ele>927.6666666666666</ele><time>2026-05-01T08:55:13.13Z</time></trkpt><trkpt lat="44.056971" lon="11.4822255"><ele>929.0</ele><time>2026-05-01T08:55:18.129Z</time></trkpt><trkpt lat="44.056996" lon="11.482342"><ele>930.3333333333333</ele><time>2026-05-01T08:55:22.128Z</time></trkpt><trkpt lat="44.0570015" lon="11.482451"><ele>931.6666666666666</ele><time>2026-05-01T08:55:25.129Z</time></trkpt><trkpt lat="44.0570142" lon="11.4825582"><ele>933.0</ele><time>2026-05-01T08:55:27.129Z</time></trkpt><trkpt lat="44.057017" lon="11.4826967"><ele>933.0</ele><time>2026-05-01T08:55:29.13Z</time></trkpt><trkpt lat="44.0570088" lon="11.4828192"><ele>933.0</ele><time>2026-05-01T08:55:31.129Z</time></trkpt><trkpt lat="44.0570422" lon="11.4829482"><ele>933.0</ele><time>2026-05-01T08:55:33.129Z</time></trkpt><trkpt lat="44.057062" lon="11.4830968"><ele>933.0</ele><time>2026-05-01T08:55:35.129Z</time></trkpt><trkpt lat="44.0570832" lon="11.4832527"><ele>933.0</ele><time>2026-05-01T08:55:37.13Z</time></trkpt><trkpt lat="44.05712" lon="11.4833967"><ele>933.0</ele><time>2026-05-01T08:55:39.129Z</time></trkpt><trkpt lat="44.0571455" lon="11.4835398"><ele>933.0</ele><time>2026-05-01T08:55:41.129Z</time></trkpt><trkpt lat="44.0571997" lon="11.4836153"><ele>933.0</ele><time>2026-05-01T08:55:43.128Z</time></trkpt><trkpt lat="44.0572807" lon="11.4836257"><ele>933.0</ele><time>2026-05-01T08:55:45.127Z</time></trkpt><trkpt lat="44.057351" lon="11.4836705"><ele>933.0</ele><time>2026-05-01T08:55:47.128Z</time></trkpt><trkpt lat="44.0574475" lon="11.4837015"><ele>933.0</ele><time>2026-05-01T08:55:49.129Z</time></trkpt><trkpt lat="44.0575602" lon="11.4836977"><ele>933.2</ele><time>2026-05-01T08:55:51.129Z</time></trkpt><trkpt lat="44.0576595" lon="11.4836928"><ele>933.4</ele><time>2026-05-01T08:55:53.128Z</time></trkpt><trkpt lat="44.05775" lon="11.4837448"><ele>933.6000000000001</ele><time>2026-05-01T08:55:55.128Z</time></trkpt><trkpt lat="44.0578562" lon="11.4838048"><ele>933.8000000000001</ele><time>2026-05-01T08:55:57.129Z</time></trkpt><trkpt lat="44.0579275" lon="11.4838618"><ele>934.0</ele><time>2026-05-01T08:55:58.13Z</time></trkpt><trkpt lat="44.0580002" lon="11.483923"><ele>933.9999999999999</ele><time>2026-05-01T08:55:59.129Z</time></trkpt><trkpt lat="44.058073" lon="11.4839833"><ele>934.0</ele><time>2026-05-01T08:56:00.128Z</time></trkpt><trkpt lat="44.0581372" lon="11.4840308"><ele>934.0</ele><time>2026-05-01T08:56:01.129Z</time></trkpt><trkpt lat="44.0582382" lon="11.4840718"><ele>934.0</ele><time>2026-05-01T08:56:03.129Z</time></trkpt><trkpt lat="44.0583127" lon="11.4841202"><ele>933.9999999999999</ele><time>2026-05-01T08:56:05.129Z</time></trkpt><trkpt lat="44.058386" lon="11.4841862"><ele>934.0</ele><time>2026-05-01T08:56:07.129Z</time></trkpt><trkpt lat="44.0584793" lon="11.4842842"><ele>935.4999999999999</ele><time>2026-05-01T08:56:09.128Z</time></trkpt><trkpt lat="44.0585473" lon="11.484362"><ele>937.0</ele><time>2026-05-01T08:56:10.128Z</time></trkpt><trkpt lat="44.0586137" lon="11.484446"><ele>938.5</ele><time>2026-05-01T08:56:11.128Z</time></trkpt><trkpt lat="44.0586712" lon="11.4845092"><ele>940.0</ele><time>2026-05-01T08:56:12.128Z</time></trkpt><trkpt lat="44.0587232" lon="11.4845812"><ele>941.4999999999999</ele><time>2026-05-01T08:56:13.128Z</time></trkpt><trkpt lat="44.0587847" lon="11.4846293"><ele>943.0</ele><time>2026-05-01T08:56:14.128Z</time></trkpt><trkpt lat="44.05887" lon="11.4846997"><ele>943.4285714285714</ele><time>2026-05-01T08:56:16.129Z</time></trkpt><trkpt lat="44.058946" lon="11.4847288"><ele>943.8571428571429</ele><time>2026-05-01T08:56:20.13Z</time></trkpt><trkpt lat="44.0590142" lon="11.4847035"><ele>944.2857142857143</ele><time>2026-05-01T08:56:24.129Z</time></trkpt><trkpt lat="44.0590537" lon="11.4847823"><ele>944.7142857142858</ele><time>2026-05-01T08:56:36.13Z</time></trkpt><trkpt lat="44.0590885" lon="11.4848565"><ele>945.1428571428571</ele><time>2026-05-01T08:56:44.129Z</time></trkpt><trkpt lat="44.0591263" lon="11.4849375"><ele>945.5714285714287</ele><time>2026-05-01T08:56:50.129Z</time></trkpt><trkpt lat="44.0592068" lon="11.4849655"><ele>946.0</ele><time>2026-05-01T08:56:55.129Z</time></trkpt><trkpt lat="44.0592437" lon="11.4850516"><ele>945.9999999999999</ele><time>2026-05-01T08:57:01.129Z</time></trkpt><trkpt lat="44.059304" lon="11.4850929"><ele>946.0</ele><time>2026-05-01T08:57:06.13Z</time></trkpt><trkpt lat="44.0593828" lon="11.4850736"><ele>946.0</ele><time>2026-05-01T08:57:09.13Z</time></trkpt><trkpt lat="44.059458" lon="11.4850661"><ele>946.0</ele><time>2026-05-01T08:58:25.129Z</time></trkpt><trkpt lat="44.0594329" lon="11.4851735"><ele>945.9999999999999</ele><time>2026-05-01T08:58:28.13Z</time></trkpt><trkpt lat="44.0594073" lon="11.4852977"><ele>946.0</ele><time>2026-05-01T08:58:30.132Z</time></trkpt><trkpt lat="44.0594325" lon="11.4854297"><ele>945.9999999999999</ele><time>2026-05-01T08:58:32.131Z</time></trkpt><trkpt lat="44.0594693" lon="11.4855717"><ele>946.0</ele><time>2026-05-01T08:58:34.129Z</time></trkpt><trkpt lat="44.0595147" lon="11.4856937"><ele>946.0</ele><time>2026-05-01T08:58:36.129Z</time></trkpt><trkpt lat="44.0595695" lon="11.4856492"><ele>946.0</ele><time>2026-05-01T08:58:40.13Z</time></trkpt><trkpt lat="44.0595862" lon="11.485562"><ele>945.9999999999999</ele><time>2026-05-01T08:58:42.134Z</time></trkpt><trkpt lat="44.0596025" lon="11.485475"><ele>946.0</ele><time>2026-05-01T08:58:44.133Z</time></trkpt><trkpt lat="44.0596595" lon="11.4854142"><ele>945.9999999999999</ele><time>2026-05-01T08:58:46.132Z</time></trkpt><trkpt lat="44.0597368" lon="11.485427"><ele>946.0</ele><time>2026-05-01T08:58:48.132Z</time></trkpt><trkpt lat="44.059821" lon="11.4854935"><ele>946.0</ele><time>2026-05-01T08:58:50.131Z</time></trkpt><trkpt lat="44.0598728" lon="11.4855967"><ele>946.0</ele><time>2026-05-01T08:58:52.131Z</time></trkpt><trkpt lat="44.0598988" lon="11.4857077"><ele>945.9999999999999</ele><time>2026-05-01T08:58:54.131Z</time></trkpt><trkpt lat="44.0599242" lon="11.4858215"><ele>946.0</ele><time>2026-05-01T08:58:56.131Z</time></trkpt><trkpt lat="44.0599712" lon="11.485964"><ele>948.8</ele><time>2026-05-01T08:58:58.131Z</time></trkpt><trkpt lat="44.06002" lon="11.4860738"><ele>951.5999999999999</ele><time>2026-05-01T08:59:00.13Z</time></trkpt><trkpt lat="44.060095" lon="11.486103"><ele>954.4</ele><time>2026-05-01T08:59:02.13Z</time></trkpt><trkpt lat="44.0602043" lon="11.4861408"><ele>957.2</ele><time>2026-05-01T08:59:04.133Z</time></trkpt><trkpt lat="44.060301" lon="11.486183"><ele>960.0</ele><time>2026-05-01T08:59:06.134Z</time></trkpt><trkpt lat="44.060381" lon="11.486222"><ele>961.5</ele><time>2026-05-01T08:59:08.133Z</time></trkpt><trkpt lat="44.0604357" lon="11.4862892"><ele>963.0</ele><time>2026-05-01T08:59:11.134Z</time></trkpt><trkpt lat="44.0603715" lon="11.4863632"><ele>964.5</ele><time>2026-05-01T08:59:15.132Z</time></trkpt><trkpt lat="44.0603077" lon="11.4863827"><ele>966.0</ele><time>2026-05-01T08:59:16.132Z</time></trkpt><trkpt lat="44.0602315" lon="11.4864073"><ele>967.5</ele><time>2026-05-01T08:59:17.132Z</time></trkpt><trkpt lat="44.0601483" lon="11.4864672"><ele>969.0</ele><time>2026-05-01T08:59:19.133Z</time></trkpt><trkpt lat="44.0601557" lon="11.4865613"><ele>969.0</ele><time>2026-05-01T08:59:21.135Z</time></trkpt><trkpt lat="44.0602567" lon="11.486656"><ele>969.0000000000001</ele><time>2026-05-01T08:59:23.134Z</time></trkpt><trkpt lat="44.06034" lon="11.4867042"><ele>969.0000000000001</ele><time>2026-05-01T08:59:24.131Z</time></trkpt><trkpt lat="44.0604405" lon="11.486757"><ele>969.0</ele><time>2026-05-01T08:59:25.13Z</time></trkpt><trkpt lat="44.0605497" lon="11.4868125"><ele>969.0</ele><time>2026-05-01T08:59:26.131Z</time></trkpt><trkpt lat="44.0606565" lon="11.4868658"><ele>969.0</ele><time>2026-05-01T08:59:27.131Z</time></trkpt><trkpt lat="44.0607502" lon="11.4869102"><ele>969.0</ele><time>2026-05-01T08:59:28.133Z</time></trkpt><trkpt lat="44.0608367" lon="11.4869485"><ele>969.0</ele><time>2026-05-01T08:59:29.133Z</time></trkpt><trkpt lat="44.0609182" lon="11.4869825"><ele>969.0</ele><time>2026-05-01T08:59:30.134Z</time></trkpt><trkpt lat="44.0609943" lon="11.4870095"><ele>969.0</ele><time>2026-05-01T08:59:31.133Z</time></trkpt><trkpt lat="44.0610602" lon="11.4870338"><ele>969.0</ele><time>2026-05-01T08:59:32.133Z</time></trkpt><trkpt lat="44.061122" lon="11.4870597"><ele>970.8333333333334</ele><time>2026-05-01T08:59:33.132Z</time></trkpt><trkpt lat="44.0611825" lon="11.4870875"><ele>972.6666666666667</ele><time>2026-05-01T08:59:34.132Z</time></trkpt><trkpt lat="44.0612973" lon="11.4871548"><ele>974.5</ele><time>2026-05-01T08:59:36.134Z</time></trkpt><trkpt lat="44.061409" lon="11.4872215"><ele>976.3333333333334</ele><time>2026-05-01T08:59:38.132Z</time></trkpt><trkpt lat="44.0614673" lon="11.4872578"><ele>978.1666666666667</ele><time>2026-05-01T08:59:39.133Z</time></trkpt><trkpt lat="44.0615298" lon="11.4872968"><ele>980.0</ele><time>2026-05-01T08:59:40.133Z</time></trkpt><trkpt lat="44.0615913" lon="11.4873393"><ele>983.3333333333334</ele><time>2026-05-01T08:59:41.133Z</time></trkpt><trkpt lat="44.0616477" lon="11.487389"><ele>986.6666666666667</ele><time>2026-05-01T08:59:42.132Z</time></trkpt><trkpt lat="44.0616955" lon="11.4874473"><ele>990.0</ele><time>2026-05-01T08:59:43.132Z</time></trkpt><trkpt lat="44.0617417" lon="11.4875073"><ele>993.3333333333333</ele><time>2026-05-01T08:59:44.132Z</time></trkpt><trkpt lat="44.061838" lon="11.4875957"><ele>996.6666666666666</ele><time>2026-05-01T08:59:46.132Z</time></trkpt><trkpt lat="44.0619382" lon="11.4876405"><ele>1000.0</ele><time>2026-05-01T08:59:48.131Z</time></trkpt><trkpt lat="44.0619628" lon="11.4877252"><ele>1000.0</ele><time>2026-05-01T08:59:50.13Z</time></trkpt><trkpt lat="44.0619303" lon="11.4878312"><ele>1000.0</ele><time>2026-05-01T08:59:52.131Z</time></trkpt><trkpt lat="44.0619735" lon="11.4879612"><ele>1000.0</ele><time>2026-05-01T08:59:55.132Z</time></trkpt><trkpt lat="44.0620622" lon="11.4880988"><ele>1000.0</ele><time>2026-05-01T08:59:57.131Z</time></trkpt><trkpt lat="44.0621093" lon="11.4881832"><ele>1000.0</ele><time>2026-05-01T08:59:58.132Z</time></trkpt><trkpt lat="44.06216" lon="11.4882768"><ele>999.1666666666666</ele><time>2026-05-01T08:59:59.135Z</time></trkpt><trkpt lat="44.06221" lon="11.4883685"><ele>998.3333333333333</ele><time>2026-05-01T09:00:00.133Z</time></trkpt><trkpt lat="44.0622605" lon="11.4884592"><ele>997.5</ele><time>2026-05-01T09:00:01.132Z</time></trkpt><trkpt lat="44.0623107" lon="11.4885357"><ele>996.6666666666667</ele><time>2026-05-01T09:00:02.131Z</time></trkpt><trkpt lat="44.0623778" lon="11.488593"><ele>995.8333333333334</ele><time>2026-05-01T09:00:03.132Z</time></trkpt><trkpt lat="44.06246" lon="11.4886452"><ele>995.0</ele><time>2026-05-01T09:00:04.131Z</time></trkpt><trkpt lat="44.0625395" lon="11.4887033"><ele>997.2</ele><time>2026-05-01T09:00:05.132Z</time></trkpt><trkpt lat="44.0626213" lon="11.4887657"><ele>999.4</ele><time>2026-05-01T09:00:06.131Z</time></trkpt><trkpt lat="44.0627083" lon="11.4888335"><ele>1001.5999999999999</ele><time>2026-05-01T09:00:07.131Z</time></trkpt><trkpt lat="44.0627958" lon="11.4888942"><ele>1003.8</ele><time>2026-05-01T09:00:08.132Z</time></trkpt><trkpt lat="44.0628897" lon="11.488942"><ele>1006.0</ele><time>2026-05-01T09:00:09.131Z</time></trkpt><trkpt lat="44.0629977" lon="11.4889802"><ele>1006.0</ele><time>2026-05-01T09:00:10.132Z</time></trkpt><trkpt lat="44.0631245" lon="11.4890167"><ele>1006.0</ele><time>2026-05-01T09:00:11.132Z</time></trkpt><trkpt lat="44.0632442" lon="11.489052"><ele>1006.0</ele><time>2026-05-01T09:00:12.132Z</time></trkpt><trkpt lat="44.063359" lon="11.4890943"><ele>1006.0</ele><time>2026-05-01T09:00:13.13Z</time></trkpt><trkpt lat="44.0634672" lon="11.4891537"><ele>1008.8</ele><time>2026-05-01T09:00:14.13Z</time></trkpt><trkpt lat="44.0635698" lon="11.4892238"><ele>1011.5999999999999</ele><time>2026-05-01T09:00:15.13Z</time></trkpt><trkpt lat="44.0636597" lon="11.4893005"><ele>1014.4</ele><time>2026-05-01T09:00:16.129Z</time></trkpt><trkpt lat="44.0637478" lon="11.4893867"><ele>1017.2</ele><time>2026-05-01T09:00:17.132Z</time></trkpt><trkpt lat="44.0638298" lon="11.4894635"><ele>1020.0</ele><time>2026-05-01T09:00:18.119Z</time></trkpt><trkpt lat="44.0639105" lon="11.4895322"><ele>1020.0</ele><time>2026-05-01T09:00:19.131Z</time></trkpt><trkpt lat="44.0639877" lon="11.4895707"><ele>1020.0</ele><time>2026-05-01T09:00:20.133Z</time></trkpt><trkpt lat="44.0640612" lon="11.4895898"><ele>1020.0</ele><time>2026-05-01T09:00:21.131Z</time></trkpt><trkpt lat="44.0641608" lon="11.4896762"><ele>1020.0</ele><time>2026-05-01T09:00:23.131Z</time></trkpt><trkpt lat="44.0641967" lon="11.4897527"><ele>1020.0</ele><time>2026-05-01T09:00:24.131Z</time></trkpt><trkpt lat="44.0642363" lon="11.489847"><ele>1020.0</ele><time>2026-05-01T09:00:25.134Z</time></trkpt><trkpt lat="44.0642835" lon="11.4899405"><ele>1022.1666666666666</ele><time>2026-05-01T09:00:26.133Z</time></trkpt><trkpt lat="44.0643368" lon="11.490023"><ele>1024.3333333333333</ele><time>2026-05-01T09:00:27.131Z</time></trkpt><trkpt lat="44.0643933" lon="11.4900902"><ele>1026.5</ele><time>2026-05-01T09:00:28.131Z</time></trkpt><trkpt lat="44.0644607" lon="11.4901532"><ele>1028.6666666666665</ele><time>2026-05-01T09:00:29.133Z</time></trkpt><trkpt lat="44.0645383" lon="11.4902107"><ele>1030.8333333333333</ele><time>2026-05-01T09:00:30.132Z</time></trkpt><trkpt lat="44.0646198" lon="11.4902572"><ele>1033.0</ele><time>2026-05-01T09:00:31.133Z</time></trkpt><trkpt lat="44.0647107" lon="11.4902895"><ele>1033.0</ele><time>2026-05-01T09:00:32.133Z</time></trkpt><trkpt lat="44.0647985" lon="11.4903305"><ele>1033.0</ele><time>2026-05-01T09:00:33.132Z</time></trkpt><trkpt lat="44.0648832" lon="11.490379"><ele>1033.0</ele><time>2026-05-01T09:00:34.131Z</time></trkpt><trkpt lat="44.0649497" lon="11.490427"><ele>1033.0</ele><time>2026-05-01T09:00:35.131Z</time></trkpt><trkpt lat="44.0650237" lon="11.4905257"><ele>1033.0</ele><time>2026-05-01T09:00:37.131Z</time></trkpt><trkpt lat="44.0651032" lon="11.4906348"><ele>1036.1666666666665</ele><time>2026-05-01T09:00:39.131Z</time></trkpt><trkpt lat="44.0652057" lon="11.4907402"><ele>1039.3333333333333</ele><time>2026-05-01T09:00:41.132Z</time></trkpt><trkpt lat="44.0652607" lon="11.4908013"><ele>1042.5</ele><time>2026-05-01T09:00:42.132Z</time></trkpt><trkpt lat="44.0653182" lon="11.4908715"><ele>1045.6666666666667</ele><time>2026-05-01T09:00:43.133Z</time></trkpt><trkpt lat="44.0653727" lon="11.4909495"><ele>1048.8333333333335</ele><time>2026-05-01T09:00:44.133Z</time></trkpt><trkpt lat="44.0654227" lon="11.4910382"><ele>1052.0</ele><time>2026-05-01T09:00:45.133Z</time></trkpt><trkpt lat="44.0654752" lon="11.4911238"><ele>1052.0</ele><time>2026-05-01T09:00:46.132Z</time></trkpt><trkpt lat="44.0655365" lon="11.4912128"><ele>1052.0</ele><time>2026-05-01T09:00:47.132Z</time></trkpt><trkpt lat="44.0655992" lon="11.4913048"><ele>1052.0</ele><time>2026-05-01T09:00:48.133Z</time></trkpt><trkpt lat="44.0656658" lon="11.4914063"><ele>1052.0</ele><time>2026-05-01T09:00:49.132Z</time></trkpt><trkpt lat="44.0657343" lon="11.4915047"><ele>1052.0</ele><time>2026-05-01T09:00:50.133Z</time></trkpt><trkpt lat="44.0658017" lon="11.491603"><ele>1053.0</ele><time>2026-05-01T09:00:51.132Z</time></trkpt><trkpt lat="44.0658665" lon="11.4916957"><ele>1054.0</ele><time>2026-05-01T09:00:52.131Z</time></trkpt><trkpt lat="44.0659228" lon="11.4917947"><ele>1055.0</ele><time>2026-05-01T09:00:53.132Z</time></trkpt><trkpt lat="44.0659908" lon="11.4919088"><ele>1056.0</ele><time>2026-05-01T09:00:54.132Z</time></trkpt><trkpt lat="44.066071" lon="11.4920138"><ele>1057.0</ele><time>2026-05-01T09:00:55.131Z</time></trkpt><trkpt lat="44.0661602" lon="11.492129"><ele>1057.0</ele><time>2026-05-01T09:00:56.132Z</time></trkpt><trkpt lat="44.0662378" lon="11.4922632"><ele>1057.0</ele><time>2026-05-01T09:00:57.131Z</time></trkpt><trkpt lat="44.066314" lon="11.4924165"><ele>1057.0</ele><time>2026-05-01T09:00:58.133Z</time></trkpt><trkpt lat="44.0663852" lon="11.492551"><ele>1057.0</ele><time>2026-05-01T09:00:59.131Z</time></trkpt><trkpt lat="44.0664418" lon="11.4926665"><ele>1057.0</ele><time>2026-05-01T09:01:00.133Z</time></trkpt><trkpt lat="44.0665085" lon="11.4927695"><ele>1057.0</ele><time>2026-05-01T09:01:01.133Z</time></trkpt><trkpt lat="44.0665753" lon="11.4928497"><ele>1057.0</ele><time>2026-05-01T09:01:02.131Z</time></trkpt><trkpt lat="44.0666602" lon="11.4929335"><ele>1057.0</ele><time>2026-05-01T09:01:03.13Z</time></trkpt><trkpt lat="44.066747" lon="11.4930123"><ele>1057.0</ele><time>2026-05-01T09:01:04.13Z</time></trkpt><trkpt lat="44.0668285" lon="11.4930825"><ele>1061.8</ele><time>2026-05-01T09:01:05.129Z</time></trkpt><trkpt lat="44.0669108" lon="11.493161"><ele>1066.6</ele><time>2026-05-01T09:01:06.13Z</time></trkpt><trkpt lat="44.0669633" lon="11.4932615"><ele>1071.3999999999999</ele><time>2026-05-01T09:01:07.13Z</time></trkpt><trkpt lat="44.0670068" lon="11.4933792"><ele>1076.2</ele><time>2026-05-01T09:01:08.13Z</time></trkpt><trkpt lat="44.067049" lon="11.493494"><ele>1081.0</ele><time>2026-05-01T09:01:09.131Z</time></trkpt><trkpt lat="44.0670892" lon="11.4936337"><ele>1081.0</ele><time>2026-05-01T09:01:10.131Z</time></trkpt><trkpt lat="44.067135" lon="11.493754"><ele>1081.0</ele><time>2026-05-01T09:01:11.131Z</time></trkpt><trkpt lat="44.0671673" lon="11.4938718"><ele>1081.0</ele><time>2026-05-01T09:01:12.13Z</time></trkpt><trkpt lat="44.0672045" lon="11.4939902"><ele>1081.0</ele><time>2026-05-01T09:01:13.131Z</time></trkpt><trkpt lat="44.067244" lon="11.4941135"><ele>1081.0</ele><time>2026-05-01T09:01:14.132Z</time></trkpt><trkpt lat="44.067264" lon="11.4942477"><ele>1080.2857142857142</ele><time>2026-05-01T09:01:15.131Z</time></trkpt><trkpt lat="44.0672765" lon="11.4943597"><ele>1079.5714285714284</ele><time>2026-05-01T09:01:16.131Z</time></trkpt><trkpt lat="44.0672767" lon="11.4944517"><ele>1078.857142857143</ele><time>2026-05-01T09:01:17.132Z</time></trkpt><trkpt lat="44.067261" lon="11.4945563"><ele>1078.142857142857</ele><time>2026-05-01T09:01:18.134Z</time></trkpt><trkpt lat="44.0672352" lon="11.4946497"><ele>1077.4285714285716</ele><time>2026-05-01T09:01:19.131Z</time></trkpt><trkpt lat="44.067217" lon="11.494751"><ele>1076.7142857142858</ele><time>2026-05-01T09:01:20.132Z</time></trkpt><trkpt lat="44.0672162" lon="11.494852"><ele>1076.0</ele><time>2026-05-01T09:01:21.132Z</time></trkpt><trkpt lat="44.0672045" lon="11.4949688"><ele>1077.6666666666667</ele><time>2026-05-01T09:01:22.133Z</time></trkpt><trkpt lat="44.0671963" lon="11.4950952"><ele>1079.3333333333335</ele><time>2026-05-01T09:01:23.132Z</time></trkpt><trkpt lat="44.0671977" lon="11.4952178"><ele>1081.0</ele><time>2026-05-01T09:01:24.133Z</time></trkpt><trkpt lat="44.0671935" lon="11.4953237"><ele>1082.6666666666667</ele><time>2026-05-01T09:01:25.133Z</time></trkpt><trkpt lat="44.0671797" lon="11.4954378"><ele>1084.3333333333333</ele><time>2026-05-01T09:01:26.132Z</time></trkpt><trkpt lat="44.067151" lon="11.4955528"><ele>1086.0</ele><time>2026-05-01T09:01:27.13Z</time></trkpt><trkpt lat="44.0671172" lon="11.4956652"><ele>1088.8333333333333</ele><time>2026-05-01T09:01:28.131Z</time></trkpt><trkpt lat="44.0670862" lon="11.49577"><ele>1091.6666666666667</ele><time>2026-05-01T09:01:29.13Z</time></trkpt><trkpt lat="44.0670527" lon="11.4958675"><ele>1094.5</ele><time>2026-05-01T09:01:30.132Z</time></trkpt><trkpt lat="44.0670087" lon="11.4959355"><ele>1097.3333333333335</ele><time>2026-05-01T09:01:31.133Z</time></trkpt><trkpt lat="44.066934" lon="11.4960175"><ele>1100.1666666666667</ele><time>2026-05-01T09:01:33.133Z</time></trkpt><trkpt lat="44.06691" lon="11.4961007"><ele>1103.0</ele><time>2026-05-01T09:01:34.132Z</time></trkpt><trkpt lat="44.066869" lon="11.4962337"><ele>1104.3333333333335</ele><time>2026-05-01T09:01:36.133Z</time></trkpt><trkpt lat="44.0668188" lon="11.4963073"><ele>1105.6666666666667</ele><time>2026-05-01T09:01:37.134Z</time></trkpt><trkpt lat="44.0667563" lon="11.496386"><ele>1107.0</ele><time>2026-05-01T09:01:38.133Z</time></trkpt><trkpt lat="44.0666778" lon="11.4964543"><ele>1108.3333333333333</ele><time>2026-05-01T09:01:39.144Z</time></trkpt><trkpt lat="44.0665972" lon="11.4964973"><ele>1109.6666666666665</ele><time>2026-05-01T09:01:40.133Z</time></trkpt><trkpt lat="44.0665208" lon="11.496511"><ele>1111.0</ele><time>2026-05-01T09:01:41.134Z</time></trkpt><trkpt lat="44.0664335" lon="11.4965185"><ele>1113.3333333333333</ele><time>2026-05-01T09:01:42.132Z</time></trkpt><trkpt lat="44.066345" lon="11.4965372"><ele>1115.6666666666665</ele><time>2026-05-01T09:01:43.131Z</time></trkpt><trkpt lat="44.0662523" lon="11.4965702"><ele>1118.0</ele><time>2026-05-01T09:01:44.133Z</time></trkpt><trkpt lat="44.0661692" lon="11.4965865"><ele>1120.3333333333333</ele><time>2026-05-01T09:01:45.131Z</time></trkpt><trkpt lat="44.0660867" lon="11.4965727"><ele>1122.6666666666667</ele><time>2026-05-01T09:01:46.131Z</time></trkpt><trkpt lat="44.0660113" lon="11.4965353"><ele>1125.0</ele><time>2026-05-01T09:01:47.131Z</time></trkpt><trkpt lat="44.065923" lon="11.4964983"><ele>1125.0</ele><time>2026-05-01T09:01:48.131Z</time></trkpt><trkpt lat="44.0658438" lon="11.4964645"><ele>1125.0</ele><time>2026-05-01T09:01:49.131Z</time></trkpt><trkpt lat="44.0657885" lon="11.4964092"><ele>1125.0</ele><time>2026-05-01T09:01:50.131Z</time></trkpt><trkpt lat="44.0657448" lon="11.4963428"><ele>1125.0</ele><time>2026-05-01T09:01:51.129Z</time></trkpt><trkpt lat="44.065721" lon="11.4962472"><ele>1125.0</ele><time>2026-05-01T09:01:52.13Z</time></trkpt><trkpt lat="44.0656985" lon="11.496146"><ele>1125.0</ele><time>2026-05-01T09:01:53.128Z</time></trkpt><trkpt lat="44.0656712" lon="11.496039"><ele>1125.0</ele><time>2026-05-01T09:01:54.128Z</time></trkpt><trkpt lat="44.0656293" lon="11.4959492"><ele>1126.4</ele><time>2026-05-01T09:01:55.131Z</time></trkpt><trkpt lat="44.065513" lon="11.4958807"><ele>1127.8</ele><time>2026-05-01T09:01:57.132Z</time></trkpt><trkpt lat="44.0654328" lon="11.4958682"><ele>1129.2</ele><time>2026-05-01T09:01:58.131Z</time></trkpt><trkpt lat="44.0653282" lon="11.4958755"><ele>1130.6</ele><time>2026-05-01T09:01:59.132Z</time></trkpt><trkpt lat="44.0652158" lon="11.4958995"><ele>1132.0</ele><time>2026-05-01T09:02:00.132Z</time></trkpt><trkpt lat="44.0650978" lon="11.4959357"><ele>1132.0</ele><time>2026-05-01T09:02:01.133Z</time></trkpt><trkpt lat="44.0649917" lon="11.495979"><ele>1132.0</ele><time>2026-05-01T09:02:02.131Z</time></trkpt><trkpt lat="44.0648947" lon="11.4960093"><ele>1132.0</ele><time>2026-05-01T09:02:03.132Z</time></trkpt><trkpt lat="44.0647817" lon="11.4960168"><ele>1132.0</ele><time>2026-05-01T09:02:04.133Z</time></trkpt><trkpt lat="44.0646573" lon="11.4960335"><ele>1132.0</ele><time>2026-05-01T09:02:05.134Z</time></trkpt><trkpt lat="44.0645465" lon="11.4960478"><ele>1131.0</ele><time>2026-05-01T09:02:06.132Z</time></trkpt><trkpt lat="44.0644512" lon="11.4960643"><ele>1130.0</ele><time>2026-05-01T09:02:07.133Z</time></trkpt><trkpt lat="44.064364" lon="11.4960645"><ele>1129.0</ele><time>2026-05-01T09:02:08.135Z</time></trkpt><trkpt lat="44.0642598" lon="11.4960393"><ele>1128.0</ele><time>2026-05-01T09:02:09.133Z</time></trkpt><trkpt lat="44.0641482" lon="11.495987"><ele>1127.0</ele><time>2026-05-01T09:02:10.133Z</time></trkpt><trkpt lat="44.0640233" lon="11.4959188"><ele>1129.2</ele><time>2026-05-01T09:02:11.133Z</time></trkpt><trkpt lat="44.063904" lon="11.4958452"><ele>1131.4</ele><time>2026-05-01T09:02:12.133Z</time></trkpt><trkpt lat="44.063799" lon="11.4957652"><ele>1133.6</ele><time>2026-05-01T09:02:13.134Z</time></trkpt><trkpt lat="44.0637085" lon="11.4956825"><ele>1135.8</ele><time>2026-05-01T09:02:14.132Z</time></trkpt><trkpt lat="44.0636438" lon="11.4956045"><ele>1138.0</ele><time>2026-05-01T09:02:15.13Z</time></trkpt><trkpt lat="44.063584" lon="11.4955227"><ele>1138.0</ele><time>2026-05-01T09:02:16.132Z</time></trkpt><trkpt lat="44.0635252" lon="11.4954278"><ele>1138.0</ele><time>2026-05-01T09:02:17.131Z</time></trkpt><trkpt lat="44.063468" lon="11.4953522"><ele>1138.0</ele><time>2026-05-01T09:02:18.131Z</time></trkpt><trkpt lat="44.0634105" lon="11.4953112"><ele>1138.0</ele><time>2026-05-01T09:02:19.132Z</time></trkpt><trkpt lat="44.0633087" lon="11.4953163"><ele>1138.0</ele><time>2026-05-01T09:02:21.133Z</time></trkpt><trkpt lat="44.0632263" lon="11.4953413"><ele>1138.0</ele><time>2026-05-01T09:02:22.133Z</time></trkpt><trkpt lat="44.0631273" lon="11.4953748"><ele>1136.25</ele><time>2026-05-01T09:02:23.134Z</time></trkpt><trkpt lat="44.0630145" lon="11.4954167"><ele>1134.5</ele><time>2026-05-01T09:02:24.133Z</time></trkpt><trkpt lat="44.062903" lon="11.4954575"><ele>1132.75</ele><time>2026-05-01T09:02:25.133Z</time></trkpt><trkpt lat="44.0627833" lon="11.4954993"><ele>1131.0</ele><time>2026-05-01T09:02:26.133Z</time></trkpt><trkpt lat="44.0626678" lon="11.4955293"><ele>1131.0</ele><time>2026-05-01T09:02:27.133Z</time></trkpt><trkpt lat="44.0625557" lon="11.4955488"><ele>1131.0</ele><time>2026-05-01T09:02:28.133Z</time></trkpt><trkpt lat="44.062449" lon="11.4955638"><ele>1131.0</ele><time>2026-05-01T09:02:29.135Z</time></trkpt><trkpt lat="44.0623497" lon="11.4955668"><ele>1131.0</ele><time>2026-05-01T09:02:30.133Z</time></trkpt><trkpt lat="44.0622628" lon="11.4955945"><ele>1131.0</ele><time>2026-05-01T09:02:31.133Z</time></trkpt><trkpt lat="44.0621895" lon="11.4956185"><ele>1133.4285714285716</ele><time>2026-05-01T09:02:32.133Z</time></trkpt><trkpt lat="44.0621243" lon="11.495618"><ele>1135.857142857143</ele><time>2026-05-01T09:02:40.13Z</time></trkpt><trkpt lat="44.0620538" lon="11.495595"><ele>1138.2857142857142</ele><time>2026-05-01T09:03:05.13Z</time></trkpt><trkpt lat="44.0619892" lon="11.4955937"><ele>1140.7142857142858</ele><time>2026-05-01T09:03:23.131Z</time></trkpt><trkpt lat="44.0619348" lon="11.4956423"><ele>1143.142857142857</ele><time>2026-05-01T09:03:51.132Z</time></trkpt><trkpt lat="44.0618438" lon="11.4957245"><ele>1145.5714285714287</ele><time>2026-05-01T09:03:53.13Z</time></trkpt><trkpt lat="44.0617842" lon="11.4957722"><ele>1148.0</ele><time>2026-05-01T09:03:54.13Z</time></trkpt><trkpt lat="44.0617253" lon="11.495805"><ele>1148.0</ele><time>2026-05-01T09:03:55.131Z</time></trkpt><trkpt lat="44.0616442" lon="11.4958243"><ele>1148.0</ele><time>2026-05-01T09:03:56.13Z</time></trkpt><trkpt lat="44.0615592" lon="11.495846"><ele>1148.0</ele><time>2026-05-01T09:03:57.13Z</time></trkpt><trkpt lat="44.0614745" lon="11.495882"><ele>1148.0</ele><time>2026-05-01T09:03:58.132Z</time></trkpt><trkpt lat="44.061384" lon="11.495934"><ele>1148.0</ele><time>2026-05-01T09:03:59.132Z</time></trkpt><trkpt lat="44.0612888" lon="11.4959697"><ele>1147.6</ele><time>2026-05-01T09:04:00.131Z</time></trkpt><trkpt lat="44.0612095" lon="11.4959935"><ele>1147.1999999999998</ele><time>2026-05-01T09:04:01.131Z</time></trkpt><trkpt lat="44.0611367" lon="11.4960238"><ele>1146.8</ele><time>2026-05-01T09:04:02.131Z</time></trkpt><trkpt lat="44.0610675" lon="11.4960895"><ele>1146.3999999999999</ele><time>2026-05-01T09:04:03.131Z</time></trkpt><trkpt lat="44.0609943" lon="11.4961813"><ele>1146.0</ele><time>2026-05-01T09:04:04.132Z</time></trkpt><trkpt lat="44.0609087" lon="11.4962978"><ele>1144.0</ele><time>2026-05-01T09:04:05.134Z</time></trkpt><trkpt lat="44.060825" lon="11.4964073"><ele>1142.0</ele><time>2026-05-01T09:04:06.132Z</time></trkpt><trkpt lat="44.0607552" lon="11.4964807"><ele>1140.0</ele><time>2026-05-01T09:04:07.132Z</time></trkpt><trkpt lat="44.0606423" lon="11.4965543"><ele>1138.0</ele><time>2026-05-01T09:04:09.134Z</time></trkpt><trkpt lat="44.0605832" lon="11.4966072"><ele>1136.0</ele><time>2026-05-01T09:04:10.133Z</time></trkpt><trkpt lat="44.060528" lon="11.496671"><ele>1135.8</ele><time>2026-05-01T09:04:11.134Z</time></trkpt><trkpt lat="44.060439" lon="11.496761"><ele>1135.6</ele><time>2026-05-01T09:04:12.134Z</time></trkpt><trkpt lat="44.0603417" lon="11.496855"><ele>1135.4</ele><time>2026-05-01T09:04:13.134Z</time></trkpt><trkpt lat="44.0602597" lon="11.496954"><ele>1135.2</ele><time>2026-05-01T09:04:14.134Z</time></trkpt><trkpt lat="44.0601947" lon="11.497014"><ele>1135.0</ele><time>2026-05-01T09:04:15.134Z</time></trkpt><trkpt lat="44.0601383" lon="11.4970717"><ele>1135.3333333333333</ele><time>2026-05-01T09:04:16.135Z</time></trkpt><trkpt lat="44.060082" lon="11.4971222"><ele>1135.6666666666665</ele><time>2026-05-01T09:04:17.134Z</time></trkpt><trkpt lat="44.0600295" lon="11.4971947"><ele>1136.0</ele><time>2026-05-01T09:04:18.132Z</time></trkpt><trkpt lat="44.0599852" lon="11.4973112"><ele>1136.3333333333333</ele><time>2026-05-01T09:04:19.132Z</time></trkpt><trkpt lat="44.0599378" lon="11.497428"><ele>1136.6666666666667</ele><time>2026-05-01T09:04:20.132Z</time></trkpt><trkpt lat="44.0598765" lon="11.4975257"><ele>1137.0</ele><time>2026-05-01T09:04:21.133Z</time></trkpt><trkpt lat="44.0598025" lon="11.497599"><ele>1133.8</ele><time>2026-05-01T09:04:22.134Z</time></trkpt><trkpt lat="44.0597215" lon="11.4976612"><ele>1130.6</ele><time>2026-05-01T09:04:23.134Z</time></trkpt><trkpt lat="44.059639" lon="11.4977133"><ele>1127.3999999999999</ele><time>2026-05-01T09:04:24.134Z</time></trkpt><trkpt lat="44.0595588" lon="11.4977552"><ele>1124.2</ele><time>2026-05-01T09:04:25.134Z</time></trkpt><trkpt lat="44.059492" lon="11.4977782"><ele>1121.0</ele><time>2026-05-01T09:04:26.134Z</time></trkpt><trkpt lat="44.0593653" lon="11.4977708"><ele>1121.0</ele><time>2026-05-01T09:04:28.132Z</time></trkpt><trkpt lat="44.059299" lon="11.4977615"><ele>1121.0</ele><time>2026-05-01T09:04:29.134Z</time></trkpt><trkpt lat="44.0591795" lon="11.4977332"><ele>1121.0</ele><time>2026-05-01T09:04:31.134Z</time></trkpt><trkpt lat="44.059113" lon="11.4977255"><ele>1121.0</ele><time>2026-05-01T09:04:32.133Z</time></trkpt><trkpt lat="44.05905" lon="11.4977205"><ele>1121.0</ele><time>2026-05-01T09:04:33.132Z</time></trkpt><trkpt lat="44.0589838" lon="11.4977192"><ele>1121.0</ele><time>2026-05-01T09:04:34.134Z</time></trkpt><trkpt lat="44.0589135" lon="11.4977202"><ele>1119.3999999999999</ele><time>2026-05-01T09:04:35.132Z</time></trkpt><trkpt lat="44.0588107" lon="11.497762"><ele>1117.8</ele><time>2026-05-01T09:04:37.132Z</time></trkpt><trkpt lat="44.0586797" lon="11.4978165"><ele>1116.1999999999998</ele><time>2026-05-01T09:04:39.132Z</time></trkpt><trkpt lat="44.0586042" lon="11.4978212"><ele>1114.6</ele><time>2026-05-01T09:04:40.132Z</time></trkpt><trkpt lat="44.0585167" lon="11.4978178"><ele>1113.0</ele><time>2026-05-01T09:04:41.133Z</time></trkpt><trkpt lat="44.0584233" lon="11.4978192"><ele>1113.0</ele><time>2026-05-01T09:04:42.131Z</time></trkpt><trkpt lat="44.0583215" lon="11.4978258"><ele>1113.0</ele><time>2026-05-01T09:04:43.131Z</time></trkpt><trkpt lat="44.0582078" lon="11.4978292"><ele>1113.0</ele><time>2026-05-01T09:04:44.131Z</time></trkpt><trkpt lat="44.0581073" lon="11.4978497"><ele>1113.0</ele><time>2026-05-01T09:04:45.131Z</time></trkpt><trkpt lat="44.058016" lon="11.4978605"><ele>1113.0</ele><time>2026-05-01T09:04:46.132Z</time></trkpt><trkpt lat="44.0579208" lon="11.4978597"><ele>1113.2</ele><time>2026-05-01T09:04:47.133Z</time></trkpt><trkpt lat="44.057816" lon="11.497858"><ele>1113.4</ele><time>2026-05-01T09:04:48.134Z</time></trkpt><trkpt lat="44.0577203" lon="11.4978617"><ele>1113.6000000000001</ele><time>2026-05-01T09:04:49.133Z</time></trkpt><trkpt lat="44.0576187" lon="11.4978607"><ele>1113.8</ele><time>2026-05-01T09:04:50.134Z</time></trkpt><trkpt lat="44.0575105" lon="11.4978528"><ele>1114.0</ele><time>2026-05-01T09:04:51.133Z</time></trkpt><trkpt lat="44.0574088" lon="11.4978597"><ele>1116.6666666666665</ele><time>2026-05-01T09:04:52.132Z</time></trkpt><trkpt lat="44.0573207" lon="11.4978632"><ele>1119.3333333333333</ele><time>2026-05-01T09:04:53.133Z</time></trkpt><trkpt lat="44.0572313" lon="11.4978722"><ele>1122.0</ele><time>2026-05-01T09:04:54.132Z</time></trkpt><trkpt lat="44.0571438" lon="11.4978693"><ele>1124.6666666666667</ele><time>2026-05-01T09:04:55.134Z</time></trkpt><trkpt lat="44.0570557" lon="11.4978463"><ele>1127.3333333333335</ele><time>2026-05-01T09:04:56.133Z</time></trkpt><trkpt lat="44.056975" lon="11.4978142"><ele>1130.0</ele><time>2026-05-01T09:04:57.134Z</time></trkpt><trkpt lat="44.056906" lon="11.4977738"><ele>1130.0</ele><time>2026-05-01T09:04:58.131Z</time></trkpt><trkpt lat="44.0568497" lon="11.4977135"><ele>1130.0</ele><time>2026-05-01T09:04:59.132Z</time></trkpt><trkpt lat="44.0567897" lon="11.4976518"><ele>1130.0</ele><time>2026-05-01T09:05:00.132Z</time></trkpt><trkpt lat="44.0566888" lon="11.4975912"><ele>1130.0</ele><time>2026-05-01T09:05:02.132Z</time></trkpt><trkpt lat="44.056607" lon="11.4975863"><ele>1130.0</ele><time>2026-05-01T09:05:04.132Z</time></trkpt><trkpt lat="44.0565027" lon="11.4975348"><ele>1130.0</ele><time>2026-05-01T09:05:06.132Z</time></trkpt><trkpt lat="44.0563827" lon="11.4974705"><ele>1131.6666666666667</ele><time>2026-05-01T09:05:08.131Z</time></trkpt><trkpt lat="44.0563077" lon="11.497449"><ele>1133.3333333333335</ele><time>2026-05-01T09:05:09.132Z</time></trkpt><trkpt lat="44.0562317" lon="11.4974478"><ele>1135.0</ele><time>2026-05-01T09:05:10.132Z</time></trkpt><trkpt lat="44.0561692" lon="11.4974707"><ele>1136.6666666666667</ele><time>2026-05-01T09:05:11.135Z</time></trkpt><trkpt lat="44.0561075" lon="11.4975092"><ele>1138.3333333333333</ele><time>2026-05-01T09:05:12.135Z</time></trkpt><trkpt lat="44.0560325" lon="11.4975645"><ele>1140.0</ele><time>2026-05-01T09:05:13.134Z</time></trkpt><trkpt lat="44.055956" lon="11.4976282"><ele>1140.0</ele><time>2026-05-01T09:05:14.134Z</time></trkpt><trkpt lat="44.0558858" lon="11.497688"><ele>1140.0</ele><time>2026-05-01T09:05:15.134Z</time></trkpt><trkpt lat="44.0558312" lon="11.4977518"><ele>1140.0</ele><time>2026-05-01T09:05:16.134Z</time></trkpt><trkpt lat="44.0557805" lon="11.497833"><ele>1140.0</ele><time>2026-05-01T09:05:17.134Z</time></trkpt><trkpt lat="44.0557435" lon="11.4979192"><ele>1140.0</ele><time>2026-05-01T09:05:18.134Z</time></trkpt><trkpt lat="44.0557012" lon="11.4979865"><ele>1140.0</ele><time>2026-05-01T09:05:19.136Z</time></trkpt><trkpt lat="44.0556522" lon="11.4980442"><ele>1140.0</ele><time>2026-05-01T09:05:20.135Z</time></trkpt><trkpt lat="44.055568" lon="11.4981745"><ele>1141.0</ele><time>2026-05-01T09:05:22.133Z</time></trkpt><trkpt lat="44.0555077" lon="11.4982293"><ele>1142.0</ele><time>2026-05-01T09:05:23.135Z</time></trkpt><trkpt lat="44.0554427" lon="11.4982835"><ele>1143.0</ele><time>2026-05-01T09:05:24.134Z</time></trkpt><trkpt lat="44.0553822" lon="11.498336"><ele>1144.0</ele><time>2026-05-01T09:05:25.134Z</time></trkpt><trkpt lat="44.0553237" lon="11.4983755"><ele>1145.0</ele><time>2026-05-01T09:05:26.135Z</time></trkpt><trkpt lat="44.0552232" lon="11.4984485"><ele>1146.0</ele><time>2026-05-01T09:05:28.134Z</time></trkpt><trkpt lat="44.0551387" lon="11.4985593"><ele>1146.0</ele><time>2026-05-01T09:05:30.133Z</time></trkpt><trkpt lat="44.055056" lon="11.4985942"><ele>1146.0</ele><time>2026-05-01T09:05:32.132Z</time></trkpt><trkpt lat="44.0549602" lon="11.4985895"><ele>1146.0</ele><time>2026-05-01T09:05:35.133Z</time></trkpt><trkpt lat="44.0548667" lon="11.4986205"><ele>1146.0</ele><time>2026-05-01T09:05:37.133Z</time></trkpt><trkpt lat="44.0547488" lon="11.4987102"><ele>1146.0</ele><time>2026-05-01T09:05:39.134Z</time></trkpt><trkpt lat="44.0546812" lon="11.4987583"><ele>1146.8333333333333</ele><time>2026-05-01T09:05:40.132Z</time></trkpt><trkpt lat="44.0546237" lon="11.4988038"><ele>1147.6666666666667</ele><time>2026-05-01T09:05:41.133Z</time></trkpt><trkpt lat="44.054549" lon="11.4988888"><ele>1148.5</ele><time>2026-05-01T09:05:43.132Z</time></trkpt><trkpt lat="44.0544618" lon="11.4989413"><ele>1149.3333333333335</ele><time>2026-05-01T09:05:45.134Z</time></trkpt><trkpt lat="44.0543767" lon="11.4989937"><ele>1150.1666666666667</ele><time>2026-05-01T09:05:47.133Z</time></trkpt><trkpt lat="44.054298" lon="11.499061"><ele>1151.0</ele><time>2026-05-01T09:05:49.133Z</time></trkpt><trkpt lat="44.054222" lon="11.499151"><ele>1151.0</ele><time>2026-05-01T09:05:51.134Z</time></trkpt><trkpt lat="44.0541637" lon="11.4992522"><ele>1151.0</ele><time>2026-05-01T09:05:53.135Z</time></trkpt><trkpt lat="44.054121" lon="11.4993718"><ele>1151.0</ele><time>2026-05-01T09:05:55.134Z</time></trkpt><trkpt lat="44.0541068" lon="11.4995063"><ele>1151.0</ele><time>2026-05-01T09:05:57.131Z</time></trkpt><trkpt lat="44.0541225" lon="11.4996227"><ele>1151.0</ele><time>2026-05-01T09:05:59.131Z</time></trkpt><trkpt lat="44.0541073" lon="11.4997158"><ele>1151.0</ele><time>2026-05-01T09:06:01.133Z</time></trkpt><trkpt lat="44.0540598" lon="11.4998463"><ele>1147.8333333333335</ele><time>2026-05-01T09:06:03.134Z</time></trkpt><trkpt lat="44.0540223" lon="11.4999373"><ele>1144.6666666666667</ele><time>2026-05-01T09:06:04.133Z</time></trkpt><trkpt lat="44.0539883" lon="11.5000353"><ele>1141.5</ele><time>2026-05-01T09:06:05.134Z</time></trkpt><trkpt lat="44.0539537" lon="11.5001253"><ele>1138.3333333333333</ele><time>2026-05-01T09:06:06.134Z</time></trkpt><trkpt lat="44.0539152" lon="11.5002062"><ele>1135.1666666666665</ele><time>2026-05-01T09:06:07.133Z</time></trkpt><trkpt lat="44.0538753" lon="11.5002787"><ele>1132.0</ele><time>2026-05-01T09:06:08.134Z</time></trkpt><trkpt lat="44.0538207" lon="11.5004262"><ele>1132.0</ele><time>2026-05-01T09:06:10.134Z</time></trkpt><trkpt lat="44.0537862" lon="11.500579"><ele>1132.0</ele><time>2026-05-01T09:06:12.135Z</time></trkpt><trkpt lat="44.0537638" lon="11.5006712"><ele>1132.0</ele><time>2026-05-01T09:06:13.133Z</time></trkpt><trkpt lat="44.0537295" lon="11.500755"><ele>1132.0</ele><time>2026-05-01T09:06:14.135Z</time></trkpt><trkpt lat="44.0536578" lon="11.5008677"><ele>1132.0</ele><time>2026-05-01T09:06:16.133Z</time></trkpt><trkpt lat="44.0536118" lon="11.5009765"><ele>1132.0</ele><time>2026-05-01T09:06:18.132Z</time></trkpt><trkpt lat="44.053524" lon="11.5010345"><ele>1132.0</ele><time>2026-05-01T09:06:20.131Z</time></trkpt><trkpt lat="44.0534377" lon="11.5011082"><ele>1132.0</ele><time>2026-05-01T09:06:22.131Z</time></trkpt><trkpt lat="44.0533953" lon="11.5011792"><ele>1132.0</ele><time>2026-05-01T09:06:23.131Z</time></trkpt><trkpt lat="44.0533452" lon="11.5012618"><ele>1132.0</ele><time>2026-05-01T09:06:24.132Z</time></trkpt><trkpt lat="44.053298" lon="11.5013362"><ele>1132.0</ele><time>2026-05-01T09:06:25.134Z</time></trkpt><trkpt lat="44.0532517" lon="11.5014163"><ele>1131.8333333333333</ele><time>2026-05-01T09:06:26.133Z</time></trkpt><trkpt lat="44.0532048" lon="11.5014988"><ele>1131.6666666666665</ele><time>2026-05-01T09:06:27.133Z</time></trkpt><trkpt lat="44.0531495" lon="11.50159"><ele>1131.5</ele><time>2026-05-01T09:06:28.134Z</time></trkpt><trkpt lat="44.0530787" lon="11.501679"><ele>1131.3333333333333</ele><time>2026-05-01T09:06:29.134Z</time></trkpt><trkpt lat="44.052999" lon="11.50176"><ele>1131.1666666666667</ele><time>2026-05-01T09:06:30.133Z</time></trkpt><trkpt lat="44.0529283" lon="11.5018325"><ele>1131.0</ele><time>2026-05-01T09:06:31.133Z</time></trkpt><trkpt lat="44.0528742" lon="11.5019032"><ele>1131.0</ele><time>2026-05-01T09:06:32.134Z</time></trkpt><trkpt lat="44.052833" lon="11.5019792"><ele>1131.0</ele><time>2026-05-01T09:06:33.133Z</time></trkpt><trkpt lat="44.0527948" lon="11.5020613"><ele>1131.0</ele><time>2026-05-01T09:06:34.133Z</time></trkpt><trkpt lat="44.0527478" lon="11.5021443"><ele>1131.0</ele><time>2026-05-01T09:06:35.133Z</time></trkpt><trkpt lat="44.0526903" lon="11.5022245"><ele>1131.0</ele><time>2026-05-01T09:06:36.132Z</time></trkpt><trkpt lat="44.0526238" lon="11.5023047"><ele>1131.0</ele><time>2026-05-01T09:06:37.132Z</time></trkpt><trkpt lat="44.0525535" lon="11.5023892"><ele>1129.8</ele><time>2026-05-01T09:06:38.132Z</time></trkpt><trkpt lat="44.0524825" lon="11.5024773"><ele>1128.6</ele><time>2026-05-01T09:06:39.133Z</time></trkpt><trkpt lat="44.0524168" lon="11.5025645"><ele>1127.4</ele><time>2026-05-01T09:06:40.132Z</time></trkpt><trkpt lat="44.0523548" lon="11.5026527"><ele>1126.2</ele><time>2026-05-01T09:06:41.132Z</time></trkpt><trkpt lat="44.0522965" lon="11.5027473"><ele>1125.0</ele><time>2026-05-01T09:06:42.133Z</time></trkpt><trkpt lat="44.0522467" lon="11.5028535"><ele>1125.8333333333333</ele><time>2026-05-01T09:06:43.133Z</time></trkpt><trkpt lat="44.0522017" lon="11.5029512"><ele>1126.6666666666667</ele><time>2026-05-01T09:06:44.134Z</time></trkpt><trkpt lat="44.0521655" lon="11.5030352"><ele>1127.5</ele><time>2026-05-01T09:06:45.131Z</time></trkpt><trkpt lat="44.0521495" lon="11.5031225"><ele>1128.3333333333335</ele><time>2026-05-01T09:06:46.131Z</time></trkpt><trkpt lat="44.0521493" lon="11.503216"><ele>1129.1666666666667</ele><time>2026-05-01T09:06:47.131Z</time></trkpt><trkpt lat="44.0521345" lon="11.5033072"><ele>1130.0</ele><time>2026-05-01T09:06:48.131Z</time></trkpt><trkpt lat="44.0521005" lon="11.5034673"><ele>1130.0</ele><time>2026-05-01T09:06:50.133Z</time></trkpt><trkpt lat="44.052123" lon="11.503612"><ele>1130.0</ele><time>2026-05-01T09:06:52.133Z</time></trkpt><trkpt lat="44.0520592" lon="11.50375"><ele>1130.0</ele><time>2026-05-01T09:06:54.134Z</time></trkpt><trkpt lat="44.0520023" lon="11.5038375"><ele>1130.0</ele><time>2026-05-01T09:06:55.134Z</time></trkpt><trkpt lat="44.0519457" lon="11.5039152"><ele>1130.0</ele><time>2026-05-01T09:06:56.134Z</time></trkpt><trkpt lat="44.0518967" lon="11.50399"><ele>1130.0</ele><time>2026-05-01T09:06:57.134Z</time></trkpt><trkpt lat="44.0518613" lon="11.5040828"><ele>1130.0</ele><time>2026-05-01T09:06:58.134Z</time></trkpt><trkpt lat="44.05183" lon="11.504185"><ele>1130.0</ele><time>2026-05-01T09:06:59.135Z</time></trkpt><trkpt lat="44.0517927" lon="11.5042643"><ele>1130.0</ele><time>2026-05-01T09:07:00.136Z</time></trkpt><trkpt lat="44.0516962" lon="11.50437"><ele>1130.0</ele><time>2026-05-01T09:07:02.135Z</time></trkpt><trkpt lat="44.0515873" lon="11.5044305"><ele>1130.0</ele><time>2026-05-01T09:07:04.134Z</time></trkpt><trkpt lat="44.0514978" lon="11.5044737"><ele>1130.0</ele><time>2026-05-01T09:07:06.133Z</time></trkpt><trkpt lat="44.051411" lon="11.5045042"><ele>1130.0</ele><time>2026-05-01T09:07:08.133Z</time></trkpt><trkpt lat="44.0513052" lon="11.5045487"><ele>1130.0</ele><time>2026-05-01T09:07:10.131Z</time></trkpt><trkpt lat="44.0512142" lon="11.5045998"><ele>1130.0</ele><time>2026-05-01T09:07:12.131Z</time></trkpt><trkpt lat="44.051152" lon="11.5046398"><ele>1130.0</ele><time>2026-05-01T09:07:40.13Z</time></trkpt><trkpt lat="44.051091" lon="11.5046033"><ele>1130.0</ele><time>2026-05-01T09:07:42.129Z</time></trkpt><trkpt lat="44.0509848" lon="11.5045082"><ele>1130.0</ele><time>2026-05-01T09:07:44.129Z</time></trkpt><trkpt lat="44.050922" lon="11.5044487"><ele>1130.0</ele><time>2026-05-01T09:07:45.13Z</time></trkpt><trkpt lat="44.0508475" lon="11.5043885"><ele>1130.0</ele><time>2026-05-01T09:07:46.13Z</time></trkpt><trkpt lat="44.0507857" lon="11.504329"><ele>1130.0</ele><time>2026-05-01T09:07:47.129Z</time></trkpt><trkpt lat="44.0507355" lon="11.5042692"><ele>1128.8333333333335</ele><time>2026-05-01T09:07:48.13Z</time></trkpt><trkpt lat="44.050662" lon="11.504156"><ele>1127.6666666666667</ele><time>2026-05-01T09:07:50.131Z</time></trkpt><trkpt lat="44.050664" lon="11.5040482"><ele>1126.5</ele><time>2026-05-01T09:07:52.13Z</time></trkpt><trkpt lat="44.0506328" lon="11.5039285"><ele>1125.3333333333333</ele><time>2026-05-01T09:07:54.129Z</time></trkpt><trkpt lat="44.0505932" lon="11.5038452"><ele>1124.1666666666665</ele><time>2026-05-01T09:07:55.13Z</time></trkpt><trkpt lat="44.0505585" lon="11.5037655"><ele>1123.0</ele><time>2026-05-01T09:07:56.13Z</time></trkpt><trkpt lat="44.0505103" lon="11.5036383"><ele>1123.0</ele><time>2026-05-01T09:07:58.128Z</time></trkpt><trkpt lat="44.0504483" lon="11.5035555"><ele>1123.0</ele><time>2026-05-01T09:08:00.129Z</time></trkpt><trkpt lat="44.0503563" lon="11.5035213"><ele>1123.0</ele><time>2026-05-01T09:08:02.129Z</time></trkpt><trkpt lat="44.0502593" lon="11.5034767"><ele>1123.0</ele><time>2026-05-01T09:08:04.133Z</time></trkpt><trkpt lat="44.0501555" lon="11.5035008"><ele>1123.0</ele><time>2026-05-01T09:08:06.13Z</time></trkpt><trkpt lat="44.0500573" lon="11.5035295"><ele>1123.0</ele><time>2026-05-01T09:08:08.13Z</time></trkpt><trkpt lat="44.0499907" lon="11.5035117"><ele>1123.0</ele><time>2026-05-01T09:08:09.129Z</time></trkpt><trkpt lat="44.0499055" lon="11.5035063"><ele>1123.0</ele><time>2026-05-01T09:08:10.129Z</time></trkpt><trkpt lat="44.0498277" lon="11.5034898"><ele>1123.0</ele><time>2026-05-01T09:08:11.13Z</time></trkpt><trkpt lat="44.0497468" lon="11.503453"><ele>1123.0</ele><time>2026-05-01T09:08:12.129Z</time></trkpt><trkpt lat="44.0496578" lon="11.5033768"><ele>1123.0</ele><time>2026-05-01T09:08:13.129Z</time></trkpt><trkpt lat="44.049577" lon="11.5032922"><ele>1122.5</ele><time>2026-05-01T09:08:14.129Z</time></trkpt><trkpt lat="44.0495212" lon="11.5031983"><ele>1122.0</ele><time>2026-05-01T09:08:15.13Z</time></trkpt><trkpt lat="44.0494788" lon="11.5031045"><ele>1121.5</ele><time>2026-05-01T09:08:16.13Z</time></trkpt><trkpt lat="44.0494567" lon="11.502999"><ele>1121.0</ele><time>2026-05-01T09:08:17.13Z</time></trkpt><trkpt lat="44.0494283" lon="11.5028837"><ele>1120.5</ele><time>2026-05-01T09:08:18.13Z</time></trkpt><trkpt lat="44.0494107" lon="11.5027867"><ele>1120.0</ele><time>2026-05-01T09:08:19.13Z</time></trkpt><trkpt lat="44.049387" lon="11.5027012"><ele>1120.0</ele><time>2026-05-01T09:08:20.13Z</time></trkpt><trkpt lat="44.0493332" lon="11.5025305"><ele>1120.0</ele><time>2026-05-01T09:08:22.132Z</time></trkpt><trkpt lat="44.0493075" lon="11.5024503"><ele>1120.0</ele><time>2026-05-01T09:08:23.129Z</time></trkpt><trkpt lat="44.0492877" lon="11.5023258"><ele>1120.0</ele><time>2026-05-01T09:08:24.129Z</time></trkpt><trkpt lat="44.0492763" lon="11.5022065"><ele>1120.0</ele><time>2026-05-01T09:08:25.129Z</time></trkpt><trkpt lat="44.0492368" lon="11.5021028"><ele>1119.6666666666665</ele><time>2026-05-01T09:08:26.129Z</time></trkpt><trkpt lat="44.0491972" lon="11.5020207"><ele>1119.3333333333333</ele><time>2026-05-01T09:08:27.13Z</time></trkpt><trkpt lat="44.0491502" lon="11.5019467"><ele>1119.0</ele><time>2026-05-01T09:08:28.13Z</time></trkpt><trkpt lat="44.0490942" lon="11.5018905"><ele>1118.6666666666667</ele><time>2026-05-01T09:08:29.129Z</time></trkpt><trkpt lat="44.0490188" lon="11.501773"><ele>1118.3333333333335</ele><time>2026-05-01T09:08:31.128Z</time></trkpt><trkpt lat="44.048991" lon="11.5016805"><ele>1118.0</ele><time>2026-05-01T09:08:32.13Z</time></trkpt><trkpt lat="44.0489622" lon="11.5015765"><ele>1116.8333333333335</ele><time>2026-05-01T09:08:33.129Z</time></trkpt><trkpt lat="44.0489357" lon="11.5014823"><ele>1115.6666666666667</ele><time>2026-05-01T09:08:34.13Z</time></trkpt><trkpt lat="44.0488963" lon="11.5013718"><ele>1114.5</ele><time>2026-05-01T09:08:35.131Z</time></trkpt><trkpt lat="44.0488722" lon="11.5012785"><ele>1113.3333333333333</ele><time>2026-05-01T09:08:36.13Z</time></trkpt><trkpt lat="44.0488332" lon="11.5011515"><ele>1112.1666666666665</ele><time>2026-05-01T09:08:38.13Z</time></trkpt><trkpt lat="44.0487455" lon="11.5010577"><ele>1111.0</ele><time>2026-05-01T09:08:40.13Z</time></trkpt><trkpt lat="44.0486567" lon="11.5009835"><ele>1111.0</ele><time>2026-05-01T09:08:42.131Z</time></trkpt><trkpt lat="44.0486218" lon="11.5008752"><ele>1111.0</ele><time>2026-05-01T09:08:44.13Z</time></trkpt><trkpt lat="44.048563" lon="11.5008045"><ele>1111.0</ele><time>2026-05-01T09:08:46.13Z</time></trkpt><trkpt lat="44.0485263" lon="11.5007253"><ele>1111.0</ele><time>2026-05-01T09:08:48.128Z</time></trkpt><trkpt lat="44.0484573" lon="11.5006632"><ele>1111.0</ele><time>2026-05-01T09:08:51.129Z</time></trkpt><trkpt lat="44.0483968" lon="11.5006143"><ele>1111.0</ele><time>2026-05-01T09:08:55.129Z</time></trkpt><trkpt lat="44.0483372" lon="11.5005732"><ele>1111.0</ele><time>2026-05-01T09:08:57.13Z</time></trkpt><trkpt lat="44.0482737" lon="11.5005315"><ele>1107.0</ele><time>2026-05-01T09:08:59.13Z</time></trkpt><trkpt lat="44.0482038" lon="11.5005005"><ele>1103.0</ele><time>2026-05-01T09:09:01.13Z</time></trkpt><trkpt lat="44.0481377" lon="11.5004812"><ele>1099.0</ele><time>2026-05-01T09:09:05.13Z</time></trkpt><trkpt lat="44.048072" lon="11.50044"><ele>1095.0</ele><time>2026-05-01T09:09:09.131Z</time></trkpt><trkpt lat="44.048002" lon="11.5004148"><ele>1091.0</ele><time>2026-05-01T09:09:15.129Z</time></trkpt><trkpt lat="44.0479112" lon="11.5003812"><ele>1087.0</ele><time>2026-05-01T09:09:18.13Z</time></trkpt><trkpt lat="44.047828" lon="11.5003418"><ele>1087.0</ele><time>2026-05-01T09:09:21.13Z</time></trkpt><trkpt lat="44.0477602" lon="11.5003127"><ele>1087.0</ele><time>2026-05-01T09:09:23.13Z</time></trkpt><trkpt lat="44.0476835" lon="11.5002943"><ele>1087.0</ele><time>2026-05-01T09:09:28.131Z</time></trkpt><trkpt lat="44.0476048" lon="11.5003362"><ele>1087.0</ele><time>2026-05-01T09:09:31.131Z</time></trkpt><trkpt lat="44.0475182" lon="11.5003883"><ele>1087.0</ele><time>2026-05-01T09:09:33.13Z</time></trkpt><trkpt lat="44.047444" lon="11.500398"><ele>1087.0</ele><time>2026-05-01T09:09:34.129Z</time></trkpt><trkpt lat="44.0473558" lon="11.5003858"><ele>1085.4</ele><time>2026-05-01T09:09:35.13Z</time></trkpt><trkpt lat="44.0472728" lon="11.5003553"><ele>1083.8000000000002</ele><time>2026-05-01T09:09:36.13Z</time></trkpt><trkpt lat="44.0471703" lon="11.5002937"><ele>1082.2</ele><time>2026-05-01T09:09:37.129Z</time></trkpt><trkpt lat="44.0470782" lon="11.5002307"><ele>1080.6000000000001</ele><time>2026-05-01T09:09:38.128Z</time></trkpt><trkpt lat="44.0469872" lon="11.5001832"><ele>1079.0</ele><time>2026-05-01T09:09:39.128Z</time></trkpt><trkpt lat="44.0468845" lon="11.500149"><ele>1079.0</ele><time>2026-05-01T09:09:41.13Z</time></trkpt><trkpt lat="44.0467853" lon="11.500129"><ele>1079.0</ele><time>2026-05-01T09:09:43.13Z</time></trkpt><trkpt lat="44.0466745" lon="11.5000947"><ele>1079.0</ele><time>2026-05-01T09:09:45.13Z</time></trkpt><trkpt lat="44.0465538" lon="11.5000635"><ele>1079.0</ele><time>2026-05-01T09:09:47.131Z</time></trkpt><trkpt lat="44.0464587" lon="11.5000175"><ele>1079.0</ele><time>2026-05-01T09:09:49.131Z</time></trkpt><trkpt lat="44.0463618" lon="11.4999622"><ele>1078.0</ele><time>2026-05-01T09:09:51.13Z</time></trkpt><trkpt lat="44.0462913" lon="11.4998593"><ele>1077.0</ele><time>2026-05-01T09:09:53.13Z</time></trkpt><trkpt lat="44.0462228" lon="11.4997435"><ele>1076.0</ele><time>2026-05-01T09:09:55.131Z</time></trkpt><trkpt lat="44.0461753" lon="11.499661"><ele>1075.0</ele><time>2026-05-01T09:09:57.131Z</time></trkpt><trkpt lat="44.0461158" lon="11.4996273"><ele>1074.0</ele><time>2026-05-01T09:09:59.131Z</time></trkpt><trkpt lat="44.0460547" lon="11.4995543"><ele>1073.0</ele><time>2026-05-01T09:10:01.129Z</time></trkpt><trkpt lat="44.0459707" lon="11.499524"><ele>1073.6</ele><time>2026-05-01T09:10:03.129Z</time></trkpt><trkpt lat="44.0458858" lon="11.4995627"><ele>1074.1999999999998</ele><time>2026-05-01T09:10:05.131Z</time></trkpt><trkpt lat="44.0457737" lon="11.4995893"><ele>1074.8</ele><time>2026-05-01T09:10:07.13Z</time></trkpt><trkpt lat="44.0457093" lon="11.4996188"><ele>1075.3999999999999</ele><time>2026-05-01T09:10:08.13Z</time></trkpt><trkpt lat="44.045603" lon="11.4996788"><ele>1076.0</ele><time>2026-05-01T09:10:10.13Z</time></trkpt><trkpt lat="44.0455008" lon="11.4997095"><ele>1076.0</ele><time>2026-05-01T09:10:12.13Z</time></trkpt><trkpt lat="44.045385" lon="11.4997465"><ele>1076.0</ele><time>2026-05-01T09:10:14.131Z</time></trkpt><trkpt lat="44.045307" lon="11.499745"><ele>1076.0</ele><time>2026-05-01T09:10:16.132Z</time></trkpt><trkpt lat="44.0452398" lon="11.4997518"><ele>1076.0</ele><time>2026-05-01T09:10:19.132Z</time></trkpt><trkpt lat="44.0451755" lon="11.4997247"><ele>1076.0</ele><time>2026-05-01T09:10:29.13Z</time></trkpt><trkpt lat="44.0451137" lon="11.4996938"><ele>1076.0</ele><time>2026-05-01T09:10:34.132Z</time></trkpt><trkpt lat="44.0450483" lon="11.4996775"><ele>1076.0</ele><time>2026-05-01T09:10:44.132Z</time></trkpt><trkpt lat="44.0449832" lon="11.4996717"><ele>1076.0</ele><time>2026-05-01T09:10:57.131Z</time></trkpt><trkpt lat="44.0449215" lon="11.4996895"><ele>1076.0</ele><time>2026-05-01T09:11:19.132Z</time></trkpt><trkpt lat="44.0448455" lon="11.4997163"><ele>1076.0</ele><time>2026-05-01T09:12:02.131Z</time></trkpt><trkpt lat="44.0447747" lon="11.4997425"><ele>1076.0</ele><time>2026-05-01T09:12:08.132Z</time></trkpt><trkpt lat="44.0447662" lon="11.4998342"><ele>1076.0</ele><time>2026-05-01T09:13:10.13Z</time></trkpt><trkpt lat="44.0447363" lon="11.499934"><ele>1076.0</ele><time>2026-05-01T09:13:44.129Z</time></trkpt><trkpt lat="44.0446775" lon="11.499996"><ele>1078.0</ele><time>2026-05-01T09:13:48.13Z</time></trkpt><trkpt lat="44.044619" lon="11.5000618"><ele>1080.0</ele><time>2026-05-01T09:13:53.131Z</time></trkpt><trkpt lat="44.0445613" lon="11.5001128"><ele>1082.0</ele><time>2026-05-01T09:13:57.131Z</time></trkpt><trkpt lat="44.044514" lon="11.500181"><ele>1084.0</ele><time>2026-05-01T09:14:01.131Z</time></trkpt><trkpt lat="44.0444512" lon="11.5002182"><ele>1086.0</ele><time>2026-05-01T09:14:06.128Z</time></trkpt><trkpt lat="44.0443987" lon="11.5002768"><ele>1088.0</ele><time>2026-05-01T09:14:09.13Z</time></trkpt><trkpt lat="44.0443315" lon="11.5003825"><ele>1090.0</ele><time>2026-05-01T09:14:12.131Z</time></trkpt><trkpt lat="44.044265" lon="11.5004907"><ele>1084.8333333333333</ele><time>2026-05-01T09:14:15.13Z</time></trkpt><trkpt lat="44.044174" lon="11.5005713"><ele>1079.6666666666665</ele><time>2026-05-01T09:14:17.131Z</time></trkpt><trkpt lat="44.044118" lon="11.5006438"><ele>1074.5</ele><time>2026-05-01T09:14:19.131Z</time></trkpt><trkpt lat="44.044076" lon="11.5007115"><ele>1069.3333333333333</ele><time>2026-05-01T09:14:22.131Z</time></trkpt><trkpt lat="44.0439945" lon="11.5007748"><ele>1064.1666666666667</ele><time>2026-05-01T09:14:25.131Z</time></trkpt><trkpt lat="44.0439372" lon="11.500851"><ele>1059.0</ele><time>2026-05-01T09:14:28.131Z</time></trkpt><trkpt lat="44.0438983" lon="11.500955"><ele>1056.5</ele><time>2026-05-01T09:14:31.129Z</time></trkpt><trkpt lat="44.043844" lon="11.5010418"><ele>1054.0</ele><time>2026-05-01T09:14:34.13Z</time></trkpt><trkpt lat="44.0438083" lon="11.5011223"><ele>1051.5</ele><time>2026-05-01T09:14:36.132Z</time></trkpt><trkpt lat="44.043787" lon="11.501225"><ele>1049.0</ele><time>2026-05-01T09:14:38.131Z</time></trkpt><trkpt lat="44.0437625" lon="11.5013602"><ele>1046.5</ele><time>2026-05-01T09:14:41.133Z</time></trkpt><trkpt lat="44.0437878" lon="11.501445"><ele>1044.0</ele><time>2026-05-01T09:14:43.131Z</time></trkpt><trkpt lat="44.0437985" lon="11.5015713"><ele>1039.0</ele><time>2026-05-01T09:14:46.132Z</time></trkpt><trkpt lat="44.0437757" lon="11.5016603"><ele>1034.0</ele><time>2026-05-01T09:14:48.131Z</time></trkpt><trkpt lat="44.0437587" lon="11.5017607"><ele>1029.0</ele><time>2026-05-01T09:14:50.132Z</time></trkpt><trkpt lat="44.0437563" lon="11.5018812"><ele>1024.0</ele><time>2026-05-01T09:14:52.131Z</time></trkpt><trkpt lat="44.0437405" lon="11.5020148"><ele>1019.0</ele><time>2026-05-01T09:14:54.131Z</time></trkpt><trkpt lat="44.0437307" lon="11.5021617"><ele>1014.0</ele><time>2026-05-01T09:14:56.131Z</time></trkpt><trkpt lat="44.0437048" lon="11.5023282"><ele>1013.5</ele><time>2026-05-01T09:14:58.131Z</time></trkpt><trkpt lat="44.0436735" lon="11.502462"><ele>1013.0</ele><time>2026-05-01T09:15:00.132Z</time></trkpt><trkpt lat="44.043648" lon="11.5025472"><ele>1012.5</ele><time>2026-05-01T09:15:02.135Z</time></trkpt><trkpt lat="44.0436163" lon="11.5026268"><ele>1012.0</ele><time>2026-05-01T09:15:04.133Z</time></trkpt><trkpt lat="44.0436063" lon="11.502768"><ele>1011.5</ele><time>2026-05-01T09:15:07.133Z</time></trkpt><trkpt lat="44.0436018" lon="11.5028568"><ele>1011.0</ele><time>2026-05-01T09:15:09.133Z</time></trkpt><trkpt lat="44.0435883" lon="11.5029438"><ele>1010.8</ele><time>2026-05-01T09:15:11.134Z</time></trkpt><trkpt lat="44.0435787" lon="11.5030483"><ele>1010.5999999999999</ele><time>2026-05-01T09:15:13.133Z</time></trkpt><trkpt lat="44.0435608" lon="11.5031685"><ele>1010.4</ele><time>2026-05-01T09:15:15.133Z</time></trkpt><trkpt lat="44.0435432" lon="11.5032982"><ele>1010.2</ele><time>2026-05-01T09:15:17.134Z</time></trkpt><trkpt lat="44.0435328" lon="11.503418"><ele>1010.0</ele><time>2026-05-01T09:15:19.131Z</time></trkpt><trkpt lat="44.0435178" lon="11.50358"><ele>1010.0000000000001</ele><time>2026-05-01T09:15:21.131Z</time></trkpt><trkpt lat="44.0435122" lon="11.503736"><ele>1010.0</ele><time>2026-05-01T09:15:23.133Z</time></trkpt><trkpt lat="44.0434613" lon="11.5038393"><ele>1010.0</ele><time>2026-05-01T09:15:25.133Z</time></trkpt><trkpt lat="44.0433977" lon="11.5039215"><ele>1010.0</ele><time>2026-05-01T09:15:27.134Z</time></trkpt><trkpt lat="44.043379" lon="11.5040052"><ele>1010.0000000000001</ele><time>2026-05-01T09:15:29.133Z</time></trkpt><trkpt lat="44.043378" lon="11.5041005"><ele>1010.0</ele><time>2026-05-01T09:15:32.134Z</time></trkpt><trkpt lat="44.0433538" lon="11.504192"><ele>1008.3333333333334</ele><time>2026-05-01T09:15:36.133Z</time></trkpt><trkpt lat="44.0433027" lon="11.5042988"><ele>1006.6666666666667</ele><time>2026-05-01T09:15:39.134Z</time></trkpt><trkpt lat="44.0432563" lon="11.5044082"><ele>1005.0</ele><time>2026-05-01T09:15:41.134Z</time></trkpt><trkpt lat="44.043212" lon="11.5045058"><ele>1003.3333333333333</ele><time>2026-05-01T09:15:43.134Z</time></trkpt><trkpt lat="44.0431767" lon="11.5045847"><ele>1001.6666666666666</ele><time>2026-05-01T09:15:45.132Z</time></trkpt><trkpt lat="44.043128" lon="11.5046568"><ele>1000.0</ele><time>2026-05-01T09:15:47.132Z</time></trkpt><trkpt lat="44.0430912" lon="11.5047407"><ele>993.9999999999999</ele><time>2026-05-01T09:15:49.134Z</time></trkpt><trkpt lat="44.0430685" lon="11.5048407"><ele>988.0</ele><time>2026-05-01T09:15:51.134Z</time></trkpt><trkpt lat="44.0430547" lon="11.5049437"><ele>982.0</ele><time>2026-05-01T09:15:55.133Z</time></trkpt><trkpt lat="44.0430737" lon="11.505055"><ele>976.0</ele><time>2026-05-01T09:15:59.133Z</time></trkpt><trkpt lat="44.0430898" lon="11.5051935"><ele>969.9999999999999</ele><time>2026-05-01T09:16:02.134Z</time></trkpt><trkpt lat="44.0430748" lon="11.5053138"><ele>964.0</ele><time>2026-05-01T09:16:04.132Z</time></trkpt><trkpt lat="44.0430587" lon="11.5054113"><ele>962.2857142857143</ele><time>2026-05-01T09:16:06.133Z</time></trkpt><trkpt lat="44.0430417" lon="11.5055172"><ele>960.5714285714287</ele><time>2026-05-01T09:16:09.13Z</time></trkpt><trkpt lat="44.04303" lon="11.5056238"><ele>958.8571428571429</ele><time>2026-05-01T09:16:34.13Z</time></trkpt><trkpt lat="44.0430337" lon="11.5057157"><ele>957.1428571428571</ele><time>2026-05-01T09:16:42.132Z</time></trkpt><trkpt lat="44.0430417" lon="11.5058113"><ele>955.4285714285714</ele><time>2026-05-01T09:16:44.133Z</time></trkpt><trkpt lat="44.0430167" lon="11.5059103"><ele>953.7142857142858</ele><time>2026-05-01T09:16:49.133Z</time></trkpt><trkpt lat="44.043" lon="11.5060105"><ele>952.0</ele><time>2026-05-01T09:16:53.133Z</time></trkpt><trkpt lat="44.0429855" lon="11.5061148"><ele>951.9999999999999</ele><time>2026-05-01T09:16:56.133Z</time></trkpt><trkpt lat="44.0430017" lon="11.5062025"><ele>952.0</ele><time>2026-05-01T09:16:59.13Z</time></trkpt><trkpt lat="44.0430012" lon="11.5062977"><ele>952.0</ele><time>2026-05-01T09:17:03.133Z</time></trkpt><trkpt lat="44.042965" lon="11.5063773"><ele>952.0</ele><time>2026-05-01T09:17:07.133Z</time></trkpt><trkpt lat="44.0429517" lon="11.5064897"><ele>951.9999999999999</ele><time>2026-05-01T09:17:10.131Z</time></trkpt><trkpt lat="44.0429743" lon="11.5066163"><ele>952.0</ele><time>2026-05-01T09:17:13.132Z</time></trkpt><trkpt lat="44.042929" lon="11.5067095"><ele>948.6666666666666</ele><time>2026-05-01T09:17:16.132Z</time></trkpt><trkpt lat="44.0428863" lon="11.506801"><ele>945.3333333333333</ele><time>2026-05-01T09:17:19.13Z</time></trkpt><trkpt lat="44.0428737" lon="11.5069065"><ele>942.0</ele><time>2026-05-01T09:17:21.13Z</time></trkpt><trkpt lat="44.0428435" lon="11.50703"><ele>938.6666666666667</ele><time>2026-05-01T09:17:24.129Z</time></trkpt><trkpt lat="44.0428457" lon="11.5071417"><ele>935.3333333333334</ele><time>2026-05-01T09:17:28.13Z</time></trkpt><trkpt lat="44.0428697" lon="11.5072415"><ele>932.0</ele><time>2026-05-01T09:17:30.131Z</time></trkpt><trkpt lat="44.0428488" lon="11.5073558"><ele>930.0000000000001</ele><time>2026-05-01T09:17:33.132Z</time></trkpt><trkpt lat="44.0428252" lon="11.5074483"><ele>928.0</ele><time>2026-05-01T09:17:35.133Z</time></trkpt><trkpt lat="44.0428058" lon="11.5075373"><ele>926.0</ele><time>2026-05-01T09:17:36.133Z</time></trkpt><trkpt lat="44.0427807" lon="11.5076253"><ele>924.0</ele><time>2026-05-01T09:17:37.132Z</time></trkpt><trkpt lat="44.0427505" lon="11.5077867"><ele>922.0000000000001</ele><time>2026-05-01T09:17:39.131Z</time></trkpt><trkpt lat="44.0427398" lon="11.5078775"><ele>920.0</ele><time>2026-05-01T09:17:40.132Z</time></trkpt><trkpt lat="44.0427062" lon="11.5080378"><ele>919.3333333333334</ele><time>2026-05-01T09:17:42.132Z</time></trkpt><trkpt lat="44.0426863" lon="11.5081485"><ele>918.6666666666667</ele><time>2026-05-01T09:17:43.133Z</time></trkpt><trkpt lat="44.0426502" lon="11.5082767"><ele>918.0</ele><time>2026-05-01T09:17:44.132Z</time></trkpt><trkpt lat="44.0426152" lon="11.5083933"><ele>917.3333333333333</ele><time>2026-05-01T09:17:45.133Z</time></trkpt><trkpt lat="44.0425823" lon="11.5085005"><ele>916.6666666666666</ele><time>2026-05-01T09:17:46.132Z</time></trkpt><trkpt lat="44.0425627" lon="11.5086002"><ele>916.0</ele><time>2026-05-01T09:17:47.131Z</time></trkpt><trkpt lat="44.0425348" lon="11.5086942"><ele>917.4</ele><time>2026-05-01T09:17:48.13Z</time></trkpt><trkpt lat="44.0424997" lon="11.5088243"><ele>918.8</ele><time>2026-05-01T09:17:50.131Z</time></trkpt><trkpt lat="44.0424988" lon="11.5089883"><ele>920.1999999999999</ele><time>2026-05-01T09:17:52.131Z</time></trkpt><trkpt lat="44.042487" lon="11.5090877"><ele>921.5999999999999</ele><time>2026-05-01T09:17:53.133Z</time></trkpt><trkpt lat="44.0424698" lon="11.5091887"><ele>923.0</ele><time>2026-05-01T09:17:54.131Z</time></trkpt><trkpt lat="44.0424572" lon="11.50931"><ele>922.5999999999999</ele><time>2026-05-01T09:17:55.132Z</time></trkpt><trkpt lat="44.0424417" lon="11.5094272"><ele>922.1999999999999</ele><time>2026-05-01T09:17:56.132Z</time></trkpt><trkpt lat="44.042437" lon="11.5095815"><ele>921.8</ele><time>2026-05-01T09:17:58.131Z</time></trkpt><trkpt lat="44.0424228" lon="11.5097065"><ele>921.4</ele><time>2026-05-01T09:18:00.131Z</time></trkpt><trkpt lat="44.0424092" lon="11.509868"><ele>921.0</ele><time>2026-05-01T09:18:02.133Z</time></trkpt><trkpt lat="44.0423953" lon="11.5100117"><ele>921.0</ele><time>2026-05-01T09:18:04.131Z</time></trkpt><trkpt lat="44.0423862" lon="11.5101082"><ele>921.0</ele><time>2026-05-01T09:18:05.132Z</time></trkpt><trkpt lat="44.042382" lon="11.5102697"><ele>921.0</ele><time>2026-05-01T09:18:07.131Z</time></trkpt><trkpt lat="44.0423843" lon="11.5103727"><ele>921.0</ele><time>2026-05-01T09:18:08.131Z</time></trkpt><trkpt lat="44.0423855" lon="11.5104683"><ele>921.0</ele><time>2026-05-01T09:18:09.13Z</time></trkpt><trkpt lat="44.0423617" lon="11.5105842"><ele>921.0</ele><time>2026-05-01T09:18:11.129Z</time></trkpt><trkpt lat="44.0423397" lon="11.510669"><ele>920.2857142857144</ele><time>2026-05-01T09:18:17.13Z</time></trkpt><trkpt lat="44.0423197" lon="11.5107658"><ele>919.5714285714287</ele><time>2026-05-01T09:18:24.129Z</time></trkpt><trkpt lat="44.0422972" lon="11.5108563"><ele>918.8571428571429</ele><time>2026-05-01T09:18:27.129Z</time></trkpt><trkpt lat="44.0422892" lon="11.5109522"><ele>918.1428571428572</ele><time>2026-05-01T09:18:30.13Z</time></trkpt><trkpt lat="44.042259" lon="11.5110387"><ele>917.4285714285716</ele><time>2026-05-01T09:18:33.13Z</time></trkpt><trkpt lat="44.0422573" lon="11.511129"><ele>916.7142857142857</ele><time>2026-05-01T09:18:47.131Z</time></trkpt><trkpt lat="44.0422423" lon="11.5112275"><ele>916.0</ele><time>2026-05-01T09:19:01.131Z</time></trkpt><trkpt lat="44.042198" lon="11.5113178"><ele>911.6666666666666</ele><time>2026-05-01T09:19:06.132Z</time></trkpt><trkpt lat="44.042159" lon="11.51143"><ele>907.3333333333333</ele><time>2026-05-01T09:19:10.131Z</time></trkpt><trkpt lat="44.0421172" lon="11.5115185"><ele>903.0</ele><time>2026-05-01T09:19:12.131Z</time></trkpt><trkpt lat="44.0420673" lon="11.5115735"><ele>898.6666666666667</ele><time>2026-05-01T09:19:14.135Z</time></trkpt><trkpt lat="44.0420003" lon="11.511663"><ele>894.3333333333334</ele><time>2026-05-01T09:19:16.131Z</time></trkpt><trkpt lat="44.0419457" lon="11.5117505"><ele>890.0</ele><time>2026-05-01T09:19:18.131Z</time></trkpt><trkpt lat="44.0419038" lon="11.5118248"><ele>890.0</ele><time>2026-05-01T09:19:27.131Z</time></trkpt><trkpt lat="44.0418525" lon="11.511897"><ele>890.0</ele><time>2026-05-01T09:19:40.133Z</time></trkpt><trkpt lat="44.0418763" lon="11.511988"><ele>890.0</ele><time>2026-05-01T09:19:44.133Z</time></trkpt><trkpt lat="44.041831" lon="11.5120702"><ele>890.0</ele><time>2026-05-01T09:19:48.133Z</time></trkpt><trkpt lat="44.0418005" lon="11.5121482"><ele>890.0</ele><time>2026-05-01T09:19:51.131Z</time></trkpt><trkpt lat="44.0418592" lon="11.5122073"><ele>890.0</ele><time>2026-05-01T09:19:56.134Z</time></trkpt><trkpt lat="44.0419237" lon="11.5121753"><ele>890.0</ele><time>2026-05-01T09:20:00.132Z</time></trkpt><trkpt lat="44.0419862" lon="11.5121427"><ele>886.8571428571429</ele><time>2026-05-01T09:20:24.132Z</time></trkpt><trkpt lat="44.0419907" lon="11.5122407"><ele>883.7142857142857</ele><time>2026-05-01T09:20:49.133Z</time></trkpt><trkpt lat="44.0419963" lon="11.5123413"><ele>880.5714285714286</ele><time>2026-05-01T09:20:56.132Z</time></trkpt><trkpt lat="44.0419658" lon="11.5124348"><ele>877.4285714285714</ele><time>2026-05-01T09:21:02.131Z</time></trkpt><trkpt lat="44.0419943" lon="11.5125148"><ele>874.2857142857142</ele><time>2026-05-01T09:21:14.131Z</time></trkpt><trkpt lat="44.0419245" lon="11.512605"><ele>871.1428571428571</ele><time>2026-05-01T09:21:43.132Z</time></trkpt><trkpt lat="44.0418692" lon="11.512669"><ele>868.0</ele><time>2026-05-01T09:21:45.132Z</time></trkpt><trkpt lat="44.0417927" lon="11.5127405"><ele>867.9999999999999</ele><time>2026-05-01T09:21:47.133Z</time></trkpt><trkpt lat="44.041724" lon="11.5127943"><ele>868.0</ele><time>2026-05-01T09:21:50.131Z</time></trkpt><trkpt lat="44.0416597" lon="11.5128225"><ele>868.0</ele><time>2026-05-01T09:21:54.129Z</time></trkpt><trkpt lat="44.0415993" lon="11.5128938"><ele>868.0</ele><time>2026-05-01T09:22:00.132Z</time></trkpt><trkpt lat="44.0415895" lon="11.5129863"><ele>867.9999999999999</ele><time>2026-05-01T09:22:03.131Z</time></trkpt><trkpt lat="44.0415498" lon="11.5131092"><ele>868.0</ele><time>2026-05-01T09:22:06.131Z</time></trkpt><trkpt lat="44.0415207" lon="11.5132"><ele>862.4999999999999</ele><time>2026-05-01T09:22:08.134Z</time></trkpt><trkpt lat="44.0414768" lon="11.513281"><ele>857.0</ele><time>2026-05-01T09:22:10.133Z</time></trkpt><trkpt lat="44.041436" lon="11.5133617"><ele>851.5</ele><time>2026-05-01T09:22:12.132Z</time></trkpt><trkpt lat="44.0413697" lon="11.5134423"><ele>846.0</ele><time>2026-05-01T09:22:14.132Z</time></trkpt><trkpt lat="44.0413203" lon="11.5134972"><ele>840.4999999999999</ele><time>2026-05-01T09:22:15.13Z</time></trkpt><trkpt lat="44.0412597" lon="11.5135663"><ele>835.0</ele><time>2026-05-01T09:22:16.129Z</time></trkpt><trkpt lat="44.0412112" lon="11.5136497"><ele>835.0000000000001</ele><time>2026-05-01T09:22:17.129Z</time></trkpt><trkpt lat="44.0411747" lon="11.513723"><ele>835.0</ele><time>2026-05-01T09:22:18.129Z</time></trkpt><trkpt lat="44.0411273" lon="11.5138197"><ele>835.0</ele><time>2026-05-01T09:22:20.132Z</time></trkpt><trkpt lat="44.0411" lon="11.513916"><ele>835.0</ele><time>2026-05-01T09:22:24.132Z</time></trkpt><trkpt lat="44.041093" lon="11.514004"><ele>835.0</ele><time>2026-05-01T09:22:26.133Z</time></trkpt><trkpt lat="44.0410627" lon="11.514089"><ele>835.0000000000001</ele><time>2026-05-01T09:22:28.133Z</time></trkpt><trkpt lat="44.0410073" lon="11.5141722"><ele>835.0</ele><time>2026-05-01T09:22:30.133Z</time></trkpt><trkpt lat="44.0409552" lon="11.5142773"><ele>835.1428571428572</ele><time>2026-05-01T09:22:32.133Z</time></trkpt><trkpt lat="44.0409212" lon="11.5143535"><ele>835.2857142857143</ele><time>2026-05-01T09:22:34.133Z</time></trkpt><trkpt lat="44.0408987" lon="11.514471"><ele>835.4285714285714</ele><time>2026-05-01T09:22:37.133Z</time></trkpt><trkpt lat="44.0408645" lon="11.5145478"><ele>835.5714285714287</ele><time>2026-05-01T09:22:39.133Z</time></trkpt><trkpt lat="44.0408128" lon="11.5146282"><ele>835.7142857142857</ele><time>2026-05-01T09:22:41.133Z</time></trkpt><trkpt lat="44.040758" lon="11.5147005"><ele>835.8571428571429</ele><time>2026-05-01T09:22:43.131Z</time></trkpt><trkpt lat="44.0407137" lon="11.5147807"><ele>836.0</ele><time>2026-05-01T09:22:45.133Z</time></trkpt><trkpt lat="44.0406787" lon="11.5148553"><ele>832.5000000000001</ele><time>2026-05-01T09:22:47.133Z</time></trkpt><trkpt lat="44.040646" lon="11.5149822"><ele>829.0</ele><time>2026-05-01T09:22:50.132Z</time></trkpt><trkpt lat="44.0406182" lon="11.5150773"><ele>825.5</ele><time>2026-05-01T09:22:53.133Z</time></trkpt><trkpt lat="44.040574" lon="11.515152"><ele>822.0</ele><time>2026-05-01T09:22:56.133Z</time></trkpt><trkpt lat="44.0405363" lon="11.515266"><ele>818.5000000000001</ele><time>2026-05-01T09:23:14.129Z</time></trkpt><trkpt lat="44.040514" lon="11.5153602"><ele>815.0</ele><time>2026-05-01T09:24:13.132Z</time></trkpt><trkpt lat="44.0404667" lon="11.515472"><ele>815.0</ele><time>2026-05-01T09:24:16.132Z</time></trkpt><trkpt lat="44.0404488" lon="11.5155932"><ele>815.0</ele><time>2026-05-01T09:24:19.131Z</time></trkpt><trkpt lat="44.040462" lon="11.5157582"><ele>815.0</ele><time>2026-05-01T09:24:21.13Z</time></trkpt><trkpt lat="44.0404983" lon="11.515888"><ele>815.0</ele><time>2026-05-01T09:24:23.132Z</time></trkpt><trkpt lat="44.04052" lon="11.5159997"><ele>815.0</ele><time>2026-05-01T09:24:25.131Z</time></trkpt><trkpt lat="44.0405257" lon="11.5161522"><ele>818.2</ele><time>2026-05-01T09:24:27.132Z</time></trkpt><trkpt lat="44.0405325" lon="11.5162897"><ele>821.4</ele><time>2026-05-01T09:24:29.133Z</time></trkpt><trkpt lat="44.0405168" lon="11.5164037"><ele>824.5999999999999</ele><time>2026-05-01T09:24:31.132Z</time></trkpt><trkpt lat="44.0404417" lon="11.5165138"><ele>827.8</ele><time>2026-05-01T09:24:33.132Z</time></trkpt><trkpt lat="44.0403915" lon="11.516572"><ele>831.0</ele><time>2026-05-01T09:24:34.132Z</time></trkpt><trkpt lat="44.0402895" lon="11.5166747"><ele>831.0</ele><time>2026-05-01T09:24:36.131Z</time></trkpt><trkpt lat="44.0402305" lon="11.5167885"><ele>831.0</ele><time>2026-05-01T09:24:38.133Z</time></trkpt><trkpt lat="44.0401812" lon="11.5168768"><ele>831.0</ele><time>2026-05-01T09:24:40.132Z</time></trkpt><trkpt lat="44.0401215" lon="11.5169778"><ele>831.0</ele><time>2026-05-01T09:24:42.132Z</time></trkpt><trkpt lat="44.0400642" lon="11.517086"><ele>831.0</ele><time>2026-05-01T09:24:44.131Z</time></trkpt><trkpt lat="44.040022" lon="11.517201"><ele>832.0</ele><time>2026-05-01T09:24:46.129Z</time></trkpt><trkpt lat="44.039988" lon="11.5173217"><ele>833.0</ele><time>2026-05-01T09:24:48.133Z</time></trkpt><trkpt lat="44.0399407" lon="11.5174627"><ele>834.0</ele><time>2026-05-01T09:24:50.132Z</time></trkpt><trkpt lat="44.0399343" lon="11.5176328"><ele>835.0</ele><time>2026-05-01T09:24:52.132Z</time></trkpt><trkpt lat="44.0399283" lon="11.5177447"><ele>836.0</ele><time>2026-05-01T09:24:53.131Z</time></trkpt><trkpt lat="44.0399172" lon="11.5178597"><ele>829.5999999999999</ele><time>2026-05-01T09:24:54.131Z</time></trkpt><trkpt lat="44.0399057" lon="11.5180128"><ele>823.2</ele><time>2026-05-01T09:24:56.133Z</time></trkpt><trkpt lat="44.0398857" lon="11.5181633"><ele>816.8</ele><time>2026-05-01T09:24:58.133Z</time></trkpt><trkpt lat="44.0398505" lon="11.5183287"><ele>810.4000000000001</ele><time>2026-05-01T09:25:00.133Z</time></trkpt><trkpt lat="44.039832" lon="11.5184717"><ele>804.0</ele><time>2026-05-01T09:25:02.134Z</time></trkpt><trkpt lat="44.0397922" lon="11.5186202"><ele>806.0</ele><time>2026-05-01T09:25:04.133Z</time></trkpt><trkpt lat="44.0397412" lon="11.5187623"><ele>808.0</ele><time>2026-05-01T09:25:06.132Z</time></trkpt><trkpt lat="44.0396748" lon="11.5189197"><ele>810.0</ele><time>2026-05-01T09:25:08.131Z</time></trkpt><trkpt lat="44.039641" lon="11.518998"><ele>812.0</ele><time>2026-05-01T09:25:09.131Z</time></trkpt><trkpt lat="44.0395658" lon="11.519105"><ele>814.0</ele><time>2026-05-01T09:25:11.132Z</time></trkpt><trkpt lat="44.0394692" lon="11.5191702"><ele>814.0</ele><time>2026-05-01T09:25:13.132Z</time></trkpt><trkpt lat="44.0393708" lon="11.5192637"><ele>814.0</ele><time>2026-05-01T09:25:15.132Z</time></trkpt><trkpt lat="44.03929" lon="11.5193607"><ele>814.0</ele><time>2026-05-01T09:25:17.133Z</time></trkpt><trkpt lat="44.0392038" lon="11.5194863"><ele>814.0</ele><time>2026-05-01T09:25:19.131Z</time></trkpt><trkpt lat="44.0391538" lon="11.5195588"><ele>814.0</ele><time>2026-05-01T09:25:20.131Z</time></trkpt><trkpt lat="44.0390963" lon="11.5196388"><ele>808.6</ele><time>2026-05-01T09:25:21.131Z</time></trkpt><trkpt lat="44.0390402" lon="11.5197302"><ele>803.2</ele><time>2026-05-01T09:25:22.131Z</time></trkpt><trkpt lat="44.0389738" lon="11.5198303"><ele>797.8000000000001</ele><time>2026-05-01T09:25:23.132Z</time></trkpt><trkpt lat="44.0389073" lon="11.5199458"><ele>792.4000000000001</ele><time>2026-05-01T09:25:24.132Z</time></trkpt><trkpt lat="44.0388468" lon="11.520053"><ele>787.0</ele><time>2026-05-01T09:25:25.132Z</time></trkpt><trkpt lat="44.0387952" lon="11.5201488"><ele>787.0</ele><time>2026-05-01T09:25:26.132Z</time></trkpt><trkpt lat="44.0387522" lon="11.5202522"><ele>787.0</ele><time>2026-05-01T09:25:27.132Z</time></trkpt><trkpt lat="44.0387142" lon="11.5203555"><ele>787.0</ele><time>2026-05-01T09:25:28.131Z</time></trkpt><trkpt lat="44.038689" lon="11.5204448"><ele>787.0</ele><time>2026-05-01T09:25:29.131Z</time></trkpt><trkpt lat="44.0386633" lon="11.52053"><ele>787.0</ele><time>2026-05-01T09:25:30.131Z</time></trkpt><trkpt lat="44.0386323" lon="11.5206158"><ele>787.0</ele><time>2026-05-01T09:25:31.132Z</time></trkpt><trkpt lat="44.0386087" lon="11.520699"><ele>787.0</ele><time>2026-05-01T09:25:32.131Z</time></trkpt><trkpt lat="44.0385412" lon="11.5208722"><ele>787.4999999999999</ele><time>2026-05-01T09:25:34.13Z</time></trkpt><trkpt lat="44.0385028" lon="11.5209533"><ele>788.0</ele><time>2026-05-01T09:25:35.13Z</time></trkpt><trkpt lat="44.0384633" lon="11.5210448"><ele>788.5</ele><time>2026-05-01T09:25:36.131Z</time></trkpt><trkpt lat="44.0384325" lon="11.5211237"><ele>789.0</ele><time>2026-05-01T09:25:37.132Z</time></trkpt><trkpt lat="44.0383862" lon="11.5212705"><ele>789.4999999999999</ele><time>2026-05-01T09:25:39.132Z</time></trkpt><trkpt lat="44.038328" lon="11.5214105"><ele>790.0</ele><time>2026-05-01T09:25:41.132Z</time></trkpt><trkpt lat="44.0382665" lon="11.5215458"><ele>790.0</ele><time>2026-05-01T09:25:43.132Z</time></trkpt><trkpt lat="44.0382233" lon="11.5216923"><ele>790.0</ele><time>2026-05-01T09:25:45.132Z</time></trkpt><trkpt lat="44.0382048" lon="11.5218653"><ele>790.0</ele><time>2026-05-01T09:25:47.132Z</time></trkpt><trkpt lat="44.038208" lon="11.521961"><ele>790.0</ele><time>2026-05-01T09:25:48.133Z</time></trkpt><trkpt lat="44.0382012" lon="11.5220672"><ele>790.0</ele><time>2026-05-01T09:25:49.132Z</time></trkpt><trkpt lat="44.0381875" lon="11.5221772"><ele>791.9999999999999</ele><time>2026-05-01T09:25:50.132Z</time></trkpt><trkpt lat="44.0381595" lon="11.5222807"><ele>794.0</ele><time>2026-05-01T09:25:51.131Z</time></trkpt><trkpt lat="44.038128" lon="11.5223683"><ele>796.0</ele><time>2026-05-01T09:25:52.132Z</time></trkpt><trkpt lat="44.038107" lon="11.522452"><ele>798.0</ele><time>2026-05-01T09:25:53.132Z</time></trkpt><trkpt lat="44.0380812" lon="11.522599"><ele>799.9999999999999</ele><time>2026-05-01T09:25:55.131Z</time></trkpt><trkpt lat="44.0381178" lon="11.5227207"><ele>802.0</ele><time>2026-05-01T09:25:57.13Z</time></trkpt><trkpt lat="44.0381352" lon="11.5228663"><ele>802.1666666666666</ele><time>2026-05-01T09:25:59.131Z</time></trkpt><trkpt lat="44.03813" lon="11.5229565"><ele>802.3333333333333</ele><time>2026-05-01T09:26:00.131Z</time></trkpt><trkpt lat="44.0380973" lon="11.5231103"><ele>802.5</ele><time>2026-05-01T09:26:02.132Z</time></trkpt><trkpt lat="44.0380625" lon="11.52325"><ele>802.6666666666667</ele><time>2026-05-01T09:26:04.132Z</time></trkpt><trkpt lat="44.0380385" lon="11.5233377"><ele>802.8333333333334</ele><time>2026-05-01T09:26:06.132Z</time></trkpt><trkpt lat="44.0380148" lon="11.523435"><ele>803.0</ele><time>2026-05-01T09:26:08.133Z</time></trkpt><trkpt lat="44.0379837" lon="11.5235787"><ele>803.0000000000001</ele><time>2026-05-01T09:26:10.132Z</time></trkpt><trkpt lat="44.0379543" lon="11.523709"><ele>803.0</ele><time>2026-05-01T09:26:12.132Z</time></trkpt><trkpt lat="44.0379375" lon="11.5238333"><ele>803.0</ele><time>2026-05-01T09:26:14.133Z</time></trkpt><trkpt lat="44.0379217" lon="11.5239528"><ele>803.0</ele><time>2026-05-01T09:26:17.133Z</time></trkpt><trkpt lat="44.0379035" lon="11.524078"><ele>803.0000000000001</ele><time>2026-05-01T09:26:20.133Z</time></trkpt><trkpt lat="44.0378855" lon="11.5241808"><ele>803.0</ele><time>2026-05-01T09:26:22.131Z</time></trkpt><trkpt lat="44.0378703" lon="11.524302"><ele>800.8</ele><time>2026-05-01T09:26:24.131Z</time></trkpt><trkpt lat="44.0378697" lon="11.524449"><ele>798.5999999999999</ele><time>2026-05-01T09:26:26.133Z</time></trkpt><trkpt lat="44.0378858" lon="11.52459"><ele>796.4000000000001</ele><time>2026-05-01T09:26:28.134Z</time></trkpt><trkpt lat="44.0378997" lon="11.5247162"><ele>794.2</ele><time>2026-05-01T09:26:30.132Z</time></trkpt><trkpt lat="44.0379185" lon="11.524837"><ele>792.0</ele><time>2026-05-01T09:26:32.133Z</time></trkpt><trkpt lat="44.0379177" lon="11.5249588"><ele>791.3333333333334</ele><time>2026-05-01T09:26:34.132Z</time></trkpt><trkpt lat="44.0379077" lon="11.5250575"><ele>790.6666666666667</ele><time>2026-05-01T09:26:36.132Z</time></trkpt><trkpt lat="44.0379012" lon="11.525174"><ele>790.0</ele><time>2026-05-01T09:26:39.133Z</time></trkpt><trkpt lat="44.037832" lon="11.5252222"><ele>789.3333333333334</ele><time>2026-05-01T09:26:42.132Z</time></trkpt><trkpt lat="44.0377575" lon="11.525229"><ele>788.6666666666667</ele><time>2026-05-01T09:26:46.13Z</time></trkpt><trkpt lat="44.0376885" lon="11.5252363"><ele>788.0</ele><time>2026-05-01T09:26:49.131Z</time></trkpt><trkpt lat="44.0376223" lon="11.5253135"><ele>788.0000000000001</ele><time>2026-05-01T09:26:53.131Z</time></trkpt><trkpt lat="44.0375745" lon="11.5253712"><ele>788.0</ele><time>2026-05-01T09:26:55.131Z</time></trkpt><trkpt lat="44.0375217" lon="11.5254265"><ele>788.0</ele><time>2026-05-01T09:26:57.132Z</time></trkpt><trkpt lat="44.0374823" lon="11.5255005"><ele>788.0</ele><time>2026-05-01T09:26:59.132Z</time></trkpt><trkpt lat="44.037396" lon="11.5255693"><ele>788.0000000000001</ele><time>2026-05-01T09:27:02.131Z</time></trkpt><trkpt lat="44.0373273" lon="11.5256698"><ele>788.0</ele><time>2026-05-01T09:27:04.133Z</time></trkpt><trkpt lat="44.0372798" lon="11.5257738"><ele>783.3333333333334</ele><time>2026-05-01T09:27:06.132Z</time></trkpt><trkpt lat="44.0372497" lon="11.5259208"><ele>778.6666666666667</ele><time>2026-05-01T09:27:08.134Z</time></trkpt><trkpt lat="44.0372138" lon="11.5260543"><ele>774.0</ele><time>2026-05-01T09:27:10.132Z</time></trkpt><trkpt lat="44.0371952" lon="11.5261568"><ele>769.3333333333334</ele><time>2026-05-01T09:27:12.131Z</time></trkpt><trkpt lat="44.0371935" lon="11.526245"><ele>764.6666666666667</ele><time>2026-05-01T09:27:14.134Z</time></trkpt><trkpt lat="44.0371642" lon="11.5263487"><ele>760.0</ele><time>2026-05-01T09:27:16.131Z</time></trkpt><trkpt lat="44.0371612" lon="11.526503"><ele>760.0</ele><time>2026-05-01T09:27:18.133Z</time></trkpt><trkpt lat="44.0371553" lon="11.5266105"><ele>760.0</ele><time>2026-05-01T09:27:23.134Z</time></trkpt><trkpt lat="44.0371448" lon="11.5267552"><ele>760.0</ele><time>2026-05-01T09:27:25.133Z</time></trkpt><trkpt lat="44.037136" lon="11.526849"><ele>760.0</ele><time>2026-05-01T09:27:26.133Z</time></trkpt><trkpt lat="44.037097" lon="11.5270102"><ele>760.0</ele><time>2026-05-01T09:27:28.134Z</time></trkpt><trkpt lat="44.037064" lon="11.527129"><ele>759.2857142857143</ele><time>2026-05-01T09:27:30.134Z</time></trkpt><trkpt lat="44.0370688" lon="11.527219"><ele>758.5714285714287</ele><time>2026-05-01T09:27:34.131Z</time></trkpt><trkpt lat="44.0371275" lon="11.5272713"><ele>757.8571428571429</ele><time>2026-05-01T09:27:39.132Z</time></trkpt><trkpt lat="44.0371718" lon="11.5273353"><ele>757.1428571428571</ele><time>2026-05-01T09:27:43.132Z</time></trkpt><trkpt lat="44.0372245" lon="11.5273835"><ele>756.4285714285714</ele><time>2026-05-01T09:27:46.132Z</time></trkpt><trkpt lat="44.0372777" lon="11.5274593"><ele>755.7142857142857</ele><time>2026-05-01T09:27:49.133Z</time></trkpt><trkpt lat="44.0373388" lon="11.527526"><ele>755.0</ele><time>2026-05-01T09:27:51.131Z</time></trkpt><trkpt lat="44.0373988" lon="11.5276215"><ele>755.0</ele><time>2026-05-01T09:27:53.131Z</time></trkpt><trkpt lat="44.037473" lon="11.5276962"><ele>755.0</ele><time>2026-05-01T09:27:55.131Z</time></trkpt><trkpt lat="44.037519" lon="11.5277868"><ele>755.0</ele><time>2026-05-01T09:27:58.131Z</time></trkpt><trkpt lat="44.037574" lon="11.5278753"><ele>755.0</ele><time>2026-05-01T09:28:00.129Z</time></trkpt><trkpt lat="44.0376172" lon="11.5279417"><ele>755.0</ele><time>2026-05-01T09:28:02.129Z</time></trkpt><trkpt lat="44.0376477" lon="11.5280208"><ele>755.0</ele><time>2026-05-01T09:28:08.131Z</time></trkpt><trkpt lat="44.0376702" lon="11.5281162"><ele>751.6666666666666</ele><time>2026-05-01T09:28:13.131Z</time></trkpt><trkpt lat="44.0376892" lon="11.5282142"><ele>748.3333333333333</ele><time>2026-05-01T09:28:19.13Z</time></trkpt><trkpt lat="44.0377517" lon="11.528291"><ele>745.0</ele><time>2026-05-01T09:28:22.13Z</time></trkpt><trkpt lat="44.0377568" lon="11.5283957"><ele>741.6666666666666</ele><time>2026-05-01T09:28:25.129Z</time></trkpt><trkpt lat="44.0377663" lon="11.5285072"><ele>738.3333333333334</ele><time>2026-05-01T09:28:27.13Z</time></trkpt><trkpt lat="44.0377435" lon="11.5286122"><ele>735.0</ele><time>2026-05-01T09:28:29.132Z</time></trkpt><trkpt lat="44.0377342" lon="11.5287063"><ele>732.2857142857143</ele><time>2026-05-01T09:28:31.132Z</time></trkpt><trkpt lat="44.0377667" lon="11.5288037"><ele>729.5714285714286</ele><time>2026-05-01T09:28:33.132Z</time></trkpt><trkpt lat="44.0377818" lon="11.5289322"><ele>726.8571428571429</ele><time>2026-05-01T09:28:36.132Z</time></trkpt><trkpt lat="44.0377907" lon="11.5290277"><ele>724.1428571428571</ele><time>2026-05-01T09:28:38.133Z</time></trkpt><trkpt lat="44.037813" lon="11.5291105"><ele>721.4285714285714</ele><time>2026-05-01T09:28:40.132Z</time></trkpt><trkpt lat="44.037802" lon="11.5292043"><ele>718.7142857142858</ele><time>2026-05-01T09:28:43.134Z</time></trkpt><trkpt lat="44.0377297" lon="11.529222"><ele>716.0</ele><time>2026-05-01T09:28:46.133Z</time></trkpt><trkpt lat="44.0376748" lon="11.5293052"><ele>716.0</ele><time>2026-05-01T09:28:49.131Z</time></trkpt><trkpt lat="44.0376635" lon="11.5294107"><ele>716.0</ele><time>2026-05-01T09:28:52.132Z</time></trkpt><trkpt lat="44.0376323" lon="11.5295077"><ele>716.0</ele><time>2026-05-01T09:28:56.133Z</time></trkpt><trkpt lat="44.0375983" lon="11.5295927"><ele>716.0</ele><time>2026-05-01T09:28:58.132Z</time></trkpt><trkpt lat="44.0375542" lon="11.5297035"><ele>716.0</ele><time>2026-05-01T09:29:00.133Z</time></trkpt><trkpt lat="44.0375352" lon="11.5298403"><ele>716.0</ele><time>2026-05-01T09:29:03.132Z</time></trkpt><trkpt lat="44.0375362" lon="11.5299958"><ele>713.8333333333333</ele><time>2026-05-01T09:29:05.132Z</time></trkpt><trkpt lat="44.037535" lon="11.530117"><ele>711.6666666666666</ele><time>2026-05-01T09:29:07.131Z</time></trkpt><trkpt lat="44.0375115" lon="11.5302192"><ele>709.5</ele><time>2026-05-01T09:29:09.131Z</time></trkpt><trkpt lat="44.0375292" lon="11.5303398"><ele>707.3333333333334</ele><time>2026-05-01T09:29:12.13Z</time></trkpt><trkpt lat="44.0375328" lon="11.5304733"><ele>705.1666666666667</ele><time>2026-05-01T09:29:14.13Z</time></trkpt><trkpt lat="44.0375142" lon="11.5305617"><ele>703.0</ele><time>2026-05-01T09:29:16.131Z</time></trkpt><trkpt lat="44.0374982" lon="11.5306697"><ele>696.8333333333334</ele><time>2026-05-01T09:29:19.132Z</time></trkpt><trkpt lat="44.0374683" lon="11.5307755"><ele>690.6666666666667</ele><time>2026-05-01T09:29:22.132Z</time></trkpt><trkpt lat="44.0374542" lon="11.5308767"><ele>684.5</ele><time>2026-05-01T09:29:24.132Z</time></trkpt><trkpt lat="44.0374315" lon="11.5309893"><ele>678.3333333333334</ele><time>2026-05-01T09:29:26.132Z</time></trkpt><trkpt lat="44.0374187" lon="11.5310972"><ele>672.1666666666666</ele><time>2026-05-01T09:29:28.132Z</time></trkpt><trkpt lat="44.0374017" lon="11.5311847"><ele>666.0</ele><time>2026-05-01T09:29:30.132Z</time></trkpt><trkpt lat="44.037394" lon="11.5312988"><ele>665.0</ele><time>2026-05-01T09:29:32.133Z</time></trkpt><trkpt lat="44.0373873" lon="11.5314108"><ele>664.0</ele><time>2026-05-01T09:29:34.132Z</time></trkpt><trkpt lat="44.0373923" lon="11.5315425"><ele>663.0</ele><time>2026-05-01T09:29:36.132Z</time></trkpt><trkpt lat="44.0373867" lon="11.5316667"><ele>662.0</ele><time>2026-05-01T09:29:38.131Z</time></trkpt><trkpt lat="44.0373622" lon="11.5317645"><ele>661.0</ele><time>2026-05-01T09:29:40.131Z</time></trkpt><trkpt lat="44.0373417" lon="11.5318895"><ele>660.0</ele><time>2026-05-01T09:29:42.132Z</time></trkpt><trkpt lat="44.0373347" lon="11.5319767"><ele>661.0</ele><time>2026-05-01T09:29:44.133Z</time></trkpt><trkpt lat="44.0373165" lon="11.5320698"><ele>662.0</ele><time>2026-05-01T09:29:47.133Z</time></trkpt><trkpt lat="44.0372815" lon="11.5322002"><ele>663.0</ele><time>2026-05-01T09:29:50.134Z</time></trkpt><trkpt lat="44.037255" lon="11.5322862"><ele>664.0</ele><time>2026-05-01T09:29:52.132Z</time></trkpt><trkpt lat="44.037253" lon="11.5324083"><ele>665.0</ele><time>2026-05-01T09:29:54.131Z</time></trkpt><trkpt lat="44.0372505" lon="11.5325407"><ele>666.0</ele><time>2026-05-01T09:29:56.132Z</time></trkpt><trkpt lat="44.0372407" lon="11.532682"><ele>666.0</ele><time>2026-05-01T09:29:58.133Z</time></trkpt><trkpt lat="44.0372788" lon="11.5327868"><ele>666.0</ele><time>2026-05-01T09:30:00.133Z</time></trkpt><trkpt lat="44.0373125" lon="11.532926"><ele>666.0</ele><time>2026-05-01T09:30:02.131Z</time></trkpt><trkpt lat="44.0373243" lon="11.5330328"><ele>666.0</ele><time>2026-05-01T09:30:04.133Z</time></trkpt><trkpt lat="44.0373268" lon="11.5331542"><ele>666.0</ele><time>2026-05-01T09:30:06.131Z</time></trkpt><trkpt lat="44.0373222" lon="11.533248"><ele>666.0</ele><time>2026-05-01T09:30:08.134Z</time></trkpt><trkpt lat="44.037297" lon="11.5333605"><ele>668.0</ele><time>2026-05-01T09:30:11.133Z</time></trkpt><trkpt lat="44.0372843" lon="11.5334927"><ele>670.0</ele><time>2026-05-01T09:30:14.133Z</time></trkpt><trkpt lat="44.0372932" lon="11.533599"><ele>672.0</ele><time>2026-05-01T09:30:16.131Z</time></trkpt><trkpt lat="44.0372957" lon="11.5336887"><ele>674.0</ele><time>2026-05-01T09:30:18.131Z</time></trkpt><trkpt lat="44.037285" lon="11.5337932"><ele>676.0</ele><time>2026-05-01T09:30:20.132Z</time></trkpt><trkpt lat="44.0372487" lon="11.5338793"><ele>678.0</ele><time>2026-05-01T09:30:22.133Z</time></trkpt><trkpt lat="44.0372057" lon="11.5339647"><ele>678.1666666666666</ele><time>2026-05-01T09:30:24.133Z</time></trkpt><trkpt lat="44.0371645" lon="11.5340612"><ele>678.3333333333334</ele><time>2026-05-01T09:30:26.131Z</time></trkpt><trkpt lat="44.0371417" lon="11.534175"><ele>678.5</ele><time>2026-05-01T09:30:28.131Z</time></trkpt><trkpt lat="44.0371868" lon="11.5343228"><ele>678.6666666666667</ele><time>2026-05-01T09:30:30.132Z</time></trkpt><trkpt lat="44.0372215" lon="11.5343997"><ele>678.8333333333334</ele><time>2026-05-01T09:30:31.132Z</time></trkpt><trkpt lat="44.0372657" lon="11.534474"><ele>679.0</ele><time>2026-05-01T09:30:32.132Z</time></trkpt><trkpt lat="44.0373068" lon="11.5345433"><ele>677.2</ele><time>2026-05-01T09:30:33.131Z</time></trkpt><trkpt lat="44.0373612" lon="11.5346723"><ele>675.4000000000001</ele><time>2026-05-01T09:30:35.133Z</time></trkpt><trkpt lat="44.0373842" lon="11.5348157"><ele>673.6</ele><time>2026-05-01T09:30:37.135Z</time></trkpt><trkpt lat="44.0373842" lon="11.5349033"><ele>671.8</ele><time>2026-05-01T09:30:38.133Z</time></trkpt><trkpt lat="44.0373827" lon="11.535056"><ele>670.0</ele><time>2026-05-01T09:30:40.132Z</time></trkpt><trkpt lat="44.0373397" lon="11.5351602"><ele>669.9999999999999</ele><time>2026-05-01T09:30:42.133Z</time></trkpt><trkpt lat="44.0373152" lon="11.5352485"><ele>670.0</ele><time>2026-05-01T09:30:45.133Z</time></trkpt><trkpt lat="44.03731" lon="11.5353452"><ele>670.0</ele><time>2026-05-01T09:31:01.133Z</time></trkpt><trkpt lat="44.0372728" lon="11.5354208"><ele>670.0</ele><time>2026-05-01T09:31:03.133Z</time></trkpt><trkpt lat="44.0372163" lon="11.5355147"><ele>670.0</ele><time>2026-05-01T09:31:05.134Z</time></trkpt><trkpt lat="44.037175" lon="11.535615"><ele>669.9999999999999</ele><time>2026-05-01T09:31:07.134Z</time></trkpt><trkpt lat="44.0371572" lon="11.5357003"><ele>670.0</ele><time>2026-05-01T09:31:09.134Z</time></trkpt><trkpt lat="44.0371642" lon="11.5358145"><ele>669.5</ele><time>2026-05-01T09:31:12.136Z</time></trkpt><trkpt lat="44.0372153" lon="11.5359213"><ele>669.0</ele><time>2026-05-01T09:31:15.131Z</time></trkpt><trkpt lat="44.0372485" lon="11.5360103"><ele>668.5</ele><time>2026-05-01T09:31:17.132Z</time></trkpt><trkpt lat="44.0372622" lon="11.5361002"><ele>668.0</ele><time>2026-05-01T09:31:19.133Z</time></trkpt><trkpt lat="44.0372983" lon="11.5361985"><ele>667.5</ele><time>2026-05-01T09:31:21.134Z</time></trkpt><trkpt lat="44.0372963" lon="11.5363127"><ele>667.0</ele><time>2026-05-01T09:31:23.134Z</time></trkpt><trkpt lat="44.0372747" lon="11.5364547"><ele>668.8</ele><time>2026-05-01T09:31:25.133Z</time></trkpt><trkpt lat="44.0372397" lon="11.5365748"><ele>670.6</ele><time>2026-05-01T09:31:28.133Z</time></trkpt><trkpt lat="44.0372258" lon="11.5367242"><ele>672.4</ele><time>2026-05-01T09:31:30.134Z</time></trkpt><trkpt lat="44.037202" lon="11.5368653"><ele>674.1999999999999</ele><time>2026-05-01T09:31:32.135Z</time></trkpt><trkpt lat="44.0371755" lon="11.5369672"><ele>676.0</ele><time>2026-05-01T09:31:34.135Z</time></trkpt><trkpt lat="44.0371198" lon="11.5370398"><ele>676.5714285714286</ele><time>2026-05-01T09:31:38.135Z</time></trkpt><trkpt lat="44.037075" lon="11.5371265"><ele>677.1428571428571</ele><time>2026-05-01T09:31:49.134Z</time></trkpt><trkpt lat="44.0370332" lon="11.5371928"><ele>677.7142857142858</ele><time>2026-05-01T09:31:55.133Z</time></trkpt><trkpt lat="44.0369785" lon="11.5372588"><ele>678.2857142857142</ele><time>2026-05-01T09:32:02.132Z</time></trkpt><trkpt lat="44.036919" lon="11.5373027"><ele>678.8571428571428</ele><time>2026-05-01T09:32:05.132Z</time></trkpt><trkpt lat="44.0368507" lon="11.5373438"><ele>679.4285714285714</ele><time>2026-05-01T09:32:08.134Z</time></trkpt><trkpt lat="44.036767" lon="11.5373752"><ele>680.0</ele><time>2026-05-01T09:32:11.133Z</time></trkpt><trkpt lat="44.0366923" lon="11.5373973"><ele>677.8333333333333</ele><time>2026-05-01T09:32:13.133Z</time></trkpt><trkpt lat="44.0366292" lon="11.5374212"><ele>675.6666666666666</ele><time>2026-05-01T09:32:16.134Z</time></trkpt><trkpt lat="44.0365355" lon="11.5374135"><ele>673.5</ele><time>2026-05-01T09:32:19.133Z</time></trkpt><trkpt lat="44.0364655" lon="11.5373938"><ele>671.3333333333334</ele><time>2026-05-01T09:32:23.134Z</time></trkpt><trkpt lat="44.0364033" lon="11.5373568"><ele>669.1666666666667</ele><time>2026-05-01T09:32:26.134Z</time></trkpt><trkpt lat="44.0363177" lon="11.5373893"><ele>667.0</ele><time>2026-05-01T09:32:30.133Z</time></trkpt><trkpt lat="44.0362448" lon="11.5374113"><ele>667.0</ele><time>2026-05-01T09:32:33.134Z</time></trkpt><trkpt lat="44.036173" lon="11.5374613"><ele>667.0</ele><time>2026-05-01T09:32:37.133Z</time></trkpt><trkpt lat="44.0360972" lon="11.5375312"><ele>667.0</ele><time>2026-05-01T09:32:40.132Z</time></trkpt><trkpt lat="44.0360257" lon="11.5375877"><ele>667.0</ele><time>2026-05-01T09:32:43.132Z</time></trkpt><trkpt lat="44.0359565" lon="11.5376265"><ele>667.0</ele><time>2026-05-01T09:32:46.132Z</time></trkpt><trkpt lat="44.035887" lon="11.5376663"><ele>667.0</ele><time>2026-05-01T09:32:49.132Z</time></trkpt><trkpt lat="44.0359087" lon="11.537758"><ele>667.0</ele><time>2026-05-01T09:32:54.131Z</time></trkpt><trkpt lat="44.0359747" lon="11.5378395"><ele>667.0</ele><time>2026-05-01T09:32:57.132Z</time></trkpt><trkpt lat="44.0360288" lon="11.5379008"><ele>667.0</ele><time>2026-05-01T09:33:02.133Z</time></trkpt><trkpt lat="44.0361002" lon="11.5379608"><ele>667.0</ele><time>2026-05-01T09:33:05.133Z</time></trkpt><trkpt lat="44.0361208" lon="11.5380517"><ele>667.0</ele><time>2026-05-01T09:33:15.132Z</time></trkpt><trkpt lat="44.036167" lon="11.538133"><ele>667.0</ele><time>2026-05-01T09:33:18.131Z</time></trkpt><trkpt lat="44.0361892" lon="11.5382313"><ele>664.6666666666667</ele><time>2026-05-01T09:33:21.133Z</time></trkpt><trkpt lat="44.0362223" lon="11.5383513"><ele>662.3333333333334</ele><time>2026-05-01T09:33:25.131Z</time></trkpt><trkpt lat="44.036238" lon="11.5384567"><ele>660.0</ele><time>2026-05-01T09:33:27.131Z</time></trkpt><trkpt lat="44.036237" lon="11.538589"><ele>657.6666666666666</ele><time>2026-05-01T09:33:29.135Z</time></trkpt><trkpt lat="44.0362528" lon="11.5387182"><ele>655.3333333333333</ele><time>2026-05-01T09:33:31.134Z</time></trkpt><trkpt lat="44.0362557" lon="11.5388093"><ele>653.0</ele><time>2026-05-01T09:33:32.134Z</time></trkpt><trkpt lat="44.0362343" lon="11.5389485"><ele>651.5714285714287</ele><time>2026-05-01T09:33:34.135Z</time></trkpt><trkpt lat="44.0362008" lon="11.5390248"><ele>650.1428571428571</ele><time>2026-05-01T09:33:36.134Z</time></trkpt><trkpt lat="44.036129" lon="11.5390932"><ele>648.7142857142858</ele><time>2026-05-01T09:33:39.134Z</time></trkpt><trkpt lat="44.0360732" lon="11.5391363"><ele>647.2857142857143</ele><time>2026-05-01T09:33:41.134Z</time></trkpt><trkpt lat="44.035997" lon="11.5391908"><ele>645.8571428571429</ele><time>2026-05-01T09:33:44.132Z</time></trkpt><trkpt lat="44.0359392" lon="11.5392413"><ele>644.4285714285714</ele><time>2026-05-01T09:33:46.134Z</time></trkpt><trkpt lat="44.0358793" lon="11.5393013"><ele>643.0</ele><time>2026-05-01T09:33:48.135Z</time></trkpt><trkpt lat="44.0358148" lon="11.5393643"><ele>637.8333333333334</ele><time>2026-05-01T09:33:50.134Z</time></trkpt><trkpt lat="44.0357632" lon="11.5394315"><ele>632.6666666666667</ele><time>2026-05-01T09:33:52.134Z</time></trkpt><trkpt lat="44.0357712" lon="11.5395318"><ele>627.5</ele><time>2026-05-01T09:33:55.134Z</time></trkpt><trkpt lat="44.0357913" lon="11.5396595"><ele>622.3333333333334</ele><time>2026-05-01T09:33:58.134Z</time></trkpt><trkpt lat="44.0358022" lon="11.5397697"><ele>617.1666666666666</ele><time>2026-05-01T09:34:00.134Z</time></trkpt><trkpt lat="44.035795" lon="11.5398797"><ele>612.0</ele><time>2026-05-01T09:34:02.135Z</time></trkpt><trkpt lat="44.0357587" lon="11.5399752"><ele>610.5714285714286</ele><time>2026-05-01T09:34:04.134Z</time></trkpt><trkpt lat="44.0357" lon="11.540039"><ele>609.1428571428571</ele><time>2026-05-01T09:34:06.133Z</time></trkpt><trkpt lat="44.0356563" lon="11.5401293"><ele>607.7142857142858</ele><time>2026-05-01T09:34:08.132Z</time></trkpt><trkpt lat="44.0355883" lon="11.5402037"><ele>606.2857142857142</ele><time>2026-05-01T09:34:10.133Z</time></trkpt><trkpt lat="44.0355352" lon="11.5402783"><ele>604.8571428571429</ele><time>2026-05-01T09:34:12.133Z</time></trkpt><trkpt lat="44.0355035" lon="11.5403622"><ele>603.4285714285714</ele><time>2026-05-01T09:34:14.134Z</time></trkpt><trkpt lat="44.0354638" lon="11.5404353"><ele>602.0</ele><time>2026-05-01T09:34:17.138Z</time></trkpt><trkpt lat="44.0354243" lon="11.5405192"><ele>599.8571428571429</ele><time>2026-05-01T09:34:19.133Z</time></trkpt><trkpt lat="44.0354057" lon="11.5406333"><ele>597.7142857142858</ele><time>2026-05-01T09:34:22.133Z</time></trkpt><trkpt lat="44.0353883" lon="11.5407202"><ele>595.5714285714286</ele><time>2026-05-01T09:34:26.134Z</time></trkpt><trkpt lat="44.035392" lon="11.5408215"><ele>593.4285714285714</ele><time>2026-05-01T09:34:31.133Z</time></trkpt><trkpt lat="44.0354058" lon="11.5409095"><ele>591.2857142857143</ele><time>2026-05-01T09:34:34.132Z</time></trkpt><trkpt lat="44.0353943" lon="11.5410253"><ele>589.1428571428571</ele><time>2026-05-01T09:34:37.134Z</time></trkpt><trkpt lat="44.0353917" lon="11.5411212"><ele>587.0</ele><time>2026-05-01T09:34:39.135Z</time></trkpt><trkpt lat="44.0353818" lon="11.54121"><ele>587.0</ele><time>2026-05-01T09:34:41.135Z</time></trkpt><trkpt lat="44.0353147" lon="11.5411927"><ele>587.0</ele><time>2026-05-01T09:35:45.133Z</time></trkpt><trkpt lat="44.0352842" lon="11.5411132"><ele>587.0</ele><time>2026-05-01T09:35:48.134Z</time></trkpt><trkpt lat="44.0352495" lon="11.5410257"><ele>587.0</ele><time>2026-05-01T09:36:05.135Z</time></trkpt><trkpt lat="44.0352302" lon="11.5409373"><ele>587.0</ele><time>2026-05-01T09:36:11.132Z</time></trkpt><trkpt lat="44.0351928" lon="11.5408648"><ele>587.0</ele><time>2026-05-01T09:36:26.134Z</time></trkpt><trkpt lat="44.0351333" lon="11.5408078"><ele>587.0</ele><time>2026-05-01T09:36:31.133Z</time></trkpt><trkpt lat="44.0350763" lon="11.5407505"><ele>587.0</ele><time>2026-05-01T09:36:37.133Z</time></trkpt><trkpt lat="44.0350747" lon="11.5408418"><ele>587.0</ele><time>2026-05-01T09:36:46.133Z</time></trkpt><trkpt lat="44.035099" lon="11.5409392"><ele>587.0</ele><time>2026-05-01T09:36:50.133Z</time></trkpt><trkpt lat="44.0351098" lon="11.5410308"><ele>587.0</ele><time>2026-05-01T09:36:54.133Z</time></trkpt><trkpt lat="44.0351058" lon="11.5411235"><ele>587.0</ele><time>2026-05-01T09:36:57.133Z</time></trkpt><trkpt lat="44.0350535" lon="11.5412137"><ele>587.0</ele><time>2026-05-01T09:37:01.134Z</time></trkpt><trkpt lat="44.0350085" lon="11.5411225"><ele>587.0</ele><time>2026-05-01T09:37:06.135Z</time></trkpt><trkpt lat="44.0349732" lon="11.541043"><ele>582.1428571428571</ele><time>2026-05-01T09:37:10.133Z</time></trkpt><trkpt lat="44.0349257" lon="11.5409695"><ele>577.2857142857143</ele><time>2026-05-01T09:37:13.134Z</time></trkpt><trkpt lat="44.0348883" lon="11.5408988"><ele>572.4285714285714</ele><time>2026-05-01T09:37:16.132Z</time></trkpt><trkpt lat="44.0348497" lon="11.5409762"><ele>567.5714285714286</ele><time>2026-05-01T09:37:42.134Z</time></trkpt><trkpt lat="44.034856" lon="11.541066"><ele>562.7142857142858</ele><time>2026-05-01T09:37:48.133Z</time></trkpt><trkpt lat="44.034831" lon="11.5411652"><ele>557.8571428571429</ele><time>2026-05-01T09:37:58.133Z</time></trkpt><trkpt lat="44.0348148" lon="11.5412515"><ele>553.0</ele><time>2026-05-01T09:38:03.133Z</time></trkpt><trkpt lat="44.0347642" lon="11.541356"><ele>552.0</ele><time>2026-05-01T09:38:11.133Z</time></trkpt><trkpt lat="44.0347517" lon="11.541461"><ele>551.0</ele><time>2026-05-01T09:38:14.133Z</time></trkpt><trkpt lat="44.0347497" lon="11.5415792"><ele>550.0</ele><time>2026-05-01T09:38:16.134Z</time></trkpt><trkpt lat="44.034743" lon="11.5417648"><ele>549.0</ele><time>2026-05-01T09:38:18.134Z</time></trkpt><trkpt lat="44.0347343" lon="11.5418798"><ele>548.0</ele><time>2026-05-01T09:38:19.134Z</time></trkpt><trkpt lat="44.0347108" lon="11.5419988"><ele>547.8</ele><time>2026-05-01T09:38:20.133Z</time></trkpt><trkpt lat="44.034674" lon="11.542109"><ele>547.5999999999999</ele><time>2026-05-01T09:38:21.133Z</time></trkpt><trkpt lat="44.0346257" lon="11.542209"><ele>547.4000000000001</ele><time>2026-05-01T09:38:22.133Z</time></trkpt><trkpt lat="44.0345578" lon="11.5423153"><ele>547.2</ele><time>2026-05-01T09:38:23.134Z</time></trkpt><trkpt lat="44.0344878" lon="11.542421"><ele>547.0</ele><time>2026-05-01T09:38:24.132Z</time></trkpt><trkpt lat="44.0344258" lon="11.5425263"><ele>547.0</ele><time>2026-05-01T09:38:25.133Z</time></trkpt><trkpt lat="44.0343632" lon="11.5426328"><ele>547.0</ele><time>2026-05-01T09:38:26.133Z</time></trkpt><trkpt lat="44.0342968" lon="11.5427313"><ele>547.0</ele><time>2026-05-01T09:38:27.132Z</time></trkpt><trkpt lat="44.0342325" lon="11.5428255"><ele>547.0</ele><time>2026-05-01T09:38:28.133Z</time></trkpt><trkpt lat="44.0341722" lon="11.5429168"><ele>547.0</ele><time>2026-05-01T09:38:29.133Z</time></trkpt><trkpt lat="44.0341165" lon="11.5430062"><ele>547.3333333333334</ele><time>2026-05-01T09:38:30.132Z</time></trkpt><trkpt lat="44.0340668" lon="11.543094"><ele>547.6666666666667</ele><time>2026-05-01T09:38:31.133Z</time></trkpt><trkpt lat="44.0340295" lon="11.543186"><ele>548.0</ele><time>2026-05-01T09:38:32.133Z</time></trkpt><trkpt lat="44.0340125" lon="11.543289"><ele>548.3333333333334</ele><time>2026-05-01T09:38:33.134Z</time></trkpt><trkpt lat="44.0340253" lon="11.5433917"><ele>548.6666666666666</ele><time>2026-05-01T09:38:34.135Z</time></trkpt><trkpt lat="44.034069" lon="11.5434798"><ele>549.0</ele><time>2026-05-01T09:38:35.134Z</time></trkpt><trkpt lat="44.0341412" lon="11.543546"><ele>549.0</ele><time>2026-05-01T09:38:36.135Z</time></trkpt><trkpt lat="44.034228" lon="11.5436037"><ele>549.0</ele><time>2026-05-01T09:38:37.131Z</time></trkpt><trkpt lat="44.0343228" lon="11.5436645"><ele>549.0</ele><time>2026-05-01T09:38:38.132Z</time></trkpt><trkpt lat="44.0344238" lon="11.5437343"><ele>549.0</ele><time>2026-05-01T09:38:39.132Z</time></trkpt><trkpt lat="44.0345228" lon="11.5438025"><ele>549.0</ele><time>2026-05-01T09:38:40.133Z</time></trkpt><trkpt lat="44.0346132" lon="11.5438715"><ele>548.2</ele><time>2026-05-01T09:38:41.133Z</time></trkpt><trkpt lat="44.034693" lon="11.5439503"><ele>547.4</ele><time>2026-05-01T09:38:42.133Z</time></trkpt><trkpt lat="44.0347683" lon="11.5440383"><ele>546.6</ele><time>2026-05-01T09:38:43.133Z</time></trkpt><trkpt lat="44.0348407" lon="11.5441255"><ele>545.8</ele><time>2026-05-01T09:38:44.133Z</time></trkpt><trkpt lat="44.0349117" lon="11.5442078"><ele>545.0</ele><time>2026-05-01T09:38:45.134Z</time></trkpt><trkpt lat="44.0349797" lon="11.5442823"><ele>544.8333333333333</ele><time>2026-05-01T09:38:46.132Z</time></trkpt><trkpt lat="44.0350482" lon="11.5443408"><ele>544.6666666666666</ele><time>2026-05-01T09:38:47.133Z</time></trkpt><trkpt lat="44.0351213" lon="11.5443875"><ele>544.5</ele><time>2026-05-01T09:38:48.134Z</time></trkpt><trkpt lat="44.0351983" lon="11.5444298"><ele>544.3333333333334</ele><time>2026-05-01T09:38:49.133Z</time></trkpt><trkpt lat="44.0352795" lon="11.5444685"><ele>544.1666666666667</ele><time>2026-05-01T09:38:50.134Z</time></trkpt><trkpt lat="44.0353608" lon="11.5445082"><ele>544.0</ele><time>2026-05-01T09:38:51.134Z</time></trkpt><trkpt lat="44.0354382" lon="11.5445542"><ele>543.1666666666667</ele><time>2026-05-01T09:38:52.132Z</time></trkpt><trkpt lat="44.035507" lon="11.544613"><ele>542.3333333333334</ele><time>2026-05-01T09:38:53.133Z</time></trkpt><trkpt lat="44.0355545" lon="11.5446927"><ele>541.5</ele><time>2026-05-01T09:38:54.133Z</time></trkpt><trkpt lat="44.0355852" lon="11.5447933"><ele>540.6666666666666</ele><time>2026-05-01T09:38:55.134Z</time></trkpt><trkpt lat="44.035611" lon="11.5449075"><ele>539.8333333333333</ele><time>2026-05-01T09:38:56.134Z</time></trkpt><trkpt lat="44.0356403" lon="11.5450257"><ele>539.0</ele><time>2026-05-01T09:38:57.132Z</time></trkpt><trkpt lat="44.0356765" lon="11.5451375"><ele>539.0</ele><time>2026-05-01T09:38:58.133Z</time></trkpt><trkpt lat="44.0357182" lon="11.5452422"><ele>539.0</ele><time>2026-05-01T09:38:59.133Z</time></trkpt><trkpt lat="44.0357607" lon="11.5453403"><ele>539.0</ele><time>2026-05-01T09:39:00.132Z</time></trkpt><trkpt lat="44.0358052" lon="11.5454323"><ele>539.0</ele><time>2026-05-01T09:39:01.132Z</time></trkpt><trkpt lat="44.0358542" lon="11.5455212"><ele>539.0</ele><time>2026-05-01T09:39:02.131Z</time></trkpt><trkpt lat="44.035908" lon="11.5456083"><ele>539.0</ele><time>2026-05-01T09:39:03.131Z</time></trkpt><trkpt lat="44.0359672" lon="11.5456898"><ele>538.5</ele><time>2026-05-01T09:39:04.133Z</time></trkpt><trkpt lat="44.0360287" lon="11.5457712"><ele>538.0</ele><time>2026-05-01T09:39:05.133Z</time></trkpt><trkpt lat="44.0360918" lon="11.5458537"><ele>537.5</ele><time>2026-05-01T09:39:06.134Z</time></trkpt><trkpt lat="44.036153" lon="11.545936"><ele>537.0</ele><time>2026-05-01T09:39:07.134Z</time></trkpt><trkpt lat="44.0362147" lon="11.5460175"><ele>536.5</ele><time>2026-05-01T09:39:08.134Z</time></trkpt><trkpt lat="44.0362755" lon="11.5460972"><ele>536.0</ele><time>2026-05-01T09:39:09.134Z</time></trkpt><trkpt lat="44.0363388" lon="11.5461767"><ele>536.6666666666666</ele><time>2026-05-01T09:39:10.134Z</time></trkpt><trkpt lat="44.0364093" lon="11.5462532"><ele>537.3333333333333</ele><time>2026-05-01T09:39:11.133Z</time></trkpt><trkpt lat="44.0364795" lon="11.5463252"><ele>538.0</ele><time>2026-05-01T09:39:12.132Z</time></trkpt><trkpt lat="44.0365472" lon="11.5464022"><ele>538.6666666666666</ele><time>2026-05-01T09:39:13.133Z</time></trkpt><trkpt lat="44.0366028" lon="11.5464967"><ele>539.3333333333334</ele><time>2026-05-01T09:39:14.133Z</time></trkpt><trkpt lat="44.0366547" lon="11.5466043"><ele>540.0</ele><time>2026-05-01T09:39:15.132Z</time></trkpt><trkpt lat="44.036707" lon="11.5467203"><ele>540.0</ele><time>2026-05-01T09:39:16.134Z</time></trkpt><trkpt lat="44.0367643" lon="11.546836"><ele>540.0</ele><time>2026-05-01T09:39:17.134Z</time></trkpt><trkpt lat="44.0368243" lon="11.5469527"><ele>540.0</ele><time>2026-05-01T09:39:18.134Z</time></trkpt><trkpt lat="44.0368827" lon="11.5470793"><ele>540.0</ele><time>2026-05-01T09:39:19.134Z</time></trkpt><trkpt lat="44.0369447" lon="11.5472067"><ele>540.0</ele><time>2026-05-01T09:39:20.135Z</time></trkpt><trkpt lat="44.0370078" lon="11.5473362"><ele>539.2</ele><time>2026-05-01T09:39:21.135Z</time></trkpt><trkpt lat="44.0370685" lon="11.5474642"><ele>538.4</ele><time>2026-05-01T09:39:22.133Z</time></trkpt><trkpt lat="44.0371272" lon="11.5475948"><ele>537.6</ele><time>2026-05-01T09:39:23.134Z</time></trkpt><trkpt lat="44.0371892" lon="11.5477248"><ele>536.8</ele><time>2026-05-01T09:39:24.134Z</time></trkpt><trkpt lat="44.0372585" lon="11.5478393"><ele>536.0</ele><time>2026-05-01T09:39:25.132Z</time></trkpt><trkpt lat="44.0373368" lon="11.5479472"><ele>536.0</ele><time>2026-05-01T09:39:26.133Z</time></trkpt><trkpt lat="44.0374282" lon="11.5480398"><ele>536.0</ele><time>2026-05-01T09:39:27.131Z</time></trkpt><trkpt lat="44.0375177" lon="11.5481298"><ele>536.0</ele><time>2026-05-01T09:39:28.132Z</time></trkpt><trkpt lat="44.0376045" lon="11.5482128"><ele>536.0</ele><time>2026-05-01T09:39:29.133Z</time></trkpt><trkpt lat="44.0376937" lon="11.5482737"><ele>536.0</ele><time>2026-05-01T09:39:30.132Z</time></trkpt><trkpt lat="44.0377925" lon="11.548309"><ele>535.25</ele><time>2026-05-01T09:39:31.134Z</time></trkpt><trkpt lat="44.0379065" lon="11.5483062"><ele>534.5</ele><time>2026-05-01T09:39:32.134Z</time></trkpt><trkpt lat="44.0380263" lon="11.548291"><ele>533.75</ele><time>2026-05-01T09:39:33.133Z</time></trkpt><trkpt lat="44.0381493" lon="11.5482717"><ele>533.0</ele><time>2026-05-01T09:39:34.133Z</time></trkpt><trkpt lat="44.0382763" lon="11.548259"><ele>533.0</ele><time>2026-05-01T09:39:35.134Z</time></trkpt><trkpt lat="44.0383982" lon="11.5482475"><ele>533.0</ele><time>2026-05-01T09:39:36.134Z</time></trkpt><trkpt lat="44.0385128" lon="11.5482362"><ele>533.0</ele><time>2026-05-01T09:39:37.133Z</time></trkpt><trkpt lat="44.0386233" lon="11.5482218"><ele>533.0</ele><time>2026-05-01T09:39:38.134Z</time></trkpt><trkpt lat="44.0387353" lon="11.5482022"><ele>533.0</ele><time>2026-05-01T09:39:39.132Z</time></trkpt><trkpt lat="44.0388487" lon="11.5481823"><ele>533.0</ele><time>2026-05-01T09:39:40.133Z</time></trkpt><trkpt lat="44.0389598" lon="11.5481703"><ele>533.0</ele><time>2026-05-01T09:39:41.133Z</time></trkpt><trkpt lat="44.0390608" lon="11.5481635"><ele>533.0</ele><time>2026-05-01T09:39:42.132Z</time></trkpt><trkpt lat="44.0391617" lon="11.548157"><ele>533.0</ele><time>2026-05-01T09:39:43.133Z</time></trkpt><trkpt lat="44.0392645" lon="11.5481407"><ele>532.0</ele><time>2026-05-01T09:39:44.134Z</time></trkpt><trkpt lat="44.0393652" lon="11.5481302"><ele>532.0</ele><time>2026-05-01T09:39:45.133Z</time></trkpt><trkpt lat="44.0394583" lon="11.5481257"><ele>532.0</ele><time>2026-05-01T09:39:46.132Z</time></trkpt><trkpt lat="44.0395402" lon="11.5481258"><ele>532.0</ele><time>2026-05-01T09:39:47.133Z</time></trkpt><trkpt lat="44.039606" lon="11.5481305"><ele>532.0</ele><time>2026-05-01T09:39:48.132Z</time></trkpt><trkpt lat="44.0396718" lon="11.5481545"><ele>532.0</ele><time>2026-05-01T09:39:50.132Z</time></trkpt></trkseg><trkseg><trkpt lat="44.0397545" lon="11.547936"><ele>532.0</ele><time>2026-05-01T10:47:33.915Z</time></trkpt><trkpt lat="44.0395622" lon="11.5480647"><ele>532.0</ele><time>2026-05-01T10:47:38.937Z</time></trkpt><trkpt lat="44.039636" lon="11.5481237"><ele>532.0</ele><time>2026-05-01T10:47:41.936Z</time></trkpt><trkpt lat="44.0397138" lon="11.548214"><ele>532.0</ele><time>2026-05-01T10:49:56.13Z</time></trkpt><trkpt lat="44.0397727" lon="11.5482475"><ele>532.0</ele><time>2026-05-01T10:49:58.13Z</time></trkpt><trkpt lat="44.0398722" lon="11.5482467"><ele>532.0</ele><time>2026-05-01T10:50:00.131Z</time></trkpt><trkpt lat="44.0399945" lon="11.5482565"><ele>532.0</ele><time>2026-05-01T10:50:02.131Z</time></trkpt><trkpt lat="44.0400593" lon="11.5482547"><ele>532.0</ele><time>2026-05-01T10:50:03.131Z</time></trkpt><trkpt lat="44.0401312" lon="11.5482545"><ele>532.0</ele><time>2026-05-01T10:50:04.129Z</time></trkpt><trkpt lat="44.040204" lon="11.5482513"><ele>532.0</ele><time>2026-05-01T10:50:05.129Z</time></trkpt><trkpt lat="44.040277" lon="11.5482535"><ele>531.7142857142857</ele><time>2026-05-01T10:50:06.129Z</time></trkpt><trkpt lat="44.0403468" lon="11.5482578"><ele>531.4285714285714</ele><time>2026-05-01T10:50:07.13Z</time></trkpt><trkpt lat="44.0404182" lon="11.548262"><ele>531.1428571428571</ele><time>2026-05-01T10:50:08.129Z</time></trkpt><trkpt lat="44.0404897" lon="11.5482517"><ele>530.8571428571429</ele><time>2026-05-01T10:50:09.131Z</time></trkpt><trkpt lat="44.0405533" lon="11.548237"><ele>530.5714285714286</ele><time>2026-05-01T10:50:10.131Z</time></trkpt><trkpt lat="44.0406223" lon="11.5482192"><ele>530.2857142857142</ele><time>2026-05-01T10:50:11.131Z</time></trkpt><trkpt lat="44.040701" lon="11.5482023"><ele>530.0</ele><time>2026-05-01T10:50:12.134Z</time></trkpt><trkpt lat="44.0407867" lon="11.5481845"><ele>529.4</ele><time>2026-05-01T10:50:13.132Z</time></trkpt><trkpt lat="44.040876" lon="11.5481617"><ele>528.8</ele><time>2026-05-01T10:50:14.132Z</time></trkpt><trkpt lat="44.0409703" lon="11.5481358"><ele>528.2</ele><time>2026-05-01T10:50:15.132Z</time></trkpt><trkpt lat="44.0410685" lon="11.548109"><ele>527.6</ele><time>2026-05-01T10:50:16.13Z</time></trkpt><trkpt lat="44.0411722" lon="11.5480832"><ele>527.0</ele><time>2026-05-01T10:50:17.131Z</time></trkpt><trkpt lat="44.0412795" lon="11.5480553"><ele>527.0</ele><time>2026-05-01T10:50:18.13Z</time></trkpt><trkpt lat="44.0413873" lon="11.5480265"><ele>527.0</ele><time>2026-05-01T10:50:19.132Z</time></trkpt><trkpt lat="44.0414973" lon="11.5479837"><ele>527.0</ele><time>2026-05-01T10:50:20.131Z</time></trkpt><trkpt lat="44.0416085" lon="11.547944"><ele>527.0</ele><time>2026-05-01T10:50:21.134Z</time></trkpt><trkpt lat="44.041723" lon="11.5479137"><ele>526.5</ele><time>2026-05-01T10:50:22.132Z</time></trkpt><trkpt lat="44.0418418" lon="11.5478818"><ele>526.0</ele><time>2026-05-01T10:50:23.13Z</time></trkpt><trkpt lat="44.0419612" lon="11.5478485"><ele>525.5</ele><time>2026-05-01T10:50:24.131Z</time></trkpt><trkpt lat="44.0420802" lon="11.5478143"><ele>525.0</ele><time>2026-05-01T10:50:25.13Z</time></trkpt><trkpt lat="44.0421997" lon="11.5477833"><ele>525.0</ele><time>2026-05-01T10:50:26.13Z</time></trkpt><trkpt lat="44.0423198" lon="11.5477665"><ele>525.0</ele><time>2026-05-01T10:50:27.13Z</time></trkpt><trkpt lat="44.0424413" lon="11.5477787"><ele>525.0</ele><time>2026-05-01T10:50:28.131Z</time></trkpt><trkpt lat="44.0425572" lon="11.5478222"><ele>525.0</ele><time>2026-05-01T10:50:29.129Z</time></trkpt><trkpt lat="44.0426727" lon="11.5478775"><ele>525.0</ele><time>2026-05-01T10:50:30.131Z</time></trkpt><trkpt lat="44.0427913" lon="11.5479258"><ele>525.0</ele><time>2026-05-01T10:50:31.131Z</time></trkpt><trkpt lat="44.0429147" lon="11.5479538"><ele>525.0</ele><time>2026-05-01T10:50:32.131Z</time></trkpt><trkpt lat="44.0430408" lon="11.547957"><ele>525.0</ele><time>2026-05-01T10:50:33.131Z</time></trkpt><trkpt lat="44.043171" lon="11.5479405"><ele>525.0</ele><time>2026-05-01T10:50:34.132Z</time></trkpt><trkpt lat="44.0432958" lon="11.5479145"><ele>525.0</ele><time>2026-05-01T10:50:35.131Z</time></trkpt><trkpt lat="44.0434197" lon="11.5478842"><ele>525.0</ele><time>2026-05-01T10:50:36.133Z</time></trkpt><trkpt lat="44.0435367" lon="11.5478682"><ele>525.0</ele><time>2026-05-01T10:50:37.132Z</time></trkpt><trkpt lat="44.043642" lon="11.5478763"><ele>524.4</ele><time>2026-05-01T10:50:38.131Z</time></trkpt><trkpt lat="44.0437365" lon="11.5479333"><ele>523.8</ele><time>2026-05-01T10:50:39.132Z</time></trkpt><trkpt lat="44.04382" lon="11.5480207"><ele>523.2</ele><time>2026-05-01T10:50:40.13Z</time></trkpt><trkpt lat="44.0439115" lon="11.5480775"><ele>522.6</ele><time>2026-05-01T10:50:41.131Z</time></trkpt><trkpt lat="44.044009" lon="11.548094"><ele>522.0</ele><time>2026-05-01T10:50:42.131Z</time></trkpt><trkpt lat="44.0441047" lon="11.5480593"><ele>521.6</ele><time>2026-05-01T10:50:43.131Z</time></trkpt><trkpt lat="44.0441853" lon="11.547976"><ele>521.2</ele><time>2026-05-01T10:50:44.131Z</time></trkpt><trkpt lat="44.0442635" lon="11.5478712"><ele>520.8</ele><time>2026-05-01T10:50:45.134Z</time></trkpt><trkpt lat="44.0443522" lon="11.547771"><ele>520.4</ele><time>2026-05-01T10:50:46.133Z</time></trkpt><trkpt lat="44.0444508" lon="11.5476955"><ele>520.0</ele><time>2026-05-01T10:50:47.133Z</time></trkpt><trkpt lat="44.0445517" lon="11.5476543"><ele>521.4</ele><time>2026-05-01T10:50:48.133Z</time></trkpt><trkpt lat="44.0446478" lon="11.5476233"><ele>522.8</ele><time>2026-05-01T10:50:49.133Z</time></trkpt><trkpt lat="44.0447282" lon="11.5475623"><ele>524.2</ele><time>2026-05-01T10:50:50.131Z</time></trkpt><trkpt lat="44.044797" lon="11.5474685"><ele>525.6</ele><time>2026-05-01T10:50:51.132Z</time></trkpt><trkpt lat="44.0448653" lon="11.5473842"><ele>527.0</ele><time>2026-05-01T10:50:52.133Z</time></trkpt><trkpt lat="44.0449405" lon="11.5473298"><ele>524.0</ele><time>2026-05-01T10:50:53.132Z</time></trkpt><trkpt lat="44.0450258" lon="11.5473165"><ele>521.0</ele><time>2026-05-01T10:50:54.131Z</time></trkpt><trkpt lat="44.0451183" lon="11.5473507"><ele>518.0</ele><time>2026-05-01T10:50:55.131Z</time></trkpt><trkpt lat="44.0452053" lon="11.5474257"><ele>515.0</ele><time>2026-05-01T10:50:56.131Z</time></trkpt><trkpt lat="44.0452888" lon="11.5475268"><ele>512.0</ele><time>2026-05-01T10:50:57.131Z</time></trkpt><trkpt lat="44.0453747" lon="11.5476392"><ele>512.0</ele><time>2026-05-01T10:50:58.132Z</time></trkpt><trkpt lat="44.0454647" lon="11.5477528"><ele>512.0</ele><time>2026-05-01T10:50:59.132Z</time></trkpt><trkpt lat="44.045563" lon="11.5478473"><ele>512.0</ele><time>2026-05-01T10:51:00.133Z</time></trkpt><trkpt lat="44.0456702" lon="11.547903"><ele>512.0</ele><time>2026-05-01T10:51:01.131Z</time></trkpt><trkpt lat="44.0457802" lon="11.5479277"><ele>510.25</ele><time>2026-05-01T10:51:02.131Z</time></trkpt><trkpt lat="44.0458892" lon="11.5479562"><ele>508.5</ele><time>2026-05-01T10:51:03.133Z</time></trkpt><trkpt lat="44.0459962" lon="11.5480088"><ele>506.75</ele><time>2026-05-01T10:51:04.133Z</time></trkpt><trkpt lat="44.0460983" lon="11.5480882"><ele>505.0</ele><time>2026-05-01T10:51:05.131Z</time></trkpt><trkpt lat="44.0461957" lon="11.5481872"><ele>505.0</ele><time>2026-05-01T10:51:06.13Z</time></trkpt><trkpt lat="44.046287" lon="11.5483033"><ele>505.0</ele><time>2026-05-01T10:51:07.131Z</time></trkpt><trkpt lat="44.0463737" lon="11.5484318"><ele>505.0</ele><time>2026-05-01T10:51:08.13Z</time></trkpt><trkpt lat="44.046458" lon="11.5485563"><ele>505.0</ele><time>2026-05-01T10:51:09.133Z</time></trkpt><trkpt lat="44.0465515" lon="11.5486527"><ele>506.25</ele><time>2026-05-01T10:51:10.134Z</time></trkpt><trkpt lat="44.0466548" lon="11.5487028"><ele>507.5</ele><time>2026-05-01T10:51:11.132Z</time></trkpt><trkpt lat="44.0467673" lon="11.5487127"><ele>508.75</ele><time>2026-05-01T10:51:12.133Z</time></trkpt><trkpt lat="44.0468858" lon="11.5486883"><ele>510.0</ele><time>2026-05-01T10:51:13.133Z</time></trkpt><trkpt lat="44.0470047" lon="11.548644"><ele>510.0</ele><time>2026-05-01T10:51:14.132Z</time></trkpt><trkpt lat="44.0471262" lon="11.548587"><ele>510.0</ele><time>2026-05-01T10:51:15.133Z</time></trkpt><trkpt lat="44.0472505" lon="11.5485285"><ele>510.0</ele><time>2026-05-01T10:51:16.134Z</time></trkpt><trkpt lat="44.0473775" lon="11.5484715"><ele>510.0</ele><time>2026-05-01T10:51:17.133Z</time></trkpt><trkpt lat="44.0475067" lon="11.548416"><ele>505.25</ele><time>2026-05-01T10:51:18.131Z</time></trkpt><trkpt lat="44.0476353" lon="11.548357"><ele>500.5</ele><time>2026-05-01T10:51:19.132Z</time></trkpt><trkpt lat="44.047764" lon="11.5482957"><ele>495.75</ele><time>2026-05-01T10:51:20.134Z</time></trkpt><trkpt lat="44.0478925" lon="11.548244"><ele>491.0</ele><time>2026-05-01T10:51:21.135Z</time></trkpt><trkpt lat="44.0480193" lon="11.5481973"><ele>491.0</ele><time>2026-05-01T10:51:22.133Z</time></trkpt><trkpt lat="44.0481432" lon="11.5481603"><ele>491.0</ele><time>2026-05-01T10:51:23.132Z</time></trkpt><trkpt lat="44.0482623" lon="11.5481303"><ele>491.0</ele><time>2026-05-01T10:51:24.133Z</time></trkpt><trkpt lat="44.0483782" lon="11.5481067"><ele>491.0</ele><time>2026-05-01T10:51:25.132Z</time></trkpt><trkpt lat="44.0484942" lon="11.548087"><ele>489.0</ele><time>2026-05-01T10:51:26.133Z</time></trkpt><trkpt lat="44.0486112" lon="11.5480818"><ele>487.0</ele><time>2026-05-01T10:51:27.133Z</time></trkpt><trkpt lat="44.048727" lon="11.5481048"><ele>485.0</ele><time>2026-05-01T10:51:28.132Z</time></trkpt><trkpt lat="44.0488387" lon="11.5481615"><ele>483.0</ele><time>2026-05-01T10:51:29.131Z</time></trkpt><trkpt lat="44.0489373" lon="11.5482487"><ele>483.0</ele><time>2026-05-01T10:51:30.131Z</time></trkpt><trkpt lat="44.0490198" lon="11.5483628"><ele>483.0</ele><time>2026-05-01T10:51:31.132Z</time></trkpt><trkpt lat="44.0490883" lon="11.5484957"><ele>483.0</ele><time>2026-05-01T10:51:32.129Z</time></trkpt><trkpt lat="44.0491448" lon="11.5486397"><ele>483.0</ele><time>2026-05-01T10:51:33.13Z</time></trkpt><trkpt lat="44.0491938" lon="11.5487913"><ele>482.75</ele><time>2026-05-01T10:51:34.131Z</time></trkpt><trkpt lat="44.0492338" lon="11.5489492"><ele>482.5</ele><time>2026-05-01T10:51:35.132Z</time></trkpt><trkpt lat="44.0492658" lon="11.5491117"><ele>482.25</ele><time>2026-05-01T10:51:36.131Z</time></trkpt><trkpt lat="44.0492925" lon="11.5492758"><ele>482.0</ele><time>2026-05-01T10:51:37.131Z</time></trkpt><trkpt lat="44.0493155" lon="11.5494373"><ele>481.8</ele><time>2026-05-01T10:51:38.132Z</time></trkpt><trkpt lat="44.049342" lon="11.5495847"><ele>481.6</ele><time>2026-05-01T10:51:39.133Z</time></trkpt><trkpt lat="44.0493803" lon="11.5497168"><ele>481.40000000000003</ele><time>2026-05-01T10:51:40.134Z</time></trkpt><trkpt lat="44.04944" lon="11.5498245"><ele>481.20000000000005</ele><time>2026-05-01T10:51:41.132Z</time></trkpt><trkpt lat="44.0495255" lon="11.54989"><ele>481.0</ele><time>2026-05-01T10:51:42.133Z</time></trkpt><trkpt lat="44.0496277" lon="11.549905"><ele>481.0</ele><time>2026-05-01T10:51:43.133Z</time></trkpt><trkpt lat="44.0497403" lon="11.5498805"><ele>481.0</ele><time>2026-05-01T10:51:44.133Z</time></trkpt><trkpt lat="44.049854" lon="11.549828"><ele>481.0</ele><time>2026-05-01T10:51:45.133Z</time></trkpt><trkpt lat="44.0499655" lon="11.5497422"><ele>481.0</ele><time>2026-05-01T10:51:46.133Z</time></trkpt><trkpt lat="44.0500662" lon="11.5496295"><ele>482.75</ele><time>2026-05-01T10:51:47.131Z</time></trkpt><trkpt lat="44.0501515" lon="11.5494928"><ele>484.5</ele><time>2026-05-01T10:51:48.13Z</time></trkpt><trkpt lat="44.050223" lon="11.549343"><ele>486.25</ele><time>2026-05-01T10:51:49.131Z</time></trkpt><trkpt lat="44.0502933" lon="11.5491967"><ele>488.0</ele><time>2026-05-01T10:51:50.13Z</time></trkpt><trkpt lat="44.0503798" lon="11.5490702"><ele>488.0</ele><time>2026-05-01T10:51:51.131Z</time></trkpt><trkpt lat="44.050483" lon="11.5489645"><ele>488.0</ele><time>2026-05-01T10:51:52.131Z</time></trkpt><trkpt lat="44.0505967" lon="11.5488692"><ele>488.0</ele><time>2026-05-01T10:51:53.13Z</time></trkpt><trkpt lat="44.0507162" lon="11.5487815"><ele>488.0</ele><time>2026-05-01T10:51:54.13Z</time></trkpt><trkpt lat="44.0508372" lon="11.5487127"><ele>488.5</ele><time>2026-05-01T10:51:55.129Z</time></trkpt><trkpt lat="44.050959" lon="11.548665"><ele>489.0</ele><time>2026-05-01T10:51:56.129Z</time></trkpt><trkpt lat="44.0510827" lon="11.5486497"><ele>489.5</ele><time>2026-05-01T10:51:57.129Z</time></trkpt><trkpt lat="44.0512073" lon="11.5486667"><ele>490.0</ele><time>2026-05-01T10:51:58.131Z</time></trkpt><trkpt lat="44.0513318" lon="11.548706"><ele>486.25</ele><time>2026-05-01T10:51:59.131Z</time></trkpt><trkpt lat="44.0514558" lon="11.5487568"><ele>482.5</ele><time>2026-05-01T10:52:00.131Z</time></trkpt><trkpt lat="44.0515773" lon="11.548821"><ele>478.75</ele><time>2026-05-01T10:52:01.131Z</time></trkpt><trkpt lat="44.0516947" lon="11.5488967"><ele>475.0</ele><time>2026-05-01T10:52:02.131Z</time></trkpt><trkpt lat="44.0518065" lon="11.5489888"><ele>474.25</ele><time>2026-05-01T10:52:03.131Z</time></trkpt><trkpt lat="44.0519043" lon="11.5491018"><ele>473.5</ele><time>2026-05-01T10:52:04.132Z</time></trkpt><trkpt lat="44.051991" lon="11.549221"><ele>472.75</ele><time>2026-05-01T10:52:05.131Z</time></trkpt><trkpt lat="44.0520772" lon="11.549313"><ele>472.0</ele><time>2026-05-01T10:52:06.132Z</time></trkpt><trkpt lat="44.0521693" lon="11.5493427"><ele>472.0</ele><time>2026-05-01T10:52:07.133Z</time></trkpt><trkpt lat="44.0522635" lon="11.5493108"><ele>472.00000000000006</ele><time>2026-05-01T10:52:08.131Z</time></trkpt><trkpt lat="44.05236" lon="11.5492397"><ele>472.00000000000006</ele><time>2026-05-01T10:52:09.133Z</time></trkpt><trkpt lat="44.0524637" lon="11.549161"><ele>472.0</ele><time>2026-05-01T10:52:10.133Z</time></trkpt><trkpt lat="44.0525725" lon="11.5490793"><ele>472.0</ele><time>2026-05-01T10:52:11.133Z</time></trkpt><trkpt lat="44.0526822" lon="11.5489952"><ele>470.25</ele><time>2026-05-01T10:52:12.136Z</time></trkpt><trkpt lat="44.0527882" lon="11.5489147"><ele>468.5</ele><time>2026-05-01T10:52:13.132Z</time></trkpt><trkpt lat="44.0528905" lon="11.5488453"><ele>466.75</ele><time>2026-05-01T10:52:14.132Z</time></trkpt><trkpt lat="44.052995" lon="11.5487932"><ele>465.0</ele><time>2026-05-01T10:52:15.132Z</time></trkpt><trkpt lat="44.0531073" lon="11.5487678"><ele>465.0</ele><time>2026-05-01T10:52:16.131Z</time></trkpt><trkpt lat="44.0532237" lon="11.5487747"><ele>465.0</ele><time>2026-05-01T10:52:17.131Z</time></trkpt><trkpt lat="44.0533355" lon="11.5488165"><ele>465.0</ele><time>2026-05-01T10:52:18.132Z</time></trkpt><trkpt lat="44.0534353" lon="11.5488958"><ele>465.0</ele><time>2026-05-01T10:52:19.131Z</time></trkpt><trkpt lat="44.0535225" lon="11.5490092"><ele>464.75</ele><time>2026-05-01T10:52:20.13Z</time></trkpt><trkpt lat="44.0535933" lon="11.5491505"><ele>464.5</ele><time>2026-05-01T10:52:21.131Z</time></trkpt><trkpt lat="44.0536387" lon="11.5493137"><ele>464.25</ele><time>2026-05-01T10:52:22.131Z</time></trkpt><trkpt lat="44.053659" lon="11.549488"><ele>464.0</ele><time>2026-05-01T10:52:23.131Z</time></trkpt><trkpt lat="44.0536613" lon="11.549669"><ele>463.5</ele><time>2026-05-01T10:52:24.133Z</time></trkpt><trkpt lat="44.0536493" lon="11.5498528"><ele>463.0</ele><time>2026-05-01T10:52:25.132Z</time></trkpt><trkpt lat="44.0536295" lon="11.550038"><ele>462.5</ele><time>2026-05-01T10:52:26.132Z</time></trkpt><trkpt lat="44.0536102" lon="11.5502237"><ele>462.0</ele><time>2026-05-01T10:52:27.132Z</time></trkpt><trkpt lat="44.0535973" lon="11.5504057"><ele>460.75</ele><time>2026-05-01T10:52:28.133Z</time></trkpt><trkpt lat="44.0535893" lon="11.5505827"><ele>459.5</ele><time>2026-05-01T10:52:29.132Z</time></trkpt><trkpt lat="44.0535923" lon="11.5507573"><ele>458.25</ele><time>2026-05-01T10:52:30.132Z</time></trkpt><trkpt lat="44.0536085" lon="11.550927"><ele>457.0</ele><time>2026-05-01T10:52:31.132Z</time></trkpt><trkpt lat="44.0536408" lon="11.5510818"><ele>460.20000000000005</ele><time>2026-05-01T10:52:32.132Z</time></trkpt><trkpt lat="44.0536873" lon="11.5512232"><ele>463.40000000000003</ele><time>2026-05-01T10:52:33.133Z</time></trkpt><trkpt lat="44.0537585" lon="11.5513127"><ele>466.59999999999997</ele><time>2026-05-01T10:52:34.133Z</time></trkpt><trkpt lat="44.0538492" lon="11.5513458"><ele>469.79999999999995</ele><time>2026-05-01T10:52:35.133Z</time></trkpt><trkpt lat="44.0539502" lon="11.551328"><ele>473.0</ele><time>2026-05-01T10:52:36.131Z</time></trkpt><trkpt lat="44.0540587" lon="11.5512888"><ele>471.5</ele><time>2026-05-01T10:52:37.132Z</time></trkpt><trkpt lat="44.0541743" lon="11.551253"><ele>470.0</ele><time>2026-05-01T10:52:38.133Z</time></trkpt><trkpt lat="44.0542982" lon="11.5512212"><ele>468.5</ele><time>2026-05-01T10:52:39.131Z</time></trkpt><trkpt lat="44.0544252" lon="11.5512022"><ele>467.0</ele><time>2026-05-01T10:52:40.131Z</time></trkpt><trkpt lat="44.0545505" lon="11.55121"><ele>463.5</ele><time>2026-05-01T10:52:41.13Z</time></trkpt><trkpt lat="44.054666" lon="11.5512478"><ele>460.0</ele><time>2026-05-01T10:52:42.132Z</time></trkpt><trkpt lat="44.0547615" lon="11.5513273"><ele>456.5</ele><time>2026-05-01T10:52:43.131Z</time></trkpt><trkpt lat="44.0548383" lon="11.5514385"><ele>453.0</ele><time>2026-05-01T10:52:44.13Z</time></trkpt><trkpt lat="44.0548992" lon="11.5515712"><ele>453.0</ele><time>2026-05-01T10:52:45.131Z</time></trkpt><trkpt lat="44.0549413" lon="11.5517192"><ele>452.99999999999994</ele><time>2026-05-01T10:52:46.131Z</time></trkpt><trkpt lat="44.0549603" lon="11.5518732"><ele>452.99999999999994</ele><time>2026-05-01T10:52:47.132Z</time></trkpt><trkpt lat="44.054954" lon="11.5520203"><ele>453.0</ele><time>2026-05-01T10:52:48.132Z</time></trkpt><trkpt lat="44.0549403" lon="11.5521498"><ele>453.0</ele><time>2026-05-01T10:52:49.133Z</time></trkpt><trkpt lat="44.0549503" lon="11.5522663"><ele>453.4</ele><time>2026-05-01T10:52:50.133Z</time></trkpt><trkpt lat="44.0549945" lon="11.5523735"><ele>453.79999999999995</ele><time>2026-05-01T10:52:51.133Z</time></trkpt><trkpt lat="44.055067" lon="11.5524642"><ele>454.2</ele><time>2026-05-01T10:52:52.133Z</time></trkpt><trkpt lat="44.0551582" lon="11.5525342"><ele>454.6</ele><time>2026-05-01T10:52:53.131Z</time></trkpt><trkpt lat="44.0552593" lon="11.5525995"><ele>455.0</ele><time>2026-05-01T10:52:54.131Z</time></trkpt><trkpt lat="44.055369" lon="11.5526623"><ele>455.0</ele><time>2026-05-01T10:52:55.13Z</time></trkpt><trkpt lat="44.0554827" lon="11.5527245"><ele>455.0</ele><time>2026-05-01T10:52:56.13Z</time></trkpt><trkpt lat="44.0555958" lon="11.552789"><ele>455.0</ele><time>2026-05-01T10:52:57.129Z</time></trkpt><trkpt lat="44.0557105" lon="11.552859"><ele>455.0</ele><time>2026-05-01T10:52:58.13Z</time></trkpt><trkpt lat="44.0558278" lon="11.552926"><ele>454.75</ele><time>2026-05-01T10:52:59.129Z</time></trkpt><trkpt lat="44.0559473" lon="11.5529945"><ele>454.5</ele><time>2026-05-01T10:53:00.129Z</time></trkpt><trkpt lat="44.0560707" lon="11.5530603"><ele>454.25</ele><time>2026-05-01T10:53:01.129Z</time></trkpt><trkpt lat="44.0561953" lon="11.553124"><ele>454.0</ele><time>2026-05-01T10:53:02.129Z</time></trkpt><trkpt lat="44.0563102" lon="11.5532005"><ele>454.0</ele><time>2026-05-01T10:53:03.13Z</time></trkpt><trkpt lat="44.0564327" lon="11.5532625"><ele>454.0</ele><time>2026-05-01T10:53:04.129Z</time></trkpt><trkpt lat="44.056552" lon="11.5533423"><ele>454.0</ele><time>2026-05-01T10:53:05.129Z</time></trkpt><trkpt lat="44.0566672" lon="11.5534295"><ele>454.0</ele><time>2026-05-01T10:53:06.13Z</time></trkpt><trkpt lat="44.0567762" lon="11.5535335"><ele>455.75</ele><time>2026-05-01T10:53:07.13Z</time></trkpt><trkpt lat="44.0568753" lon="11.5536538"><ele>457.5</ele><time>2026-05-01T10:53:08.13Z</time></trkpt><trkpt lat="44.0569652" lon="11.5537863"><ele>459.25</ele><time>2026-05-01T10:53:09.13Z</time></trkpt><trkpt lat="44.0570383" lon="11.5539305"><ele>461.0</ele><time>2026-05-01T10:53:10.129Z</time></trkpt><trkpt lat="44.0570907" lon="11.554086"><ele>457.75</ele><time>2026-05-01T10:53:11.13Z</time></trkpt><trkpt lat="44.0571288" lon="11.5542522"><ele>454.5</ele><time>2026-05-01T10:53:12.132Z</time></trkpt><trkpt lat="44.057164" lon="11.5544095"><ele>451.25</ele><time>2026-05-01T10:53:13.132Z</time></trkpt><trkpt lat="44.0572082" lon="11.5545462"><ele>448.0</ele><time>2026-05-01T10:53:14.131Z</time></trkpt><trkpt lat="44.05728" lon="11.554648"><ele>448.0</ele><time>2026-05-01T10:53:15.132Z</time></trkpt><trkpt lat="44.0573762" lon="11.5547133"><ele>448.0</ele><time>2026-05-01T10:53:16.133Z</time></trkpt><trkpt lat="44.0574923" lon="11.5547528"><ele>448.0</ele><time>2026-05-01T10:53:17.132Z</time></trkpt><trkpt lat="44.0576183" lon="11.5547843"><ele>448.0</ele><time>2026-05-01T10:53:18.132Z</time></trkpt><trkpt lat="44.0577493" lon="11.5548142"><ele>447.25</ele><time>2026-05-01T10:53:19.131Z</time></trkpt><trkpt lat="44.0578843" lon="11.5548435"><ele>446.5</ele><time>2026-05-01T10:53:20.133Z</time></trkpt><trkpt lat="44.0580235" lon="11.5548752"><ele>445.75</ele><time>2026-05-01T10:53:21.134Z</time></trkpt><trkpt lat="44.0581638" lon="11.5549097"><ele>445.0</ele><time>2026-05-01T10:53:22.134Z</time></trkpt><trkpt lat="44.0582968" lon="11.5549413"><ele>445.0</ele><time>2026-05-01T10:53:23.133Z</time></trkpt><trkpt lat="44.0584183" lon="11.554972"><ele>445.0</ele><time>2026-05-01T10:53:24.132Z</time></trkpt><trkpt lat="44.0585183" lon="11.5550285"><ele>445.0</ele><time>2026-05-01T10:53:25.134Z</time></trkpt><trkpt lat="44.0585857" lon="11.5551233"><ele>445.0</ele><time>2026-05-01T10:53:26.133Z</time></trkpt><trkpt lat="44.0586268" lon="11.555253"><ele>445.0</ele><time>2026-05-01T10:53:27.134Z</time></trkpt><trkpt lat="44.0586602" lon="11.555398"><ele>444.5</ele><time>2026-05-01T10:53:28.134Z</time></trkpt><trkpt lat="44.058694" lon="11.55555"><ele>444.0</ele><time>2026-05-01T10:53:29.134Z</time></trkpt><trkpt lat="44.0587327" lon="11.5557028"><ele>443.5</ele><time>2026-05-01T10:53:30.135Z</time></trkpt><trkpt lat="44.0587858" lon="11.5558488"><ele>443.0</ele><time>2026-05-01T10:53:31.133Z</time></trkpt><trkpt lat="44.0588573" lon="11.5559832"><ele>443.0</ele><time>2026-05-01T10:53:32.132Z</time></trkpt><trkpt lat="44.0589462" lon="11.5561045"><ele>443.0</ele><time>2026-05-01T10:53:33.133Z</time></trkpt><trkpt lat="44.059045" lon="11.5562137"><ele>443.0</ele><time>2026-05-01T10:53:34.131Z</time></trkpt><trkpt lat="44.0591443" lon="11.5563238"><ele>443.0</ele><time>2026-05-01T10:53:35.132Z</time></trkpt><trkpt lat="44.0592423" lon="11.5564408"><ele>442.25</ele><time>2026-05-01T10:53:36.133Z</time></trkpt><trkpt lat="44.0593375" lon="11.5565625"><ele>441.5</ele><time>2026-05-01T10:53:37.134Z</time></trkpt><trkpt lat="44.0594333" lon="11.5566843"><ele>440.75</ele><time>2026-05-01T10:53:38.133Z</time></trkpt><trkpt lat="44.0595278" lon="11.5568098"><ele>440.0</ele><time>2026-05-01T10:53:39.134Z</time></trkpt><trkpt lat="44.0596217" lon="11.5569347"><ele>440.25</ele><time>2026-05-01T10:53:40.133Z</time></trkpt><trkpt lat="44.0597142" lon="11.5570577"><ele>440.5</ele><time>2026-05-01T10:53:41.133Z</time></trkpt><trkpt lat="44.0598035" lon="11.5571745"><ele>440.75</ele><time>2026-05-01T10:53:42.133Z</time></trkpt><trkpt lat="44.0598957" lon="11.5572642"><ele>441.0</ele><time>2026-05-01T10:53:43.134Z</time></trkpt><trkpt lat="44.0600007" lon="11.5573132"><ele>441.0</ele><time>2026-05-01T10:53:44.135Z</time></trkpt><trkpt lat="44.0601138" lon="11.5573323"><ele>441.0</ele><time>2026-05-01T10:53:45.134Z</time></trkpt><trkpt lat="44.0602357" lon="11.5573397"><ele>441.0</ele><time>2026-05-01T10:53:46.136Z</time></trkpt><trkpt lat="44.0603605" lon="11.5573527"><ele>441.0</ele><time>2026-05-01T10:53:47.133Z</time></trkpt><trkpt lat="44.0604852" lon="11.5573868"><ele>441.0</ele><time>2026-05-01T10:53:48.132Z</time></trkpt><trkpt lat="44.0606008" lon="11.5574463"><ele>441.0</ele><time>2026-05-01T10:53:49.134Z</time></trkpt><trkpt lat="44.0607017" lon="11.5575487"><ele>441.0</ele><time>2026-05-01T10:53:50.133Z</time></trkpt><trkpt lat="44.0607842" lon="11.5576832"><ele>441.0</ele><time>2026-05-01T10:53:51.133Z</time></trkpt><trkpt lat="44.0608613" lon="11.5578288"><ele>439.25</ele><time>2026-05-01T10:53:52.133Z</time></trkpt><trkpt lat="44.060945" lon="11.5579672"><ele>437.5</ele><time>2026-05-01T10:53:53.133Z</time></trkpt><trkpt lat="44.0610367" lon="11.5580875"><ele>435.75</ele><time>2026-05-01T10:53:54.133Z</time></trkpt><trkpt lat="44.0611337" lon="11.558189"><ele>434.0</ele><time>2026-05-01T10:53:55.133Z</time></trkpt><trkpt lat="44.0612333" lon="11.558273"><ele>434.0</ele><time>2026-05-01T10:53:56.131Z</time></trkpt><trkpt lat="44.0613343" lon="11.5583492"><ele>434.0</ele><time>2026-05-01T10:53:57.131Z</time></trkpt><trkpt lat="44.0614262" lon="11.5584357"><ele>434.0</ele><time>2026-05-01T10:53:58.13Z</time></trkpt><trkpt lat="44.0614955" lon="11.5585467"><ele>434.0</ele><time>2026-05-01T10:53:59.131Z</time></trkpt><trkpt lat="44.0615263" lon="11.5586805"><ele>434.0</ele><time>2026-05-01T10:54:00.133Z</time></trkpt><trkpt lat="44.061515" lon="11.5588235"><ele>433.16666666666663</ele><time>2026-05-01T10:54:01.133Z</time></trkpt><trkpt lat="44.0614647" lon="11.5589522"><ele>432.3333333333333</ele><time>2026-05-01T10:54:02.132Z</time></trkpt><trkpt lat="44.0613897" lon="11.559048"><ele>431.5</ele><time>2026-05-01T10:54:03.134Z</time></trkpt><trkpt lat="44.0613218" lon="11.5591242"><ele>430.66666666666663</ele><time>2026-05-01T10:54:04.132Z</time></trkpt><trkpt lat="44.0612783" lon="11.5591942"><ele>429.8333333333333</ele><time>2026-05-01T10:54:05.133Z</time></trkpt><trkpt lat="44.0612398" lon="11.5592882"><ele>429.0</ele><time>2026-05-01T10:54:07.134Z</time></trkpt><trkpt lat="44.0613083" lon="11.5592835"><ele>429.0</ele><time>2026-05-01T10:54:42.134Z</time></trkpt><trkpt lat="44.0613703" lon="11.55914"><ele>429.0</ele><time>2026-05-01T10:54:44.135Z</time></trkpt><trkpt lat="44.0614218" lon="11.5590743"><ele>429.0</ele><time>2026-05-01T10:54:45.135Z</time></trkpt><trkpt lat="44.0614862" lon="11.5590117"><ele>429.0</ele><time>2026-05-01T10:54:46.133Z</time></trkpt><trkpt lat="44.0615413" lon="11.5589352"><ele>429.0</ele><time>2026-05-01T10:54:47.131Z</time></trkpt><trkpt lat="44.0615652" lon="11.5588305"><ele>429.0</ele><time>2026-05-01T10:54:48.133Z</time></trkpt><trkpt lat="44.0615638" lon="11.558713"><ele>430.0</ele><time>2026-05-01T10:54:49.134Z</time></trkpt><trkpt lat="44.0615343" lon="11.5585932"><ele>431.0</ele><time>2026-05-01T10:54:50.133Z</time></trkpt><trkpt lat="44.0614757" lon="11.5584868"><ele>432.0</ele><time>2026-05-01T10:54:51.135Z</time></trkpt><trkpt lat="44.0613965" lon="11.5583987"><ele>433.0</ele><time>2026-05-01T10:54:52.135Z</time></trkpt><trkpt lat="44.0613087" lon="11.5583228"><ele>434.0</ele><time>2026-05-01T10:54:53.134Z</time></trkpt><trkpt lat="44.0612203" lon="11.5582458"><ele>434.0</ele><time>2026-05-01T10:54:54.135Z</time></trkpt><trkpt lat="44.0611343" lon="11.5581587"><ele>434.0</ele><time>2026-05-01T10:54:55.135Z</time></trkpt><trkpt lat="44.0610513" lon="11.5580597"><ele>434.0</ele><time>2026-05-01T10:54:56.134Z</time></trkpt><trkpt lat="44.0609725" lon="11.5579508"><ele>434.0</ele><time>2026-05-01T10:54:57.136Z</time></trkpt><trkpt lat="44.0608998" lon="11.5578327"><ele>434.0</ele><time>2026-05-01T10:54:58.135Z</time></trkpt><trkpt lat="44.0608298" lon="11.5577098"><ele>435.75</ele><time>2026-05-01T10:54:59.134Z</time></trkpt><trkpt lat="44.0607555" lon="11.5575897"><ele>437.5</ele><time>2026-05-01T10:55:00.135Z</time></trkpt><trkpt lat="44.0606688" lon="11.557487"><ele>439.25</ele><time>2026-05-01T10:55:01.135Z</time></trkpt><trkpt lat="44.060567" lon="11.5574167"><ele>441.0</ele><time>2026-05-01T10:55:02.134Z</time></trkpt><trkpt lat="44.0604568" lon="11.5573803"><ele>441.0</ele><time>2026-05-01T10:55:03.134Z</time></trkpt><trkpt lat="44.0603422" lon="11.5573628"><ele>441.0</ele><time>2026-05-01T10:55:04.135Z</time></trkpt><trkpt lat="44.060228" lon="11.5573472"><ele>441.0</ele><time>2026-05-01T10:55:05.135Z</time></trkpt><trkpt lat="44.0601183" lon="11.5573347"><ele>441.0</ele><time>2026-05-01T10:55:06.134Z</time></trkpt><trkpt lat="44.0600203" lon="11.5573147"><ele>441.0</ele><time>2026-05-01T10:55:07.134Z</time></trkpt><trkpt lat="44.0599343" lon="11.5572662"><ele>440.8333333333333</ele><time>2026-05-01T10:55:08.135Z</time></trkpt><trkpt lat="44.0598705" lon="11.5571958"><ele>440.66666666666663</ele><time>2026-05-01T10:55:09.134Z</time></trkpt><trkpt lat="44.0598378" lon="11.557112"><ele>440.5</ele><time>2026-05-01T10:55:10.133Z</time></trkpt><trkpt lat="44.059817" lon="11.5570102"><ele>440.3333333333333</ele><time>2026-05-01T10:55:11.132Z</time></trkpt><trkpt lat="44.0597953" lon="11.5568998"><ele>440.16666666666663</ele><time>2026-05-01T10:55:12.131Z</time></trkpt><trkpt lat="44.0597608" lon="11.5567785"><ele>440.0</ele><time>2026-05-01T10:55:13.132Z</time></trkpt><trkpt lat="44.0597152" lon="11.5566508"><ele>440.0</ele><time>2026-05-01T10:55:14.132Z</time></trkpt><trkpt lat="44.0596623" lon="11.5565248"><ele>440.0</ele><time>2026-05-01T10:55:15.135Z</time></trkpt><trkpt lat="44.0596053" lon="11.556403"><ele>440.0</ele><time>2026-05-01T10:55:16.135Z</time></trkpt><trkpt lat="44.0595442" lon="11.5562828"><ele>440.0</ele><time>2026-05-01T10:55:17.134Z</time></trkpt><trkpt lat="44.0594807" lon="11.5561645"><ele>440.0</ele><time>2026-05-01T10:55:18.135Z</time></trkpt><trkpt lat="44.0594145" lon="11.5560505"><ele>444.0</ele><time>2026-05-01T10:55:19.134Z</time></trkpt><trkpt lat="44.059343" lon="11.5559442"><ele>448.0</ele><time>2026-05-01T10:55:20.133Z</time></trkpt><trkpt lat="44.0592668" lon="11.5558498"><ele>452.0</ele><time>2026-05-01T10:55:21.135Z</time></trkpt><trkpt lat="44.0591983" lon="11.5557563"><ele>456.0</ele><time>2026-05-01T10:55:22.134Z</time></trkpt><trkpt lat="44.0591515" lon="11.5556528"><ele>460.0</ele><time>2026-05-01T10:55:23.134Z</time></trkpt><trkpt lat="44.059128" lon="11.5555375"><ele>460.00000000000006</ele><time>2026-05-01T10:55:24.134Z</time></trkpt><trkpt lat="44.059126" lon="11.5554148"><ele>460.0</ele><time>2026-05-01T10:55:25.134Z</time></trkpt><trkpt lat="44.0591445" lon="11.5552885"><ele>460.0</ele><time>2026-05-01T10:55:26.134Z</time></trkpt><trkpt lat="44.0591742" lon="11.555161"><ele>460.0</ele><time>2026-05-01T10:55:27.135Z</time></trkpt><trkpt lat="44.0592055" lon="11.5550378"><ele>460.00000000000006</ele><time>2026-05-01T10:55:28.136Z</time></trkpt><trkpt lat="44.0592295" lon="11.5549342"><ele>460.0</ele><time>2026-05-01T10:55:29.134Z</time></trkpt><trkpt lat="44.0592462" lon="11.5548382"><ele>461.83333333333337</ele><time>2026-05-01T10:55:30.135Z</time></trkpt><trkpt lat="44.0592553" lon="11.5547283"><ele>463.6666666666667</ele><time>2026-05-01T10:55:31.133Z</time></trkpt><trkpt lat="44.0592555" lon="11.5546067"><ele>465.5</ele><time>2026-05-01T10:55:32.134Z</time></trkpt><trkpt lat="44.0592517" lon="11.5544758"><ele>467.33333333333337</ele><time>2026-05-01T10:55:33.134Z</time></trkpt><trkpt lat="44.0592463" lon="11.5543433"><ele>469.1666666666667</ele><time>2026-05-01T10:55:34.132Z</time></trkpt><trkpt lat="44.059238" lon="11.5542147"><ele>471.0</ele><time>2026-05-01T10:55:35.131Z</time></trkpt><trkpt lat="44.0592285" lon="11.554094"><ele>471.28571428571433</ele><time>2026-05-01T10:55:36.132Z</time></trkpt><trkpt lat="44.0592255" lon="11.5539818"><ele>471.57142857142856</ele><time>2026-05-01T10:55:37.132Z</time></trkpt><trkpt lat="44.0592427" lon="11.5538818"><ele>471.8571428571429</ele><time>2026-05-01T10:55:38.132Z</time></trkpt><trkpt lat="44.0592852" lon="11.5538103"><ele>472.14285714285717</ele><time>2026-05-01T10:55:39.134Z</time></trkpt><trkpt lat="44.0593428" lon="11.5537642"><ele>472.42857142857144</ele><time>2026-05-01T10:55:40.134Z</time></trkpt><trkpt lat="44.059402" lon="11.5537257"><ele>472.7142857142857</ele><time>2026-05-01T10:55:41.133Z</time></trkpt><trkpt lat="44.0594547" lon="11.5536765"><ele>473.0</ele><time>2026-05-01T10:55:42.136Z</time></trkpt><trkpt lat="44.0595115" lon="11.5535968"><ele>473.0</ele><time>2026-05-01T10:55:44.134Z</time></trkpt><trkpt lat="44.0594575" lon="11.5536735"><ele>473.0</ele><time>2026-05-01T10:55:52.134Z</time></trkpt><trkpt lat="44.0594012" lon="11.5537168"><ele>473.0</ele><time>2026-05-01T10:55:53.135Z</time></trkpt><trkpt lat="44.0593378" lon="11.553767"><ele>473.0</ele><time>2026-05-01T10:55:54.134Z</time></trkpt><trkpt lat="44.0592762" lon="11.5538255"><ele>473.0</ele><time>2026-05-01T10:55:55.134Z</time></trkpt><trkpt lat="44.0592348" lon="11.5539042"><ele>473.0</ele><time>2026-05-01T10:55:56.133Z</time></trkpt><trkpt lat="44.0592228" lon="11.5539997"><ele>473.0</ele><time>2026-05-01T10:55:57.134Z</time></trkpt><trkpt lat="44.0592302" lon="11.5541185"><ele>473.0</ele><time>2026-05-01T10:55:58.134Z</time></trkpt><trkpt lat="44.0592393" lon="11.5542533"><ele>472.99999999999994</ele><time>2026-05-01T10:55:59.133Z</time></trkpt><trkpt lat="44.0592472" lon="11.5543868"><ele>472.99999999999994</ele><time>2026-05-01T10:56:00.133Z</time></trkpt><trkpt lat="44.0592542" lon="11.554521"><ele>473.0</ele><time>2026-05-01T10:56:01.132Z</time></trkpt><trkpt lat="44.0592575" lon="11.5546557"><ele>473.0</ele><time>2026-05-01T10:56:02.132Z</time></trkpt><trkpt lat="44.0592505" lon="11.5547912"><ele>472.59999999999997</ele><time>2026-05-01T10:56:03.136Z</time></trkpt><trkpt lat="44.0592302" lon="11.5549208"><ele>472.19999999999993</ele><time>2026-05-01T10:56:04.137Z</time></trkpt><trkpt lat="44.059202" lon="11.5550458"><ele>471.8</ele><time>2026-05-01T10:56:05.135Z</time></trkpt><trkpt lat="44.0591715" lon="11.5551678"><ele>471.4</ele><time>2026-05-01T10:56:06.135Z</time></trkpt><trkpt lat="44.0591453" lon="11.5552875"><ele>471.0</ele><time>2026-05-01T10:56:07.134Z</time></trkpt><trkpt lat="44.0591282" lon="11.5554098"><ele>469.1666666666667</ele><time>2026-05-01T10:56:08.134Z</time></trkpt><trkpt lat="44.0591297" lon="11.5555315"><ele>467.33333333333337</ele><time>2026-05-01T10:56:09.136Z</time></trkpt><trkpt lat="44.0591528" lon="11.5556447"><ele>465.5</ele><time>2026-05-01T10:56:10.134Z</time></trkpt><trkpt lat="44.0591975" lon="11.5557452"><ele>463.6666666666667</ele><time>2026-05-01T10:56:11.134Z</time></trkpt><trkpt lat="44.0592615" lon="11.5558325"><ele>461.83333333333337</ele><time>2026-05-01T10:56:12.134Z</time></trkpt><trkpt lat="44.0593358" lon="11.5559267"><ele>460.0</ele><time>2026-05-01T10:56:13.133Z</time></trkpt><trkpt lat="44.059412" lon="11.5560348"><ele>460.0</ele><time>2026-05-01T10:56:14.134Z</time></trkpt><trkpt lat="44.059485" lon="11.5561512"><ele>460.0</ele><time>2026-05-01T10:56:15.134Z</time></trkpt><trkpt lat="44.0595497" lon="11.5562685"><ele>460.0</ele><time>2026-05-01T10:56:16.134Z</time></trkpt><trkpt lat="44.0596058" lon="11.5563855"><ele>460.0</ele><time>2026-05-01T10:56:17.134Z</time></trkpt><trkpt lat="44.0596583" lon="11.5565028"><ele>460.0</ele><time>2026-05-01T10:56:18.135Z</time></trkpt><trkpt lat="44.0597092" lon="11.556621"><ele>456.6666666666667</ele><time>2026-05-01T10:56:19.135Z</time></trkpt><trkpt lat="44.0597525" lon="11.5567365"><ele>453.33333333333337</ele><time>2026-05-01T10:56:20.134Z</time></trkpt><trkpt lat="44.059785" lon="11.5568458"><ele>450.0</ele><time>2026-05-01T10:56:21.134Z</time></trkpt><trkpt lat="44.0598087" lon="11.5569405"><ele>446.66666666666663</ele><time>2026-05-01T10:56:22.134Z</time></trkpt><trkpt lat="44.059803" lon="11.5570443"><ele>443.3333333333333</ele><time>2026-05-01T10:56:24.132Z</time></trkpt><trkpt lat="44.0596995" lon="11.5569623"><ele>440.0</ele><time>2026-05-01T10:56:27.134Z</time></trkpt><trkpt lat="44.0596395" lon="11.5568887"><ele>440.0</ele><time>2026-05-01T10:56:28.134Z</time></trkpt><trkpt lat="44.0595702" lon="11.5568022"><ele>440.0</ele><time>2026-05-01T10:56:29.134Z</time></trkpt><trkpt lat="44.0594932" lon="11.5567035"><ele>440.0</ele><time>2026-05-01T10:56:30.134Z</time></trkpt><trkpt lat="44.059413" lon="11.5565945"><ele>440.0</ele><time>2026-05-01T10:56:31.134Z</time></trkpt><trkpt lat="44.0593277" lon="11.5564842"><ele>440.0</ele><time>2026-05-01T10:56:32.133Z</time></trkpt><trkpt lat="44.0592332" lon="11.55638"><ele>440.0</ele><time>2026-05-01T10:56:33.135Z</time></trkpt><trkpt lat="44.0591345" lon="11.556281"><ele>440.0</ele><time>2026-05-01T10:56:34.134Z</time></trkpt><trkpt lat="44.0590373" lon="11.5561815"><ele>440.0</ele><time>2026-05-01T10:56:35.133Z</time></trkpt><trkpt lat="44.0589497" lon="11.5560747"><ele>440.0</ele><time>2026-05-01T10:56:36.134Z</time></trkpt><trkpt lat="44.0588698" lon="11.5559495"><ele>440.75</ele><time>2026-05-01T10:56:37.135Z</time></trkpt><trkpt lat="44.0588073" lon="11.5558085"><ele>441.5</ele><time>2026-05-01T10:56:38.134Z</time></trkpt><trkpt lat="44.0587637" lon="11.5556575"><ele>442.25</ele><time>2026-05-01T10:56:39.135Z</time></trkpt><trkpt lat="44.0587345" lon="11.5555075"><ele>443.0</ele><time>2026-05-01T10:56:40.135Z</time></trkpt><trkpt lat="44.0587082" lon="11.555369"><ele>443.4</ele><time>2026-05-01T10:56:41.134Z</time></trkpt><trkpt lat="44.0586777" lon="11.5552487"><ele>443.79999999999995</ele><time>2026-05-01T10:56:42.135Z</time></trkpt><trkpt lat="44.0586477" lon="11.5551488"><ele>444.2</ele><time>2026-05-01T10:56:43.136Z</time></trkpt><trkpt lat="44.0586443" lon="11.5549958"><ele>444.6</ele><time>2026-05-01T10:56:45.135Z</time></trkpt><trkpt lat="44.0586988" lon="11.5548328"><ele>445.0</ele><time>2026-05-01T10:56:47.135Z</time></trkpt><trkpt lat="44.058721" lon="11.554726"><ele>445.00000000000006</ele><time>2026-05-01T10:56:48.133Z</time></trkpt><trkpt lat="44.0587368" lon="11.5546033"><ele>445.0</ele><time>2026-05-01T10:56:49.134Z</time></trkpt><trkpt lat="44.058743" lon="11.5544715"><ele>445.0</ele><time>2026-05-01T10:56:50.133Z</time></trkpt><trkpt lat="44.0587383" lon="11.554339"><ele>445.0</ele><time>2026-05-01T10:56:51.133Z</time></trkpt><trkpt lat="44.0587255" lon="11.554219"><ele>445.00000000000006</ele><time>2026-05-01T10:56:52.135Z</time></trkpt><trkpt lat="44.0587127" lon="11.5541132"><ele>445.0</ele><time>2026-05-01T10:56:53.138Z</time></trkpt><trkpt lat="44.0587132" lon="11.5540117"><ele>446.0</ele><time>2026-05-01T10:56:54.136Z</time></trkpt><trkpt lat="44.0587342" lon="11.5539098"><ele>447.0</ele><time>2026-05-01T10:56:55.134Z</time></trkpt><trkpt lat="44.0587768" lon="11.5538043"><ele>448.0</ele><time>2026-05-01T10:56:56.133Z</time></trkpt><trkpt lat="44.0588342" lon="11.5536992"><ele>449.0</ele><time>2026-05-01T10:56:57.138Z</time></trkpt><trkpt lat="44.0589068" lon="11.5535912"><ele>450.0</ele><time>2026-05-01T10:56:58.134Z</time></trkpt><trkpt lat="44.058978" lon="11.5534875"><ele>452.0</ele><time>2026-05-01T10:56:59.133Z</time></trkpt><trkpt lat="44.0590453" lon="11.5533778"><ele>454.0</ele><time>2026-05-01T10:57:00.133Z</time></trkpt><trkpt lat="44.05911" lon="11.5532682"><ele>456.0</ele><time>2026-05-01T10:57:01.132Z</time></trkpt><trkpt lat="44.0591693" lon="11.553157"><ele>458.0</ele><time>2026-05-01T10:57:02.133Z</time></trkpt><trkpt lat="44.0592165" lon="11.5530473"><ele>460.0</ele><time>2026-05-01T10:57:03.134Z</time></trkpt><trkpt lat="44.0592492" lon="11.5529432"><ele>460.00000000000006</ele><time>2026-05-01T10:57:04.133Z</time></trkpt><trkpt lat="44.0592775" lon="11.5528463"><ele>460.0</ele><time>2026-05-01T10:57:05.132Z</time></trkpt><trkpt lat="44.0593065" lon="11.5527478"><ele>460.0</ele><time>2026-05-01T10:57:06.134Z</time></trkpt><trkpt lat="44.0593328" lon="11.5526407"><ele>460.0</ele><time>2026-05-01T10:57:07.134Z</time></trkpt><trkpt lat="44.0593535" lon="11.5525338"><ele>460.00000000000006</ele><time>2026-05-01T10:57:08.134Z</time></trkpt><trkpt lat="44.0593625" lon="11.5524282"><ele>460.0</ele><time>2026-05-01T10:57:09.134Z</time></trkpt><trkpt lat="44.0593518" lon="11.5523193"><ele>460.00000000000006</ele><time>2026-05-01T10:57:10.135Z</time></trkpt><trkpt lat="44.0593282" lon="11.5522133"><ele>460.0</ele><time>2026-05-01T10:57:11.133Z</time></trkpt><trkpt lat="44.0593022" lon="11.5521053"><ele>460.0</ele><time>2026-05-01T10:57:12.132Z</time></trkpt><trkpt lat="44.059271" lon="11.552005"><ele>460.0</ele><time>2026-05-01T10:57:13.131Z</time></trkpt><trkpt lat="44.0592355" lon="11.5519112"><ele>460.00000000000006</ele><time>2026-05-01T10:57:14.131Z</time></trkpt><trkpt lat="44.0591968" lon="11.5518188"><ele>460.0</ele><time>2026-05-01T10:57:15.131Z</time></trkpt><trkpt lat="44.0591638" lon="11.5517183"><ele>461.00000000000006</ele><time>2026-05-01T10:57:16.133Z</time></trkpt><trkpt lat="44.0591427" lon="11.5516087"><ele>462.0</ele><time>2026-05-01T10:57:17.134Z</time></trkpt><trkpt lat="44.0591337" lon="11.5515022"><ele>463.0</ele><time>2026-05-01T10:57:18.134Z</time></trkpt><trkpt lat="44.0591382" lon="11.5513912"><ele>464.0</ele><time>2026-05-01T10:57:19.133Z</time></trkpt><trkpt lat="44.0591582" lon="11.5512815"><ele>465.00000000000006</ele><time>2026-05-01T10:57:20.133Z</time></trkpt><trkpt lat="44.0591757" lon="11.5511697"><ele>466.0</ele><time>2026-05-01T10:57:21.133Z</time></trkpt><trkpt lat="44.0591798" lon="11.5510625"><ele>466.1666666666667</ele><time>2026-05-01T10:57:22.132Z</time></trkpt><trkpt lat="44.0591713" lon="11.5509558"><ele>466.33333333333337</ele><time>2026-05-01T10:57:23.131Z</time></trkpt><trkpt lat="44.0591577" lon="11.5508568"><ele>466.5</ele><time>2026-05-01T10:57:24.131Z</time></trkpt><trkpt lat="44.0592015" lon="11.5506993"><ele>466.66666666666663</ele><time>2026-05-01T10:57:26.133Z</time></trkpt><trkpt lat="44.0592558" lon="11.5506345"><ele>466.8333333333333</ele><time>2026-05-01T10:57:27.132Z</time></trkpt><trkpt lat="44.0593252" lon="11.5505793"><ele>467.0</ele><time>2026-05-01T10:57:28.131Z</time></trkpt><trkpt lat="44.0594018" lon="11.550531"><ele>466.99999999999994</ele><time>2026-05-01T10:57:29.131Z</time></trkpt><trkpt lat="44.0594857" lon="11.550479"><ele>467.0</ele><time>2026-05-01T10:57:30.133Z</time></trkpt><trkpt lat="44.0595628" lon="11.5504305"><ele>467.0</ele><time>2026-05-01T10:57:31.132Z</time></trkpt><trkpt lat="44.0596448" lon="11.5503923"><ele>467.0</ele><time>2026-05-01T10:57:32.132Z</time></trkpt><trkpt lat="44.059731" lon="11.5503752"><ele>466.99999999999994</ele><time>2026-05-01T10:57:33.134Z</time></trkpt><trkpt lat="44.059824" lon="11.5503445"><ele>467.0</ele><time>2026-05-01T10:57:34.135Z</time></trkpt><trkpt lat="44.059912" lon="11.5503045"><ele>470.16666666666663</ele><time>2026-05-01T10:57:35.133Z</time></trkpt><trkpt lat="44.059988" lon="11.5502632"><ele>473.3333333333333</ele><time>2026-05-01T10:57:36.134Z</time></trkpt><trkpt lat="44.0600422" lon="11.5502152"><ele>476.5</ele><time>2026-05-01T10:57:37.131Z</time></trkpt><trkpt lat="44.06013" lon="11.5500938"><ele>479.66666666666663</ele><time>2026-05-01T10:57:39.13Z</time></trkpt><trkpt lat="44.0601688" lon="11.5500185"><ele>482.8333333333333</ele><time>2026-05-01T10:57:40.13Z</time></trkpt><trkpt lat="44.0602165" lon="11.549946"><ele>486.0</ele><time>2026-05-01T10:57:41.133Z</time></trkpt><trkpt lat="44.0602575" lon="11.5498778"><ele>486.0</ele><time>2026-05-01T10:57:42.133Z</time></trkpt><trkpt lat="44.0602957" lon="11.5498022"><ele>486.0</ele><time>2026-05-01T10:57:44.134Z</time></trkpt><trkpt lat="44.0603468" lon="11.5498862"><ele>486.0</ele><time>2026-05-01T10:58:12.135Z</time></trkpt><trkpt lat="44.060364" lon="11.550009"><ele>486.0</ele><time>2026-05-01T10:58:15.135Z</time></trkpt><trkpt lat="44.0604012" lon="11.5501207"><ele>486.0</ele><time>2026-05-01T10:58:18.133Z</time></trkpt><trkpt lat="44.0604298" lon="11.5502322"><ele>486.0</ele><time>2026-05-01T10:58:21.134Z</time></trkpt><trkpt lat="44.0604418" lon="11.5503238"><ele>488.0</ele><time>2026-05-01T10:58:23.134Z</time></trkpt><trkpt lat="44.0604573" lon="11.5504308"><ele>490.0</ele><time>2026-05-01T10:58:25.132Z</time></trkpt><trkpt lat="44.0604152" lon="11.5505975"><ele>492.0</ele><time>2026-05-01T10:58:27.131Z</time></trkpt><trkpt lat="44.0603605" lon="11.5507258"><ele>494.0</ele><time>2026-05-01T10:58:28.131Z</time></trkpt><trkpt lat="44.060293" lon="11.550858"><ele>496.0</ele><time>2026-05-01T10:58:29.13Z</time></trkpt><trkpt lat="44.0602328" lon="11.5509862"><ele>496.0</ele><time>2026-05-01T10:58:30.133Z</time></trkpt><trkpt lat="44.060194" lon="11.5511115"><ele>496.0</ele><time>2026-05-01T10:58:31.133Z</time></trkpt><trkpt lat="44.0601815" lon="11.5512203"><ele>496.0</ele><time>2026-05-01T10:58:32.133Z</time></trkpt><trkpt lat="44.0602203" lon="11.5513673"><ele>496.0</ele><time>2026-05-01T10:58:34.134Z</time></trkpt><trkpt lat="44.060304" lon="11.5513517"><ele>496.0</ele><time>2026-05-01T10:58:37.134Z</time></trkpt><trkpt lat="44.0603477" lon="11.5512032"><ele>496.00000000000006</ele><time>2026-05-01T10:58:39.135Z</time></trkpt><trkpt lat="44.0603913" lon="11.5511142"><ele>496.0</ele><time>2026-05-01T10:58:40.135Z</time></trkpt><trkpt lat="44.0604353" lon="11.5510148"><ele>496.0</ele><time>2026-05-01T10:58:41.134Z</time></trkpt><trkpt lat="44.0604798" lon="11.5509105"><ele>496.0</ele><time>2026-05-01T10:58:42.133Z</time></trkpt><trkpt lat="44.0605287" lon="11.5508028"><ele>496.00000000000006</ele><time>2026-05-01T10:58:43.134Z</time></trkpt><trkpt lat="44.0605722" lon="11.5506857"><ele>496.0</ele><time>2026-05-01T10:58:44.133Z</time></trkpt><trkpt lat="44.060614" lon="11.5505632"><ele>496.00000000000006</ele><time>2026-05-01T10:58:45.133Z</time></trkpt><trkpt lat="44.0606442" lon="11.5504372"><ele>496.0</ele><time>2026-05-01T10:58:46.133Z</time></trkpt><trkpt lat="44.0606735" lon="11.550323"><ele>496.0</ele><time>2026-05-01T10:58:47.133Z</time></trkpt><trkpt lat="44.0607057" lon="11.5502182"><ele>496.0</ele><time>2026-05-01T10:58:48.134Z</time></trkpt><trkpt lat="44.0607237" lon="11.5501117"><ele>496.00000000000006</ele><time>2026-05-01T10:58:49.133Z</time></trkpt><trkpt lat="44.060739" lon="11.550003"><ele>496.0</ele><time>2026-05-01T10:58:50.131Z</time></trkpt><trkpt lat="44.0607573" lon="11.5498947"><ele>494.33333333333337</ele><time>2026-05-01T10:58:51.131Z</time></trkpt><trkpt lat="44.0607765" lon="11.5497858"><ele>492.6666666666667</ele><time>2026-05-01T10:58:52.133Z</time></trkpt><trkpt lat="44.0607923" lon="11.5496685"><ele>491.0</ele><time>2026-05-01T10:58:53.131Z</time></trkpt><trkpt lat="44.0608122" lon="11.5495447"><ele>489.33333333333337</ele><time>2026-05-01T10:58:54.133Z</time></trkpt><trkpt lat="44.0608257" lon="11.5494268"><ele>487.6666666666667</ele><time>2026-05-01T10:58:55.133Z</time></trkpt><trkpt lat="44.0608493" lon="11.54931"><ele>486.0</ele><time>2026-05-01T10:58:56.133Z</time></trkpt><trkpt lat="44.0608783" lon="11.5491998"><ele>493.1666666666667</ele><time>2026-05-01T10:58:57.133Z</time></trkpt><trkpt lat="44.0609148" lon="11.5490915"><ele>500.33333333333337</ele><time>2026-05-01T10:58:58.134Z</time></trkpt><trkpt lat="44.0609638" lon="11.5489923"><ele>507.5</ele><time>2026-05-01T10:58:59.133Z</time></trkpt><trkpt lat="44.0610168" lon="11.5489188"><ele>514.6666666666667</ele><time>2026-05-01T10:59:00.135Z</time></trkpt><trkpt lat="44.0610768" lon="11.5488652"><ele>521.8333333333334</ele><time>2026-05-01T10:59:01.134Z</time></trkpt><trkpt lat="44.0611517" lon="11.5488342"><ele>529.0</ele><time>2026-05-01T10:59:02.133Z</time></trkpt><trkpt lat="44.0612238" lon="11.54883"><ele>529.0</ele><time>2026-05-01T10:59:03.134Z</time></trkpt><trkpt lat="44.0612907" lon="11.5488545"><ele>529.0</ele><time>2026-05-01T10:59:04.134Z</time></trkpt><trkpt lat="44.0613483" lon="11.5489017"><ele>529.0</ele><time>2026-05-01T10:59:05.133Z</time></trkpt><trkpt lat="44.061397" lon="11.548972"><ele>529.0</ele><time>2026-05-01T10:59:06.135Z</time></trkpt><trkpt lat="44.0614403" lon="11.549053"><ele>529.0</ele><time>2026-05-01T10:59:07.135Z</time></trkpt><trkpt lat="44.0614907" lon="11.5491217"><ele>529.0</ele><time>2026-05-01T10:59:08.136Z</time></trkpt><trkpt lat="44.061558" lon="11.54917"><ele>529.0</ele><time>2026-05-01T10:59:09.136Z</time></trkpt><trkpt lat="44.0616363" lon="11.5491953"><ele>532.0</ele><time>2026-05-01T10:59:10.136Z</time></trkpt><trkpt lat="44.0617183" lon="11.549192"><ele>535.0</ele><time>2026-05-01T10:59:11.134Z</time></trkpt><trkpt lat="44.061795" lon="11.5491608"><ele>538.0</ele><time>2026-05-01T10:59:12.135Z</time></trkpt><trkpt lat="44.0618582" lon="11.549118"><ele>541.0</ele><time>2026-05-01T10:59:13.135Z</time></trkpt><trkpt lat="44.0619217" lon="11.5490652"><ele>544.0</ele><time>2026-05-01T10:59:14.134Z</time></trkpt><trkpt lat="44.061991" lon="11.5490255"><ele>547.0</ele><time>2026-05-01T10:59:15.133Z</time></trkpt><trkpt lat="44.0620722" lon="11.5490073"><ele>547.0</ele><time>2026-05-01T10:59:16.132Z</time></trkpt><trkpt lat="44.0621572" lon="11.549005"><ele>547.0</ele><time>2026-05-01T10:59:17.132Z</time></trkpt><trkpt lat="44.0622298" lon="11.548988"><ele>547.0</ele><time>2026-05-01T10:59:18.132Z</time></trkpt><trkpt lat="44.0623013" lon="11.5489443"><ele>547.0</ele><time>2026-05-01T10:59:19.134Z</time></trkpt><trkpt lat="44.062363" lon="11.548876"><ele>547.0</ele><time>2026-05-01T10:59:20.134Z</time></trkpt><trkpt lat="44.0624313" lon="11.5488095"><ele>547.0</ele><time>2026-05-01T10:59:21.134Z</time></trkpt><trkpt lat="44.0624928" lon="11.5487458"><ele>547.8571428571429</ele><time>2026-05-01T10:59:22.134Z</time></trkpt><trkpt lat="44.0625528" lon="11.548694"><ele>548.7142857142857</ele><time>2026-05-01T10:59:23.134Z</time></trkpt><trkpt lat="44.0626185" lon="11.5486512"><ele>549.5714285714286</ele><time>2026-05-01T10:59:24.135Z</time></trkpt><trkpt lat="44.0626818" lon="11.548607"><ele>550.4285714285714</ele><time>2026-05-01T10:59:25.134Z</time></trkpt><trkpt lat="44.0627447" lon="11.5485897"><ele>551.2857142857142</ele><time>2026-05-01T10:59:26.134Z</time></trkpt><trkpt lat="44.062817" lon="11.548608"><ele>552.1428571428571</ele><time>2026-05-01T10:59:27.134Z</time></trkpt><trkpt lat="44.0628975" lon="11.5486538"><ele>553.0</ele><time>2026-05-01T10:59:28.134Z</time></trkpt><trkpt lat="44.0629898" lon="11.5487073"><ele>554.6666666666667</ele><time>2026-05-01T10:59:29.134Z</time></trkpt><trkpt lat="44.0630863" lon="11.548749"><ele>556.3333333333334</ele><time>2026-05-01T10:59:30.136Z</time></trkpt><trkpt lat="44.0631755" lon="11.54877"><ele>558.0</ele><time>2026-05-01T10:59:31.136Z</time></trkpt><trkpt lat="44.0632575" lon="11.5487742"><ele>559.6666666666666</ele><time>2026-05-01T10:59:32.133Z</time></trkpt><trkpt lat="44.0633385" lon="11.5487543"><ele>561.3333333333333</ele><time>2026-05-01T10:59:33.133Z</time></trkpt><trkpt lat="44.0634232" lon="11.5487187"><ele>563.0</ele><time>2026-05-01T10:59:34.137Z</time></trkpt><trkpt lat="44.0635103" lon="11.5486712"><ele>565.0</ele><time>2026-05-01T10:59:35.135Z</time></trkpt><trkpt lat="44.0635997" lon="11.5486117"><ele>567.0</ele><time>2026-05-01T10:59:36.135Z</time></trkpt><trkpt lat="44.06369" lon="11.5485452"><ele>569.0</ele><time>2026-05-01T10:59:37.136Z</time></trkpt><trkpt lat="44.0637788" lon="11.5484743"><ele>571.0</ele><time>2026-05-01T10:59:38.135Z</time></trkpt><trkpt lat="44.063868" lon="11.5484027"><ele>573.0</ele><time>2026-05-01T10:59:39.134Z</time></trkpt><trkpt lat="44.0639518" lon="11.5483267"><ele>573.0</ele><time>2026-05-01T10:59:40.136Z</time></trkpt><trkpt lat="44.0640155" lon="11.5482392"><ele>573.0</ele><time>2026-05-01T10:59:41.133Z</time></trkpt><trkpt lat="44.0640735" lon="11.5481292"><ele>573.0</ele><time>2026-05-01T10:59:42.132Z</time></trkpt><trkpt lat="44.0641322" lon="11.5480175"><ele>573.0</ele><time>2026-05-01T10:59:43.133Z</time></trkpt><trkpt lat="44.0641943" lon="11.5479143"><ele>573.0</ele><time>2026-05-01T10:59:44.134Z</time></trkpt><trkpt lat="44.0642643" lon="11.5478223"><ele>575.3333333333334</ele><time>2026-05-01T10:59:45.134Z</time></trkpt><trkpt lat="44.0643387" lon="11.5477443"><ele>577.6666666666666</ele><time>2026-05-01T10:59:46.134Z</time></trkpt><trkpt lat="44.0644155" lon="11.5476688"><ele>580.0</ele><time>2026-05-01T10:59:47.134Z</time></trkpt><trkpt lat="44.0644843" lon="11.5475997"><ele>582.3333333333333</ele><time>2026-05-01T10:59:48.133Z</time></trkpt><trkpt lat="44.0645488" lon="11.5475332"><ele>584.6666666666666</ele><time>2026-05-01T10:59:49.133Z</time></trkpt><trkpt lat="44.0646122" lon="11.5474813"><ele>587.0</ele><time>2026-05-01T10:59:50.134Z</time></trkpt><trkpt lat="44.0646798" lon="11.5474433"><ele>587.0</ele><time>2026-05-01T10:59:51.132Z</time></trkpt><trkpt lat="44.0647503" lon="11.5474"><ele>587.0</ele><time>2026-05-01T10:59:52.134Z</time></trkpt><trkpt lat="44.0648195" lon="11.5473618"><ele>587.0</ele><time>2026-05-01T10:59:53.134Z</time></trkpt><trkpt lat="44.0648913" lon="11.5473078"><ele>587.0</ele><time>2026-05-01T10:59:54.134Z</time></trkpt><trkpt lat="44.0649635" lon="11.5472393"><ele>587.0</ele><time>2026-05-01T10:59:55.134Z</time></trkpt><trkpt lat="44.0650343" lon="11.5471687"><ele>587.0</ele><time>2026-05-01T10:59:56.134Z</time></trkpt><trkpt lat="44.0651007" lon="11.547096"><ele>589.6</ele><time>2026-05-01T10:59:57.133Z</time></trkpt><trkpt lat="44.0651668" lon="11.5470045"><ele>592.2</ele><time>2026-05-01T10:59:58.134Z</time></trkpt><trkpt lat="44.0652323" lon="11.546907"><ele>594.8</ele><time>2026-05-01T10:59:59.134Z</time></trkpt><trkpt lat="44.0652977" lon="11.5468092"><ele>597.4</ele><time>2026-05-01T11:00:00.136Z</time></trkpt><trkpt lat="44.0653607" lon="11.5467068"><ele>600.0</ele><time>2026-05-01T11:00:01.134Z</time></trkpt><trkpt lat="44.0654237" lon="11.5466092"><ele>600.0</ele><time>2026-05-01T11:00:02.133Z</time></trkpt><trkpt lat="44.0654888" lon="11.5465073"><ele>600.0</ele><time>2026-05-01T11:00:03.135Z</time></trkpt><trkpt lat="44.0655525" lon="11.5464058"><ele>600.0</ele><time>2026-05-01T11:00:04.131Z</time></trkpt><trkpt lat="44.0656193" lon="11.5463035"><ele>600.0</ele><time>2026-05-01T11:00:05.131Z</time></trkpt><trkpt lat="44.0656908" lon="11.546197"><ele>600.0</ele><time>2026-05-01T11:00:06.133Z</time></trkpt><trkpt lat="44.065762" lon="11.546093"><ele>602.5</ele><time>2026-05-01T11:00:07.132Z</time></trkpt><trkpt lat="44.065831" lon="11.5460022"><ele>605.0</ele><time>2026-05-01T11:00:08.134Z</time></trkpt><trkpt lat="44.0658942" lon="11.5459107"><ele>607.5</ele><time>2026-05-01T11:00:09.135Z</time></trkpt><trkpt lat="44.0659513" lon="11.5458117"><ele>610.0</ele><time>2026-05-01T11:00:10.136Z</time></trkpt><trkpt lat="44.0660055" lon="11.5457198"><ele>612.5</ele><time>2026-05-01T11:00:11.133Z</time></trkpt><trkpt lat="44.0660635" lon="11.545638"><ele>615.0</ele><time>2026-05-01T11:00:12.134Z</time></trkpt><trkpt lat="44.0661252" lon="11.5455662"><ele>615.0</ele><time>2026-05-01T11:00:13.133Z</time></trkpt><trkpt lat="44.0661963" lon="11.5455085"><ele>615.0</ele><time>2026-05-01T11:00:14.134Z</time></trkpt><trkpt lat="44.0662583" lon="11.5454735"><ele>615.0</ele><time>2026-05-01T11:00:15.134Z</time></trkpt><trkpt lat="44.0663565" lon="11.5453918"><ele>615.0</ele><time>2026-05-01T11:00:17.132Z</time></trkpt><trkpt lat="44.0664723" lon="11.545355"><ele>615.0</ele><time>2026-05-01T11:00:19.132Z</time></trkpt><trkpt lat="44.0665472" lon="11.5453432"><ele>616.1666666666666</ele><time>2026-05-01T11:00:20.13Z</time></trkpt><trkpt lat="44.0666518" lon="11.5453035"><ele>617.3333333333334</ele><time>2026-05-01T11:00:22.133Z</time></trkpt><trkpt lat="44.0667258" lon="11.5452063"><ele>618.5</ele><time>2026-05-01T11:00:24.133Z</time></trkpt><trkpt lat="44.0667237" lon="11.5451048"><ele>619.6666666666667</ele><time>2026-05-01T11:00:27.133Z</time></trkpt><trkpt lat="44.0666222" lon="11.5451127"><ele>620.8333333333334</ele><time>2026-05-01T11:00:29.131Z</time></trkpt><trkpt lat="44.06656" lon="11.5450907"><ele>622.0</ele><time>2026-05-01T11:00:30.133Z</time></trkpt><trkpt lat="44.0664847" lon="11.5450445"><ele>622.0</ele><time>2026-05-01T11:00:31.133Z</time></trkpt><trkpt lat="44.0663982" lon="11.544991"><ele>622.0</ele><time>2026-05-01T11:00:32.132Z</time></trkpt><trkpt lat="44.066325" lon="11.5449248"><ele>622.0</ele><time>2026-05-01T11:00:33.134Z</time></trkpt><trkpt lat="44.0662638" lon="11.5448418"><ele>622.0</ele><time>2026-05-01T11:00:34.134Z</time></trkpt><trkpt lat="44.0662097" lon="11.5447545"><ele>622.0</ele><time>2026-05-01T11:00:35.133Z</time></trkpt><trkpt lat="44.0661593" lon="11.544681"><ele>622.0</ele><time>2026-05-01T11:00:36.133Z</time></trkpt><trkpt lat="44.066099" lon="11.5446337"><ele>622.0</ele><time>2026-05-01T11:00:37.135Z</time></trkpt><trkpt lat="44.0660305" lon="11.544608"><ele>622.0</ele><time>2026-05-01T11:00:38.133Z</time></trkpt><trkpt lat="44.0659605" lon="11.5445738"><ele>622.0</ele><time>2026-05-01T11:00:39.134Z</time></trkpt><trkpt lat="44.0658925" lon="11.5445177"><ele>622.0</ele><time>2026-05-01T11:00:40.132Z</time></trkpt><trkpt lat="44.0658215" lon="11.5444655"><ele>622.0</ele><time>2026-05-01T11:00:41.132Z</time></trkpt><trkpt lat="44.0657467" lon="11.5444213"><ele>622.0</ele><time>2026-05-01T11:00:42.132Z</time></trkpt><trkpt lat="44.065676" lon="11.5443712"><ele>626.3333333333334</ele><time>2026-05-01T11:00:43.132Z</time></trkpt><trkpt lat="44.0656068" lon="11.544317"><ele>630.6666666666667</ele><time>2026-05-01T11:00:44.132Z</time></trkpt><trkpt lat="44.0655305" lon="11.5442798"><ele>635.0</ele><time>2026-05-01T11:00:45.132Z</time></trkpt><trkpt lat="44.0654582" lon="11.5442553"><ele>639.3333333333334</ele><time>2026-05-01T11:00:46.132Z</time></trkpt><trkpt lat="44.065381" lon="11.5442602"><ele>643.6666666666666</ele><time>2026-05-01T11:00:47.132Z</time></trkpt><trkpt lat="44.0653053" lon="11.5442795"><ele>648.0</ele><time>2026-05-01T11:00:48.132Z</time></trkpt><trkpt lat="44.065233" lon="11.54429"><ele>648.0</ele><time>2026-05-01T11:00:49.133Z</time></trkpt><trkpt lat="44.065164" lon="11.5442773"><ele>648.0</ele><time>2026-05-01T11:00:50.133Z</time></trkpt><trkpt lat="44.0651038" lon="11.5442435"><ele>648.0</ele><time>2026-05-01T11:00:51.133Z</time></trkpt><trkpt lat="44.0650417" lon="11.5441733"><ele>648.0</ele><time>2026-05-01T11:00:52.131Z</time></trkpt><trkpt lat="44.064971" lon="11.5441103"><ele>648.0</ele><time>2026-05-01T11:00:53.13Z</time></trkpt><trkpt lat="44.0649018" lon="11.5440622"><ele>648.0</ele><time>2026-05-01T11:00:54.131Z</time></trkpt><trkpt lat="44.0648218" lon="11.543956"><ele>643.0</ele><time>2026-05-01T11:00:56.132Z</time></trkpt><trkpt lat="44.0648218" lon="11.5437563"><ele>638.0</ele><time>2026-05-01T11:00:58.136Z</time></trkpt><trkpt lat="44.064817" lon="11.5436352"><ele>633.0</ele><time>2026-05-01T11:00:59.133Z</time></trkpt><trkpt lat="44.064817" lon="11.5435117"><ele>628.0</ele><time>2026-05-01T11:01:00.135Z</time></trkpt><trkpt lat="44.0648337" lon="11.5433828"><ele>623.0</ele><time>2026-05-01T11:01:01.133Z</time></trkpt><trkpt lat="44.0648628" lon="11.543256"><ele>623.0</ele><time>2026-05-01T11:01:02.134Z</time></trkpt><trkpt lat="44.064908" lon="11.5430683"><ele>623.0</ele><time>2026-05-01T11:01:04.135Z</time></trkpt><trkpt lat="44.0649277" lon="11.5429805"><ele>623.0</ele><time>2026-05-01T11:01:05.135Z</time></trkpt><trkpt lat="44.0649422" lon="11.5428842"><ele>623.0</ele><time>2026-05-01T11:01:06.136Z</time></trkpt><trkpt lat="44.0649458" lon="11.5427785"><ele>623.0</ele><time>2026-05-01T11:01:07.135Z</time></trkpt><trkpt lat="44.0649523" lon="11.5426592"><ele>623.0</ele><time>2026-05-01T11:01:08.137Z</time></trkpt><trkpt lat="44.0649668" lon="11.5425207"><ele>628.6666666666666</ele><time>2026-05-01T11:01:09.136Z</time></trkpt><trkpt lat="44.0649875" lon="11.5423868"><ele>634.3333333333333</ele><time>2026-05-01T11:01:10.136Z</time></trkpt><trkpt lat="44.065015" lon="11.5422647"><ele>640.0</ele><time>2026-05-01T11:01:11.135Z</time></trkpt><trkpt lat="44.065035" lon="11.5421517"><ele>645.6666666666666</ele><time>2026-05-01T11:01:12.135Z</time></trkpt><trkpt lat="44.0650503" lon="11.5420527"><ele>651.3333333333334</ele><time>2026-05-01T11:01:13.135Z</time></trkpt><trkpt lat="44.065083" lon="11.5419705"><ele>657.0</ele><time>2026-05-01T11:01:14.135Z</time></trkpt><trkpt lat="44.0651288" lon="11.5418807"><ele>657.0</ele><time>2026-05-01T11:01:15.135Z</time></trkpt><trkpt lat="44.0651678" lon="11.5417803"><ele>657.0</ele><time>2026-05-01T11:01:16.134Z</time></trkpt><trkpt lat="44.0651882" lon="11.5416648"><ele>657.0</ele><time>2026-05-01T11:01:17.132Z</time></trkpt><trkpt lat="44.0652077" lon="11.5415648"><ele>657.0</ele><time>2026-05-01T11:01:18.132Z</time></trkpt><trkpt lat="44.0652418" lon="11.5414872"><ele>657.0</ele><time>2026-05-01T11:01:19.132Z</time></trkpt><trkpt lat="44.0652937" lon="11.5414262"><ele>657.0</ele><time>2026-05-01T11:01:20.132Z</time></trkpt><trkpt lat="44.0653663" lon="11.5413735"><ele>657.0</ele><time>2026-05-01T11:01:21.134Z</time></trkpt><trkpt lat="44.0654447" lon="11.5413267"><ele>657.0</ele><time>2026-05-01T11:01:22.134Z</time></trkpt><trkpt lat="44.065522" lon="11.5412793"><ele>657.0</ele><time>2026-05-01T11:01:23.135Z</time></trkpt><trkpt lat="44.065603" lon="11.541221"><ele>657.0</ele><time>2026-05-01T11:01:24.136Z</time></trkpt><trkpt lat="44.065689" lon="11.541153"><ele>657.0</ele><time>2026-05-01T11:01:25.136Z</time></trkpt><trkpt lat="44.0657675" lon="11.5410778"><ele>658.8</ele><time>2026-05-01T11:01:26.135Z</time></trkpt><trkpt lat="44.0658338" lon="11.5409938"><ele>660.6</ele><time>2026-05-01T11:01:27.136Z</time></trkpt><trkpt lat="44.0658978" lon="11.5408855"><ele>662.4</ele><time>2026-05-01T11:01:28.135Z</time></trkpt><trkpt lat="44.0659623" lon="11.5407587"><ele>664.1999999999999</ele><time>2026-05-01T11:01:29.135Z</time></trkpt><trkpt lat="44.0660243" lon="11.5406355"><ele>666.0</ele><time>2026-05-01T11:01:30.133Z</time></trkpt><trkpt lat="44.0660798" lon="11.5405198"><ele>666.0</ele><time>2026-05-01T11:01:31.133Z</time></trkpt><trkpt lat="44.0661272" lon="11.540418"><ele>666.0</ele><time>2026-05-01T11:01:32.133Z</time></trkpt><trkpt lat="44.0661592" lon="11.540318"><ele>666.0</ele><time>2026-05-01T11:01:33.133Z</time></trkpt><trkpt lat="44.0661678" lon="11.5402155"><ele>666.0</ele><time>2026-05-01T11:01:34.133Z</time></trkpt><trkpt lat="44.066172" lon="11.5401012"><ele>666.0</ele><time>2026-05-01T11:01:35.131Z</time></trkpt><trkpt lat="44.066169" lon="11.5399765"><ele>666.0</ele><time>2026-05-01T11:01:36.132Z</time></trkpt><trkpt lat="44.0661668" lon="11.539843"><ele>664.8</ele><time>2026-05-01T11:01:37.132Z</time></trkpt><trkpt lat="44.0661728" lon="11.5396968"><ele>663.5999999999999</ele><time>2026-05-01T11:01:38.132Z</time></trkpt><trkpt lat="44.0661808" lon="11.5395565"><ele>662.4</ele><time>2026-05-01T11:01:39.132Z</time></trkpt><trkpt lat="44.0661867" lon="11.5394313"><ele>661.2</ele><time>2026-05-01T11:01:40.132Z</time></trkpt><trkpt lat="44.066194" lon="11.5393108"><ele>660.0</ele><time>2026-05-01T11:01:41.133Z</time></trkpt><trkpt lat="44.0662038" lon="11.5391912"><ele>660.0</ele><time>2026-05-01T11:01:42.131Z</time></trkpt><trkpt lat="44.0662085" lon="11.5390687"><ele>660.0</ele><time>2026-05-01T11:01:43.13Z</time></trkpt><trkpt lat="44.066213" lon="11.5389487"><ele>660.0</ele><time>2026-05-01T11:01:44.131Z</time></trkpt><trkpt lat="44.066214" lon="11.5388278"><ele>660.0</ele><time>2026-05-01T11:01:45.131Z</time></trkpt><trkpt lat="44.0662202" lon="11.5387028"><ele>660.0</ele><time>2026-05-01T11:01:46.138Z</time></trkpt><trkpt lat="44.066242" lon="11.5385775"><ele>660.0</ele><time>2026-05-01T11:01:47.133Z</time></trkpt><trkpt lat="44.0662782" lon="11.5384645"><ele>658.8</ele><time>2026-05-01T11:01:48.136Z</time></trkpt><trkpt lat="44.066328" lon="11.5383758"><ele>657.6</ele><time>2026-05-01T11:01:49.134Z</time></trkpt><trkpt lat="44.0663915" lon="11.538298"><ele>656.4000000000001</ele><time>2026-05-01T11:01:50.135Z</time></trkpt><trkpt lat="44.0664537" lon="11.5382433"><ele>655.2</ele><time>2026-05-01T11:01:51.134Z</time></trkpt><trkpt lat="44.0665305" lon="11.5381367"><ele>654.0</ele><time>2026-05-01T11:01:53.133Z</time></trkpt><trkpt lat="44.0665492" lon="11.537989"><ele>654.0</ele><time>2026-05-01T11:01:55.134Z</time></trkpt><trkpt lat="44.0665687" lon="11.5379047"><ele>654.0</ele><time>2026-05-01T11:01:56.133Z</time></trkpt><trkpt lat="44.0666045" lon="11.5378058"><ele>654.0</ele><time>2026-05-01T11:01:57.133Z</time></trkpt><trkpt lat="44.0666523" lon="11.5377217"><ele>654.0</ele><time>2026-05-01T11:01:58.133Z</time></trkpt><trkpt lat="44.0667018" lon="11.537653"><ele>654.0</ele><time>2026-05-01T11:01:59.135Z</time></trkpt><trkpt lat="44.0668128" lon="11.5375605"><ele>654.0</ele><time>2026-05-01T11:02:01.134Z</time></trkpt><trkpt lat="44.0668825" lon="11.537517"><ele>655.5</ele><time>2026-05-01T11:02:02.134Z</time></trkpt><trkpt lat="44.0669615" lon="11.5374825"><ele>657.0</ele><time>2026-05-01T11:02:03.134Z</time></trkpt><trkpt lat="44.0670362" lon="11.5374605"><ele>658.5</ele><time>2026-05-01T11:02:04.133Z</time></trkpt><trkpt lat="44.0671048" lon="11.5374233"><ele>660.0</ele><time>2026-05-01T11:02:05.132Z</time></trkpt><trkpt lat="44.0671672" lon="11.5373673"><ele>661.5</ele><time>2026-05-01T11:02:06.131Z</time></trkpt><trkpt lat="44.0672062" lon="11.5372932"><ele>663.0</ele><time>2026-05-01T11:02:07.131Z</time></trkpt><trkpt lat="44.0672777" lon="11.5371885"><ele>663.0</ele><time>2026-05-01T11:02:09.131Z</time></trkpt><trkpt lat="44.0673882" lon="11.5371155"><ele>663.0</ele><time>2026-05-01T11:02:11.132Z</time></trkpt><trkpt lat="44.0674537" lon="11.5370938"><ele>663.0</ele><time>2026-05-01T11:02:12.133Z</time></trkpt><trkpt lat="44.067526" lon="11.5370847"><ele>663.0</ele><time>2026-05-01T11:02:13.133Z</time></trkpt><trkpt lat="44.067594" lon="11.5370715"><ele>663.0</ele><time>2026-05-01T11:02:14.131Z</time></trkpt><trkpt lat="44.0677162" lon="11.5369767"><ele>664.3333333333334</ele><time>2026-05-01T11:02:16.132Z</time></trkpt><trkpt lat="44.067779" lon="11.5369058"><ele>665.6666666666666</ele><time>2026-05-01T11:02:17.132Z</time></trkpt><trkpt lat="44.0678367" lon="11.5368568"><ele>667.0</ele><time>2026-05-01T11:02:18.132Z</time></trkpt><trkpt lat="44.0679397" lon="11.5368545"><ele>668.3333333333333</ele><time>2026-05-01T11:02:20.132Z</time></trkpt><trkpt lat="44.068029" lon="11.536886"><ele>669.6666666666666</ele><time>2026-05-01T11:02:22.133Z</time></trkpt><trkpt lat="44.0681278" lon="11.5368525"><ele>671.0</ele><time>2026-05-01T11:02:24.133Z</time></trkpt><trkpt lat="44.0681758" lon="11.5367113"><ele>671.0</ele><time>2026-05-01T11:02:26.132Z</time></trkpt><trkpt lat="44.0682085" lon="11.53661"><ele>671.0</ele><time>2026-05-01T11:02:27.133Z</time></trkpt><trkpt lat="44.0682485" lon="11.5365052"><ele>671.0</ele><time>2026-05-01T11:02:28.132Z</time></trkpt><trkpt lat="44.0682858" lon="11.5364118"><ele>671.0</ele><time>2026-05-01T11:02:29.133Z</time></trkpt><trkpt lat="44.0683225" lon="11.536331"><ele>671.0</ele><time>2026-05-01T11:02:30.132Z</time></trkpt><trkpt lat="44.0684017" lon="11.5362245"><ele>671.0</ele><time>2026-05-01T11:02:32.131Z</time></trkpt><trkpt lat="44.068493" lon="11.5361502"><ele>674.0</ele><time>2026-05-01T11:02:34.132Z</time></trkpt><trkpt lat="44.0685395" lon="11.5360457"><ele>677.0</ele><time>2026-05-01T11:02:36.135Z</time></trkpt><trkpt lat="44.0685667" lon="11.535962"><ele>680.0</ele><time>2026-05-01T11:02:37.133Z</time></trkpt><trkpt lat="44.068618" lon="11.5358685"><ele>683.0</ele><time>2026-05-01T11:02:38.133Z</time></trkpt><trkpt lat="44.0686692" lon="11.5357845"><ele>686.0</ele><time>2026-05-01T11:02:39.134Z</time></trkpt><trkpt lat="44.0687628" lon="11.5357275"><ele>689.0</ele><time>2026-05-01T11:02:41.133Z</time></trkpt><trkpt lat="44.0688662" lon="11.535729"><ele>689.0</ele><time>2026-05-01T11:02:43.135Z</time></trkpt><trkpt lat="44.068989" lon="11.5356945"><ele>689.0</ele><time>2026-05-01T11:02:45.133Z</time></trkpt><trkpt lat="44.069094" lon="11.5356797"><ele>689.0</ele><time>2026-05-01T11:02:47.132Z</time></trkpt><trkpt lat="44.0691455" lon="11.5356023"><ele>689.0</ele><time>2026-05-01T11:02:49.133Z</time></trkpt><trkpt lat="44.0691668" lon="11.53551"><ele>689.0</ele><time>2026-05-01T11:02:50.133Z</time></trkpt><trkpt lat="44.0691963" lon="11.5353982"><ele>692.8571428571429</ele><time>2026-05-01T11:02:51.131Z</time></trkpt><trkpt lat="44.0692083" lon="11.5353013"><ele>696.7142857142858</ele><time>2026-05-01T11:02:52.132Z</time></trkpt><trkpt lat="44.0691928" lon="11.5352122"><ele>700.5714285714287</ele><time>2026-05-01T11:02:53.131Z</time></trkpt><trkpt lat="44.0691747" lon="11.535105"><ele>704.4285714285714</ele><time>2026-05-01T11:02:54.132Z</time></trkpt><trkpt lat="44.0691743" lon="11.534999"><ele>708.2857142857143</ele><time>2026-05-01T11:02:55.131Z</time></trkpt><trkpt lat="44.0691828" lon="11.5348993"><ele>712.1428571428572</ele><time>2026-05-01T11:02:56.13Z</time></trkpt><trkpt lat="44.0691975" lon="11.5348033"><ele>716.0</ele><time>2026-05-01T11:02:57.131Z</time></trkpt><trkpt lat="44.0692125" lon="11.5346827"><ele>716.0</ele><time>2026-05-01T11:02:58.131Z</time></trkpt><trkpt lat="44.0692282" lon="11.534556"><ele>716.0</ele><time>2026-05-01T11:02:59.132Z</time></trkpt><trkpt lat="44.069243" lon="11.5344348"><ele>716.0</ele><time>2026-05-01T11:03:00.132Z</time></trkpt><trkpt lat="44.0692605" lon="11.5343185"><ele>716.0</ele><time>2026-05-01T11:03:01.132Z</time></trkpt><trkpt lat="44.0692873" lon="11.5342128"><ele>716.0</ele><time>2026-05-01T11:03:02.131Z</time></trkpt><trkpt lat="44.069301" lon="11.5341098"><ele>716.0</ele><time>2026-05-01T11:03:03.132Z</time></trkpt><trkpt lat="44.0693283" lon="11.5339842"><ele>716.8333333333333</ele><time>2026-05-01T11:03:04.132Z</time></trkpt><trkpt lat="44.0693542" lon="11.5338612"><ele>717.6666666666666</ele><time>2026-05-01T11:03:05.132Z</time></trkpt><trkpt lat="44.0693672" lon="11.533738"><ele>718.5</ele><time>2026-05-01T11:03:06.132Z</time></trkpt><trkpt lat="44.0693683" lon="11.5336342"><ele>719.3333333333334</ele><time>2026-05-01T11:03:07.131Z</time></trkpt><trkpt lat="44.0693293" lon="11.5335652"><ele>720.1666666666667</ele><time>2026-05-01T11:03:09.133Z</time></trkpt><trkpt lat="44.0692555" lon="11.5336127"><ele>721.0</ele><time>2026-05-01T11:03:11.132Z</time></trkpt><trkpt lat="44.0691502" lon="11.5336397"><ele>721.5</ele><time>2026-05-01T11:03:13.135Z</time></trkpt><trkpt lat="44.0690843" lon="11.5335543"><ele>722.0</ele><time>2026-05-01T11:03:15.134Z</time></trkpt><trkpt lat="44.069128" lon="11.5334282"><ele>722.5</ele><time>2026-05-01T11:03:17.133Z</time></trkpt><trkpt lat="44.0692312" lon="11.53333"><ele>723.0</ele><time>2026-05-01T11:03:19.134Z</time></trkpt><trkpt lat="44.0692703" lon="11.5332583"><ele>723.5</ele><time>2026-05-01T11:03:20.131Z</time></trkpt><trkpt lat="44.0692928" lon="11.5331718"><ele>724.0</ele><time>2026-05-01T11:03:21.131Z</time></trkpt><trkpt lat="44.0692987" lon="11.5330713"><ele>724.0</ele><time>2026-05-01T11:03:22.132Z</time></trkpt><trkpt lat="44.0692973" lon="11.5329642"><ele>724.0</ele><time>2026-05-01T11:03:23.131Z</time></trkpt><trkpt lat="44.0692917" lon="11.5328548"><ele>724.0</ele><time>2026-05-01T11:03:24.135Z</time></trkpt><trkpt lat="44.0692827" lon="11.5327477"><ele>724.0</ele><time>2026-05-01T11:03:25.133Z</time></trkpt><trkpt lat="44.0692752" lon="11.5326465"><ele>724.0</ele><time>2026-05-01T11:03:26.133Z</time></trkpt><trkpt lat="44.0692828" lon="11.5325465"><ele>724.0</ele><time>2026-05-01T11:03:27.135Z</time></trkpt><trkpt lat="44.0693057" lon="11.5324393"><ele>724.5714285714286</ele><time>2026-05-01T11:03:28.136Z</time></trkpt><trkpt lat="44.0693397" lon="11.5323437"><ele>725.1428571428571</ele><time>2026-05-01T11:03:29.134Z</time></trkpt><trkpt lat="44.0693827" lon="11.5322588"><ele>725.7142857142858</ele><time>2026-05-01T11:03:30.136Z</time></trkpt><trkpt lat="44.06943" lon="11.5321765"><ele>726.2857142857142</ele><time>2026-05-01T11:03:31.134Z</time></trkpt><trkpt lat="44.0694775" lon="11.532101"><ele>726.8571428571429</ele><time>2026-05-01T11:03:32.137Z</time></trkpt><trkpt lat="44.0695282" lon="11.5320318"><ele>727.4285714285714</ele><time>2026-05-01T11:03:33.134Z</time></trkpt><trkpt lat="44.0695732" lon="11.5319547"><ele>728.0</ele><time>2026-05-01T11:03:34.136Z</time></trkpt><trkpt lat="44.0696148" lon="11.5318585"><ele>728.2</ele><time>2026-05-01T11:03:35.135Z</time></trkpt><trkpt lat="44.0696588" lon="11.5317615"><ele>728.4</ele><time>2026-05-01T11:03:36.135Z</time></trkpt><trkpt lat="44.0697095" lon="11.5316672"><ele>728.6</ele><time>2026-05-01T11:03:37.135Z</time></trkpt><trkpt lat="44.069768" lon="11.5315755"><ele>728.8000000000001</ele><time>2026-05-01T11:03:38.135Z</time></trkpt><trkpt lat="44.0698385" lon="11.5314838"><ele>729.0</ele><time>2026-05-01T11:03:39.135Z</time></trkpt><trkpt lat="44.0699217" lon="11.5314053"><ele>733.4000000000001</ele><time>2026-05-01T11:03:40.135Z</time></trkpt><trkpt lat="44.070016" lon="11.5313363"><ele>737.8</ele><time>2026-05-01T11:03:41.135Z</time></trkpt><trkpt lat="44.0701042" lon="11.531279"><ele>742.2</ele><time>2026-05-01T11:03:42.136Z</time></trkpt><trkpt lat="44.0701887" lon="11.5312205"><ele>746.5999999999999</ele><time>2026-05-01T11:03:43.135Z</time></trkpt><trkpt lat="44.0702553" lon="11.5311472"><ele>751.0</ele><time>2026-05-01T11:03:44.134Z</time></trkpt><trkpt lat="44.0703078" lon="11.5310403"><ele>751.0</ele><time>2026-05-01T11:03:45.132Z</time></trkpt><trkpt lat="44.0703592" lon="11.5309297"><ele>751.0</ele><time>2026-05-01T11:03:46.132Z</time></trkpt><trkpt lat="44.0704137" lon="11.5308347"><ele>751.0</ele><time>2026-05-01T11:03:47.133Z</time></trkpt><trkpt lat="44.0704548" lon="11.5307435"><ele>751.0</ele><time>2026-05-01T11:03:48.133Z</time></trkpt><trkpt lat="44.0704742" lon="11.5306525"><ele>751.0</ele><time>2026-05-01T11:03:49.133Z</time></trkpt><trkpt lat="44.0704998" lon="11.5305617"><ele>751.0</ele><time>2026-05-01T11:03:50.132Z</time></trkpt><trkpt lat="44.0705452" lon="11.5304758"><ele>751.0</ele><time>2026-05-01T11:03:51.133Z</time></trkpt><trkpt lat="44.0706038" lon="11.5303937"><ele>751.0</ele><time>2026-05-01T11:03:52.136Z</time></trkpt><trkpt lat="44.0706698" lon="11.5303105"><ele>751.0</ele><time>2026-05-01T11:03:53.133Z</time></trkpt><trkpt lat="44.070725" lon="11.5302293"><ele>751.0</ele><time>2026-05-01T11:03:54.134Z</time></trkpt><trkpt lat="44.070759" lon="11.5301482"><ele>751.0</ele><time>2026-05-01T11:03:55.136Z</time></trkpt><trkpt lat="44.0707738" lon="11.5300555"><ele>751.0</ele><time>2026-05-01T11:03:56.132Z</time></trkpt><trkpt lat="44.0707745" lon="11.529963"><ele>755.8</ele><time>2026-05-01T11:03:57.133Z</time></trkpt><trkpt lat="44.0708122" lon="11.5298123"><ele>760.5999999999999</ele><time>2026-05-01T11:03:59.134Z</time></trkpt><trkpt lat="44.070913" lon="11.5297493"><ele>765.4</ele><time>2026-05-01T11:04:01.134Z</time></trkpt><trkpt lat="44.071005" lon="11.5296367"><ele>770.2</ele><time>2026-05-01T11:04:03.134Z</time></trkpt><trkpt lat="44.0710378" lon="11.5295592"><ele>775.0</ele><time>2026-05-01T11:04:04.134Z</time></trkpt><trkpt lat="44.0710765" lon="11.5294813"><ele>775.0</ele><time>2026-05-01T11:04:05.133Z</time></trkpt><trkpt lat="44.071117" lon="11.529405"><ele>775.0</ele><time>2026-05-01T11:04:06.135Z</time></trkpt><trkpt lat="44.0711687" lon="11.529253"><ele>775.0</ele><time>2026-05-01T11:04:08.135Z</time></trkpt><trkpt lat="44.071204" lon="11.5291015"><ele>775.0</ele><time>2026-05-01T11:04:10.134Z</time></trkpt><trkpt lat="44.0712503" lon="11.5289538"><ele>775.0</ele><time>2026-05-01T11:04:12.133Z</time></trkpt><trkpt lat="44.0713238" lon="11.5289022"><ele>774.9999999999999</ele><time>2026-05-01T11:04:14.135Z</time></trkpt><trkpt lat="44.0713965" lon="11.5289167"><ele>775.0</ele><time>2026-05-01T11:04:16.135Z</time></trkpt><trkpt lat="44.0714245" lon="11.5290098"><ele>775.0</ele><time>2026-05-01T11:04:19.136Z</time></trkpt><trkpt lat="44.0713958" lon="11.529095"><ele>775.0</ele><time>2026-05-01T11:04:21.136Z</time></trkpt><trkpt lat="44.0713955" lon="11.5292357"><ele>774.9999999999999</ele><time>2026-05-01T11:04:23.135Z</time></trkpt><trkpt lat="44.0714177" lon="11.5293835"><ele>775.0</ele><time>2026-05-01T11:04:25.135Z</time></trkpt><trkpt lat="44.0714283" lon="11.5295485"><ele>775.5714285714286</ele><time>2026-05-01T11:04:27.137Z</time></trkpt><trkpt lat="44.071439" lon="11.52964"><ele>776.1428571428571</ele><time>2026-05-01T11:04:28.138Z</time></trkpt><trkpt lat="44.0714547" lon="11.529734"><ele>776.7142857142858</ele><time>2026-05-01T11:04:29.14Z</time></trkpt><trkpt lat="44.0714735" lon="11.5298337"><ele>777.2857142857142</ele><time>2026-05-01T11:04:30.138Z</time></trkpt><trkpt lat="44.0714992" lon="11.52992"><ele>777.8571428571429</ele><time>2026-05-01T11:04:31.135Z</time></trkpt><trkpt lat="44.0715377" lon="11.5299963"><ele>778.4285714285714</ele><time>2026-05-01T11:04:32.134Z</time></trkpt><trkpt lat="44.0715817" lon="11.5300727"><ele>779.0</ele><time>2026-05-01T11:04:33.133Z</time></trkpt><trkpt lat="44.07167" lon="11.530208"><ele>784.0000000000001</ele><time>2026-05-01T11:04:35.132Z</time></trkpt><trkpt lat="44.0717007" lon="11.5302885"><ele>789.0</ele><time>2026-05-01T11:04:36.133Z</time></trkpt><trkpt lat="44.0717182" lon="11.5303748"><ele>794.0</ele><time>2026-05-01T11:04:37.134Z</time></trkpt><trkpt lat="44.0717338" lon="11.530467"><ele>799.0</ele><time>2026-05-01T11:04:38.134Z</time></trkpt><trkpt lat="44.0717637" lon="11.530559"><ele>804.0</ele><time>2026-05-01T11:04:39.137Z</time></trkpt><trkpt lat="44.0717948" lon="11.5306507"><ele>809.0000000000001</ele><time>2026-05-01T11:04:40.136Z</time></trkpt><trkpt lat="44.0718148" lon="11.5307463"><ele>814.0</ele><time>2026-05-01T11:04:41.137Z</time></trkpt><trkpt lat="44.0718275" lon="11.5308412"><ele>813.8333333333333</ele><time>2026-05-01T11:04:42.135Z</time></trkpt><trkpt lat="44.0718525" lon="11.5309317"><ele>813.6666666666666</ele><time>2026-05-01T11:04:43.134Z</time></trkpt><trkpt lat="44.0718948" lon="11.5310045"><ele>813.5</ele><time>2026-05-01T11:04:44.133Z</time></trkpt><trkpt lat="44.0719558" lon="11.5310585"><ele>813.3333333333333</ele><time>2026-05-01T11:04:45.137Z</time></trkpt><trkpt lat="44.072036" lon="11.5311157"><ele>813.1666666666666</ele><time>2026-05-01T11:04:46.135Z</time></trkpt><trkpt lat="44.072128" lon="11.531186"><ele>813.0</ele><time>2026-05-01T11:04:47.135Z</time></trkpt><trkpt lat="44.0722342" lon="11.5312692"><ele>813.0</ele><time>2026-05-01T11:04:48.135Z</time></trkpt><trkpt lat="44.0723537" lon="11.5313497"><ele>813.0</ele><time>2026-05-01T11:04:49.135Z</time></trkpt><trkpt lat="44.07246" lon="11.5314135"><ele>813.0</ele><time>2026-05-01T11:04:50.136Z</time></trkpt><trkpt lat="44.0725503" lon="11.5314818"><ele>813.0</ele><time>2026-05-01T11:04:51.136Z</time></trkpt><trkpt lat="44.0726227" lon="11.5315675"><ele>813.0</ele><time>2026-05-01T11:04:52.136Z</time></trkpt><trkpt lat="44.0726773" lon="11.5316567"><ele>815.8333333333334</ele><time>2026-05-01T11:04:53.137Z</time></trkpt><trkpt lat="44.0727113" lon="11.5317618"><ele>818.6666666666667</ele><time>2026-05-01T11:04:54.136Z</time></trkpt><trkpt lat="44.0727342" lon="11.5318843"><ele>821.5</ele><time>2026-05-01T11:04:55.137Z</time></trkpt><trkpt lat="44.072757" lon="11.531984"><ele>824.3333333333334</ele><time>2026-05-01T11:04:56.135Z</time></trkpt><trkpt lat="44.0727907" lon="11.532065"><ele>827.1666666666667</ele><time>2026-05-01T11:04:57.135Z</time></trkpt><trkpt lat="44.0728422" lon="11.5321528"><ele>830.0</ele><time>2026-05-01T11:04:58.133Z</time></trkpt><trkpt lat="44.072905" lon="11.5322648"><ele>830.0</ele><time>2026-05-01T11:04:59.133Z</time></trkpt><trkpt lat="44.0729625" lon="11.5323812"><ele>830.0</ele><time>2026-05-01T11:05:00.133Z</time></trkpt><trkpt lat="44.0730193" lon="11.5324993"><ele>830.0</ele><time>2026-05-01T11:05:01.134Z</time></trkpt><trkpt lat="44.0730642" lon="11.532617"><ele>830.0</ele><time>2026-05-01T11:05:02.135Z</time></trkpt><trkpt lat="44.0730982" lon="11.5327385"><ele>830.0</ele><time>2026-05-01T11:05:03.138Z</time></trkpt><trkpt lat="44.0731248" lon="11.5328502"><ele>828.0</ele><time>2026-05-01T11:05:04.135Z</time></trkpt><trkpt lat="44.073147" lon="11.5329538"><ele>826.0</ele><time>2026-05-01T11:05:05.134Z</time></trkpt><trkpt lat="44.0731722" lon="11.5330625"><ele>824.0</ele><time>2026-05-01T11:05:06.135Z</time></trkpt><trkpt lat="44.0732065" lon="11.5331817"><ele>822.0</ele><time>2026-05-01T11:05:07.136Z</time></trkpt><trkpt lat="44.0732557" lon="11.5333038"><ele>820.0</ele><time>2026-05-01T11:05:08.135Z</time></trkpt><trkpt lat="44.073318" lon="11.5334267"><ele>824.6666666666666</ele><time>2026-05-01T11:05:09.137Z</time></trkpt><trkpt lat="44.0733848" lon="11.533533"><ele>829.3333333333333</ele><time>2026-05-01T11:05:10.138Z</time></trkpt><trkpt lat="44.0734478" lon="11.5336232"><ele>834.0</ele><time>2026-05-01T11:05:11.135Z</time></trkpt><trkpt lat="44.0734953" lon="11.5337075"><ele>838.6666666666667</ele><time>2026-05-01T11:05:12.135Z</time></trkpt><trkpt lat="44.0735338" lon="11.5337922"><ele>843.3333333333334</ele><time>2026-05-01T11:05:13.135Z</time></trkpt><trkpt lat="44.073565" lon="11.5338712"><ele>848.0</ele><time>2026-05-01T11:05:14.135Z</time></trkpt><trkpt lat="44.0735888" lon="11.5339672"><ele>848.0</ele><time>2026-05-01T11:05:15.135Z</time></trkpt><trkpt lat="44.0736103" lon="11.5340907"><ele>848.0</ele><time>2026-05-01T11:05:16.136Z</time></trkpt><trkpt lat="44.073618" lon="11.5342288"><ele>848.0</ele><time>2026-05-01T11:05:17.136Z</time></trkpt><trkpt lat="44.0736083" lon="11.5343805"><ele>848.0</ele><time>2026-05-01T11:05:18.137Z</time></trkpt><trkpt lat="44.0735918" lon="11.5345197"><ele>848.0</ele><time>2026-05-01T11:05:19.137Z</time></trkpt><trkpt lat="44.0735917" lon="11.5346495"><ele>849.5999999999999</ele><time>2026-05-01T11:05:20.135Z</time></trkpt><trkpt lat="44.0736128" lon="11.5347852"><ele>851.1999999999999</ele><time>2026-05-01T11:05:21.136Z</time></trkpt><trkpt lat="44.0736482" lon="11.5349355"><ele>852.8</ele><time>2026-05-01T11:05:22.135Z</time></trkpt><trkpt lat="44.0736673" lon="11.5350703"><ele>854.4</ele><time>2026-05-01T11:05:23.134Z</time></trkpt><trkpt lat="44.0736687" lon="11.5352023"><ele>856.0</ele><time>2026-05-01T11:05:24.135Z</time></trkpt><trkpt lat="44.0736653" lon="11.535319"><ele>856.6666666666666</ele><time>2026-05-01T11:05:25.134Z</time></trkpt><trkpt lat="44.0736755" lon="11.5354218"><ele>857.3333333333333</ele><time>2026-05-01T11:05:26.135Z</time></trkpt><trkpt lat="44.0737077" lon="11.5355257"><ele>858.0</ele><time>2026-05-01T11:05:27.136Z</time></trkpt><trkpt lat="44.073752" lon="11.5356222"><ele>858.6666666666667</ele><time>2026-05-01T11:05:28.135Z</time></trkpt><trkpt lat="44.0738043" lon="11.53572"><ele>859.3333333333334</ele><time>2026-05-01T11:05:29.136Z</time></trkpt><trkpt lat="44.0738537" lon="11.5358188"><ele>860.0</ele><time>2026-05-01T11:05:30.138Z</time></trkpt><trkpt lat="44.0738957" lon="11.5359137"><ele>860.0000000000001</ele><time>2026-05-01T11:05:31.137Z</time></trkpt><trkpt lat="44.0739278" lon="11.535997"><ele>860.0</ele><time>2026-05-01T11:05:32.135Z</time></trkpt><trkpt lat="44.0739903" lon="11.536171"><ele>860.0</ele><time>2026-05-01T11:05:34.135Z</time></trkpt><trkpt lat="44.0740305" lon="11.536273"><ele>860.0</ele><time>2026-05-01T11:05:35.136Z</time></trkpt><trkpt lat="44.074068" lon="11.536366"><ele>860.0000000000001</ele><time>2026-05-01T11:05:36.135Z</time></trkpt><trkpt lat="44.0740995" lon="11.5364625"><ele>860.0</ele><time>2026-05-01T11:05:37.135Z</time></trkpt><trkpt lat="44.0741242" lon="11.5365758"><ele>863.5000000000001</ele><time>2026-05-01T11:05:38.135Z</time></trkpt><trkpt lat="44.0741452" lon="11.5366848"><ele>867.0</ele><time>2026-05-01T11:05:39.136Z</time></trkpt><trkpt lat="44.0741653" lon="11.5367985"><ele>870.5</ele><time>2026-05-01T11:05:40.136Z</time></trkpt><trkpt lat="44.074185" lon="11.5369088"><ele>874.0</ele><time>2026-05-01T11:05:41.137Z</time></trkpt><trkpt lat="44.0742068" lon="11.5370093"><ele>877.5000000000001</ele><time>2026-05-01T11:05:42.135Z</time></trkpt><trkpt lat="44.074238" lon="11.537107"><ele>881.0</ele><time>2026-05-01T11:05:43.135Z</time></trkpt><trkpt lat="44.074275" lon="11.5372063"><ele>882.0000000000001</ele><time>2026-05-01T11:05:44.135Z</time></trkpt><trkpt lat="44.0743102" lon="11.5373093"><ele>883.0</ele><time>2026-05-01T11:05:45.135Z</time></trkpt><trkpt lat="44.0743463" lon="11.5374163"><ele>884.0</ele><time>2026-05-01T11:05:46.135Z</time></trkpt><trkpt lat="44.0743718" lon="11.53751"><ele>885.0</ele><time>2026-05-01T11:05:47.133Z</time></trkpt><trkpt lat="44.0743908" lon="11.5376182"><ele>886.0000000000001</ele><time>2026-05-01T11:05:48.134Z</time></trkpt><trkpt lat="44.0744073" lon="11.5377332"><ele>887.0</ele><time>2026-05-01T11:05:49.134Z</time></trkpt><trkpt lat="44.0744273" lon="11.5378557"><ele>887.0000000000001</ele><time>2026-05-01T11:05:50.134Z</time></trkpt><trkpt lat="44.0744423" lon="11.5379702"><ele>887.0</ele><time>2026-05-01T11:05:51.138Z</time></trkpt><trkpt lat="44.074462" lon="11.5380637"><ele>887.0</ele><time>2026-05-01T11:05:52.136Z</time></trkpt><trkpt lat="44.0745458" lon="11.5381783"><ele>887.0</ele><time>2026-05-01T11:05:54.136Z</time></trkpt><trkpt lat="44.0746122" lon="11.5381998"><ele>887.0000000000001</ele><time>2026-05-01T11:05:55.135Z</time></trkpt><trkpt lat="44.0746858" lon="11.5382105"><ele>887.0</ele><time>2026-05-01T11:05:56.134Z</time></trkpt><trkpt lat="44.0747567" lon="11.5382222"><ele>886.9999999999999</ele><time>2026-05-01T11:05:57.135Z</time></trkpt><trkpt lat="44.0748302" lon="11.5382455"><ele>887.0</ele><time>2026-05-01T11:05:58.136Z</time></trkpt><trkpt lat="44.0748967" lon="11.5382813"><ele>887.0</ele><time>2026-05-01T11:05:59.134Z</time></trkpt><trkpt lat="44.0749653" lon="11.5383288"><ele>887.0</ele><time>2026-05-01T11:06:00.135Z</time></trkpt><trkpt lat="44.0750342" lon="11.538382"><ele>887.0</ele><time>2026-05-01T11:06:01.135Z</time></trkpt><trkpt lat="44.0750977" lon="11.5384353"><ele>886.9999999999999</ele><time>2026-05-01T11:06:02.134Z</time></trkpt><trkpt lat="44.0751495" lon="11.538502"><ele>887.0</ele><time>2026-05-01T11:06:03.135Z</time></trkpt><trkpt lat="44.0752012" lon="11.538592"><ele>886.4000000000001</ele><time>2026-05-01T11:06:04.135Z</time></trkpt><trkpt lat="44.0752542" lon="11.5386937"><ele>885.8000000000001</ele><time>2026-05-01T11:06:05.135Z</time></trkpt><trkpt lat="44.0753128" lon="11.5387985"><ele>885.2</ele><time>2026-05-01T11:06:06.136Z</time></trkpt><trkpt lat="44.0753755" lon="11.5389198"><ele>884.6</ele><time>2026-05-01T11:06:07.135Z</time></trkpt><trkpt lat="44.0754233" lon="11.5390323"><ele>884.0</ele><time>2026-05-01T11:06:08.136Z</time></trkpt><trkpt lat="44.075467" lon="11.5391293"><ele>884.0</ele><time>2026-05-01T11:06:09.136Z</time></trkpt><trkpt lat="44.075512" lon="11.5391932"><ele>884.0000000000001</ele><time>2026-05-01T11:06:10.135Z</time></trkpt><trkpt lat="44.075632" lon="11.5392828"><ele>884.0000000000001</ele><time>2026-05-01T11:06:12.132Z</time></trkpt><trkpt lat="44.0757105" lon="11.5393367"><ele>884.0</ele><time>2026-05-01T11:06:13.133Z</time></trkpt><trkpt lat="44.075787" lon="11.5394102"><ele>884.0</ele><time>2026-05-01T11:06:14.133Z</time></trkpt><trkpt lat="44.0758642" lon="11.5395003"><ele>887.4000000000001</ele><time>2026-05-01T11:06:15.134Z</time></trkpt><trkpt lat="44.0759468" lon="11.539599"><ele>890.8000000000001</ele><time>2026-05-01T11:06:16.136Z</time></trkpt><trkpt lat="44.0760257" lon="11.5397037"><ele>894.1999999999999</ele><time>2026-05-01T11:06:17.135Z</time></trkpt><trkpt lat="44.0761007" lon="11.5398162"><ele>897.5999999999999</ele><time>2026-05-01T11:06:18.137Z</time></trkpt><trkpt lat="44.0761677" lon="11.5399225"><ele>901.0</ele><time>2026-05-01T11:06:19.137Z</time></trkpt><trkpt lat="44.076218" lon="11.5399973"><ele>900.9999999999999</ele><time>2026-05-01T11:06:20.135Z</time></trkpt><trkpt lat="44.076271" lon="11.5400558"><ele>901.0</ele><time>2026-05-01T11:06:21.136Z</time></trkpt><trkpt lat="44.0763278" lon="11.5401152"><ele>901.0</ele><time>2026-05-01T11:06:22.139Z</time></trkpt><trkpt lat="44.0764308" lon="11.540187"><ele>901.0</ele><time>2026-05-01T11:06:24.135Z</time></trkpt><trkpt lat="44.0764907" lon="11.54023"><ele>900.9999999999999</ele><time>2026-05-01T11:06:25.135Z</time></trkpt><trkpt lat="44.0765853" lon="11.5403023"><ele>901.0</ele><time>2026-05-01T11:06:27.138Z</time></trkpt><trkpt lat="44.0766658" lon="11.540381"><ele>903.1999999999999</ele><time>2026-05-01T11:06:29.135Z</time></trkpt><trkpt lat="44.0767577" lon="11.5404747"><ele>905.3999999999999</ele><time>2026-05-01T11:06:31.136Z</time></trkpt><trkpt lat="44.0768648" lon="11.5405202"><ele>907.6</ele><time>2026-05-01T11:06:33.135Z</time></trkpt><trkpt lat="44.0769265" lon="11.5405392"><ele>909.8</ele><time>2026-05-01T11:06:34.136Z</time></trkpt><trkpt lat="44.0769865" lon="11.5405662"><ele>912.0</ele><time>2026-05-01T11:06:35.135Z</time></trkpt><trkpt lat="44.0770698" lon="11.5406715"><ele>912.0</ele><time>2026-05-01T11:06:37.134Z</time></trkpt><trkpt lat="44.077109" lon="11.5407418"><ele>912.0</ele><time>2026-05-01T11:06:38.133Z</time></trkpt><trkpt lat="44.077151" lon="11.5408133"><ele>912.0</ele><time>2026-05-01T11:06:39.133Z</time></trkpt><trkpt lat="44.0771943" lon="11.5408835"><ele>912.0</ele><time>2026-05-01T11:06:40.135Z</time></trkpt><trkpt lat="44.0772348" lon="11.5409538"><ele>912.0</ele><time>2026-05-01T11:06:41.135Z</time></trkpt><trkpt lat="44.07728" lon="11.5410213"><ele>912.0</ele><time>2026-05-01T11:06:42.135Z</time></trkpt><trkpt lat="44.0773738" lon="11.5411425"><ele>912.0</ele><time>2026-05-01T11:06:44.135Z</time></trkpt><trkpt lat="44.07742" lon="11.5412057"><ele>912.0</ele><time>2026-05-01T11:06:45.135Z</time></trkpt><trkpt lat="44.0775007" lon="11.541326"><ele>912.0</ele><time>2026-05-01T11:06:47.135Z</time></trkpt><trkpt lat="44.0775747" lon="11.5414362"><ele>912.0</ele><time>2026-05-01T11:06:49.135Z</time></trkpt><trkpt lat="44.0776537" lon="11.541538"><ele>912.0</ele><time>2026-05-01T11:06:51.136Z</time></trkpt><trkpt lat="44.0777338" lon="11.5416575"><ele>914.4285714285713</ele><time>2026-05-01T11:06:53.134Z</time></trkpt><trkpt lat="44.0777803" lon="11.5417222"><ele>916.8571428571428</ele><time>2026-05-01T11:06:54.136Z</time></trkpt><trkpt lat="44.07783" lon="11.5417855"><ele>919.2857142857142</ele><time>2026-05-01T11:06:55.136Z</time></trkpt><trkpt lat="44.0778797" lon="11.5418457"><ele>921.7142857142858</ele><time>2026-05-01T11:06:56.135Z</time></trkpt><trkpt lat="44.0779353" lon="11.5419138"><ele>924.1428571428572</ele><time>2026-05-01T11:06:57.136Z</time></trkpt><trkpt lat="44.077991" lon="11.5419883"><ele>926.5714285714287</ele><time>2026-05-01T11:06:58.136Z</time></trkpt><trkpt lat="44.07803" lon="11.5420658"><ele>929.0</ele><time>2026-05-01T11:06:59.136Z</time></trkpt><trkpt lat="44.0780662" lon="11.5421482"><ele>929.0000000000001</ele><time>2026-05-01T11:07:00.134Z</time></trkpt><trkpt lat="44.078108" lon="11.5422247"><ele>929.0</ele><time>2026-05-01T11:07:01.134Z</time></trkpt><trkpt lat="44.0781733" lon="11.5423288"><ele>929.0</ele><time>2026-05-01T11:07:03.132Z</time></trkpt><trkpt lat="44.0782565" lon="11.5423343"><ele>929.0</ele><time>2026-05-01T11:07:06.135Z</time></trkpt><trkpt lat="44.0783448" lon="11.5423045"><ele>929.0000000000001</ele><time>2026-05-01T11:07:09.134Z</time></trkpt><trkpt lat="44.0784178" lon="11.5422725"><ele>929.0</ele><time>2026-05-01T11:07:11.135Z</time></trkpt><trkpt lat="44.0785093" lon="11.542225"><ele>930.0000000000001</ele><time>2026-05-01T11:07:13.135Z</time></trkpt><trkpt lat="44.0786155" lon="11.5421708"><ele>931.0</ele><time>2026-05-01T11:07:15.135Z</time></trkpt><trkpt lat="44.0786905" lon="11.5421263"><ele>932.0</ele><time>2026-05-01T11:07:17.134Z</time></trkpt><trkpt lat="44.0787632" lon="11.5420877"><ele>933.0</ele><time>2026-05-01T11:07:19.135Z</time></trkpt><trkpt lat="44.0788295" lon="11.5420463"><ele>934.0000000000001</ele><time>2026-05-01T11:07:21.134Z</time></trkpt><trkpt lat="44.0788948" lon="11.5419892"><ele>935.0</ele><time>2026-05-01T11:07:25.135Z</time></trkpt><trkpt lat="44.0789503" lon="11.5419357"><ele>935.0000000000001</ele><time>2026-05-01T11:07:30.135Z</time></trkpt><trkpt lat="44.0790065" lon="11.5418783"><ele>935.0</ele><time>2026-05-01T11:07:34.135Z</time></trkpt><trkpt lat="44.0790588" lon="11.541812"><ele>935.0</ele><time>2026-05-01T11:07:37.136Z</time></trkpt><trkpt lat="44.0791278" lon="11.5417197"><ele>935.0</ele><time>2026-05-01T11:07:40.137Z</time></trkpt><trkpt lat="44.0791873" lon="11.5416318"><ele>935.0000000000001</ele><time>2026-05-01T11:07:42.138Z</time></trkpt><trkpt lat="44.0792547" lon="11.5415545"><ele>935.0</ele><time>2026-05-01T11:07:44.137Z</time></trkpt><trkpt lat="44.079313" lon="11.5414803"><ele>931.3333333333334</ele><time>2026-05-01T11:07:46.138Z</time></trkpt><trkpt lat="44.0793707" lon="11.5414065"><ele>927.6666666666667</ele><time>2026-05-01T11:07:48.138Z</time></trkpt><trkpt lat="44.0794342" lon="11.5413288"><ele>924.0</ele><time>2026-05-01T11:07:50.138Z</time></trkpt><trkpt lat="44.0794968" lon="11.5412503"><ele>920.3333333333333</ele><time>2026-05-01T11:07:52.135Z</time></trkpt><trkpt lat="44.0795538" lon="11.5411725"><ele>916.6666666666666</ele><time>2026-05-01T11:07:54.138Z</time></trkpt><trkpt lat="44.0796068" lon="11.541076"><ele>913.0</ele><time>2026-05-01T11:07:56.137Z</time></trkpt><trkpt lat="44.0796815" lon="11.5409738"><ele>910.4999999999999</ele><time>2026-05-01T11:07:58.138Z</time></trkpt><trkpt lat="44.0797347" lon="11.5409252"><ele>908.0</ele><time>2026-05-01T11:07:59.138Z</time></trkpt><trkpt lat="44.0797952" lon="11.5408697"><ele>905.5</ele><time>2026-05-01T11:08:00.138Z</time></trkpt><trkpt lat="44.0798672" lon="11.5408"><ele>903.0</ele><time>2026-05-01T11:08:01.138Z</time></trkpt><trkpt lat="44.0799438" lon="11.5407225"><ele>900.4999999999999</ele><time>2026-05-01T11:08:02.138Z</time></trkpt><trkpt lat="44.0800162" lon="11.5406465"><ele>898.0</ele><time>2026-05-01T11:08:03.138Z</time></trkpt><trkpt lat="44.0800905" lon="11.54057"><ele>894.75</ele><time>2026-05-01T11:08:04.138Z</time></trkpt><trkpt lat="44.080174" lon="11.5404932"><ele>891.5</ele><time>2026-05-01T11:08:05.137Z</time></trkpt><trkpt lat="44.0802638" lon="11.5404205"><ele>888.25</ele><time>2026-05-01T11:08:06.139Z</time></trkpt><trkpt lat="44.0803607" lon="11.5403477"><ele>885.0</ele><time>2026-05-01T11:08:07.139Z</time></trkpt><trkpt lat="44.0804795" lon="11.5402542"><ele>883.75</ele><time>2026-05-01T11:08:08.138Z</time></trkpt><trkpt lat="44.0805937" lon="11.5401647"><ele>882.5</ele><time>2026-05-01T11:08:09.138Z</time></trkpt><trkpt lat="44.0806967" lon="11.5400812"><ele>881.25</ele><time>2026-05-01T11:08:10.137Z</time></trkpt><trkpt lat="44.0807877" lon="11.5399917"><ele>880.0</ele><time>2026-05-01T11:08:11.138Z</time></trkpt><trkpt lat="44.080877" lon="11.539895"><ele>879.1666666666666</ele><time>2026-05-01T11:08:12.138Z</time></trkpt><trkpt lat="44.0809603" lon="11.5398028"><ele>878.3333333333333</ele><time>2026-05-01T11:08:13.137Z</time></trkpt><trkpt lat="44.0810332" lon="11.5397177"><ele>877.5</ele><time>2026-05-01T11:08:14.137Z</time></trkpt><trkpt lat="44.0811007" lon="11.5396377"><ele>876.6666666666667</ele><time>2026-05-01T11:08:15.136Z</time></trkpt><trkpt lat="44.0811647" lon="11.5395683"><ele>875.8333333333334</ele><time>2026-05-01T11:08:16.136Z</time></trkpt><trkpt lat="44.0812218" lon="11.5395032"><ele>875.0</ele><time>2026-05-01T11:08:17.136Z</time></trkpt><trkpt lat="44.0812788" lon="11.5394357"><ele>875.4</ele><time>2026-05-01T11:08:18.138Z</time></trkpt><trkpt lat="44.0813307" lon="11.5393772"><ele>875.8</ele><time>2026-05-01T11:08:19.141Z</time></trkpt><trkpt lat="44.0814215" lon="11.5393048"><ele>876.2</ele><time>2026-05-01T11:08:21.138Z</time></trkpt><trkpt lat="44.0815228" lon="11.539302"><ele>876.6</ele><time>2026-05-01T11:08:23.138Z</time></trkpt><trkpt lat="44.0816242" lon="11.5393353"><ele>877.0</ele><time>2026-05-01T11:08:25.137Z</time></trkpt><trkpt lat="44.081726" lon="11.539304"><ele>876.9999999999999</ele><time>2026-05-01T11:08:27.138Z</time></trkpt><trkpt lat="44.0817855" lon="11.539268"><ele>877.0</ele><time>2026-05-01T11:08:28.139Z</time></trkpt><trkpt lat="44.0818495" lon="11.5392233"><ele>877.0</ele><time>2026-05-01T11:08:29.138Z</time></trkpt><trkpt lat="44.081924" lon="11.5391805"><ele>877.0</ele><time>2026-05-01T11:08:30.138Z</time></trkpt><trkpt lat="44.0820017" lon="11.5391473"><ele>876.9999999999999</ele><time>2026-05-01T11:08:31.142Z</time></trkpt><trkpt lat="44.0820773" lon="11.5391093"><ele>877.0</ele><time>2026-05-01T11:08:32.138Z</time></trkpt><trkpt lat="44.082153" lon="11.5390693"><ele>877.0</ele><time>2026-05-01T11:08:33.139Z</time></trkpt><trkpt lat="44.0822222" lon="11.5390402"><ele>877.0</ele><time>2026-05-01T11:08:34.138Z</time></trkpt><trkpt lat="44.0823352" lon="11.5390603"><ele>877.0</ele><time>2026-05-01T11:08:36.139Z</time></trkpt><trkpt lat="44.0824385" lon="11.5391055"><ele>877.0</ele><time>2026-05-01T11:08:38.135Z</time></trkpt><trkpt lat="44.0825622" lon="11.5391242"><ele>877.0</ele><time>2026-05-01T11:08:40.136Z</time></trkpt><trkpt lat="44.082639" lon="11.5391242"><ele>878.1666666666666</ele><time>2026-05-01T11:08:41.135Z</time></trkpt><trkpt lat="44.0827165" lon="11.5391013"><ele>879.3333333333333</ele><time>2026-05-01T11:08:42.138Z</time></trkpt><trkpt lat="44.0827837" lon="11.5390463"><ele>880.5</ele><time>2026-05-01T11:08:43.138Z</time></trkpt><trkpt lat="44.0828453" lon="11.5389752"><ele>881.6666666666667</ele><time>2026-05-01T11:08:44.139Z</time></trkpt><trkpt lat="44.082896" lon="11.5389147"><ele>882.8333333333334</ele><time>2026-05-01T11:08:45.139Z</time></trkpt><trkpt lat="44.0830137" lon="11.5388562"><ele>884.0</ele><time>2026-05-01T11:08:47.138Z</time></trkpt><trkpt lat="44.0830952" lon="11.5388603"><ele>884.0000000000001</ele><time>2026-05-01T11:08:48.139Z</time></trkpt><trkpt lat="44.0831598" lon="11.538883"><ele>884.0</ele><time>2026-05-01T11:08:49.138Z</time></trkpt><trkpt lat="44.0832753" lon="11.5389608"><ele>884.0</ele><time>2026-05-01T11:08:51.139Z</time></trkpt><trkpt lat="44.0833337" lon="11.5390102"><ele>884.0</ele><time>2026-05-01T11:08:52.137Z</time></trkpt><trkpt lat="44.0833883" lon="11.5390637"><ele>884.0000000000001</ele><time>2026-05-01T11:08:53.137Z</time></trkpt><trkpt lat="44.0834608" lon="11.5391803"><ele>884.0</ele><time>2026-05-01T11:08:55.138Z</time></trkpt><trkpt lat="44.0835212" lon="11.5392838"><ele>883.0000000000001</ele><time>2026-05-01T11:08:57.137Z</time></trkpt><trkpt lat="44.0836095" lon="11.5393523"><ele>882.0</ele><time>2026-05-01T11:08:59.137Z</time></trkpt><trkpt lat="44.0837263" lon="11.5393848"><ele>881.0</ele><time>2026-05-01T11:09:01.137Z</time></trkpt><trkpt lat="44.0837933" lon="11.5393947"><ele>880.0</ele><time>2026-05-01T11:09:02.135Z</time></trkpt><trkpt lat="44.083866" lon="11.5393983"><ele>879.0000000000001</ele><time>2026-05-01T11:09:03.135Z</time></trkpt><trkpt lat="44.083934" lon="11.5393927"><ele>878.0</ele><time>2026-05-01T11:09:04.135Z</time></trkpt><trkpt lat="44.0840533" lon="11.5394407"><ele>874.8</ele><time>2026-05-01T11:09:06.136Z</time></trkpt><trkpt lat="44.0841203" lon="11.5394678"><ele>871.5999999999999</ele><time>2026-05-01T11:09:07.138Z</time></trkpt><trkpt lat="44.0841843" lon="11.539491"><ele>868.4000000000001</ele><time>2026-05-01T11:09:08.138Z</time></trkpt><trkpt lat="44.0842907" lon="11.5395723"><ele>865.2</ele><time>2026-05-01T11:09:10.138Z</time></trkpt><trkpt lat="44.0843992" lon="11.5396495"><ele>862.0</ele><time>2026-05-01T11:09:12.137Z</time></trkpt><trkpt lat="44.084473" lon="11.5396718"><ele>860.3333333333333</ele><time>2026-05-01T11:09:13.137Z</time></trkpt><trkpt lat="44.0845445" lon="11.5396895"><ele>858.6666666666666</ele><time>2026-05-01T11:09:14.137Z</time></trkpt><trkpt lat="44.0846097" lon="11.5396963"><ele>857.0</ele><time>2026-05-01T11:09:15.138Z</time></trkpt><trkpt lat="44.0847005" lon="11.5397685"><ele>855.3333333333333</ele><time>2026-05-01T11:09:17.138Z</time></trkpt><trkpt lat="44.0847918" lon="11.5398412"><ele>853.6666666666666</ele><time>2026-05-01T11:09:19.138Z</time></trkpt><trkpt lat="44.0848525" lon="11.5398832"><ele>852.0</ele><time>2026-05-01T11:09:20.137Z</time></trkpt><trkpt lat="44.084921" lon="11.5399173"><ele>852.4285714285713</ele><time>2026-05-01T11:09:21.138Z</time></trkpt><trkpt lat="44.084983" lon="11.539934"><ele>852.8571428571429</ele><time>2026-05-01T11:09:22.137Z</time></trkpt><trkpt lat="44.0850492" lon="11.539941"><ele>853.2857142857142</ele><time>2026-05-01T11:09:23.138Z</time></trkpt><trkpt lat="44.0851137" lon="11.539937"><ele>853.7142857142857</ele><time>2026-05-01T11:09:24.139Z</time></trkpt><trkpt lat="44.0851795" lon="11.5399227"><ele>854.1428571428571</ele><time>2026-05-01T11:09:25.138Z</time></trkpt><trkpt lat="44.0852683" lon="11.5398815"><ele>854.5714285714286</ele><time>2026-05-01T11:09:27.138Z</time></trkpt><trkpt lat="44.0853402" lon="11.539882"><ele>855.0</ele><time>2026-05-01T11:09:40.139Z</time></trkpt><trkpt lat="44.0854402" lon="11.5398962"><ele>855.0</ele><time>2026-05-01T11:09:42.137Z</time></trkpt><trkpt lat="44.0855082" lon="11.539923"><ele>855.0</ele><time>2026-05-01T11:09:43.138Z</time></trkpt><trkpt lat="44.0855855" lon="11.5399295"><ele>855.0</ele><time>2026-05-01T11:09:44.139Z</time></trkpt><trkpt lat="44.0856628" lon="11.5399265"><ele>855.0</ele><time>2026-05-01T11:09:45.139Z</time></trkpt><trkpt lat="44.0857365" lon="11.539927"><ele>855.0</ele><time>2026-05-01T11:09:46.139Z</time></trkpt><trkpt lat="44.0858022" lon="11.539941"><ele>855.0</ele><time>2026-05-01T11:09:47.138Z</time></trkpt><trkpt lat="44.085866" lon="11.5399545"><ele>855.0</ele><time>2026-05-01T11:09:48.139Z</time></trkpt><trkpt lat="44.0859298" lon="11.5399707"><ele>855.6</ele><time>2026-05-01T11:09:49.137Z</time></trkpt><trkpt lat="44.086056" lon="11.539994"><ele>856.2</ele><time>2026-05-01T11:09:51.138Z</time></trkpt><trkpt lat="44.086123" lon="11.5400155"><ele>856.8</ele><time>2026-05-01T11:09:52.136Z</time></trkpt><trkpt lat="44.0862035" lon="11.5400395"><ele>857.4</ele><time>2026-05-01T11:09:53.135Z</time></trkpt><trkpt lat="44.0862965" lon="11.5400528"><ele>858.0</ele><time>2026-05-01T11:09:54.137Z</time></trkpt><trkpt lat="44.0863827" lon="11.540067"><ele>858.0</ele><time>2026-05-01T11:09:55.136Z</time></trkpt><trkpt lat="44.0864585" lon="11.5400848"><ele>858.0</ele><time>2026-05-01T11:09:56.138Z</time></trkpt><trkpt lat="44.0865268" lon="11.540108"><ele>858.0</ele><time>2026-05-01T11:09:57.138Z</time></trkpt><trkpt lat="44.0865907" lon="11.5401442"><ele>858.0</ele><time>2026-05-01T11:09:58.138Z</time></trkpt><trkpt lat="44.0866562" lon="11.54017"><ele>858.0</ele><time>2026-05-01T11:09:59.137Z</time></trkpt><trkpt lat="44.086761" lon="11.5401972"><ele>858.0</ele><time>2026-05-01T11:10:01.137Z</time></trkpt><trkpt lat="44.0868637" lon="11.5402415"><ele>857.3333333333334</ele><time>2026-05-01T11:10:03.137Z</time></trkpt><trkpt lat="44.0869497" lon="11.5402272"><ele>856.6666666666667</ele><time>2026-05-01T11:10:05.137Z</time></trkpt><trkpt lat="44.0870178" lon="11.5401867"><ele>856.0</ele><time>2026-05-01T11:10:07.137Z</time></trkpt><trkpt lat="44.0870938" lon="11.5401973"><ele>855.3333333333334</ele><time>2026-05-01T11:10:09.139Z</time></trkpt><trkpt lat="44.0871702" lon="11.5402048"><ele>854.6666666666667</ele><time>2026-05-01T11:10:11.136Z</time></trkpt><trkpt lat="44.0872413" lon="11.5402198"><ele>854.0</ele><time>2026-05-01T11:10:13.138Z</time></trkpt><trkpt lat="44.0873105" lon="11.540252"><ele>854.0000000000001</ele><time>2026-05-01T11:10:15.137Z</time></trkpt><trkpt lat="44.0873767" lon="11.5403025"><ele>854.0</ele><time>2026-05-01T11:10:17.134Z</time></trkpt><trkpt lat="44.0874598" lon="11.5402992"><ele>854.0</ele><time>2026-05-01T11:10:19.134Z</time></trkpt><trkpt lat="44.0875303" lon="11.5403028"><ele>854.0</ele><time>2026-05-01T11:10:21.136Z</time></trkpt><trkpt lat="44.0876018" lon="11.5403402"><ele>854.0000000000001</ele><time>2026-05-01T11:10:23.135Z</time></trkpt><trkpt lat="44.0876838" lon="11.5404035"><ele>854.0</ele><time>2026-05-01T11:10:25.136Z</time></trkpt><trkpt lat="44.0877897" lon="11.5404658"><ele>848.8000000000001</ele><time>2026-05-01T11:10:27.137Z</time></trkpt><trkpt lat="44.0878957" lon="11.540506"><ele>843.6000000000001</ele><time>2026-05-01T11:10:29.137Z</time></trkpt><trkpt lat="44.0879815" lon="11.540538"><ele>838.4</ele><time>2026-05-01T11:10:31.136Z</time></trkpt><trkpt lat="44.088056" lon="11.540647"><ele>833.2</ele><time>2026-05-01T11:10:33.137Z</time></trkpt><trkpt lat="44.0881262" lon="11.5407548"><ele>828.0</ele><time>2026-05-01T11:10:35.137Z</time></trkpt><trkpt lat="44.0881917" lon="11.540868"><ele>827.2</ele><time>2026-05-01T11:10:37.137Z</time></trkpt><trkpt lat="44.0882598" lon="11.5409867"><ele>826.4</ele><time>2026-05-01T11:10:39.137Z</time></trkpt><trkpt lat="44.0883182" lon="11.5410992"><ele>825.6</ele><time>2026-05-01T11:10:41.134Z</time></trkpt><trkpt lat="44.0883723" lon="11.5412183"><ele>824.8000000000001</ele><time>2026-05-01T11:10:43.135Z</time></trkpt><trkpt lat="44.0884217" lon="11.541313"><ele>824.0</ele><time>2026-05-01T11:10:45.136Z</time></trkpt><trkpt lat="44.0884657" lon="11.5413982"><ele>820.8333333333334</ele><time>2026-05-01T11:10:47.137Z</time></trkpt><trkpt lat="44.0885212" lon="11.5414932"><ele>817.6666666666667</ele><time>2026-05-01T11:10:49.137Z</time></trkpt><trkpt lat="44.0885698" lon="11.5415793"><ele>814.5</ele><time>2026-05-01T11:10:51.137Z</time></trkpt><trkpt lat="44.0886263" lon="11.5416672"><ele>811.3333333333333</ele><time>2026-05-01T11:10:53.137Z</time></trkpt><trkpt lat="44.0886918" lon="11.5417528"><ele>808.1666666666666</ele><time>2026-05-01T11:10:55.137Z</time></trkpt><trkpt lat="44.0887762" lon="11.5418247"><ele>805.0</ele><time>2026-05-01T11:10:57.137Z</time></trkpt><trkpt lat="44.0888502" lon="11.5418853"><ele>805.0</ele><time>2026-05-01T11:10:59.137Z</time></trkpt><trkpt lat="44.088917" lon="11.5418893"><ele>805.0</ele><time>2026-05-01T11:11:02.137Z</time></trkpt><trkpt lat="44.0889858" lon="11.5418212"><ele>805.0</ele><time>2026-05-01T11:11:05.135Z</time></trkpt><trkpt lat="44.0890408" lon="11.5417428"><ele>805.0</ele><time>2026-05-01T11:11:07.135Z</time></trkpt><trkpt lat="44.089114" lon="11.5416325"><ele>805.0</ele><time>2026-05-01T11:11:09.135Z</time></trkpt><trkpt lat="44.0892177" lon="11.5415382"><ele>804.8</ele><time>2026-05-01T11:11:11.135Z</time></trkpt><trkpt lat="44.08932" lon="11.5414538"><ele>804.6</ele><time>2026-05-01T11:11:13.135Z</time></trkpt><trkpt lat="44.0893782" lon="11.5414122"><ele>804.4000000000001</ele><time>2026-05-01T11:11:14.135Z</time></trkpt><trkpt lat="44.0894362" lon="11.5413752"><ele>804.2</ele><time>2026-05-01T11:11:15.136Z</time></trkpt><trkpt lat="44.0895472" lon="11.5413275"><ele>804.0</ele><time>2026-05-01T11:11:17.136Z</time></trkpt><trkpt lat="44.0896692" lon="11.5412692"><ele>803.5</ele><time>2026-05-01T11:11:19.137Z</time></trkpt><trkpt lat="44.0897332" lon="11.5412013"><ele>803.0</ele><time>2026-05-01T11:11:20.136Z</time></trkpt><trkpt lat="44.0897923" lon="11.541129"><ele>802.5</ele><time>2026-05-01T11:11:21.138Z</time></trkpt><trkpt lat="44.0898572" lon="11.5410565"><ele>802.0</ele><time>2026-05-01T11:11:22.139Z</time></trkpt><trkpt lat="44.0899242" lon="11.5409775"><ele>801.5</ele><time>2026-05-01T11:11:23.138Z</time></trkpt><trkpt lat="44.0899873" lon="11.5408905"><ele>801.0</ele><time>2026-05-01T11:11:24.141Z</time></trkpt><trkpt lat="44.090046" lon="11.5408117"><ele>798.1666666666666</ele><time>2026-05-01T11:11:25.138Z</time></trkpt><trkpt lat="44.0901028" lon="11.540738"><ele>795.3333333333333</ele><time>2026-05-01T11:11:26.139Z</time></trkpt><trkpt lat="44.0901582" lon="11.5406743"><ele>792.5</ele><time>2026-05-01T11:11:27.139Z</time></trkpt><trkpt lat="44.0902145" lon="11.5406268"><ele>789.6666666666666</ele><time>2026-05-01T11:11:28.139Z</time></trkpt><trkpt lat="44.0903012" lon="11.540607"><ele>786.8333333333333</ele><time>2026-05-01T11:11:30.137Z</time></trkpt><trkpt lat="44.0903863" lon="11.5405918"><ele>784.0</ele><time>2026-05-01T11:11:32.135Z</time></trkpt><trkpt lat="44.0904688" lon="11.5405675"><ele>784.0</ele><time>2026-05-01T11:11:34.138Z</time></trkpt><trkpt lat="44.0905547" lon="11.5405328"><ele>784.0</ele><time>2026-05-01T11:11:36.138Z</time></trkpt><trkpt lat="44.0906528" lon="11.5404928"><ele>784.0</ele><time>2026-05-01T11:11:38.139Z</time></trkpt><trkpt lat="44.090768" lon="11.5404312"><ele>784.0</ele><time>2026-05-01T11:11:40.139Z</time></trkpt><trkpt lat="44.0908777" lon="11.5403593"><ele>784.0</ele><time>2026-05-01T11:11:42.139Z</time></trkpt><trkpt lat="44.0909953" lon="11.5402682"><ele>780.4999999999999</ele><time>2026-05-01T11:11:44.139Z</time></trkpt><trkpt lat="44.0910648" lon="11.5402058"><ele>777.0</ele><time>2026-05-01T11:11:45.142Z</time></trkpt><trkpt lat="44.0911243" lon="11.540148"><ele>773.5</ele><time>2026-05-01T11:11:46.139Z</time></trkpt><trkpt lat="44.0911685" lon="11.5400812"><ele>770.0</ele><time>2026-05-01T11:11:47.137Z</time></trkpt><trkpt lat="44.0912258" lon="11.5399368"><ele>766.5</ele><time>2026-05-01T11:11:49.139Z</time></trkpt><trkpt lat="44.0912867" lon="11.5398197"><ele>763.0</ele><time>2026-05-01T11:11:51.138Z</time></trkpt><trkpt lat="44.0913685" lon="11.5397312"><ele>763.0</ele><time>2026-05-01T11:11:53.138Z</time></trkpt><trkpt lat="44.0914637" lon="11.5396482"><ele>763.0</ele><time>2026-05-01T11:11:55.136Z</time></trkpt><trkpt lat="44.0915202" lon="11.5396095"><ele>763.0</ele><time>2026-05-01T11:11:56.136Z</time></trkpt><trkpt lat="44.0915807" lon="11.5395733"><ele>763.0</ele><time>2026-05-01T11:11:57.137Z</time></trkpt><trkpt lat="44.0916408" lon="11.5395363"><ele>763.0</ele><time>2026-05-01T11:11:58.139Z</time></trkpt><trkpt lat="44.0916942" lon="11.5394882"><ele>763.0</ele><time>2026-05-01T11:11:59.138Z</time></trkpt><trkpt lat="44.0917892" lon="11.5393803"><ele>762.2</ele><time>2026-05-01T11:12:01.14Z</time></trkpt><trkpt lat="44.0918453" lon="11.5393303"><ele>761.4</ele><time>2026-05-01T11:12:02.14Z</time></trkpt><trkpt lat="44.0919393" lon="11.5392357"><ele>760.6</ele><time>2026-05-01T11:12:04.139Z</time></trkpt><trkpt lat="44.0920147" lon="11.5391337"><ele>759.8000000000001</ele><time>2026-05-01T11:12:06.14Z</time></trkpt><trkpt lat="44.0920915" lon="11.5390438"><ele>759.0</ele><time>2026-05-01T11:12:08.141Z</time></trkpt><trkpt lat="44.0921765" lon="11.5389687"><ele>759.0</ele><time>2026-05-01T11:12:10.138Z</time></trkpt><trkpt lat="44.0922668" lon="11.53894"><ele>759.0</ele><time>2026-05-01T11:12:12.139Z</time></trkpt><trkpt lat="44.0923583" lon="11.5389353"><ele>759.0</ele><time>2026-05-01T11:12:14.139Z</time></trkpt><trkpt lat="44.0924248" lon="11.5389732"><ele>759.0</ele><time>2026-05-01T11:12:16.137Z</time></trkpt><trkpt lat="44.0924862" lon="11.53909"><ele>759.0</ele><time>2026-05-01T11:12:18.136Z</time></trkpt><trkpt lat="44.092569" lon="11.5392143"><ele>760.0</ele><time>2026-05-01T11:12:20.133Z</time></trkpt><trkpt lat="44.092609" lon="11.5392838"><ele>761.0</ele><time>2026-05-01T11:12:21.133Z</time></trkpt><trkpt lat="44.0926777" lon="11.5393967"><ele>762.0</ele><time>2026-05-01T11:12:23.135Z</time></trkpt><trkpt lat="44.0927565" lon="11.5394837"><ele>763.0</ele><time>2026-05-01T11:12:25.136Z</time></trkpt><trkpt lat="44.0928528" lon="11.5395373"><ele>764.0</ele><time>2026-05-01T11:12:27.136Z</time></trkpt><trkpt lat="44.0929615" lon="11.5395693"><ele>764.0</ele><time>2026-05-01T11:12:29.137Z</time></trkpt><trkpt lat="44.0930663" lon="11.5396152"><ele>764.0</ele><time>2026-05-01T11:12:31.137Z</time></trkpt><trkpt lat="44.093163" lon="11.5396477"><ele>764.0</ele><time>2026-05-01T11:12:33.139Z</time></trkpt><trkpt lat="44.0932695" lon="11.5396662"><ele>764.0</ele><time>2026-05-01T11:12:35.138Z</time></trkpt><trkpt lat="44.0933368" lon="11.5396413"><ele>764.0</ele><time>2026-05-01T11:12:37.139Z</time></trkpt><trkpt lat="44.0934057" lon="11.5396742"><ele>759.4000000000001</ele><time>2026-05-01T11:13:33.136Z</time></trkpt><trkpt lat="44.0935055" lon="11.5396557"><ele>754.8</ele><time>2026-05-01T11:13:36.138Z</time></trkpt><trkpt lat="44.0936293" lon="11.5396542"><ele>750.2</ele><time>2026-05-01T11:13:38.136Z</time></trkpt><trkpt lat="44.0937087" lon="11.5396372"><ele>745.5999999999999</ele><time>2026-05-01T11:13:39.138Z</time></trkpt><trkpt lat="44.0937853" lon="11.5396138"><ele>741.0</ele><time>2026-05-01T11:13:40.136Z</time></trkpt><trkpt lat="44.0938668" lon="11.5395788"><ele>741.0</ele><time>2026-05-01T11:13:41.136Z</time></trkpt><trkpt lat="44.0939548" lon="11.5395533"><ele>741.0</ele><time>2026-05-01T11:13:42.138Z</time></trkpt><trkpt lat="44.0940505" lon="11.5395493"><ele>741.0</ele><time>2026-05-01T11:13:43.136Z</time></trkpt><trkpt lat="44.0941428" lon="11.539556"><ele>741.0</ele><time>2026-05-01T11:13:44.134Z</time></trkpt><trkpt lat="44.0942318" lon="11.5395648"><ele>741.0</ele><time>2026-05-01T11:13:45.136Z</time></trkpt><trkpt lat="44.094295" lon="11.5395837"><ele>741.0</ele><time>2026-05-01T11:13:46.136Z</time></trkpt><trkpt lat="44.0943577" lon="11.5396095"><ele>738.5</ele><time>2026-05-01T11:13:47.135Z</time></trkpt><trkpt lat="44.0944308" lon="11.5396475"><ele>736.0</ele><time>2026-05-01T11:13:48.136Z</time></trkpt><trkpt lat="44.0944993" lon="11.5396783"><ele>733.5</ele><time>2026-05-01T11:13:49.136Z</time></trkpt><trkpt lat="44.094568" lon="11.539713"><ele>731.0</ele><time>2026-05-01T11:13:50.135Z</time></trkpt><trkpt lat="44.0946445" lon="11.5397538"><ele>728.5</ele><time>2026-05-01T11:13:51.137Z</time></trkpt><trkpt lat="44.0947163" lon="11.5397997"><ele>726.0</ele><time>2026-05-01T11:13:52.137Z</time></trkpt><trkpt lat="44.0947865" lon="11.5398408"><ele>726.0</ele><time>2026-05-01T11:13:53.137Z</time></trkpt><trkpt lat="44.0948588" lon="11.5398817"><ele>726.0</ele><time>2026-05-01T11:13:54.138Z</time></trkpt><trkpt lat="44.0949363" lon="11.5399227"><ele>726.0</ele><time>2026-05-01T11:13:55.137Z</time></trkpt><trkpt lat="44.0950138" lon="11.5399838"><ele>726.0</ele><time>2026-05-01T11:13:56.137Z</time></trkpt><trkpt lat="44.0950895" lon="11.5400648"><ele>726.0</ele><time>2026-05-01T11:13:57.135Z</time></trkpt><trkpt lat="44.0951607" lon="11.5401405"><ele>726.0</ele><time>2026-05-01T11:13:58.134Z</time></trkpt><trkpt lat="44.0952382" lon="11.5402035"><ele>723.5999999999999</ele><time>2026-05-01T11:13:59.135Z</time></trkpt><trkpt lat="44.0953305" lon="11.5402612"><ele>721.2</ele><time>2026-05-01T11:14:00.136Z</time></trkpt><trkpt lat="44.0954157" lon="11.5403182"><ele>718.8</ele><time>2026-05-01T11:14:01.138Z</time></trkpt><trkpt lat="44.0954937" lon="11.5403748"><ele>716.4000000000001</ele><time>2026-05-01T11:14:02.137Z</time></trkpt><trkpt lat="44.0955677" lon="11.5404205"><ele>714.0</ele><time>2026-05-01T11:14:03.137Z</time></trkpt><trkpt lat="44.095655" lon="11.540446"><ele>713.0</ele><time>2026-05-01T11:14:04.137Z</time></trkpt><trkpt lat="44.0957497" lon="11.5404612"><ele>712.0</ele><time>2026-05-01T11:14:05.138Z</time></trkpt><trkpt lat="44.0958457" lon="11.540492"><ele>711.0</ele><time>2026-05-01T11:14:06.137Z</time></trkpt><trkpt lat="44.0959377" lon="11.540523"><ele>710.0</ele><time>2026-05-01T11:14:07.138Z</time></trkpt><trkpt lat="44.0960183" lon="11.5405492"><ele>709.0</ele><time>2026-05-01T11:14:08.138Z</time></trkpt><trkpt lat="44.0960905" lon="11.5405687"><ele>708.0</ele><time>2026-05-01T11:14:09.137Z</time></trkpt><trkpt lat="44.0962022" lon="11.5405335"><ele>708.0</ele><time>2026-05-01T11:14:11.138Z</time></trkpt><trkpt lat="44.096306" lon="11.5404732"><ele>708.0</ele><time>2026-05-01T11:14:13.138Z</time></trkpt><trkpt lat="44.0963767" lon="11.5404368"><ele>708.0</ele><time>2026-05-01T11:14:14.138Z</time></trkpt><trkpt lat="44.0964423" lon="11.5404143"><ele>708.0</ele><time>2026-05-01T11:14:15.137Z</time></trkpt><trkpt lat="44.0965288" lon="11.5403852"><ele>708.0</ele><time>2026-05-01T11:14:17.136Z</time></trkpt><trkpt lat="44.0965997" lon="11.5403487"><ele>708.0</ele><time>2026-05-01T11:14:19.138Z</time></trkpt><trkpt lat="44.0966633" lon="11.5403403"><ele>708.8333333333334</ele><time>2026-05-01T11:14:22.135Z</time></trkpt><trkpt lat="44.0967315" lon="11.5403447"><ele>709.6666666666666</ele><time>2026-05-01T11:14:53.137Z</time></trkpt><trkpt lat="44.0968118" lon="11.540355"><ele>710.5</ele><time>2026-05-01T11:15:03.138Z</time></trkpt><trkpt lat="44.096898" lon="11.5403947"><ele>711.3333333333333</ele><time>2026-05-01T11:15:05.138Z</time></trkpt><trkpt lat="44.0969808" lon="11.5404297"><ele>712.1666666666666</ele><time>2026-05-01T11:15:07.138Z</time></trkpt><trkpt lat="44.097095" lon="11.5403938"><ele>713.0</ele><time>2026-05-01T11:15:09.137Z</time></trkpt><trkpt lat="44.0972028" lon="11.5403537"><ele>712.0</ele><time>2026-05-01T11:15:11.134Z</time></trkpt><trkpt lat="44.097315" lon="11.5403647"><ele>711.0</ele><time>2026-05-01T11:15:13.134Z</time></trkpt><trkpt lat="44.0974212" lon="11.5404368"><ele>710.0</ele><time>2026-05-01T11:15:15.137Z</time></trkpt><trkpt lat="44.0974787" lon="11.5404922"><ele>709.0</ele><time>2026-05-01T11:15:16.138Z</time></trkpt><trkpt lat="44.0975372" lon="11.5405302"><ele>708.0</ele><time>2026-05-01T11:15:17.138Z</time></trkpt><trkpt lat="44.0976433" lon="11.5405502"><ele>708.0</ele><time>2026-05-01T11:15:19.138Z</time></trkpt><trkpt lat="44.0977805" lon="11.5404693"><ele>708.0</ele><time>2026-05-01T11:15:21.138Z</time></trkpt><trkpt lat="44.0978603" lon="11.5404062"><ele>708.0</ele><time>2026-05-01T11:15:22.14Z</time></trkpt><trkpt lat="44.0979305" lon="11.5403632"><ele>708.0</ele><time>2026-05-01T11:15:23.137Z</time></trkpt><trkpt lat="44.097997" lon="11.5403432"><ele>708.0</ele><time>2026-05-01T11:15:24.137Z</time></trkpt><trkpt lat="44.098062" lon="11.540346"><ele>708.0</ele><time>2026-05-01T11:15:25.136Z</time></trkpt><trkpt lat="44.098123" lon="11.5403785"><ele>708.0</ele><time>2026-05-01T11:15:26.136Z</time></trkpt><trkpt lat="44.0981798" lon="11.5404425"><ele>708.0</ele><time>2026-05-01T11:15:27.137Z</time></trkpt><trkpt lat="44.098229" lon="11.5405065"><ele>708.0</ele><time>2026-05-01T11:15:28.138Z</time></trkpt><trkpt lat="44.0983313" lon="11.5405653"><ele>708.0</ele><time>2026-05-01T11:15:30.137Z</time></trkpt><trkpt lat="44.0984135" lon="11.5405942"><ele>708.0</ele><time>2026-05-01T11:15:31.138Z</time></trkpt><trkpt lat="44.0985067" lon="11.540641"><ele>707.6666666666666</ele><time>2026-05-01T11:15:32.137Z</time></trkpt><trkpt lat="44.0985852" lon="11.5406775"><ele>707.3333333333334</ele><time>2026-05-01T11:15:33.137Z</time></trkpt><trkpt lat="44.0986632" lon="11.5406903"><ele>707.0</ele><time>2026-05-01T11:15:34.136Z</time></trkpt><trkpt lat="44.098747" lon="11.5406817"><ele>706.6666666666667</ele><time>2026-05-01T11:15:35.135Z</time></trkpt><trkpt lat="44.0988292" lon="11.5406758"><ele>706.3333333333334</ele><time>2026-05-01T11:15:36.138Z</time></trkpt><trkpt lat="44.0988962" lon="11.5406615"><ele>706.0</ele><time>2026-05-01T11:15:37.135Z</time></trkpt><trkpt lat="44.0989543" lon="11.5406237"><ele>706.0</ele><time>2026-05-01T11:15:38.136Z</time></trkpt><trkpt lat="44.0990188" lon="11.5405727"><ele>706.0</ele><time>2026-05-01T11:15:39.138Z</time></trkpt><trkpt lat="44.0990938" lon="11.54053"><ele>706.0</ele><time>2026-05-01T11:15:40.139Z</time></trkpt><trkpt lat="44.0991693" lon="11.5404917"><ele>706.0</ele><time>2026-05-01T11:15:41.138Z</time></trkpt><trkpt lat="44.099237" lon="11.540461"><ele>706.0</ele><time>2026-05-01T11:15:42.138Z</time></trkpt><trkpt lat="44.0993015" lon="11.5404442"><ele>706.0</ele><time>2026-05-01T11:15:43.139Z</time></trkpt><trkpt lat="44.0993653" lon="11.5404338"><ele>706.0</ele><time>2026-05-01T11:15:44.138Z</time></trkpt><trkpt lat="44.0994267" lon="11.5404138"><ele>705.4</ele><time>2026-05-01T11:15:45.138Z</time></trkpt><trkpt lat="44.0995552" lon="11.5403832"><ele>704.8</ele><time>2026-05-01T11:15:47.139Z</time></trkpt><trkpt lat="44.0996235" lon="11.5403807"><ele>704.1999999999999</ele><time>2026-05-01T11:15:48.139Z</time></trkpt><trkpt lat="44.099742" lon="11.5403845"><ele>703.5999999999999</ele><time>2026-05-01T11:15:50.138Z</time></trkpt><trkpt lat="44.099838" lon="11.540414"><ele>703.0</ele><time>2026-05-01T11:15:52.139Z</time></trkpt><trkpt lat="44.0999628" lon="11.540454"><ele>703.0</ele><time>2026-05-01T11:15:54.138Z</time></trkpt><trkpt lat="44.1000413" lon="11.5404508"><ele>703.0</ele><time>2026-05-01T11:15:55.139Z</time></trkpt><trkpt lat="44.1001133" lon="11.5404578"><ele>703.0</ele><time>2026-05-01T11:15:56.139Z</time></trkpt><trkpt lat="44.1001833" lon="11.540463"><ele>703.0</ele><time>2026-05-01T11:15:57.139Z</time></trkpt><trkpt lat="44.1002478" lon="11.5404625"><ele>703.0</ele><time>2026-05-01T11:15:58.138Z</time></trkpt><trkpt lat="44.1003578" lon="11.5404685"><ele>703.0</ele><time>2026-05-01T11:16:00.136Z</time></trkpt><trkpt lat="44.1004557" lon="11.5404678"><ele>703.0</ele><time>2026-05-01T11:16:02.135Z</time></trkpt><trkpt lat="44.1005477" lon="11.5404242"><ele>703.0</ele><time>2026-05-01T11:16:04.141Z</time></trkpt><trkpt lat="44.1006413" lon="11.5402948"><ele>703.0</ele><time>2026-05-01T11:16:06.138Z</time></trkpt><trkpt lat="44.1006818" lon="11.5402113"><ele>703.0</ele><time>2026-05-01T11:16:07.138Z</time></trkpt><trkpt lat="44.1007183" lon="11.5401235"><ele>703.0</ele><time>2026-05-01T11:16:08.139Z</time></trkpt><trkpt lat="44.1007482" lon="11.5399848"><ele>702.1666666666667</ele><time>2026-05-01T11:16:10.139Z</time></trkpt><trkpt lat="44.1007668" lon="11.5398805"><ele>701.3333333333334</ele><time>2026-05-01T11:16:12.139Z</time></trkpt><trkpt lat="44.1008405" lon="11.5399547"><ele>700.5</ele><time>2026-05-01T11:16:15.138Z</time></trkpt><trkpt lat="44.1008738" lon="11.5400307"><ele>699.6666666666666</ele><time>2026-05-01T11:16:16.138Z</time></trkpt><trkpt lat="44.1009108" lon="11.5401153"><ele>698.8333333333333</ele><time>2026-05-01T11:16:17.139Z</time></trkpt><trkpt lat="44.1009453" lon="11.5402747"><ele>698.0</ele><time>2026-05-01T11:16:19.14Z</time></trkpt><trkpt lat="44.1009812" lon="11.5404133"><ele>697.8333333333333</ele><time>2026-05-01T11:16:21.138Z</time></trkpt><trkpt lat="44.1010295" lon="11.5405185"><ele>697.6666666666666</ele><time>2026-05-01T11:16:23.137Z</time></trkpt><trkpt lat="44.1010833" lon="11.5405922"><ele>697.5</ele><time>2026-05-01T11:16:25.135Z</time></trkpt><trkpt lat="44.1011648" lon="11.540633"><ele>697.3333333333334</ele><time>2026-05-01T11:16:27.134Z</time></trkpt><trkpt lat="44.1012523" lon="11.540692"><ele>697.1666666666667</ele><time>2026-05-01T11:16:29.137Z</time></trkpt><trkpt lat="44.101329" lon="11.5407587"><ele>697.0</ele><time>2026-05-01T11:16:31.139Z</time></trkpt><trkpt lat="44.1014025" lon="11.540864"><ele>697.0</ele><time>2026-05-01T11:16:33.136Z</time></trkpt><trkpt lat="44.1014793" lon="11.5408605"><ele>697.0</ele><time>2026-05-01T11:16:36.136Z</time></trkpt><trkpt lat="44.101521" lon="11.5407485"><ele>697.0</ele><time>2026-05-01T11:16:39.137Z</time></trkpt><trkpt lat="44.101564" lon="11.5406755"><ele>697.0</ele><time>2026-05-01T11:16:42.136Z</time></trkpt><trkpt lat="44.1016315" lon="11.5406772"><ele>697.0</ele><time>2026-05-01T11:17:01.137Z</time></trkpt><trkpt lat="44.1016797" lon="11.5407385"><ele>697.0</ele><time>2026-05-01T11:17:04.136Z</time></trkpt><trkpt lat="44.1017813" lon="11.5407927"><ele>692.5</ele><time>2026-05-01T11:17:07.136Z</time></trkpt><trkpt lat="44.101881" lon="11.5408743"><ele>688.0</ele><time>2026-05-01T11:17:09.136Z</time></trkpt><trkpt lat="44.1019442" lon="11.540889"><ele>683.5</ele><time>2026-05-01T11:17:10.136Z</time></trkpt><trkpt lat="44.1020108" lon="11.5408995"><ele>679.0</ele><time>2026-05-01T11:17:11.136Z</time></trkpt><trkpt lat="44.1020792" lon="11.5409055"><ele>674.5</ele><time>2026-05-01T11:17:12.136Z</time></trkpt><trkpt lat="44.1021485" lon="11.5409107"><ele>670.0</ele><time>2026-05-01T11:17:13.134Z</time></trkpt><trkpt lat="44.102223" lon="11.5409235"><ele>670.0</ele><time>2026-05-01T11:17:14.134Z</time></trkpt><trkpt lat="44.102291" lon="11.540927"><ele>670.0</ele><time>2026-05-01T11:17:15.133Z</time></trkpt><trkpt lat="44.1024182" lon="11.5409545"><ele>670.0</ele><time>2026-05-01T11:17:17.137Z</time></trkpt><trkpt lat="44.1024812" lon="11.5409878"><ele>670.0</ele><time>2026-05-01T11:17:18.135Z</time></trkpt><trkpt lat="44.102593" lon="11.5410797"><ele>670.0</ele><time>2026-05-01T11:17:20.135Z</time></trkpt><trkpt lat="44.1026793" lon="11.541159"><ele>668.8333333333334</ele><time>2026-05-01T11:17:22.133Z</time></trkpt><trkpt lat="44.1027315" lon="11.5412157"><ele>667.6666666666667</ele><time>2026-05-01T11:17:24.135Z</time></trkpt><trkpt lat="44.1028242" lon="11.541231"><ele>666.5</ele><time>2026-05-01T11:17:27.134Z</time></trkpt><trkpt lat="44.1028958" lon="11.5412132"><ele>665.3333333333334</ele><time>2026-05-01T11:17:29.132Z</time></trkpt><trkpt lat="44.1029823" lon="11.5411923"><ele>664.1666666666666</ele><time>2026-05-01T11:17:31.135Z</time></trkpt><trkpt lat="44.1030877" lon="11.5411742"><ele>663.0</ele><time>2026-05-01T11:17:33.133Z</time></trkpt><trkpt lat="44.1031737" lon="11.5411822"><ele>663.0</ele><time>2026-05-01T11:17:35.135Z</time></trkpt><trkpt lat="44.103229" lon="11.5412708"><ele>663.0</ele><time>2026-05-01T11:17:37.134Z</time></trkpt><trkpt lat="44.1032523" lon="11.5413635"><ele>663.0</ele><time>2026-05-01T11:17:39.134Z</time></trkpt><trkpt lat="44.1032627" lon="11.5414533"><ele>663.0</ele><time>2026-05-01T11:17:41.134Z</time></trkpt><trkpt lat="44.1033265" lon="11.5415675"><ele>663.0</ele><time>2026-05-01T11:17:44.135Z</time></trkpt><trkpt lat="44.1033978" lon="11.5416652"><ele>663.0</ele><time>2026-05-01T11:17:46.136Z</time></trkpt><trkpt lat="44.1034522" lon="11.5417165"><ele>659.5</ele><time>2026-05-01T11:17:48.134Z</time></trkpt><trkpt lat="44.1034907" lon="11.5417977"><ele>656.0</ele><time>2026-05-01T11:17:50.133Z</time></trkpt><trkpt lat="44.1035492" lon="11.5418768"><ele>652.5</ele><time>2026-05-01T11:17:52.134Z</time></trkpt><trkpt lat="44.1036345" lon="11.5419357"><ele>649.0</ele><time>2026-05-01T11:17:54.135Z</time></trkpt><trkpt lat="44.1037303" lon="11.5419878"><ele>645.5</ele><time>2026-05-01T11:17:56.135Z</time></trkpt><trkpt lat="44.103814" lon="11.5420607"><ele>642.0</ele><time>2026-05-01T11:17:58.136Z</time></trkpt><trkpt lat="44.1039265" lon="11.5421382"><ele>640.2</ele><time>2026-05-01T11:18:00.135Z</time></trkpt><trkpt lat="44.1040297" lon="11.5421998"><ele>638.4000000000001</ele><time>2026-05-01T11:18:02.132Z</time></trkpt><trkpt lat="44.104132" lon="11.5422473"><ele>636.5999999999999</ele><time>2026-05-01T11:18:04.135Z</time></trkpt><trkpt lat="44.1042313" lon="11.5423102"><ele>634.8</ele><time>2026-05-01T11:18:06.135Z</time></trkpt><trkpt lat="44.1043105" lon="11.542373"><ele>633.0</ele><time>2026-05-01T11:18:08.137Z</time></trkpt><trkpt lat="44.1044142" lon="11.5424195"><ele>630.5</ele><time>2026-05-01T11:18:10.137Z</time></trkpt><trkpt lat="44.1045322" lon="11.5424527"><ele>628.0</ele><time>2026-05-01T11:18:12.137Z</time></trkpt><trkpt lat="44.1046375" lon="11.5424745"><ele>625.5</ele><time>2026-05-01T11:18:14.136Z</time></trkpt><trkpt lat="44.1047008" lon="11.5425077"><ele>623.0</ele><time>2026-05-01T11:18:16.137Z</time></trkpt><trkpt lat="44.1047543" lon="11.5425663"><ele>620.5</ele><time>2026-05-01T11:18:18.138Z</time></trkpt><trkpt lat="44.1048115" lon="11.5426542"><ele>618.0</ele><time>2026-05-01T11:18:20.137Z</time></trkpt><trkpt lat="44.1049052" lon="11.542742"><ele>613.8</ele><time>2026-05-01T11:18:22.138Z</time></trkpt><trkpt lat="44.1050005" lon="11.5427835"><ele>609.5999999999999</ele><time>2026-05-01T11:18:24.137Z</time></trkpt><trkpt lat="44.1051098" lon="11.5428192"><ele>605.4000000000001</ele><time>2026-05-01T11:18:26.136Z</time></trkpt><trkpt lat="44.105229" lon="11.5428743"><ele>601.2</ele><time>2026-05-01T11:18:28.136Z</time></trkpt><trkpt lat="44.105306" lon="11.5429032"><ele>597.0</ele><time>2026-05-01T11:18:29.135Z</time></trkpt><trkpt lat="44.1053822" lon="11.54293"><ele>596.0</ele><time>2026-05-01T11:18:30.136Z</time></trkpt><trkpt lat="44.1054467" lon="11.5429592"><ele>595.0</ele><time>2026-05-01T11:18:31.138Z</time></trkpt><trkpt lat="44.1055748" lon="11.5429742"><ele>594.0</ele><time>2026-05-01T11:18:33.137Z</time></trkpt><trkpt lat="44.1056407" lon="11.5429658"><ele>593.0</ele><time>2026-05-01T11:18:34.137Z</time></trkpt><trkpt lat="44.1057603" lon="11.5429432"><ele>592.0</ele><time>2026-05-01T11:18:36.137Z</time></trkpt><trkpt lat="44.1058723" lon="11.5429123"><ele>592.8000000000001</ele><time>2026-05-01T11:18:38.135Z</time></trkpt><trkpt lat="44.1059805" lon="11.5428607"><ele>593.6</ele><time>2026-05-01T11:18:40.136Z</time></trkpt><trkpt lat="44.106077" lon="11.5427632"><ele>594.4000000000001</ele><time>2026-05-01T11:18:42.137Z</time></trkpt><trkpt lat="44.1061345" lon="11.5427242"><ele>595.2</ele><time>2026-05-01T11:18:43.135Z</time></trkpt><trkpt lat="44.1062357" lon="11.5426658"><ele>596.0</ele><time>2026-05-01T11:18:45.134Z</time></trkpt><trkpt lat="44.1063422" lon="11.5426147"><ele>596.0</ele><time>2026-05-01T11:18:47.336Z</time></trkpt><trkpt lat="44.1064113" lon="11.5425378"><ele>596.0</ele><time>2026-05-01T11:18:49.135Z</time></trkpt><trkpt lat="44.1064752" lon="11.5424535"><ele>596.0</ele><time>2026-05-01T11:18:51.132Z</time></trkpt><trkpt lat="44.1065333" lon="11.5423438"><ele>596.0</ele><time>2026-05-01T11:18:53.132Z</time></trkpt><trkpt lat="44.1066243" lon="11.5422223"><ele>596.0</ele><time>2026-05-01T11:18:55.137Z</time></trkpt><trkpt lat="44.106679" lon="11.5421628"><ele>598.0</ele><time>2026-05-01T11:18:56.137Z</time></trkpt><trkpt lat="44.1067308" lon="11.5421122"><ele>600.0</ele><time>2026-05-01T11:18:57.138Z</time></trkpt><trkpt lat="44.1068395" lon="11.5420558"><ele>602.0</ele><time>2026-05-01T11:18:59.137Z</time></trkpt><trkpt lat="44.1069157" lon="11.5420627"><ele>604.0</ele><time>2026-05-01T11:19:01.138Z</time></trkpt><trkpt lat="44.1069718" lon="11.5421367"><ele>606.0</ele><time>2026-05-01T11:19:04.138Z</time></trkpt><trkpt lat="44.1070242" lon="11.5422208"><ele>608.0</ele><time>2026-05-01T11:19:08.137Z</time></trkpt><trkpt lat="44.107035" lon="11.5423095"><ele>608.0</ele><time>2026-05-01T11:19:10.138Z</time></trkpt><trkpt lat="44.1070528" lon="11.5423992"><ele>608.0</ele><time>2026-05-01T11:19:12.137Z</time></trkpt><trkpt lat="44.1070667" lon="11.5424855"><ele>608.0</ele><time>2026-05-01T11:19:14.137Z</time></trkpt><trkpt lat="44.1070905" lon="11.542588"><ele>608.0</ele><time>2026-05-01T11:19:17.134Z</time></trkpt><trkpt lat="44.1071497" lon="11.5426577"><ele>608.0</ele><time>2026-05-01T11:19:19.135Z</time></trkpt><trkpt lat="44.1072058" lon="11.5427353"><ele>608.0</ele><time>2026-05-01T11:19:20.136Z</time></trkpt><trkpt lat="44.1072622" lon="11.5428073"><ele>608.0</ele><time>2026-05-01T11:19:21.137Z</time></trkpt><trkpt lat="44.1073212" lon="11.54285"><ele>604.1999999999999</ele><time>2026-05-01T11:19:22.136Z</time></trkpt><trkpt lat="44.1074355" lon="11.542896"><ele>600.4</ele><time>2026-05-01T11:19:24.137Z</time></trkpt><trkpt lat="44.1075462" lon="11.5429262"><ele>596.5999999999999</ele><time>2026-05-01T11:19:26.137Z</time></trkpt><trkpt lat="44.1076592" lon="11.5429558"><ele>592.8</ele><time>2026-05-01T11:19:28.136Z</time></trkpt><trkpt lat="44.1077175" lon="11.542999"><ele>589.0</ele><time>2026-05-01T11:19:29.137Z</time></trkpt><trkpt lat="44.1077768" lon="11.5430545"><ele>589.0</ele><time>2026-05-01T11:19:30.137Z</time></trkpt><trkpt lat="44.1078408" lon="11.5431077"><ele>589.0</ele><time>2026-05-01T11:19:31.137Z</time></trkpt><trkpt lat="44.1079507" lon="11.5431787"><ele>589.0</ele><time>2026-05-01T11:19:33.136Z</time></trkpt><trkpt lat="44.1080247" lon="11.543246"><ele>589.0</ele><time>2026-05-01T11:19:35.136Z</time></trkpt><trkpt lat="44.1080858" lon="11.5433528"><ele>589.0</ele><time>2026-05-01T11:19:37.136Z</time></trkpt><trkpt lat="44.1081112" lon="11.5434438"><ele>589.0</ele><time>2026-05-01T11:19:38.136Z</time></trkpt><trkpt lat="44.1081375" lon="11.5435387"><ele>589.0</ele><time>2026-05-01T11:19:39.136Z</time></trkpt><trkpt lat="44.1081628" lon="11.5436207"><ele>589.0</ele><time>2026-05-01T11:19:40.135Z</time></trkpt><trkpt lat="44.108246" lon="11.5437348"><ele>589.0</ele><time>2026-05-01T11:19:42.135Z</time></trkpt><trkpt lat="44.1083305" lon="11.5438067"><ele>589.0</ele><time>2026-05-01T11:19:44.137Z</time></trkpt><trkpt lat="44.1084025" lon="11.5438623"><ele>589.0</ele><time>2026-05-01T11:19:46.137Z</time></trkpt><trkpt lat="44.108451" lon="11.543952"><ele>585.1666666666667</ele><time>2026-05-01T11:19:48.137Z</time></trkpt><trkpt lat="44.1084852" lon="11.5440807"><ele>581.3333333333334</ele><time>2026-05-01T11:19:50.139Z</time></trkpt><trkpt lat="44.1085513" lon="11.5441935"><ele>577.5</ele><time>2026-05-01T11:19:52.137Z</time></trkpt><trkpt lat="44.1086387" lon="11.5442325"><ele>573.6666666666666</ele><time>2026-05-01T11:19:54.137Z</time></trkpt><trkpt lat="44.1087208" lon="11.5442483"><ele>569.8333333333333</ele><time>2026-05-01T11:19:56.135Z</time></trkpt><trkpt lat="44.1087878" lon="11.5442703"><ele>566.0</ele><time>2026-05-01T11:19:58.137Z</time></trkpt><trkpt lat="44.1088362" lon="11.5443792"><ele>566.0</ele><time>2026-05-01T11:20:00.136Z</time></trkpt><trkpt lat="44.1088563" lon="11.5444662"><ele>566.0</ele><time>2026-05-01T11:20:01.137Z</time></trkpt><trkpt lat="44.108885" lon="11.5445512"><ele>566.0</ele><time>2026-05-01T11:20:02.136Z</time></trkpt><trkpt lat="44.108926" lon="11.5446355"><ele>566.0</ele><time>2026-05-01T11:20:03.137Z</time></trkpt><trkpt lat="44.1089678" lon="11.544721"><ele>566.0</ele><time>2026-05-01T11:20:04.137Z</time></trkpt><trkpt lat="44.1090252" lon="11.5448362"><ele>566.0</ele><time>2026-05-01T11:20:06.134Z</time></trkpt><trkpt lat="44.1090847" lon="11.544873"><ele>566.0</ele><time>2026-05-01T11:20:23.138Z</time></trkpt><trkpt lat="44.109136" lon="11.5449567"><ele>564.0</ele><time>2026-05-01T11:20:53.136Z</time></trkpt><trkpt lat="44.1092098" lon="11.5450302"><ele>562.0</ele><time>2026-05-01T11:20:56.134Z</time></trkpt><trkpt lat="44.1092933" lon="11.5450228"><ele>560.0</ele><time>2026-05-01T11:20:59.137Z</time></trkpt><trkpt lat="44.1093445" lon="11.5450765"><ele>558.0</ele><time>2026-05-01T11:21:04.138Z</time></trkpt><trkpt lat="44.1093622" lon="11.5451715"><ele>556.0</ele><time>2026-05-01T11:21:06.137Z</time></trkpt><trkpt lat="44.1093892" lon="11.5452797"><ele>554.0</ele><time>2026-05-01T11:21:08.137Z</time></trkpt><trkpt lat="44.1094308" lon="11.545348"><ele>551.8333333333333</ele><time>2026-05-01T11:21:11.138Z</time></trkpt><trkpt lat="44.109479" lon="11.545408"><ele>549.6666666666666</ele><time>2026-05-01T11:21:24.136Z</time></trkpt><trkpt lat="44.1095085" lon="11.5454927"><ele>547.5</ele><time>2026-05-01T11:21:28.136Z</time></trkpt><trkpt lat="44.1095478" lon="11.5455888"><ele>545.3333333333334</ele><time>2026-05-01T11:21:31.136Z</time></trkpt><trkpt lat="44.1095753" lon="11.5456873"><ele>543.1666666666667</ele><time>2026-05-01T11:21:33.136Z</time></trkpt><trkpt lat="44.1095807" lon="11.5457755"><ele>541.0</ele><time>2026-05-01T11:21:35.137Z</time></trkpt><trkpt lat="44.1095182" lon="11.545893"><ele>541.0</ele><time>2026-05-01T11:21:37.136Z</time></trkpt><trkpt lat="44.109474" lon="11.545956"><ele>541.0</ele><time>2026-05-01T11:21:38.136Z</time></trkpt><trkpt lat="44.1093875" lon="11.5460807"><ele>541.0</ele><time>2026-05-01T11:21:40.135Z</time></trkpt><trkpt lat="44.1093585" lon="11.5461645"><ele>541.0</ele><time>2026-05-01T11:21:41.137Z</time></trkpt><trkpt lat="44.109327" lon="11.5462445"><ele>541.0</ele><time>2026-05-01T11:21:42.135Z</time></trkpt><trkpt lat="44.1092422" lon="11.5463527"><ele>541.0</ele><time>2026-05-01T11:21:44.135Z</time></trkpt><trkpt lat="44.1091342" lon="11.5464087"><ele>535.5</ele><time>2026-05-01T11:21:46.136Z</time></trkpt><trkpt lat="44.1090252" lon="11.5464202"><ele>530.0</ele><time>2026-05-01T11:21:48.138Z</time></trkpt><trkpt lat="44.1089415" lon="11.5465117"><ele>524.5</ele><time>2026-05-01T11:21:50.136Z</time></trkpt><trkpt lat="44.1088948" lon="11.546592"><ele>519.0</ele><time>2026-05-01T11:21:51.137Z</time></trkpt><trkpt lat="44.1088435" lon="11.5466642"><ele>513.5</ele><time>2026-05-01T11:21:52.137Z</time></trkpt><trkpt lat="44.1088033" lon="11.546732"><ele>508.0</ele><time>2026-05-01T11:21:53.135Z</time></trkpt><trkpt lat="44.1087848" lon="11.546876"><ele>508.00000000000006</ele><time>2026-05-01T11:21:55.137Z</time></trkpt><trkpt lat="44.1088558" lon="11.5469833"><ele>508.0</ele><time>2026-05-01T11:21:57.137Z</time></trkpt><trkpt lat="44.108875" lon="11.5470978"><ele>508.0</ele><time>2026-05-01T11:21:59.138Z</time></trkpt><trkpt lat="44.108785" lon="11.547178"><ele>508.0</ele><time>2026-05-01T11:22:01.138Z</time></trkpt><trkpt lat="44.1087207" lon="11.5472167"><ele>508.00000000000006</ele><time>2026-05-01T11:22:02.137Z</time></trkpt><trkpt lat="44.1086565" lon="11.5472603"><ele>508.0</ele><time>2026-05-01T11:22:03.137Z</time></trkpt><trkpt lat="44.1085907" lon="11.5473067"><ele>508.00000000000006</ele><time>2026-05-01T11:22:04.137Z</time></trkpt><trkpt lat="44.1085012" lon="11.5472878"><ele>508.0</ele><time>2026-05-01T11:22:06.136Z</time></trkpt><trkpt lat="44.1084375" lon="11.5471543"><ele>508.0</ele><time>2026-05-01T11:22:08.134Z</time></trkpt><trkpt lat="44.1084023" lon="11.5470707"><ele>508.0</ele><time>2026-05-01T11:22:09.134Z</time></trkpt><trkpt lat="44.1083782" lon="11.5469753"><ele>508.00000000000006</ele><time>2026-05-01T11:22:10.134Z</time></trkpt><trkpt lat="44.1083667" lon="11.546873"><ele>508.0</ele><time>2026-05-01T11:22:11.135Z</time></trkpt><trkpt lat="44.1083695" lon="11.5467678"><ele>508.00000000000006</ele><time>2026-05-01T11:22:12.136Z</time></trkpt><trkpt lat="44.1083835" lon="11.5466677"><ele>508.0</ele><time>2026-05-01T11:22:13.137Z</time></trkpt><trkpt lat="44.1084032" lon="11.5465697"><ele>508.0</ele><time>2026-05-01T11:22:14.135Z</time></trkpt><trkpt lat="44.1084165" lon="11.546467"><ele>508.0</ele><time>2026-05-01T11:22:15.135Z</time></trkpt><trkpt lat="44.1084168" lon="11.5463755"><ele>508.00000000000006</ele><time>2026-05-01T11:22:16.137Z</time></trkpt><trkpt lat="44.1083552" lon="11.5462337"><ele>508.0</ele><time>2026-05-01T11:22:18.134Z</time></trkpt><trkpt lat="44.1082945" lon="11.5461692"><ele>508.6666666666667</ele><time>2026-05-01T11:22:19.135Z</time></trkpt><trkpt lat="44.1082187" lon="11.5461157"><ele>509.33333333333337</ele><time>2026-05-01T11:22:20.134Z</time></trkpt><trkpt lat="44.108137" lon="11.5460773"><ele>510.0</ele><time>2026-05-01T11:22:21.136Z</time></trkpt><trkpt lat="44.1080573" lon="11.5460593"><ele>510.66666666666663</ele><time>2026-05-01T11:22:22.135Z</time></trkpt><trkpt lat="44.1079753" lon="11.5460595"><ele>511.3333333333333</ele><time>2026-05-01T11:22:23.134Z</time></trkpt><trkpt lat="44.1079058" lon="11.546083"><ele>512.0</ele><time>2026-05-01T11:22:24.135Z</time></trkpt><trkpt lat="44.1078473" lon="11.5461198"><ele>511.99999999999994</ele><time>2026-05-01T11:22:25.136Z</time></trkpt><trkpt lat="44.1077592" lon="11.546159"><ele>512.0</ele><time>2026-05-01T11:22:27.135Z</time></trkpt><trkpt lat="44.1076885" lon="11.5461633"><ele>512.0</ele><time>2026-05-01T11:23:01.135Z</time></trkpt><trkpt lat="44.1075847" lon="11.5461367"><ele>512.0</ele><time>2026-05-01T11:23:03.138Z</time></trkpt><trkpt lat="44.1075255" lon="11.5461698"><ele>511.99999999999994</ele><time>2026-05-01T11:23:06.135Z</time></trkpt><trkpt lat="44.1074742" lon="11.5462403"><ele>512.0</ele><time>2026-05-01T11:23:11.133Z</time></trkpt><trkpt lat="44.1074387" lon="11.546368"><ele>509.8333333333333</ele><time>2026-05-01T11:23:13.134Z</time></trkpt><trkpt lat="44.107428" lon="11.5465313"><ele>507.66666666666663</ele><time>2026-05-01T11:23:15.134Z</time></trkpt><trkpt lat="44.1074373" lon="11.5466225"><ele>505.5</ele><time>2026-05-01T11:23:16.134Z</time></trkpt><trkpt lat="44.107445" lon="11.5467147"><ele>503.33333333333337</ele><time>2026-05-01T11:23:17.133Z</time></trkpt><trkpt lat="44.1074473" lon="11.5468072"><ele>501.1666666666667</ele><time>2026-05-01T11:23:18.133Z</time></trkpt><trkpt lat="44.1074458" lon="11.5469803"><ele>499.0</ele><time>2026-05-01T11:23:20.132Z</time></trkpt><trkpt lat="44.107441" lon="11.5470775"><ele>497.28571428571433</ele><time>2026-05-01T11:23:21.132Z</time></trkpt><trkpt lat="44.1074343" lon="11.5471695"><ele>495.57142857142856</ele><time>2026-05-01T11:23:22.132Z</time></trkpt><trkpt lat="44.1074417" lon="11.5472633"><ele>493.8571428571429</ele><time>2026-05-01T11:23:23.133Z</time></trkpt><trkpt lat="44.107455" lon="11.54736"><ele>492.14285714285717</ele><time>2026-05-01T11:23:24.133Z</time></trkpt><trkpt lat="44.1074588" lon="11.5474493"><ele>490.42857142857144</ele><time>2026-05-01T11:23:25.134Z</time></trkpt><trkpt lat="44.107454" lon="11.5475368"><ele>488.7142857142857</ele><time>2026-05-01T11:23:26.133Z</time></trkpt><trkpt lat="44.1074552" lon="11.5476273"><ele>487.0</ele><time>2026-05-01T11:23:27.136Z</time></trkpt><trkpt lat="44.1074618" lon="11.5477275"><ele>487.00000000000006</ele><time>2026-05-01T11:23:28.134Z</time></trkpt><trkpt lat="44.1074627" lon="11.5478285"><ele>487.0</ele><time>2026-05-01T11:23:29.133Z</time></trkpt><trkpt lat="44.1074515" lon="11.547925"><ele>487.0</ele><time>2026-05-01T11:23:30.134Z</time></trkpt><trkpt lat="44.1073785" lon="11.5480508"><ele>487.0</ele><time>2026-05-01T11:23:32.135Z</time></trkpt><trkpt lat="44.1073117" lon="11.5480837"><ele>487.00000000000006</ele><time>2026-05-01T11:23:33.135Z</time></trkpt><trkpt lat="44.107227" lon="11.5481177"><ele>487.0</ele><time>2026-05-01T11:23:34.135Z</time></trkpt><trkpt lat="44.1071432" lon="11.5481527"><ele>483.6666666666667</ele><time>2026-05-01T11:23:35.134Z</time></trkpt><trkpt lat="44.1070612" lon="11.5481848"><ele>480.33333333333337</ele><time>2026-05-01T11:23:36.135Z</time></trkpt><trkpt lat="44.106982" lon="11.5482233"><ele>477.0</ele><time>2026-05-01T11:23:37.135Z</time></trkpt><trkpt lat="44.1069103" lon="11.5482655"><ele>473.66666666666663</ele><time>2026-05-01T11:23:38.134Z</time></trkpt><trkpt lat="44.106842" lon="11.5483112"><ele>470.3333333333333</ele><time>2026-05-01T11:23:39.135Z</time></trkpt><trkpt lat="44.1067868" lon="11.5483578"><ele>467.0</ele><time>2026-05-01T11:23:40.134Z</time></trkpt><trkpt lat="44.1067407" lon="11.5484368"><ele>467.0</ele><time>2026-05-01T11:23:42.135Z</time></trkpt><trkpt lat="44.106805" lon="11.5484612"><ele>467.00000000000006</ele><time>2026-05-01T11:23:44.133Z</time></trkpt><trkpt lat="44.1068892" lon="11.5484432"><ele>467.00000000000006</ele><time>2026-05-01T11:23:45.132Z</time></trkpt><trkpt lat="44.1069938" lon="11.548437"><ele>467.0</ele><time>2026-05-01T11:23:46.132Z</time></trkpt><trkpt lat="44.1070955" lon="11.5484563"><ele>467.0</ele><time>2026-05-01T11:23:47.132Z</time></trkpt><trkpt lat="44.1071897" lon="11.5484927"><ele>466.99999999999994</ele><time>2026-05-01T11:23:48.132Z</time></trkpt><trkpt lat="44.1072753" lon="11.5485315"><ele>467.0</ele><time>2026-05-01T11:23:49.134Z</time></trkpt><trkpt lat="44.107356" lon="11.5485625"><ele>467.0</ele><time>2026-05-01T11:23:50.134Z</time></trkpt><trkpt lat="44.1074327" lon="11.5485937"><ele>467.0</ele><time>2026-05-01T11:23:51.134Z</time></trkpt><trkpt lat="44.1075015" lon="11.5486342"><ele>466.99999999999994</ele><time>2026-05-01T11:23:52.134Z</time></trkpt><trkpt lat="44.107569" lon="11.5486932"><ele>467.0</ele><time>2026-05-01T11:23:53.134Z</time></trkpt><trkpt lat="44.1076378" lon="11.5487522"><ele>466.0</ele><time>2026-05-01T11:23:54.135Z</time></trkpt><trkpt lat="44.1077168" lon="11.5488003"><ele>465.00000000000006</ele><time>2026-05-01T11:23:55.135Z</time></trkpt><trkpt lat="44.1077978" lon="11.5488448"><ele>464.00000000000006</ele><time>2026-05-01T11:23:56.134Z</time></trkpt><trkpt lat="44.1078828" lon="11.5488825"><ele>463.0</ele><time>2026-05-01T11:23:57.135Z</time></trkpt><trkpt lat="44.1079713" lon="11.5489227"><ele>462.0</ele><time>2026-05-01T11:23:58.136Z</time></trkpt><trkpt lat="44.1080658" lon="11.5489735"><ele>462.0</ele><time>2026-05-01T11:23:59.135Z</time></trkpt><trkpt lat="44.1081693" lon="11.54903"><ele>462.0</ele><time>2026-05-01T11:24:00.135Z</time></trkpt><trkpt lat="44.1082818" lon="11.5491002"><ele>462.0</ele><time>2026-05-01T11:24:01.136Z</time></trkpt><trkpt lat="44.1083947" lon="11.5491638"><ele>462.0</ele><time>2026-05-01T11:24:02.135Z</time></trkpt><trkpt lat="44.1085075" lon="11.5492282"><ele>460.0</ele><time>2026-05-01T11:24:03.137Z</time></trkpt><trkpt lat="44.108618" lon="11.549294"><ele>458.0</ele><time>2026-05-01T11:24:04.135Z</time></trkpt><trkpt lat="44.1087227" lon="11.549356"><ele>456.0</ele><time>2026-05-01T11:24:05.133Z</time></trkpt><trkpt lat="44.108829" lon="11.5494017"><ele>454.0</ele><time>2026-05-01T11:24:06.134Z</time></trkpt><trkpt lat="44.1089468" lon="11.5494387"><ele>454.0</ele><time>2026-05-01T11:24:07.134Z</time></trkpt><trkpt lat="44.1090685" lon="11.5494887"><ele>454.0</ele><time>2026-05-01T11:24:08.135Z</time></trkpt><trkpt lat="44.109195" lon="11.5495513"><ele>454.0</ele><time>2026-05-01T11:24:09.134Z</time></trkpt><trkpt lat="44.1093323" lon="11.5496167"><ele>454.0</ele><time>2026-05-01T11:24:10.133Z</time></trkpt><trkpt lat="44.1094722" lon="11.5496718"><ele>451.75</ele><time>2026-05-01T11:24:11.133Z</time></trkpt><trkpt lat="44.109611" lon="11.549716"><ele>449.5</ele><time>2026-05-01T11:24:12.133Z</time></trkpt><trkpt lat="44.1097398" lon="11.5497573"><ele>447.25</ele><time>2026-05-01T11:24:13.134Z</time></trkpt><trkpt lat="44.10986" lon="11.5497887"><ele>445.0</ele><time>2026-05-01T11:24:14.136Z</time></trkpt><trkpt lat="44.109973" lon="11.549805"><ele>444.8</ele><time>2026-05-01T11:24:15.136Z</time></trkpt><trkpt lat="44.1100805" lon="11.549806"><ele>444.6</ele><time>2026-05-01T11:24:16.136Z</time></trkpt><trkpt lat="44.1101837" lon="11.5497957"><ele>444.4</ele><time>2026-05-01T11:24:17.135Z</time></trkpt><trkpt lat="44.1102865" lon="11.5497823"><ele>444.2</ele><time>2026-05-01T11:24:18.136Z</time></trkpt><trkpt lat="44.1103925" lon="11.5497692"><ele>444.0</ele><time>2026-05-01T11:24:19.136Z</time></trkpt><trkpt lat="44.1105013" lon="11.549752"><ele>444.0</ele><time>2026-05-01T11:24:20.134Z</time></trkpt><trkpt lat="44.1106077" lon="11.5497278"><ele>444.0</ele><time>2026-05-01T11:24:21.135Z</time></trkpt><trkpt lat="44.1107093" lon="11.5496972"><ele>444.0</ele><time>2026-05-01T11:24:22.135Z</time></trkpt><trkpt lat="44.1108087" lon="11.5496665"><ele>444.0</ele><time>2026-05-01T11:24:23.134Z</time></trkpt><trkpt lat="44.1109057" lon="11.5496317"><ele>444.0</ele><time>2026-05-01T11:24:24.135Z</time></trkpt><trkpt lat="44.111006" lon="11.5496003"><ele>443.75</ele><time>2026-05-01T11:24:25.135Z</time></trkpt><trkpt lat="44.1111105" lon="11.5495733"><ele>443.5</ele><time>2026-05-01T11:24:26.135Z</time></trkpt><trkpt lat="44.1112207" lon="11.5495437"><ele>443.25</ele><time>2026-05-01T11:24:27.136Z</time></trkpt><trkpt lat="44.111335" lon="11.5495145"><ele>443.0</ele><time>2026-05-01T11:24:28.134Z</time></trkpt><trkpt lat="44.1114515" lon="11.5494862"><ele>443.0</ele><time>2026-05-01T11:24:29.134Z</time></trkpt><trkpt lat="44.111568" lon="11.5494603"><ele>443.0</ele><time>2026-05-01T11:24:30.136Z</time></trkpt><trkpt lat="44.1116845" lon="11.5494408"><ele>443.0</ele><time>2026-05-01T11:24:31.134Z</time></trkpt><trkpt lat="44.1118007" lon="11.5494233"><ele>443.0</ele><time>2026-05-01T11:24:32.135Z</time></trkpt><trkpt lat="44.1119092" lon="11.549408"><ele>442.16666666666663</ele><time>2026-05-01T11:24:33.135Z</time></trkpt><trkpt lat="44.1120065" lon="11.549392"><ele>441.3333333333333</ele><time>2026-05-01T11:24:34.133Z</time></trkpt><trkpt lat="44.1120983" lon="11.5493803"><ele>440.5</ele><time>2026-05-01T11:24:35.133Z</time></trkpt><trkpt lat="44.1121833" lon="11.5493738"><ele>439.66666666666663</ele><time>2026-05-01T11:24:36.133Z</time></trkpt><trkpt lat="44.1122605" lon="11.5493655"><ele>438.8333333333333</ele><time>2026-05-01T11:24:37.133Z</time></trkpt><trkpt lat="44.1123268" lon="11.5493643"><ele>438.0</ele><time>2026-05-01T11:24:38.137Z</time></trkpt><trkpt lat="44.1124102" lon="11.549349"><ele>437.3333333333333</ele><time>2026-05-01T11:24:40.137Z</time></trkpt><trkpt lat="44.1124632" lon="11.5492937"><ele>436.66666666666663</ele><time>2026-05-01T11:24:42.135Z</time></trkpt><trkpt lat="44.1124975" lon="11.5491372"><ele>436.0</ele><time>2026-05-01T11:24:44.135Z</time></trkpt><trkpt lat="44.1125152" lon="11.5490412"><ele>435.3333333333333</ele><time>2026-05-01T11:24:45.135Z</time></trkpt><trkpt lat="44.1125417" lon="11.5489477"><ele>434.66666666666663</ele><time>2026-05-01T11:24:46.135Z</time></trkpt><trkpt lat="44.112558" lon="11.5488478"><ele>434.0</ele><time>2026-05-01T11:24:47.135Z</time></trkpt><trkpt lat="44.1125697" lon="11.5487502"><ele>433.4</ele><time>2026-05-01T11:24:48.135Z</time></trkpt><trkpt lat="44.1125792" lon="11.5486568"><ele>432.79999999999995</ele><time>2026-05-01T11:24:49.134Z</time></trkpt><trkpt lat="44.1125958" lon="11.5484897"><ele>432.20000000000005</ele><time>2026-05-01T11:24:51.135Z</time></trkpt><trkpt lat="44.1125535" lon="11.5483558"><ele>431.6</ele><time>2026-05-01T11:24:53.134Z</time></trkpt><trkpt lat="44.1125127" lon="11.5482"><ele>431.0</ele><time>2026-05-01T11:24:55.135Z</time></trkpt><trkpt lat="44.112525" lon="11.54811"><ele>430.99999999999994</ele><time>2026-05-01T11:24:56.134Z</time></trkpt><trkpt lat="44.1125533" lon="11.5480218"><ele>431.0</ele><time>2026-05-01T11:24:57.135Z</time></trkpt><trkpt lat="44.1125998" lon="11.5479453"><ele>431.0</ele><time>2026-05-01T11:24:58.134Z</time></trkpt><trkpt lat="44.1126643" lon="11.5478967"><ele>431.0</ele><time>2026-05-01T11:24:59.133Z</time></trkpt><trkpt lat="44.1127418" lon="11.547877"><ele>430.99999999999994</ele><time>2026-05-01T11:25:00.133Z</time></trkpt><trkpt lat="44.1128237" lon="11.5478825"><ele>431.0</ele><time>2026-05-01T11:25:01.133Z</time></trkpt><trkpt lat="44.112906" lon="11.5479005"><ele>431.0</ele><time>2026-05-01T11:25:02.134Z</time></trkpt><trkpt lat="44.112988" lon="11.5479218"><ele>431.0</ele><time>2026-05-01T11:25:03.137Z</time></trkpt><trkpt lat="44.1130663" lon="11.5479433"><ele>431.0</ele><time>2026-05-01T11:25:04.135Z</time></trkpt><trkpt lat="44.1131372" lon="11.5479635"><ele>431.0</ele><time>2026-05-01T11:25:05.138Z</time></trkpt><trkpt lat="44.113201" lon="11.5479827"><ele>431.0</ele><time>2026-05-01T11:25:06.137Z</time></trkpt><trkpt lat="44.1132637" lon="11.5480065"><ele>431.0</ele><time>2026-05-01T11:25:07.137Z</time></trkpt><trkpt lat="44.113326" lon="11.5480395"><ele>431.0</ele><time>2026-05-01T11:25:08.138Z</time></trkpt><trkpt lat="44.1133868" lon="11.5480883"><ele>430.66666666666663</ele><time>2026-05-01T11:25:09.137Z</time></trkpt><trkpt lat="44.1134367" lon="11.5481578"><ele>430.3333333333333</ele><time>2026-05-01T11:25:10.136Z</time></trkpt><trkpt lat="44.1134742" lon="11.5482445"><ele>430.0</ele><time>2026-05-01T11:25:11.135Z</time></trkpt><trkpt lat="44.1135077" lon="11.5483425"><ele>429.66666666666663</ele><time>2026-05-01T11:25:12.137Z</time></trkpt><trkpt lat="44.1135412" lon="11.548446"><ele>429.3333333333333</ele><time>2026-05-01T11:25:13.138Z</time></trkpt><trkpt lat="44.1135762" lon="11.5485482"><ele>429.0</ele><time>2026-05-01T11:25:14.135Z</time></trkpt><trkpt lat="44.1136095" lon="11.5486458"><ele>429.0</ele><time>2026-05-01T11:25:15.136Z</time></trkpt><trkpt lat="44.1136482" lon="11.5487297"><ele>429.0</ele><time>2026-05-01T11:25:16.136Z</time></trkpt><trkpt lat="44.1137248" lon="11.5488538"><ele>429.0</ele><time>2026-05-01T11:25:18.137Z</time></trkpt><trkpt lat="44.1137985" lon="11.5489655"><ele>429.0</ele><time>2026-05-01T11:25:20.136Z</time></trkpt><trkpt lat="44.113868" lon="11.5490663"><ele>429.0</ele><time>2026-05-01T11:25:22.134Z</time></trkpt><trkpt lat="44.1139243" lon="11.5491127"><ele>429.0</ele><time>2026-05-01T11:25:24.134Z</time></trkpt><trkpt lat="44.1139138" lon="11.5490122"><ele>429.0</ele><time>2026-05-01T11:25:28.136Z</time></trkpt><trkpt lat="44.113844" lon="11.5488912"><ele>429.0</ele><time>2026-05-01T11:38:32.134Z</time></trkpt><trkpt lat="44.1137515" lon="11.5488288"><ele>429.0</ele><time>2026-05-01T11:38:35.134Z</time></trkpt><trkpt lat="44.1136713" lon="11.5487103"><ele>429.0</ele><time>2026-05-01T11:38:37.133Z</time></trkpt><trkpt lat="44.1136297" lon="11.5486403"><ele>429.0</ele><time>2026-05-01T11:38:38.131Z</time></trkpt><trkpt lat="44.1135962" lon="11.5485588"><ele>429.0</ele><time>2026-05-01T11:38:39.131Z</time></trkpt><trkpt lat="44.1135702" lon="11.5484733"><ele>429.0</ele><time>2026-05-01T11:38:40.133Z</time></trkpt><trkpt lat="44.1135443" lon="11.5483882"><ele>429.0</ele><time>2026-05-01T11:38:41.133Z</time></trkpt><trkpt lat="44.1135172" lon="11.5483028"><ele>429.0</ele><time>2026-05-01T11:38:42.132Z</time></trkpt><trkpt lat="44.1134957" lon="11.5482118"><ele>429.0</ele><time>2026-05-01T11:38:43.133Z</time></trkpt><trkpt lat="44.1134773" lon="11.548117"><ele>429.0</ele><time>2026-05-01T11:38:44.133Z</time></trkpt><trkpt lat="44.1134592" lon="11.5480143"><ele>429.0</ele><time>2026-05-01T11:38:45.134Z</time></trkpt><trkpt lat="44.1134458" lon="11.5479045"><ele>429.0</ele><time>2026-05-01T11:38:46.135Z</time></trkpt><trkpt lat="44.1134402" lon="11.5477893"><ele>429.0</ele><time>2026-05-01T11:38:47.133Z</time></trkpt><trkpt lat="44.113443" lon="11.5476708"><ele>429.0</ele><time>2026-05-01T11:38:48.135Z</time></trkpt><trkpt lat="44.1134495" lon="11.5475467"><ele>429.0</ele><time>2026-05-01T11:38:49.133Z</time></trkpt><trkpt lat="44.113458" lon="11.5474177"><ele>429.0</ele><time>2026-05-01T11:38:50.132Z</time></trkpt><trkpt lat="44.1134693" lon="11.5472853"><ele>428.79999999999995</ele><time>2026-05-01T11:38:51.132Z</time></trkpt><trkpt lat="44.113492" lon="11.5471558"><ele>428.59999999999997</ele><time>2026-05-01T11:38:52.131Z</time></trkpt><trkpt lat="44.1135358" lon="11.5470395"><ele>428.4</ele><time>2026-05-01T11:38:53.131Z</time></trkpt><trkpt lat="44.1135927" lon="11.5469338"><ele>428.2</ele><time>2026-05-01T11:38:54.132Z</time></trkpt><trkpt lat="44.1136583" lon="11.5468323"><ele>428.0</ele><time>2026-05-01T11:38:55.133Z</time></trkpt><trkpt lat="44.1137318" lon="11.5467377"><ele>428.59999999999997</ele><time>2026-05-01T11:38:56.134Z</time></trkpt><trkpt lat="44.1138083" lon="11.5466455"><ele>429.19999999999993</ele><time>2026-05-01T11:38:57.135Z</time></trkpt><trkpt lat="44.1138872" lon="11.5465498"><ele>429.8</ele><time>2026-05-01T11:38:58.135Z</time></trkpt><trkpt lat="44.1139593" lon="11.546459"><ele>430.4</ele><time>2026-05-01T11:38:59.137Z</time></trkpt><trkpt lat="44.114014" lon="11.546371"><ele>431.0</ele><time>2026-05-01T11:39:00.136Z</time></trkpt><trkpt lat="44.114055" lon="11.5462832"><ele>431.3333333333333</ele><time>2026-05-01T11:39:01.135Z</time></trkpt><trkpt lat="44.114067" lon="11.5461855"><ele>431.66666666666663</ele><time>2026-05-01T11:39:02.135Z</time></trkpt><trkpt lat="44.1140458" lon="11.5460843"><ele>432.0</ele><time>2026-05-01T11:39:03.136Z</time></trkpt><trkpt lat="44.1140032" lon="11.5459843"><ele>432.33333333333337</ele><time>2026-05-01T11:39:04.135Z</time></trkpt><trkpt lat="44.1139493" lon="11.5458778"><ele>432.6666666666667</ele><time>2026-05-01T11:39:05.136Z</time></trkpt><trkpt lat="44.1138877" lon="11.545762"><ele>433.0</ele><time>2026-05-01T11:39:06.137Z</time></trkpt><trkpt lat="44.1138217" lon="11.5456413"><ele>433.0</ele><time>2026-05-01T11:39:07.138Z</time></trkpt><trkpt lat="44.1137532" lon="11.5455158"><ele>433.0</ele><time>2026-05-01T11:39:08.135Z</time></trkpt><trkpt lat="44.1136837" lon="11.5453855"><ele>433.0</ele><time>2026-05-01T11:39:09.135Z</time></trkpt><trkpt lat="44.1136138" lon="11.5452532"><ele>433.0</ele><time>2026-05-01T11:39:10.135Z</time></trkpt><trkpt lat="44.1135435" lon="11.5451193"><ele>433.25</ele><time>2026-05-01T11:39:11.135Z</time></trkpt><trkpt lat="44.1134715" lon="11.5449833"><ele>433.5</ele><time>2026-05-01T11:39:12.137Z</time></trkpt><trkpt lat="44.1134008" lon="11.544847"><ele>433.75</ele><time>2026-05-01T11:39:13.136Z</time></trkpt><trkpt lat="44.1133292" lon="11.54471"><ele>434.0</ele><time>2026-05-01T11:39:14.136Z</time></trkpt><trkpt lat="44.1132562" lon="11.5445728"><ele>434.5</ele><time>2026-05-01T11:39:15.135Z</time></trkpt><trkpt lat="44.1131812" lon="11.5444338"><ele>435.0</ele><time>2026-05-01T11:39:16.133Z</time></trkpt><trkpt lat="44.113106" lon="11.5442925"><ele>435.5</ele><time>2026-05-01T11:39:17.133Z</time></trkpt><trkpt lat="44.1130303" lon="11.5441498"><ele>436.0</ele><time>2026-05-01T11:39:18.137Z</time></trkpt><trkpt lat="44.1129535" lon="11.5440072"><ele>436.0</ele><time>2026-05-01T11:39:19.134Z</time></trkpt><trkpt lat="44.1128782" lon="11.5438633"><ele>436.0</ele><time>2026-05-01T11:39:20.135Z</time></trkpt><trkpt lat="44.1128028" lon="11.5437182"><ele>436.0</ele><time>2026-05-01T11:39:21.136Z</time></trkpt><trkpt lat="44.1127285" lon="11.5435728"><ele>436.0</ele><time>2026-05-01T11:39:22.137Z</time></trkpt><trkpt lat="44.1126542" lon="11.5434278"><ele>436.5</ele><time>2026-05-01T11:39:23.136Z</time></trkpt><trkpt lat="44.1125802" lon="11.5432822"><ele>437.0</ele><time>2026-05-01T11:39:24.134Z</time></trkpt><trkpt lat="44.1125047" lon="11.5431383"><ele>437.5</ele><time>2026-05-01T11:39:25.134Z</time></trkpt><trkpt lat="44.1124293" lon="11.5429947"><ele>438.0</ele><time>2026-05-01T11:39:26.135Z</time></trkpt><trkpt lat="44.1123545" lon="11.5428498"><ele>439.0</ele><time>2026-05-01T11:39:27.137Z</time></trkpt><trkpt lat="44.112278" lon="11.5427063"><ele>440.0</ele><time>2026-05-01T11:39:28.135Z</time></trkpt><trkpt lat="44.1122018" lon="11.5425612"><ele>441.0</ele><time>2026-05-01T11:39:29.136Z</time></trkpt><trkpt lat="44.1121252" lon="11.5424147"><ele>442.0</ele><time>2026-05-01T11:39:30.135Z</time></trkpt><trkpt lat="44.1120468" lon="11.5422677"><ele>442.0</ele><time>2026-05-01T11:39:31.135Z</time></trkpt><trkpt lat="44.1119697" lon="11.5421188"><ele>442.0</ele><time>2026-05-01T11:39:32.136Z</time></trkpt><trkpt lat="44.1118913" lon="11.5419698"><ele>442.0</ele><time>2026-05-01T11:39:33.136Z</time></trkpt><trkpt lat="44.111812" lon="11.5418225"><ele>442.0</ele><time>2026-05-01T11:39:34.135Z</time></trkpt><trkpt lat="44.1117328" lon="11.5416767"><ele>441.75</ele><time>2026-05-01T11:39:35.135Z</time></trkpt><trkpt lat="44.1116557" lon="11.5415317"><ele>441.5</ele><time>2026-05-01T11:39:36.137Z</time></trkpt><trkpt lat="44.111577" lon="11.5413867"><ele>441.25</ele><time>2026-05-01T11:39:37.136Z</time></trkpt><trkpt lat="44.111499" lon="11.54124"><ele>441.0</ele><time>2026-05-01T11:39:38.136Z</time></trkpt><trkpt lat="44.1114222" lon="11.5410903"><ele>441.0</ele><time>2026-05-01T11:39:39.136Z</time></trkpt><trkpt lat="44.1113453" lon="11.54094"><ele>441.0</ele><time>2026-05-01T11:39:40.136Z</time></trkpt><trkpt lat="44.1112693" lon="11.5407888"><ele>441.0</ele><time>2026-05-01T11:39:41.134Z</time></trkpt><trkpt lat="44.111193" lon="11.5406365"><ele>441.0</ele><time>2026-05-01T11:39:42.133Z</time></trkpt><trkpt lat="44.1111158" lon="11.540486"><ele>440.5</ele><time>2026-05-01T11:39:43.134Z</time></trkpt><trkpt lat="44.1110382" lon="11.5403363"><ele>440.0</ele><time>2026-05-01T11:39:44.134Z</time></trkpt><trkpt lat="44.1109603" lon="11.540186"><ele>439.5</ele><time>2026-05-01T11:39:45.134Z</time></trkpt><trkpt lat="44.110882" lon="11.5400348"><ele>439.0</ele><time>2026-05-01T11:39:46.135Z</time></trkpt><trkpt lat="44.1108037" lon="11.5398842"><ele>439.5</ele><time>2026-05-01T11:39:47.135Z</time></trkpt><trkpt lat="44.1107207" lon="11.5397368"><ele>440.0</ele><time>2026-05-01T11:39:48.135Z</time></trkpt><trkpt lat="44.1106397" lon="11.539587"><ele>440.5</ele><time>2026-05-01T11:39:49.135Z</time></trkpt><trkpt lat="44.110557" lon="11.539439"><ele>441.0</ele><time>2026-05-01T11:39:50.136Z</time></trkpt><trkpt lat="44.1104732" lon="11.5392907"><ele>441.0</ele><time>2026-05-01T11:39:51.135Z</time></trkpt><trkpt lat="44.1103867" lon="11.5391437"><ele>441.0</ele><time>2026-05-01T11:39:52.135Z</time></trkpt><trkpt lat="44.110301" lon="11.5389955"><ele>441.0</ele><time>2026-05-01T11:39:53.135Z</time></trkpt><trkpt lat="44.1102157" lon="11.5388468"><ele>441.0</ele><time>2026-05-01T11:39:54.136Z</time></trkpt><trkpt lat="44.1101308" lon="11.5386983"><ele>441.75</ele><time>2026-05-01T11:39:55.135Z</time></trkpt><trkpt lat="44.1100465" lon="11.5385493"><ele>442.5</ele><time>2026-05-01T11:39:56.135Z</time></trkpt><trkpt lat="44.109961" lon="11.5384022"><ele>443.25</ele><time>2026-05-01T11:39:57.136Z</time></trkpt><trkpt lat="44.1098748" lon="11.5382555"><ele>444.0</ele><time>2026-05-01T11:39:58.136Z</time></trkpt><trkpt lat="44.1097903" lon="11.5381078"><ele>444.25</ele><time>2026-05-01T11:39:59.135Z</time></trkpt><trkpt lat="44.109708" lon="11.537959"><ele>444.5</ele><time>2026-05-01T11:40:00.136Z</time></trkpt><trkpt lat="44.1096282" lon="11.5378087"><ele>444.75</ele><time>2026-05-01T11:40:01.147Z</time></trkpt><trkpt lat="44.1095522" lon="11.5376555"><ele>445.0</ele><time>2026-05-01T11:40:02.147Z</time></trkpt><trkpt lat="44.1094803" lon="11.5374987"><ele>445.0</ele><time>2026-05-01T11:40:03.149Z</time></trkpt><trkpt lat="44.1094135" lon="11.5373373"><ele>445.0</ele><time>2026-05-01T11:40:04.145Z</time></trkpt><trkpt lat="44.1093502" lon="11.5371722"><ele>445.0</ele><time>2026-05-01T11:40:05.144Z</time></trkpt><trkpt lat="44.109288" lon="11.5370058"><ele>445.0</ele><time>2026-05-01T11:40:06.143Z</time></trkpt><trkpt lat="44.1092227" lon="11.5368423"><ele>445.5</ele><time>2026-05-01T11:40:07.143Z</time></trkpt><trkpt lat="44.1091568" lon="11.5366808"><ele>446.0</ele><time>2026-05-01T11:40:08.144Z</time></trkpt><trkpt lat="44.1090898" lon="11.5365213"><ele>446.5</ele><time>2026-05-01T11:40:09.146Z</time></trkpt><trkpt lat="44.1090178" lon="11.5363657"><ele>447.0</ele><time>2026-05-01T11:40:10.145Z</time></trkpt><trkpt lat="44.1089377" lon="11.5362167"><ele>447.0</ele><time>2026-05-01T11:40:11.145Z</time></trkpt><trkpt lat="44.1088528" lon="11.536072"><ele>447.0</ele><time>2026-05-01T11:40:12.144Z</time></trkpt><trkpt lat="44.1087668" lon="11.5359293"><ele>447.0</ele><time>2026-05-01T11:40:13.156Z</time></trkpt><trkpt lat="44.1086793" lon="11.5357893"><ele>447.0</ele><time>2026-05-01T11:40:14.146Z</time></trkpt><trkpt lat="44.1085928" lon="11.5356493"><ele>447.0</ele><time>2026-05-01T11:40:15.146Z</time></trkpt><trkpt lat="44.108508" lon="11.5355098"><ele>447.0</ele><time>2026-05-01T11:40:16.146Z</time></trkpt><trkpt lat="44.1084238" lon="11.5353723"><ele>447.0</ele><time>2026-05-01T11:40:17.147Z</time></trkpt><trkpt lat="44.1083407" lon="11.5352363"><ele>447.0</ele><time>2026-05-01T11:40:18.138Z</time></trkpt><trkpt lat="44.1082595" lon="11.5351012"><ele>448.6</ele><time>2026-05-01T11:40:19.139Z</time></trkpt><trkpt lat="44.1081843" lon="11.5349743"><ele>450.20000000000005</ele><time>2026-05-01T11:40:20.137Z</time></trkpt><trkpt lat="44.108117" lon="11.5348645"><ele>451.8</ele><time>2026-05-01T11:40:21.139Z</time></trkpt><trkpt lat="44.1080593" lon="11.5347687"><ele>453.4</ele><time>2026-05-01T11:40:22.137Z</time></trkpt><trkpt lat="44.1080092" lon="11.5346873"><ele>455.0</ele><time>2026-05-01T11:40:23.137Z</time></trkpt><trkpt lat="44.1079677" lon="11.5346183"><ele>454.3333333333333</ele><time>2026-05-01T11:40:24.138Z</time></trkpt><trkpt lat="44.1079622" lon="11.5344692"><ele>453.66666666666663</ele><time>2026-05-01T11:40:26.138Z</time></trkpt><trkpt lat="44.1079975" lon="11.5343963"><ele>453.0</ele><time>2026-05-01T11:40:27.139Z</time></trkpt><trkpt lat="44.108044" lon="11.534329"><ele>452.33333333333337</ele><time>2026-05-01T11:40:28.143Z</time></trkpt><trkpt lat="44.1080903" lon="11.5342565"><ele>451.6666666666667</ele><time>2026-05-01T11:40:29.137Z</time></trkpt><trkpt lat="44.1081365" lon="11.5341813"><ele>451.0</ele><time>2026-05-01T11:40:30.135Z</time></trkpt><trkpt lat="44.1081848" lon="11.5341057"><ele>451.00000000000006</ele><time>2026-05-01T11:40:31.135Z</time></trkpt><trkpt lat="44.1082357" lon="11.5340295"><ele>451.0</ele><time>2026-05-01T11:40:32.135Z</time></trkpt><trkpt lat="44.1082863" lon="11.5339465"><ele>451.0</ele><time>2026-05-01T11:40:33.136Z</time></trkpt><trkpt lat="44.1083312" lon="11.5338483"><ele>451.0</ele><time>2026-05-01T11:40:34.137Z</time></trkpt><trkpt lat="44.1083672" lon="11.5337398"><ele>451.00000000000006</ele><time>2026-05-01T11:40:35.137Z</time></trkpt><trkpt lat="44.1083962" lon="11.5336237"><ele>451.0</ele><time>2026-05-01T11:40:36.137Z</time></trkpt><trkpt lat="44.1084198" lon="11.5335043"><ele>452.83333333333337</ele><time>2026-05-01T11:40:37.136Z</time></trkpt><trkpt lat="44.1084342" lon="11.5333908"><ele>454.6666666666667</ele><time>2026-05-01T11:40:38.137Z</time></trkpt><trkpt lat="44.1084387" lon="11.5332757"><ele>456.5</ele><time>2026-05-01T11:40:40.137Z</time></trkpt><trkpt lat="44.1084377" lon="11.5331572"><ele>458.33333333333337</ele><time>2026-05-01T11:40:43.136Z</time></trkpt><trkpt lat="44.1084405" lon="11.5330285"><ele>460.1666666666667</ele><time>2026-05-01T11:40:46.136Z</time></trkpt><trkpt lat="44.1084375" lon="11.5329235"><ele>462.0</ele><time>2026-05-01T11:40:48.136Z</time></trkpt><trkpt lat="44.108438" lon="11.5327848"><ele>465.0</ele><time>2026-05-01T11:40:50.134Z</time></trkpt><trkpt lat="44.1084453" lon="11.532602"><ele>468.00000000000006</ele><time>2026-05-01T11:40:52.136Z</time></trkpt><trkpt lat="44.108449" lon="11.5324965"><ele>471.00000000000006</ele><time>2026-05-01T11:40:53.134Z</time></trkpt><trkpt lat="44.1084622" lon="11.532385"><ele>474.0</ele><time>2026-05-01T11:40:54.131Z</time></trkpt><trkpt lat="44.1084802" lon="11.532267"><ele>477.0</ele><time>2026-05-01T11:40:55.132Z</time></trkpt><trkpt lat="44.1084997" lon="11.5321432"><ele>480.20000000000005</ele><time>2026-05-01T11:40:56.133Z</time></trkpt><trkpt lat="44.1085212" lon="11.5320173"><ele>483.40000000000003</ele><time>2026-05-01T11:40:57.135Z</time></trkpt><trkpt lat="44.1085447" lon="11.5318868"><ele>486.59999999999997</ele><time>2026-05-01T11:40:58.135Z</time></trkpt><trkpt lat="44.1085725" lon="11.5317542"><ele>489.79999999999995</ele><time>2026-05-01T11:40:59.134Z</time></trkpt><trkpt lat="44.1085985" lon="11.5316228"><ele>493.0</ele><time>2026-05-01T11:41:00.134Z</time></trkpt><trkpt lat="44.1086298" lon="11.5314907"><ele>493.0</ele><time>2026-05-01T11:41:01.134Z</time></trkpt><trkpt lat="44.1086642" lon="11.5313598"><ele>492.99999999999994</ele><time>2026-05-01T11:41:02.133Z</time></trkpt><trkpt lat="44.1086993" lon="11.5312197"><ele>492.99999999999994</ele><time>2026-05-01T11:41:03.133Z</time></trkpt><trkpt lat="44.1087288" lon="11.5310743"><ele>493.0</ele><time>2026-05-01T11:41:04.134Z</time></trkpt><trkpt lat="44.108752" lon="11.5309238"><ele>493.0</ele><time>2026-05-01T11:41:05.134Z</time></trkpt><trkpt lat="44.1087657" lon="11.5307722"><ele>496.79999999999995</ele><time>2026-05-01T11:41:06.133Z</time></trkpt><trkpt lat="44.1087837" lon="11.5306185"><ele>500.59999999999997</ele><time>2026-05-01T11:41:07.134Z</time></trkpt><trkpt lat="44.1088008" lon="11.5304665"><ele>504.40000000000003</ele><time>2026-05-01T11:41:08.133Z</time></trkpt><trkpt lat="44.1088208" lon="11.530319"><ele>508.20000000000005</ele><time>2026-05-01T11:41:09.135Z</time></trkpt><trkpt lat="44.1088398" lon="11.5301695"><ele>512.0</ele><time>2026-05-01T11:41:10.134Z</time></trkpt><trkpt lat="44.1088558" lon="11.5300142"><ele>516.25</ele><time>2026-05-01T11:41:11.133Z</time></trkpt><trkpt lat="44.1088725" lon="11.5298632"><ele>520.5</ele><time>2026-05-01T11:41:12.134Z</time></trkpt><trkpt lat="44.1088782" lon="11.5297063"><ele>524.75</ele><time>2026-05-01T11:41:13.133Z</time></trkpt><trkpt lat="44.1088733" lon="11.5295415"><ele>529.0</ele><time>2026-05-01T11:41:14.132Z</time></trkpt><trkpt lat="44.1088662" lon="11.5293743"><ele>532.25</ele><time>2026-05-01T11:41:15.133Z</time></trkpt><trkpt lat="44.1088583" lon="11.5292068"><ele>535.5</ele><time>2026-05-01T11:41:16.133Z</time></trkpt><trkpt lat="44.1088485" lon="11.5290388"><ele>538.75</ele><time>2026-05-01T11:41:17.133Z</time></trkpt><trkpt lat="44.1088372" lon="11.5288753"><ele>542.0</ele><time>2026-05-01T11:41:18.132Z</time></trkpt><trkpt lat="44.108824" lon="11.5287195"><ele>542.0</ele><time>2026-05-01T11:41:19.131Z</time></trkpt><trkpt lat="44.1088163" lon="11.5285678"><ele>542.0</ele><time>2026-05-01T11:41:20.131Z</time></trkpt><trkpt lat="44.1088177" lon="11.5284142"><ele>542.0</ele><time>2026-05-01T11:41:21.131Z</time></trkpt><trkpt lat="44.1088073" lon="11.5282712"><ele>542.0</ele><time>2026-05-01T11:41:22.133Z</time></trkpt><trkpt lat="44.108804" lon="11.5281527"><ele>542.0</ele><time>2026-05-01T11:41:23.132Z</time></trkpt><trkpt lat="44.1088022" lon="11.5280265"><ele>542.0</ele><time>2026-05-01T11:41:24.133Z</time></trkpt><trkpt lat="44.1088297" lon="11.5279028"><ele>542.0</ele><time>2026-05-01T11:41:25.134Z</time></trkpt><trkpt lat="44.1088847" lon="11.527792"><ele>542.0</ele><time>2026-05-01T11:41:26.132Z</time></trkpt><trkpt lat="44.108923" lon="11.5276757"><ele>542.0</ele><time>2026-05-01T11:41:27.132Z</time></trkpt><trkpt lat="44.1089608" lon="11.5275495"><ele>542.0</ele><time>2026-05-01T11:41:28.132Z</time></trkpt><trkpt lat="44.109003" lon="11.5274308"><ele>542.8333333333333</ele><time>2026-05-01T11:41:29.132Z</time></trkpt><trkpt lat="44.1090338" lon="11.5273425"><ele>543.6666666666666</ele><time>2026-05-01T11:41:30.134Z</time></trkpt><trkpt lat="44.1090182" lon="11.5272038"><ele>544.5</ele><time>2026-05-01T11:41:32.132Z</time></trkpt><trkpt lat="44.1089863" lon="11.5271115"><ele>545.3333333333334</ele><time>2026-05-01T11:41:33.134Z</time></trkpt><trkpt lat="44.1089653" lon="11.5270112"><ele>546.1666666666667</ele><time>2026-05-01T11:41:34.136Z</time></trkpt><trkpt lat="44.108964" lon="11.5269017"><ele>547.0</ele><time>2026-05-01T11:41:35.133Z</time></trkpt><trkpt lat="44.1089672" lon="11.526786"><ele>547.5714285714286</ele><time>2026-05-01T11:41:36.134Z</time></trkpt><trkpt lat="44.1089738" lon="11.526673"><ele>548.1428571428571</ele><time>2026-05-01T11:41:37.133Z</time></trkpt><trkpt lat="44.1089923" lon="11.5265788"><ele>548.7142857142857</ele><time>2026-05-01T11:41:38.134Z</time></trkpt><trkpt lat="44.109031" lon="11.5265078"><ele>549.2857142857142</ele><time>2026-05-01T11:41:39.134Z</time></trkpt><trkpt lat="44.1090918" lon="11.526467"><ele>549.8571428571429</ele><time>2026-05-01T11:41:40.135Z</time></trkpt><trkpt lat="44.1091635" lon="11.5264392"><ele>550.4285714285713</ele><time>2026-05-01T11:41:41.134Z</time></trkpt><trkpt lat="44.1092265" lon="11.5263893"><ele>551.0</ele><time>2026-05-01T11:41:42.136Z</time></trkpt><trkpt lat="44.1092797" lon="11.5262283"><ele>547.6</ele><time>2026-05-01T11:41:44.132Z</time></trkpt><trkpt lat="44.1093062" lon="11.526113"><ele>544.2</ele><time>2026-05-01T11:41:45.132Z</time></trkpt><trkpt lat="44.109354" lon="11.5260103"><ele>540.8</ele><time>2026-05-01T11:41:46.133Z</time></trkpt><trkpt lat="44.1094075" lon="11.5259262"><ele>537.4</ele><time>2026-05-01T11:41:47.135Z</time></trkpt><trkpt lat="44.1094412" lon="11.5257645"><ele>534.0</ele><time>2026-05-01T11:41:49.134Z</time></trkpt><trkpt lat="44.109436" lon="11.5256547"><ele>534.0</ele><time>2026-05-01T11:41:50.134Z</time></trkpt><trkpt lat="44.1094317" lon="11.5255532"><ele>534.0</ele><time>2026-05-01T11:41:51.132Z</time></trkpt><trkpt lat="44.109506" lon="11.5254268"><ele>534.0</ele><time>2026-05-01T11:41:53.136Z</time></trkpt><trkpt lat="44.1095823" lon="11.5253903"><ele>534.0</ele><time>2026-05-01T11:41:54.134Z</time></trkpt><trkpt lat="44.1096593" lon="11.525335"><ele>534.0</ele><time>2026-05-01T11:41:55.133Z</time></trkpt><trkpt lat="44.109724" lon="11.5252565"><ele>534.0</ele><time>2026-05-01T11:41:56.133Z</time></trkpt><trkpt lat="44.1097818" lon="11.5251577"><ele>531.0</ele><time>2026-05-01T11:41:57.133Z</time></trkpt><trkpt lat="44.1098395" lon="11.5250345"><ele>528.0</ele><time>2026-05-01T11:41:58.133Z</time></trkpt><trkpt lat="44.1098893" lon="11.5249093"><ele>525.0</ele><time>2026-05-01T11:41:59.134Z</time></trkpt><trkpt lat="44.1099267" lon="11.5247927"><ele>522.0</ele><time>2026-05-01T11:42:00.133Z</time></trkpt><trkpt lat="44.1099445" lon="11.5246858"><ele>519.0</ele><time>2026-05-01T11:42:01.136Z</time></trkpt><trkpt lat="44.109944" lon="11.5245872"><ele>519.3333333333334</ele><time>2026-05-01T11:42:02.132Z</time></trkpt><trkpt lat="44.1099222" lon="11.5244975"><ele>519.6666666666666</ele><time>2026-05-01T11:42:03.133Z</time></trkpt><trkpt lat="44.109877" lon="11.52441"><ele>520.0</ele><time>2026-05-01T11:42:04.133Z</time></trkpt><trkpt lat="44.1098135" lon="11.5243267"><ele>520.3333333333333</ele><time>2026-05-01T11:42:05.133Z</time></trkpt><trkpt lat="44.1097438" lon="11.524249"><ele>520.6666666666666</ele><time>2026-05-01T11:42:06.134Z</time></trkpt><trkpt lat="44.1096757" lon="11.5241745"><ele>521.0</ele><time>2026-05-01T11:42:07.134Z</time></trkpt><trkpt lat="44.1096108" lon="11.5240912"><ele>527.2</ele><time>2026-05-01T11:42:08.131Z</time></trkpt><trkpt lat="44.109549" lon="11.5239888"><ele>533.4000000000001</ele><time>2026-05-01T11:42:09.131Z</time></trkpt><trkpt lat="44.1094807" lon="11.523872"><ele>539.6</ele><time>2026-05-01T11:42:10.134Z</time></trkpt><trkpt lat="44.1094198" lon="11.5237495"><ele>545.8000000000001</ele><time>2026-05-01T11:42:11.132Z</time></trkpt><trkpt lat="44.1093633" lon="11.5236448"><ele>552.0</ele><time>2026-05-01T11:42:12.132Z</time></trkpt><trkpt lat="44.1093022" lon="11.5235405"><ele>552.0</ele><time>2026-05-01T11:42:13.132Z</time></trkpt><trkpt lat="44.1092388" lon="11.5234437"><ele>552.0</ele><time>2026-05-01T11:42:14.133Z</time></trkpt><trkpt lat="44.1091738" lon="11.5233493"><ele>552.0</ele><time>2026-05-01T11:42:15.131Z</time></trkpt><trkpt lat="44.1091305" lon="11.523256"><ele>552.0</ele><time>2026-05-01T11:42:16.134Z</time></trkpt><trkpt lat="44.109092" lon="11.5231678"><ele>552.0</ele><time>2026-05-01T11:42:17.132Z</time></trkpt><trkpt lat="44.1090522" lon="11.5230975"><ele>552.0</ele><time>2026-05-01T11:42:18.133Z</time></trkpt><trkpt lat="44.108997" lon="11.5230292"><ele>554.2</ele><time>2026-05-01T11:42:19.132Z</time></trkpt><trkpt lat="44.1089187" lon="11.5229788"><ele>556.4000000000001</ele><time>2026-05-01T11:42:20.131Z</time></trkpt><trkpt lat="44.1088403" lon="11.522928"><ele>558.5999999999999</ele><time>2026-05-01T11:42:21.133Z</time></trkpt><trkpt lat="44.1087533" lon="11.5228702"><ele>560.8</ele><time>2026-05-01T11:42:22.131Z</time></trkpt><trkpt lat="44.1086687" lon="11.5227802"><ele>563.0</ele><time>2026-05-01T11:42:23.132Z</time></trkpt><trkpt lat="44.1085945" lon="11.5226937"><ele>563.0</ele><time>2026-05-01T11:42:24.131Z</time></trkpt><trkpt lat="44.1085337" lon="11.522603"><ele>563.0</ele><time>2026-05-01T11:42:25.131Z</time></trkpt><trkpt lat="44.1084717" lon="11.5225297"><ele>563.0</ele><time>2026-05-01T11:42:26.131Z</time></trkpt><trkpt lat="44.1084117" lon="11.5224925"><ele>563.0</ele><time>2026-05-01T11:42:27.131Z</time></trkpt><trkpt lat="44.1082703" lon="11.5225063"><ele>563.0</ele><time>2026-05-01T11:42:29.131Z</time></trkpt><trkpt lat="44.1081827" lon="11.5225427"><ele>565.8333333333333</ele><time>2026-05-01T11:42:30.131Z</time></trkpt><trkpt lat="44.1080915" lon="11.522569"><ele>568.6666666666666</ele><time>2026-05-01T11:42:31.132Z</time></trkpt><trkpt lat="44.108002" lon="11.5225627"><ele>571.5</ele><time>2026-05-01T11:42:32.13Z</time></trkpt><trkpt lat="44.1079218" lon="11.5225242"><ele>574.3333333333334</ele><time>2026-05-01T11:42:33.131Z</time></trkpt><trkpt lat="44.1078392" lon="11.5224877"><ele>577.1666666666667</ele><time>2026-05-01T11:42:34.129Z</time></trkpt><trkpt lat="44.1077562" lon="11.5224838"><ele>580.0</ele><time>2026-05-01T11:42:35.129Z</time></trkpt><trkpt lat="44.1076807" lon="11.5225232"><ele>580.0</ele><time>2026-05-01T11:42:36.132Z</time></trkpt><trkpt lat="44.1075937" lon="11.5225708"><ele>580.0</ele><time>2026-05-01T11:42:37.131Z</time></trkpt><trkpt lat="44.1075083" lon="11.5225975"><ele>580.0</ele><time>2026-05-01T11:42:38.131Z</time></trkpt><trkpt lat="44.1074208" lon="11.5225957"><ele>580.0</ele><time>2026-05-01T11:42:39.133Z</time></trkpt><trkpt lat="44.1073363" lon="11.5225665"><ele>580.0</ele><time>2026-05-01T11:42:40.131Z</time></trkpt><trkpt lat="44.1072522" lon="11.5225257"><ele>580.0</ele><time>2026-05-01T11:42:41.131Z</time></trkpt><trkpt lat="44.1071723" lon="11.5224882"><ele>583.8571428571429</ele><time>2026-05-01T11:42:42.133Z</time></trkpt><trkpt lat="44.1070962" lon="11.5224582"><ele>587.7142857142858</ele><time>2026-05-01T11:42:43.132Z</time></trkpt><trkpt lat="44.107029" lon="11.5224185"><ele>591.5714285714286</ele><time>2026-05-01T11:42:44.131Z</time></trkpt><trkpt lat="44.106965" lon="11.5223807"><ele>595.4285714285714</ele><time>2026-05-01T11:42:45.131Z</time></trkpt><trkpt lat="44.1068995" lon="11.5223312"><ele>599.2857142857142</ele><time>2026-05-01T11:42:46.129Z</time></trkpt><trkpt lat="44.1068397" lon="11.5222792"><ele>603.1428571428571</ele><time>2026-05-01T11:42:47.13Z</time></trkpt><trkpt lat="44.1067848" lon="11.5222272"><ele>607.0</ele><time>2026-05-01T11:42:48.131Z</time></trkpt><trkpt lat="44.1067033" lon="11.5221292"><ele>607.0</ele><time>2026-05-01T11:42:50.13Z</time></trkpt><trkpt lat="44.106625" lon="11.5221255"><ele>607.0</ele><time>2026-05-01T11:42:52.132Z</time></trkpt><trkpt lat="44.1065937" lon="11.5222467"><ele>607.0</ele><time>2026-05-01T11:42:54.132Z</time></trkpt><trkpt lat="44.1065808" lon="11.5223822"><ele>607.0</ele><time>2026-05-01T11:42:56.13Z</time></trkpt><trkpt lat="44.1065367" lon="11.5224935"><ele>607.0</ele><time>2026-05-01T11:43:05.132Z</time></trkpt><trkpt lat="44.1065075" lon="11.5226375"><ele>607.0</ele><time>2026-05-01T11:43:07.131Z</time></trkpt><trkpt lat="44.1065433" lon="11.5227257"><ele>607.0</ele><time>2026-05-01T11:43:09.13Z</time></trkpt><trkpt lat="44.1066262" lon="11.5227617"><ele>607.0</ele><time>2026-05-01T11:43:11.132Z</time></trkpt><trkpt lat="44.1067198" lon="11.5228147"><ele>607.0</ele><time>2026-05-01T11:43:13.13Z</time></trkpt><trkpt lat="44.1068437" lon="11.5228288"><ele>607.0</ele><time>2026-05-01T11:43:15.131Z</time></trkpt><trkpt lat="44.1069198" lon="11.522914"><ele>610.6666666666667</ele><time>2026-05-01T11:43:17.132Z</time></trkpt><trkpt lat="44.1069468" lon="11.5229942"><ele>614.3333333333334</ele><time>2026-05-01T11:43:18.132Z</time></trkpt><trkpt lat="44.1069907" lon="11.5231023"><ele>618.0</ele><time>2026-05-01T11:43:19.133Z</time></trkpt><trkpt lat="44.1070293" lon="11.5231875"><ele>621.6666666666666</ele><time>2026-05-01T11:43:20.132Z</time></trkpt><trkpt lat="44.1071372" lon="11.5232675"><ele>625.3333333333333</ele><time>2026-05-01T11:43:22.13Z</time></trkpt><trkpt lat="44.1072038" lon="11.5233"><ele>629.0</ele><time>2026-05-01T11:43:23.13Z</time></trkpt><trkpt lat="44.1072673" lon="11.523327"><ele>629.0</ele><time>2026-05-01T11:43:24.13Z</time></trkpt><trkpt lat="44.1073182" lon="11.5233805"><ele>629.0</ele><time>2026-05-01T11:43:25.133Z</time></trkpt><trkpt lat="44.1073788" lon="11.5234345"><ele>629.0</ele><time>2026-05-01T11:43:26.132Z</time></trkpt><trkpt lat="44.1074427" lon="11.523516"><ele>629.0</ele><time>2026-05-01T11:43:28.133Z</time></trkpt><trkpt lat="44.1074312" lon="11.5236313"><ele>629.0</ele><time>2026-05-01T11:43:30.135Z</time></trkpt><trkpt lat="44.1073737" lon="11.5237297"><ele>629.0</ele><time>2026-05-01T11:43:32.136Z</time></trkpt><trkpt lat="44.1072768" lon="11.5237347"><ele>633.6666666666666</ele><time>2026-05-01T11:43:34.134Z</time></trkpt><trkpt lat="44.1072338" lon="11.5238105"><ele>638.3333333333333</ele><time>2026-05-01T11:43:36.134Z</time></trkpt><trkpt lat="44.1072592" lon="11.5239767"><ele>643.0</ele><time>2026-05-01T11:43:38.135Z</time></trkpt><trkpt lat="44.1072757" lon="11.5240835"><ele>647.6666666666666</ele><time>2026-05-01T11:43:39.135Z</time></trkpt><trkpt lat="44.1072852" lon="11.5241882"><ele>652.3333333333334</ele><time>2026-05-01T11:43:40.131Z</time></trkpt><trkpt lat="44.107282" lon="11.5242872"><ele>657.0</ele><time>2026-05-01T11:43:41.132Z</time></trkpt><trkpt lat="44.1072583" lon="11.524395"><ele>657.0</ele><time>2026-05-01T11:43:42.133Z</time></trkpt><trkpt lat="44.1072172" lon="11.5245065"><ele>657.0</ele><time>2026-05-01T11:43:43.136Z</time></trkpt><trkpt lat="44.1071725" lon="11.5246165"><ele>657.0</ele><time>2026-05-01T11:43:44.134Z</time></trkpt><trkpt lat="44.1071313" lon="11.5247292"><ele>657.0</ele><time>2026-05-01T11:43:45.132Z</time></trkpt><trkpt lat="44.1071088" lon="11.5248193"><ele>657.0</ele><time>2026-05-01T11:43:46.133Z</time></trkpt><trkpt lat="44.1070693" lon="11.5249103"><ele>657.0</ele><time>2026-05-01T11:43:48.134Z</time></trkpt><trkpt lat="44.106984" lon="11.5249103"><ele>657.1666666666666</ele><time>2026-05-01T11:43:51.135Z</time></trkpt><trkpt lat="44.106927" lon="11.5250358"><ele>657.3333333333334</ele><time>2026-05-01T11:43:53.134Z</time></trkpt><trkpt lat="44.1069087" lon="11.525145"><ele>657.5</ele><time>2026-05-01T11:43:54.135Z</time></trkpt><trkpt lat="44.1068765" lon="11.5252407"><ele>657.6666666666667</ele><time>2026-05-01T11:43:55.136Z</time></trkpt><trkpt lat="44.10683" lon="11.525305"><ele>657.8333333333334</ele><time>2026-05-01T11:43:56.134Z</time></trkpt><trkpt lat="44.1067352" lon="11.5253385"><ele>658.0</ele><time>2026-05-01T11:43:58.136Z</time></trkpt><trkpt lat="44.106623" lon="11.5253143"><ele>653.4</ele><time>2026-05-01T11:44:00.136Z</time></trkpt><trkpt lat="44.1065437" lon="11.5252357"><ele>648.8</ele><time>2026-05-01T11:44:02.135Z</time></trkpt><trkpt lat="44.106509" lon="11.525149"><ele>644.2</ele><time>2026-05-01T11:44:04.136Z</time></trkpt><trkpt lat="44.1064602" lon="11.525051"><ele>639.6</ele><time>2026-05-01T11:44:06.135Z</time></trkpt><trkpt lat="44.1064037" lon="11.524922"><ele>635.0</ele><time>2026-05-01T11:44:08.135Z</time></trkpt><trkpt lat="44.1063417" lon="11.5247978"><ele>635.0</ele><time>2026-05-01T11:44:10.135Z</time></trkpt><trkpt lat="44.1063168" lon="11.5246607"><ele>635.0</ele><time>2026-05-01T11:44:12.134Z</time></trkpt><trkpt lat="44.1063013" lon="11.5245675"><ele>635.0</ele><time>2026-05-01T11:44:13.134Z</time></trkpt><trkpt lat="44.1062943" lon="11.5244752"><ele>635.0</ele><time>2026-05-01T11:44:14.136Z</time></trkpt><trkpt lat="44.1062672" lon="11.5243257"><ele>635.0</ele><time>2026-05-01T11:44:16.135Z</time></trkpt><trkpt lat="44.1061823" lon="11.5242005"><ele>639.4</ele><time>2026-05-01T11:44:18.135Z</time></trkpt><trkpt lat="44.1060897" lon="11.5240757"><ele>643.8</ele><time>2026-05-01T11:44:20.136Z</time></trkpt><trkpt lat="44.1060427" lon="11.524003"><ele>648.2</ele><time>2026-05-01T11:44:21.136Z</time></trkpt><trkpt lat="44.1059857" lon="11.5238583"><ele>652.6</ele><time>2026-05-01T11:44:23.136Z</time></trkpt><trkpt lat="44.1059235" lon="11.523744"><ele>657.0</ele><time>2026-05-01T11:44:25.137Z</time></trkpt><trkpt lat="44.1058672" lon="11.5235857"><ele>657.4000000000001</ele><time>2026-05-01T11:44:27.136Z</time></trkpt><trkpt lat="44.1058157" lon="11.523451"><ele>657.8000000000001</ele><time>2026-05-01T11:44:29.137Z</time></trkpt><trkpt lat="44.1057872" lon="11.5233003"><ele>658.2</ele><time>2026-05-01T11:44:31.137Z</time></trkpt><trkpt lat="44.1057863" lon="11.5232093"><ele>658.6</ele><time>2026-05-01T11:44:32.136Z</time></trkpt><trkpt lat="44.10578" lon="11.5231188"><ele>659.0</ele><time>2026-05-01T11:44:33.136Z</time></trkpt><trkpt lat="44.1057532" lon="11.5229573"><ele>657.2</ele><time>2026-05-01T11:44:35.134Z</time></trkpt><trkpt lat="44.1057312" lon="11.5228747"><ele>655.4000000000001</ele><time>2026-05-01T11:44:36.132Z</time></trkpt><trkpt lat="44.1057063" lon="11.5227825"><ele>653.6</ele><time>2026-05-01T11:44:37.133Z</time></trkpt><trkpt lat="44.1056932" lon="11.5226195"><ele>651.8</ele><time>2026-05-01T11:44:39.158Z</time></trkpt><trkpt lat="44.1056955" lon="11.5224672"><ele>650.0</ele><time>2026-05-01T11:44:41.156Z</time></trkpt><trkpt lat="44.1056615" lon="11.5223065"><ele>650.0</ele><time>2026-05-01T11:44:43.136Z</time></trkpt><trkpt lat="44.1056573" lon="11.522213"><ele>650.0</ele><time>2026-05-01T11:44:44.136Z</time></trkpt><trkpt lat="44.1056502" lon="11.522124"><ele>650.0</ele><time>2026-05-01T11:44:45.136Z</time></trkpt><trkpt lat="44.1056395" lon="11.5219527"><ele>650.0</ele><time>2026-05-01T11:44:47.135Z</time></trkpt><trkpt lat="44.1056385" lon="11.5218622"><ele>650.0</ele><time>2026-05-01T11:44:48.135Z</time></trkpt><trkpt lat="44.10566" lon="11.5217112"><ele>650.0</ele><time>2026-05-01T11:44:50.135Z</time></trkpt><trkpt lat="44.105618" lon="11.5215612"><ele>654.3333333333333</ele><time>2026-05-01T11:44:52.135Z</time></trkpt><trkpt lat="44.1055758" lon="11.5214752"><ele>658.6666666666666</ele><time>2026-05-01T11:44:53.136Z</time></trkpt><trkpt lat="44.1055322" lon="11.5213942"><ele>663.0</ele><time>2026-05-01T11:44:54.134Z</time></trkpt><trkpt lat="44.1054915" lon="11.5213122"><ele>667.3333333333334</ele><time>2026-05-01T11:44:55.134Z</time></trkpt><trkpt lat="44.1054348" lon="11.5212285"><ele>671.6666666666667</ele><time>2026-05-01T11:44:56.134Z</time></trkpt><trkpt lat="44.1053753" lon="11.5211252"><ele>676.0</ele><time>2026-05-01T11:44:57.135Z</time></trkpt><trkpt lat="44.1053392" lon="11.5210408"><ele>678.4</ele><time>2026-05-01T11:44:58.134Z</time></trkpt><trkpt lat="44.1052557" lon="11.520915"><ele>680.8</ele><time>2026-05-01T11:45:00.148Z</time></trkpt><trkpt lat="44.1051737" lon="11.5208252"><ele>683.1999999999999</ele><time>2026-05-01T11:45:02.133Z</time></trkpt><trkpt lat="44.1050805" lon="11.5207343"><ele>685.5999999999999</ele><time>2026-05-01T11:45:04.134Z</time></trkpt><trkpt lat="44.1050165" lon="11.5206443"><ele>688.0</ele><time>2026-05-01T11:45:06.133Z</time></trkpt><trkpt lat="44.1049668" lon="11.5205862"><ele>687.4</ele><time>2026-05-01T11:45:08.131Z</time></trkpt><trkpt lat="44.1048935" lon="11.520483"><ele>686.8</ele><time>2026-05-01T11:45:11.133Z</time></trkpt><trkpt lat="44.1047885" lon="11.5203365"><ele>686.2</ele><time>2026-05-01T11:45:13.132Z</time></trkpt><trkpt lat="44.1047323" lon="11.5202515"><ele>685.6</ele><time>2026-05-01T11:45:14.131Z</time></trkpt><trkpt lat="44.1046825" lon="11.5201868"><ele>685.0</ele><time>2026-05-01T11:45:15.131Z</time></trkpt><trkpt lat="44.1046223" lon="11.5201488"><ele>685.0</ele><time>2026-05-01T11:45:16.131Z</time></trkpt><trkpt lat="44.1045548" lon="11.5200508"><ele>685.0</ele><time>2026-05-01T11:45:18.133Z</time></trkpt><trkpt lat="44.104493" lon="11.5199437"><ele>685.0</ele><time>2026-05-01T11:45:20.134Z</time></trkpt><trkpt lat="44.1044313" lon="11.5197962"><ele>685.0</ele><time>2026-05-01T11:45:22.134Z</time></trkpt><trkpt lat="44.1043958" lon="11.5197228"><ele>685.0</ele><time>2026-05-01T11:45:23.133Z</time></trkpt><trkpt lat="44.1043657" lon="11.519644"><ele>685.0</ele><time>2026-05-01T11:45:24.133Z</time></trkpt><trkpt lat="44.1042917" lon="11.5195043"><ele>685.8</ele><time>2026-05-01T11:45:26.132Z</time></trkpt><trkpt lat="44.1042025" lon="11.5193872"><ele>686.6</ele><time>2026-05-01T11:45:28.135Z</time></trkpt><trkpt lat="44.1041213" lon="11.5192685"><ele>687.4000000000001</ele><time>2026-05-01T11:45:30.134Z</time></trkpt><trkpt lat="44.1040172" lon="11.5192093"><ele>688.2</ele><time>2026-05-01T11:45:32.135Z</time></trkpt><trkpt lat="44.1039435" lon="11.5191855"><ele>689.0</ele><time>2026-05-01T11:45:33.135Z</time></trkpt><trkpt lat="44.1038778" lon="11.5191585"><ele>689.2</ele><time>2026-05-01T11:45:34.134Z</time></trkpt><trkpt lat="44.1037813" lon="11.5190783"><ele>689.4000000000001</ele><time>2026-05-01T11:45:36.138Z</time></trkpt><trkpt lat="44.1036718" lon="11.5189917"><ele>689.6</ele><time>2026-05-01T11:45:38.134Z</time></trkpt><trkpt lat="44.1035915" lon="11.5188907"><ele>689.8</ele><time>2026-05-01T11:45:40.136Z</time></trkpt><trkpt lat="44.1035603" lon="11.518761"><ele>690.0</ele><time>2026-05-01T11:45:42.135Z</time></trkpt><trkpt lat="44.1035275" lon="11.5186343"><ele>692.4</ele><time>2026-05-01T11:45:44.134Z</time></trkpt><trkpt lat="44.1034763" lon="11.5184908"><ele>694.8</ele><time>2026-05-01T11:45:46.133Z</time></trkpt><trkpt lat="44.1034052" lon="11.5183242"><ele>697.2</ele><time>2026-05-01T11:45:48.133Z</time></trkpt><trkpt lat="44.103359" lon="11.5182233"><ele>699.6</ele><time>2026-05-01T11:45:49.134Z</time></trkpt><trkpt lat="44.1033183" lon="11.5181368"><ele>702.0</ele><time>2026-05-01T11:45:50.133Z</time></trkpt><trkpt lat="44.1032538" lon="11.5179715"><ele>702.2857142857143</ele><time>2026-05-01T11:45:52.134Z</time></trkpt><trkpt lat="44.1032122" lon="11.517894"><ele>702.5714285714286</ele><time>2026-05-01T11:45:53.133Z</time></trkpt><trkpt lat="44.1031737" lon="11.5178237"><ele>702.8571428571429</ele><time>2026-05-01T11:45:54.133Z</time></trkpt><trkpt lat="44.1031323" lon="11.5177547"><ele>703.1428571428571</ele><time>2026-05-01T11:45:55.136Z</time></trkpt><trkpt lat="44.103087" lon="11.5176927"><ele>703.4285714285714</ele><time>2026-05-01T11:45:56.134Z</time></trkpt><trkpt lat="44.1030372" lon="11.5176288"><ele>703.7142857142858</ele><time>2026-05-01T11:45:57.138Z</time></trkpt><trkpt lat="44.1029893" lon="11.5175543"><ele>704.0</ele><time>2026-05-01T11:45:58.135Z</time></trkpt><trkpt lat="44.1029438" lon="11.5174855"><ele>704.0</ele><time>2026-05-01T11:45:59.134Z</time></trkpt><trkpt lat="44.1029042" lon="11.5174162"><ele>704.0</ele><time>2026-05-01T11:46:00.136Z</time></trkpt><trkpt lat="44.1028573" lon="11.5173472"><ele>704.0</ele><time>2026-05-01T11:46:01.135Z</time></trkpt><trkpt lat="44.102796" lon="11.5172905"><ele>704.0</ele><time>2026-05-01T11:46:02.136Z</time></trkpt><trkpt lat="44.1027358" lon="11.5172478"><ele>704.0</ele><time>2026-05-01T11:46:03.136Z</time></trkpt><trkpt lat="44.1026343" lon="11.5171742"><ele>704.0</ele><time>2026-05-01T11:46:05.134Z</time></trkpt><trkpt lat="44.1025432" lon="11.5170805"><ele>705.0</ele><time>2026-05-01T11:46:07.134Z</time></trkpt><trkpt lat="44.1024722" lon="11.5169827"><ele>706.0</ele><time>2026-05-01T11:46:09.136Z</time></trkpt><trkpt lat="44.1023915" lon="11.5168573"><ele>707.0</ele><time>2026-05-01T11:46:11.136Z</time></trkpt><trkpt lat="44.1023477" lon="11.5167887"><ele>708.0</ele><time>2026-05-01T11:46:12.134Z</time></trkpt><trkpt lat="44.1022768" lon="11.5166728"><ele>709.0</ele><time>2026-05-01T11:46:14.134Z</time></trkpt><trkpt lat="44.1022437" lon="11.5165553"><ele>708.8333333333334</ele><time>2026-05-01T11:46:16.136Z</time></trkpt><trkpt lat="44.1022318" lon="11.516429"><ele>708.6666666666667</ele><time>2026-05-01T11:46:18.136Z</time></trkpt><trkpt lat="44.1022073" lon="11.5162993"><ele>708.5</ele><time>2026-05-01T11:46:20.137Z</time></trkpt><trkpt lat="44.1021783" lon="11.5162002"><ele>708.3333333333334</ele><time>2026-05-01T11:46:21.138Z</time></trkpt><trkpt lat="44.1021495" lon="11.5160958"><ele>708.1666666666666</ele><time>2026-05-01T11:46:22.136Z</time></trkpt><trkpt lat="44.102128" lon="11.516"><ele>708.0</ele><time>2026-05-01T11:46:23.136Z</time></trkpt><trkpt lat="44.1021095" lon="11.5159102"><ele>708.0</ele><time>2026-05-01T11:46:24.135Z</time></trkpt><trkpt lat="44.1020752" lon="11.5157588"><ele>708.0</ele><time>2026-05-01T11:46:26.136Z</time></trkpt><trkpt lat="44.1020847" lon="11.5156173"><ele>708.0</ele><time>2026-05-01T11:46:28.137Z</time></trkpt><trkpt lat="44.1020805" lon="11.515431"><ele>708.0</ele><time>2026-05-01T11:46:30.134Z</time></trkpt><trkpt lat="44.1020555" lon="11.515334"><ele>708.0</ele><time>2026-05-01T11:46:31.148Z</time></trkpt><trkpt lat="44.1020123" lon="11.5152225"><ele>708.0</ele><time>2026-05-01T11:46:32.144Z</time></trkpt><trkpt lat="44.1019712" lon="11.5151102"><ele>708.0</ele><time>2026-05-01T11:46:33.147Z</time></trkpt><trkpt lat="44.1019397" lon="11.5150043"><ele>708.0</ele><time>2026-05-01T11:46:34.148Z</time></trkpt><trkpt lat="44.1019193" lon="11.5148958"><ele>708.0</ele><time>2026-05-01T11:46:35.136Z</time></trkpt><trkpt lat="44.1019087" lon="11.5147915"><ele>708.0</ele><time>2026-05-01T11:46:36.134Z</time></trkpt><trkpt lat="44.1019095" lon="11.5146955"><ele>708.0</ele><time>2026-05-01T11:46:37.135Z</time></trkpt><trkpt lat="44.1019242" lon="11.5146025"><ele>707.6666666666666</ele><time>2026-05-01T11:46:38.134Z</time></trkpt><trkpt lat="44.1019503" lon="11.5144963"><ele>707.3333333333334</ele><time>2026-05-01T11:46:39.134Z</time></trkpt><trkpt lat="44.1019647" lon="11.5143835"><ele>707.0</ele><time>2026-05-01T11:46:40.135Z</time></trkpt><trkpt lat="44.101975" lon="11.5142558"><ele>706.6666666666667</ele><time>2026-05-01T11:46:41.137Z</time></trkpt><trkpt lat="44.1019798" lon="11.5141388"><ele>706.3333333333334</ele><time>2026-05-01T11:46:42.136Z</time></trkpt><trkpt lat="44.1019662" lon="11.5140137"><ele>706.0</ele><time>2026-05-01T11:46:43.136Z</time></trkpt><trkpt lat="44.101946" lon="11.5138753"><ele>706.0</ele><time>2026-05-01T11:46:44.136Z</time></trkpt><trkpt lat="44.101928" lon="11.5137412"><ele>706.0</ele><time>2026-05-01T11:46:45.137Z</time></trkpt><trkpt lat="44.1019248" lon="11.5136163"><ele>706.0</ele><time>2026-05-01T11:46:46.136Z</time></trkpt><trkpt lat="44.101935" lon="11.5134892"><ele>706.0</ele><time>2026-05-01T11:46:47.136Z</time></trkpt><trkpt lat="44.1019438" lon="11.5133568"><ele>706.0</ele><time>2026-05-01T11:46:48.136Z</time></trkpt><trkpt lat="44.1019477" lon="11.5132383"><ele>706.8333333333334</ele><time>2026-05-01T11:46:49.137Z</time></trkpt><trkpt lat="44.1019345" lon="11.5131325"><ele>707.6666666666667</ele><time>2026-05-01T11:46:50.135Z</time></trkpt><trkpt lat="44.1019112" lon="11.5130373"><ele>708.5</ele><time>2026-05-01T11:46:51.135Z</time></trkpt><trkpt lat="44.1018743" lon="11.5129322"><ele>709.3333333333334</ele><time>2026-05-01T11:46:52.136Z</time></trkpt><trkpt lat="44.1018388" lon="11.5128283"><ele>710.1666666666666</ele><time>2026-05-01T11:46:53.146Z</time></trkpt><trkpt lat="44.1018022" lon="11.5127335"><ele>711.0</ele><time>2026-05-01T11:46:54.145Z</time></trkpt><trkpt lat="44.1017497" lon="11.5126517"><ele>712.8333333333334</ele><time>2026-05-01T11:46:55.146Z</time></trkpt><trkpt lat="44.1016982" lon="11.512568"><ele>714.6666666666666</ele><time>2026-05-01T11:46:56.145Z</time></trkpt><trkpt lat="44.1016557" lon="11.512484"><ele>716.5</ele><time>2026-05-01T11:46:57.147Z</time></trkpt><trkpt lat="44.1016478" lon="11.5123472"><ele>718.3333333333333</ele><time>2026-05-01T11:46:59.151Z</time></trkpt><trkpt lat="44.1016557" lon="11.512205"><ele>720.1666666666666</ele><time>2026-05-01T11:47:01.135Z</time></trkpt><trkpt lat="44.1016583" lon="11.5121095"><ele>722.0</ele><time>2026-05-01T11:47:02.133Z</time></trkpt><trkpt lat="44.1016605" lon="11.5119968"><ele>721.5</ele><time>2026-05-01T11:47:03.133Z</time></trkpt><trkpt lat="44.1016583" lon="11.5119017"><ele>721.0</ele><time>2026-05-01T11:47:04.134Z</time></trkpt><trkpt lat="44.1016118" lon="11.5117278"><ele>720.5</ele><time>2026-05-01T11:47:06.136Z</time></trkpt><trkpt lat="44.1015802" lon="11.5116267"><ele>720.0</ele><time>2026-05-01T11:47:07.137Z</time></trkpt><trkpt lat="44.1015438" lon="11.5115253"><ele>719.5</ele><time>2026-05-01T11:47:08.136Z</time></trkpt><trkpt lat="44.101512" lon="11.5114168"><ele>719.0</ele><time>2026-05-01T11:47:09.136Z</time></trkpt><trkpt lat="44.1014905" lon="11.511317"><ele>723.0</ele><time>2026-05-01T11:47:10.136Z</time></trkpt><trkpt lat="44.1014692" lon="11.511229"><ele>727.0</ele><time>2026-05-01T11:47:11.136Z</time></trkpt><trkpt lat="44.1014297" lon="11.5110937"><ele>731.0</ele><time>2026-05-01T11:47:13.136Z</time></trkpt><trkpt lat="44.1013643" lon="11.5109753"><ele>735.0</ele><time>2026-05-01T11:47:15.136Z</time></trkpt><trkpt lat="44.1013088" lon="11.5109283"><ele>739.0</ele><time>2026-05-01T11:47:16.136Z</time></trkpt><trkpt lat="44.1012488" lon="11.5108773"><ele>743.0</ele><time>2026-05-01T11:47:17.135Z</time></trkpt><trkpt lat="44.1011817" lon="11.5108222"><ele>743.0</ele><time>2026-05-01T11:47:18.136Z</time></trkpt><trkpt lat="44.1011277" lon="11.510765"><ele>743.0</ele><time>2026-05-01T11:47:19.136Z</time></trkpt><trkpt lat="44.1010673" lon="11.5107045"><ele>743.0</ele><time>2026-05-01T11:47:20.136Z</time></trkpt><trkpt lat="44.1009987" lon="11.5105837"><ele>743.0</ele><time>2026-05-01T11:47:22.135Z</time></trkpt><trkpt lat="44.1009787" lon="11.5104012"><ele>743.0</ele><time>2026-05-01T11:47:24.135Z</time></trkpt><trkpt lat="44.1009823" lon="11.5103087"><ele>744.2</ele><time>2026-05-01T11:47:25.135Z</time></trkpt><trkpt lat="44.1009875" lon="11.510195"><ele>745.4</ele><time>2026-05-01T11:47:26.133Z</time></trkpt><trkpt lat="44.1009987" lon="11.5100885"><ele>746.6</ele><time>2026-05-01T11:47:27.134Z</time></trkpt><trkpt lat="44.1010525" lon="11.5099362"><ele>747.8000000000001</ele><time>2026-05-01T11:47:29.132Z</time></trkpt><trkpt lat="44.1010902" lon="11.5098505"><ele>749.0</ele><time>2026-05-01T11:47:30.134Z</time></trkpt><trkpt lat="44.1011272" lon="11.509706"><ele>749.0</ele><time>2026-05-01T11:47:32.134Z</time></trkpt><trkpt lat="44.1011335" lon="11.5095265"><ele>749.0</ele><time>2026-05-01T11:47:34.133Z</time></trkpt><trkpt lat="44.1011363" lon="11.5094317"><ele>749.0</ele><time>2026-05-01T11:47:35.134Z</time></trkpt><trkpt lat="44.1011435" lon="11.5093328"><ele>749.0</ele><time>2026-05-01T11:47:36.135Z</time></trkpt><trkpt lat="44.1011618" lon="11.5092055"><ele>749.0</ele><time>2026-05-01T11:47:37.135Z</time></trkpt><trkpt lat="44.1011812" lon="11.5090737"><ele>749.0</ele><time>2026-05-01T11:47:38.135Z</time></trkpt><trkpt lat="44.1012005" lon="11.508942"><ele>749.0</ele><time>2026-05-01T11:47:39.135Z</time></trkpt><trkpt lat="44.1012215" lon="11.5088183"><ele>749.0</ele><time>2026-05-01T11:47:40.135Z</time></trkpt><trkpt lat="44.1012458" lon="11.5087018"><ele>749.0</ele><time>2026-05-01T11:47:41.135Z</time></trkpt><trkpt lat="44.101278" lon="11.5085903"><ele>749.0</ele><time>2026-05-01T11:47:42.135Z</time></trkpt><trkpt lat="44.1013212" lon="11.5084925"><ele>749.0</ele><time>2026-05-01T11:47:43.135Z</time></trkpt><trkpt lat="44.1013582" lon="11.5083872"><ele>748.8333333333333</ele><time>2026-05-01T11:47:44.133Z</time></trkpt><trkpt lat="44.1013883" lon="11.5082823"><ele>748.6666666666666</ele><time>2026-05-01T11:47:45.135Z</time></trkpt><trkpt lat="44.1014223" lon="11.508172"><ele>748.5</ele><time>2026-05-01T11:47:46.136Z</time></trkpt><trkpt lat="44.101465" lon="11.5080805"><ele>748.3333333333334</ele><time>2026-05-01T11:47:47.136Z</time></trkpt><trkpt lat="44.1015477" lon="11.5079693"><ele>748.1666666666667</ele><time>2026-05-01T11:47:49.136Z</time></trkpt><trkpt lat="44.1016132" lon="11.5078978"><ele>748.0</ele><time>2026-05-01T11:47:51.133Z</time></trkpt><trkpt lat="44.1015713" lon="11.5077797"><ele>745.4</ele><time>2026-05-01T11:47:53.131Z</time></trkpt><trkpt lat="44.1015315" lon="11.5076845"><ele>742.8</ele><time>2026-05-01T11:47:54.134Z</time></trkpt><trkpt lat="44.101487" lon="11.5075772"><ele>740.2</ele><time>2026-05-01T11:47:55.135Z</time></trkpt><trkpt lat="44.1014382" lon="11.5074645"><ele>737.6</ele><time>2026-05-01T11:47:56.136Z</time></trkpt><trkpt lat="44.1013937" lon="11.5073462"><ele>735.0</ele><time>2026-05-01T11:47:57.135Z</time></trkpt><trkpt lat="44.1013585" lon="11.5072205"><ele>735.0</ele><time>2026-05-01T11:47:58.136Z</time></trkpt><trkpt lat="44.1013153" lon="11.507101"><ele>735.0</ele><time>2026-05-01T11:47:59.133Z</time></trkpt><trkpt lat="44.1012702" lon="11.5070058"><ele>735.0</ele><time>2026-05-01T11:48:00.134Z</time></trkpt><trkpt lat="44.1012182" lon="11.5069093"><ele>735.0</ele><time>2026-05-01T11:48:01.136Z</time></trkpt><trkpt lat="44.1011493" lon="11.506811"><ele>735.0</ele><time>2026-05-01T11:48:02.134Z</time></trkpt><trkpt lat="44.1010835" lon="11.5067148"><ele>734.3333333333334</ele><time>2026-05-01T11:48:03.134Z</time></trkpt><trkpt lat="44.1010275" lon="11.5066235"><ele>733.6666666666666</ele><time>2026-05-01T11:48:04.134Z</time></trkpt><trkpt lat="44.1009893" lon="11.5065195"><ele>733.0</ele><time>2026-05-01T11:48:05.133Z</time></trkpt><trkpt lat="44.1009752" lon="11.5064087"><ele>732.3333333333333</ele><time>2026-05-01T11:48:06.135Z</time></trkpt><trkpt lat="44.1009875" lon="11.5062948"><ele>731.6666666666666</ele><time>2026-05-01T11:48:07.136Z</time></trkpt><trkpt lat="44.1010118" lon="11.5061652"><ele>731.0</ele><time>2026-05-01T11:48:08.134Z</time></trkpt><trkpt lat="44.1010397" lon="11.5060187"><ele>729.0</ele><time>2026-05-01T11:48:09.135Z</time></trkpt><trkpt lat="44.1010727" lon="11.5058525"><ele>727.0</ele><time>2026-05-01T11:48:10.137Z</time></trkpt><trkpt lat="44.1011087" lon="11.5056695"><ele>725.0</ele><time>2026-05-01T11:48:11.136Z</time></trkpt><trkpt lat="44.1011472" lon="11.5054917"><ele>723.0</ele><time>2026-05-01T11:48:12.136Z</time></trkpt><trkpt lat="44.1011877" lon="11.5053225"><ele>719.75</ele><time>2026-05-01T11:48:13.137Z</time></trkpt><trkpt lat="44.1012262" lon="11.50516"><ele>716.5</ele><time>2026-05-01T11:48:14.136Z</time></trkpt><trkpt lat="44.1012625" lon="11.5050045"><ele>713.25</ele><time>2026-05-01T11:48:15.135Z</time></trkpt><trkpt lat="44.1012955" lon="11.504855"><ele>710.0</ele><time>2026-05-01T11:48:16.134Z</time></trkpt><trkpt lat="44.101328" lon="11.504711"><ele>710.0</ele><time>2026-05-01T11:48:17.135Z</time></trkpt><trkpt lat="44.1013565" lon="11.5045797"><ele>710.0</ele><time>2026-05-01T11:48:18.137Z</time></trkpt><trkpt lat="44.1013757" lon="11.504475"><ele>710.0</ele><time>2026-05-01T11:48:19.137Z</time></trkpt><trkpt lat="44.1013808" lon="11.5043772"><ele>710.0</ele><time>2026-05-01T11:48:20.136Z</time></trkpt><trkpt lat="44.101356" lon="11.5042928"><ele>710.0</ele><time>2026-05-01T11:48:21.136Z</time></trkpt><trkpt lat="44.1013337" lon="11.5041255"><ele>710.0</ele><time>2026-05-01T11:48:23.136Z</time></trkpt><trkpt lat="44.1013617" lon="11.5040342"><ele>709.0</ele><time>2026-05-01T11:48:24.136Z</time></trkpt><trkpt lat="44.101394" lon="11.5039508"><ele>708.0</ele><time>2026-05-01T11:48:25.136Z</time></trkpt><trkpt lat="44.1014083" lon="11.5038628"><ele>707.0</ele><time>2026-05-01T11:48:26.134Z</time></trkpt><trkpt lat="44.10142" lon="11.5037307"><ele>706.0</ele><time>2026-05-01T11:48:28.135Z</time></trkpt><trkpt lat="44.1015062" lon="11.5036967"><ele>705.0</ele><time>2026-05-01T11:48:30.135Z</time></trkpt><trkpt lat="44.1016192" lon="11.503705"><ele>704.0</ele><time>2026-05-01T11:48:32.133Z</time></trkpt><trkpt lat="44.1016865" lon="11.503672"><ele>704.0</ele><time>2026-05-01T11:48:33.135Z</time></trkpt><trkpt lat="44.1017467" lon="11.503618"><ele>704.0</ele><time>2026-05-01T11:48:34.134Z</time></trkpt><trkpt lat="44.1018062" lon="11.503568"><ele>704.0</ele><time>2026-05-01T11:48:35.133Z</time></trkpt><trkpt lat="44.1018572" lon="11.503494"><ele>704.0</ele><time>2026-05-01T11:48:36.136Z</time></trkpt><trkpt lat="44.1019057" lon="11.503425"><ele>704.0</ele><time>2026-05-01T11:48:37.133Z</time></trkpt><trkpt lat="44.1020068" lon="11.503335"><ele>704.0</ele><time>2026-05-01T11:48:39.132Z</time></trkpt><trkpt lat="44.1020527" lon="11.5032082"><ele>704.0</ele><time>2026-05-01T11:48:41.132Z</time></trkpt><trkpt lat="44.101968" lon="11.5030897"><ele>704.0</ele><time>2026-05-01T11:48:43.133Z</time></trkpt><trkpt lat="44.1018892" lon="11.5030235"><ele>704.0</ele><time>2026-05-01T11:48:44.134Z</time></trkpt><trkpt lat="44.1018293" lon="11.5029673"><ele>704.0</ele><time>2026-05-01T11:48:45.133Z</time></trkpt><trkpt lat="44.1017705" lon="11.5028025"><ele>704.0</ele><time>2026-05-01T11:48:47.134Z</time></trkpt><trkpt lat="44.1017573" lon="11.5026875"><ele>704.4000000000001</ele><time>2026-05-01T11:48:48.135Z</time></trkpt><trkpt lat="44.101754" lon="11.502559"><ele>704.8</ele><time>2026-05-01T11:48:49.133Z</time></trkpt><trkpt lat="44.1017425" lon="11.5024417"><ele>705.2</ele><time>2026-05-01T11:48:50.133Z</time></trkpt><trkpt lat="44.1017137" lon="11.5023288"><ele>705.5999999999999</ele><time>2026-05-01T11:48:51.134Z</time></trkpt><trkpt lat="44.1016723" lon="11.5022078"><ele>706.0</ele><time>2026-05-01T11:48:52.135Z</time></trkpt><trkpt lat="44.101629" lon="11.5020935"><ele>704.3333333333334</ele><time>2026-05-01T11:48:53.136Z</time></trkpt><trkpt lat="44.1016093" lon="11.5019752"><ele>702.6666666666667</ele><time>2026-05-01T11:48:54.135Z</time></trkpt><trkpt lat="44.1015955" lon="11.5018532"><ele>701.0</ele><time>2026-05-01T11:48:55.134Z</time></trkpt><trkpt lat="44.1015613" lon="11.5017473"><ele>699.3333333333334</ele><time>2026-05-01T11:48:56.135Z</time></trkpt><trkpt lat="44.1015035" lon="11.501638"><ele>697.6666666666666</ele><time>2026-05-01T11:48:57.134Z</time></trkpt><trkpt lat="44.1014428" lon="11.5015453"><ele>696.0</ele><time>2026-05-01T11:48:58.135Z</time></trkpt><trkpt lat="44.1013542" lon="11.501472"><ele>696.0</ele><time>2026-05-01T11:48:59.133Z</time></trkpt><trkpt lat="44.1012763" lon="11.5014018"><ele>696.0</ele><time>2026-05-01T11:49:00.133Z</time></trkpt><trkpt lat="44.1012105" lon="11.5013313"><ele>696.0</ele><time>2026-05-01T11:49:01.134Z</time></trkpt><trkpt lat="44.1011358" lon="11.5012703"><ele>696.0</ele><time>2026-05-01T11:49:02.132Z</time></trkpt><trkpt lat="44.1010393" lon="11.5012435"><ele>696.0</ele><time>2026-05-01T11:49:03.132Z</time></trkpt><trkpt lat="44.1009475" lon="11.5012277"><ele>693.3333333333334</ele><time>2026-05-01T11:49:04.13Z</time></trkpt><trkpt lat="44.1008652" lon="11.5012132"><ele>690.6666666666666</ele><time>2026-05-01T11:49:05.131Z</time></trkpt><trkpt lat="44.100798" lon="11.501166"><ele>688.0</ele><time>2026-05-01T11:49:06.134Z</time></trkpt><trkpt lat="44.1007457" lon="11.5010853"><ele>685.3333333333333</ele><time>2026-05-01T11:49:07.133Z</time></trkpt><trkpt lat="44.100714" lon="11.5009765"><ele>682.6666666666666</ele><time>2026-05-01T11:49:08.134Z</time></trkpt><trkpt lat="44.1006967" lon="11.5008495"><ele>680.0</ele><time>2026-05-01T11:49:09.135Z</time></trkpt><trkpt lat="44.1006973" lon="11.5007188"><ele>680.0</ele><time>2026-05-01T11:49:10.138Z</time></trkpt><trkpt lat="44.1007008" lon="11.5006012"><ele>680.0</ele><time>2026-05-01T11:49:11.134Z</time></trkpt><trkpt lat="44.1006823" lon="11.5004917"><ele>680.0</ele><time>2026-05-01T11:49:12.135Z</time></trkpt><trkpt lat="44.1006393" lon="11.5003863"><ele>680.0</ele><time>2026-05-01T11:49:13.135Z</time></trkpt><trkpt lat="44.1005758" lon="11.5002843"><ele>680.0</ele><time>2026-05-01T11:49:14.136Z</time></trkpt><trkpt lat="44.1005017" lon="11.5001893"><ele>686.0</ele><time>2026-05-01T11:49:15.139Z</time></trkpt><trkpt lat="44.100418" lon="11.500109"><ele>692.0</ele><time>2026-05-01T11:49:16.135Z</time></trkpt><trkpt lat="44.100328" lon="11.5000398"><ele>698.0</ele><time>2026-05-01T11:49:17.135Z</time></trkpt><trkpt lat="44.100245" lon="11.4999683"><ele>704.0</ele><time>2026-05-01T11:49:18.135Z</time></trkpt><trkpt lat="44.10018" lon="11.4998748"><ele>710.0</ele><time>2026-05-01T11:49:19.134Z</time></trkpt><trkpt lat="44.1001295" lon="11.4997887"><ele>710.0</ele><time>2026-05-01T11:49:20.134Z</time></trkpt><trkpt lat="44.1000773" lon="11.4997142"><ele>710.0</ele><time>2026-05-01T11:49:21.135Z</time></trkpt><trkpt lat="44.099998" lon="11.4996528"><ele>710.0</ele><time>2026-05-01T11:49:22.134Z</time></trkpt><trkpt lat="44.0999042" lon="11.4996073"><ele>710.0</ele><time>2026-05-01T11:49:23.134Z</time></trkpt><trkpt lat="44.0998238" lon="11.4995523"><ele>710.0</ele><time>2026-05-01T11:49:24.134Z</time></trkpt><trkpt lat="44.0997757" lon="11.4994938"><ele>710.0</ele><time>2026-05-01T11:49:25.135Z</time></trkpt><trkpt lat="44.0997455" lon="11.4992983"><ele>709.1666666666666</ele><time>2026-05-01T11:49:27.134Z</time></trkpt><trkpt lat="44.099738" lon="11.4991788"><ele>708.3333333333333</ele><time>2026-05-01T11:49:28.133Z</time></trkpt><trkpt lat="44.0997207" lon="11.4990645"><ele>707.5</ele><time>2026-05-01T11:49:29.132Z</time></trkpt><trkpt lat="44.0997115" lon="11.4989703"><ele>706.6666666666666</ele><time>2026-05-01T11:49:30.133Z</time></trkpt><trkpt lat="44.0997508" lon="11.498834"><ele>705.8333333333334</ele><time>2026-05-01T11:49:32.131Z</time></trkpt><trkpt lat="44.0998177" lon="11.4987695"><ele>705.0</ele><time>2026-05-01T11:49:33.132Z</time></trkpt><trkpt lat="44.0999038" lon="11.4986938"><ele>705.8333333333334</ele><time>2026-05-01T11:49:34.133Z</time></trkpt><trkpt lat="44.0999892" lon="11.4986238"><ele>706.6666666666666</ele><time>2026-05-01T11:49:35.131Z</time></trkpt><trkpt lat="44.1000757" lon="11.4985518"><ele>707.5</ele><time>2026-05-01T11:49:36.131Z</time></trkpt><trkpt lat="44.1001537" lon="11.498493"><ele>708.3333333333333</ele><time>2026-05-01T11:49:37.131Z</time></trkpt><trkpt lat="44.1002222" lon="11.4984647"><ele>709.1666666666666</ele><time>2026-05-01T11:49:38.13Z</time></trkpt><trkpt lat="44.1002843" lon="11.4984463"><ele>710.0</ele><time>2026-05-01T11:49:39.131Z</time></trkpt><trkpt lat="44.1003878" lon="11.4983672"><ele>710.0</ele><time>2026-05-01T11:49:41.131Z</time></trkpt><trkpt lat="44.1004028" lon="11.498237"><ele>710.0</ele><time>2026-05-01T11:49:43.131Z</time></trkpt><trkpt lat="44.1003622" lon="11.4981318"><ele>710.0</ele><time>2026-05-01T11:49:44.132Z</time></trkpt><trkpt lat="44.100323" lon="11.4979915"><ele>710.0</ele><time>2026-05-01T11:49:45.135Z</time></trkpt><trkpt lat="44.1002853" lon="11.4978375"><ele>710.0</ele><time>2026-05-01T11:49:46.132Z</time></trkpt><trkpt lat="44.100252" lon="11.4976792"><ele>709.4</ele><time>2026-05-01T11:49:47.13Z</time></trkpt><trkpt lat="44.1002098" lon="11.4975192"><ele>708.8</ele><time>2026-05-01T11:49:48.135Z</time></trkpt><trkpt lat="44.1001773" lon="11.4973743"><ele>708.2</ele><time>2026-05-01T11:49:49.131Z</time></trkpt><trkpt lat="44.1001543" lon="11.4972317"><ele>707.6</ele><time>2026-05-01T11:49:50.131Z</time></trkpt><trkpt lat="44.1001343" lon="11.4970975"><ele>707.0</ele><time>2026-05-01T11:49:51.132Z</time></trkpt><trkpt lat="44.100126" lon="11.4969672"><ele>707.0</ele><time>2026-05-01T11:49:52.133Z</time></trkpt><trkpt lat="44.1001112" lon="11.4968325"><ele>707.0</ele><time>2026-05-01T11:49:53.132Z</time></trkpt><trkpt lat="44.100073" lon="11.4966675"><ele>707.0</ele><time>2026-05-01T11:49:54.132Z</time></trkpt><trkpt lat="44.1000282" lon="11.4964853"><ele>707.0</ele><time>2026-05-01T11:49:55.132Z</time></trkpt><trkpt lat="44.0999887" lon="11.4963332"><ele>707.3333333333333</ele><time>2026-05-01T11:49:56.132Z</time></trkpt><trkpt lat="44.0999628" lon="11.4962135"><ele>707.6666666666666</ele><time>2026-05-01T11:49:57.135Z</time></trkpt><trkpt lat="44.099964" lon="11.4961172"><ele>708.0</ele><time>2026-05-01T11:49:58.135Z</time></trkpt><trkpt lat="44.0999878" lon="11.4960072"><ele>708.3333333333334</ele><time>2026-05-01T11:49:59.135Z</time></trkpt><trkpt lat="44.1000165" lon="11.4958852"><ele>708.6666666666667</ele><time>2026-05-01T11:50:00.135Z</time></trkpt><trkpt lat="44.1000485" lon="11.4957568"><ele>709.0</ele><time>2026-05-01T11:50:01.136Z</time></trkpt><trkpt lat="44.1000952" lon="11.4956157"><ele>709.0</ele><time>2026-05-01T11:50:02.136Z</time></trkpt><trkpt lat="44.1001397" lon="11.4954842"><ele>709.0</ele><time>2026-05-01T11:50:03.135Z</time></trkpt><trkpt lat="44.1001803" lon="11.495364"><ele>709.0</ele><time>2026-05-01T11:50:04.136Z</time></trkpt><trkpt lat="44.100225" lon="11.4952567"><ele>709.0</ele><time>2026-05-01T11:50:05.134Z</time></trkpt><trkpt lat="44.1002685" lon="11.495184"><ele>709.0</ele><time>2026-05-01T11:50:06.136Z</time></trkpt><trkpt lat="44.100385" lon="11.4950967"><ele>707.0</ele><time>2026-05-01T11:50:08.136Z</time></trkpt><trkpt lat="44.1004668" lon="11.4950632"><ele>705.0</ele><time>2026-05-01T11:50:09.134Z</time></trkpt><trkpt lat="44.100548" lon="11.4950137"><ele>703.0</ele><time>2026-05-01T11:50:10.135Z</time></trkpt><trkpt lat="44.1006098" lon="11.4949518"><ele>701.0</ele><time>2026-05-01T11:50:11.134Z</time></trkpt><trkpt lat="44.1006633" lon="11.494862"><ele>699.0</ele><time>2026-05-01T11:50:12.137Z</time></trkpt><trkpt lat="44.1007202" lon="11.4947548"><ele>697.0</ele><time>2026-05-01T11:50:13.136Z</time></trkpt><trkpt lat="44.1007838" lon="11.4946585"><ele>699.8333333333334</ele><time>2026-05-01T11:50:14.136Z</time></trkpt><trkpt lat="44.1008418" lon="11.4945743"><ele>702.6666666666667</ele><time>2026-05-01T11:50:15.135Z</time></trkpt><trkpt lat="44.1009037" lon="11.4944862"><ele>705.5</ele><time>2026-05-01T11:50:16.133Z</time></trkpt><trkpt lat="44.1009625" lon="11.4943908"><ele>708.3333333333334</ele><time>2026-05-01T11:50:17.133Z</time></trkpt><trkpt lat="44.1010148" lon="11.4942982"><ele>711.1666666666666</ele><time>2026-05-01T11:50:18.132Z</time></trkpt><trkpt lat="44.1010672" lon="11.494215"><ele>714.0</ele><time>2026-05-01T11:50:19.134Z</time></trkpt><trkpt lat="44.1011222" lon="11.4941413"><ele>714.0</ele><time>2026-05-01T11:50:20.131Z</time></trkpt><trkpt lat="44.1011753" lon="11.4940818"><ele>714.0</ele><time>2026-05-01T11:50:21.135Z</time></trkpt><trkpt lat="44.1012072" lon="11.494006"><ele>714.0</ele><time>2026-05-01T11:50:22.135Z</time></trkpt><trkpt lat="44.1012262" lon="11.493917"><ele>714.0</ele><time>2026-05-01T11:50:23.135Z</time></trkpt><trkpt lat="44.101232" lon="11.4938127"><ele>714.0</ele><time>2026-05-01T11:50:24.137Z</time></trkpt><trkpt lat="44.1012373" lon="11.4937193"><ele>714.0</ele><time>2026-05-01T11:50:25.139Z</time></trkpt><trkpt lat="44.101258" lon="11.4935642"><ele>713.25</ele><time>2026-05-01T11:50:27.135Z</time></trkpt><trkpt lat="44.1013083" lon="11.4934228"><ele>712.5</ele><time>2026-05-01T11:50:29.137Z</time></trkpt><trkpt lat="44.1013643" lon="11.493272"><ele>711.75</ele><time>2026-05-01T11:50:31.137Z</time></trkpt><trkpt lat="44.1014133" lon="11.4931192"><ele>711.0</ele><time>2026-05-01T11:50:33.139Z</time></trkpt><trkpt lat="44.1014482" lon="11.4929702"><ele>710.1666666666666</ele><time>2026-05-01T11:50:35.135Z</time></trkpt><trkpt lat="44.1014418" lon="11.49282"><ele>709.3333333333334</ele><time>2026-05-01T11:50:37.136Z</time></trkpt><trkpt lat="44.1014278" lon="11.4926833"><ele>708.5</ele><time>2026-05-01T11:50:39.147Z</time></trkpt><trkpt lat="44.1014455" lon="11.4925762"><ele>707.6666666666667</ele><time>2026-05-01T11:50:41.144Z</time></trkpt><trkpt lat="44.1014598" lon="11.4924762"><ele>706.8333333333334</ele><time>2026-05-01T11:50:43.145Z</time></trkpt><trkpt lat="44.1014912" lon="11.492381"><ele>706.0</ele><time>2026-05-01T11:50:45.145Z</time></trkpt><trkpt lat="44.1015608" lon="11.4923305"><ele>709.3333333333334</ele><time>2026-05-01T11:50:47.148Z</time></trkpt><trkpt lat="44.1016373" lon="11.492293"><ele>712.6666666666667</ele><time>2026-05-01T11:50:49.149Z</time></trkpt><trkpt lat="44.1016985" lon="11.4922722"><ele>716.0</ele><time>2026-05-01T11:50:51.138Z</time></trkpt><trkpt lat="44.1017805" lon="11.4922767"><ele>719.3333333333334</ele><time>2026-05-01T11:50:53.136Z</time></trkpt><trkpt lat="44.1018842" lon="11.4922543"><ele>722.6666666666666</ele><time>2026-05-01T11:50:55.137Z</time></trkpt><trkpt lat="44.1019972" lon="11.4922283"><ele>726.0</ele><time>2026-05-01T11:50:57.137Z</time></trkpt><trkpt lat="44.1021077" lon="11.4921952"><ele>726.0</ele><time>2026-05-01T11:50:59.137Z</time></trkpt><trkpt lat="44.1022108" lon="11.4921697"><ele>726.0</ele><time>2026-05-01T11:51:01.136Z</time></trkpt><trkpt lat="44.1023092" lon="11.4921608"><ele>726.0</ele><time>2026-05-01T11:51:03.136Z</time></trkpt><trkpt lat="44.1023895" lon="11.4922167"><ele>726.0</ele><time>2026-05-01T11:51:05.134Z</time></trkpt><trkpt lat="44.1024517" lon="11.4922967"><ele>726.0</ele><time>2026-05-01T11:51:08.133Z</time></trkpt><trkpt lat="44.1025213" lon="11.4923177"><ele>726.0</ele><time>2026-05-01T11:51:10.134Z</time></trkpt><trkpt lat="44.102581" lon="11.4923658"><ele>728.5</ele><time>2026-05-01T11:51:12.136Z</time></trkpt><trkpt lat="44.1026387" lon="11.4924667"><ele>731.0</ele><time>2026-05-01T11:51:14.156Z</time></trkpt><trkpt lat="44.1026805" lon="11.4925612"><ele>733.5</ele><time>2026-05-01T11:51:16.134Z</time></trkpt><trkpt lat="44.102705" lon="11.4926612"><ele>736.0</ele><time>2026-05-01T11:51:18.135Z</time></trkpt><trkpt lat="44.1027335" lon="11.4927512"><ele>738.5</ele><time>2026-05-01T11:51:20.136Z</time></trkpt><trkpt lat="44.1028047" lon="11.4927853"><ele>741.0</ele><time>2026-05-01T11:51:22.135Z</time></trkpt><trkpt lat="44.1028835" lon="11.4927135"><ele>741.0</ele><time>2026-05-01T11:51:24.137Z</time></trkpt><trkpt lat="44.1029407" lon="11.4926548"><ele>741.0</ele><time>2026-05-01T11:51:25.136Z</time></trkpt><trkpt lat="44.1030052" lon="11.492597"><ele>741.0</ele><time>2026-05-01T11:51:26.135Z</time></trkpt><trkpt lat="44.1031157" lon="11.4925613"><ele>741.0</ele><time>2026-05-01T11:51:28.136Z</time></trkpt><trkpt lat="44.103231" lon="11.4926158"><ele>741.0</ele><time>2026-05-01T11:51:30.136Z</time></trkpt><trkpt lat="44.1033322" lon="11.4926108"><ele>743.0</ele><time>2026-05-01T11:51:32.133Z</time></trkpt><trkpt lat="44.1034105" lon="11.4925163"><ele>745.0</ele><time>2026-05-01T11:51:34.133Z</time></trkpt><trkpt lat="44.1034733" lon="11.4924373"><ele>747.0</ele><time>2026-05-01T11:51:36.135Z</time></trkpt><trkpt lat="44.1035453" lon="11.4923343"><ele>749.0</ele><time>2026-05-01T11:51:38.135Z</time></trkpt><trkpt lat="44.1035768" lon="11.4921912"><ele>751.0</ele><time>2026-05-01T11:51:40.135Z</time></trkpt><trkpt lat="44.1035823" lon="11.492058"><ele>751.0</ele><time>2026-05-01T11:51:42.136Z</time></trkpt><trkpt lat="44.1036227" lon="11.4919488"><ele>751.0</ele><time>2026-05-01T11:51:44.136Z</time></trkpt><trkpt lat="44.1036555" lon="11.4917838"><ele>751.0</ele><time>2026-05-01T11:51:46.134Z</time></trkpt><trkpt lat="44.1036717" lon="11.4916983"><ele>751.0</ele><time>2026-05-01T11:51:47.133Z</time></trkpt><trkpt lat="44.103701" lon="11.4916105"><ele>751.0</ele><time>2026-05-01T11:51:48.136Z</time></trkpt><trkpt lat="44.1037335" lon="11.4915278"><ele>751.0</ele><time>2026-05-01T11:51:49.135Z</time></trkpt><trkpt lat="44.1037472" lon="11.4913647"><ele>751.0</ele><time>2026-05-01T11:51:51.134Z</time></trkpt><trkpt lat="44.1037447" lon="11.4912655"><ele>751.0</ele><time>2026-05-01T11:51:52.135Z</time></trkpt><trkpt lat="44.103745" lon="11.4911302"><ele>751.0</ele><time>2026-05-01T11:51:54.136Z</time></trkpt><trkpt lat="44.1037682" lon="11.4910408"><ele>751.0</ele><time>2026-05-01T11:51:56.133Z</time></trkpt><trkpt lat="44.1038027" lon="11.4909542"><ele>751.0</ele><time>2026-05-01T11:51:58.132Z</time></trkpt><trkpt lat="44.1038717" lon="11.4909017"><ele>751.0</ele><time>2026-05-01T11:52:00.133Z</time></trkpt><trkpt lat="44.103961" lon="11.4908398"><ele>750.5</ele><time>2026-05-01T11:52:02.133Z</time></trkpt><trkpt lat="44.1040378" lon="11.4907545"><ele>750.0</ele><time>2026-05-01T11:52:04.134Z</time></trkpt><trkpt lat="44.104087" lon="11.4906168"><ele>749.5</ele><time>2026-05-01T11:52:06.136Z</time></trkpt><trkpt lat="44.1041138" lon="11.4905142"><ele>749.0</ele><time>2026-05-01T11:52:07.138Z</time></trkpt><trkpt lat="44.1041323" lon="11.4904107"><ele>748.5</ele><time>2026-05-01T11:52:08.135Z</time></trkpt><trkpt lat="44.104131" lon="11.4903133"><ele>748.0</ele><time>2026-05-01T11:52:09.135Z</time></trkpt><trkpt lat="44.1041303" lon="11.4902232"><ele>754.2</ele><time>2026-05-01T11:52:10.135Z</time></trkpt><trkpt lat="44.1041305" lon="11.4900585"><ele>760.4</ele><time>2026-05-01T11:52:12.135Z</time></trkpt><trkpt lat="44.1041485" lon="11.4899092"><ele>766.6</ele><time>2026-05-01T11:52:14.135Z</time></trkpt><trkpt lat="44.1041888" lon="11.4897532"><ele>772.8000000000001</ele><time>2026-05-01T11:52:16.136Z</time></trkpt><trkpt lat="44.1042263" lon="11.48965"><ele>779.0</ele><time>2026-05-01T11:52:17.137Z</time></trkpt><trkpt lat="44.1042757" lon="11.4895422"><ele>779.1666666666667</ele><time>2026-05-01T11:52:18.136Z</time></trkpt><trkpt lat="44.1043127" lon="11.4894455"><ele>779.3333333333334</ele><time>2026-05-01T11:52:19.135Z</time></trkpt><trkpt lat="44.104344" lon="11.48935"><ele>779.5</ele><time>2026-05-01T11:52:20.134Z</time></trkpt><trkpt lat="44.1043683" lon="11.4892542"><ele>779.6666666666667</ele><time>2026-05-01T11:52:21.134Z</time></trkpt><trkpt lat="44.1044062" lon="11.4891255"><ele>779.8333333333334</ele><time>2026-05-01T11:52:23.134Z</time></trkpt><trkpt lat="44.1044557" lon="11.489003"><ele>780.0</ele><time>2026-05-01T11:52:25.137Z</time></trkpt><trkpt lat="44.1044855" lon="11.4889122"><ele>780.0</ele><time>2026-05-01T11:52:26.138Z</time></trkpt><trkpt lat="44.1045218" lon="11.4888145"><ele>780.0</ele><time>2026-05-01T11:52:27.137Z</time></trkpt><trkpt lat="44.104551" lon="11.4887232"><ele>780.0</ele><time>2026-05-01T11:52:28.137Z</time></trkpt><trkpt lat="44.1045745" lon="11.4886288"><ele>780.0</ele><time>2026-05-01T11:52:29.136Z</time></trkpt><trkpt lat="44.1045883" lon="11.4885233"><ele>780.0</ele><time>2026-05-01T11:52:30.136Z</time></trkpt><trkpt lat="44.1045922" lon="11.4883845"><ele>780.0</ele><time>2026-05-01T11:52:31.136Z</time></trkpt><trkpt lat="44.1045945" lon="11.4882347"><ele>779.8</ele><time>2026-05-01T11:52:32.136Z</time></trkpt><trkpt lat="44.1046058" lon="11.4881233"><ele>779.6</ele><time>2026-05-01T11:52:33.137Z</time></trkpt><trkpt lat="44.1046795" lon="11.4879702"><ele>779.4000000000001</ele><time>2026-05-01T11:52:35.137Z</time></trkpt><trkpt lat="44.1047282" lon="11.487889"><ele>779.2</ele><time>2026-05-01T11:52:36.137Z</time></trkpt><trkpt lat="44.1047783" lon="11.4877802"><ele>779.0</ele><time>2026-05-01T11:52:38.137Z</time></trkpt><trkpt lat="44.104813" lon="11.487692"><ele>781.4000000000001</ele><time>2026-05-01T11:53:05.138Z</time></trkpt><trkpt lat="44.1048568" lon="11.4875127"><ele>783.8</ele><time>2026-05-01T11:53:07.139Z</time></trkpt><trkpt lat="44.104894" lon="11.4873958"><ele>786.2</ele><time>2026-05-01T11:53:08.137Z</time></trkpt><trkpt lat="44.1049357" lon="11.4872837"><ele>788.5999999999999</ele><time>2026-05-01T11:53:09.134Z</time></trkpt><trkpt lat="44.104971" lon="11.487174"><ele>791.0</ele><time>2026-05-01T11:53:10.134Z</time></trkpt><trkpt lat="44.1050007" lon="11.4870622"><ele>794.1666666666667</ele><time>2026-05-01T11:53:11.135Z</time></trkpt><trkpt lat="44.105041" lon="11.4869482"><ele>797.3333333333334</ele><time>2026-05-01T11:53:12.136Z</time></trkpt><trkpt lat="44.1050923" lon="11.486858"><ele>800.5</ele><time>2026-05-01T11:53:13.136Z</time></trkpt><trkpt lat="44.1051437" lon="11.4867767"><ele>803.6666666666667</ele><time>2026-05-01T11:53:14.136Z</time></trkpt><trkpt lat="44.1051858" lon="11.4866768"><ele>806.8333333333334</ele><time>2026-05-01T11:53:15.135Z</time></trkpt><trkpt lat="44.1052068" lon="11.4865598"><ele>810.0</ele><time>2026-05-01T11:53:16.135Z</time></trkpt><trkpt lat="44.1052153" lon="11.4864128"><ele>810.0</ele><time>2026-05-01T11:53:17.134Z</time></trkpt><trkpt lat="44.1052188" lon="11.486262"><ele>810.0</ele><time>2026-05-01T11:53:18.135Z</time></trkpt><trkpt lat="44.1052122" lon="11.4861233"><ele>810.0</ele><time>2026-05-01T11:53:19.135Z</time></trkpt><trkpt lat="44.105218" lon="11.4859992"><ele>810.0</ele><time>2026-05-01T11:53:20.154Z</time></trkpt><trkpt lat="44.1052482" lon="11.485888"><ele>810.0</ele><time>2026-05-01T11:53:21.136Z</time></trkpt><trkpt lat="44.1052867" lon="11.4857767"><ele>811.8333333333334</ele><time>2026-05-01T11:53:22.136Z</time></trkpt><trkpt lat="44.105318" lon="11.4856612"><ele>813.6666666666667</ele><time>2026-05-01T11:53:23.134Z</time></trkpt><trkpt lat="44.1053482" lon="11.4855507"><ele>815.5</ele><time>2026-05-01T11:53:24.134Z</time></trkpt><trkpt lat="44.1053875" lon="11.4854765"><ele>817.3333333333334</ele><time>2026-05-01T11:53:25.133Z</time></trkpt><trkpt lat="44.105489" lon="11.4854668"><ele>819.1666666666667</ele><time>2026-05-01T11:53:27.133Z</time></trkpt><trkpt lat="44.1055723" lon="11.4854935"><ele>821.0</ele><time>2026-05-01T11:53:28.134Z</time></trkpt><trkpt lat="44.105666" lon="11.4855033"><ele>817.5999999999999</ele><time>2026-05-01T11:53:29.132Z</time></trkpt><trkpt lat="44.1057665" lon="11.4855065"><ele>814.2</ele><time>2026-05-01T11:53:30.134Z</time></trkpt><trkpt lat="44.1058485" lon="11.485528"><ele>810.8</ele><time>2026-05-01T11:53:31.135Z</time></trkpt><trkpt lat="44.1059372" lon="11.4855657"><ele>807.4000000000001</ele><time>2026-05-01T11:53:32.135Z</time></trkpt><trkpt lat="44.106031" lon="11.4856"><ele>804.0</ele><time>2026-05-01T11:53:33.132Z</time></trkpt><trkpt lat="44.1061222" lon="11.4856185"><ele>804.0</ele><time>2026-05-01T11:53:34.133Z</time></trkpt><trkpt lat="44.106206" lon="11.4856118"><ele>804.0</ele><time>2026-05-01T11:53:35.134Z</time></trkpt><trkpt lat="44.1062872" lon="11.4855847"><ele>804.0</ele><time>2026-05-01T11:53:36.135Z</time></trkpt><trkpt lat="44.1063765" lon="11.485545"><ele>804.0</ele><time>2026-05-01T11:53:37.136Z</time></trkpt><trkpt lat="44.1064702" lon="11.485517"><ele>804.0</ele><time>2026-05-01T11:53:38.134Z</time></trkpt><trkpt lat="44.1065675" lon="11.4854972"><ele>806.1666666666666</ele><time>2026-05-01T11:53:39.135Z</time></trkpt><trkpt lat="44.1066415" lon="11.4854608"><ele>808.3333333333333</ele><time>2026-05-01T11:53:40.135Z</time></trkpt><trkpt lat="44.1067" lon="11.485401"><ele>810.5</ele><time>2026-05-01T11:53:41.134Z</time></trkpt><trkpt lat="44.1067543" lon="11.4853092"><ele>812.6666666666666</ele><time>2026-05-01T11:53:42.135Z</time></trkpt><trkpt lat="44.1068013" lon="11.4852057"><ele>814.8333333333333</ele><time>2026-05-01T11:53:43.136Z</time></trkpt><trkpt lat="44.1068387" lon="11.4850997"><ele>817.0</ele><time>2026-05-01T11:53:44.134Z</time></trkpt><trkpt lat="44.1068552" lon="11.4849925"><ele>818.1666666666666</ele><time>2026-05-01T11:53:45.135Z</time></trkpt><trkpt lat="44.1068415" lon="11.4848782"><ele>819.3333333333333</ele><time>2026-05-01T11:53:46.135Z</time></trkpt><trkpt lat="44.1068108" lon="11.4847522"><ele>820.5</ele><time>2026-05-01T11:53:47.133Z</time></trkpt><trkpt lat="44.1068023" lon="11.4846413"><ele>821.6666666666667</ele><time>2026-05-01T11:53:48.134Z</time></trkpt><trkpt lat="44.1068238" lon="11.484545"><ele>822.8333333333334</ele><time>2026-05-01T11:53:49.135Z</time></trkpt><trkpt lat="44.1068685" lon="11.4844575"><ele>824.0</ele><time>2026-05-01T11:53:50.134Z</time></trkpt><trkpt lat="44.1069393" lon="11.4843607"><ele>827.6</ele><time>2026-05-01T11:53:51.134Z</time></trkpt><trkpt lat="44.1070138" lon="11.484268"><ele>831.2</ele><time>2026-05-01T11:53:52.135Z</time></trkpt><trkpt lat="44.1070733" lon="11.4841663"><ele>834.8000000000001</ele><time>2026-05-01T11:53:53.134Z</time></trkpt><trkpt lat="44.107113" lon="11.4840403"><ele>838.4000000000001</ele><time>2026-05-01T11:53:54.136Z</time></trkpt><trkpt lat="44.107162" lon="11.4839178"><ele>842.0</ele><time>2026-05-01T11:53:55.136Z</time></trkpt><trkpt lat="44.1072208" lon="11.4838005"><ele>845.2</ele><time>2026-05-01T11:53:56.135Z</time></trkpt><trkpt lat="44.1072793" lon="11.4837033"><ele>848.4000000000001</ele><time>2026-05-01T11:53:57.138Z</time></trkpt><trkpt lat="44.1073163" lon="11.4836225"><ele>851.5999999999999</ele><time>2026-05-01T11:53:58.132Z</time></trkpt><trkpt lat="44.1072958" lon="11.4834482"><ele>854.8</ele><time>2026-05-01T11:54:00.132Z</time></trkpt><trkpt lat="44.1072585" lon="11.4833078"><ele>858.0</ele><time>2026-05-01T11:54:01.132Z</time></trkpt><trkpt lat="44.1072272" lon="11.4831415"><ele>858.0</ele><time>2026-05-01T11:54:02.134Z</time></trkpt><trkpt lat="44.1072057" lon="11.4829893"><ele>858.0</ele><time>2026-05-01T11:54:03.133Z</time></trkpt><trkpt lat="44.1071812" lon="11.4828623"><ele>858.0</ele><time>2026-05-01T11:54:04.133Z</time></trkpt><trkpt lat="44.1071702" lon="11.482759"><ele>858.0</ele><time>2026-05-01T11:54:05.134Z</time></trkpt><trkpt lat="44.107182" lon="11.4826723"><ele>858.0</ele><time>2026-05-01T11:54:06.135Z</time></trkpt><trkpt lat="44.1072185" lon="11.4825988"><ele>858.0</ele><time>2026-05-01T11:54:07.134Z</time></trkpt><trkpt lat="44.107271" lon="11.4825295"><ele>858.0</ele><time>2026-05-01T11:54:08.135Z</time></trkpt><trkpt lat="44.1073383" lon="11.482473"><ele>858.0</ele><time>2026-05-01T11:54:09.134Z</time></trkpt><trkpt lat="44.1074338" lon="11.4824318"><ele>858.0</ele><time>2026-05-01T11:54:10.135Z</time></trkpt><trkpt lat="44.1075387" lon="11.4823902"><ele>858.0</ele><time>2026-05-01T11:54:11.134Z</time></trkpt><trkpt lat="44.1076332" lon="11.4823402"><ele>858.0</ele><time>2026-05-01T11:54:12.134Z</time></trkpt><trkpt lat="44.1077182" lon="11.482277"><ele>849.0</ele><time>2026-05-01T11:54:13.137Z</time></trkpt><trkpt lat="44.1077805" lon="11.4822148"><ele>840.0</ele><time>2026-05-01T11:54:14.136Z</time></trkpt><trkpt lat="44.1078133" lon="11.4820742"><ele>831.0</ele><time>2026-05-01T11:54:16.136Z</time></trkpt><trkpt lat="44.1077485" lon="11.4819182"><ele>822.0</ele><time>2026-05-01T11:54:18.135Z</time></trkpt><trkpt lat="44.1076958" lon="11.4818155"><ele>813.0</ele><time>2026-05-01T11:54:19.137Z</time></trkpt><trkpt lat="44.107648" lon="11.4817118"><ele>812.0</ele><time>2026-05-01T11:54:20.135Z</time></trkpt><trkpt lat="44.1076118" lon="11.481598"><ele>811.0</ele><time>2026-05-01T11:54:21.135Z</time></trkpt><trkpt lat="44.1075737" lon="11.4814863"><ele>810.0</ele><time>2026-05-01T11:54:22.136Z</time></trkpt><trkpt lat="44.1075343" lon="11.4813813"><ele>809.0</ele><time>2026-05-01T11:54:23.133Z</time></trkpt><trkpt lat="44.1074853" lon="11.4812975"><ele>808.0</ele><time>2026-05-01T11:54:24.134Z</time></trkpt><trkpt lat="44.107419" lon="11.4812425"><ele>807.0</ele><time>2026-05-01T11:54:25.133Z</time></trkpt><trkpt lat="44.1073515" lon="11.4811968"><ele>805.6</ele><time>2026-05-01T11:54:26.134Z</time></trkpt><trkpt lat="44.107297" lon="11.4810608"><ele>804.2</ele><time>2026-05-01T11:54:28.134Z</time></trkpt><trkpt lat="44.107322" lon="11.4809038"><ele>802.8</ele><time>2026-05-01T11:54:30.134Z</time></trkpt><trkpt lat="44.1073592" lon="11.4808115"><ele>801.4</ele><time>2026-05-01T11:54:31.135Z</time></trkpt><trkpt lat="44.1074118" lon="11.4807073"><ele>800.0</ele><time>2026-05-01T11:54:32.135Z</time></trkpt><trkpt lat="44.1074812" lon="11.4806123"><ele>800.0000000000001</ele><time>2026-05-01T11:54:33.135Z</time></trkpt><trkpt lat="44.107555" lon="11.4805293"><ele>800.0</ele><time>2026-05-01T11:54:34.136Z</time></trkpt><trkpt lat="44.1076265" lon="11.4804653"><ele>800.0</ele><time>2026-05-01T11:54:35.135Z</time></trkpt><trkpt lat="44.1076917" lon="11.4804173"><ele>800.0</ele><time>2026-05-01T11:54:36.135Z</time></trkpt><trkpt lat="44.1077338" lon="11.4803477"><ele>800.0000000000001</ele><time>2026-05-01T11:54:37.135Z</time></trkpt><trkpt lat="44.1077213" lon="11.4802082"><ele>800.0</ele><time>2026-05-01T11:54:39.135Z</time></trkpt><trkpt lat="44.107628" lon="11.4801443"><ele>798.6666666666667</ele><time>2026-05-01T11:54:41.133Z</time></trkpt><trkpt lat="44.1075638" lon="11.4801268"><ele>797.3333333333334</ele><time>2026-05-01T11:54:42.133Z</time></trkpt><trkpt lat="44.1074993" lon="11.480117"><ele>796.0</ele><time>2026-05-01T11:54:43.134Z</time></trkpt><trkpt lat="44.1074352" lon="11.480103"><ele>794.6666666666667</ele><time>2026-05-01T11:54:44.133Z</time></trkpt><trkpt lat="44.1073293" lon="11.4799853"><ele>793.3333333333334</ele><time>2026-05-01T11:54:46.134Z</time></trkpt><trkpt lat="44.1072802" lon="11.4799032"><ele>792.0</ele><time>2026-05-01T11:54:47.131Z</time></trkpt><trkpt lat="44.1072352" lon="11.4798262"><ele>794.0</ele><time>2026-05-01T11:54:48.132Z</time></trkpt><trkpt lat="44.1072432" lon="11.4796857"><ele>796.0</ele><time>2026-05-01T11:54:50.132Z</time></trkpt><trkpt lat="44.1073612" lon="11.4795705"><ele>798.0</ele><time>2026-05-01T11:54:52.135Z</time></trkpt><trkpt lat="44.1074347" lon="11.4795042"><ele>800.0</ele><time>2026-05-01T11:54:53.137Z</time></trkpt><trkpt lat="44.107508" lon="11.4794135"><ele>802.0</ele><time>2026-05-01T11:54:54.135Z</time></trkpt><trkpt lat="44.107599" lon="11.4793217"><ele>802.0</ele><time>2026-05-01T11:54:55.134Z</time></trkpt><trkpt lat="44.1077068" lon="11.4792415"><ele>802.0</ele><time>2026-05-01T11:54:56.134Z</time></trkpt><trkpt lat="44.1078138" lon="11.479166"><ele>802.0</ele><time>2026-05-01T11:54:57.134Z</time></trkpt><trkpt lat="44.1079087" lon="11.4790977"><ele>802.0</ele><time>2026-05-01T11:54:58.132Z</time></trkpt><trkpt lat="44.107982" lon="11.479034"><ele>802.0</ele><time>2026-05-01T11:54:59.133Z</time></trkpt><trkpt lat="44.1080463" lon="11.4789567"><ele>802.0</ele><time>2026-05-01T11:55:00.137Z</time></trkpt><trkpt lat="44.1080882" lon="11.4788707"><ele>802.0</ele><time>2026-05-01T11:55:01.134Z</time></trkpt><trkpt lat="44.1081122" lon="11.4787763"><ele>802.0</ele><time>2026-05-01T11:55:02.134Z</time></trkpt><trkpt lat="44.108118" lon="11.478676"><ele>802.0</ele><time>2026-05-01T11:55:03.134Z</time></trkpt><trkpt lat="44.1081137" lon="11.4785758"><ele>802.0</ele><time>2026-05-01T11:55:04.133Z</time></trkpt><trkpt lat="44.1081015" lon="11.4784748"><ele>802.0</ele><time>2026-05-01T11:55:05.134Z</time></trkpt><trkpt lat="44.1080755" lon="11.4783867"><ele>802.0</ele><time>2026-05-01T11:55:06.135Z</time></trkpt><trkpt lat="44.1080363" lon="11.4782642"><ele>800.1666666666666</ele><time>2026-05-01T11:55:08.132Z</time></trkpt><trkpt lat="44.108062" lon="11.4781765"><ele>798.3333333333333</ele><time>2026-05-01T11:55:10.133Z</time></trkpt><trkpt lat="44.1081465" lon="11.4781442"><ele>796.5</ele><time>2026-05-01T11:55:12.132Z</time></trkpt><trkpt lat="44.1082095" lon="11.4781692"><ele>794.6666666666667</ele><time>2026-05-01T11:55:13.133Z</time></trkpt><trkpt lat="44.1082713" lon="11.4782105"><ele>792.8333333333334</ele><time>2026-05-01T11:55:14.132Z</time></trkpt><trkpt lat="44.10834" lon="11.4782812"><ele>791.0</ele><time>2026-05-01T11:55:15.134Z</time></trkpt><trkpt lat="44.108413" lon="11.4783638"><ele>791.0000000000001</ele><time>2026-05-01T11:55:16.135Z</time></trkpt><trkpt lat="44.1084862" lon="11.4784362"><ele>791.0</ele><time>2026-05-01T11:55:17.135Z</time></trkpt><trkpt lat="44.1085433" lon="11.4785065"><ele>791.0</ele><time>2026-05-01T11:55:18.135Z</time></trkpt><trkpt lat="44.1085908" lon="11.4785855"><ele>791.0</ele><time>2026-05-01T11:55:19.137Z</time></trkpt><trkpt lat="44.1086377" lon="11.478672"><ele>791.0000000000001</ele><time>2026-05-01T11:55:20.136Z</time></trkpt><trkpt lat="44.108691" lon="11.4787365"><ele>791.0</ele><time>2026-05-01T11:55:21.136Z</time></trkpt><trkpt lat="44.1087512" lon="11.4787652"><ele>791.0000000000001</ele><time>2026-05-01T11:55:22.136Z</time></trkpt><trkpt lat="44.1088455" lon="11.4786912"><ele>791.0</ele><time>2026-05-01T11:55:24.136Z</time></trkpt><trkpt lat="44.1088617" lon="11.4785992"><ele>791.0</ele><time>2026-05-01T11:55:25.135Z</time></trkpt><trkpt lat="44.1088708" lon="11.4784805"><ele>791.0</ele><time>2026-05-01T11:55:26.135Z</time></trkpt><trkpt lat="44.108883" lon="11.4783895"><ele>791.0000000000001</ele><time>2026-05-01T11:55:27.137Z</time></trkpt><trkpt lat="44.1088983" lon="11.4783012"><ele>791.0</ele><time>2026-05-01T11:55:28.135Z</time></trkpt><trkpt lat="44.1088938" lon="11.4781308"><ele>791.0</ele><time>2026-05-01T11:55:30.136Z</time></trkpt><trkpt lat="44.1089077" lon="11.478036"><ele>791.0</ele><time>2026-05-01T11:55:31.137Z</time></trkpt><trkpt lat="44.1089472" lon="11.4779362"><ele>791.0</ele><time>2026-05-01T11:55:32.139Z</time></trkpt><trkpt lat="44.1089905" lon="11.4778477"><ele>791.0</ele><time>2026-05-01T11:55:33.137Z</time></trkpt><trkpt lat="44.1090215" lon="11.477768"><ele>791.0</ele><time>2026-05-01T11:55:34.137Z</time></trkpt><trkpt lat="44.1090327" lon="11.4776742"><ele>791.0</ele><time>2026-05-01T11:55:35.135Z</time></trkpt><trkpt lat="44.1090262" lon="11.4775543"><ele>791.0</ele><time>2026-05-01T11:55:36.134Z</time></trkpt><trkpt lat="44.1090172" lon="11.477407"><ele>794.1999999999999</ele><time>2026-05-01T11:55:37.134Z</time></trkpt><trkpt lat="44.109018" lon="11.4772538"><ele>797.4</ele><time>2026-05-01T11:55:38.132Z</time></trkpt><trkpt lat="44.1090203" lon="11.4771122"><ele>800.6</ele><time>2026-05-01T11:55:39.133Z</time></trkpt><trkpt lat="44.1090275" lon="11.4769668"><ele>803.8</ele><time>2026-05-01T11:55:40.135Z</time></trkpt><trkpt lat="44.1090323" lon="11.4768377"><ele>807.0</ele><time>2026-05-01T11:55:41.134Z</time></trkpt><trkpt lat="44.1090408" lon="11.4767133"><ele>810.0</ele><time>2026-05-01T11:55:42.136Z</time></trkpt><trkpt lat="44.10903" lon="11.4766008"><ele>813.0</ele><time>2026-05-01T11:55:43.133Z</time></trkpt><trkpt lat="44.1090097" lon="11.4765003"><ele>816.0</ele><time>2026-05-01T11:55:44.132Z</time></trkpt><trkpt lat="44.1089925" lon="11.4763918"><ele>819.0</ele><time>2026-05-01T11:55:45.132Z</time></trkpt><trkpt lat="44.108979" lon="11.4762948"><ele>822.0</ele><time>2026-05-01T11:55:46.131Z</time></trkpt><trkpt lat="44.1089523" lon="11.4762095"><ele>825.0</ele><time>2026-05-01T11:55:47.132Z</time></trkpt><trkpt lat="44.1089223" lon="11.4760812"><ele>826.4</ele><time>2026-05-01T11:55:49.133Z</time></trkpt><trkpt lat="44.108975" lon="11.476001"><ele>827.8</ele><time>2026-05-01T11:55:51.133Z</time></trkpt><trkpt lat="44.1090972" lon="11.4759865"><ele>829.2</ele><time>2026-05-01T11:55:53.133Z</time></trkpt><trkpt lat="44.1092055" lon="11.4760525"><ele>830.6</ele><time>2026-05-01T11:55:55.132Z</time></trkpt><trkpt lat="44.1093095" lon="11.4760858"><ele>832.0</ele><time>2026-05-01T11:55:57.133Z</time></trkpt><trkpt lat="44.1093907" lon="11.4759755"><ele>831.6</ele><time>2026-05-01T11:55:59.132Z</time></trkpt><trkpt lat="44.1094153" lon="11.4758562"><ele>831.2</ele><time>2026-05-01T11:56:00.131Z</time></trkpt><trkpt lat="44.1094458" lon="11.4757103"><ele>830.8</ele><time>2026-05-01T11:56:01.132Z</time></trkpt><trkpt lat="44.1094845" lon="11.4755637"><ele>830.4</ele><time>2026-05-01T11:56:02.131Z</time></trkpt><trkpt lat="44.1095262" lon="11.4754457"><ele>830.0</ele><time>2026-05-01T11:56:03.133Z</time></trkpt><trkpt lat="44.1095713" lon="11.4753587"><ele>830.0</ele><time>2026-05-01T11:56:04.135Z</time></trkpt><trkpt lat="44.1096243" lon="11.4752952"><ele>830.0</ele><time>2026-05-01T11:56:05.134Z</time></trkpt><trkpt lat="44.1097008" lon="11.4752122"><ele>830.0</ele><time>2026-05-01T11:56:06.134Z</time></trkpt><trkpt lat="44.1097915" lon="11.4751293"><ele>830.0</ele><time>2026-05-01T11:56:07.134Z</time></trkpt><trkpt lat="44.1098822" lon="11.4750675"><ele>830.0</ele><time>2026-05-01T11:56:08.133Z</time></trkpt><trkpt lat="44.1099738" lon="11.4750245"><ele>827.1666666666667</ele><time>2026-05-01T11:56:09.132Z</time></trkpt><trkpt lat="44.1100598" lon="11.474992"><ele>824.3333333333334</ele><time>2026-05-01T11:56:10.133Z</time></trkpt><trkpt lat="44.1101367" lon="11.4749865"><ele>821.5</ele><time>2026-05-01T11:56:11.132Z</time></trkpt><trkpt lat="44.1102325" lon="11.4750318"><ele>818.6666666666667</ele><time>2026-05-01T11:56:13.132Z</time></trkpt><trkpt lat="44.110294" lon="11.4750538"><ele>815.8333333333334</ele><time>2026-05-01T11:56:38.132Z</time></trkpt><trkpt lat="44.1102835" lon="11.4751678"><ele>813.0</ele><time>2026-05-01T11:56:43.134Z</time></trkpt><trkpt lat="44.1102445" lon="11.4753118"><ele>813.0</ele><time>2026-05-01T11:56:45.134Z</time></trkpt><trkpt lat="44.1102383" lon="11.4754345"><ele>813.0</ele><time>2026-05-01T11:56:47.135Z</time></trkpt><trkpt lat="44.1103162" lon="11.4754402"><ele>813.0</ele><time>2026-05-01T11:56:50.131Z</time></trkpt><trkpt lat="44.110392" lon="11.4753988"><ele>813.0</ele><time>2026-05-01T11:56:52.131Z</time></trkpt><trkpt lat="44.110481" lon="11.4753407"><ele>813.0</ele><time>2026-05-01T11:56:54.135Z</time></trkpt><trkpt lat="44.1105775" lon="11.4752652"><ele>813.0</ele><time>2026-05-01T11:56:56.135Z</time></trkpt><trkpt lat="44.110667" lon="11.4751483"><ele>813.0</ele><time>2026-05-01T11:56:58.133Z</time></trkpt><trkpt lat="44.1107027" lon="11.4750743"><ele>813.0</ele><time>2026-05-01T11:56:59.133Z</time></trkpt><trkpt lat="44.110735" lon="11.474996"><ele>813.0</ele><time>2026-05-01T11:57:00.135Z</time></trkpt><trkpt lat="44.1107758" lon="11.4749212"><ele>813.0</ele><time>2026-05-01T11:57:01.134Z</time></trkpt><trkpt lat="44.1108227" lon="11.4748507"><ele>813.0</ele><time>2026-05-01T11:57:02.134Z</time></trkpt><trkpt lat="44.1108758" lon="11.4747708"><ele>813.5</ele><time>2026-05-01T11:57:03.135Z</time></trkpt><trkpt lat="44.1109248" lon="11.4746703"><ele>814.0</ele><time>2026-05-01T11:57:04.133Z</time></trkpt><trkpt lat="44.1109642" lon="11.4745595"><ele>814.5</ele><time>2026-05-01T11:57:05.132Z</time></trkpt><trkpt lat="44.1109995" lon="11.4744452"><ele>815.0</ele><time>2026-05-01T11:57:06.134Z</time></trkpt><trkpt lat="44.1110398" lon="11.4743315"><ele>815.5</ele><time>2026-05-01T11:57:07.134Z</time></trkpt><trkpt lat="44.1110743" lon="11.4742262"><ele>816.0</ele><time>2026-05-01T11:57:08.133Z</time></trkpt><trkpt lat="44.1111108" lon="11.474124"><ele>818.8333333333334</ele><time>2026-05-01T11:57:09.135Z</time></trkpt><trkpt lat="44.111132" lon="11.4740315"><ele>821.6666666666667</ele><time>2026-05-01T11:57:10.135Z</time></trkpt><trkpt lat="44.1111542" lon="11.473947"><ele>824.5</ele><time>2026-05-01T11:57:11.134Z</time></trkpt><trkpt lat="44.1112073" lon="11.4738688"><ele>827.3333333333334</ele><time>2026-05-01T11:57:13.135Z</time></trkpt><trkpt lat="44.1112812" lon="11.473973"><ele>830.1666666666667</ele><time>2026-05-01T11:57:16.132Z</time></trkpt><trkpt lat="44.1113153" lon="11.4741287"><ele>833.0</ele><time>2026-05-01T11:57:18.135Z</time></trkpt><trkpt lat="44.111355" lon="11.4742783"><ele>833.0</ele><time>2026-05-01T11:57:20.134Z</time></trkpt><trkpt lat="44.1114038" lon="11.4744423"><ele>833.0</ele><time>2026-05-01T11:57:22.137Z</time></trkpt><trkpt lat="44.1114283" lon="11.4745448"><ele>833.0</ele><time>2026-05-01T11:57:23.134Z</time></trkpt><trkpt lat="44.111456" lon="11.4746572"><ele>833.0</ele><time>2026-05-01T11:57:24.134Z</time></trkpt><trkpt lat="44.1114757" lon="11.4747838"><ele>833.0</ele><time>2026-05-01T11:57:25.134Z</time></trkpt><trkpt lat="44.1114888" lon="11.4749185"><ele>833.8</ele><time>2026-05-01T11:57:26.135Z</time></trkpt><trkpt lat="44.1115098" lon="11.4750503"><ele>834.5999999999999</ele><time>2026-05-01T11:57:27.135Z</time></trkpt><trkpt lat="44.111539" lon="11.4751692"><ele>835.4000000000001</ele><time>2026-05-01T11:57:28.136Z</time></trkpt><trkpt lat="44.1115758" lon="11.4752728"><ele>836.2</ele><time>2026-05-01T11:57:29.135Z</time></trkpt><trkpt lat="44.1116325" lon="11.4753695"><ele>837.0</ele><time>2026-05-01T11:57:30.136Z</time></trkpt><trkpt lat="44.1117032" lon="11.4754632"><ele>837.0</ele><time>2026-05-01T11:57:31.136Z</time></trkpt><trkpt lat="44.1117822" lon="11.475557"><ele>837.0</ele><time>2026-05-01T11:57:32.136Z</time></trkpt><trkpt lat="44.1118492" lon="11.4756522"><ele>837.0</ele><time>2026-05-01T11:57:33.136Z</time></trkpt><trkpt lat="44.111905" lon="11.4757402"><ele>837.0</ele><time>2026-05-01T11:57:34.136Z</time></trkpt><trkpt lat="44.1119563" lon="11.4758255"><ele>837.0</ele><time>2026-05-01T11:57:35.137Z</time></trkpt><trkpt lat="44.1120107" lon="11.475918"><ele>837.0</ele><time>2026-05-01T11:57:36.135Z</time></trkpt><trkpt lat="44.1120672" lon="11.4760032"><ele>837.0</ele><time>2026-05-01T11:57:37.137Z</time></trkpt><trkpt lat="44.1121178" lon="11.4760787"><ele>837.0</ele><time>2026-05-01T11:57:38.134Z</time></trkpt><trkpt lat="44.1122085" lon="11.476167"><ele>837.0</ele><time>2026-05-01T11:57:40.133Z</time></trkpt><trkpt lat="44.1122995" lon="11.47619"><ele>837.0</ele><time>2026-05-01T11:57:42.135Z</time></trkpt><trkpt lat="44.1123752" lon="11.4761927"><ele>837.0</ele><time>2026-05-01T11:57:44.136Z</time></trkpt><trkpt lat="44.112456" lon="11.4761725"><ele>842.6</ele><time>2026-05-01T11:57:46.138Z</time></trkpt><trkpt lat="44.1125153" lon="11.4760895"><ele>848.2</ele><time>2026-05-01T11:57:48.136Z</time></trkpt><trkpt lat="44.1126028" lon="11.4761127"><ele>853.8</ele><time>2026-05-01T11:57:51.136Z</time></trkpt><trkpt lat="44.1127113" lon="11.4761012"><ele>859.4</ele><time>2026-05-01T11:57:53.134Z</time></trkpt><trkpt lat="44.1128248" lon="11.4760908"><ele>865.0</ele><time>2026-05-01T11:57:55.137Z</time></trkpt><trkpt lat="44.1129475" lon="11.4760872"><ele>864.9999999999999</ele><time>2026-05-01T11:57:57.135Z</time></trkpt><trkpt lat="44.1130323" lon="11.4760022"><ele>865.0</ele><time>2026-05-01T11:57:59.135Z</time></trkpt><trkpt lat="44.1130432" lon="11.4758555"><ele>865.0</ele><time>2026-05-01T11:58:01.136Z</time></trkpt><trkpt lat="44.113033" lon="11.4757615"><ele>865.0</ele><time>2026-05-01T11:58:02.135Z</time></trkpt><trkpt lat="44.1130317" lon="11.4756705"><ele>864.9999999999999</ele><time>2026-05-01T11:58:03.134Z</time></trkpt><trkpt lat="44.1130243" lon="11.4755282"><ele>865.0</ele><time>2026-05-01T11:58:05.133Z</time></trkpt><trkpt lat="44.1130327" lon="11.4754333"><ele>867.9999999999999</ele><time>2026-05-01T11:58:07.135Z</time></trkpt><trkpt lat="44.113044" lon="11.4753377"><ele>871.0</ele><time>2026-05-01T11:58:09.135Z</time></trkpt><trkpt lat="44.1130898" lon="11.4751972"><ele>874.0</ele><time>2026-05-01T11:58:11.135Z</time></trkpt><trkpt lat="44.1131713" lon="11.4750882"><ele>877.0</ele><time>2026-05-01T11:58:13.136Z</time></trkpt><trkpt lat="44.113223" lon="11.4750308"><ele>879.9999999999999</ele><time>2026-05-01T11:58:14.135Z</time></trkpt><trkpt lat="44.113277" lon="11.4749733"><ele>883.0</ele><time>2026-05-01T11:58:15.136Z</time></trkpt><trkpt lat="44.113376" lon="11.4748897"><ele>884.4999999999999</ele><time>2026-05-01T11:58:17.135Z</time></trkpt><trkpt lat="44.1134995" lon="11.474868"><ele>886.0</ele><time>2026-05-01T11:58:19.135Z</time></trkpt><trkpt lat="44.1135717" lon="11.4748672"><ele>887.5</ele><time>2026-05-01T11:58:20.135Z</time></trkpt><trkpt lat="44.1136417" lon="11.474871"><ele>889.0</ele><time>2026-05-01T11:58:21.134Z</time></trkpt><trkpt lat="44.1137102" lon="11.474865"><ele>890.4999999999999</ele><time>2026-05-01T11:58:22.134Z</time></trkpt><trkpt lat="44.1137737" lon="11.4748575"><ele>892.0</ele><time>2026-05-01T11:58:23.132Z</time></trkpt><trkpt lat="44.1138378" lon="11.4748462"><ele>892.0</ele><time>2026-05-01T11:58:24.135Z</time></trkpt><trkpt lat="44.1139073" lon="11.474835"><ele>892.0</ele><time>2026-05-01T11:58:25.135Z</time></trkpt><trkpt lat="44.1139727" lon="11.4748292"><ele>892.0</ele><time>2026-05-01T11:58:26.134Z</time></trkpt><trkpt lat="44.1140867" lon="11.4748165"><ele>892.0</ele><time>2026-05-01T11:58:28.133Z</time></trkpt><trkpt lat="44.1141968" lon="11.474828"><ele>892.0</ele><time>2026-05-01T11:58:30.133Z</time></trkpt><trkpt lat="44.1143002" lon="11.4748168"><ele>893.8333333333333</ele><time>2026-05-01T11:58:32.135Z</time></trkpt><trkpt lat="44.1144075" lon="11.4748302"><ele>895.6666666666666</ele><time>2026-05-01T11:58:34.134Z</time></trkpt><trkpt lat="44.1144713" lon="11.4748405"><ele>897.5</ele><time>2026-05-01T11:58:35.135Z</time></trkpt><trkpt lat="44.1145422" lon="11.4748437"><ele>899.3333333333333</ele><time>2026-05-01T11:58:36.135Z</time></trkpt><trkpt lat="44.1146165" lon="11.4748488"><ele>901.1666666666666</ele><time>2026-05-01T11:58:37.135Z</time></trkpt><trkpt lat="44.1146957" lon="11.4748592"><ele>903.0</ele><time>2026-05-01T11:58:38.136Z</time></trkpt><trkpt lat="44.1147768" lon="11.4748892"><ele>903.0</ele><time>2026-05-01T11:58:39.137Z</time></trkpt><trkpt lat="44.1148432" lon="11.4749453"><ele>903.0</ele><time>2026-05-01T11:58:40.135Z</time></trkpt><trkpt lat="44.1149007" lon="11.4750218"><ele>903.0</ele><time>2026-05-01T11:58:41.135Z</time></trkpt><trkpt lat="44.1149582" lon="11.4750975"><ele>903.0</ele><time>2026-05-01T11:58:42.135Z</time></trkpt><trkpt lat="44.1150175" lon="11.4751642"><ele>903.0</ele><time>2026-05-01T11:58:43.135Z</time></trkpt><trkpt lat="44.1150822" lon="11.4752302"><ele>903.0</ele><time>2026-05-01T11:58:44.135Z</time></trkpt><trkpt lat="44.1151432" lon="11.4752952"><ele>904.5</ele><time>2026-05-01T11:58:45.136Z</time></trkpt><trkpt lat="44.1151833" lon="11.4753753"><ele>906.0</ele><time>2026-05-01T11:58:46.135Z</time></trkpt><trkpt lat="44.1152047" lon="11.4754768"><ele>907.5</ele><time>2026-05-01T11:58:47.135Z</time></trkpt><trkpt lat="44.1152148" lon="11.4755725"><ele>909.0</ele><time>2026-05-01T11:58:48.136Z</time></trkpt><trkpt lat="44.1152347" lon="11.4756603"><ele>910.5</ele><time>2026-05-01T11:58:49.136Z</time></trkpt><trkpt lat="44.1152877" lon="11.475774"><ele>912.0</ele><time>2026-05-01T11:58:51.135Z</time></trkpt><trkpt lat="44.115347" lon="11.4758667"><ele>912.0</ele><time>2026-05-01T11:58:53.133Z</time></trkpt><trkpt lat="44.1154772" lon="11.4758683"><ele>912.0</ele><time>2026-05-01T11:58:55.134Z</time></trkpt><trkpt lat="44.1155615" lon="11.4758512"><ele>912.0</ele><time>2026-05-01T11:58:56.136Z</time></trkpt><trkpt lat="44.1156407" lon="11.4758652"><ele>912.0</ele><time>2026-05-01T11:58:57.136Z</time></trkpt><trkpt lat="44.1157108" lon="11.4759003"><ele>912.0</ele><time>2026-05-01T11:58:58.136Z</time></trkpt><trkpt lat="44.1157718" lon="11.4759265"><ele>912.0</ele><time>2026-05-01T11:58:59.136Z</time></trkpt><trkpt lat="44.1158975" lon="11.4758965"><ele>912.6666666666666</ele><time>2026-05-01T11:59:01.137Z</time></trkpt><trkpt lat="44.1159627" lon="11.4758887"><ele>913.3333333333333</ele><time>2026-05-01T11:59:02.137Z</time></trkpt><trkpt lat="44.1160273" lon="11.4758908"><ele>914.0</ele><time>2026-05-01T11:59:03.139Z</time></trkpt><trkpt lat="44.1161477" lon="11.4758873"><ele>914.6666666666666</ele><time>2026-05-01T11:59:05.136Z</time></trkpt><trkpt lat="44.1162577" lon="11.4759503"><ele>915.3333333333333</ele><time>2026-05-01T11:59:07.137Z</time></trkpt><trkpt lat="44.1163193" lon="11.4760108"><ele>916.0</ele><time>2026-05-01T11:59:08.136Z</time></trkpt><trkpt lat="44.1164045" lon="11.4760643"><ele>915.9999999999999</ele><time>2026-05-01T11:59:09.138Z</time></trkpt><trkpt lat="44.116488" lon="11.4761178"><ele>916.0</ele><time>2026-05-01T11:59:10.137Z</time></trkpt><trkpt lat="44.116559" lon="11.4761627"><ele>916.0</ele><time>2026-05-01T11:59:11.137Z</time></trkpt><trkpt lat="44.116621" lon="11.4762318"><ele>916.0</ele><time>2026-05-01T11:59:12.138Z</time></trkpt><trkpt lat="44.1166765" lon="11.476323"><ele>915.9999999999999</ele><time>2026-05-01T11:59:13.138Z</time></trkpt><trkpt lat="44.1167288" lon="11.476443"><ele>916.0</ele><time>2026-05-01T11:59:14.137Z</time></trkpt><trkpt lat="44.1167787" lon="11.4765617"><ele>912.6666666666666</ele><time>2026-05-01T11:59:15.138Z</time></trkpt><trkpt lat="44.1168208" lon="11.4766542"><ele>909.3333333333333</ele><time>2026-05-01T11:59:16.136Z</time></trkpt><trkpt lat="44.1168692" lon="11.4767318"><ele>906.0</ele><time>2026-05-01T11:59:17.135Z</time></trkpt><trkpt lat="44.1169303" lon="11.4768055"><ele>902.6666666666667</ele><time>2026-05-01T11:59:18.136Z</time></trkpt><trkpt lat="44.1170012" lon="11.4768748"><ele>899.3333333333334</ele><time>2026-05-01T11:59:19.135Z</time></trkpt><trkpt lat="44.1170712" lon="11.4769347"><ele>896.0</ele><time>2026-05-01T11:59:20.136Z</time></trkpt><trkpt lat="44.1171407" lon="11.4770003"><ele>896.0</ele><time>2026-05-01T11:59:21.137Z</time></trkpt><trkpt lat="44.1171997" lon="11.477061"><ele>895.9999999999999</ele><time>2026-05-01T11:59:22.137Z</time></trkpt><trkpt lat="44.117291" lon="11.4771813"><ele>895.9999999999999</ele><time>2026-05-01T11:59:24.136Z</time></trkpt><trkpt lat="44.1173935" lon="11.4772932"><ele>896.0</ele><time>2026-05-01T11:59:26.135Z</time></trkpt><trkpt lat="44.11746" lon="11.4773508"><ele>896.0</ele><time>2026-05-01T11:59:27.136Z</time></trkpt><trkpt lat="44.117528" lon="11.477394"><ele>899.5999999999999</ele><time>2026-05-01T11:59:28.136Z</time></trkpt><trkpt lat="44.117593" lon="11.4774272"><ele>903.1999999999999</ele><time>2026-05-01T11:59:29.137Z</time></trkpt><trkpt lat="44.1177147" lon="11.4774705"><ele>906.8000000000001</ele><time>2026-05-01T11:59:31.138Z</time></trkpt><trkpt lat="44.1177768" lon="11.4775085"><ele>910.4000000000001</ele><time>2026-05-01T11:59:32.137Z</time></trkpt><trkpt lat="44.1178655" lon="11.4776082"><ele>914.0</ele><time>2026-05-01T11:59:34.138Z</time></trkpt><trkpt lat="44.1179288" lon="11.4777022"><ele>914.0000000000001</ele><time>2026-05-01T11:59:36.139Z</time></trkpt><trkpt lat="44.117989" lon="11.4777535"><ele>914.0</ele><time>2026-05-01T11:59:37.138Z</time></trkpt><trkpt lat="44.118055" lon="11.4777943"><ele>914.0000000000001</ele><time>2026-05-01T11:59:38.137Z</time></trkpt><trkpt lat="44.1181193" lon="11.4778202"><ele>914.0000000000001</ele><time>2026-05-01T11:59:39.137Z</time></trkpt><trkpt lat="44.1181798" lon="11.4778575"><ele>914.0</ele><time>2026-05-01T11:59:40.136Z</time></trkpt><trkpt lat="44.1182322" lon="11.4779087"><ele>914.0000000000001</ele><time>2026-05-01T11:59:41.134Z</time></trkpt><trkpt lat="44.1182872" lon="11.4779562"><ele>914.0000000000001</ele><time>2026-05-01T11:59:42.136Z</time></trkpt><trkpt lat="44.1183465" lon="11.4780087"><ele>916.2</ele><time>2026-05-01T11:59:43.136Z</time></trkpt><trkpt lat="44.1184038" lon="11.4780525"><ele>918.4000000000001</ele><time>2026-05-01T11:59:44.135Z</time></trkpt><trkpt lat="44.118515" lon="11.478095"><ele>920.6</ele><time>2026-05-01T11:59:46.137Z</time></trkpt><trkpt lat="44.1186303" lon="11.4781323"><ele>922.8</ele><time>2026-05-01T11:59:48.137Z</time></trkpt><trkpt lat="44.118711" lon="11.4781548"><ele>925.0</ele><time>2026-05-01T11:59:50.136Z</time></trkpt><trkpt lat="44.1187962" lon="11.4781575"><ele>924.9999999999999</ele><time>2026-05-01T11:59:52.138Z</time></trkpt><trkpt lat="44.1188615" lon="11.4781622"><ele>925.0</ele><time>2026-05-01T11:59:53.138Z</time></trkpt><trkpt lat="44.1189395" lon="11.4781595"><ele>925.0</ele><time>2026-05-01T11:59:54.139Z</time></trkpt><trkpt lat="44.1190075" lon="11.478162"><ele>925.0</ele><time>2026-05-01T11:59:55.138Z</time></trkpt><trkpt lat="44.1191183" lon="11.478243"><ele>924.9999999999999</ele><time>2026-05-01T11:59:57.137Z</time></trkpt><trkpt lat="44.1191773" lon="11.4783082"><ele>925.0</ele><time>2026-05-01T11:59:58.136Z</time></trkpt><trkpt lat="44.1192592" lon="11.4783837"><ele>925.8</ele><time>2026-05-01T11:59:59.136Z</time></trkpt><trkpt lat="44.1193537" lon="11.4784715"><ele>926.6</ele><time>2026-05-01T12:00:00.136Z</time></trkpt><trkpt lat="44.1194518" lon="11.4785663"><ele>927.4000000000001</ele><time>2026-05-01T12:00:01.136Z</time></trkpt><trkpt lat="44.1195388" lon="11.4786483"><ele>928.2</ele><time>2026-05-01T12:00:02.137Z</time></trkpt><trkpt lat="44.1196118" lon="11.4787223"><ele>929.0</ele><time>2026-05-01T12:00:03.138Z</time></trkpt><trkpt lat="44.1196783" lon="11.4787778"><ele>927.6666666666667</ele><time>2026-05-01T12:00:04.136Z</time></trkpt><trkpt lat="44.11973" lon="11.4788362"><ele>926.3333333333334</ele><time>2026-05-01T12:00:05.134Z</time></trkpt><trkpt lat="44.1198213" lon="11.4789037"><ele>925.0</ele><time>2026-05-01T12:00:07.136Z</time></trkpt><trkpt lat="44.1199003" lon="11.4788817"><ele>923.6666666666667</ele><time>2026-05-01T12:00:10.136Z</time></trkpt><trkpt lat="44.1199695" lon="11.4788978"><ele>922.3333333333334</ele><time>2026-05-01T12:00:12.137Z</time></trkpt><trkpt lat="44.1200718" lon="11.4789543"><ele>921.0</ele><time>2026-05-01T12:00:14.136Z</time></trkpt><trkpt lat="44.1201333" lon="11.4789897"><ele>925.3333333333334</ele><time>2026-05-01T12:00:15.136Z</time></trkpt><trkpt lat="44.1202362" lon="11.479059"><ele>929.6666666666667</ele><time>2026-05-01T12:00:17.136Z</time></trkpt><trkpt lat="44.1203273" lon="11.4791388"><ele>934.0</ele><time>2026-05-01T12:00:19.138Z</time></trkpt><trkpt lat="44.1203792" lon="11.4791917"><ele>938.3333333333334</ele><time>2026-05-01T12:00:20.138Z</time></trkpt><trkpt lat="44.1204435" lon="11.4792415"><ele>942.6666666666667</ele><time>2026-05-01T12:00:21.139Z</time></trkpt><trkpt lat="44.1205058" lon="11.4792827"><ele>947.0</ele><time>2026-05-01T12:00:22.137Z</time></trkpt><trkpt lat="44.1206277" lon="11.4793097"><ele>949.3333333333334</ele><time>2026-05-01T12:00:24.137Z</time></trkpt><trkpt lat="44.1207335" lon="11.4793445"><ele>951.6666666666667</ele><time>2026-05-01T12:00:26.137Z</time></trkpt><trkpt lat="44.1208043" lon="11.4793988"><ele>954.0</ele><time>2026-05-01T12:00:28.136Z</time></trkpt><trkpt lat="44.1209047" lon="11.4794228"><ele>956.3333333333333</ele><time>2026-05-01T12:00:30.136Z</time></trkpt><trkpt lat="44.120976" lon="11.4794482"><ele>958.6666666666666</ele><time>2026-05-01T12:00:31.135Z</time></trkpt><trkpt lat="44.1210465" lon="11.4794772"><ele>961.0</ele><time>2026-05-01T12:00:32.134Z</time></trkpt><trkpt lat="44.1211323" lon="11.4794862"><ele>960.9999999999999</ele><time>2026-05-01T12:00:33.135Z</time></trkpt><trkpt lat="44.121212" lon="11.4794808"><ele>961.0</ele><time>2026-05-01T12:00:34.136Z</time></trkpt><trkpt lat="44.1212877" lon="11.4794888"><ele>961.0</ele><time>2026-05-01T12:00:35.136Z</time></trkpt><trkpt lat="44.1213638" lon="11.4795258"><ele>961.0</ele><time>2026-05-01T12:00:36.137Z</time></trkpt><trkpt lat="44.1214365" lon="11.4795673"><ele>960.9999999999999</ele><time>2026-05-01T12:00:37.137Z</time></trkpt><trkpt lat="44.1215063" lon="11.4796167"><ele>961.0</ele><time>2026-05-01T12:00:38.136Z</time></trkpt><trkpt lat="44.1215758" lon="11.479703"><ele>961.1666666666666</ele><time>2026-05-01T12:00:39.136Z</time></trkpt><trkpt lat="44.1216482" lon="11.4798042"><ele>961.3333333333333</ele><time>2026-05-01T12:00:40.136Z</time></trkpt><trkpt lat="44.1217097" lon="11.4799037"><ele>961.5</ele><time>2026-05-01T12:00:41.137Z</time></trkpt><trkpt lat="44.1217613" lon="11.4799762"><ele>961.6666666666667</ele><time>2026-05-01T12:00:42.135Z</time></trkpt><trkpt lat="44.1218147" lon="11.4800347"><ele>961.8333333333334</ele><time>2026-05-01T12:00:43.136Z</time></trkpt><trkpt lat="44.121878" lon="11.4800923"><ele>962.0</ele><time>2026-05-01T12:00:44.136Z</time></trkpt><trkpt lat="44.1219668" lon="11.4801887"><ele>962.0000000000001</ele><time>2026-05-01T12:00:46.136Z</time></trkpt><trkpt lat="44.1220173" lon="11.480252"><ele>962.0</ele><time>2026-05-01T12:00:47.135Z</time></trkpt><trkpt lat="44.1220808" lon="11.4803302"><ele>962.0</ele><time>2026-05-01T12:00:48.138Z</time></trkpt><trkpt lat="44.1221542" lon="11.480414"><ele>962.0</ele><time>2026-05-01T12:00:49.137Z</time></trkpt><trkpt lat="44.1222325" lon="11.4804785"><ele>962.0000000000001</ele><time>2026-05-01T12:00:50.137Z</time></trkpt><trkpt lat="44.1223088" lon="11.480538"><ele>962.0</ele><time>2026-05-01T12:00:51.138Z</time></trkpt><trkpt lat="44.1223803" lon="11.4805945"><ele>963.5000000000001</ele><time>2026-05-01T12:00:52.141Z</time></trkpt><trkpt lat="44.1224443" lon="11.4806387"><ele>965.0</ele><time>2026-05-01T12:00:53.135Z</time></trkpt><trkpt lat="44.1225203" lon="11.4806712"><ele>966.5</ele><time>2026-05-01T12:00:54.136Z</time></trkpt><trkpt lat="44.1226157" lon="11.4807125"><ele>968.0</ele><time>2026-05-01T12:00:55.134Z</time></trkpt><trkpt lat="44.1227167" lon="11.480756"><ele>969.5000000000001</ele><time>2026-05-01T12:00:56.134Z</time></trkpt><trkpt lat="44.122803" lon="11.4807992"><ele>971.0</ele><time>2026-05-01T12:00:57.135Z</time></trkpt><trkpt lat="44.1228795" lon="11.480836"><ele>971.0000000000001</ele><time>2026-05-01T12:00:58.137Z</time></trkpt><trkpt lat="44.1229548" lon="11.4808723"><ele>971.0</ele><time>2026-05-01T12:00:59.137Z</time></trkpt><trkpt lat="44.1230212" lon="11.4809088"><ele>971.0</ele><time>2026-05-01T12:01:00.137Z</time></trkpt><trkpt lat="44.1230912" lon="11.480923"><ele>971.0</ele><time>2026-05-01T12:01:01.136Z</time></trkpt><trkpt lat="44.1231567" lon="11.4809223"><ele>971.0000000000001</ele><time>2026-05-01T12:01:02.136Z</time></trkpt><trkpt lat="44.1232822" lon="11.4809768"><ele>971.0</ele><time>2026-05-01T12:01:04.136Z</time></trkpt><trkpt lat="44.1233553" lon="11.4810123"><ele>972.8333333333334</ele><time>2026-05-01T12:01:05.137Z</time></trkpt><trkpt lat="44.1234258" lon="11.4810527"><ele>974.6666666666667</ele><time>2026-05-01T12:01:06.137Z</time></trkpt><trkpt lat="44.1234913" lon="11.4810948"><ele>976.5</ele><time>2026-05-01T12:01:07.137Z</time></trkpt><trkpt lat="44.123582" lon="11.4812072"><ele>978.3333333333333</ele><time>2026-05-01T12:01:09.137Z</time></trkpt><trkpt lat="44.1236253" lon="11.481281"><ele>980.1666666666666</ele><time>2026-05-01T12:01:10.136Z</time></trkpt><trkpt lat="44.1236772" lon="11.4813483"><ele>982.0</ele><time>2026-05-01T12:01:11.135Z</time></trkpt><trkpt lat="44.1237327" lon="11.4814115"><ele>982.1666666666666</ele><time>2026-05-01T12:01:12.137Z</time></trkpt><trkpt lat="44.12378" lon="11.4814847"><ele>982.3333333333333</ele><time>2026-05-01T12:01:13.136Z</time></trkpt><trkpt lat="44.1238162" lon="11.4815667"><ele>982.5</ele><time>2026-05-01T12:01:14.136Z</time></trkpt><trkpt lat="44.1238398" lon="11.4817195"><ele>982.6666666666667</ele><time>2026-05-01T12:01:16.135Z</time></trkpt><trkpt lat="44.1238312" lon="11.4818525"><ele>982.8333333333334</ele><time>2026-05-01T12:01:18.136Z</time></trkpt><trkpt lat="44.1238403" lon="11.481973"><ele>983.0</ele><time>2026-05-01T12:01:20.135Z</time></trkpt><trkpt lat="44.1238565" lon="11.4821148"><ele>982.0000000000001</ele><time>2026-05-01T12:01:22.135Z</time></trkpt><trkpt lat="44.1238277" lon="11.4822528"><ele>981.0</ele><time>2026-05-01T12:01:24.136Z</time></trkpt><trkpt lat="44.1237983" lon="11.4824233"><ele>980.0</ele><time>2026-05-01T12:01:26.135Z</time></trkpt><trkpt lat="44.1237853" lon="11.4825123"><ele>979.0</ele><time>2026-05-01T12:01:27.136Z</time></trkpt><trkpt lat="44.1237735" lon="11.4826082"><ele>978.0000000000001</ele><time>2026-05-01T12:01:28.137Z</time></trkpt><trkpt lat="44.1237653" lon="11.4827245"><ele>977.0</ele><time>2026-05-01T12:01:29.135Z</time></trkpt><trkpt lat="44.1237697" lon="11.4828587"><ele>976.8333333333334</ele><time>2026-05-01T12:01:30.136Z</time></trkpt><trkpt lat="44.1237722" lon="11.482983"><ele>976.6666666666667</ele><time>2026-05-01T12:01:31.136Z</time></trkpt><trkpt lat="44.1237687" lon="11.4831015"><ele>976.5</ele><time>2026-05-01T12:01:32.135Z</time></trkpt><trkpt lat="44.1237633" lon="11.4832163"><ele>976.3333333333333</ele><time>2026-05-01T12:01:33.137Z</time></trkpt><trkpt lat="44.1237637" lon="11.4833115"><ele>976.1666666666666</ele><time>2026-05-01T12:01:34.137Z</time></trkpt><trkpt lat="44.1237923" lon="11.4834213"><ele>976.0</ele><time>2026-05-01T12:01:36.138Z</time></trkpt><trkpt lat="44.1238123" lon="11.4835222"><ele>976.0</ele><time>2026-05-01T12:01:38.136Z</time></trkpt><trkpt lat="44.1238688" lon="11.4836218"><ele>975.9999999999999</ele><time>2026-05-01T12:01:40.136Z</time></trkpt><trkpt lat="44.1239268" lon="11.4837215"><ele>975.9999999999999</ele><time>2026-05-01T12:01:42.136Z</time></trkpt><trkpt lat="44.1240055" lon="11.483839"><ele>976.0</ele><time>2026-05-01T12:01:44.133Z</time></trkpt><trkpt lat="44.124082" lon="11.4839445"><ele>976.0</ele><time>2026-05-01T12:01:46.135Z</time></trkpt><trkpt lat="44.1241357" lon="11.4840803"><ele>973.9999999999999</ele><time>2026-05-01T12:01:48.137Z</time></trkpt><trkpt lat="44.1241692" lon="11.4841617"><ele>972.0</ele><time>2026-05-01T12:01:49.137Z</time></trkpt><trkpt lat="44.124205" lon="11.484247"><ele>969.9999999999999</ele><time>2026-05-01T12:01:50.136Z</time></trkpt><trkpt lat="44.124241" lon="11.4843355"><ele>967.9999999999999</ele><time>2026-05-01T12:01:51.136Z</time></trkpt><trkpt lat="44.1242762" lon="11.4844252"><ele>966.0</ele><time>2026-05-01T12:01:52.136Z</time></trkpt><trkpt lat="44.1243143" lon="11.4845065"><ele>963.9999999999999</ele><time>2026-05-01T12:01:53.137Z</time></trkpt><trkpt lat="44.1243515" lon="11.4845862"><ele>961.9999999999999</ele><time>2026-05-01T12:01:54.138Z</time></trkpt><trkpt lat="44.1243882" lon="11.4846647"><ele>958.2</ele><time>2026-05-01T12:01:55.138Z</time></trkpt><trkpt lat="44.1244237" lon="11.4847437"><ele>954.4000000000001</ele><time>2026-05-01T12:01:56.136Z</time></trkpt><trkpt lat="44.12449" lon="11.484891"><ele>950.5999999999999</ele><time>2026-05-01T12:01:58.135Z</time></trkpt><trkpt lat="44.1245433" lon="11.4850502"><ele>946.8</ele><time>2026-05-01T12:02:00.138Z</time></trkpt><trkpt lat="44.1245703" lon="11.4851347"><ele>943.0</ele><time>2026-05-01T12:02:01.137Z</time></trkpt><trkpt lat="44.1245988" lon="11.485221"><ele>943.0</ele><time>2026-05-01T12:02:02.137Z</time></trkpt><trkpt lat="44.1246272" lon="11.4853045"><ele>943.0</ele><time>2026-05-01T12:02:03.135Z</time></trkpt><trkpt lat="44.1246828" lon="11.4854592"><ele>943.0</ele><time>2026-05-01T12:02:05.136Z</time></trkpt><trkpt lat="44.1247372" lon="11.485597"><ele>943.0</ele><time>2026-05-01T12:02:07.135Z</time></trkpt><trkpt lat="44.1248217" lon="11.4857203"><ele>943.0</ele><time>2026-05-01T12:02:09.133Z</time></trkpt><trkpt lat="44.1248647" lon="11.4857895"><ele>942.4999999999999</ele><time>2026-05-01T12:02:10.134Z</time></trkpt><trkpt lat="44.1249067" lon="11.485864"><ele>942.0</ele><time>2026-05-01T12:02:11.134Z</time></trkpt><trkpt lat="44.1249693" lon="11.4860155"><ele>941.5</ele><time>2026-05-01T12:02:13.137Z</time></trkpt><trkpt lat="44.1250025" lon="11.486095"><ele>941.0</ele><time>2026-05-01T12:02:14.135Z</time></trkpt><trkpt lat="44.1250308" lon="11.4861763"><ele>940.4999999999999</ele><time>2026-05-01T12:02:15.136Z</time></trkpt><trkpt lat="44.1250815" lon="11.4863255"><ele>940.0</ele><time>2026-05-01T12:02:17.135Z</time></trkpt><trkpt lat="44.1251758" lon="11.4864497"><ele>938.8</ele><time>2026-05-01T12:02:19.136Z</time></trkpt><trkpt lat="44.1252548" lon="11.4864932"><ele>937.6</ele><time>2026-05-01T12:02:20.137Z</time></trkpt><trkpt lat="44.1253455" lon="11.4865542"><ele>936.4000000000001</ele><time>2026-05-01T12:02:21.136Z</time></trkpt><trkpt lat="44.1254363" lon="11.4866132"><ele>935.2</ele><time>2026-05-01T12:02:22.136Z</time></trkpt><trkpt lat="44.1255227" lon="11.4866628"><ele>934.0</ele><time>2026-05-01T12:02:23.138Z</time></trkpt><trkpt lat="44.125601" lon="11.4867072"><ele>933.9999999999999</ele><time>2026-05-01T12:02:24.136Z</time></trkpt><trkpt lat="44.1256755" lon="11.4867497"><ele>934.0</ele><time>2026-05-01T12:02:25.136Z</time></trkpt><trkpt lat="44.1257517" lon="11.4868017"><ele>934.0</ele><time>2026-05-01T12:02:26.136Z</time></trkpt><trkpt lat="44.1258228" lon="11.4868495"><ele>934.0</ele><time>2026-05-01T12:02:27.136Z</time></trkpt><trkpt lat="44.1258865" lon="11.4868883"><ele>933.9999999999999</ele><time>2026-05-01T12:02:28.137Z</time></trkpt><trkpt lat="44.125945" lon="11.4869505"><ele>934.0</ele><time>2026-05-01T12:02:29.135Z</time></trkpt><trkpt lat="44.1260065" lon="11.4870248"><ele>931.3333333333333</ele><time>2026-05-01T12:02:30.135Z</time></trkpt><trkpt lat="44.1260762" lon="11.4870908"><ele>928.6666666666666</ele><time>2026-05-01T12:02:31.137Z</time></trkpt><trkpt lat="44.1261457" lon="11.4871468"><ele>926.0</ele><time>2026-05-01T12:02:32.135Z</time></trkpt><trkpt lat="44.1262048" lon="11.4872127"><ele>923.3333333333333</ele><time>2026-05-01T12:02:33.135Z</time></trkpt><trkpt lat="44.1262532" lon="11.4872962"><ele>920.6666666666666</ele><time>2026-05-01T12:02:34.133Z</time></trkpt><trkpt lat="44.126297" lon="11.4873942"><ele>918.0</ele><time>2026-05-01T12:02:35.132Z</time></trkpt><trkpt lat="44.1263487" lon="11.4874902"><ele>917.8333333333334</ele><time>2026-05-01T12:02:36.135Z</time></trkpt><trkpt lat="44.1263933" lon="11.487575"><ele>917.6666666666667</ele><time>2026-05-01T12:02:37.135Z</time></trkpt><trkpt lat="44.1264295" lon="11.4876637"><ele>917.5</ele><time>2026-05-01T12:02:38.135Z</time></trkpt><trkpt lat="44.1264878" lon="11.4878093"><ele>917.3333333333334</ele><time>2026-05-01T12:02:40.135Z</time></trkpt><trkpt lat="44.126521" lon="11.4878873"><ele>917.1666666666667</ele><time>2026-05-01T12:02:41.134Z</time></trkpt><trkpt lat="44.1265735" lon="11.4879757"><ele>917.0</ele><time>2026-05-01T12:02:42.136Z</time></trkpt><trkpt lat="44.1266322" lon="11.4880693"><ele>915.8333333333334</ele><time>2026-05-01T12:02:43.135Z</time></trkpt><trkpt lat="44.1266872" lon="11.488174"><ele>914.6666666666667</ele><time>2026-05-01T12:02:44.136Z</time></trkpt><trkpt lat="44.1267417" lon="11.488273"><ele>913.5</ele><time>2026-05-01T12:02:45.135Z</time></trkpt><trkpt lat="44.1267998" lon="11.4883452"><ele>912.3333333333333</ele><time>2026-05-01T12:02:46.136Z</time></trkpt><trkpt lat="44.1268585" lon="11.4884075"><ele>911.1666666666666</ele><time>2026-05-01T12:02:47.137Z</time></trkpt><trkpt lat="44.1269093" lon="11.4884648"><ele>910.0</ele><time>2026-05-01T12:02:48.137Z</time></trkpt><trkpt lat="44.1270032" lon="11.4885615"><ele>909.9999999999999</ele><time>2026-05-01T12:02:50.135Z</time></trkpt><trkpt lat="44.1271065" lon="11.4886547"><ele>910.0</ele><time>2026-05-01T12:02:52.135Z</time></trkpt><trkpt lat="44.1271727" lon="11.488708"><ele>910.0</ele><time>2026-05-01T12:02:53.135Z</time></trkpt><trkpt lat="44.1272313" lon="11.4887718"><ele>910.0</ele><time>2026-05-01T12:02:54.137Z</time></trkpt><trkpt lat="44.1272912" lon="11.4888478"><ele>909.9999999999999</ele><time>2026-05-01T12:02:55.138Z</time></trkpt><trkpt lat="44.1273455" lon="11.4889182"><ele>910.0</ele><time>2026-05-01T12:02:56.135Z</time></trkpt><trkpt lat="44.1274265" lon="11.489036"><ele>907.4</ele><time>2026-05-01T12:02:58.134Z</time></trkpt><trkpt lat="44.1274892" lon="11.4891638"><ele>904.8</ele><time>2026-05-01T12:03:00.137Z</time></trkpt><trkpt lat="44.1275425" lon="11.4893063"><ele>902.2</ele><time>2026-05-01T12:03:02.137Z</time></trkpt><trkpt lat="44.1276137" lon="11.4894372"><ele>899.6</ele><time>2026-05-01T12:03:04.136Z</time></trkpt><trkpt lat="44.127665" lon="11.4895187"><ele>897.0</ele><time>2026-05-01T12:03:05.137Z</time></trkpt><trkpt lat="44.1277113" lon="11.4896228"><ele>895.8</ele><time>2026-05-01T12:03:06.137Z</time></trkpt><trkpt lat="44.127754" lon="11.4897512"><ele>894.6</ele><time>2026-05-01T12:03:07.137Z</time></trkpt><trkpt lat="44.127788" lon="11.4898538"><ele>893.3999999999999</ele><time>2026-05-01T12:03:08.136Z</time></trkpt><trkpt lat="44.1278522" lon="11.4899983"><ele>892.1999999999999</ele><time>2026-05-01T12:03:10.136Z</time></trkpt><trkpt lat="44.127895" lon="11.4901283"><ele>891.0</ele><time>2026-05-01T12:03:12.136Z</time></trkpt><trkpt lat="44.1279422" lon="11.4902863"><ele>891.0</ele><time>2026-05-01T12:03:14.136Z</time></trkpt><trkpt lat="44.1279717" lon="11.4903712"><ele>891.0</ele><time>2026-05-01T12:03:15.136Z</time></trkpt><trkpt lat="44.1280033" lon="11.4904482"><ele>891.0</ele><time>2026-05-01T12:03:16.136Z</time></trkpt><trkpt lat="44.1280652" lon="11.4905637"><ele>891.0</ele><time>2026-05-01T12:03:18.137Z</time></trkpt><trkpt lat="44.128123" lon="11.4906755"><ele>891.0</ele><time>2026-05-01T12:03:20.137Z</time></trkpt><trkpt lat="44.1282007" lon="11.4907832"><ele>891.0</ele><time>2026-05-01T12:03:22.134Z</time></trkpt><trkpt lat="44.1282835" lon="11.490903"><ele>895.0</ele><time>2026-05-01T12:03:24.135Z</time></trkpt><trkpt lat="44.128319" lon="11.4909803"><ele>899.0</ele><time>2026-05-01T12:03:25.136Z</time></trkpt><trkpt lat="44.1283448" lon="11.491067"><ele>903.0</ele><time>2026-05-01T12:03:26.135Z</time></trkpt><trkpt lat="44.1283945" lon="11.4912062"><ele>907.0</ele><time>2026-05-01T12:03:28.135Z</time></trkpt><trkpt lat="44.128407" lon="11.4913277"><ele>911.0</ele><time>2026-05-01T12:03:30.135Z</time></trkpt><trkpt lat="44.1284087" lon="11.4914768"><ele>915.0</ele><time>2026-05-01T12:03:32.135Z</time></trkpt><trkpt lat="44.1284233" lon="11.491563"><ele>916.0</ele><time>2026-05-01T12:03:33.135Z</time></trkpt><trkpt lat="44.1285023" lon="11.491683"><ele>917.0</ele><time>2026-05-01T12:03:35.134Z</time></trkpt><trkpt lat="44.128558" lon="11.4917322"><ele>918.0</ele><time>2026-05-01T12:03:36.135Z</time></trkpt><trkpt lat="44.1286298" lon="11.4917943"><ele>919.0</ele><time>2026-05-01T12:03:37.136Z</time></trkpt><trkpt lat="44.128703" lon="11.4918557"><ele>920.0</ele><time>2026-05-01T12:03:38.135Z</time></trkpt><trkpt lat="44.1287722" lon="11.491917"><ele>921.0</ele><time>2026-05-01T12:03:39.135Z</time></trkpt><trkpt lat="44.128819" lon="11.4919797"><ele>919.5999999999999</ele><time>2026-05-01T12:03:40.136Z</time></trkpt><trkpt lat="44.1288715" lon="11.4921223"><ele>918.1999999999999</ele><time>2026-05-01T12:03:42.135Z</time></trkpt><trkpt lat="44.1288543" lon="11.4922913"><ele>916.8000000000001</ele><time>2026-05-01T12:03:44.135Z</time></trkpt><trkpt lat="44.1288192" lon="11.492384"><ele>915.4000000000001</ele><time>2026-05-01T12:03:45.134Z</time></trkpt><trkpt lat="44.1287887" lon="11.4924852"><ele>914.0</ele><time>2026-05-01T12:03:46.133Z</time></trkpt><trkpt lat="44.1287615" lon="11.4925853"><ele>914.0000000000001</ele><time>2026-05-01T12:03:47.133Z</time></trkpt><trkpt lat="44.1287407" lon="11.4926948"><ele>914.0</ele><time>2026-05-01T12:03:48.132Z</time></trkpt><trkpt lat="44.1287402" lon="11.4928078"><ele>914.0</ele><time>2026-05-01T12:03:49.133Z</time></trkpt><trkpt lat="44.1287582" lon="11.4929287"><ele>914.0</ele><time>2026-05-01T12:03:50.135Z</time></trkpt><trkpt lat="44.1287867" lon="11.4930447"><ele>914.0000000000001</ele><time>2026-05-01T12:03:51.135Z</time></trkpt><trkpt lat="44.1288248" lon="11.4931632"><ele>914.0</ele><time>2026-05-01T12:03:52.134Z</time></trkpt><trkpt lat="44.1288697" lon="11.4932828"><ele>912.8000000000001</ele><time>2026-05-01T12:03:53.134Z</time></trkpt><trkpt lat="44.1289112" lon="11.4934153"><ele>911.6000000000001</ele><time>2026-05-01T12:03:54.135Z</time></trkpt><trkpt lat="44.1289542" lon="11.4935288"><ele>910.4</ele><time>2026-05-01T12:03:55.134Z</time></trkpt><trkpt lat="44.1290148" lon="11.4936352"><ele>909.2</ele><time>2026-05-01T12:03:56.135Z</time></trkpt><trkpt lat="44.1290877" lon="11.4937205"><ele>908.0</ele><time>2026-05-01T12:03:57.135Z</time></trkpt><trkpt lat="44.1291667" lon="11.4937862"><ele>914.25</ele><time>2026-05-01T12:03:58.134Z</time></trkpt><trkpt lat="44.1292553" lon="11.4938322"><ele>920.5</ele><time>2026-05-01T12:03:59.133Z</time></trkpt><trkpt lat="44.129357" lon="11.493855"><ele>926.75</ele><time>2026-05-01T12:04:00.134Z</time></trkpt><trkpt lat="44.1294893" lon="11.4938597"><ele>933.0</ele><time>2026-05-01T12:04:01.137Z</time></trkpt><trkpt lat="44.129631" lon="11.4938677"><ele>933.0</ele><time>2026-05-01T12:04:02.136Z</time></trkpt><trkpt lat="44.1297625" lon="11.4938845"><ele>933.0</ele><time>2026-05-01T12:04:03.137Z</time></trkpt><trkpt lat="44.1298942" lon="11.4938747"><ele>933.0</ele><time>2026-05-01T12:04:04.137Z</time></trkpt><trkpt lat="44.130032" lon="11.4938408"><ele>933.0</ele><time>2026-05-01T12:04:05.135Z</time></trkpt><trkpt lat="44.1301513" lon="11.4937995"><ele>927.5</ele><time>2026-05-01T12:04:06.135Z</time></trkpt><trkpt lat="44.1302687" lon="11.4937475"><ele>922.0</ele><time>2026-05-01T12:04:07.137Z</time></trkpt><trkpt lat="44.1303898" lon="11.493693"><ele>916.5</ele><time>2026-05-01T12:04:08.137Z</time></trkpt><trkpt lat="44.1305383" lon="11.4936443"><ele>911.0</ele><time>2026-05-01T12:04:09.14Z</time></trkpt><trkpt lat="44.1306977" lon="11.4936002"><ele>912.25</ele><time>2026-05-01T12:04:10.135Z</time></trkpt><trkpt lat="44.1308413" lon="11.4935598"><ele>913.5</ele><time>2026-05-01T12:04:11.135Z</time></trkpt><trkpt lat="44.1309678" lon="11.4935257"><ele>914.75</ele><time>2026-05-01T12:04:12.134Z</time></trkpt><trkpt lat="44.1310727" lon="11.493516"><ele>916.0</ele><time>2026-05-01T12:04:13.135Z</time></trkpt><trkpt lat="44.13117" lon="11.4935275"><ele>916.0</ele><time>2026-05-01T12:04:14.135Z</time></trkpt><trkpt lat="44.1312732" lon="11.4935628"><ele>915.9999999999999</ele><time>2026-05-01T12:04:15.136Z</time></trkpt><trkpt lat="44.1313817" lon="11.4936055"><ele>915.9999999999999</ele><time>2026-05-01T12:04:16.136Z</time></trkpt><trkpt lat="44.1314797" lon="11.4936305"><ele>916.0</ele><time>2026-05-01T12:04:17.135Z</time></trkpt><trkpt lat="44.1315723" lon="11.493616"><ele>916.0</ele><time>2026-05-01T12:04:18.136Z</time></trkpt><trkpt lat="44.1316793" lon="11.4935787"><ele>918.5999999999999</ele><time>2026-05-01T12:04:19.139Z</time></trkpt><trkpt lat="44.1317793" lon="11.4935192"><ele>921.1999999999999</ele><time>2026-05-01T12:04:20.135Z</time></trkpt><trkpt lat="44.1318755" lon="11.4934333"><ele>923.8000000000001</ele><time>2026-05-01T12:04:21.136Z</time></trkpt><trkpt lat="44.1319683" lon="11.4933572"><ele>926.4000000000001</ele><time>2026-05-01T12:04:22.137Z</time></trkpt><trkpt lat="44.132051" lon="11.4933102"><ele>929.0</ele><time>2026-05-01T12:04:23.135Z</time></trkpt><trkpt lat="44.1321225" lon="11.4932978"><ele>929.0</ele><time>2026-05-01T12:04:24.136Z</time></trkpt><trkpt lat="44.1322037" lon="11.493318"><ele>929.0000000000001</ele><time>2026-05-01T12:04:25.136Z</time></trkpt><trkpt lat="44.1322973" lon="11.4933507"><ele>929.0000000000001</ele><time>2026-05-01T12:04:26.135Z</time></trkpt><trkpt lat="44.1323813" lon="11.4933783"><ele>929.0</ele><time>2026-05-01T12:04:27.136Z</time></trkpt><trkpt lat="44.1324693" lon="11.4933667"><ele>929.0</ele><time>2026-05-01T12:04:28.138Z</time></trkpt><trkpt lat="44.1325667" lon="11.4933153"><ele>930.0</ele><time>2026-05-01T12:04:29.135Z</time></trkpt><trkpt lat="44.132649" lon="11.4932393"><ele>931.0000000000001</ele><time>2026-05-01T12:04:30.136Z</time></trkpt><trkpt lat="44.1327077" lon="11.493148"><ele>932.0000000000001</ele><time>2026-05-01T12:04:31.136Z</time></trkpt><trkpt lat="44.1327437" lon="11.4930353"><ele>933.0</ele><time>2026-05-01T12:04:32.135Z</time></trkpt><trkpt lat="44.1327633" lon="11.4928962"><ele>934.0</ele><time>2026-05-01T12:04:33.135Z</time></trkpt><trkpt lat="44.1327772" lon="11.4927553"><ele>931.6</ele><time>2026-05-01T12:04:34.134Z</time></trkpt><trkpt lat="44.132796" lon="11.4926222"><ele>929.2</ele><time>2026-05-01T12:04:35.133Z</time></trkpt><trkpt lat="44.1328297" lon="11.492497"><ele>926.8000000000001</ele><time>2026-05-01T12:04:36.134Z</time></trkpt><trkpt lat="44.13288" lon="11.492384"><ele>924.4000000000001</ele><time>2026-05-01T12:04:37.134Z</time></trkpt><trkpt lat="44.1329423" lon="11.4923073"><ele>922.0</ele><time>2026-05-01T12:04:38.135Z</time></trkpt><trkpt lat="44.133019" lon="11.4922672"><ele>922.0</ele><time>2026-05-01T12:04:39.135Z</time></trkpt><trkpt lat="44.1331222" lon="11.492251"><ele>922.0</ele><time>2026-05-01T12:04:40.135Z</time></trkpt><trkpt lat="44.1332387" lon="11.4922538"><ele>922.0</ele><time>2026-05-01T12:04:41.134Z</time></trkpt><trkpt lat="44.133347" lon="11.492231"><ele>922.0</ele><time>2026-05-01T12:04:42.135Z</time></trkpt><trkpt lat="44.1334512" lon="11.4921782"><ele>922.0</ele><time>2026-05-01T12:04:43.134Z</time></trkpt><trkpt lat="44.1335598" lon="11.4920988"><ele>921.0</ele><time>2026-05-01T12:04:44.134Z</time></trkpt><trkpt lat="44.1336798" lon="11.4920348"><ele>920.0</ele><time>2026-05-01T12:04:45.135Z</time></trkpt><trkpt lat="44.1338012" lon="11.4919892"><ele>919.0</ele><time>2026-05-01T12:04:46.134Z</time></trkpt><trkpt lat="44.1339122" lon="11.4919472"><ele>918.0</ele><time>2026-05-01T12:04:47.135Z</time></trkpt><trkpt lat="44.1340082" lon="11.4919013"><ele>920.5999999999999</ele><time>2026-05-01T12:04:48.135Z</time></trkpt><trkpt lat="44.1340995" lon="11.4918385"><ele>923.1999999999999</ele><time>2026-05-01T12:04:49.14Z</time></trkpt><trkpt lat="44.1341777" lon="11.4917417"><ele>925.8</ele><time>2026-05-01T12:04:50.136Z</time></trkpt><trkpt lat="44.1342535" lon="11.4916355"><ele>928.4</ele><time>2026-05-01T12:04:51.137Z</time></trkpt><trkpt lat="44.1343197" lon="11.4915378"><ele>931.0</ele><time>2026-05-01T12:04:52.135Z</time></trkpt><trkpt lat="44.1343957" lon="11.4914672"><ele>931.0</ele><time>2026-05-01T12:04:53.137Z</time></trkpt><trkpt lat="44.1344777" lon="11.4914262"><ele>930.9999999999999</ele><time>2026-05-01T12:04:54.137Z</time></trkpt><trkpt lat="44.1345732" lon="11.4914067"><ele>930.9999999999999</ele><time>2026-05-01T12:04:55.137Z</time></trkpt><trkpt lat="44.134663" lon="11.4913923"><ele>931.0</ele><time>2026-05-01T12:04:56.135Z</time></trkpt><trkpt lat="44.1347623" lon="11.491362"><ele>931.0</ele><time>2026-05-01T12:04:57.137Z</time></trkpt><trkpt lat="44.1348655" lon="11.4912988"><ele>931.8</ele><time>2026-05-01T12:04:58.137Z</time></trkpt><trkpt lat="44.1349703" lon="11.4912238"><ele>932.5999999999999</ele><time>2026-05-01T12:04:59.135Z</time></trkpt><trkpt lat="44.1350673" lon="11.4911575"><ele>933.4</ele><time>2026-05-01T12:05:00.135Z</time></trkpt><trkpt lat="44.1351462" lon="11.4910908"><ele>934.2</ele><time>2026-05-01T12:05:01.135Z</time></trkpt><trkpt lat="44.1352075" lon="11.4910348"><ele>935.0</ele><time>2026-05-01T12:05:02.138Z</time></trkpt><trkpt lat="44.135292" lon="11.4910577"><ele>935.0000000000001</ele><time>2026-05-01T12:05:04.137Z</time></trkpt><trkpt lat="44.1353627" lon="11.491193"><ele>935.0</ele><time>2026-05-01T12:05:06.135Z</time></trkpt><trkpt lat="44.1354078" lon="11.491259"><ele>935.0</ele><time>2026-05-01T12:05:07.136Z</time></trkpt><trkpt lat="44.135467" lon="11.4913112"><ele>935.0</ele><time>2026-05-01T12:05:08.135Z</time></trkpt><trkpt lat="44.135535" lon="11.4913567"><ele>935.0000000000001</ele><time>2026-05-01T12:05:09.135Z</time></trkpt><trkpt lat="44.1356153" lon="11.4914083"><ele>935.0</ele><time>2026-05-01T12:05:10.134Z</time></trkpt><trkpt lat="44.1357113" lon="11.4914407"><ele>930.8</ele><time>2026-05-01T12:05:11.135Z</time></trkpt><trkpt lat="44.135811" lon="11.4914755"><ele>926.6</ele><time>2026-05-01T12:05:12.136Z</time></trkpt><trkpt lat="44.1359072" lon="11.4915175"><ele>922.4000000000001</ele><time>2026-05-01T12:05:13.134Z</time></trkpt><trkpt lat="44.1359953" lon="11.4915557"><ele>918.2</ele><time>2026-05-01T12:05:14.133Z</time></trkpt><trkpt lat="44.1360747" lon="11.4915942"><ele>914.0</ele><time>2026-05-01T12:05:15.135Z</time></trkpt><trkpt lat="44.1361453" lon="11.4916432"><ele>914.0</ele><time>2026-05-01T12:05:16.134Z</time></trkpt><trkpt lat="44.136218" lon="11.4917188"><ele>914.0000000000001</ele><time>2026-05-01T12:05:17.135Z</time></trkpt><trkpt lat="44.1362932" lon="11.491805"><ele>914.0000000000001</ele><time>2026-05-01T12:05:18.135Z</time></trkpt><trkpt lat="44.1363757" lon="11.4918912"><ele>914.0</ele><time>2026-05-01T12:05:19.136Z</time></trkpt><trkpt lat="44.1364587" lon="11.4919847"><ele>914.0</ele><time>2026-05-01T12:05:20.135Z</time></trkpt><trkpt lat="44.1365262" lon="11.4920887"><ele>911.0</ele><time>2026-05-01T12:05:21.136Z</time></trkpt><trkpt lat="44.1365655" lon="11.492206"><ele>908.0000000000001</ele><time>2026-05-01T12:05:22.135Z</time></trkpt><trkpt lat="44.1365828" lon="11.4923442"><ele>905.0000000000001</ele><time>2026-05-01T12:05:23.134Z</time></trkpt><trkpt lat="44.1365878" lon="11.4924915"><ele>902.0</ele><time>2026-05-01T12:05:24.134Z</time></trkpt><trkpt lat="44.1366025" lon="11.4926125"><ele>899.0</ele><time>2026-05-01T12:05:25.133Z</time></trkpt><trkpt lat="44.1366293" lon="11.4927127"><ele>899.0</ele><time>2026-05-01T12:05:26.133Z</time></trkpt><trkpt lat="44.1366755" lon="11.4927937"><ele>899.0000000000001</ele><time>2026-05-01T12:05:27.133Z</time></trkpt><trkpt lat="44.1367513" lon="11.4928765"><ele>899.0000000000001</ele><time>2026-05-01T12:05:28.136Z</time></trkpt><trkpt lat="44.13683" lon="11.4929798"><ele>899.0</ele><time>2026-05-01T12:05:29.136Z</time></trkpt><trkpt lat="44.1369" lon="11.4930685"><ele>899.0</ele><time>2026-05-01T12:05:30.136Z</time></trkpt><trkpt lat="44.1369713" lon="11.4931393"><ele>896.8333333333334</ele><time>2026-05-01T12:05:31.136Z</time></trkpt><trkpt lat="44.137041" lon="11.4932137"><ele>894.6666666666667</ele><time>2026-05-01T12:05:32.136Z</time></trkpt><trkpt lat="44.1370927" lon="11.4932875"><ele>892.5</ele><time>2026-05-01T12:05:33.137Z</time></trkpt><trkpt lat="44.1371377" lon="11.493369"><ele>890.3333333333333</ele><time>2026-05-01T12:05:34.136Z</time></trkpt><trkpt lat="44.1371945" lon="11.493439"><ele>888.1666666666666</ele><time>2026-05-01T12:05:35.135Z</time></trkpt><trkpt lat="44.1372802" lon="11.4934988"><ele>886.0</ele><time>2026-05-01T12:05:36.135Z</time></trkpt><trkpt lat="44.1373488" lon="11.493583"><ele>886.8</ele><time>2026-05-01T12:05:37.135Z</time></trkpt><trkpt lat="44.1373923" lon="11.4936893"><ele>887.5999999999999</ele><time>2026-05-01T12:05:38.134Z</time></trkpt><trkpt lat="44.1374283" lon="11.493786"><ele>888.4</ele><time>2026-05-01T12:05:39.134Z</time></trkpt><trkpt lat="44.137483" lon="11.4938617"><ele>889.2</ele><time>2026-05-01T12:05:40.135Z</time></trkpt><trkpt lat="44.1375547" lon="11.4939562"><ele>890.0</ele><time>2026-05-01T12:05:41.135Z</time></trkpt><trkpt lat="44.1376477" lon="11.4940717"><ele>890.0</ele><time>2026-05-01T12:05:42.137Z</time></trkpt><trkpt lat="44.1377402" lon="11.4941678"><ele>890.0</ele><time>2026-05-01T12:05:43.135Z</time></trkpt><trkpt lat="44.1378342" lon="11.4942308"><ele>890.0</ele><time>2026-05-01T12:05:44.135Z</time></trkpt><trkpt lat="44.1379267" lon="11.4942768"><ele>890.0</ele><time>2026-05-01T12:05:45.136Z</time></trkpt><trkpt lat="44.1379948" lon="11.4943423"><ele>890.0</ele><time>2026-05-01T12:05:46.136Z</time></trkpt><trkpt lat="44.1380453" lon="11.4944262"><ele>890.0</ele><time>2026-05-01T12:05:47.134Z</time></trkpt><trkpt lat="44.1381013" lon="11.4945388"><ele>890.0</ele><time>2026-05-01T12:05:48.133Z</time></trkpt><trkpt lat="44.1381795" lon="11.494674"><ele>890.0</ele><time>2026-05-01T12:05:49.133Z</time></trkpt><trkpt lat="44.1382722" lon="11.4948023"><ele>890.0</ele><time>2026-05-01T12:05:50.132Z</time></trkpt><trkpt lat="44.1383632" lon="11.4949175"><ele>894.75</ele><time>2026-05-01T12:05:51.132Z</time></trkpt><trkpt lat="44.1384502" lon="11.4950393"><ele>899.5</ele><time>2026-05-01T12:05:52.134Z</time></trkpt><trkpt lat="44.1385315" lon="11.4951658"><ele>904.25</ele><time>2026-05-01T12:05:53.134Z</time></trkpt><trkpt lat="44.1386075" lon="11.4952818"><ele>909.0</ele><time>2026-05-01T12:05:54.134Z</time></trkpt><trkpt lat="44.1386823" lon="11.4953843"><ele>909.6</ele><time>2026-05-01T12:05:55.135Z</time></trkpt><trkpt lat="44.1387503" lon="11.495464"><ele>910.2</ele><time>2026-05-01T12:05:56.134Z</time></trkpt><trkpt lat="44.1388242" lon="11.495536"><ele>910.8000000000001</ele><time>2026-05-01T12:05:57.134Z</time></trkpt><trkpt lat="44.1388962" lon="11.4956327"><ele>911.4000000000001</ele><time>2026-05-01T12:05:58.135Z</time></trkpt><trkpt lat="44.1389687" lon="11.4957277"><ele>912.0</ele><time>2026-05-01T12:05:59.135Z</time></trkpt><trkpt lat="44.1390472" lon="11.4958238"><ele>915.4000000000001</ele><time>2026-05-01T12:06:00.135Z</time></trkpt><trkpt lat="44.1391218" lon="11.4959243"><ele>918.8000000000001</ele><time>2026-05-01T12:06:01.135Z</time></trkpt><trkpt lat="44.1391997" lon="11.4960252"><ele>922.2</ele><time>2026-05-01T12:06:02.135Z</time></trkpt><trkpt lat="44.13925" lon="11.4961183"><ele>925.6</ele><time>2026-05-01T12:06:03.136Z</time></trkpt><trkpt lat="44.1392982" lon="11.4962433"><ele>929.0</ele><time>2026-05-01T12:06:04.135Z</time></trkpt><trkpt lat="44.1393555" lon="11.4963805"><ele>931.8000000000001</ele><time>2026-05-01T12:06:05.134Z</time></trkpt><trkpt lat="44.1394255" lon="11.4965062"><ele>934.6000000000001</ele><time>2026-05-01T12:06:06.134Z</time></trkpt><trkpt lat="44.1395068" lon="11.4966162"><ele>937.4</ele><time>2026-05-01T12:06:07.136Z</time></trkpt><trkpt lat="44.139596" lon="11.4967023"><ele>940.2</ele><time>2026-05-01T12:06:08.132Z</time></trkpt><trkpt lat="44.1396865" lon="11.4967655"><ele>943.0</ele><time>2026-05-01T12:06:09.134Z</time></trkpt><trkpt lat="44.1397665" lon="11.4967952"><ele>942.9999999999999</ele><time>2026-05-01T12:06:10.133Z</time></trkpt><trkpt lat="44.1398547" lon="11.4968117"><ele>943.0</ele><time>2026-05-01T12:06:11.134Z</time></trkpt><trkpt lat="44.1399258" lon="11.4968397"><ele>943.0</ele><time>2026-05-01T12:06:12.133Z</time></trkpt><trkpt lat="44.1399902" lon="11.4968898"><ele>943.0</ele><time>2026-05-01T12:06:13.132Z</time></trkpt><trkpt lat="44.1400363" lon="11.4969537"><ele>942.9999999999999</ele><time>2026-05-01T12:06:14.13Z</time></trkpt><trkpt lat="44.1400912" lon="11.4970383"><ele>943.0</ele><time>2026-05-01T12:06:15.132Z</time></trkpt><trkpt lat="44.1401633" lon="11.4971132"><ele>945.5</ele><time>2026-05-01T12:06:16.131Z</time></trkpt><trkpt lat="44.1402697" lon="11.497191"><ele>948.0</ele><time>2026-05-01T12:06:17.136Z</time></trkpt><trkpt lat="44.1403785" lon="11.497265"><ele>950.5</ele><time>2026-05-01T12:06:18.133Z</time></trkpt><trkpt lat="44.1404875" lon="11.4973203"><ele>953.0</ele><time>2026-05-01T12:06:19.135Z</time></trkpt><trkpt lat="44.1405978" lon="11.4973435"><ele>953.0</ele><time>2026-05-01T12:06:20.133Z</time></trkpt><trkpt lat="44.140715" lon="11.4973698"><ele>953.0</ele><time>2026-05-01T12:06:21.135Z</time></trkpt><trkpt lat="44.1408177" lon="11.4973985"><ele>953.0</ele><time>2026-05-01T12:06:22.133Z</time></trkpt><trkpt lat="44.1409218" lon="11.4974045"><ele>953.0</ele><time>2026-05-01T12:06:23.135Z</time></trkpt><trkpt lat="44.1410288" lon="11.4973827"><ele>953.0</ele><time>2026-05-01T12:06:24.136Z</time></trkpt><trkpt lat="44.141133" lon="11.497373"><ele>950.2</ele><time>2026-05-01T12:06:25.135Z</time></trkpt><trkpt lat="44.1412308" lon="11.4973867"><ele>947.4</ele><time>2026-05-01T12:06:26.135Z</time></trkpt><trkpt lat="44.141325" lon="11.4974223"><ele>944.6000000000001</ele><time>2026-05-01T12:06:27.138Z</time></trkpt><trkpt lat="44.141434" lon="11.4974597"><ele>941.8000000000001</ele><time>2026-05-01T12:06:28.134Z</time></trkpt><trkpt lat="44.1415415" lon="11.4974622"><ele>939.0</ele><time>2026-05-01T12:06:29.135Z</time></trkpt><trkpt lat="44.1416327" lon="11.4974468"><ele>938.2</ele><time>2026-05-01T12:06:30.134Z</time></trkpt><trkpt lat="44.1417173" lon="11.4974418"><ele>937.4000000000001</ele><time>2026-05-01T12:06:31.134Z</time></trkpt><trkpt lat="44.1418107" lon="11.497442"><ele>936.6</ele><time>2026-05-01T12:06:32.134Z</time></trkpt><trkpt lat="44.1419162" lon="11.4974397"><ele>935.8</ele><time>2026-05-01T12:06:33.134Z</time></trkpt><trkpt lat="44.1420183" lon="11.497443"><ele>935.0</ele><time>2026-05-01T12:06:34.134Z</time></trkpt><trkpt lat="44.1421053" lon="11.4974523"><ele>935.0</ele><time>2026-05-01T12:06:35.133Z</time></trkpt><trkpt lat="44.1421868" lon="11.4974865"><ele>935.0</ele><time>2026-05-01T12:06:36.136Z</time></trkpt><trkpt lat="44.142278" lon="11.497535"><ele>935.0</ele><time>2026-05-01T12:06:37.134Z</time></trkpt><trkpt lat="44.1423802" lon="11.4975778"><ele>935.0</ele><time>2026-05-01T12:06:38.133Z</time></trkpt><trkpt lat="44.1424917" lon="11.4976182"><ele>935.0</ele><time>2026-05-01T12:06:39.134Z</time></trkpt><trkpt lat="44.1426288" lon="11.497643"><ele>933.0</ele><time>2026-05-01T12:06:40.135Z</time></trkpt><trkpt lat="44.14277" lon="11.497663"><ele>931.0</ele><time>2026-05-01T12:06:41.135Z</time></trkpt><trkpt lat="44.1428965" lon="11.4976842"><ele>929.0</ele><time>2026-05-01T12:06:42.135Z</time></trkpt><trkpt lat="44.1430095" lon="11.4977178"><ele>927.0</ele><time>2026-05-01T12:06:43.135Z</time></trkpt><trkpt lat="44.1431088" lon="11.497749"><ele>927.0</ele><time>2026-05-01T12:06:44.134Z</time></trkpt><trkpt lat="44.1431988" lon="11.4977562"><ele>927.0</ele><time>2026-05-01T12:06:45.135Z</time></trkpt><trkpt lat="44.1432777" lon="11.4977373"><ele>927.0</ele><time>2026-05-01T12:06:46.135Z</time></trkpt><trkpt lat="44.1433393" lon="11.4977015"><ele>927.0</ele><time>2026-05-01T12:06:47.135Z</time></trkpt><trkpt lat="44.1434395" lon="11.4976155"><ele>927.0</ele><time>2026-05-01T12:06:49.135Z</time></trkpt><trkpt lat="44.1435432" lon="11.497529"><ele>926.0</ele><time>2026-05-01T12:06:51.137Z</time></trkpt><trkpt lat="44.1436565" lon="11.497435"><ele>925.0</ele><time>2026-05-01T12:06:53.139Z</time></trkpt><trkpt lat="44.1437302" lon="11.4973765"><ele>924.0</ele><time>2026-05-01T12:06:54.138Z</time></trkpt><trkpt lat="44.1438267" lon="11.4973167"><ele>923.0</ele><time>2026-05-01T12:06:55.137Z</time></trkpt><trkpt lat="44.1439425" lon="11.4972542"><ele>922.0</ele><time>2026-05-01T12:06:56.137Z</time></trkpt><trkpt lat="44.1440573" lon="11.49719"><ele>919.75</ele><time>2026-05-01T12:06:57.137Z</time></trkpt><trkpt lat="44.1441567" lon="11.4971183"><ele>917.5</ele><time>2026-05-01T12:06:58.136Z</time></trkpt><trkpt lat="44.1442458" lon="11.4970222"><ele>915.25</ele><time>2026-05-01T12:06:59.14Z</time></trkpt><trkpt lat="44.1443295" lon="11.4968977"><ele>913.0</ele><time>2026-05-01T12:07:00.136Z</time></trkpt><trkpt lat="44.1444033" lon="11.496772"><ele>913.0</ele><time>2026-05-01T12:07:01.135Z</time></trkpt><trkpt lat="44.144473" lon="11.4966578"><ele>913.0</ele><time>2026-05-01T12:07:02.134Z</time></trkpt><trkpt lat="44.1445533" lon="11.4965723"><ele>913.0</ele><time>2026-05-01T12:07:03.135Z</time></trkpt><trkpt lat="44.1446563" lon="11.496509"><ele>913.0</ele><time>2026-05-01T12:07:04.135Z</time></trkpt><trkpt lat="44.144759" lon="11.4964548"><ele>913.0</ele><time>2026-05-01T12:07:05.135Z</time></trkpt><trkpt lat="44.144865" lon="11.4963912"><ele>911.3333333333333</ele><time>2026-05-01T12:07:06.136Z</time></trkpt><trkpt lat="44.144987" lon="11.496312"><ele>909.6666666666667</ele><time>2026-05-01T12:07:07.136Z</time></trkpt><trkpt lat="44.1451438" lon="11.4962277"><ele>908.0</ele><time>2026-05-01T12:07:08.138Z</time></trkpt><trkpt lat="44.1453318" lon="11.4961558"><ele>906.6666666666667</ele><time>2026-05-01T12:07:09.135Z</time></trkpt><trkpt lat="44.1455148" lon="11.4961017"><ele>905.3333333333333</ele><time>2026-05-01T12:07:10.136Z</time></trkpt><trkpt lat="44.145681" lon="11.496058"><ele>904.0</ele><time>2026-05-01T12:07:11.135Z</time></trkpt><trkpt lat="44.1458268" lon="11.4960142"><ele>903.75</ele><time>2026-05-01T12:07:12.136Z</time></trkpt><trkpt lat="44.1459467" lon="11.4959678"><ele>903.5</ele><time>2026-05-01T12:07:13.137Z</time></trkpt><trkpt lat="44.1460593" lon="11.4959088"><ele>903.25</ele><time>2026-05-01T12:07:14.137Z</time></trkpt><trkpt lat="44.1461673" lon="11.4958467"><ele>903.0</ele><time>2026-05-01T12:07:15.137Z</time></trkpt><trkpt lat="44.1462698" lon="11.4957982"><ele>903.0</ele><time>2026-05-01T12:07:16.138Z</time></trkpt><trkpt lat="44.146359" lon="11.4957503"><ele>903.0</ele><time>2026-05-01T12:07:17.139Z</time></trkpt><trkpt lat="44.1464372" lon="11.4956837"><ele>903.0</ele><time>2026-05-01T12:07:18.137Z</time></trkpt><trkpt lat="44.1465105" lon="11.4956012"><ele>903.0</ele><time>2026-05-01T12:07:19.136Z</time></trkpt><trkpt lat="44.1465805" lon="11.4955073"><ele>903.0</ele><time>2026-05-01T12:07:20.137Z</time></trkpt><trkpt lat="44.1466408" lon="11.4954137"><ele>901.3333333333334</ele><time>2026-05-01T12:07:21.138Z</time></trkpt><trkpt lat="44.1466877" lon="11.495301"><ele>899.6666666666667</ele><time>2026-05-01T12:07:22.137Z</time></trkpt><trkpt lat="44.1467252" lon="11.4951737"><ele>898.0</ele><time>2026-05-01T12:07:23.135Z</time></trkpt><trkpt lat="44.1467562" lon="11.4950502"><ele>896.3333333333334</ele><time>2026-05-01T12:07:24.137Z</time></trkpt><trkpt lat="44.1467837" lon="11.4949357"><ele>894.6666666666667</ele><time>2026-05-01T12:07:25.136Z</time></trkpt><trkpt lat="44.146808" lon="11.4948377"><ele>893.0</ele><time>2026-05-01T12:07:26.134Z</time></trkpt><trkpt lat="44.1468342" lon="11.494752"><ele>893.0</ele><time>2026-05-01T12:07:27.133Z</time></trkpt><trkpt lat="44.1468922" lon="11.4946798"><ele>893.0</ele><time>2026-05-01T12:07:29.134Z</time></trkpt><trkpt lat="44.1469233" lon="11.4947727"><ele>893.0</ele><time>2026-05-01T12:07:31.137Z</time></trkpt><trkpt lat="44.1469287" lon="11.4948838"><ele>893.0</ele><time>2026-05-01T12:07:32.136Z</time></trkpt><trkpt lat="44.1469338" lon="11.49504"><ele>893.0</ele><time>2026-05-01T12:07:33.136Z</time></trkpt><trkpt lat="44.1469423" lon="11.4952087"><ele>893.0</ele><time>2026-05-01T12:07:34.134Z</time></trkpt><trkpt lat="44.1469588" lon="11.4953838"><ele>893.0</ele><time>2026-05-01T12:07:35.134Z</time></trkpt><trkpt lat="44.146978" lon="11.4955503"><ele>893.0</ele><time>2026-05-01T12:07:36.135Z</time></trkpt><trkpt lat="44.1469877" lon="11.4957012"><ele>893.0</ele><time>2026-05-01T12:07:37.135Z</time></trkpt><trkpt lat="44.1469778" lon="11.4958505"><ele>893.8333333333334</ele><time>2026-05-01T12:07:38.132Z</time></trkpt><trkpt lat="44.1469468" lon="11.4959817"><ele>894.6666666666667</ele><time>2026-05-01T12:07:39.133Z</time></trkpt><trkpt lat="44.1469268" lon="11.4960917"><ele>895.5</ele><time>2026-05-01T12:07:40.133Z</time></trkpt><trkpt lat="44.1469338" lon="11.496193"><ele>896.3333333333333</ele><time>2026-05-01T12:07:41.133Z</time></trkpt><trkpt lat="44.1469747" lon="11.4962683"><ele>897.1666666666666</ele><time>2026-05-01T12:07:42.133Z</time></trkpt><trkpt lat="44.1470305" lon="11.4963292"><ele>898.0</ele><time>2026-05-01T12:07:43.134Z</time></trkpt><trkpt lat="44.1470988" lon="11.4963863"><ele>893.8</ele><time>2026-05-01T12:07:44.134Z</time></trkpt><trkpt lat="44.1471772" lon="11.4964378"><ele>889.5999999999999</ele><time>2026-05-01T12:07:45.136Z</time></trkpt><trkpt lat="44.1472662" lon="11.496493"><ele>885.4000000000001</ele><time>2026-05-01T12:07:46.136Z</time></trkpt><trkpt lat="44.147356" lon="11.49656"><ele>881.2</ele><time>2026-05-01T12:07:47.135Z</time></trkpt><trkpt lat="44.1474373" lon="11.4966503"><ele>877.0</ele><time>2026-05-01T12:07:48.135Z</time></trkpt><trkpt lat="44.1475098" lon="11.4967495"><ele>876.9999999999999</ele><time>2026-05-01T12:07:49.136Z</time></trkpt><trkpt lat="44.1475717" lon="11.4968462"><ele>877.0</ele><time>2026-05-01T12:07:50.134Z</time></trkpt><trkpt lat="44.1476138" lon="11.4969273"><ele>877.0</ele><time>2026-05-01T12:07:51.133Z</time></trkpt><trkpt lat="44.1476362" lon="11.4970368"><ele>877.0</ele><time>2026-05-01T12:07:53.132Z</time></trkpt><trkpt lat="44.1475738" lon="11.4969518"><ele>876.9999999999999</ele><time>2026-05-01T12:13:35.137Z</time></trkpt><trkpt lat="44.1475177" lon="11.4968937"><ele>877.0</ele><time>2026-05-01T12:13:36.137Z</time></trkpt><trkpt lat="44.1474473" lon="11.4968388"><ele>877.0</ele><time>2026-05-01T12:13:37.138Z</time></trkpt><trkpt lat="44.1473628" lon="11.4967907"><ele>877.0</ele><time>2026-05-01T12:13:38.138Z</time></trkpt><trkpt lat="44.147267" lon="11.4967538"><ele>877.0</ele><time>2026-05-01T12:13:39.139Z</time></trkpt><trkpt lat="44.1471653" lon="11.4967245"><ele>877.0</ele><time>2026-05-01T12:13:40.14Z</time></trkpt><trkpt lat="44.1470613" lon="11.4966817"><ele>877.0</ele><time>2026-05-01T12:13:41.139Z</time></trkpt><trkpt lat="44.1469592" lon="11.496613"><ele>877.0</ele><time>2026-05-01T12:13:42.141Z</time></trkpt><trkpt lat="44.1468525" lon="11.4965382"><ele>877.0</ele><time>2026-05-01T12:13:43.139Z</time></trkpt><trkpt lat="44.1467363" lon="11.4964787"><ele>877.0</ele><time>2026-05-01T12:13:44.137Z</time></trkpt><trkpt lat="44.1466127" lon="11.4964393"><ele>877.0</ele><time>2026-05-01T12:13:45.139Z</time></trkpt><trkpt lat="44.1464867" lon="11.4964285"><ele>880.0</ele><time>2026-05-01T12:13:46.139Z</time></trkpt><trkpt lat="44.1463638" lon="11.4964648"><ele>883.0</ele><time>2026-05-01T12:13:47.137Z</time></trkpt><trkpt lat="44.1462478" lon="11.4965428"><ele>886.0</ele><time>2026-05-01T12:13:48.137Z</time></trkpt><trkpt lat="44.1461295" lon="11.496626"><ele>889.0</ele><time>2026-05-01T12:13:49.137Z</time></trkpt><trkpt lat="44.1460027" lon="11.496682"><ele>889.0</ele><time>2026-05-01T12:13:50.137Z</time></trkpt><trkpt lat="44.1458692" lon="11.496719"><ele>889.0</ele><time>2026-05-01T12:13:51.137Z</time></trkpt><trkpt lat="44.1457352" lon="11.49676"><ele>889.0</ele><time>2026-05-01T12:13:52.137Z</time></trkpt><trkpt lat="44.1456038" lon="11.49682"><ele>889.0</ele><time>2026-05-01T12:13:53.137Z</time></trkpt><trkpt lat="44.1454795" lon="11.4969015"><ele>888.25</ele><time>2026-05-01T12:13:54.137Z</time></trkpt><trkpt lat="44.145365" lon="11.4970102"><ele>887.5</ele><time>2026-05-01T12:13:55.136Z</time></trkpt><trkpt lat="44.145259" lon="11.4971342"><ele>886.75</ele><time>2026-05-01T12:13:56.136Z</time></trkpt><trkpt lat="44.1451563" lon="11.4972658"><ele>886.0</ele><time>2026-05-01T12:13:57.138Z</time></trkpt><trkpt lat="44.1450577" lon="11.4974073"><ele>886.0</ele><time>2026-05-01T12:13:58.136Z</time></trkpt><trkpt lat="44.1449602" lon="11.4975518"><ele>886.0</ele><time>2026-05-01T12:13:59.135Z</time></trkpt><trkpt lat="44.1448617" lon="11.497693"><ele>886.0</ele><time>2026-05-01T12:14:00.135Z</time></trkpt><trkpt lat="44.1447585" lon="11.497828"><ele>886.0</ele><time>2026-05-01T12:14:01.145Z</time></trkpt><trkpt lat="44.1446465" lon="11.4979493"><ele>888.0</ele><time>2026-05-01T12:14:02.146Z</time></trkpt><trkpt lat="44.1445267" lon="11.4980565"><ele>890.0</ele><time>2026-05-01T12:14:03.137Z</time></trkpt><trkpt lat="44.1444018" lon="11.4981555"><ele>892.0</ele><time>2026-05-01T12:14:04.136Z</time></trkpt><trkpt lat="44.1442773" lon="11.4982537"><ele>894.0</ele><time>2026-05-01T12:14:05.136Z</time></trkpt><trkpt lat="44.1441607" lon="11.4983642"><ele>894.0</ele><time>2026-05-01T12:14:06.138Z</time></trkpt><trkpt lat="44.1440588" lon="11.4984965"><ele>894.0</ele><time>2026-05-01T12:14:07.136Z</time></trkpt><trkpt lat="44.1439738" lon="11.4986513"><ele>894.0</ele><time>2026-05-01T12:14:08.137Z</time></trkpt><trkpt lat="44.143911" lon="11.4988232"><ele>894.0</ele><time>2026-05-01T12:14:09.138Z</time></trkpt><trkpt lat="44.1438665" lon="11.4990048"><ele>892.5</ele><time>2026-05-01T12:14:10.137Z</time></trkpt><trkpt lat="44.1438363" lon="11.4991932"><ele>891.0</ele><time>2026-05-01T12:14:11.137Z</time></trkpt><trkpt lat="44.1438157" lon="11.4993835"><ele>889.5</ele><time>2026-05-01T12:14:12.137Z</time></trkpt><trkpt lat="44.1437978" lon="11.4995697"><ele>888.0</ele><time>2026-05-01T12:14:13.137Z</time></trkpt><trkpt lat="44.1437807" lon="11.4997397"><ele>888.0</ele><time>2026-05-01T12:14:14.135Z</time></trkpt><trkpt lat="44.1437685" lon="11.4998973"><ele>888.0</ele><time>2026-05-01T12:14:15.138Z</time></trkpt><trkpt lat="44.1437643" lon="11.5000458"><ele>888.0</ele><time>2026-05-01T12:14:16.139Z</time></trkpt><trkpt lat="44.1437703" lon="11.500181"><ele>888.0</ele><time>2026-05-01T12:14:17.137Z</time></trkpt><trkpt lat="44.143787" lon="11.5003015"><ele>888.0</ele><time>2026-05-01T12:14:18.138Z</time></trkpt><trkpt lat="44.143813" lon="11.5004045"><ele>887.8571428571428</ele><time>2026-05-01T12:14:19.138Z</time></trkpt><trkpt lat="44.1438445" lon="11.5004957"><ele>887.7142857142858</ele><time>2026-05-01T12:14:20.138Z</time></trkpt><trkpt lat="44.1438823" lon="11.5005748"><ele>887.5714285714286</ele><time>2026-05-01T12:14:21.137Z</time></trkpt><trkpt lat="44.1439212" lon="11.5006477"><ele>887.4285714285713</ele><time>2026-05-01T12:14:22.136Z</time></trkpt><trkpt lat="44.1439618" lon="11.5007178"><ele>887.2857142857142</ele><time>2026-05-01T12:14:23.134Z</time></trkpt><trkpt lat="44.1440152" lon="11.5007805"><ele>887.1428571428571</ele><time>2026-05-01T12:14:24.135Z</time></trkpt><trkpt lat="44.1440777" lon="11.5008427"><ele>887.0</ele><time>2026-05-01T12:14:25.135Z</time></trkpt><trkpt lat="44.1441543" lon="11.5009002"><ele>887.0000000000001</ele><time>2026-05-01T12:14:26.137Z</time></trkpt><trkpt lat="44.144235" lon="11.5009505"><ele>887.0</ele><time>2026-05-01T12:14:27.136Z</time></trkpt><trkpt lat="44.1443075" lon="11.5009953"><ele>887.0</ele><time>2026-05-01T12:14:28.136Z</time></trkpt><trkpt lat="44.1443738" lon="11.5010507"><ele>887.0</ele><time>2026-05-01T12:14:29.135Z</time></trkpt><trkpt lat="44.1444303" lon="11.5011233"><ele>887.0000000000001</ele><time>2026-05-01T12:14:30.139Z</time></trkpt><trkpt lat="44.1444805" lon="11.5012063"><ele>887.0</ele><time>2026-05-01T12:14:31.137Z</time></trkpt><trkpt lat="44.1445193" lon="11.5012947"><ele>889.5000000000001</ele><time>2026-05-01T12:14:32.135Z</time></trkpt><trkpt lat="44.1445408" lon="11.5013828"><ele>892.0</ele><time>2026-05-01T12:14:33.136Z</time></trkpt><trkpt lat="44.1445412" lon="11.5014713"><ele>894.5</ele><time>2026-05-01T12:14:34.136Z</time></trkpt><trkpt lat="44.1445645" lon="11.5016328"><ele>897.0</ele><time>2026-05-01T12:14:36.135Z</time></trkpt><trkpt lat="44.1445955" lon="11.5017958"><ele>899.5000000000001</ele><time>2026-05-01T12:14:38.135Z</time></trkpt><trkpt lat="44.1446257" lon="11.5018782"><ele>902.0</ele><time>2026-05-01T12:14:39.136Z</time></trkpt><trkpt lat="44.1446552" lon="11.5019648"><ele>902.0000000000001</ele><time>2026-05-01T12:14:40.137Z</time></trkpt><trkpt lat="44.1446868" lon="11.5020538"><ele>902.0</ele><time>2026-05-01T12:14:41.136Z</time></trkpt><trkpt lat="44.1447208" lon="11.5021483"><ele>902.0</ele><time>2026-05-01T12:14:42.136Z</time></trkpt><trkpt lat="44.1447527" lon="11.5022438"><ele>902.0</ele><time>2026-05-01T12:14:43.137Z</time></trkpt><trkpt lat="44.144772" lon="11.5023457"><ele>902.0000000000001</ele><time>2026-05-01T12:14:44.135Z</time></trkpt><trkpt lat="44.1447862" lon="11.5024522"><ele>902.0</ele><time>2026-05-01T12:14:45.135Z</time></trkpt><trkpt lat="44.1448002" lon="11.5025632"><ele>901.8333333333334</ele><time>2026-05-01T12:14:46.135Z</time></trkpt><trkpt lat="44.1448065" lon="11.5026725"><ele>901.6666666666667</ele><time>2026-05-01T12:14:47.134Z</time></trkpt><trkpt lat="44.1448062" lon="11.5027808"><ele>901.5</ele><time>2026-05-01T12:14:48.134Z</time></trkpt><trkpt lat="44.1447942" lon="11.5028857"><ele>901.3333333333333</ele><time>2026-05-01T12:14:49.134Z</time></trkpt><trkpt lat="44.1447628" lon="11.502998"><ele>901.1666666666666</ele><time>2026-05-01T12:14:50.135Z</time></trkpt><trkpt lat="44.1447452" lon="11.5031278"><ele>901.0</ele><time>2026-05-01T12:14:51.136Z</time></trkpt><trkpt lat="44.1447378" lon="11.503256"><ele>900.9999999999999</ele><time>2026-05-01T12:14:52.136Z</time></trkpt><trkpt lat="44.1447533" lon="11.5033738"><ele>901.0</ele><time>2026-05-01T12:14:53.136Z</time></trkpt><trkpt lat="44.1447873" lon="11.5034745"><ele>901.0</ele><time>2026-05-01T12:14:54.137Z</time></trkpt><trkpt lat="44.1448282" lon="11.5035415"><ele>901.0</ele><time>2026-05-01T12:14:55.135Z</time></trkpt><trkpt lat="44.1449085" lon="11.5035965"><ele>900.9999999999999</ele><time>2026-05-01T12:14:57.136Z</time></trkpt><trkpt lat="44.1449693" lon="11.5036588"><ele>901.0</ele><time>2026-05-01T12:15:03.132Z</time></trkpt><trkpt lat="44.1450243" lon="11.5037018"><ele>901.8333333333333</ele><time>2026-05-01T12:15:05.135Z</time></trkpt><trkpt lat="44.1451463" lon="11.503763"><ele>902.6666666666666</ele><time>2026-05-01T12:15:07.133Z</time></trkpt><trkpt lat="44.145207" lon="11.5038165"><ele>903.5</ele><time>2026-05-01T12:15:08.134Z</time></trkpt><trkpt lat="44.1452592" lon="11.503885"><ele>904.3333333333333</ele><time>2026-05-01T12:15:09.133Z</time></trkpt><trkpt lat="44.1453135" lon="11.5039618"><ele>905.1666666666666</ele><time>2026-05-01T12:15:10.134Z</time></trkpt><trkpt lat="44.1453568" lon="11.5040365"><ele>906.0</ele><time>2026-05-01T12:15:11.134Z</time></trkpt><trkpt lat="44.1453625" lon="11.5041878"><ele>906.0</ele><time>2026-05-01T12:15:13.133Z</time></trkpt><trkpt lat="44.1453487" lon="11.5042752"><ele>906.0</ele><time>2026-05-01T12:15:14.132Z</time></trkpt><trkpt lat="44.1453465" lon="11.5043658"><ele>906.0</ele><time>2026-05-01T12:15:15.132Z</time></trkpt><trkpt lat="44.1453413" lon="11.504465"><ele>906.0</ele><time>2026-05-01T12:15:16.132Z</time></trkpt><trkpt lat="44.1453385" lon="11.5045873"><ele>906.0</ele><time>2026-05-01T12:15:17.133Z</time></trkpt><trkpt lat="44.1453423" lon="11.5047043"><ele>906.0</ele><time>2026-05-01T12:15:18.133Z</time></trkpt><trkpt lat="44.1453567" lon="11.5048117"><ele>909.7142857142856</ele><time>2026-05-01T12:15:19.134Z</time></trkpt><trkpt lat="44.1453685" lon="11.5049098"><ele>913.4285714285713</ele><time>2026-05-01T12:15:20.134Z</time></trkpt><trkpt lat="44.1453803" lon="11.5050148"><ele>917.1428571428571</ele><time>2026-05-01T12:15:21.133Z</time></trkpt><trkpt lat="44.1454007" lon="11.5051178"><ele>920.8571428571428</ele><time>2026-05-01T12:15:22.132Z</time></trkpt><trkpt lat="44.145409" lon="11.5052173"><ele>924.5714285714284</ele><time>2026-05-01T12:15:23.133Z</time></trkpt><trkpt lat="44.1454257" lon="11.5053067"><ele>928.2857142857143</ele><time>2026-05-01T12:15:24.133Z</time></trkpt><trkpt lat="44.1454603" lon="11.5053873"><ele>932.0</ele><time>2026-05-01T12:15:25.132Z</time></trkpt><trkpt lat="44.1455088" lon="11.5054528"><ele>929.2</ele><time>2026-05-01T12:15:26.134Z</time></trkpt><trkpt lat="44.14558" lon="11.5054937"><ele>926.4000000000001</ele><time>2026-05-01T12:15:27.132Z</time></trkpt><trkpt lat="44.1456665" lon="11.5055135"><ele>923.5999999999999</ele><time>2026-05-01T12:15:28.131Z</time></trkpt><trkpt lat="44.1457358" lon="11.5055333"><ele>920.8</ele><time>2026-05-01T12:15:29.132Z</time></trkpt><trkpt lat="44.1458477" lon="11.5055608"><ele>918.0</ele><time>2026-05-01T12:15:31.133Z</time></trkpt><trkpt lat="44.1459698" lon="11.5056227"><ele>918.0</ele><time>2026-05-01T12:15:33.135Z</time></trkpt><trkpt lat="44.1460455" lon="11.505636"><ele>918.0</ele><time>2026-05-01T12:15:34.133Z</time></trkpt><trkpt lat="44.1461147" lon="11.5056543"><ele>918.0</ele><time>2026-05-01T12:15:35.132Z</time></trkpt><trkpt lat="44.1461773" lon="11.5056833"><ele>918.0</ele><time>2026-05-01T12:15:36.131Z</time></trkpt><trkpt lat="44.1462398" lon="11.5057355"><ele>918.0</ele><time>2026-05-01T12:15:37.131Z</time></trkpt><trkpt lat="44.1463042" lon="11.5057968"><ele>918.0</ele><time>2026-05-01T12:15:38.13Z</time></trkpt><trkpt lat="44.1463737" lon="11.5058585"><ele>918.0</ele><time>2026-05-01T12:15:39.131Z</time></trkpt><trkpt lat="44.1464313" lon="11.5059135"><ele>918.0</ele><time>2026-05-01T12:15:40.132Z</time></trkpt><trkpt lat="44.1464848" lon="11.505967"><ele>918.0</ele><time>2026-05-01T12:15:41.132Z</time></trkpt><trkpt lat="44.1465552" lon="11.5061185"><ele>918.0</ele><time>2026-05-01T12:15:43.134Z</time></trkpt><trkpt lat="44.1465707" lon="11.5062152"><ele>918.0</ele><time>2026-05-01T12:15:44.134Z</time></trkpt><trkpt lat="44.1465875" lon="11.5063125"><ele>918.0</ele><time>2026-05-01T12:15:45.133Z</time></trkpt><trkpt lat="44.1465967" lon="11.506422"><ele>918.0</ele><time>2026-05-01T12:15:46.134Z</time></trkpt><trkpt lat="44.1465865" lon="11.50652"><ele>916.5</ele><time>2026-05-01T12:15:47.133Z</time></trkpt><trkpt lat="44.1465592" lon="11.5066693"><ele>915.0</ele><time>2026-05-01T12:15:49.135Z</time></trkpt><trkpt lat="44.1464783" lon="11.5068028"><ele>913.5</ele><time>2026-05-01T12:15:51.134Z</time></trkpt><trkpt lat="44.1463827" lon="11.5069042"><ele>912.0</ele><time>2026-05-01T12:15:53.134Z</time></trkpt><trkpt lat="44.1463375" lon="11.5070563"><ele>911.5</ele><time>2026-05-01T12:15:55.134Z</time></trkpt><trkpt lat="44.146326" lon="11.5071555"><ele>911.0</ele><time>2026-05-01T12:15:56.133Z</time></trkpt><trkpt lat="44.146318" lon="11.5072522"><ele>910.5</ele><time>2026-05-01T12:15:57.133Z</time></trkpt><trkpt lat="44.1463763" lon="11.5074062"><ele>910.0</ele><time>2026-05-01T12:15:59.131Z</time></trkpt><trkpt lat="44.1464345" lon="11.50746"><ele>909.5</ele><time>2026-05-01T12:16:00.132Z</time></trkpt><trkpt lat="44.146493" lon="11.5074967"><ele>909.0</ele><time>2026-05-01T12:16:01.13Z</time></trkpt><trkpt lat="44.1465628" lon="11.5075343"><ele>909.0</ele><time>2026-05-01T12:16:02.13Z</time></trkpt><trkpt lat="44.1466173" lon="11.507591"><ele>909.0</ele><time>2026-05-01T12:16:03.132Z</time></trkpt><trkpt lat="44.1466703" lon="11.5076645"><ele>909.0</ele><time>2026-05-01T12:16:04.132Z</time></trkpt><trkpt lat="44.1467023" lon="11.507753"><ele>909.0</ele><time>2026-05-01T12:16:05.132Z</time></trkpt><trkpt lat="44.146725" lon="11.5078473"><ele>909.0</ele><time>2026-05-01T12:16:06.133Z</time></trkpt><trkpt lat="44.1467402" lon="11.5079413"><ele>909.0</ele><time>2026-05-01T12:16:07.133Z</time></trkpt><trkpt lat="44.1467465" lon="11.5080358"><ele>909.0</ele><time>2026-05-01T12:16:08.132Z</time></trkpt><trkpt lat="44.146737" lon="11.5081315"><ele>909.5</ele><time>2026-05-01T12:16:09.134Z</time></trkpt><trkpt lat="44.146726" lon="11.5082397"><ele>910.0</ele><time>2026-05-01T12:16:10.135Z</time></trkpt><trkpt lat="44.1467248" lon="11.5083475"><ele>910.5</ele><time>2026-05-01T12:16:11.134Z</time></trkpt><trkpt lat="44.14674" lon="11.508448"><ele>911.0</ele><time>2026-05-01T12:16:12.133Z</time></trkpt><trkpt lat="44.1467578" lon="11.5085628"><ele>911.5</ele><time>2026-05-01T12:16:13.133Z</time></trkpt><trkpt lat="44.1467758" lon="11.5086548"><ele>912.0</ele><time>2026-05-01T12:16:14.134Z</time></trkpt><trkpt lat="44.1467902" lon="11.5088038"><ele>913.1666666666666</ele><time>2026-05-01T12:16:16.134Z</time></trkpt><trkpt lat="44.146849" lon="11.508933"><ele>914.3333333333333</ele><time>2026-05-01T12:16:18.134Z</time></trkpt><trkpt lat="44.1469555" lon="11.5089975"><ele>915.5</ele><time>2026-05-01T12:16:20.131Z</time></trkpt><trkpt lat="44.1470202" lon="11.5089877"><ele>916.6666666666666</ele><time>2026-05-01T12:16:21.131Z</time></trkpt><trkpt lat="44.1470943" lon="11.508972"><ele>917.8333333333333</ele><time>2026-05-01T12:16:22.132Z</time></trkpt><trkpt lat="44.1471583" lon="11.508946"><ele>919.0</ele><time>2026-05-01T12:16:23.13Z</time></trkpt><trkpt lat="44.147231" lon="11.5089037"><ele>919.0</ele><time>2026-05-01T12:16:24.131Z</time></trkpt><trkpt lat="44.1473125" lon="11.5088435"><ele>919.0000000000001</ele><time>2026-05-01T12:16:25.13Z</time></trkpt><trkpt lat="44.1473825" lon="11.5088267"><ele>919.0000000000001</ele><time>2026-05-01T12:16:26.129Z</time></trkpt><trkpt lat="44.1474717" lon="11.5088903"><ele>919.0</ele><time>2026-05-01T12:16:28.131Z</time></trkpt><trkpt lat="44.1475578" lon="11.5090183"><ele>919.0</ele><time>2026-05-01T12:16:30.134Z</time></trkpt><trkpt lat="44.1476113" lon="11.509089"><ele>916.9999999999999</ele><time>2026-05-01T12:16:31.132Z</time></trkpt><trkpt lat="44.1476698" lon="11.509156"><ele>915.0</ele><time>2026-05-01T12:16:32.132Z</time></trkpt><trkpt lat="44.1477255" lon="11.5092065"><ele>913.0</ele><time>2026-05-01T12:16:33.134Z</time></trkpt><trkpt lat="44.1478408" lon="11.5092903"><ele>911.0</ele><time>2026-05-01T12:16:35.133Z</time></trkpt><trkpt lat="44.1479008" lon="11.5093437"><ele>908.9999999999999</ele><time>2026-05-01T12:16:36.134Z</time></trkpt><trkpt lat="44.1479488" lon="11.509407"><ele>907.0</ele><time>2026-05-01T12:16:37.133Z</time></trkpt><trkpt lat="44.1479788" lon="11.5094865"><ele>908.9999999999999</ele><time>2026-05-01T12:16:38.135Z</time></trkpt><trkpt lat="44.1480093" lon="11.50963"><ele>911.0</ele><time>2026-05-01T12:16:40.134Z</time></trkpt><trkpt lat="44.1480455" lon="11.5097025"><ele>913.0</ele><time>2026-05-01T12:16:41.134Z</time></trkpt><trkpt lat="44.148089" lon="11.509776"><ele>915.0</ele><time>2026-05-01T12:16:42.136Z</time></trkpt><trkpt lat="44.1481377" lon="11.5098417"><ele>916.9999999999999</ele><time>2026-05-01T12:16:43.134Z</time></trkpt><trkpt lat="44.1482243" lon="11.5099325"><ele>919.0</ele><time>2026-05-01T12:16:45.134Z</time></trkpt><trkpt lat="44.148306" lon="11.5100405"><ele>918.9999999999999</ele><time>2026-05-01T12:16:47.134Z</time></trkpt><trkpt lat="44.148333" lon="11.5101567"><ele>919.0</ele><time>2026-05-01T12:16:49.134Z</time></trkpt><trkpt lat="44.1483032" lon="11.510289"><ele>919.0</ele><time>2026-05-01T12:16:51.132Z</time></trkpt><trkpt lat="44.1482797" lon="11.5104475"><ele>919.0</ele><time>2026-05-01T12:16:53.133Z</time></trkpt><trkpt lat="44.1482732" lon="11.510543"><ele>918.9999999999999</ele><time>2026-05-01T12:16:54.133Z</time></trkpt><trkpt lat="44.148251" lon="11.5106413"><ele>919.0</ele><time>2026-05-01T12:16:55.132Z</time></trkpt><trkpt lat="44.148233" lon="11.5107467"><ele>920.6</ele><time>2026-05-01T12:16:56.132Z</time></trkpt><trkpt lat="44.1482175" lon="11.5108593"><ele>922.2</ele><time>2026-05-01T12:16:57.133Z</time></trkpt><trkpt lat="44.1482215" lon="11.5109967"><ele>923.8000000000001</ele><time>2026-05-01T12:16:58.135Z</time></trkpt><trkpt lat="44.1482252" lon="11.511142"><ele>925.4000000000001</ele><time>2026-05-01T12:16:59.134Z</time></trkpt><trkpt lat="44.1482347" lon="11.5112863"><ele>927.0</ele><time>2026-05-01T12:17:00.135Z</time></trkpt><trkpt lat="44.1482425" lon="11.5114233"><ele>927.0</ele><time>2026-05-01T12:17:01.135Z</time></trkpt><trkpt lat="44.1482402" lon="11.5115658"><ele>927.0</ele><time>2026-05-01T12:17:02.135Z</time></trkpt><trkpt lat="44.148228" lon="11.5117058"><ele>927.0</ele><time>2026-05-01T12:17:03.135Z</time></trkpt><trkpt lat="44.1482045" lon="11.5118355"><ele>927.0</ele><time>2026-05-01T12:17:04.135Z</time></trkpt><trkpt lat="44.1481762" lon="11.511944"><ele>927.0</ele><time>2026-05-01T12:17:05.135Z</time></trkpt><trkpt lat="44.1481678" lon="11.5120478"><ele>928.1666666666666</ele><time>2026-05-01T12:17:06.134Z</time></trkpt><trkpt lat="44.1481805" lon="11.5121632"><ele>929.3333333333333</ele><time>2026-05-01T12:17:07.135Z</time></trkpt><trkpt lat="44.1481985" lon="11.5122878"><ele>930.5</ele><time>2026-05-01T12:17:08.134Z</time></trkpt><trkpt lat="44.1482128" lon="11.5124122"><ele>931.6666666666666</ele><time>2026-05-01T12:17:09.135Z</time></trkpt><trkpt lat="44.1482312" lon="11.512534"><ele>932.8333333333333</ele><time>2026-05-01T12:17:10.134Z</time></trkpt><trkpt lat="44.1482603" lon="11.512641"><ele>934.0</ele><time>2026-05-01T12:17:11.135Z</time></trkpt><trkpt lat="44.1482943" lon="11.5127322"><ele>934.0</ele><time>2026-05-01T12:17:12.135Z</time></trkpt><trkpt lat="44.1483507" lon="11.5128257"><ele>934.0000000000001</ele><time>2026-05-01T12:17:13.134Z</time></trkpt><trkpt lat="44.1484105" lon="11.5129328"><ele>934.0000000000001</ele><time>2026-05-01T12:17:14.133Z</time></trkpt><trkpt lat="44.1484803" lon="11.5130442"><ele>934.0</ele><time>2026-05-01T12:17:15.133Z</time></trkpt><trkpt lat="44.1485475" lon="11.5131567"><ele>934.0</ele><time>2026-05-01T12:17:16.134Z</time></trkpt><trkpt lat="44.1486173" lon="11.5132615"><ele>934.8000000000001</ele><time>2026-05-01T12:17:17.132Z</time></trkpt><trkpt lat="44.1486957" lon="11.5133495"><ele>935.6000000000001</ele><time>2026-05-01T12:17:18.134Z</time></trkpt><trkpt lat="44.1487752" lon="11.5134212"><ele>936.4</ele><time>2026-05-01T12:17:19.136Z</time></trkpt><trkpt lat="44.148855" lon="11.5134692"><ele>937.2</ele><time>2026-05-01T12:17:20.135Z</time></trkpt><trkpt lat="44.1489395" lon="11.5134988"><ele>938.0</ele><time>2026-05-01T12:17:21.134Z</time></trkpt><trkpt lat="44.1490177" lon="11.5135255"><ele>937.7142857142858</ele><time>2026-05-01T12:17:22.135Z</time></trkpt><trkpt lat="44.1490915" lon="11.5135617"><ele>937.4285714285714</ele><time>2026-05-01T12:17:23.134Z</time></trkpt><trkpt lat="44.1491488" lon="11.5136017"><ele>937.1428571428571</ele><time>2026-05-01T12:17:24.135Z</time></trkpt><trkpt lat="44.1491978" lon="11.5136745"><ele>936.8571428571429</ele><time>2026-05-01T12:17:25.136Z</time></trkpt><trkpt lat="44.149236" lon="11.5137665"><ele>936.5714285714287</ele><time>2026-05-01T12:17:26.135Z</time></trkpt><trkpt lat="44.149272" lon="11.5138608"><ele>936.2857142857143</ele><time>2026-05-01T12:17:27.135Z</time></trkpt><trkpt lat="44.149304" lon="11.5139428"><ele>936.0</ele><time>2026-05-01T12:17:28.135Z</time></trkpt><trkpt lat="44.1493308" lon="11.514031"><ele>936.0</ele><time>2026-05-01T12:17:29.135Z</time></trkpt><trkpt lat="44.1493495" lon="11.5141363"><ele>936.0</ele><time>2026-05-01T12:17:30.134Z</time></trkpt><trkpt lat="44.149372" lon="11.5142505"><ele>936.0</ele><time>2026-05-01T12:17:31.135Z</time></trkpt><trkpt lat="44.1493932" lon="11.514368"><ele>936.0</ele><time>2026-05-01T12:17:32.135Z</time></trkpt><trkpt lat="44.1494147" lon="11.5144853"><ele>936.0</ele><time>2026-05-01T12:17:33.137Z</time></trkpt><trkpt lat="44.1494398" lon="11.514595"><ele>936.0</ele><time>2026-05-01T12:17:34.135Z</time></trkpt><trkpt lat="44.149459" lon="11.5146962"><ele>937.8571428571429</ele><time>2026-05-01T12:17:35.134Z</time></trkpt><trkpt lat="44.1494743" lon="11.5148003"><ele>939.7142857142858</ele><time>2026-05-01T12:17:36.135Z</time></trkpt><trkpt lat="44.1494917" lon="11.5149075"><ele>941.5714285714287</ele><time>2026-05-01T12:17:37.134Z</time></trkpt><trkpt lat="44.1495148" lon="11.5150097"><ele>943.4285714285716</ele><time>2026-05-01T12:17:38.134Z</time></trkpt><trkpt lat="44.149553" lon="11.5150848"><ele>945.2857142857143</ele><time>2026-05-01T12:17:39.133Z</time></trkpt><trkpt lat="44.1495995" lon="11.5151532"><ele>947.1428571428573</ele><time>2026-05-01T12:17:40.134Z</time></trkpt><trkpt lat="44.1496415" lon="11.515224"><ele>949.0000000000001</ele><time>2026-05-01T12:17:41.133Z</time></trkpt><trkpt lat="44.1497135" lon="11.5153362"><ele>952.4999999999999</ele><time>2026-05-01T12:17:43.134Z</time></trkpt><trkpt lat="44.149766" lon="11.5154128"><ele>956.0</ele><time>2026-05-01T12:17:48.134Z</time></trkpt><trkpt lat="44.1498132" lon="11.5155303"><ele>959.5</ele><time>2026-05-01T12:17:50.134Z</time></trkpt><trkpt lat="44.1498473" lon="11.5156533"><ele>963.0</ele><time>2026-05-01T12:17:52.133Z</time></trkpt><trkpt lat="44.1498598" lon="11.5157428"><ele>966.4999999999999</ele><time>2026-05-01T12:18:00.139Z</time></trkpt><trkpt lat="44.1498652" lon="11.5158783"><ele>970.0</ele><time>2026-05-01T12:18:02.133Z</time></trkpt><trkpt lat="44.1498575" lon="11.5159797"><ele>969.9999999999999</ele><time>2026-05-01T12:18:06.133Z</time></trkpt><trkpt lat="44.1498725" lon="11.5160708"><ele>970.0</ele><time>2026-05-01T12:18:10.134Z</time></trkpt><trkpt lat="44.149868" lon="11.516184"><ele>970.0</ele><time>2026-05-01T12:18:12.134Z</time></trkpt><trkpt lat="44.1498567" lon="11.5162882"><ele>970.0</ele><time>2026-05-01T12:18:15.134Z</time></trkpt><trkpt lat="44.149854" lon="11.516426"><ele>969.9999999999999</ele><time>2026-05-01T12:18:17.132Z</time></trkpt><trkpt lat="44.149844" lon="11.5165725"><ele>970.0</ele><time>2026-05-01T12:18:19.134Z</time></trkpt><trkpt lat="44.1498647" lon="11.5167168"><ele>968.2</ele><time>2026-05-01T12:18:21.132Z</time></trkpt><trkpt lat="44.1498937" lon="11.516795"><ele>966.4</ele><time>2026-05-01T12:18:22.132Z</time></trkpt><trkpt lat="44.1499325" lon="11.5169177"><ele>964.5999999999999</ele><time>2026-05-01T12:18:24.131Z</time></trkpt><trkpt lat="44.1500155" lon="11.5170015"><ele>962.8</ele><time>2026-05-01T12:18:26.131Z</time></trkpt><trkpt lat="44.1501035" lon="11.5170473"><ele>961.0</ele><time>2026-05-01T12:18:28.13Z</time></trkpt><trkpt lat="44.150181" lon="11.5171327"><ele>960.9999999999999</ele><time>2026-05-01T12:18:30.131Z</time></trkpt><trkpt lat="44.15023" lon="11.5172473"><ele>961.0</ele><time>2026-05-01T12:18:32.132Z</time></trkpt><trkpt lat="44.1502835" lon="11.5173243"><ele>961.0</ele><time>2026-05-01T12:18:34.133Z</time></trkpt><trkpt lat="44.1503185" lon="11.5174398"><ele>961.0</ele><time>2026-05-01T12:18:36.134Z</time></trkpt><trkpt lat="44.1503683" lon="11.5175398"><ele>960.9999999999999</ele><time>2026-05-01T12:18:39.133Z</time></trkpt><trkpt lat="44.1504092" lon="11.5176245"><ele>961.0</ele><time>2026-05-01T12:18:41.132Z</time></trkpt><trkpt lat="44.1504633" lon="11.5176947"><ele>960.9999999999999</ele><time>2026-05-01T12:18:43.132Z</time></trkpt><trkpt lat="44.1505408" lon="11.5177577"><ele>961.0</ele><time>2026-05-01T12:18:45.133Z</time></trkpt><trkpt lat="44.1505933" lon="11.517826"><ele>961.0</ele><time>2026-05-01T12:18:47.132Z</time></trkpt><trkpt lat="44.1506517" lon="11.5179263"><ele>961.0</ele><time>2026-05-01T12:18:50.131Z</time></trkpt><trkpt lat="44.1507257" lon="11.5179748"><ele>960.9999999999999</ele><time>2026-05-01T12:18:53.13Z</time></trkpt><trkpt lat="44.1507863" lon="11.5180175"><ele>961.0</ele><time>2026-05-01T12:18:55.129Z</time></trkpt><trkpt lat="44.1508882" lon="11.5180548"><ele>958.1666666666666</ele><time>2026-05-01T12:18:58.136Z</time></trkpt><trkpt lat="44.1509565" lon="11.5180718"><ele>955.3333333333333</ele><time>2026-05-01T12:19:00.131Z</time></trkpt><trkpt lat="44.1510177" lon="11.5181258"><ele>952.5</ele><time>2026-05-01T12:19:04.133Z</time></trkpt><trkpt lat="44.1510957" lon="11.5180977"><ele>949.6666666666667</ele><time>2026-05-01T12:19:07.132Z</time></trkpt><trkpt lat="44.1511838" lon="11.5181773"><ele>946.8333333333334</ele><time>2026-05-01T12:19:10.133Z</time></trkpt><trkpt lat="44.1512793" lon="11.5182418"><ele>944.0</ele><time>2026-05-01T12:19:12.133Z</time></trkpt><trkpt lat="44.1513683" lon="11.5183235"><ele>944.0000000000001</ele><time>2026-05-01T12:19:14.133Z</time></trkpt><trkpt lat="44.1514278" lon="11.5183643"><ele>944.0</ele><time>2026-05-01T12:19:15.134Z</time></trkpt><trkpt lat="44.1515338" lon="11.5184497"><ele>944.0</ele><time>2026-05-01T12:19:17.133Z</time></trkpt><trkpt lat="44.1516172" lon="11.5185532"><ele>944.0</ele><time>2026-05-01T12:19:19.131Z</time></trkpt><trkpt lat="44.151657" lon="11.518644"><ele>944.0000000000001</ele><time>2026-05-01T12:19:21.133Z</time></trkpt><trkpt lat="44.1517183" lon="11.5186818"><ele>944.0</ele><time>2026-05-01T12:19:23.133Z</time></trkpt><trkpt lat="44.1518072" lon="11.5187523"><ele>943.2</ele><time>2026-05-01T12:19:25.134Z</time></trkpt><trkpt lat="44.1518628" lon="11.5188668"><ele>942.4000000000001</ele><time>2026-05-01T12:19:27.134Z</time></trkpt><trkpt lat="44.1518975" lon="11.518977"><ele>941.6</ele><time>2026-05-01T12:19:29.132Z</time></trkpt><trkpt lat="44.1519642" lon="11.5190695"><ele>940.8</ele><time>2026-05-01T12:19:31.132Z</time></trkpt><trkpt lat="44.152034" lon="11.5192027"><ele>940.0</ele><time>2026-05-01T12:19:33.132Z</time></trkpt><trkpt lat="44.1521078" lon="11.5193168"><ele>939.9999999999999</ele><time>2026-05-01T12:19:35.133Z</time></trkpt><trkpt lat="44.1521808" lon="11.519423"><ele>940.0</ele><time>2026-05-01T12:19:37.133Z</time></trkpt><trkpt lat="44.152232" lon="11.5195345"><ele>940.0</ele><time>2026-05-01T12:19:39.132Z</time></trkpt><trkpt lat="44.1523025" lon="11.5196097"><ele>940.0</ele><time>2026-05-01T12:19:41.132Z</time></trkpt><trkpt lat="44.1523557" lon="11.5196653"><ele>939.9999999999999</ele><time>2026-05-01T12:19:46.136Z</time></trkpt><trkpt lat="44.1524003" lon="11.5197427"><ele>940.0</ele><time>2026-05-01T12:19:51.134Z</time></trkpt><trkpt lat="44.1523938" lon="11.5198658"><ele>939.4285714285713</ele><time>2026-05-01T12:19:54.135Z</time></trkpt><trkpt lat="44.1524037" lon="11.519954"><ele>938.8571428571428</ele><time>2026-05-01T12:19:57.136Z</time></trkpt><trkpt lat="44.1524572" lon="11.5200163"><ele>938.2857142857142</ele><time>2026-05-01T12:20:03.135Z</time></trkpt><trkpt lat="44.1525165" lon="11.5200512"><ele>937.7142857142858</ele><time>2026-05-01T12:20:18.134Z</time></trkpt><trkpt lat="44.1525617" lon="11.5201193"><ele>937.1428571428572</ele><time>2026-05-01T12:20:22.94Z</time></trkpt><trkpt lat="44.1525937" lon="11.5201998"><ele>936.5714285714287</ele><time>2026-05-01T12:20:36.943Z</time></trkpt><trkpt lat="44.1526623" lon="11.5202522"><ele>936.0</ele><time>2026-05-01T12:20:43.94Z</time></trkpt><trkpt lat="44.1527145" lon="11.520306"><ele>936.0</ele><time>2026-05-01T12:20:49.941Z</time></trkpt><trkpt lat="44.1527713" lon="11.5203992"><ele>936.0</ele><time>2026-05-01T12:20:58.134Z</time></trkpt><trkpt lat="44.152824" lon="11.520489"><ele>936.0</ele><time>2026-05-01T12:21:02.133Z</time></trkpt><trkpt lat="44.1529087" lon="11.5205115"><ele>936.0</ele><time>2026-05-01T12:21:05.135Z</time></trkpt><trkpt lat="44.1529635" lon="11.5205923"><ele>936.0</ele><time>2026-05-01T12:21:07.134Z</time></trkpt><trkpt lat="44.1530167" lon="11.5206763"><ele>936.0</ele><time>2026-05-01T12:21:09.134Z</time></trkpt><trkpt lat="44.1530767" lon="11.5207458"><ele>936.5</ele><time>2026-05-01T12:21:12.134Z</time></trkpt><trkpt lat="44.1531503" lon="11.520737"><ele>937.0</ele><time>2026-05-01T12:21:16.135Z</time></trkpt><trkpt lat="44.1532285" lon="11.5207522"><ele>937.5</ele><time>2026-05-01T12:21:19.133Z</time></trkpt><trkpt lat="44.1533012" lon="11.520834"><ele>938.0</ele><time>2026-05-01T12:21:22.131Z</time></trkpt><trkpt lat="44.1533605" lon="11.52091"><ele>938.5</ele><time>2026-05-01T12:21:24.133Z</time></trkpt><trkpt lat="44.1533683" lon="11.5210103"><ele>939.0</ele><time>2026-05-01T12:21:27.132Z</time></trkpt><trkpt lat="44.1534163" lon="11.5210987"><ele>939.0</ele><time>2026-05-01T12:21:31.134Z</time></trkpt><trkpt lat="44.1534717" lon="11.5211657"><ele>939.0</ele><time>2026-05-01T12:21:34.132Z</time></trkpt><trkpt lat="44.1535248" lon="11.521233"><ele>939.0</ele><time>2026-05-01T12:21:40.132Z</time></trkpt><trkpt lat="44.1535883" lon="11.521293"><ele>939.0</ele><time>2026-05-01T12:21:45.13Z</time></trkpt><trkpt lat="44.153648" lon="11.5213682"><ele>939.0</ele><time>2026-05-01T12:21:49.132Z</time></trkpt><trkpt lat="44.1537343" lon="11.521408"><ele>939.0</ele><time>2026-05-01T12:21:52.131Z</time></trkpt><trkpt lat="44.153806" lon="11.5214392"><ele>940.5</ele><time>2026-05-01T12:21:54.131Z</time></trkpt><trkpt lat="44.1538733" lon="11.5215025"><ele>942.0</ele><time>2026-05-01T12:21:56.13Z</time></trkpt><trkpt lat="44.1539333" lon="11.5215525"><ele>943.5</ele><time>2026-05-01T12:21:58.131Z</time></trkpt><trkpt lat="44.1539988" lon="11.5216203"><ele>945.0</ele><time>2026-05-01T12:22:00.131Z</time></trkpt><trkpt lat="44.15408" lon="11.5217117"><ele>946.5</ele><time>2026-05-01T12:22:02.131Z</time></trkpt><trkpt lat="44.1541437" lon="11.521831"><ele>948.0</ele><time>2026-05-01T12:22:04.132Z</time></trkpt><trkpt lat="44.154191" lon="11.5219193"><ele>948.0</ele><time>2026-05-01T12:22:06.132Z</time></trkpt><trkpt lat="44.1542657" lon="11.5220285"><ele>948.0</ele><time>2026-05-01T12:22:08.132Z</time></trkpt><trkpt lat="44.154343" lon="11.5221488"><ele>948.0</ele><time>2026-05-01T12:22:10.131Z</time></trkpt><trkpt lat="44.154392" lon="11.5222163"><ele>948.0</ele><time>2026-05-01T12:22:11.131Z</time></trkpt><trkpt lat="44.1544375" lon="11.522278"><ele>948.0</ele><time>2026-05-01T12:22:12.134Z</time></trkpt><trkpt lat="44.154527" lon="11.5223467"><ele>949.0</ele><time>2026-05-01T12:22:14.132Z</time></trkpt><trkpt lat="44.154602" lon="11.5223793"><ele>950.0</ele><time>2026-05-01T12:22:16.134Z</time></trkpt><trkpt lat="44.1546642" lon="11.5224197"><ele>951.0</ele><time>2026-05-01T12:22:18.134Z</time></trkpt><trkpt lat="44.1547253" lon="11.5224613"><ele>952.0</ele><time>2026-05-01T12:22:20.134Z</time></trkpt><trkpt lat="44.1548113" lon="11.5225188"><ele>953.0</ele><time>2026-05-01T12:22:22.134Z</time></trkpt><trkpt lat="44.1549122" lon="11.5226038"><ele>954.0</ele><time>2026-05-01T12:22:24.134Z</time></trkpt><trkpt lat="44.1549852" lon="11.5226752"><ele>954.0</ele><time>2026-05-01T12:22:26.133Z</time></trkpt><trkpt lat="44.1550643" lon="11.5227322"><ele>954.0</ele><time>2026-05-01T12:22:28.135Z</time></trkpt><trkpt lat="44.155121" lon="11.5227867"><ele>954.0</ele><time>2026-05-01T12:22:30.134Z</time></trkpt><trkpt lat="44.1551728" lon="11.5228438"><ele>954.0</ele><time>2026-05-01T12:22:38.133Z</time></trkpt><trkpt lat="44.1552325" lon="11.5229115"><ele>954.0</ele><time>2026-05-01T12:22:49.134Z</time></trkpt><trkpt lat="44.1553227" lon="11.5229555"><ele>954.0</ele><time>2026-05-01T12:22:52.133Z</time></trkpt><trkpt lat="44.1553952" lon="11.5229863"><ele>954.0</ele><time>2026-05-01T12:22:54.133Z</time></trkpt><trkpt lat="44.1554772" lon="11.5230187"><ele>954.0000000000001</ele><time>2026-05-01T12:22:56.134Z</time></trkpt><trkpt lat="44.1555682" lon="11.5231182"><ele>954.0000000000001</ele><time>2026-05-01T12:22:58.133Z</time></trkpt><trkpt lat="44.1556753" lon="11.5231763"><ele>954.0</ele><time>2026-05-01T12:23:00.131Z</time></trkpt><trkpt lat="44.1557687" lon="11.5232312"><ele>954.0</ele><time>2026-05-01T12:23:02.134Z</time></trkpt><trkpt lat="44.1558648" lon="11.523282"><ele>954.0</ele><time>2026-05-01T12:23:04.134Z</time></trkpt><trkpt lat="44.1559535" lon="11.5233288"><ele>954.0000000000001</ele><time>2026-05-01T12:23:06.134Z</time></trkpt><trkpt lat="44.1560377" lon="11.5233862"><ele>954.0000000000001</ele><time>2026-05-01T12:23:08.134Z</time></trkpt><trkpt lat="44.1561085" lon="11.5234647"><ele>954.0</ele><time>2026-05-01T12:23:10.134Z</time></trkpt><trkpt lat="44.1561787" lon="11.5235343"><ele>954.0</ele><time>2026-05-01T12:23:12.133Z</time></trkpt><trkpt lat="44.1562662" lon="11.5235947"><ele>954.0</ele><time>2026-05-01T12:23:14.131Z</time></trkpt><trkpt lat="44.1563687" lon="11.523631"><ele>954.0000000000001</ele><time>2026-05-01T12:23:16.132Z</time></trkpt><trkpt lat="44.1564715" lon="11.5236617"><ele>954.0000000000001</ele><time>2026-05-01T12:23:18.133Z</time></trkpt><trkpt lat="44.1565527" lon="11.52368"><ele>954.0</ele><time>2026-05-01T12:23:20.133Z</time></trkpt><trkpt lat="44.1566588" lon="11.5237127"><ele>954.0</ele><time>2026-05-01T12:23:22.132Z</time></trkpt><trkpt lat="44.1567277" lon="11.5237295"><ele>954.4000000000001</ele><time>2026-05-01T12:23:23.131Z</time></trkpt><trkpt lat="44.1568332" lon="11.5237727"><ele>954.8000000000001</ele><time>2026-05-01T12:23:25.131Z</time></trkpt><trkpt lat="44.1569248" lon="11.523752"><ele>955.1999999999999</ele><time>2026-05-01T12:23:27.132Z</time></trkpt><trkpt lat="44.1569895" lon="11.5237488"><ele>955.5999999999999</ele><time>2026-05-01T12:23:28.133Z</time></trkpt><trkpt lat="44.1570885" lon="11.5237963"><ele>956.0</ele><time>2026-05-01T12:23:30.132Z</time></trkpt><trkpt lat="44.157192" lon="11.5238233"><ele>956.0000000000001</ele><time>2026-05-01T12:23:32.132Z</time></trkpt><trkpt lat="44.1572765" lon="11.5238422"><ele>956.0</ele><time>2026-05-01T12:23:34.133Z</time></trkpt><trkpt lat="44.1573525" lon="11.5238223"><ele>956.0</ele><time>2026-05-01T12:23:36.134Z</time></trkpt><trkpt lat="44.1574287" lon="11.5238078"><ele>956.0</ele><time>2026-05-01T12:23:38.133Z</time></trkpt><trkpt lat="44.157507" lon="11.5238118"><ele>956.0000000000001</ele><time>2026-05-01T12:23:42.133Z</time></trkpt><trkpt lat="44.1575787" lon="11.523819"><ele>956.0</ele><time>2026-05-01T12:23:47.132Z</time></trkpt><trkpt lat="44.1576437" lon="11.5238322"><ele>954.0000000000001</ele><time>2026-05-01T12:23:51.134Z</time></trkpt><trkpt lat="44.1577133" lon="11.5238268"><ele>952.0</ele><time>2026-05-01T12:23:56.133Z</time></trkpt><trkpt lat="44.1578057" lon="11.523841"><ele>950.0</ele><time>2026-05-01T12:23:59.133Z</time></trkpt><trkpt lat="44.157888" lon="11.5238423"><ele>948.0</ele><time>2026-05-01T12:24:01.136Z</time></trkpt><trkpt lat="44.1579608" lon="11.5238478"><ele>946.0000000000001</ele><time>2026-05-01T12:24:03.134Z</time></trkpt><trkpt lat="44.1580217" lon="11.5238735"><ele>944.0</ele><time>2026-05-01T12:24:12.131Z</time></trkpt><trkpt lat="44.1580952" lon="11.5238943"><ele>944.0</ele><time>2026-05-01T12:24:37.131Z</time></trkpt><trkpt lat="44.1581592" lon="11.5239225"><ele>944.0</ele><time>2026-05-01T12:24:42.133Z</time></trkpt><trkpt lat="44.1582252" lon="11.5239475"><ele>944.0</ele><time>2026-05-01T12:24:50.133Z</time></trkpt><trkpt lat="44.1582823" lon="11.5239968"><ele>944.0</ele><time>2026-05-01T12:25:16.136Z</time></trkpt><trkpt lat="44.1583447" lon="11.5239848"><ele>944.0</ele><time>2026-05-01T12:25:34.136Z</time></trkpt><trkpt lat="44.1583868" lon="11.5240502"><ele>944.0</ele><time>2026-05-01T12:25:58.135Z</time></trkpt><trkpt lat="44.1584137" lon="11.5241493"><ele>944.0</ele><time>2026-05-01T12:26:04.136Z</time></trkpt><trkpt lat="44.1584832" lon="11.5241518"><ele>939.2857142857142</ele><time>2026-05-01T12:28:56.136Z</time></trkpt><trkpt lat="44.1585532" lon="11.5241092"><ele>934.5714285714287</ele><time>2026-05-01T12:29:45.135Z</time></trkpt><trkpt lat="44.1585852" lon="11.5240032"><ele>929.8571428571429</ele><time>2026-05-01T12:29:51.137Z</time></trkpt><trkpt lat="44.1586088" lon="11.5239133"><ele>925.1428571428571</ele><time>2026-05-01T12:29:54.134Z</time></trkpt><trkpt lat="44.1586367" lon="11.523805"><ele>920.4285714285713</ele><time>2026-05-01T12:29:58.136Z</time></trkpt><trkpt lat="44.158645" lon="11.5237172"><ele>915.7142857142858</ele><time>2026-05-01T12:30:02.137Z</time></trkpt><trkpt lat="44.158681" lon="11.5237892"><ele>911.0</ele><time>2026-05-01T12:30:43.134Z</time></trkpt><trkpt lat="44.1587282" lon="11.5237212"><ele>906.8571428571429</ele><time>2026-05-01T12:31:36.136Z</time></trkpt><trkpt lat="44.1587945" lon="11.523672"><ele>902.7142857142857</ele><time>2026-05-01T12:31:49.135Z</time></trkpt><trkpt lat="44.158825" lon="11.5235905"><ele>898.5714285714286</ele><time>2026-05-01T12:32:12.138Z</time></trkpt><trkpt lat="44.1588623" lon="11.5235053"><ele>894.4285714285714</ele><time>2026-05-01T12:32:27.138Z</time></trkpt><trkpt lat="44.1589212" lon="11.5234658"><ele>890.2857142857142</ele><time>2026-05-01T12:32:43.139Z</time></trkpt><trkpt lat="44.1589785" lon="11.5234258"><ele>886.1428571428571</ele><time>2026-05-01T12:33:04.14Z</time></trkpt><trkpt lat="44.1590437" lon="11.5233932"><ele>882.0</ele><time>2026-05-01T12:33:13.15Z</time></trkpt><trkpt lat="44.1591118" lon="11.5234085"><ele>877.6666666666666</ele><time>2026-05-01T12:33:36.137Z</time></trkpt><trkpt lat="44.1591813" lon="11.5234253"><ele>873.3333333333333</ele><time>2026-05-01T12:33:45.138Z</time></trkpt><trkpt lat="44.1592292" lon="11.5233418"><ele>869.0</ele><time>2026-05-01T12:33:50.138Z</time></trkpt><trkpt lat="44.1593097" lon="11.5232973"><ele>864.6666666666666</ele><time>2026-05-01T12:33:54.139Z</time></trkpt><trkpt lat="44.159372" lon="11.523198"><ele>860.3333333333333</ele><time>2026-05-01T12:33:57.139Z</time></trkpt><trkpt lat="44.1594313" lon="11.523144"><ele>856.0</ele><time>2026-05-01T12:34:09.168Z</time></trkpt><trkpt lat="44.1595062" lon="11.5231238"><ele>856.0000000000001</ele><time>2026-05-01T12:34:12.14Z</time></trkpt><trkpt lat="44.1595653" lon="11.5230795"><ele>856.0</ele><time>2026-05-01T12:34:37.142Z</time></trkpt><trkpt lat="44.1596463" lon="11.5230348"><ele>856.0</ele><time>2026-05-01T12:35:51.141Z</time></trkpt><trkpt lat="44.1597153" lon="11.5230167"><ele>856.0</ele><time>2026-05-01T12:35:54.14Z</time></trkpt><trkpt lat="44.1597702" lon="11.522966"><ele>856.0</ele><time>2026-05-01T12:35:59.141Z</time></trkpt><trkpt lat="44.1598317" lon="11.5229263"><ele>856.0000000000001</ele><time>2026-05-01T12:36:26.136Z</time></trkpt><trkpt lat="44.1599008" lon="11.5229055"><ele>856.0</ele><time>2026-05-01T12:36:40.139Z</time></trkpt><trkpt lat="44.1599618" lon="11.522957"><ele>850.0</ele><time>2026-05-01T12:36:44.139Z</time></trkpt><trkpt lat="44.1600283" lon="11.52294"><ele>843.9999999999999</ele><time>2026-05-01T12:36:48.141Z</time></trkpt><trkpt lat="44.1600997" lon="11.5229127"><ele>838.0</ele><time>2026-05-01T12:36:52.136Z</time></trkpt><trkpt lat="44.1601753" lon="11.5228692"><ele>832.0</ele><time>2026-05-01T12:36:54.139Z</time></trkpt><trkpt lat="44.1602933" lon="11.5228218"><ele>826.0</ele><time>2026-05-01T12:36:56.14Z</time></trkpt><trkpt lat="44.1604105" lon="11.5228028"><ele>824.8</ele><time>2026-05-01T12:36:58.139Z</time></trkpt><trkpt lat="44.1605148" lon="11.522752"><ele>823.5999999999999</ele><time>2026-05-01T12:37:00.142Z</time></trkpt><trkpt lat="44.1606188" lon="11.5226768"><ele>822.4</ele><time>2026-05-01T12:37:02.141Z</time></trkpt><trkpt lat="44.1607187" lon="11.5225977"><ele>821.2</ele><time>2026-05-01T12:37:04.141Z</time></trkpt><trkpt lat="44.1608122" lon="11.5225257"><ele>820.0</ele><time>2026-05-01T12:37:06.143Z</time></trkpt><trkpt lat="44.1609307" lon="11.5224673"><ele>817.6666666666666</ele><time>2026-05-01T12:37:08.139Z</time></trkpt><trkpt lat="44.1610308" lon="11.5224485"><ele>815.3333333333333</ele><time>2026-05-01T12:37:10.14Z</time></trkpt><trkpt lat="44.1610987" lon="11.5224397"><ele>813.0</ele><time>2026-05-01T12:37:16.137Z</time></trkpt><trkpt lat="44.1611778" lon="11.5224098"><ele>810.6666666666667</ele><time>2026-05-01T12:37:19.141Z</time></trkpt><trkpt lat="44.1612483" lon="11.5223768"><ele>808.3333333333334</ele><time>2026-05-01T12:37:21.141Z</time></trkpt><trkpt lat="44.1613165" lon="11.5223398"><ele>806.0</ele><time>2026-05-01T12:37:23.14Z</time></trkpt><trkpt lat="44.1613835" lon="11.522313"><ele>806.0</ele><time>2026-05-01T12:37:25.141Z</time></trkpt><trkpt lat="44.161452" lon="11.5222973"><ele>806.0</ele><time>2026-05-01T12:37:27.14Z</time></trkpt><trkpt lat="44.1615282" lon="11.5222697"><ele>806.0</ele><time>2026-05-01T12:37:30.14Z</time></trkpt><trkpt lat="44.1615872" lon="11.5222245"><ele>806.0</ele><time>2026-05-01T12:37:33.14Z</time></trkpt><trkpt lat="44.1616543" lon="11.5221733"><ele>806.0</ele><time>2026-05-01T12:37:36.138Z</time></trkpt><trkpt lat="44.161723" lon="11.522137"><ele>806.0</ele><time>2026-05-01T12:37:39.136Z</time></trkpt><trkpt lat="44.1617978" lon="11.5221043"><ele>806.0</ele><time>2026-05-01T12:37:42.136Z</time></trkpt><trkpt lat="44.1618635" lon="11.522084"><ele>804.0</ele><time>2026-05-01T12:37:45.136Z</time></trkpt><trkpt lat="44.161932" lon="11.5220647"><ele>802.0</ele><time>2026-05-01T12:37:48.138Z</time></trkpt><trkpt lat="44.1619992" lon="11.522041"><ele>800.0</ele><time>2026-05-01T12:37:50.14Z</time></trkpt><trkpt lat="44.1620762" lon="11.522044"><ele>798.0</ele><time>2026-05-01T12:37:52.14Z</time></trkpt><trkpt lat="44.162156" lon="11.522047"><ele>796.0</ele><time>2026-05-01T12:37:54.138Z</time></trkpt><trkpt lat="44.162232" lon="11.5220577"><ele>794.0</ele><time>2026-05-01T12:37:56.137Z</time></trkpt><trkpt lat="44.162298" lon="11.5220647"><ele>792.0</ele><time>2026-05-01T12:37:58.139Z</time></trkpt><trkpt lat="44.162362" lon="11.5221007"><ele>790.6666666666666</ele><time>2026-05-01T12:38:00.138Z</time></trkpt><trkpt lat="44.162433" lon="11.5221355"><ele>789.3333333333333</ele><time>2026-05-01T12:38:02.138Z</time></trkpt><trkpt lat="44.1625072" lon="11.5221757"><ele>788.0</ele><time>2026-05-01T12:38:05.135Z</time></trkpt><trkpt lat="44.1625765" lon="11.5221652"><ele>786.6666666666666</ele><time>2026-05-01T12:38:07.137Z</time></trkpt><trkpt lat="44.1626457" lon="11.5221318"><ele>785.3333333333333</ele><time>2026-05-01T12:38:09.139Z</time></trkpt><trkpt lat="44.162716" lon="11.522092"><ele>784.0</ele><time>2026-05-01T12:38:20.138Z</time></trkpt><trkpt lat="44.162807" lon="11.52202"><ele>784.2857142857143</ele><time>2026-05-01T12:38:22.14Z</time></trkpt><trkpt lat="44.1628672" lon="11.5219608"><ele>784.5714285714286</ele><time>2026-05-01T12:38:23.138Z</time></trkpt><trkpt lat="44.162933" lon="11.5218968"><ele>784.8571428571429</ele><time>2026-05-01T12:38:24.138Z</time></trkpt><trkpt lat="44.1629955" lon="11.5218378"><ele>785.1428571428571</ele><time>2026-05-01T12:38:25.138Z</time></trkpt><trkpt lat="44.1630557" lon="11.5217868"><ele>785.4285714285714</ele><time>2026-05-01T12:38:26.137Z</time></trkpt><trkpt lat="44.1631142" lon="11.5217455"><ele>785.7142857142858</ele><time>2026-05-01T12:38:27.137Z</time></trkpt><trkpt lat="44.1631773" lon="11.5217148"><ele>786.0</ele><time>2026-05-01T12:38:28.136Z</time></trkpt><trkpt lat="44.1632442" lon="11.521703"><ele>786.0</ele><time>2026-05-01T12:38:29.134Z</time></trkpt><trkpt lat="44.16337" lon="11.5217215"><ele>786.0</ele><time>2026-05-01T12:38:31.133Z</time></trkpt><trkpt lat="44.1634345" lon="11.521729"><ele>786.0</ele><time>2026-05-01T12:38:32.135Z</time></trkpt><trkpt lat="44.1635205" lon="11.521667"><ele>786.0</ele><time>2026-05-01T12:38:34.136Z</time></trkpt><trkpt lat="44.1635605" lon="11.5214927"><ele>786.0</ele><time>2026-05-01T12:38:36.136Z</time></trkpt><trkpt lat="44.1635783" lon="11.5213883"><ele>786.0</ele><time>2026-05-01T12:38:37.136Z</time></trkpt><trkpt lat="44.1635895" lon="11.521295"><ele>786.0</ele><time>2026-05-01T12:38:38.135Z</time></trkpt><trkpt lat="44.163661" lon="11.5211672"><ele>786.0</ele><time>2026-05-01T12:38:40.137Z</time></trkpt><trkpt lat="44.163717" lon="11.5211048"><ele>786.0</ele><time>2026-05-01T12:38:41.137Z</time></trkpt><trkpt lat="44.1637788" lon="11.5209485"><ele>786.0</ele><time>2026-05-01T12:38:43.138Z</time></trkpt><trkpt lat="44.1638132" lon="11.5208632"><ele>785.5714285714287</ele><time>2026-05-01T12:38:44.135Z</time></trkpt><trkpt lat="44.163857" lon="11.5207883"><ele>785.1428571428571</ele><time>2026-05-01T12:38:45.137Z</time></trkpt><trkpt lat="44.163915" lon="11.520721"><ele>784.7142857142858</ele><time>2026-05-01T12:38:46.137Z</time></trkpt><trkpt lat="44.163984" lon="11.5206555"><ele>784.2857142857143</ele><time>2026-05-01T12:38:47.137Z</time></trkpt><trkpt lat="44.1640472" lon="11.5206037"><ele>783.8571428571429</ele><time>2026-05-01T12:38:48.136Z</time></trkpt><trkpt lat="44.1641108" lon="11.5205572"><ele>783.4285714285714</ele><time>2026-05-01T12:38:49.136Z</time></trkpt><trkpt lat="44.1641742" lon="11.5205165"><ele>783.0</ele><time>2026-05-01T12:38:50.138Z</time></trkpt><trkpt lat="44.1642342" lon="11.5204782"><ele>783.0</ele><time>2026-05-01T12:38:51.137Z</time></trkpt><trkpt lat="44.1642873" lon="11.5204295"><ele>783.0</ele><time>2026-05-01T12:38:52.136Z</time></trkpt><trkpt lat="44.164358" lon="11.5203097"><ele>783.0</ele><time>2026-05-01T12:38:54.135Z</time></trkpt><trkpt lat="44.1644072" lon="11.520157"><ele>783.0</ele><time>2026-05-01T12:38:56.135Z</time></trkpt><trkpt lat="44.1645033" lon="11.5200225"><ele>783.0</ele><time>2026-05-01T12:38:58.137Z</time></trkpt><trkpt lat="44.1645642" lon="11.519947"><ele>780.5999999999999</ele><time>2026-05-01T12:38:59.136Z</time></trkpt><trkpt lat="44.1646797" lon="11.519775"><ele>778.1999999999999</ele><time>2026-05-01T12:39:01.134Z</time></trkpt><trkpt lat="44.164739" lon="11.5196753"><ele>775.8</ele><time>2026-05-01T12:39:02.134Z</time></trkpt><trkpt lat="44.164794" lon="11.5195738"><ele>773.4</ele><time>2026-05-01T12:39:03.134Z</time></trkpt><trkpt lat="44.1648473" lon="11.5194813"><ele>771.0</ele><time>2026-05-01T12:39:04.133Z</time></trkpt><trkpt lat="44.1648853" lon="11.5193938"><ele>770.6666666666666</ele><time>2026-05-01T12:39:05.135Z</time></trkpt><trkpt lat="44.1649357" lon="11.5193282"><ele>770.3333333333333</ele><time>2026-05-01T12:39:06.133Z</time></trkpt><trkpt lat="44.1650332" lon="11.5192225"><ele>770.0</ele><time>2026-05-01T12:39:08.133Z</time></trkpt><trkpt lat="44.1650822" lon="11.5191587"><ele>769.6666666666666</ele><time>2026-05-01T12:39:09.132Z</time></trkpt><trkpt lat="44.1651382" lon="11.5191092"><ele>769.3333333333333</ele><time>2026-05-01T12:39:10.133Z</time></trkpt><trkpt lat="44.1651995" lon="11.5190708"><ele>769.0</ele><time>2026-05-01T12:39:11.133Z</time></trkpt><trkpt lat="44.1652617" lon="11.5190408"><ele>768.9999999999999</ele><time>2026-05-01T12:39:12.134Z</time></trkpt><trkpt lat="44.1653255" lon="11.5190012"><ele>769.0</ele><time>2026-05-01T12:39:13.135Z</time></trkpt><trkpt lat="44.1653787" lon="11.5189395"><ele>769.0</ele><time>2026-05-01T12:39:14.135Z</time></trkpt><trkpt lat="44.165443" lon="11.5188702"><ele>769.0</ele><time>2026-05-01T12:39:15.135Z</time></trkpt><trkpt lat="44.1655232" lon="11.5188032"><ele>768.9999999999999</ele><time>2026-05-01T12:39:16.134Z</time></trkpt><trkpt lat="44.1655968" lon="11.5187407"><ele>769.0</ele><time>2026-05-01T12:39:17.131Z</time></trkpt><trkpt lat="44.1656665" lon="11.518672"><ele>765.5</ele><time>2026-05-01T12:39:18.132Z</time></trkpt><trkpt lat="44.1657415" lon="11.5185818"><ele>762.0</ele><time>2026-05-01T12:39:19.133Z</time></trkpt><trkpt lat="44.1658337" lon="11.5184748"><ele>758.5</ele><time>2026-05-01T12:39:20.133Z</time></trkpt><trkpt lat="44.1659222" lon="11.5183607"><ele>755.0</ele><time>2026-05-01T12:39:21.135Z</time></trkpt><trkpt lat="44.1660103" lon="11.518233"><ele>755.0</ele><time>2026-05-01T12:39:22.136Z</time></trkpt><trkpt lat="44.1660945" lon="11.5181148"><ele>755.0</ele><time>2026-05-01T12:39:23.135Z</time></trkpt><trkpt lat="44.1661797" lon="11.518017"><ele>755.0</ele><time>2026-05-01T12:39:24.137Z</time></trkpt><trkpt lat="44.1662643" lon="11.5179502"><ele>755.0</ele><time>2026-05-01T12:39:25.137Z</time></trkpt><trkpt lat="44.166342" lon="11.5179002"><ele>755.0</ele><time>2026-05-01T12:39:26.136Z</time></trkpt><trkpt lat="44.1664093" lon="11.517849"><ele>754.6</ele><time>2026-05-01T12:39:27.136Z</time></trkpt><trkpt lat="44.1664762" lon="11.5177722"><ele>754.2</ele><time>2026-05-01T12:39:28.136Z</time></trkpt><trkpt lat="44.1665423" lon="11.5176615"><ele>753.8</ele><time>2026-05-01T12:39:29.136Z</time></trkpt><trkpt lat="44.1665965" lon="11.5175558"><ele>753.4</ele><time>2026-05-01T12:39:30.136Z</time></trkpt><trkpt lat="44.1666387" lon="11.5174462"><ele>753.0</ele><time>2026-05-01T12:39:31.136Z</time></trkpt><trkpt lat="44.1666718" lon="11.5173262"><ele>753.0</ele><time>2026-05-01T12:39:32.136Z</time></trkpt><trkpt lat="44.166704" lon="11.5172148"><ele>753.0</ele><time>2026-05-01T12:39:33.138Z</time></trkpt><trkpt lat="44.1667465" lon="11.5171177"><ele>753.0</ele><time>2026-05-01T12:39:34.138Z</time></trkpt><trkpt lat="44.1667932" lon="11.5170273"><ele>753.0</ele><time>2026-05-01T12:39:35.138Z</time></trkpt><trkpt lat="44.166835" lon="11.516927"><ele>753.0</ele><time>2026-05-01T12:39:36.138Z</time></trkpt><trkpt lat="44.1668767" lon="11.5168202"><ele>753.0</ele><time>2026-05-01T12:39:37.139Z</time></trkpt><trkpt lat="44.1669222" lon="11.5167308"><ele>748.8</ele><time>2026-05-01T12:39:38.138Z</time></trkpt><trkpt lat="44.1669852" lon="11.5166408"><ele>744.5999999999999</ele><time>2026-05-01T12:39:39.138Z</time></trkpt><trkpt lat="44.1670635" lon="11.5165562"><ele>740.4000000000001</ele><time>2026-05-01T12:39:40.137Z</time></trkpt><trkpt lat="44.1671417" lon="11.5164745"><ele>736.2</ele><time>2026-05-01T12:39:41.137Z</time></trkpt><trkpt lat="44.167209" lon="11.5163882"><ele>732.0</ele><time>2026-05-01T12:39:42.135Z</time></trkpt><trkpt lat="44.1672635" lon="11.5163188"><ele>732.0</ele><time>2026-05-01T12:39:43.134Z</time></trkpt><trkpt lat="44.1673192" lon="11.516262"><ele>732.0</ele><time>2026-05-01T12:39:44.134Z</time></trkpt><trkpt lat="44.167403" lon="11.5162097"><ele>732.0</ele><time>2026-05-01T12:39:46.136Z</time></trkpt><trkpt lat="44.1674815" lon="11.5161562"><ele>732.0</ele><time>2026-05-01T12:39:48.133Z</time></trkpt><trkpt lat="44.1675393" lon="11.5161138"><ele>732.0</ele><time>2026-05-01T12:39:49.134Z</time></trkpt><trkpt lat="44.1676012" lon="11.5160613"><ele>732.0</ele><time>2026-05-01T12:39:50.134Z</time></trkpt><trkpt lat="44.1676648" lon="11.5160025"><ele>737.8</ele><time>2026-05-01T12:39:51.135Z</time></trkpt><trkpt lat="44.1677345" lon="11.515939"><ele>743.6</ele><time>2026-05-01T12:39:52.136Z</time></trkpt><trkpt lat="44.1678028" lon="11.5158905"><ele>749.4</ele><time>2026-05-01T12:39:53.135Z</time></trkpt><trkpt lat="44.1678705" lon="11.5158562"><ele>755.1999999999999</ele><time>2026-05-01T12:39:54.135Z</time></trkpt><trkpt lat="44.1679762" lon="11.5158137"><ele>761.0</ele><time>2026-05-01T12:39:56.133Z</time></trkpt><trkpt lat="44.1681182" lon="11.5157565"><ele>757.5999999999999</ele><time>2026-05-01T12:39:58.135Z</time></trkpt><trkpt lat="44.1682185" lon="11.5157182"><ele>754.2</ele><time>2026-05-01T12:39:59.133Z</time></trkpt><trkpt lat="44.1683117" lon="11.5156862"><ele>750.8</ele><time>2026-05-01T12:40:00.133Z</time></trkpt><trkpt lat="44.168406" lon="11.5156642"><ele>747.4000000000001</ele><time>2026-05-01T12:40:01.133Z</time></trkpt><trkpt lat="44.1684922" lon="11.5156515"><ele>744.0</ele><time>2026-05-01T12:40:02.133Z</time></trkpt><trkpt lat="44.1685687" lon="11.5156352"><ele>744.0</ele><time>2026-05-01T12:40:03.134Z</time></trkpt><trkpt lat="44.1686385" lon="11.5155972"><ele>744.0</ele><time>2026-05-01T12:40:04.135Z</time></trkpt><trkpt lat="44.1687055" lon="11.5155412"><ele>744.0</ele><time>2026-05-01T12:40:05.133Z</time></trkpt><trkpt lat="44.1687858" lon="11.5154778"><ele>744.0</ele><time>2026-05-01T12:40:06.132Z</time></trkpt><trkpt lat="44.168867" lon="11.5154328"><ele>744.0</ele><time>2026-05-01T12:40:07.132Z</time></trkpt><trkpt lat="44.1689355" lon="11.5154045"><ele>744.0</ele><time>2026-05-01T12:40:08.131Z</time></trkpt><trkpt lat="44.1690423" lon="11.5153803"><ele>743.4000000000001</ele><time>2026-05-01T12:40:10.134Z</time></trkpt><trkpt lat="44.1691102" lon="11.5153953"><ele>742.8</ele><time>2026-05-01T12:40:11.133Z</time></trkpt><trkpt lat="44.1691817" lon="11.5153973"><ele>742.2</ele><time>2026-05-01T12:40:12.136Z</time></trkpt><trkpt lat="44.1692683" lon="11.5153732"><ele>741.5999999999999</ele><time>2026-05-01T12:40:13.136Z</time></trkpt><trkpt lat="44.1693735" lon="11.5153137"><ele>741.0</ele><time>2026-05-01T12:40:14.135Z</time></trkpt><trkpt lat="44.1694817" lon="11.5152432"><ele>741.0</ele><time>2026-05-01T12:40:15.136Z</time></trkpt><trkpt lat="44.1695755" lon="11.5151887"><ele>741.0</ele><time>2026-05-01T12:40:16.138Z</time></trkpt><trkpt lat="44.1696633" lon="11.5151595"><ele>741.0</ele><time>2026-05-01T12:40:17.136Z</time></trkpt><trkpt lat="44.169749" lon="11.5151672"><ele>741.0</ele><time>2026-05-01T12:40:18.137Z</time></trkpt><trkpt lat="44.1698313" lon="11.5151775"><ele>741.0</ele><time>2026-05-01T12:40:19.139Z</time></trkpt><trkpt lat="44.1699077" lon="11.5151618"><ele>741.0</ele><time>2026-05-01T12:40:20.136Z</time></trkpt><trkpt lat="44.1699817" lon="11.5151462"><ele>738.5</ele><time>2026-05-01T12:40:21.136Z</time></trkpt><trkpt lat="44.170068" lon="11.5151532"><ele>736.0</ele><time>2026-05-01T12:40:22.139Z</time></trkpt><trkpt lat="44.1701612" lon="11.515178"><ele>733.5</ele><time>2026-05-01T12:40:23.137Z</time></trkpt><trkpt lat="44.1702512" lon="11.5151885"><ele>731.0</ele><time>2026-05-01T12:40:24.139Z</time></trkpt><trkpt lat="44.1703412" lon="11.5151777"><ele>728.5</ele><time>2026-05-01T12:40:25.137Z</time></trkpt><trkpt lat="44.1704193" lon="11.5151415"><ele>726.0</ele><time>2026-05-01T12:40:26.137Z</time></trkpt><trkpt lat="44.1705015" lon="11.5150787"><ele>726.0</ele><time>2026-05-01T12:40:27.14Z</time></trkpt><trkpt lat="44.170585" lon="11.515025"><ele>726.0</ele><time>2026-05-01T12:40:28.137Z</time></trkpt><trkpt lat="44.1706815" lon="11.5149947"><ele>726.0</ele><time>2026-05-01T12:40:29.136Z</time></trkpt><trkpt lat="44.1708008" lon="11.5149823"><ele>726.0</ele><time>2026-05-01T12:40:30.137Z</time></trkpt><trkpt lat="44.1709182" lon="11.5149748"><ele>726.0</ele><time>2026-05-01T12:40:31.135Z</time></trkpt><trkpt lat="44.1710213" lon="11.51499"><ele>726.4</ele><time>2026-05-01T12:40:32.135Z</time></trkpt><trkpt lat="44.1711235" lon="11.5150175"><ele>726.8</ele><time>2026-05-01T12:40:33.136Z</time></trkpt><trkpt lat="44.1712305" lon="11.5150512"><ele>727.1999999999999</ele><time>2026-05-01T12:40:34.133Z</time></trkpt><trkpt lat="44.17133" lon="11.5150905"><ele>727.5999999999999</ele><time>2026-05-01T12:40:35.135Z</time></trkpt><trkpt lat="44.1714238" lon="11.5151275"><ele>728.0</ele><time>2026-05-01T12:40:36.136Z</time></trkpt><trkpt lat="44.171504" lon="11.5151638"><ele>727.8</ele><time>2026-05-01T12:40:37.135Z</time></trkpt><trkpt lat="44.171627" lon="11.515213"><ele>727.5999999999999</ele><time>2026-05-01T12:40:39.136Z</time></trkpt><trkpt lat="44.1716875" lon="11.5152625"><ele>727.4000000000001</ele><time>2026-05-01T12:40:40.135Z</time></trkpt><trkpt lat="44.17176" lon="11.5153165"><ele>727.2</ele><time>2026-05-01T12:40:41.134Z</time></trkpt><trkpt lat="44.1718417" lon="11.515376"><ele>727.0</ele><time>2026-05-01T12:40:42.134Z</time></trkpt><trkpt lat="44.1719323" lon="11.515444"><ele>727.0</ele><time>2026-05-01T12:40:43.135Z</time></trkpt><trkpt lat="44.172024" lon="11.5155032"><ele>727.0</ele><time>2026-05-01T12:40:44.135Z</time></trkpt><trkpt lat="44.1721167" lon="11.5155535"><ele>727.0</ele><time>2026-05-01T12:40:45.136Z</time></trkpt><trkpt lat="44.1722067" lon="11.5155808"><ele>727.0</ele><time>2026-05-01T12:40:46.136Z</time></trkpt><trkpt lat="44.17228" lon="11.5156027"><ele>727.0</ele><time>2026-05-01T12:40:47.135Z</time></trkpt><trkpt lat="44.1724018" lon="11.5156038"><ele>726.5</ele><time>2026-05-01T12:40:49.137Z</time></trkpt><trkpt lat="44.1724738" lon="11.515595"><ele>726.0</ele><time>2026-05-01T12:40:50.136Z</time></trkpt><trkpt lat="44.1725615" lon="11.5155922"><ele>725.5</ele><time>2026-05-01T12:40:51.136Z</time></trkpt><trkpt lat="44.1726652" lon="11.5156105"><ele>725.0</ele><time>2026-05-01T12:40:52.136Z</time></trkpt><trkpt lat="44.1727573" lon="11.5156327"><ele>724.5</ele><time>2026-05-01T12:40:53.137Z</time></trkpt><trkpt lat="44.1728458" lon="11.515645"><ele>724.0</ele><time>2026-05-01T12:40:54.136Z</time></trkpt><trkpt lat="44.1729362" lon="11.5156698"><ele>724.0</ele><time>2026-05-01T12:40:55.134Z</time></trkpt><trkpt lat="44.1730395" lon="11.5157165"><ele>724.0</ele><time>2026-05-01T12:40:56.134Z</time></trkpt><trkpt lat="44.1731573" lon="11.5157757"><ele>724.0</ele><time>2026-05-01T12:40:57.134Z</time></trkpt><trkpt lat="44.1732655" lon="11.5158258"><ele>724.0</ele><time>2026-05-01T12:40:58.133Z</time></trkpt><trkpt lat="44.1733518" lon="11.5158848"><ele>724.0</ele><time>2026-05-01T12:40:59.135Z</time></trkpt><trkpt lat="44.173422" lon="11.5159282"><ele>725.8000000000001</ele><time>2026-05-01T12:41:00.133Z</time></trkpt><trkpt lat="44.1734887" lon="11.515939"><ele>727.6</ele><time>2026-05-01T12:41:01.133Z</time></trkpt><trkpt lat="44.1735692" lon="11.5159297"><ele>729.4</ele><time>2026-05-01T12:41:02.132Z</time></trkpt><trkpt lat="44.1736707" lon="11.5159248"><ele>731.2</ele><time>2026-05-01T12:41:03.136Z</time></trkpt><trkpt lat="44.1737978" lon="11.5159327"><ele>733.0</ele><time>2026-05-01T12:41:04.134Z</time></trkpt><trkpt lat="44.1739225" lon="11.5159383"><ele>733.8</ele><time>2026-05-01T12:41:05.133Z</time></trkpt><trkpt lat="44.1740308" lon="11.5159412"><ele>734.5999999999999</ele><time>2026-05-01T12:41:06.133Z</time></trkpt><trkpt lat="44.174123" lon="11.5159603"><ele>735.4000000000001</ele><time>2026-05-01T12:41:07.134Z</time></trkpt><trkpt lat="44.1742098" lon="11.5159972"><ele>736.2</ele><time>2026-05-01T12:41:08.133Z</time></trkpt><trkpt lat="44.174289" lon="11.5160422"><ele>737.0</ele><time>2026-05-01T12:41:09.135Z</time></trkpt><trkpt lat="44.1743805" lon="11.516085"><ele>737.0</ele><time>2026-05-01T12:41:10.134Z</time></trkpt><trkpt lat="44.1744698" lon="11.5161185"><ele>737.0</ele><time>2026-05-01T12:41:11.134Z</time></trkpt><trkpt lat="44.1745643" lon="11.516139"><ele>737.0</ele><time>2026-05-01T12:41:12.135Z</time></trkpt><trkpt lat="44.174661" lon="11.516157"><ele>737.0</ele><time>2026-05-01T12:41:13.137Z</time></trkpt><trkpt lat="44.1747562" lon="11.516182"><ele>737.0</ele><time>2026-05-01T12:41:14.135Z</time></trkpt><trkpt lat="44.1748432" lon="11.516206"><ele>734.8</ele><time>2026-05-01T12:41:15.134Z</time></trkpt><trkpt lat="44.1749377" lon="11.5162147"><ele>732.6</ele><time>2026-05-01T12:41:16.134Z</time></trkpt><trkpt lat="44.1750358" lon="11.5162192"><ele>730.4</ele><time>2026-05-01T12:41:17.135Z</time></trkpt><trkpt lat="44.1751223" lon="11.5162115"><ele>728.1999999999999</ele><time>2026-05-01T12:41:18.135Z</time></trkpt><trkpt lat="44.1752182" lon="11.5161905"><ele>726.0</ele><time>2026-05-01T12:41:19.136Z</time></trkpt><trkpt lat="44.1753168" lon="11.5161612"><ele>726.0</ele><time>2026-05-01T12:41:20.134Z</time></trkpt><trkpt lat="44.1754133" lon="11.5161353"><ele>726.0</ele><time>2026-05-01T12:41:21.134Z</time></trkpt><trkpt lat="44.1754992" lon="11.5161282"><ele>726.0</ele><time>2026-05-01T12:41:22.134Z</time></trkpt><trkpt lat="44.175596" lon="11.5161425"><ele>726.0</ele><time>2026-05-01T12:41:23.134Z</time></trkpt><trkpt lat="44.1756943" lon="11.5161695"><ele>726.0</ele><time>2026-05-01T12:41:24.135Z</time></trkpt><trkpt lat="44.1757922" lon="11.5162137"><ele>724.4</ele><time>2026-05-01T12:41:25.134Z</time></trkpt><trkpt lat="44.1758938" lon="11.5162605"><ele>722.8</ele><time>2026-05-01T12:41:26.134Z</time></trkpt><trkpt lat="44.1759868" lon="11.5163085"><ele>721.1999999999999</ele><time>2026-05-01T12:41:27.136Z</time></trkpt><trkpt lat="44.1760807" lon="11.5163452"><ele>719.5999999999999</ele><time>2026-05-01T12:41:28.136Z</time></trkpt><trkpt lat="44.1761637" lon="11.5163875"><ele>718.0</ele><time>2026-05-01T12:41:29.137Z</time></trkpt><trkpt lat="44.17623" lon="11.51642"><ele>718.0</ele><time>2026-05-01T12:41:30.136Z</time></trkpt><trkpt lat="44.1763123" lon="11.5164272"><ele>718.0</ele><time>2026-05-01T12:41:31.135Z</time></trkpt><trkpt lat="44.1764035" lon="11.5164165"><ele>718.0</ele><time>2026-05-01T12:41:32.135Z</time></trkpt><trkpt lat="44.1764948" lon="11.5164215"><ele>718.0</ele><time>2026-05-01T12:41:33.136Z</time></trkpt><trkpt lat="44.1765823" lon="11.516446"><ele>718.0</ele><time>2026-05-01T12:41:34.137Z</time></trkpt><trkpt lat="44.1766683" lon="11.5164828"><ele>718.0</ele><time>2026-05-01T12:41:35.135Z</time></trkpt><trkpt lat="44.1767548" lon="11.5165133"><ele>718.5999999999999</ele><time>2026-05-01T12:41:36.133Z</time></trkpt><trkpt lat="44.1768477" lon="11.5165832"><ele>719.1999999999999</ele><time>2026-05-01T12:41:37.134Z</time></trkpt><trkpt lat="44.1769277" lon="11.5166627"><ele>719.8</ele><time>2026-05-01T12:41:38.134Z</time></trkpt><trkpt lat="44.176996" lon="11.5167442"><ele>720.4</ele><time>2026-05-01T12:41:39.135Z</time></trkpt><trkpt lat="44.1770597" lon="11.5168383"><ele>721.0</ele><time>2026-05-01T12:41:40.136Z</time></trkpt><trkpt lat="44.1771168" lon="11.5169332"><ele>721.0</ele><time>2026-05-01T12:41:41.136Z</time></trkpt><trkpt lat="44.1771698" lon="11.5170267"><ele>721.0</ele><time>2026-05-01T12:41:42.136Z</time></trkpt><trkpt lat="44.1772222" lon="11.517136"><ele>721.0</ele><time>2026-05-01T12:41:43.136Z</time></trkpt><trkpt lat="44.1772555" lon="11.5172442"><ele>721.0</ele><time>2026-05-01T12:41:44.134Z</time></trkpt><trkpt lat="44.1772995" lon="11.5173543"><ele>721.0</ele><time>2026-05-01T12:41:45.133Z</time></trkpt><trkpt lat="44.1773665" lon="11.5174688"><ele>718.4</ele><time>2026-05-01T12:41:46.134Z</time></trkpt><trkpt lat="44.1774455" lon="11.5175827"><ele>715.8</ele><time>2026-05-01T12:41:47.133Z</time></trkpt><trkpt lat="44.1775332" lon="11.5176887"><ele>713.1999999999999</ele><time>2026-05-01T12:41:48.136Z</time></trkpt><trkpt lat="44.1776173" lon="11.5177747"><ele>710.5999999999999</ele><time>2026-05-01T12:41:49.136Z</time></trkpt><trkpt lat="44.1777078" lon="11.5178363"><ele>708.0</ele><time>2026-05-01T12:41:50.135Z</time></trkpt><trkpt lat="44.1778138" lon="11.5179125"><ele>706.4</ele><time>2026-05-01T12:41:51.136Z</time></trkpt><trkpt lat="44.1779118" lon="11.518004"><ele>704.8</ele><time>2026-05-01T12:41:52.135Z</time></trkpt><trkpt lat="44.177999" lon="11.5181012"><ele>703.2</ele><time>2026-05-01T12:41:53.135Z</time></trkpt><trkpt lat="44.1780793" lon="11.51821"><ele>701.6</ele><time>2026-05-01T12:41:54.136Z</time></trkpt><trkpt lat="44.1781475" lon="11.5183183"><ele>700.0</ele><time>2026-05-01T12:41:55.136Z</time></trkpt><trkpt lat="44.1782215" lon="11.5184177"><ele>700.0</ele><time>2026-05-01T12:41:56.134Z</time></trkpt><trkpt lat="44.1782927" lon="11.518524"><ele>700.0</ele><time>2026-05-01T12:41:57.136Z</time></trkpt><trkpt lat="44.1783588" lon="11.5186268"><ele>700.0</ele><time>2026-05-01T12:41:58.136Z</time></trkpt><trkpt lat="44.1784295" lon="11.518715"><ele>700.0</ele><time>2026-05-01T12:41:59.137Z</time></trkpt><trkpt lat="44.1785078" lon="11.518802"><ele>700.0</ele><time>2026-05-01T12:42:00.136Z</time></trkpt><trkpt lat="44.1785733" lon="11.5189025"><ele>700.0</ele><time>2026-05-01T12:42:01.138Z</time></trkpt><trkpt lat="44.1786147" lon="11.5190097"><ele>700.0</ele><time>2026-05-01T12:42:02.137Z</time></trkpt><trkpt lat="44.1786437" lon="11.5191373"><ele>700.0</ele><time>2026-05-01T12:42:03.135Z</time></trkpt><trkpt lat="44.1786815" lon="11.5192592"><ele>700.0</ele><time>2026-05-01T12:42:04.134Z</time></trkpt><trkpt lat="44.1787385" lon="11.5193865"><ele>700.0</ele><time>2026-05-01T12:42:05.136Z</time></trkpt><trkpt lat="44.1787923" lon="11.5195252"><ele>696.6</ele><time>2026-05-01T12:42:06.139Z</time></trkpt><trkpt lat="44.1788357" lon="11.5196585"><ele>693.2</ele><time>2026-05-01T12:42:07.136Z</time></trkpt><trkpt lat="44.1788867" lon="11.5197915"><ele>689.8</ele><time>2026-05-01T12:42:08.134Z</time></trkpt><trkpt lat="44.1789492" lon="11.5199018"><ele>686.4</ele><time>2026-05-01T12:42:09.135Z</time></trkpt><trkpt lat="44.1790265" lon="11.5199922"><ele>683.0</ele><time>2026-05-01T12:42:10.134Z</time></trkpt><trkpt lat="44.1790873" lon="11.5200863"><ele>683.0</ele><time>2026-05-01T12:42:11.134Z</time></trkpt><trkpt lat="44.1791395" lon="11.520168"><ele>683.0</ele><time>2026-05-01T12:42:12.135Z</time></trkpt><trkpt lat="44.1792078" lon="11.5202288"><ele>683.0</ele><time>2026-05-01T12:42:13.136Z</time></trkpt><trkpt lat="44.1792767" lon="11.5202528"><ele>683.0</ele><time>2026-05-01T12:42:14.136Z</time></trkpt><trkpt lat="44.1794038" lon="11.5202447"><ele>683.0</ele><time>2026-05-01T12:42:16.137Z</time></trkpt><trkpt lat="44.1794675" lon="11.5202455"><ele>683.0</ele><time>2026-05-01T12:42:17.135Z</time></trkpt><trkpt lat="44.1795757" lon="11.520256"><ele>683.0</ele><time>2026-05-01T12:42:19.135Z</time></trkpt><trkpt lat="44.1796445" lon="11.5202752"><ele>683.0</ele><time>2026-05-01T12:42:20.136Z</time></trkpt><trkpt lat="44.1797212" lon="11.5203088"><ele>683.0</ele><time>2026-05-01T12:42:21.136Z</time></trkpt><trkpt lat="44.179812" lon="11.5203757"><ele>683.0</ele><time>2026-05-01T12:42:22.137Z</time></trkpt><trkpt lat="44.1798978" lon="11.5204523"><ele>683.0</ele><time>2026-05-01T12:42:23.136Z</time></trkpt><trkpt lat="44.1799707" lon="11.5205178"><ele>683.0</ele><time>2026-05-01T12:42:24.137Z</time></trkpt><trkpt lat="44.180038" lon="11.5205922"><ele>682.8</ele><time>2026-05-01T12:42:25.138Z</time></trkpt><trkpt lat="44.1801007" lon="11.5206755"><ele>682.5999999999999</ele><time>2026-05-01T12:42:26.136Z</time></trkpt><trkpt lat="44.1801762" lon="11.5207782"><ele>682.4000000000001</ele><time>2026-05-01T12:42:27.139Z</time></trkpt><trkpt lat="44.1802617" lon="11.520884"><ele>682.2</ele><time>2026-05-01T12:42:28.138Z</time></trkpt><trkpt lat="44.1803495" lon="11.5209847"><ele>682.0</ele><time>2026-05-01T12:42:29.137Z</time></trkpt><trkpt lat="44.1804253" lon="11.5210772"><ele>682.0</ele><time>2026-05-01T12:42:30.138Z</time></trkpt><trkpt lat="44.1804945" lon="11.5211617"><ele>682.0</ele><time>2026-05-01T12:42:31.138Z</time></trkpt><trkpt lat="44.1805615" lon="11.5212425"><ele>682.0</ele><time>2026-05-01T12:42:32.138Z</time></trkpt><trkpt lat="44.1806318" lon="11.5213328"><ele>682.0</ele><time>2026-05-01T12:42:33.137Z</time></trkpt><trkpt lat="44.180713" lon="11.5214347"><ele>682.0</ele><time>2026-05-01T12:42:34.136Z</time></trkpt><trkpt lat="44.1808005" lon="11.5215423"><ele>681.5</ele><time>2026-05-01T12:42:35.136Z</time></trkpt><trkpt lat="44.1808935" lon="11.5216437"><ele>681.0</ele><time>2026-05-01T12:42:36.136Z</time></trkpt><trkpt lat="44.1809945" lon="11.5217377"><ele>680.5</ele><time>2026-05-01T12:42:37.139Z</time></trkpt><trkpt lat="44.181084" lon="11.5218193"><ele>680.0</ele><time>2026-05-01T12:42:38.138Z</time></trkpt><trkpt lat="44.1811742" lon="11.5218902"><ele>680.0</ele><time>2026-05-01T12:42:39.137Z</time></trkpt><trkpt lat="44.1812715" lon="11.521966"><ele>680.0</ele><time>2026-05-01T12:42:40.137Z</time></trkpt><trkpt lat="44.1813685" lon="11.5220573"><ele>680.0</ele><time>2026-05-01T12:42:41.138Z</time></trkpt><trkpt lat="44.1814668" lon="11.5221552"><ele>680.0</ele><time>2026-05-01T12:42:42.14Z</time></trkpt><trkpt lat="44.1815585" lon="11.52226"><ele>680.2</ele><time>2026-05-01T12:42:43.138Z</time></trkpt><trkpt lat="44.181633" lon="11.5223705"><ele>680.4</ele><time>2026-05-01T12:42:44.137Z</time></trkpt><trkpt lat="44.1817003" lon="11.522472"><ele>680.5999999999999</ele><time>2026-05-01T12:42:45.138Z</time></trkpt><trkpt lat="44.1817637" lon="11.5225532"><ele>680.8</ele><time>2026-05-01T12:42:46.138Z</time></trkpt><trkpt lat="44.1818527" lon="11.522639"><ele>681.0</ele><time>2026-05-01T12:42:47.137Z</time></trkpt><trkpt lat="44.1819433" lon="11.52273"><ele>681.0</ele><time>2026-05-01T12:42:48.138Z</time></trkpt><trkpt lat="44.1820293" lon="11.5228357"><ele>681.0</ele><time>2026-05-01T12:42:49.139Z</time></trkpt><trkpt lat="44.1821068" lon="11.5229547"><ele>681.0</ele><time>2026-05-01T12:42:50.137Z</time></trkpt><trkpt lat="44.1821872" lon="11.5230822"><ele>681.0</ele><time>2026-05-01T12:42:51.138Z</time></trkpt><trkpt lat="44.1822715" lon="11.5232128"><ele>681.4</ele><time>2026-05-01T12:42:52.137Z</time></trkpt><trkpt lat="44.182355" lon="11.5233297"><ele>681.8</ele><time>2026-05-01T12:42:53.137Z</time></trkpt><trkpt lat="44.1824275" lon="11.5234417"><ele>682.1999999999999</ele><time>2026-05-01T12:42:54.139Z</time></trkpt><trkpt lat="44.1824885" lon="11.52354"><ele>682.5999999999999</ele><time>2026-05-01T12:42:55.137Z</time></trkpt><trkpt lat="44.1825415" lon="11.5236277"><ele>683.0</ele><time>2026-05-01T12:42:56.138Z</time></trkpt><trkpt lat="44.1825985" lon="11.5236827"><ele>684.3333333333333</ele><time>2026-05-01T12:42:57.136Z</time></trkpt><trkpt lat="44.1826998" lon="11.5237787"><ele>685.6666666666666</ele><time>2026-05-01T12:42:59.134Z</time></trkpt><trkpt lat="44.1827568" lon="11.5238193"><ele>687.0</ele><time>2026-05-01T12:43:00.133Z</time></trkpt><trkpt lat="44.1828232" lon="11.5238522"><ele>688.3333333333334</ele><time>2026-05-01T12:43:01.133Z</time></trkpt><trkpt lat="44.1828858" lon="11.5238767"><ele>689.6666666666667</ele><time>2026-05-01T12:43:02.134Z</time></trkpt><trkpt lat="44.1829992" lon="11.5239122"><ele>691.0</ele><time>2026-05-01T12:43:04.136Z</time></trkpt><trkpt lat="44.1831372" lon="11.5238798"><ele>691.0</ele><time>2026-05-01T12:43:06.136Z</time></trkpt><trkpt lat="44.1832352" lon="11.5238573"><ele>691.0</ele><time>2026-05-01T12:43:07.138Z</time></trkpt><trkpt lat="44.1833355" lon="11.5238498"><ele>691.0</ele><time>2026-05-01T12:43:08.137Z</time></trkpt><trkpt lat="44.1834373" lon="11.5238688"><ele>691.0</ele><time>2026-05-01T12:43:09.139Z</time></trkpt><trkpt lat="44.1835582" lon="11.5239067"><ele>691.0</ele><time>2026-05-01T12:43:10.137Z</time></trkpt><trkpt lat="44.1836818" lon="11.5239352"><ele>691.0</ele><time>2026-05-01T12:43:11.137Z</time></trkpt><trkpt lat="44.1837872" lon="11.5239608"><ele>691.0</ele><time>2026-05-01T12:43:12.137Z</time></trkpt><trkpt lat="44.1838872" lon="11.523994"><ele>691.0</ele><time>2026-05-01T12:43:13.137Z</time></trkpt><trkpt lat="44.1839722" lon="11.5240432"><ele>691.0</ele><time>2026-05-01T12:43:14.137Z</time></trkpt><trkpt lat="44.1840505" lon="11.5241025"><ele>691.0</ele><time>2026-05-01T12:43:15.137Z</time></trkpt><trkpt lat="44.1841207" lon="11.5241692"><ele>692.3333333333334</ele><time>2026-05-01T12:43:16.138Z</time></trkpt><trkpt lat="44.1841782" lon="11.5242303"><ele>693.6666666666667</ele><time>2026-05-01T12:43:17.137Z</time></trkpt><trkpt lat="44.1842338" lon="11.5242915"><ele>695.0</ele><time>2026-05-01T12:43:18.136Z</time></trkpt><trkpt lat="44.1842877" lon="11.5243438"><ele>696.3333333333334</ele><time>2026-05-01T12:43:19.136Z</time></trkpt><trkpt lat="44.1843448" lon="11.5243823"><ele>697.6666666666666</ele><time>2026-05-01T12:43:20.136Z</time></trkpt><trkpt lat="44.1844472" lon="11.5244845"><ele>699.0</ele><time>2026-05-01T12:43:22.134Z</time></trkpt><trkpt lat="44.184513" lon="11.5245617"><ele>700.5</ele><time>2026-05-01T12:43:23.135Z</time></trkpt><trkpt lat="44.184584" lon="11.524651"><ele>702.0</ele><time>2026-05-01T12:43:24.134Z</time></trkpt><trkpt lat="44.1846512" lon="11.5247477"><ele>703.5</ele><time>2026-05-01T12:43:25.134Z</time></trkpt><trkpt lat="44.184716" lon="11.5248302"><ele>705.0</ele><time>2026-05-01T12:43:26.137Z</time></trkpt><trkpt lat="44.184777" lon="11.5248895"><ele>706.5</ele><time>2026-05-01T12:43:27.136Z</time></trkpt><trkpt lat="44.1848437" lon="11.5249348"><ele>708.0</ele><time>2026-05-01T12:43:28.136Z</time></trkpt><trkpt lat="44.1849228" lon="11.5249895"><ele>709.5</ele><time>2026-05-01T12:43:29.137Z</time></trkpt><trkpt lat="44.185006" lon="11.5250543"><ele>711.0</ele><time>2026-05-01T12:43:30.136Z</time></trkpt><trkpt lat="44.1850785" lon="11.5251375"><ele>712.5</ele><time>2026-05-01T12:43:31.136Z</time></trkpt><trkpt lat="44.1851457" lon="11.5252307"><ele>714.0</ele><time>2026-05-01T12:43:32.136Z</time></trkpt><trkpt lat="44.1852025" lon="11.5253"><ele>715.5</ele><time>2026-05-01T12:43:33.136Z</time></trkpt><trkpt lat="44.185265" lon="11.5253532"><ele>717.0</ele><time>2026-05-01T12:43:34.137Z</time></trkpt><trkpt lat="44.1853418" lon="11.5253933"><ele>716.2</ele><time>2026-05-01T12:43:35.136Z</time></trkpt><trkpt lat="44.185416" lon="11.5254243"><ele>715.4000000000001</ele><time>2026-05-01T12:43:36.137Z</time></trkpt><trkpt lat="44.1854818" lon="11.5254595"><ele>714.5999999999999</ele><time>2026-05-01T12:43:37.137Z</time></trkpt><trkpt lat="44.1856023" lon="11.5255725"><ele>713.8</ele><time>2026-05-01T12:43:39.137Z</time></trkpt><trkpt lat="44.1856747" lon="11.5256577"><ele>713.0</ele><time>2026-05-01T12:43:40.136Z</time></trkpt><trkpt lat="44.1857402" lon="11.525756"><ele>714.5</ele><time>2026-05-01T12:43:41.135Z</time></trkpt><trkpt lat="44.1857855" lon="11.5258582"><ele>716.0</ele><time>2026-05-01T12:43:42.136Z</time></trkpt><trkpt lat="44.1858353" lon="11.5259463"><ele>717.5</ele><time>2026-05-01T12:43:43.136Z</time></trkpt><trkpt lat="44.185888" lon="11.526021"><ele>719.0</ele><time>2026-05-01T12:43:44.137Z</time></trkpt><trkpt lat="44.1859435" lon="11.5260832"><ele>720.5</ele><time>2026-05-01T12:43:45.137Z</time></trkpt><trkpt lat="44.186003" lon="11.5261265"><ele>722.0</ele><time>2026-05-01T12:43:46.137Z</time></trkpt><trkpt lat="44.1861083" lon="11.5261268"><ele>722.0</ele><time>2026-05-01T12:43:48.134Z</time></trkpt><trkpt lat="44.1862185" lon="11.5261035"><ele>722.0</ele><time>2026-05-01T12:43:50.136Z</time></trkpt><trkpt lat="44.186325" lon="11.5261522"><ele>722.0</ele><time>2026-05-01T12:43:52.137Z</time></trkpt><trkpt lat="44.1864052" lon="11.5262853"><ele>722.0</ele><time>2026-05-01T12:43:54.137Z</time></trkpt><trkpt lat="44.1864488" lon="11.5263498"><ele>722.0</ele><time>2026-05-01T12:43:55.136Z</time></trkpt><trkpt lat="44.1865745" lon="11.5263612"><ele>718.4285714285714</ele><time>2026-05-01T12:43:57.136Z</time></trkpt><trkpt lat="44.1866413" lon="11.5263717"><ele>714.8571428571428</ele><time>2026-05-01T12:43:58.138Z</time></trkpt><trkpt lat="44.1866942" lon="11.526422"><ele>711.2857142857142</ele><time>2026-05-01T12:43:59.136Z</time></trkpt><trkpt lat="44.1867393" lon="11.5264838"><ele>707.7142857142858</ele><time>2026-05-01T12:44:00.136Z</time></trkpt><trkpt lat="44.1867907" lon="11.5265462"><ele>704.1428571428571</ele><time>2026-05-01T12:44:01.137Z</time></trkpt><trkpt lat="44.186844" lon="11.5266115"><ele>700.5714285714286</ele><time>2026-05-01T12:44:02.137Z</time></trkpt><trkpt lat="44.1869028" lon="11.5266723"><ele>697.0</ele><time>2026-05-01T12:44:03.138Z</time></trkpt><trkpt lat="44.18697" lon="11.5267303"><ele>697.0</ele><time>2026-05-01T12:44:04.137Z</time></trkpt><trkpt lat="44.1870465" lon="11.5267872"><ele>697.0</ele><time>2026-05-01T12:44:05.137Z</time></trkpt><trkpt lat="44.1871258" lon="11.5268343"><ele>697.0</ele><time>2026-05-01T12:44:06.138Z</time></trkpt><trkpt lat="44.1871952" lon="11.5268803"><ele>697.0</ele><time>2026-05-01T12:44:07.138Z</time></trkpt><trkpt lat="44.1872598" lon="11.5269342"><ele>697.0</ele><time>2026-05-01T12:44:08.139Z</time></trkpt><trkpt lat="44.1873052" lon="11.5270002"><ele>697.0</ele><time>2026-05-01T12:44:09.137Z</time></trkpt><trkpt lat="44.1873532" lon="11.5271653"><ele>696.0</ele><time>2026-05-01T12:44:11.134Z</time></trkpt><trkpt lat="44.1873822" lon="11.5272612"><ele>695.0</ele><time>2026-05-01T12:44:12.135Z</time></trkpt><trkpt lat="44.1874073" lon="11.5273653"><ele>694.0</ele><time>2026-05-01T12:44:13.136Z</time></trkpt><trkpt lat="44.1874285" lon="11.527467"><ele>693.0</ele><time>2026-05-01T12:44:14.135Z</time></trkpt><trkpt lat="44.1874572" lon="11.5275692"><ele>692.0</ele><time>2026-05-01T12:44:15.137Z</time></trkpt><trkpt lat="44.187487" lon="11.527668"><ele>691.0</ele><time>2026-05-01T12:44:16.137Z</time></trkpt><trkpt lat="44.1875432" lon="11.5277533"><ele>691.0</ele><time>2026-05-01T12:44:17.138Z</time></trkpt><trkpt lat="44.1876058" lon="11.5278332"><ele>691.0</ele><time>2026-05-01T12:44:18.137Z</time></trkpt><trkpt lat="44.1876823" lon="11.5279357"><ele>691.0</ele><time>2026-05-01T12:44:19.137Z</time></trkpt><trkpt lat="44.1877575" lon="11.5280455"><ele>691.0</ele><time>2026-05-01T12:44:20.136Z</time></trkpt><trkpt lat="44.1878295" lon="11.528149"><ele>691.0</ele><time>2026-05-01T12:44:21.138Z</time></trkpt><trkpt lat="44.1878967" lon="11.528237"><ele>689.0</ele><time>2026-05-01T12:44:22.137Z</time></trkpt><trkpt lat="44.1879653" lon="11.5283095"><ele>687.0</ele><time>2026-05-01T12:44:23.136Z</time></trkpt><trkpt lat="44.188023" lon="11.5283827"><ele>685.0</ele><time>2026-05-01T12:44:24.137Z</time></trkpt><trkpt lat="44.1880793" lon="11.5284303"><ele>683.0</ele><time>2026-05-01T12:44:25.136Z</time></trkpt><trkpt lat="44.1881457" lon="11.5284667"><ele>681.0</ele><time>2026-05-01T12:44:26.136Z</time></trkpt><trkpt lat="44.1882455" lon="11.5285055"><ele>679.0</ele><time>2026-05-01T12:44:27.136Z</time></trkpt><trkpt lat="44.1883487" lon="11.528572"><ele>679.0</ele><time>2026-05-01T12:44:28.136Z</time></trkpt><trkpt lat="44.1884472" lon="11.5286512"><ele>679.0</ele><time>2026-05-01T12:44:29.135Z</time></trkpt><trkpt lat="44.1885427" lon="11.5287197"><ele>679.0</ele><time>2026-05-01T12:44:30.136Z</time></trkpt><trkpt lat="44.188629" lon="11.528793"><ele>679.0</ele><time>2026-05-01T12:44:31.138Z</time></trkpt><trkpt lat="44.1887048" lon="11.528876"><ele>679.0</ele><time>2026-05-01T12:44:32.138Z</time></trkpt><trkpt lat="44.1887767" lon="11.5289712"><ele>678.8000000000001</ele><time>2026-05-01T12:44:33.139Z</time></trkpt><trkpt lat="44.1888407" lon="11.5290802"><ele>678.6</ele><time>2026-05-01T12:44:34.139Z</time></trkpt><trkpt lat="44.1888877" lon="11.5291982"><ele>678.4</ele><time>2026-05-01T12:44:35.137Z</time></trkpt><trkpt lat="44.188944" lon="11.5293142"><ele>678.2</ele><time>2026-05-01T12:44:36.134Z</time></trkpt><trkpt lat="44.1890207" lon="11.5294395"><ele>678.0</ele><time>2026-05-01T12:44:37.134Z</time></trkpt><trkpt lat="44.1891033" lon="11.5295553"><ele>678.5</ele><time>2026-05-01T12:44:38.135Z</time></trkpt><trkpt lat="44.1891575" lon="11.5296445"><ele>679.0</ele><time>2026-05-01T12:44:39.136Z</time></trkpt><trkpt lat="44.189181" lon="11.5297278"><ele>679.5</ele><time>2026-05-01T12:44:40.137Z</time></trkpt><trkpt lat="44.18919" lon="11.5298153"><ele>680.0</ele><time>2026-05-01T12:44:41.136Z</time></trkpt><trkpt lat="44.1892162" lon="11.5299043"><ele>680.5</ele><time>2026-05-01T12:44:42.138Z</time></trkpt><trkpt lat="44.1892717" lon="11.5300192"><ele>681.0</ele><time>2026-05-01T12:44:43.139Z</time></trkpt><trkpt lat="44.1893393" lon="11.5301482"><ele>681.0</ele><time>2026-05-01T12:44:44.138Z</time></trkpt><trkpt lat="44.1893873" lon="11.5302707"><ele>681.0</ele><time>2026-05-01T12:44:45.136Z</time></trkpt><trkpt lat="44.189415" lon="11.530395"><ele>681.0</ele><time>2026-05-01T12:44:46.136Z</time></trkpt><trkpt lat="44.189444" lon="11.5305377"><ele>681.0</ele><time>2026-05-01T12:44:47.135Z</time></trkpt><trkpt lat="44.1894758" lon="11.5306807"><ele>681.0</ele><time>2026-05-01T12:44:48.135Z</time></trkpt><trkpt lat="44.1895023" lon="11.5308048"><ele>679.8</ele><time>2026-05-01T12:44:49.134Z</time></trkpt><trkpt lat="44.1895308" lon="11.530908"><ele>678.5999999999999</ele><time>2026-05-01T12:44:50.134Z</time></trkpt><trkpt lat="44.1895755" lon="11.5310002"><ele>677.4</ele><time>2026-05-01T12:44:51.134Z</time></trkpt><trkpt lat="44.1896513" lon="11.531107"><ele>676.2</ele><time>2026-05-01T12:44:52.135Z</time></trkpt><trkpt lat="44.189728" lon="11.5312255"><ele>675.0</ele><time>2026-05-01T12:44:53.133Z</time></trkpt><trkpt lat="44.1897785" lon="11.5313547"><ele>672.2</ele><time>2026-05-01T12:44:54.134Z</time></trkpt><trkpt lat="44.1898107" lon="11.531484"><ele>669.4</ele><time>2026-05-01T12:44:55.133Z</time></trkpt><trkpt lat="44.1898448" lon="11.531599"><ele>666.5999999999999</ele><time>2026-05-01T12:44:56.135Z</time></trkpt><trkpt lat="44.1898953" lon="11.5316893"><ele>663.8</ele><time>2026-05-01T12:44:57.136Z</time></trkpt><trkpt lat="44.1899658" lon="11.531742"><ele>661.0</ele><time>2026-05-01T12:44:58.136Z</time></trkpt><trkpt lat="44.190068" lon="11.5317873"><ele>664.0</ele><time>2026-05-01T12:44:59.134Z</time></trkpt><trkpt lat="44.1901662" lon="11.5318252"><ele>667.0</ele><time>2026-05-01T12:45:00.134Z</time></trkpt><trkpt lat="44.1902532" lon="11.5318685"><ele>670.0</ele><time>2026-05-01T12:45:01.133Z</time></trkpt><trkpt lat="44.1903307" lon="11.531947"><ele>673.0</ele><time>2026-05-01T12:45:02.133Z</time></trkpt><trkpt lat="44.1903983" lon="11.5320388"><ele>676.0</ele><time>2026-05-01T12:45:03.134Z</time></trkpt><trkpt lat="44.1904708" lon="11.5321432"><ele>676.0</ele><time>2026-05-01T12:45:04.136Z</time></trkpt><trkpt lat="44.1905507" lon="11.5322618"><ele>676.0</ele><time>2026-05-01T12:45:05.138Z</time></trkpt><trkpt lat="44.1906197" lon="11.5323867"><ele>676.0</ele><time>2026-05-01T12:45:06.139Z</time></trkpt><trkpt lat="44.1906685" lon="11.5325117"><ele>676.0</ele><time>2026-05-01T12:45:07.139Z</time></trkpt><trkpt lat="44.190699" lon="11.532641"><ele>676.0</ele><time>2026-05-01T12:45:08.137Z</time></trkpt><trkpt lat="44.1907232" lon="11.5327937"><ele>681.1999999999999</ele><time>2026-05-01T12:45:09.138Z</time></trkpt><trkpt lat="44.1907483" lon="11.5329413"><ele>686.4</ele><time>2026-05-01T12:45:10.138Z</time></trkpt><trkpt lat="44.190783" lon="11.5330683"><ele>691.6</ele><time>2026-05-01T12:45:11.137Z</time></trkpt><trkpt lat="44.1908337" lon="11.533194"><ele>696.8</ele><time>2026-05-01T12:45:12.138Z</time></trkpt><trkpt lat="44.1908947" lon="11.533323"><ele>702.0</ele><time>2026-05-01T12:45:13.137Z</time></trkpt><trkpt lat="44.1909657" lon="11.5334392"><ele>702.0</ele><time>2026-05-01T12:45:14.136Z</time></trkpt><trkpt lat="44.1910557" lon="11.5335402"><ele>702.0</ele><time>2026-05-01T12:45:15.136Z</time></trkpt><trkpt lat="44.1911703" lon="11.5336372"><ele>702.0</ele><time>2026-05-01T12:45:16.137Z</time></trkpt><trkpt lat="44.1912982" lon="11.5337465"><ele>702.0</ele><time>2026-05-01T12:45:17.137Z</time></trkpt><trkpt lat="44.1914247" lon="11.5338513"><ele>703.6</ele><time>2026-05-01T12:45:18.136Z</time></trkpt><trkpt lat="44.1915433" lon="11.5339562"><ele>705.2</ele><time>2026-05-01T12:45:19.139Z</time></trkpt><trkpt lat="44.1916442" lon="11.5340557"><ele>706.8</ele><time>2026-05-01T12:45:20.136Z</time></trkpt><trkpt lat="44.1917193" lon="11.5341445"><ele>708.4</ele><time>2026-05-01T12:45:21.137Z</time></trkpt><trkpt lat="44.1917698" lon="11.5342338"><ele>710.0</ele><time>2026-05-01T12:45:22.138Z</time></trkpt><trkpt lat="44.1918095" lon="11.5343463"><ele>710.0</ele><time>2026-05-01T12:45:23.137Z</time></trkpt><trkpt lat="44.1918447" lon="11.5344995"><ele>710.0</ele><time>2026-05-01T12:45:24.138Z</time></trkpt><trkpt lat="44.1918748" lon="11.5346835"><ele>710.0</ele><time>2026-05-01T12:45:25.136Z</time></trkpt><trkpt lat="44.1919053" lon="11.5348485"><ele>710.0</ele><time>2026-05-01T12:45:26.135Z</time></trkpt><trkpt lat="44.191945" lon="11.5349845"><ele>712.0</ele><time>2026-05-01T12:45:27.137Z</time></trkpt><trkpt lat="44.1920147" lon="11.5351203"><ele>714.0</ele><time>2026-05-01T12:45:28.135Z</time></trkpt><trkpt lat="44.1921115" lon="11.5352625"><ele>716.0</ele><time>2026-05-01T12:45:29.138Z</time></trkpt><trkpt lat="44.192207" lon="11.5353922"><ele>718.0</ele><time>2026-05-01T12:45:30.138Z</time></trkpt><trkpt lat="44.1922947" lon="11.5354997"><ele>714.5999999999999</ele><time>2026-05-01T12:45:31.137Z</time></trkpt><trkpt lat="44.1923793" lon="11.5355807"><ele>711.1999999999999</ele><time>2026-05-01T12:45:32.138Z</time></trkpt><trkpt lat="44.1924633" lon="11.5356403"><ele>707.8</ele><time>2026-05-01T12:45:33.139Z</time></trkpt><trkpt lat="44.1925472" lon="11.5356728"><ele>704.4</ele><time>2026-05-01T12:45:34.138Z</time></trkpt><trkpt lat="44.192631" lon="11.5356675"><ele>701.0</ele><time>2026-05-01T12:45:35.137Z</time></trkpt><trkpt lat="44.1927217" lon="11.5356275"><ele>701.0</ele><time>2026-05-01T12:45:36.138Z</time></trkpt><trkpt lat="44.1928093" lon="11.5355582"><ele>701.0</ele><time>2026-05-01T12:45:37.137Z</time></trkpt><trkpt lat="44.1928903" lon="11.5354587"><ele>701.0</ele><time>2026-05-01T12:45:38.136Z</time></trkpt><trkpt lat="44.1929607" lon="11.5353668"><ele>701.0</ele><time>2026-05-01T12:45:39.136Z</time></trkpt><trkpt lat="44.1930305" lon="11.535298"><ele>701.0</ele><time>2026-05-01T12:45:40.136Z</time></trkpt><trkpt lat="44.1930973" lon="11.5352507"><ele>699.0</ele><time>2026-05-01T12:45:41.137Z</time></trkpt><trkpt lat="44.1932238" lon="11.5352573"><ele>697.0</ele><time>2026-05-01T12:45:43.136Z</time></trkpt><trkpt lat="44.1933013" lon="11.535283"><ele>695.0</ele><time>2026-05-01T12:45:44.136Z</time></trkpt><trkpt lat="44.1933793" lon="11.5352865"><ele>693.0</ele><time>2026-05-01T12:45:45.138Z</time></trkpt><trkpt lat="44.1934702" lon="11.5352785"><ele>691.0</ele><time>2026-05-01T12:45:46.137Z</time></trkpt><trkpt lat="44.1935603" lon="11.5352773"><ele>691.0</ele><time>2026-05-01T12:45:47.137Z</time></trkpt><trkpt lat="44.193645" lon="11.5352907"><ele>691.0</ele><time>2026-05-01T12:45:48.139Z</time></trkpt><trkpt lat="44.1937185" lon="11.5353242"><ele>691.0</ele><time>2026-05-01T12:45:49.136Z</time></trkpt><trkpt lat="44.1937877" lon="11.5353838"><ele>691.0</ele><time>2026-05-01T12:45:50.134Z</time></trkpt><trkpt lat="44.1938572" lon="11.5354725"><ele>691.0</ele><time>2026-05-01T12:45:51.135Z</time></trkpt><trkpt lat="44.1939225" lon="11.5355657"><ele>691.0</ele><time>2026-05-01T12:45:52.135Z</time></trkpt><trkpt lat="44.1939942" lon="11.5356512"><ele>689.25</ele><time>2026-05-01T12:45:53.136Z</time></trkpt><trkpt lat="44.1940765" lon="11.5357182"><ele>687.5</ele><time>2026-05-01T12:45:54.138Z</time></trkpt><trkpt lat="44.1941798" lon="11.535774"><ele>685.75</ele><time>2026-05-01T12:45:55.137Z</time></trkpt><trkpt lat="44.194304" lon="11.5358228"><ele>684.0</ele><time>2026-05-01T12:45:56.139Z</time></trkpt><trkpt lat="44.19445" lon="11.5358762"><ele>684.0</ele><time>2026-05-01T12:45:57.139Z</time></trkpt><trkpt lat="44.1945823" lon="11.5359343"><ele>684.0</ele><time>2026-05-01T12:45:58.139Z</time></trkpt><trkpt lat="44.1947062" lon="11.5359845"><ele>684.0</ele><time>2026-05-01T12:45:59.139Z</time></trkpt><trkpt lat="44.1948302" lon="11.5360207"><ele>684.0</ele><time>2026-05-01T12:46:00.136Z</time></trkpt><trkpt lat="44.1949488" lon="11.536052"><ele>681.0</ele><time>2026-05-01T12:46:01.136Z</time></trkpt><trkpt lat="44.1950542" lon="11.5360915"><ele>678.0</ele><time>2026-05-01T12:46:02.136Z</time></trkpt><trkpt lat="44.1951465" lon="11.5361432"><ele>675.0</ele><time>2026-05-01T12:46:03.137Z</time></trkpt><trkpt lat="44.1952345" lon="11.5362087"><ele>672.0</ele><time>2026-05-01T12:46:04.14Z</time></trkpt><trkpt lat="44.1953265" lon="11.5362743"><ele>669.0</ele><time>2026-05-01T12:46:05.137Z</time></trkpt><trkpt lat="44.195421" lon="11.536336"><ele>668.0</ele><time>2026-05-01T12:46:06.137Z</time></trkpt><trkpt lat="44.1955052" lon="11.5363915"><ele>667.0</ele><time>2026-05-01T12:46:07.138Z</time></trkpt><trkpt lat="44.1955647" lon="11.5364332"><ele>666.0</ele><time>2026-05-01T12:46:08.137Z</time></trkpt><trkpt lat="44.1956342" lon="11.5364637"><ele>665.0</ele><time>2026-05-01T12:46:27.137Z</time></trkpt><trkpt lat="44.195679" lon="11.536528"><ele>664.0</ele><time>2026-05-01T12:47:12.139Z</time></trkpt><trkpt lat="44.1956313" lon="11.5364077"><ele>663.0</ele><time>2026-05-01T12:47:18.137Z</time></trkpt><trkpt lat="44.1955957" lon="11.5363307"><ele>664.2</ele><time>2026-05-01T12:47:19.136Z</time></trkpt><trkpt lat="44.195542" lon="11.5362435"><ele>665.4</ele><time>2026-05-01T12:47:20.136Z</time></trkpt><trkpt lat="44.1954693" lon="11.5361378"><ele>666.6</ele><time>2026-05-01T12:47:21.136Z</time></trkpt><trkpt lat="44.1954005" lon="11.5360357"><ele>667.8000000000001</ele><time>2026-05-01T12:47:22.136Z</time></trkpt><trkpt lat="44.1953392" lon="11.5359417"><ele>669.0</ele><time>2026-05-01T12:47:23.136Z</time></trkpt><trkpt lat="44.1952788" lon="11.5358598"><ele>669.0</ele><time>2026-05-01T12:47:24.136Z</time></trkpt><trkpt lat="44.1952218" lon="11.535794"><ele>669.0</ele><time>2026-05-01T12:47:25.136Z</time></trkpt><trkpt lat="44.1951627" lon="11.5357278"><ele>669.0</ele><time>2026-05-01T12:47:26.135Z</time></trkpt><trkpt lat="44.195091" lon="11.5356638"><ele>669.0</ele><time>2026-05-01T12:47:27.135Z</time></trkpt><trkpt lat="44.1950033" lon="11.535612"><ele>669.0</ele><time>2026-05-01T12:47:28.134Z</time></trkpt><trkpt lat="44.194914" lon="11.5355682"><ele>669.0</ele><time>2026-05-01T12:47:29.133Z</time></trkpt><trkpt lat="44.194824" lon="11.535538"><ele>669.5</ele><time>2026-05-01T12:47:30.134Z</time></trkpt><trkpt lat="44.1947498" lon="11.5354907"><ele>670.0</ele><time>2026-05-01T12:47:31.135Z</time></trkpt><trkpt lat="44.1946858" lon="11.5354262"><ele>670.5</ele><time>2026-05-01T12:47:32.137Z</time></trkpt><trkpt lat="44.1946215" lon="11.535339"><ele>671.0</ele><time>2026-05-01T12:47:33.136Z</time></trkpt><trkpt lat="44.1945543" lon="11.5352518"><ele>671.5</ele><time>2026-05-01T12:47:34.136Z</time></trkpt><trkpt lat="44.194492" lon="11.5351513"><ele>672.0</ele><time>2026-05-01T12:47:35.136Z</time></trkpt><trkpt lat="44.1944275" lon="11.5350575"><ele>672.0</ele><time>2026-05-01T12:47:36.136Z</time></trkpt><trkpt lat="44.1943618" lon="11.5349662"><ele>672.0</ele><time>2026-05-01T12:47:37.136Z</time></trkpt><trkpt lat="44.194302" lon="11.5348832"><ele>672.0</ele><time>2026-05-01T12:47:38.136Z</time></trkpt><trkpt lat="44.1942408" lon="11.5348042"><ele>672.0</ele><time>2026-05-01T12:47:39.135Z</time></trkpt><trkpt lat="44.1941752" lon="11.5347337"><ele>672.0</ele><time>2026-05-01T12:47:40.135Z</time></trkpt><trkpt lat="44.1940948" lon="11.53468"><ele>672.0</ele><time>2026-05-01T12:47:41.135Z</time></trkpt><trkpt lat="44.1939993" lon="11.5346277"><ele>670.5</ele><time>2026-05-01T12:47:42.135Z</time></trkpt><trkpt lat="44.193912" lon="11.5345682"><ele>669.0</ele><time>2026-05-01T12:47:43.135Z</time></trkpt><trkpt lat="44.193835" lon="11.534507"><ele>667.5</ele><time>2026-05-01T12:47:44.136Z</time></trkpt><trkpt lat="44.1937775" lon="11.5344238"><ele>666.0</ele><time>2026-05-01T12:47:45.136Z</time></trkpt><trkpt lat="44.1937292" lon="11.5343302"><ele>664.5</ele><time>2026-05-01T12:47:46.136Z</time></trkpt><trkpt lat="44.1936728" lon="11.5342555"><ele>663.0</ele><time>2026-05-01T12:47:47.136Z</time></trkpt><trkpt lat="44.1936008" lon="11.5342002"><ele>663.0</ele><time>2026-05-01T12:47:48.136Z</time></trkpt><trkpt lat="44.1935357" lon="11.5341285"><ele>663.0</ele><time>2026-05-01T12:47:49.135Z</time></trkpt><trkpt lat="44.193497" lon="11.5340378"><ele>663.0</ele><time>2026-05-01T12:47:50.136Z</time></trkpt><trkpt lat="44.193464" lon="11.5339373"><ele>663.0</ele><time>2026-05-01T12:47:51.135Z</time></trkpt><trkpt lat="44.1934223" lon="11.5338442"><ele>663.0</ele><time>2026-05-01T12:47:52.133Z</time></trkpt><trkpt lat="44.1933615" lon="11.5337583"><ele>663.0</ele><time>2026-05-01T12:47:53.134Z</time></trkpt><trkpt lat="44.1932998" lon="11.5336828"><ele>664.0</ele><time>2026-05-01T12:47:54.135Z</time></trkpt><trkpt lat="44.193246" lon="11.5336305"><ele>665.0</ele><time>2026-05-01T12:47:55.135Z</time></trkpt><trkpt lat="44.1931448" lon="11.53364"><ele>666.0</ele><time>2026-05-01T12:47:57.137Z</time></trkpt><trkpt lat="44.1930752" lon="11.5336688"><ele>667.0</ele><time>2026-05-01T12:47:58.136Z</time></trkpt><trkpt lat="44.1930055" lon="11.5337045"><ele>668.0</ele><time>2026-05-01T12:47:59.135Z</time></trkpt><trkpt lat="44.1929413" lon="11.533743"><ele>669.0</ele><time>2026-05-01T12:48:00.136Z</time></trkpt><trkpt lat="44.1928618" lon="11.5337453"><ele>669.0</ele><time>2026-05-01T12:48:02.135Z</time></trkpt><trkpt lat="44.1927987" lon="11.5336172"><ele>669.0</ele><time>2026-05-01T12:48:04.136Z</time></trkpt><trkpt lat="44.1927577" lon="11.5335182"><ele>669.0</ele><time>2026-05-01T12:48:05.136Z</time></trkpt><trkpt lat="44.1927258" lon="11.53343"><ele>669.0</ele><time>2026-05-01T12:48:06.137Z</time></trkpt><trkpt lat="44.192729" lon="11.5332687"><ele>669.0</ele><time>2026-05-01T12:48:08.137Z</time></trkpt><trkpt lat="44.1927325" lon="11.5331587"><ele>669.0</ele><time>2026-05-01T12:48:09.136Z</time></trkpt><trkpt lat="44.1927445" lon="11.5330575"><ele>669.0</ele><time>2026-05-01T12:48:10.136Z</time></trkpt><trkpt lat="44.192768" lon="11.5329535"><ele>669.0</ele><time>2026-05-01T12:48:11.135Z</time></trkpt><trkpt lat="44.1927842" lon="11.5328522"><ele>669.0</ele><time>2026-05-01T12:48:12.135Z</time></trkpt><trkpt lat="44.192788" lon="11.5327603"><ele>669.0</ele><time>2026-05-01T12:48:13.135Z</time></trkpt><trkpt lat="44.1927288" lon="11.5326102"><ele>669.0</ele><time>2026-05-01T12:48:15.136Z</time></trkpt><trkpt lat="44.1926872" lon="11.5325292"><ele>669.8571428571429</ele><time>2026-05-01T12:48:16.134Z</time></trkpt><trkpt lat="44.1926463" lon="11.5324428"><ele>670.7142857142857</ele><time>2026-05-01T12:48:17.133Z</time></trkpt><trkpt lat="44.1926032" lon="11.5323603"><ele>671.5714285714286</ele><time>2026-05-01T12:48:18.134Z</time></trkpt><trkpt lat="44.192566" lon="11.5322792"><ele>672.4285714285714</ele><time>2026-05-01T12:48:19.134Z</time></trkpt><trkpt lat="44.1925137" lon="11.532218"><ele>673.2857142857143</ele><time>2026-05-01T12:48:20.135Z</time></trkpt><trkpt lat="44.1924453" lon="11.5321712"><ele>674.1428571428571</ele><time>2026-05-01T12:48:21.136Z</time></trkpt><trkpt lat="44.192361" lon="11.5321383"><ele>675.0</ele><time>2026-05-01T12:48:22.137Z</time></trkpt><trkpt lat="44.19228" lon="11.5321108"><ele>675.0</ele><time>2026-05-01T12:48:23.137Z</time></trkpt><trkpt lat="44.1922197" lon="11.5320757"><ele>675.0</ele><time>2026-05-01T12:48:24.138Z</time></trkpt><trkpt lat="44.1921942" lon="11.5319553"><ele>675.0</ele><time>2026-05-01T12:48:26.137Z</time></trkpt><trkpt lat="44.1922168" lon="11.531818"><ele>675.0</ele><time>2026-05-01T12:48:28.137Z</time></trkpt><trkpt lat="44.1921778" lon="11.5317135"><ele>675.0</ele><time>2026-05-01T12:48:31.136Z</time></trkpt><trkpt lat="44.1921385" lon="11.5316422"><ele>675.0</ele><time>2026-05-01T12:48:33.137Z</time></trkpt><trkpt lat="44.1920955" lon="11.5315368"><ele>671.8333333333334</ele><time>2026-05-01T12:48:35.136Z</time></trkpt><trkpt lat="44.1920315" lon="11.5314463"><ele>668.6666666666666</ele><time>2026-05-01T12:48:37.136Z</time></trkpt><trkpt lat="44.1919608" lon="11.5313998"><ele>665.5</ele><time>2026-05-01T12:48:39.136Z</time></trkpt><trkpt lat="44.1918735" lon="11.531402"><ele>662.3333333333333</ele><time>2026-05-01T12:48:41.133Z</time></trkpt><trkpt lat="44.1918102" lon="11.531346"><ele>659.1666666666666</ele><time>2026-05-01T12:48:44.136Z</time></trkpt><trkpt lat="44.1917855" lon="11.531242"><ele>656.0</ele><time>2026-05-01T12:48:47.135Z</time></trkpt><trkpt lat="44.1918255" lon="11.5311737"><ele>654.0</ele><time>2026-05-01T12:48:49.135Z</time></trkpt><trkpt lat="44.1918723" lon="11.5310507"><ele>652.0</ele><time>2026-05-01T12:48:51.137Z</time></trkpt><trkpt lat="44.1919072" lon="11.5309245"><ele>650.0</ele><time>2026-05-01T12:48:53.136Z</time></trkpt><trkpt lat="44.191906" lon="11.5308148"><ele>648.0</ele><time>2026-05-01T12:48:55.137Z</time></trkpt><trkpt lat="44.1919598" lon="11.5307608"><ele>646.0</ele><time>2026-05-01T12:48:58.136Z</time></trkpt><trkpt lat="44.1920293" lon="11.5307627"><ele>644.0</ele><time>2026-05-01T12:49:00.136Z</time></trkpt><trkpt lat="44.1920968" lon="11.530716"><ele>644.0</ele><time>2026-05-01T12:49:02.135Z</time></trkpt><trkpt lat="44.1921005" lon="11.5305927"><ele>644.0</ele><time>2026-05-01T12:49:05.134Z</time></trkpt><trkpt lat="44.1921302" lon="11.5304643"><ele>644.0</ele><time>2026-05-01T12:49:07.135Z</time></trkpt><trkpt lat="44.1921728" lon="11.530373"><ele>644.0</ele><time>2026-05-01T12:49:09.136Z</time></trkpt><trkpt lat="44.1922443" lon="11.5303302"><ele>644.0</ele><time>2026-05-01T12:49:11.136Z</time></trkpt><trkpt lat="44.1923588" lon="11.530281"><ele>637.6</ele><time>2026-05-01T12:49:13.136Z</time></trkpt><trkpt lat="44.1924635" lon="11.5302025"><ele>631.2</ele><time>2026-05-01T12:49:15.136Z</time></trkpt><trkpt lat="44.1925243" lon="11.5300413"><ele>624.8000000000001</ele><time>2026-05-01T12:49:17.14Z</time></trkpt><trkpt lat="44.1925527" lon="11.5299473"><ele>618.4000000000001</ele><time>2026-05-01T12:49:18.136Z</time></trkpt><trkpt lat="44.1926052" lon="11.5298082"><ele>612.0</ele><time>2026-05-01T12:49:20.136Z</time></trkpt><trkpt lat="44.1926488" lon="11.5296655"><ele>610.8333333333334</ele><time>2026-05-01T12:49:22.136Z</time></trkpt><trkpt lat="44.1926877" lon="11.5295232"><ele>609.6666666666666</ele><time>2026-05-01T12:49:24.136Z</time></trkpt><trkpt lat="44.1927308" lon="11.5294493"><ele>608.5</ele><time>2026-05-01T12:49:25.136Z</time></trkpt><trkpt lat="44.1928082" lon="11.5293537"><ele>607.3333333333333</ele><time>2026-05-01T12:49:27.137Z</time></trkpt><trkpt lat="44.1928432" lon="11.5292763"><ele>606.1666666666666</ele><time>2026-05-01T12:49:33.136Z</time></trkpt><trkpt lat="44.1928795" lon="11.5292027"><ele>605.0</ele><time>2026-05-01T12:49:42.136Z</time></trkpt><trkpt lat="44.1929912" lon="11.529098"><ele>605.0</ele><time>2026-05-01T12:50:29.136Z</time></trkpt><trkpt lat="44.193065" lon="11.5291418"><ele>605.0</ele><time>2026-05-01T12:50:33.135Z</time></trkpt><trkpt lat="44.1931293" lon="11.5290695"><ele>605.0</ele><time>2026-05-01T12:50:37.136Z</time></trkpt><trkpt lat="44.1932152" lon="11.5291255"><ele>605.0</ele><time>2026-05-01T12:50:40.136Z</time></trkpt><trkpt lat="44.1932857" lon="11.529143"><ele>605.0</ele><time>2026-05-01T12:50:42.137Z</time></trkpt><trkpt lat="44.1933075" lon="11.5290078"><ele>605.0</ele><time>2026-05-01T12:50:45.132Z</time></trkpt><trkpt lat="44.193297" lon="11.5288848"><ele>601.5714285714286</ele><time>2026-05-01T12:50:47.134Z</time></trkpt><trkpt lat="44.1932915" lon="11.5287902"><ele>598.1428571428571</ele><time>2026-05-01T12:50:49.133Z</time></trkpt><trkpt lat="44.1932837" lon="11.5286968"><ele>594.7142857142858</ele><time>2026-05-01T12:50:51.135Z</time></trkpt><trkpt lat="44.1932943" lon="11.5286075"><ele>591.2857142857142</ele><time>2026-05-01T12:50:57.135Z</time></trkpt><trkpt lat="44.1933268" lon="11.5284943"><ele>587.8571428571429</ele><time>2026-05-01T12:51:25.137Z</time></trkpt><trkpt lat="44.1933535" lon="11.5283853"><ele>584.4285714285714</ele><time>2026-05-01T12:51:54.145Z</time></trkpt><trkpt lat="44.193385" lon="11.5283022"><ele>581.0</ele><time>2026-05-01T12:51:57.142Z</time></trkpt><trkpt lat="44.1933973" lon="11.5282043"><ele>579.0</ele><time>2026-05-01T12:52:00.144Z</time></trkpt><trkpt lat="44.1934007" lon="11.5281058"><ele>577.0</ele><time>2026-05-01T12:52:04.146Z</time></trkpt><trkpt lat="44.1934202" lon="11.5280187"><ele>575.0</ele><time>2026-05-01T12:52:15.136Z</time></trkpt><trkpt lat="44.1934875" lon="11.5279232"><ele>573.0</ele><time>2026-05-01T12:52:18.138Z</time></trkpt><trkpt lat="44.1935393" lon="11.527836"><ele>571.0</ele><time>2026-05-01T12:52:20.139Z</time></trkpt><trkpt lat="44.1935932" lon="11.5277543"><ele>569.0</ele><time>2026-05-01T12:52:22.135Z</time></trkpt><trkpt lat="44.193646" lon="11.5276712"><ele>565.2</ele><time>2026-05-01T12:52:24.136Z</time></trkpt><trkpt lat="44.1937048" lon="11.5275642"><ele>561.4</ele><time>2026-05-01T12:52:26.137Z</time></trkpt><trkpt lat="44.1937728" lon="11.527442"><ele>557.6</ele><time>2026-05-01T12:52:28.149Z</time></trkpt><trkpt lat="44.1938398" lon="11.5273207"><ele>553.8</ele><time>2026-05-01T12:52:30.151Z</time></trkpt><trkpt lat="44.1939068" lon="11.5272227"><ele>550.0</ele><time>2026-05-01T12:52:32.149Z</time></trkpt><trkpt lat="44.1939718" lon="11.5271533"><ele>546.1666666666667</ele><time>2026-05-01T12:52:34.149Z</time></trkpt><trkpt lat="44.1940493" lon="11.5271163"><ele>542.3333333333334</ele><time>2026-05-01T12:52:37.15Z</time></trkpt><trkpt lat="44.1941293" lon="11.5270828"><ele>538.5</ele><time>2026-05-01T12:52:40.152Z</time></trkpt><trkpt lat="44.1941847" lon="11.527004"><ele>534.6666666666666</ele><time>2026-05-01T12:52:42.151Z</time></trkpt><trkpt lat="44.1942218" lon="11.5269055"><ele>530.8333333333333</ele><time>2026-05-01T12:52:44.148Z</time></trkpt><trkpt lat="44.1942292" lon="11.5267953"><ele>527.0</ele><time>2026-05-01T12:52:46.136Z</time></trkpt><trkpt lat="44.1942242" lon="11.5266877"><ele>525.2</ele><time>2026-05-01T12:52:48.136Z</time></trkpt><trkpt lat="44.1942207" lon="11.526577"><ele>523.4000000000001</ele><time>2026-05-01T12:52:50.138Z</time></trkpt><trkpt lat="44.1942195" lon="11.526452"><ele>521.5999999999999</ele><time>2026-05-01T12:52:52.146Z</time></trkpt><trkpt lat="44.1942245" lon="11.5263042"><ele>519.8</ele><time>2026-05-01T12:52:54.145Z</time></trkpt><trkpt lat="44.1942388" lon="11.5261583"><ele>518.0</ele><time>2026-05-01T12:52:56.146Z</time></trkpt><trkpt lat="44.1942608" lon="11.5260302"><ele>515.3333333333333</ele><time>2026-05-01T12:52:58.148Z</time></trkpt><trkpt lat="44.1942928" lon="11.5259088"><ele>512.6666666666666</ele><time>2026-05-01T12:53:00.147Z</time></trkpt><trkpt lat="44.1943142" lon="11.5258187"><ele>510.0</ele><time>2026-05-01T12:53:02.137Z</time></trkpt><trkpt lat="44.1943417" lon="11.5256955"><ele>507.33333333333337</ele><time>2026-05-01T12:53:05.137Z</time></trkpt><trkpt lat="44.1943567" lon="11.5255965"><ele>504.6666666666667</ele><time>2026-05-01T12:53:07.138Z</time></trkpt><trkpt lat="44.1943715" lon="11.52547"><ele>502.0</ele><time>2026-05-01T12:53:10.135Z</time></trkpt><trkpt lat="44.194375" lon="11.5253395"><ele>499.6666666666667</ele><time>2026-05-01T12:53:13.135Z</time></trkpt><trkpt lat="44.1943698" lon="11.525209"><ele>497.33333333333337</ele><time>2026-05-01T12:53:16.137Z</time></trkpt><trkpt lat="44.1943455" lon="11.5250805"><ele>495.0</ele><time>2026-05-01T12:53:19.14Z</time></trkpt><trkpt lat="44.1943225" lon="11.5249948"><ele>492.66666666666663</ele><time>2026-05-01T12:53:21.136Z</time></trkpt><trkpt lat="44.1942932" lon="11.524916"><ele>490.3333333333333</ele><time>2026-05-01T12:53:23.136Z</time></trkpt><trkpt lat="44.1942503" lon="11.5248195"><ele>488.0</ele><time>2026-05-01T12:53:25.149Z</time></trkpt><trkpt lat="44.1942057" lon="11.5247218"><ele>487.99999999999994</ele><time>2026-05-01T12:53:27.149Z</time></trkpt><trkpt lat="44.1941657" lon="11.5246458"><ele>488.0</ele><time>2026-05-01T12:53:29.146Z</time></trkpt><trkpt lat="44.1941065" lon="11.5245745"><ele>488.0</ele><time>2026-05-01T12:53:36.144Z</time></trkpt><trkpt lat="44.1940698" lon="11.5244918"><ele>488.0</ele><time>2026-05-01T12:53:39.138Z</time></trkpt><trkpt lat="44.1940417" lon="11.5243867"><ele>487.99999999999994</ele><time>2026-05-01T12:53:42.136Z</time></trkpt><trkpt lat="44.193989" lon="11.5243325"><ele>488.0</ele><time>2026-05-01T12:53:44.137Z</time></trkpt><trkpt lat="44.1938942" lon="11.5243008"><ele>487.16666666666663</ele><time>2026-05-01T12:53:46.146Z</time></trkpt><trkpt lat="44.193779" lon="11.5242923"><ele>486.3333333333333</ele><time>2026-05-01T12:53:48.146Z</time></trkpt><trkpt lat="44.1937053" lon="11.5242888"><ele>485.5</ele><time>2026-05-01T12:53:58.137Z</time></trkpt><trkpt lat="44.1936203" lon="11.5242933"><ele>484.66666666666663</ele><time>2026-05-01T12:54:00.133Z</time></trkpt><trkpt lat="44.1935528" lon="11.5242448"><ele>483.8333333333333</ele><time>2026-05-01T12:54:02.133Z</time></trkpt><trkpt lat="44.1934907" lon="11.5241743"><ele>483.0</ele><time>2026-05-01T12:54:04.137Z</time></trkpt><trkpt lat="44.193444" lon="11.524095"><ele>483.0</ele><time>2026-05-01T12:54:06.135Z</time></trkpt><trkpt lat="44.193428" lon="11.523996"><ele>483.0</ele><time>2026-05-01T12:54:08.138Z</time></trkpt><trkpt lat="44.1933917" lon="11.5238908"><ele>483.0</ele><time>2026-05-01T12:54:11.137Z</time></trkpt><trkpt lat="44.1933312" lon="11.5238065"><ele>483.0</ele><time>2026-05-01T12:54:14.138Z</time></trkpt><trkpt lat="44.1932645" lon="11.5237117"><ele>483.0</ele><time>2026-05-01T12:54:17.139Z</time></trkpt><trkpt lat="44.1932232" lon="11.5236412"><ele>483.0</ele><time>2026-05-01T12:54:19.138Z</time></trkpt><trkpt lat="44.1931562" lon="11.523562"><ele>483.0</ele><time>2026-05-01T12:54:21.139Z</time></trkpt><trkpt lat="44.1931108" lon="11.5234937"><ele>483.0</ele><time>2026-05-01T12:54:23.136Z</time></trkpt><trkpt lat="44.1931842" lon="11.5236038"><ele>483.0</ele><time>2026-05-01T12:54:39.146Z</time></trkpt><trkpt lat="44.193233" lon="11.523677"><ele>483.0</ele><time>2026-05-01T12:54:40.146Z</time></trkpt><trkpt lat="44.1932775" lon="11.5237492"><ele>483.0</ele><time>2026-05-01T12:54:41.155Z</time></trkpt><trkpt lat="44.193356" lon="11.5238563"><ele>483.0</ele><time>2026-05-01T12:54:43.148Z</time></trkpt><trkpt lat="44.1933812" lon="11.5239415"><ele>483.0</ele><time>2026-05-01T12:54:45.147Z</time></trkpt><trkpt lat="44.1933943" lon="11.5240707"><ele>483.0</ele><time>2026-05-01T12:54:48.143Z</time></trkpt><trkpt lat="44.193449" lon="11.5241597"><ele>483.0</ele><time>2026-05-01T12:54:50.143Z</time></trkpt><trkpt lat="44.1935268" lon="11.5242258"><ele>483.0</ele><time>2026-05-01T12:54:52.136Z</time></trkpt><trkpt lat="44.1936157" lon="11.5242497"><ele>483.0</ele><time>2026-05-01T12:54:55.138Z</time></trkpt><trkpt lat="44.1936712" lon="11.5241778"><ele>483.0</ele><time>2026-05-01T12:54:59.135Z</time></trkpt><trkpt lat="44.193684" lon="11.5240735"><ele>483.0</ele><time>2026-05-01T12:55:03.137Z</time></trkpt><trkpt lat="44.1936733" lon="11.5239622"><ele>483.0</ele><time>2026-05-01T12:55:06.135Z</time></trkpt><trkpt lat="44.1937137" lon="11.5238845"><ele>483.0</ele><time>2026-05-01T12:55:09.135Z</time></trkpt><trkpt lat="44.1937722" lon="11.5238378"><ele>483.0</ele><time>2026-05-01T12:55:11.136Z</time></trkpt><trkpt lat="44.1938395" lon="11.523793"><ele>483.0</ele><time>2026-05-01T12:55:13.135Z</time></trkpt><trkpt lat="44.193909" lon="11.5237595"><ele>483.0</ele><time>2026-05-01T12:55:15.135Z</time></trkpt><trkpt lat="44.1939738" lon="11.523723"><ele>483.0</ele><time>2026-05-01T12:55:17.137Z</time></trkpt><trkpt lat="44.1940385" lon="11.5236905"><ele>477.8333333333333</ele><time>2026-05-01T12:55:19.137Z</time></trkpt><trkpt lat="44.1941338" lon="11.5236425"><ele>472.66666666666663</ele><time>2026-05-01T12:55:22.137Z</time></trkpt><trkpt lat="44.1942018" lon="11.5236242"><ele>467.5</ele><time>2026-05-01T12:55:24.137Z</time></trkpt><trkpt lat="44.1942723" lon="11.5235648"><ele>462.3333333333333</ele><time>2026-05-01T12:55:27.137Z</time></trkpt><trkpt lat="44.1943503" lon="11.5235188"><ele>457.16666666666663</ele><time>2026-05-01T12:55:31.136Z</time></trkpt><trkpt lat="44.1943958" lon="11.5234548"><ele>452.0</ele><time>2026-05-01T12:55:35.136Z</time></trkpt><trkpt lat="44.1943518" lon="11.523364"><ele>451.99999999999994</ele><time>2026-05-01T12:55:39.134Z</time></trkpt><trkpt lat="44.1942848" lon="11.5232935"><ele>452.0</ele><time>2026-05-01T12:55:43.136Z</time></trkpt><trkpt lat="44.1942152" lon="11.5232613"><ele>452.0</ele><time>2026-05-01T12:55:46.136Z</time></trkpt><trkpt lat="44.194125" lon="11.5232552"><ele>452.0</ele><time>2026-05-01T12:55:49.136Z</time></trkpt><trkpt lat="44.1940582" lon="11.52322"><ele>451.99999999999994</ele><time>2026-05-01T12:55:51.137Z</time></trkpt><trkpt lat="44.1939788" lon="11.5231547"><ele>452.0</ele><time>2026-05-01T12:55:53.135Z</time></trkpt><trkpt lat="44.193893" lon="11.5230805"><ele>453.28571428571433</ele><time>2026-05-01T12:55:55.136Z</time></trkpt><trkpt lat="44.19384" lon="11.5229983"><ele>454.57142857142856</ele><time>2026-05-01T12:55:57.135Z</time></trkpt><trkpt lat="44.1937995" lon="11.5229212"><ele>455.8571428571429</ele><time>2026-05-01T12:56:05.132Z</time></trkpt><trkpt lat="44.1937747" lon="11.5228388"><ele>457.14285714285717</ele><time>2026-05-01T12:56:21.134Z</time></trkpt><trkpt lat="44.1937293" lon="11.5227373"><ele>458.42857142857144</ele><time>2026-05-01T12:56:58.135Z</time></trkpt><trkpt lat="44.1937733" lon="11.5227743"><ele>459.7142857142857</ele><time>2026-05-01T13:02:53.133Z</time></trkpt><trkpt lat="44.1938295" lon="11.5228207"><ele>461.0</ele><time>2026-05-01T13:03:08.135Z</time></trkpt><trkpt lat="44.1938718" lon="11.522891"><ele>461.8</ele><time>2026-05-01T13:03:26.132Z</time></trkpt><trkpt lat="44.1939463" lon="11.522949"><ele>462.6</ele><time>2026-05-01T13:03:28.134Z</time></trkpt><trkpt lat="44.1940328" lon="11.5229995"><ele>463.4</ele><time>2026-05-01T13:03:30.134Z</time></trkpt><trkpt lat="44.1941388" lon="11.5230375"><ele>464.2</ele><time>2026-05-01T13:03:32.133Z</time></trkpt><trkpt lat="44.1942268" lon="11.5230292"><ele>465.0</ele><time>2026-05-01T13:03:34.133Z</time></trkpt><trkpt lat="44.1943005" lon="11.523054"><ele>462.8333333333333</ele><time>2026-05-01T13:03:36.135Z</time></trkpt><trkpt lat="44.1943613" lon="11.5231032"><ele>460.66666666666663</ele><time>2026-05-01T13:03:38.135Z</time></trkpt><trkpt lat="44.1944208" lon="11.5231513"><ele>458.5</ele><time>2026-05-01T13:03:40.135Z</time></trkpt><trkpt lat="44.19447" lon="11.523245"><ele>456.3333333333333</ele><time>2026-05-01T13:03:43.135Z</time></trkpt><trkpt lat="44.1945095" lon="11.5233312"><ele>454.16666666666663</ele><time>2026-05-01T13:03:50.132Z</time></trkpt><trkpt lat="44.1945638" lon="11.5234017"><ele>452.0</ele><time>2026-05-01T13:03:53.134Z</time></trkpt><trkpt lat="44.1946298" lon="11.5234847"><ele>451.99999999999994</ele><time>2026-05-01T13:03:55.135Z</time></trkpt><trkpt lat="44.1946732" lon="11.5235635"><ele>452.0</ele><time>2026-05-01T13:03:57.135Z</time></trkpt><trkpt lat="44.1947138" lon="11.523645"><ele>452.0</ele><time>2026-05-01T13:04:05.135Z</time></trkpt><trkpt lat="44.1947592" lon="11.5237078"><ele>452.0</ele><time>2026-05-01T13:04:45.134Z</time></trkpt><trkpt lat="44.1947097" lon="11.5236032"><ele>451.99999999999994</ele><time>2026-05-01T13:04:52.136Z</time></trkpt><trkpt lat="44.1946398" lon="11.523518"><ele>452.0</ele><time>2026-05-01T13:04:54.134Z</time></trkpt><trkpt lat="44.1945897" lon="11.5234585"><ele>452.0</ele><time>2026-05-01T13:04:56.134Z</time></trkpt><trkpt lat="44.1945272" lon="11.5234435"><ele>452.0</ele><time>2026-05-01T13:05:00.134Z</time></trkpt><trkpt lat="44.194462" lon="11.5234778"><ele>452.0</ele><time>2026-05-01T13:05:06.136Z</time></trkpt><trkpt lat="44.1943767" lon="11.523528"><ele>452.0</ele><time>2026-05-01T13:05:09.135Z</time></trkpt><trkpt lat="44.1943107" lon="11.5235483"><ele>452.0</ele><time>2026-05-01T13:05:11.134Z</time></trkpt><trkpt lat="44.1942448" lon="11.5235757"><ele>452.0</ele><time>2026-05-01T13:05:13.134Z</time></trkpt><trkpt lat="44.1941752" lon="11.5236173"><ele>452.0</ele><time>2026-05-01T13:05:15.135Z</time></trkpt><trkpt lat="44.1940898" lon="11.5236345"><ele>454.16666666666663</ele><time>2026-05-01T13:05:17.135Z</time></trkpt><trkpt lat="44.1939955" lon="11.5236747"><ele>456.3333333333333</ele><time>2026-05-01T13:05:19.135Z</time></trkpt><trkpt lat="44.1938993" lon="11.523736"><ele>458.5</ele><time>2026-05-01T13:05:21.134Z</time></trkpt><trkpt lat="44.1938235" lon="11.5238028"><ele>460.66666666666663</ele><time>2026-05-01T13:05:23.135Z</time></trkpt><trkpt lat="44.1937998" lon="11.5238968"><ele>462.8333333333333</ele><time>2026-05-01T13:05:26.133Z</time></trkpt><trkpt lat="44.1938125" lon="11.5239892"><ele>465.0</ele><time>2026-05-01T13:05:28.133Z</time></trkpt><trkpt lat="44.1937973" lon="11.5240757"><ele>466.0</ele><time>2026-05-01T13:05:31.135Z</time></trkpt><trkpt lat="44.193845" lon="11.5241485"><ele>467.0</ele><time>2026-05-01T13:05:36.134Z</time></trkpt><trkpt lat="44.1939157" lon="11.5241557"><ele>468.0</ele><time>2026-05-01T13:05:38.135Z</time></trkpt><trkpt lat="44.1939983" lon="11.5241762"><ele>469.0</ele><time>2026-05-01T13:05:40.135Z</time></trkpt><trkpt lat="44.194064" lon="11.5242207"><ele>470.0</ele><time>2026-05-01T13:05:42.135Z</time></trkpt><trkpt lat="44.1940987" lon="11.5242953"><ele>471.0</ele><time>2026-05-01T13:05:44.136Z</time></trkpt><trkpt lat="44.194106" lon="11.524406"><ele>472.0</ele><time>2026-05-01T13:05:47.135Z</time></trkpt><trkpt lat="44.1941465" lon="11.5244812"><ele>472.0</ele><time>2026-05-01T13:05:50.134Z</time></trkpt><trkpt lat="44.1941917" lon="11.5245425"><ele>472.00000000000006</ele><time>2026-05-01T13:05:52.135Z</time></trkpt><trkpt lat="44.1942382" lon="11.5246375"><ele>472.00000000000006</ele><time>2026-05-01T13:05:54.138Z</time></trkpt><trkpt lat="44.194291" lon="11.5247573"><ele>472.0</ele><time>2026-05-01T13:05:56.135Z</time></trkpt><trkpt lat="44.1943375" lon="11.524886"><ele>472.0</ele><time>2026-05-01T13:05:58.136Z</time></trkpt><trkpt lat="44.1943762" lon="11.5250173"><ele>475.20000000000005</ele><time>2026-05-01T13:06:00.137Z</time></trkpt><trkpt lat="44.1944043" lon="11.5251595"><ele>478.40000000000003</ele><time>2026-05-01T13:06:02.136Z</time></trkpt><trkpt lat="44.194407" lon="11.5252927"><ele>481.59999999999997</ele><time>2026-05-01T13:06:04.138Z</time></trkpt><trkpt lat="44.1943933" lon="11.5254685"><ele>484.79999999999995</ele><time>2026-05-01T13:06:06.139Z</time></trkpt><trkpt lat="44.1943817" lon="11.5255568"><ele>488.0</ele><time>2026-05-01T13:06:07.137Z</time></trkpt><trkpt lat="44.1943675" lon="11.5256425"><ele>489.99999999999994</ele><time>2026-05-01T13:06:08.136Z</time></trkpt><trkpt lat="44.1943512" lon="11.5257283"><ele>492.0</ele><time>2026-05-01T13:06:09.137Z</time></trkpt><trkpt lat="44.1943298" lon="11.5258168"><ele>493.99999999999994</ele><time>2026-05-01T13:06:10.137Z</time></trkpt><trkpt lat="44.1943055" lon="11.5259035"><ele>495.99999999999994</ele><time>2026-05-01T13:06:11.136Z</time></trkpt><trkpt lat="44.1942832" lon="11.5259895"><ele>498.0</ele><time>2026-05-01T13:06:12.136Z</time></trkpt><trkpt lat="44.1942662" lon="11.5260807"><ele>499.99999999999994</ele><time>2026-05-01T13:06:13.137Z</time></trkpt><trkpt lat="44.194257" lon="11.5261708"><ele>501.99999999999994</ele><time>2026-05-01T13:06:14.135Z</time></trkpt><trkpt lat="44.1942513" lon="11.5262602"><ele>505.20000000000005</ele><time>2026-05-01T13:06:15.135Z</time></trkpt><trkpt lat="44.1942517" lon="11.5263485"><ele>508.40000000000003</ele><time>2026-05-01T13:06:16.134Z</time></trkpt><trkpt lat="44.1942558" lon="11.5265123"><ele>511.59999999999997</ele><time>2026-05-01T13:06:18.138Z</time></trkpt><trkpt lat="44.1942592" lon="11.5266755"><ele>514.8</ele><time>2026-05-01T13:06:20.136Z</time></trkpt><trkpt lat="44.194262" lon="11.5268393"><ele>518.0</ele><time>2026-05-01T13:06:22.136Z</time></trkpt><trkpt lat="44.1942353" lon="11.526955"><ele>518.0</ele><time>2026-05-01T13:06:24.137Z</time></trkpt><trkpt lat="44.194168" lon="11.5270558"><ele>518.0</ele><time>2026-05-01T13:06:26.136Z</time></trkpt><trkpt lat="44.1941017" lon="11.5271642"><ele>518.0</ele><time>2026-05-01T13:06:28.135Z</time></trkpt><trkpt lat="44.1940663" lon="11.5272783"><ele>518.0</ele><time>2026-05-01T13:06:30.135Z</time></trkpt><trkpt lat="44.1940715" lon="11.527369"><ele>518.0</ele><time>2026-05-01T13:06:32.136Z</time></trkpt><trkpt lat="44.194125" lon="11.5274303"><ele>518.0</ele><time>2026-05-01T13:06:34.136Z</time></trkpt><trkpt lat="44.1942227" lon="11.5274733"><ele>519.5</ele><time>2026-05-01T13:06:36.136Z</time></trkpt><trkpt lat="44.1942768" lon="11.5275192"><ele>521.0</ele><time>2026-05-01T13:06:37.136Z</time></trkpt><trkpt lat="44.1943293" lon="11.5275755"><ele>522.5</ele><time>2026-05-01T13:06:38.135Z</time></trkpt><trkpt lat="44.194417" lon="11.5276925"><ele>524.0</ele><time>2026-05-01T13:06:40.135Z</time></trkpt><trkpt lat="44.194496" lon="11.5277812"><ele>525.5</ele><time>2026-05-01T13:06:42.133Z</time></trkpt><trkpt lat="44.1945822" lon="11.5278053"><ele>527.0</ele><time>2026-05-01T13:06:44.134Z</time></trkpt><trkpt lat="44.1946677" lon="11.5278355"><ele>527.0</ele><time>2026-05-01T13:06:46.135Z</time></trkpt><trkpt lat="44.1947683" lon="11.5278765"><ele>527.0</ele><time>2026-05-01T13:06:48.137Z</time></trkpt><trkpt lat="44.194841" lon="11.5279265"><ele>527.0</ele><time>2026-05-01T13:06:50.135Z</time></trkpt><trkpt lat="44.1949222" lon="11.5279523"><ele>527.0</ele><time>2026-05-01T13:06:52.136Z</time></trkpt><trkpt lat="44.195019" lon="11.52796"><ele>527.0</ele><time>2026-05-01T13:06:54.136Z</time></trkpt><trkpt lat="44.195111" lon="11.5280133"><ele>526.3333333333333</ele><time>2026-05-01T13:06:56.136Z</time></trkpt><trkpt lat="44.1951582" lon="11.5280782"><ele>525.6666666666666</ele><time>2026-05-01T13:06:57.139Z</time></trkpt><trkpt lat="44.1952005" lon="11.5281597"><ele>525.0</ele><time>2026-05-01T13:06:58.136Z</time></trkpt><trkpt lat="44.1952448" lon="11.528248"><ele>524.3333333333334</ele><time>2026-05-01T13:06:59.136Z</time></trkpt><trkpt lat="44.1953007" lon="11.5283355"><ele>523.6666666666667</ele><time>2026-05-01T13:07:00.135Z</time></trkpt><trkpt lat="44.1953622" lon="11.528419"><ele>523.0</ele><time>2026-05-01T13:07:01.135Z</time></trkpt><trkpt lat="44.1954172" lon="11.5285007"><ele>522.9999999999999</ele><time>2026-05-01T13:07:02.135Z</time></trkpt><trkpt lat="44.1954582" lon="11.5285907"><ele>523.0</ele><time>2026-05-01T13:07:03.133Z</time></trkpt><trkpt lat="44.195489" lon="11.5286777"><ele>523.0</ele><time>2026-05-01T13:07:04.133Z</time></trkpt><trkpt lat="44.1955148" lon="11.5287602"><ele>523.0</ele><time>2026-05-01T13:07:05.132Z</time></trkpt><trkpt lat="44.1955503" lon="11.5288393"><ele>523.0</ele><time>2026-05-01T13:07:06.133Z</time></trkpt><trkpt lat="44.195609" lon="11.5289073"><ele>522.9999999999999</ele><time>2026-05-01T13:07:07.135Z</time></trkpt><trkpt lat="44.1956745" lon="11.5289825"><ele>523.0</ele><time>2026-05-01T13:07:08.134Z</time></trkpt><trkpt lat="44.1957328" lon="11.5290555"><ele>520.8</ele><time>2026-05-01T13:07:09.134Z</time></trkpt><trkpt lat="44.1957993" lon="11.5291428"><ele>518.5999999999999</ele><time>2026-05-01T13:07:11.133Z</time></trkpt><trkpt lat="44.1958578" lon="11.5292067"><ele>516.4000000000001</ele><time>2026-05-01T13:07:24.135Z</time></trkpt><trkpt lat="44.1959373" lon="11.5291685"><ele>514.2</ele><time>2026-05-01T13:07:28.132Z</time></trkpt><trkpt lat="44.1959995" lon="11.5290403"><ele>512.0</ele><time>2026-05-01T13:07:30.133Z</time></trkpt><trkpt lat="44.1960903" lon="11.5289092"><ele>512.0</ele><time>2026-05-01T13:07:32.134Z</time></trkpt><trkpt lat="44.1961435" lon="11.5288503"><ele>511.99999999999994</ele><time>2026-05-01T13:07:33.134Z</time></trkpt><trkpt lat="44.1962133" lon="11.5287908"><ele>512.0</ele><time>2026-05-01T13:07:34.135Z</time></trkpt><trkpt lat="44.196274" lon="11.5287308"><ele>512.0</ele><time>2026-05-01T13:07:35.134Z</time></trkpt><trkpt lat="44.1963308" lon="11.5286682"><ele>511.99999999999994</ele><time>2026-05-01T13:07:36.135Z</time></trkpt><trkpt lat="44.1963885" lon="11.528609"><ele>512.0</ele><time>2026-05-01T13:07:37.135Z</time></trkpt><trkpt lat="44.1964448" lon="11.528553"><ele>512.0</ele><time>2026-05-01T13:07:38.134Z</time></trkpt><trkpt lat="44.1964988" lon="11.5285072"><ele>510.3333333333333</ele><time>2026-05-01T13:07:39.135Z</time></trkpt><trkpt lat="44.196575" lon="11.5284697"><ele>508.66666666666663</ele><time>2026-05-01T13:07:41.135Z</time></trkpt><trkpt lat="44.1966473" lon="11.5284883"><ele>507.0</ele><time>2026-05-01T13:07:50.136Z</time></trkpt><trkpt lat="44.1967012" lon="11.5285658"><ele>505.33333333333337</ele><time>2026-05-01T13:07:52.135Z</time></trkpt><trkpt lat="44.1967303" lon="11.5286962"><ele>503.6666666666667</ele><time>2026-05-01T13:07:54.135Z</time></trkpt><trkpt lat="44.1967382" lon="11.528786"><ele>502.0</ele><time>2026-05-01T13:07:55.133Z</time></trkpt><trkpt lat="44.1967333" lon="11.5289457"><ele>502.00000000000006</ele><time>2026-05-01T13:07:57.134Z</time></trkpt><trkpt lat="44.1967602" lon="11.5290723"><ele>502.0</ele><time>2026-05-01T13:07:59.134Z</time></trkpt><trkpt lat="44.1968368" lon="11.5291205"><ele>502.0</ele><time>2026-05-01T13:08:01.135Z</time></trkpt><trkpt lat="44.1969095" lon="11.5290638"><ele>502.0</ele><time>2026-05-01T13:08:03.135Z</time></trkpt><trkpt lat="44.1969635" lon="11.5289275"><ele>502.00000000000006</ele><time>2026-05-01T13:08:05.134Z</time></trkpt><trkpt lat="44.1969853" lon="11.5288398"><ele>502.0</ele><time>2026-05-01T13:08:06.134Z</time></trkpt><trkpt lat="44.1970063" lon="11.5287455"><ele>500.99999999999994</ele><time>2026-05-01T13:08:07.133Z</time></trkpt><trkpt lat="44.1970332" lon="11.528649"><ele>500.0</ele><time>2026-05-01T13:08:08.132Z</time></trkpt><trkpt lat="44.1970568" lon="11.528548"><ele>498.99999999999994</ele><time>2026-05-01T13:08:09.133Z</time></trkpt><trkpt lat="44.1970847" lon="11.5284518"><ele>497.99999999999994</ele><time>2026-05-01T13:08:10.133Z</time></trkpt><trkpt lat="44.1971143" lon="11.5283492"><ele>497.0</ele><time>2026-05-01T13:08:11.132Z</time></trkpt><trkpt lat="44.1971377" lon="11.5282473"><ele>495.99999999999994</ele><time>2026-05-01T13:08:12.134Z</time></trkpt><trkpt lat="44.1971613" lon="11.5281618"><ele>494.99999999999994</ele><time>2026-05-01T13:08:13.133Z</time></trkpt><trkpt lat="44.1971995" lon="11.5280813"><ele>495.0</ele><time>2026-05-01T13:08:14.133Z</time></trkpt><trkpt lat="44.1972518" lon="11.5280082"><ele>495.0</ele><time>2026-05-01T13:08:15.134Z</time></trkpt><trkpt lat="44.1973102" lon="11.5279362"><ele>495.0</ele><time>2026-05-01T13:08:16.132Z</time></trkpt><trkpt lat="44.1973725" lon="11.5278652"><ele>495.0</ele><time>2026-05-01T13:08:17.133Z</time></trkpt><trkpt lat="44.1974312" lon="11.5277957"><ele>495.0</ele><time>2026-05-01T13:08:18.133Z</time></trkpt><trkpt lat="44.1974847" lon="11.5277345"><ele>495.0</ele><time>2026-05-01T13:08:19.133Z</time></trkpt><trkpt lat="44.1975777" lon="11.5276472"><ele>496.2</ele><time>2026-05-01T13:08:21.135Z</time></trkpt><trkpt lat="44.1976647" lon="11.5276023"><ele>497.4</ele><time>2026-05-01T13:08:23.133Z</time></trkpt><trkpt lat="44.1977138" lon="11.5275327"><ele>498.6</ele><time>2026-05-01T13:08:26.135Z</time></trkpt><trkpt lat="44.1977172" lon="11.5273798"><ele>499.8</ele><time>2026-05-01T13:08:31.135Z</time></trkpt><trkpt lat="44.1977105" lon="11.5272308"><ele>501.0</ele><time>2026-05-01T13:08:33.134Z</time></trkpt><trkpt lat="44.1977118" lon="11.5270943"><ele>499.6666666666667</ele><time>2026-05-01T13:08:35.136Z</time></trkpt><trkpt lat="44.1977178" lon="11.526958"><ele>498.33333333333337</ele><time>2026-05-01T13:08:37.134Z</time></trkpt><trkpt lat="44.1976928" lon="11.5268597"><ele>497.0</ele><time>2026-05-01T13:08:39.134Z</time></trkpt><trkpt lat="44.1976423" lon="11.5267978"><ele>495.6666666666667</ele><time>2026-05-01T13:08:41.132Z</time></trkpt><trkpt lat="44.1976072" lon="11.5267013"><ele>494.33333333333337</ele><time>2026-05-01T13:08:43.132Z</time></trkpt><trkpt lat="44.1976062" lon="11.526574"><ele>493.0</ele><time>2026-05-01T13:08:45.143Z</time></trkpt><trkpt lat="44.197613" lon="11.5264492"><ele>493.0</ele><time>2026-05-01T13:08:47.146Z</time></trkpt><trkpt lat="44.1976162" lon="11.526328"><ele>492.99999999999994</ele><time>2026-05-01T13:08:49.146Z</time></trkpt><trkpt lat="44.197624" lon="11.526234"><ele>492.99999999999994</ele><time>2026-05-01T13:08:51.145Z</time></trkpt><trkpt lat="44.197619" lon="11.5260845"><ele>493.0</ele><time>2026-05-01T13:08:54.137Z</time></trkpt><trkpt lat="44.1976098" lon="11.5259428"><ele>493.0</ele><time>2026-05-01T13:08:56.135Z</time></trkpt><trkpt lat="44.1975953" lon="11.5257962"><ele>492.50000000000006</ele><time>2026-05-01T13:08:58.135Z</time></trkpt><trkpt lat="44.1975763" lon="11.5256712"><ele>492.0</ele><time>2026-05-01T13:09:00.135Z</time></trkpt><trkpt lat="44.197555" lon="11.5255573"><ele>491.5</ele><time>2026-05-01T13:09:02.136Z</time></trkpt><trkpt lat="44.1975398" lon="11.5254597"><ele>491.0</ele><time>2026-05-01T13:09:04.136Z</time></trkpt><trkpt lat="44.1975287" lon="11.5253407"><ele>490.50000000000006</ele><time>2026-05-01T13:09:06.133Z</time></trkpt><trkpt lat="44.1975245" lon="11.5252078"><ele>490.0</ele><time>2026-05-01T13:09:08.132Z</time></trkpt><trkpt lat="44.1975118" lon="11.525074"><ele>490.0</ele><time>2026-05-01T13:09:10.135Z</time></trkpt><trkpt lat="44.1975272" lon="11.5249395"><ele>490.0</ele><time>2026-05-01T13:09:12.133Z</time></trkpt><trkpt lat="44.1975308" lon="11.5248082"><ele>490.0</ele><time>2026-05-01T13:09:14.133Z</time></trkpt><trkpt lat="44.1975223" lon="11.5246662"><ele>490.0</ele><time>2026-05-01T13:09:16.133Z</time></trkpt><trkpt lat="44.1975228" lon="11.5245312"><ele>490.0</ele><time>2026-05-01T13:09:18.134Z</time></trkpt><trkpt lat="44.1975247" lon="11.5243778"><ele>490.50000000000006</ele><time>2026-05-01T13:09:20.134Z</time></trkpt><trkpt lat="44.1975242" lon="11.5242118"><ele>491.0</ele><time>2026-05-01T13:09:22.133Z</time></trkpt><trkpt lat="44.197525" lon="11.524041"><ele>491.5</ele><time>2026-05-01T13:09:24.133Z</time></trkpt><trkpt lat="44.1975273" lon="11.5239523"><ele>492.0</ele><time>2026-05-01T13:09:25.134Z</time></trkpt><trkpt lat="44.1975303" lon="11.5238632"><ele>492.50000000000006</ele><time>2026-05-01T13:09:26.134Z</time></trkpt><trkpt lat="44.1975318" lon="11.5237738"><ele>493.0</ele><time>2026-05-01T13:09:27.132Z</time></trkpt><trkpt lat="44.1975383" lon="11.5236798"><ele>494.6666666666667</ele><time>2026-05-01T13:09:28.133Z</time></trkpt><trkpt lat="44.1975455" lon="11.5235838"><ele>496.33333333333337</ele><time>2026-05-01T13:09:29.133Z</time></trkpt><trkpt lat="44.1975377" lon="11.5234138"><ele>498.0</ele><time>2026-05-01T13:09:31.131Z</time></trkpt><trkpt lat="44.1975212" lon="11.5233265"><ele>499.66666666666663</ele><time>2026-05-01T13:09:32.132Z</time></trkpt><trkpt lat="44.1975085" lon="11.5232375"><ele>501.3333333333333</ele><time>2026-05-01T13:09:33.145Z</time></trkpt><trkpt lat="44.197464" lon="11.5230772"><ele>503.0</ele><time>2026-05-01T13:09:35.132Z</time></trkpt><trkpt lat="44.197446" lon="11.5229928"><ele>502.99999999999994</ele><time>2026-05-01T13:09:36.133Z</time></trkpt><trkpt lat="44.1974285" lon="11.5229018"><ele>503.0</ele><time>2026-05-01T13:09:37.132Z</time></trkpt><trkpt lat="44.1974088" lon="11.5228128"><ele>503.0</ele><time>2026-05-01T13:09:38.132Z</time></trkpt><trkpt lat="44.197398" lon="11.5226652"><ele>503.0</ele><time>2026-05-01T13:09:40.132Z</time></trkpt><trkpt lat="44.1974607" lon="11.5225278"><ele>502.99999999999994</ele><time>2026-05-01T13:09:42.133Z</time></trkpt><trkpt lat="44.1975038" lon="11.5224522"><ele>503.0</ele><time>2026-05-01T13:09:43.133Z</time></trkpt><trkpt lat="44.1975447" lon="11.5223745"><ele>503.8333333333333</ele><time>2026-05-01T13:09:44.134Z</time></trkpt><trkpt lat="44.1975807" lon="11.5222902"><ele>504.66666666666663</ele><time>2026-05-01T13:09:45.133Z</time></trkpt><trkpt lat="44.1976165" lon="11.5222122"><ele>505.5</ele><time>2026-05-01T13:09:46.134Z</time></trkpt><trkpt lat="44.197699" lon="11.5220803"><ele>506.33333333333337</ele><time>2026-05-01T13:09:48.134Z</time></trkpt><trkpt lat="44.1977442" lon="11.5220043"><ele>507.1666666666667</ele><time>2026-05-01T13:09:49.134Z</time></trkpt><trkpt lat="44.1977815" lon="11.521925"><ele>508.0</ele><time>2026-05-01T13:09:50.134Z</time></trkpt><trkpt lat="44.1978523" lon="11.521802"><ele>509.4</ele><time>2026-05-01T13:09:52.133Z</time></trkpt><trkpt lat="44.1979562" lon="11.5217267"><ele>510.79999999999995</ele><time>2026-05-01T13:09:54.134Z</time></trkpt><trkpt lat="44.198067" lon="11.5216908"><ele>512.2</ele><time>2026-05-01T13:09:56.133Z</time></trkpt><trkpt lat="44.1981643" lon="11.5216897"><ele>513.6</ele><time>2026-05-01T13:09:58.134Z</time></trkpt><trkpt lat="44.1982607" lon="11.5217372"><ele>515.0</ele><time>2026-05-01T13:10:00.135Z</time></trkpt><trkpt lat="44.19836" lon="11.5217843"><ele>515.0</ele><time>2026-05-01T13:10:02.136Z</time></trkpt><trkpt lat="44.1984728" lon="11.5218087"><ele>515.0</ele><time>2026-05-01T13:10:04.136Z</time></trkpt><trkpt lat="44.1985888" lon="11.521799"><ele>515.0</ele><time>2026-05-01T13:10:06.137Z</time></trkpt><trkpt lat="44.1986885" lon="11.521773"><ele>515.0</ele><time>2026-05-01T13:10:08.135Z</time></trkpt><trkpt lat="44.1987793" lon="11.5217043"><ele>515.0</ele><time>2026-05-01T13:10:10.138Z</time></trkpt><trkpt lat="44.1988618" lon="11.5216403"><ele>515.0</ele><time>2026-05-01T13:10:12.137Z</time></trkpt><trkpt lat="44.1989408" lon="11.5215762"><ele>515.0</ele><time>2026-05-01T13:10:14.136Z</time></trkpt><trkpt lat="44.1990182" lon="11.5214708"><ele>515.0</ele><time>2026-05-01T13:10:16.137Z</time></trkpt><trkpt lat="44.199124" lon="11.5213755"><ele>515.0</ele><time>2026-05-01T13:10:18.138Z</time></trkpt><trkpt lat="44.1991955" lon="11.5213672"><ele>515.0</ele><time>2026-05-01T13:10:19.135Z</time></trkpt><trkpt lat="44.1992652" lon="11.5213605"><ele>514.3333333333333</ele><time>2026-05-01T13:10:20.134Z</time></trkpt><trkpt lat="44.1993307" lon="11.521342"><ele>513.6666666666666</ele><time>2026-05-01T13:10:21.133Z</time></trkpt><trkpt lat="44.1994022" lon="11.5212588"><ele>513.0</ele><time>2026-05-01T13:10:23.135Z</time></trkpt><trkpt lat="44.1993645" lon="11.5211717"><ele>512.3333333333334</ele><time>2026-05-01T13:10:25.135Z</time></trkpt><trkpt lat="44.1993007" lon="11.5211288"><ele>511.6666666666667</ele><time>2026-05-01T13:10:26.133Z</time></trkpt><trkpt lat="44.1992362" lon="11.5210807"><ele>511.0</ele><time>2026-05-01T13:10:27.134Z</time></trkpt><trkpt lat="44.1991647" lon="11.5210317"><ele>508.33333333333337</ele><time>2026-05-01T13:10:28.135Z</time></trkpt><trkpt lat="44.1990933" lon="11.5209922"><ele>505.6666666666667</ele><time>2026-05-01T13:10:29.135Z</time></trkpt><trkpt lat="44.1990292" lon="11.5209637"><ele>503.0</ele><time>2026-05-01T13:10:30.134Z</time></trkpt><trkpt lat="44.1989677" lon="11.5208685"><ele>500.33333333333337</ele><time>2026-05-01T13:10:32.137Z</time></trkpt><trkpt lat="44.1990477" lon="11.5207452"><ele>497.6666666666667</ele><time>2026-05-01T13:10:34.136Z</time></trkpt><trkpt lat="44.1991193" lon="11.5206805"><ele>495.0</ele><time>2026-05-01T13:10:35.134Z</time></trkpt><trkpt lat="44.1991943" lon="11.5206073"><ele>493.8</ele><time>2026-05-01T13:10:36.135Z</time></trkpt><trkpt lat="44.1992675" lon="11.5205318"><ele>492.6</ele><time>2026-05-01T13:10:37.136Z</time></trkpt><trkpt lat="44.1993448" lon="11.5204658"><ele>491.4</ele><time>2026-05-01T13:10:38.136Z</time></trkpt><trkpt lat="44.1994255" lon="11.5204118"><ele>490.2</ele><time>2026-05-01T13:10:39.135Z</time></trkpt><trkpt lat="44.1995105" lon="11.5203553"><ele>489.0</ele><time>2026-05-01T13:10:40.136Z</time></trkpt><trkpt lat="44.1995987" lon="11.5203033"><ele>486.3333333333333</ele><time>2026-05-01T13:10:41.135Z</time></trkpt><trkpt lat="44.1996852" lon="11.5202523"><ele>483.66666666666663</ele><time>2026-05-01T13:10:42.137Z</time></trkpt><trkpt lat="44.1997625" lon="11.5201972"><ele>481.0</ele><time>2026-05-01T13:10:43.134Z</time></trkpt><trkpt lat="44.1998165" lon="11.5201323"><ele>478.3333333333333</ele><time>2026-05-01T13:10:44.133Z</time></trkpt><trkpt lat="44.1998103" lon="11.5199852"><ele>475.66666666666663</ele><time>2026-05-01T13:10:46.134Z</time></trkpt><trkpt lat="44.1997528" lon="11.5199135"><ele>473.0</ele><time>2026-05-01T13:10:47.135Z</time></trkpt><trkpt lat="44.1996815" lon="11.5198288"><ele>473.0</ele><time>2026-05-01T13:10:48.138Z</time></trkpt><trkpt lat="44.1996117" lon="11.5197222"><ele>472.99999999999994</ele><time>2026-05-01T13:10:49.137Z</time></trkpt><trkpt lat="44.199549" lon="11.519608"><ele>472.99999999999994</ele><time>2026-05-01T13:10:50.137Z</time></trkpt><trkpt lat="44.1994825" lon="11.5195053"><ele>473.0</ele><time>2026-05-01T13:10:51.138Z</time></trkpt><trkpt lat="44.199404" lon="11.51944"><ele>473.0</ele><time>2026-05-01T13:10:52.137Z</time></trkpt><trkpt lat="44.1993175" lon="11.5194288"><ele>469.0</ele><time>2026-05-01T13:10:53.136Z</time></trkpt><trkpt lat="44.199232" lon="11.519447"><ele>464.99999999999994</ele><time>2026-05-01T13:10:54.138Z</time></trkpt><trkpt lat="44.199149" lon="11.5194598"><ele>460.99999999999994</ele><time>2026-05-01T13:10:55.138Z</time></trkpt><trkpt lat="44.1990823" lon="11.5194505"><ele>457.0</ele><time>2026-05-01T13:10:56.136Z</time></trkpt><trkpt lat="44.1990312" lon="11.5193327"><ele>453.0</ele><time>2026-05-01T13:10:58.136Z</time></trkpt><trkpt lat="44.1991147" lon="11.5191968"><ele>453.0</ele><time>2026-05-01T13:11:00.139Z</time></trkpt><trkpt lat="44.1991757" lon="11.5191358"><ele>453.0</ele><time>2026-05-01T13:11:01.139Z</time></trkpt><trkpt lat="44.1992302" lon="11.5190787"><ele>453.0</ele><time>2026-05-01T13:11:02.137Z</time></trkpt><trkpt lat="44.1992435" lon="11.518958"><ele>453.0</ele><time>2026-05-01T13:11:04.137Z</time></trkpt><trkpt lat="44.1991215" lon="11.5189127"><ele>453.0</ele><time>2026-05-01T13:11:06.137Z</time></trkpt><trkpt lat="44.1990488" lon="11.518896"><ele>453.0</ele><time>2026-05-01T13:11:07.137Z</time></trkpt><trkpt lat="44.198983" lon="11.5188673"><ele>448.79999999999995</ele><time>2026-05-01T13:11:08.137Z</time></trkpt><trkpt lat="44.1989323" lon="11.5187335"><ele>444.59999999999997</ele><time>2026-05-01T13:11:10.138Z</time></trkpt><trkpt lat="44.1989618" lon="11.5186397"><ele>440.40000000000003</ele><time>2026-05-01T13:11:11.134Z</time></trkpt><trkpt lat="44.199019" lon="11.5185293"><ele>436.20000000000005</ele><time>2026-05-01T13:11:12.137Z</time></trkpt><trkpt lat="44.1990872" lon="11.5184083"><ele>432.0</ele><time>2026-05-01T13:11:13.139Z</time></trkpt><trkpt lat="44.1991645" lon="11.5182852"><ele>432.0</ele><time>2026-05-01T13:11:14.137Z</time></trkpt><trkpt lat="44.1992523" lon="11.5181827"><ele>432.0</ele><time>2026-05-01T13:11:15.136Z</time></trkpt><trkpt lat="44.199354" lon="11.5181112"><ele>432.0</ele><time>2026-05-01T13:11:16.136Z</time></trkpt><trkpt lat="44.1994695" lon="11.5180718"><ele>432.0</ele><time>2026-05-01T13:11:17.135Z</time></trkpt><trkpt lat="44.1995945" lon="11.5180762"><ele>432.0</ele><time>2026-05-01T13:11:18.135Z</time></trkpt><trkpt lat="44.1997117" lon="11.5181183"><ele>432.00000000000006</ele><time>2026-05-01T13:11:19.136Z</time></trkpt><trkpt lat="44.1998135" lon="11.5181905"><ele>432.00000000000006</ele><time>2026-05-01T13:11:20.136Z</time></trkpt><trkpt lat="44.1999017" lon="11.5182683"><ele>432.0</ele><time>2026-05-01T13:11:21.136Z</time></trkpt><trkpt lat="44.1999907" lon="11.5183142"><ele>432.0</ele><time>2026-05-01T13:11:22.137Z</time></trkpt><trkpt lat="44.2000832" lon="11.5183225"><ele>430.40000000000003</ele><time>2026-05-01T13:11:23.135Z</time></trkpt><trkpt lat="44.2001772" lon="11.5183248"><ele>428.80000000000007</ele><time>2026-05-01T13:11:24.136Z</time></trkpt><trkpt lat="44.2002737" lon="11.518341"><ele>427.2</ele><time>2026-05-01T13:11:25.135Z</time></trkpt><trkpt lat="44.2003667" lon="11.5183552"><ele>425.6</ele><time>2026-05-01T13:11:26.134Z</time></trkpt><trkpt lat="44.2004553" lon="11.518363"><ele>424.0</ele><time>2026-05-01T13:11:27.135Z</time></trkpt><trkpt lat="44.2005358" lon="11.5183653"><ele>424.0</ele><time>2026-05-01T13:11:28.135Z</time></trkpt><trkpt lat="44.2006095" lon="11.5183602"><ele>424.0</ele><time>2026-05-01T13:11:29.134Z</time></trkpt><trkpt lat="44.2006792" lon="11.5183505"><ele>424.0</ele><time>2026-05-01T13:11:30.135Z</time></trkpt><trkpt lat="44.2007855" lon="11.518312"><ele>424.0</ele><time>2026-05-01T13:11:32.135Z</time></trkpt><trkpt lat="44.2007667" lon="11.5182078"><ele>424.0</ele><time>2026-05-01T13:11:35.133Z</time></trkpt><trkpt lat="44.2006555" lon="11.5181472"><ele>424.0</ele><time>2026-05-01T13:11:37.136Z</time></trkpt><trkpt lat="44.2005758" lon="11.5181082"><ele>424.0</ele><time>2026-05-01T13:11:38.134Z</time></trkpt><trkpt lat="44.2004862" lon="11.5180605"><ele>424.0</ele><time>2026-05-01T13:11:39.135Z</time></trkpt><trkpt lat="44.2003907" lon="11.5179972"><ele>424.0</ele><time>2026-05-01T13:11:40.136Z</time></trkpt><trkpt lat="44.2002947" lon="11.5179165"><ele>424.0</ele><time>2026-05-01T13:11:41.135Z</time></trkpt><trkpt lat="44.2002065" lon="11.5178183"><ele>416.5</ele><time>2026-05-01T13:11:42.136Z</time></trkpt><trkpt lat="44.2001318" lon="11.5177047"><ele>409.0</ele><time>2026-05-01T13:11:43.134Z</time></trkpt><trkpt lat="44.200066" lon="11.517577"><ele>401.5</ele><time>2026-05-01T13:11:44.134Z</time></trkpt><trkpt lat="44.200001" lon="11.517443"><ele>394.0</ele><time>2026-05-01T13:11:45.136Z</time></trkpt><trkpt lat="44.1999257" lon="11.5173115"><ele>394.0</ele><time>2026-05-01T13:11:46.135Z</time></trkpt><trkpt lat="44.199839" lon="11.5171943"><ele>394.0</ele><time>2026-05-01T13:11:47.136Z</time></trkpt><trkpt lat="44.1997463" lon="11.517099"><ele>394.0</ele><time>2026-05-01T13:11:48.134Z</time></trkpt><trkpt lat="44.1996502" lon="11.5170285"><ele>394.0</ele><time>2026-05-01T13:11:49.134Z</time></trkpt><trkpt lat="44.199547" lon="11.5169753"><ele>391.1666666666667</ele><time>2026-05-01T13:11:50.135Z</time></trkpt><trkpt lat="44.1994455" lon="11.5169403"><ele>388.33333333333337</ele><time>2026-05-01T13:11:51.135Z</time></trkpt><trkpt lat="44.1993522" lon="11.5169117"><ele>385.5</ele><time>2026-05-01T13:11:52.137Z</time></trkpt><trkpt lat="44.1992667" lon="11.5168857"><ele>382.6666666666667</ele><time>2026-05-01T13:11:53.134Z</time></trkpt><trkpt lat="44.1991927" lon="11.516851"><ele>379.83333333333337</ele><time>2026-05-01T13:11:54.135Z</time></trkpt><trkpt lat="44.1991292" lon="11.5168077"><ele>377.0</ele><time>2026-05-01T13:11:55.134Z</time></trkpt><trkpt lat="44.1990708" lon="11.516762"><ele>376.99999999999994</ele><time>2026-05-01T13:11:56.135Z</time></trkpt><trkpt lat="44.1990112" lon="11.5167178"><ele>377.0</ele><time>2026-05-01T13:11:57.132Z</time></trkpt><trkpt lat="44.1989493" lon="11.5166782"><ele>377.0</ele><time>2026-05-01T13:11:58.133Z</time></trkpt><trkpt lat="44.198889" lon="11.5166378"><ele>377.0</ele><time>2026-05-01T13:11:59.132Z</time></trkpt><trkpt lat="44.1988257" lon="11.516596"><ele>377.0</ele><time>2026-05-01T13:12:00.132Z</time></trkpt><trkpt lat="44.1987662" lon="11.5165588"><ele>376.99999999999994</ele><time>2026-05-01T13:12:01.134Z</time></trkpt><trkpt lat="44.1986987" lon="11.5165263"><ele>377.0</ele><time>2026-05-01T13:12:02.135Z</time></trkpt><trkpt lat="44.1986283" lon="11.5164962"><ele>377.1666666666667</ele><time>2026-05-01T13:12:03.135Z</time></trkpt><trkpt lat="44.198553" lon="11.5164718"><ele>377.33333333333337</ele><time>2026-05-01T13:12:04.136Z</time></trkpt><trkpt lat="44.198472" lon="11.516456"><ele>377.5</ele><time>2026-05-01T13:12:05.135Z</time></trkpt><trkpt lat="44.1983848" lon="11.5164513"><ele>377.6666666666667</ele><time>2026-05-01T13:12:06.135Z</time></trkpt><trkpt lat="44.1982998" lon="11.5164615"><ele>377.8333333333333</ele><time>2026-05-01T13:12:07.135Z</time></trkpt><trkpt lat="44.1982187" lon="11.5164835"><ele>378.0</ele><time>2026-05-01T13:12:08.134Z</time></trkpt><trkpt lat="44.198137" lon="11.5165158"><ele>374.4</ele><time>2026-05-01T13:12:09.134Z</time></trkpt><trkpt lat="44.1980593" lon="11.5165637"><ele>370.79999999999995</ele><time>2026-05-01T13:12:10.134Z</time></trkpt><trkpt lat="44.1979812" lon="11.51662"><ele>367.2</ele><time>2026-05-01T13:12:11.134Z</time></trkpt><trkpt lat="44.1979015" lon="11.516687"><ele>363.6</ele><time>2026-05-01T13:12:12.133Z</time></trkpt><trkpt lat="44.1978275" lon="11.5167775"><ele>360.0</ele><time>2026-05-01T13:12:13.133Z</time></trkpt><trkpt lat="44.1977602" lon="11.516887"><ele>360.0</ele><time>2026-05-01T13:12:14.133Z</time></trkpt><trkpt lat="44.1976958" lon="11.5169992"><ele>360.0</ele><time>2026-05-01T13:12:15.134Z</time></trkpt><trkpt lat="44.1976305" lon="11.5171065"><ele>360.0</ele><time>2026-05-01T13:12:16.133Z</time></trkpt><trkpt lat="44.1975623" lon="11.5172062"><ele>360.0</ele><time>2026-05-01T13:12:17.131Z</time></trkpt><trkpt lat="44.1974892" lon="11.517292"><ele>360.0</ele><time>2026-05-01T13:12:18.132Z</time></trkpt><trkpt lat="44.1974112" lon="11.5173595"><ele>361.5</ele><time>2026-05-01T13:12:19.131Z</time></trkpt><trkpt lat="44.1973278" lon="11.5173997"><ele>363.0</ele><time>2026-05-01T13:12:20.132Z</time></trkpt><trkpt lat="44.1972412" lon="11.5174018"><ele>364.5</ele><time>2026-05-01T13:12:21.131Z</time></trkpt><trkpt lat="44.1971533" lon="11.5173742"><ele>366.0</ele><time>2026-05-01T13:12:22.132Z</time></trkpt><trkpt lat="44.1970735" lon="11.5173103"><ele>367.5</ele><time>2026-05-01T13:12:23.13Z</time></trkpt><trkpt lat="44.197013" lon="11.5172218"><ele>369.0</ele><time>2026-05-01T13:12:24.131Z</time></trkpt><trkpt lat="44.1969725" lon="11.517119"><ele>371.6</ele><time>2026-05-01T13:12:25.132Z</time></trkpt><trkpt lat="44.1969478" lon="11.5170028"><ele>374.2</ele><time>2026-05-01T13:12:26.133Z</time></trkpt><trkpt lat="44.1969443" lon="11.5168768"><ele>376.8</ele><time>2026-05-01T13:12:27.132Z</time></trkpt><trkpt lat="44.1969662" lon="11.5167458"><ele>379.40000000000003</ele><time>2026-05-01T13:12:28.134Z</time></trkpt><trkpt lat="44.1970088" lon="11.5166083"><ele>382.0</ele><time>2026-05-01T13:12:29.132Z</time></trkpt><trkpt lat="44.1970625" lon="11.5164615"><ele>382.0</ele><time>2026-05-01T13:12:30.134Z</time></trkpt><trkpt lat="44.197115" lon="11.516298"><ele>382.0</ele><time>2026-05-01T13:12:31.133Z</time></trkpt><trkpt lat="44.1971547" lon="11.5161228"><ele>382.0</ele><time>2026-05-01T13:12:32.132Z</time></trkpt><trkpt lat="44.197197" lon="11.5159498"><ele>382.0</ele><time>2026-05-01T13:12:33.134Z</time></trkpt><trkpt lat="44.197252" lon="11.5157853"><ele>382.25</ele><time>2026-05-01T13:12:34.135Z</time></trkpt><trkpt lat="44.1973175" lon="11.5156268"><ele>382.5</ele><time>2026-05-01T13:12:35.132Z</time></trkpt><trkpt lat="44.1973875" lon="11.5154748"><ele>382.75</ele><time>2026-05-01T13:12:36.133Z</time></trkpt><trkpt lat="44.1974655" lon="11.5153347"><ele>383.0</ele><time>2026-05-01T13:12:37.132Z</time></trkpt><trkpt lat="44.1975492" lon="11.5152015"><ele>383.0</ele><time>2026-05-01T13:12:38.132Z</time></trkpt><trkpt lat="44.1976415" lon="11.5150803"><ele>383.0</ele><time>2026-05-01T13:12:39.133Z</time></trkpt><trkpt lat="44.1977458" lon="11.5149743"><ele>383.0</ele><time>2026-05-01T13:12:40.132Z</time></trkpt><trkpt lat="44.1978617" lon="11.5148848"><ele>383.0</ele><time>2026-05-01T13:12:41.132Z</time></trkpt><trkpt lat="44.1979832" lon="11.5148023"><ele>383.0</ele><time>2026-05-01T13:12:42.133Z</time></trkpt><trkpt lat="44.1981037" lon="11.5147218"><ele>383.0</ele><time>2026-05-01T13:12:43.132Z</time></trkpt><trkpt lat="44.1982217" lon="11.5146443"><ele>383.0</ele><time>2026-05-01T13:12:44.132Z</time></trkpt><trkpt lat="44.1983403" lon="11.5145632"><ele>383.0</ele><time>2026-05-01T13:12:45.133Z</time></trkpt><trkpt lat="44.1984565" lon="11.5144718"><ele>383.5</ele><time>2026-05-01T13:12:46.131Z</time></trkpt><trkpt lat="44.19857" lon="11.5143713"><ele>384.0</ele><time>2026-05-01T13:12:47.13Z</time></trkpt><trkpt lat="44.198683" lon="11.5142715"><ele>384.5</ele><time>2026-05-01T13:12:48.131Z</time></trkpt><trkpt lat="44.1987975" lon="11.5141697"><ele>385.0</ele><time>2026-05-01T13:12:49.131Z</time></trkpt><trkpt lat="44.1989122" lon="11.5140683"><ele>383.75</ele><time>2026-05-01T13:12:50.131Z</time></trkpt><trkpt lat="44.1990258" lon="11.5139678"><ele>382.5</ele><time>2026-05-01T13:12:51.132Z</time></trkpt><trkpt lat="44.1991393" lon="11.5138723"><ele>381.25</ele><time>2026-05-01T13:12:52.134Z</time></trkpt><trkpt lat="44.1992503" lon="11.5137897"><ele>380.0</ele><time>2026-05-01T13:12:53.131Z</time></trkpt><trkpt lat="44.199356" lon="11.5137375"><ele>380.0</ele><time>2026-05-01T13:12:54.134Z</time></trkpt><trkpt lat="44.199456" lon="11.5137065"><ele>380.0</ele><time>2026-05-01T13:12:55.133Z</time></trkpt><trkpt lat="44.1995482" lon="11.5136868"><ele>380.0</ele><time>2026-05-01T13:12:56.132Z</time></trkpt><trkpt lat="44.1996337" lon="11.5136582"><ele>380.0</ele><time>2026-05-01T13:12:57.132Z</time></trkpt><trkpt lat="44.1997093" lon="11.5136285"><ele>380.0</ele><time>2026-05-01T13:12:58.133Z</time></trkpt><trkpt lat="44.199772" lon="11.5136058"><ele>380.0</ele><time>2026-05-01T13:12:59.134Z</time></trkpt><trkpt lat="44.1998365" lon="11.5135848"><ele>378.4</ele><time>2026-05-01T13:13:01.135Z</time></trkpt><trkpt lat="44.1999028" lon="11.5134887"><ele>376.8</ele><time>2026-05-01T13:21:26.14Z</time></trkpt><trkpt lat="44.2000035" lon="11.51339"><ele>375.20000000000005</ele><time>2026-05-01T13:21:28.14Z</time></trkpt><trkpt lat="44.2000375" lon="11.5132973"><ele>373.6</ele><time>2026-05-01T13:21:29.137Z</time></trkpt><trkpt lat="44.2000447" lon="11.5131887"><ele>372.0</ele><time>2026-05-01T13:21:30.138Z</time></trkpt><trkpt lat="44.2000225" lon="11.5130795"><ele>372.0</ele><time>2026-05-01T13:21:31.138Z</time></trkpt><trkpt lat="44.1999705" lon="11.5129845"><ele>372.0</ele><time>2026-05-01T13:21:32.139Z</time></trkpt><trkpt lat="44.1998918" lon="11.512912"><ele>372.0</ele><time>2026-05-01T13:21:33.137Z</time></trkpt><trkpt lat="44.1997953" lon="11.5128588"><ele>372.0</ele><time>2026-05-01T13:21:34.137Z</time></trkpt><trkpt lat="44.1996902" lon="11.5128122"><ele>372.0</ele><time>2026-05-01T13:21:35.136Z</time></trkpt><trkpt lat="44.1995852" lon="11.5127658"><ele>371.20000000000005</ele><time>2026-05-01T13:21:36.137Z</time></trkpt><trkpt lat="44.1994817" lon="11.5127218"><ele>370.4</ele><time>2026-05-01T13:21:37.139Z</time></trkpt><trkpt lat="44.1993828" lon="11.5126788"><ele>369.6</ele><time>2026-05-01T13:21:38.14Z</time></trkpt><trkpt lat="44.1992878" lon="11.5126377"><ele>368.79999999999995</ele><time>2026-05-01T13:21:39.139Z</time></trkpt><trkpt lat="44.1991962" lon="11.5125995"><ele>368.0</ele><time>2026-05-01T13:21:40.139Z</time></trkpt><trkpt lat="44.1991092" lon="11.5125615"><ele>368.0</ele><time>2026-05-01T13:21:41.137Z</time></trkpt><trkpt lat="44.1990307" lon="11.512519"><ele>368.0</ele><time>2026-05-01T13:21:42.138Z</time></trkpt><trkpt lat="44.1989597" lon="11.5124583"><ele>368.0</ele><time>2026-05-01T13:21:43.136Z</time></trkpt><trkpt lat="44.1989137" lon="11.5123747"><ele>368.0</ele><time>2026-05-01T13:21:44.136Z</time></trkpt><trkpt lat="44.1989022" lon="11.5122708"><ele>368.0</ele><time>2026-05-01T13:21:45.135Z</time></trkpt><trkpt lat="44.1989262" lon="11.512163"><ele>368.0</ele><time>2026-05-01T13:21:46.137Z</time></trkpt><trkpt lat="44.1989835" lon="11.512083"><ele>368.0</ele><time>2026-05-01T13:21:47.135Z</time></trkpt><trkpt lat="44.199061" lon="11.5120513"><ele>368.0</ele><time>2026-05-01T13:21:48.138Z</time></trkpt><trkpt lat="44.1991497" lon="11.5120695"><ele>368.0</ele><time>2026-05-01T13:21:49.14Z</time></trkpt><trkpt lat="44.199241" lon="11.5121333"><ele>368.0</ele><time>2026-05-01T13:21:50.139Z</time></trkpt><trkpt lat="44.1993298" lon="11.5122228"><ele>368.0</ele><time>2026-05-01T13:21:51.138Z</time></trkpt><trkpt lat="44.1994228" lon="11.5122993"><ele>368.0</ele><time>2026-05-01T13:21:52.139Z</time></trkpt><trkpt lat="44.1995287" lon="11.5123507"><ele>368.0</ele><time>2026-05-01T13:21:53.136Z</time></trkpt><trkpt lat="44.1996445" lon="11.5123797"><ele>368.0</ele><time>2026-05-01T13:21:54.136Z</time></trkpt><trkpt lat="44.1997553" lon="11.5123988"><ele>368.0</ele><time>2026-05-01T13:21:55.147Z</time></trkpt><trkpt lat="44.1998663" lon="11.512418"><ele>364.75</ele><time>2026-05-01T13:21:56.148Z</time></trkpt><trkpt lat="44.199983" lon="11.5124465"><ele>361.5</ele><time>2026-05-01T13:21:57.138Z</time></trkpt><trkpt lat="44.200096" lon="11.5124968"><ele>358.25</ele><time>2026-05-01T13:21:58.136Z</time></trkpt><trkpt lat="44.2002083" lon="11.5125635"><ele>355.0</ele><time>2026-05-01T13:21:59.135Z</time></trkpt><trkpt lat="44.2003192" lon="11.5126233"><ele>355.0</ele><time>2026-05-01T13:22:00.135Z</time></trkpt><trkpt lat="44.2004332" lon="11.5126623"><ele>355.0</ele><time>2026-05-01T13:22:01.135Z</time></trkpt><trkpt lat="44.2005495" lon="11.5126703"><ele>355.0</ele><time>2026-05-01T13:22:02.137Z</time></trkpt><trkpt lat="44.2006702" lon="11.5126485"><ele>355.0</ele><time>2026-05-01T13:22:03.135Z</time></trkpt><trkpt lat="44.200794" lon="11.5126082"><ele>353.5</ele><time>2026-05-01T13:22:04.135Z</time></trkpt><trkpt lat="44.2009207" lon="11.5125605"><ele>352.0</ele><time>2026-05-01T13:22:05.138Z</time></trkpt><trkpt lat="44.2010482" lon="11.5125023"><ele>350.5</ele><time>2026-05-01T13:22:06.135Z</time></trkpt><trkpt lat="44.2011743" lon="11.5124303"><ele>349.0</ele><time>2026-05-01T13:22:07.138Z</time></trkpt><trkpt lat="44.201303" lon="11.5123407"><ele>349.0</ele><time>2026-05-01T13:22:08.134Z</time></trkpt><trkpt lat="44.201432" lon="11.5122357"><ele>349.0</ele><time>2026-05-01T13:22:09.134Z</time></trkpt><trkpt lat="44.2015553" lon="11.5121307"><ele>349.0</ele><time>2026-05-01T13:22:10.133Z</time></trkpt><trkpt lat="44.2016738" lon="11.5120232"><ele>349.0</ele><time>2026-05-01T13:22:11.132Z</time></trkpt><trkpt lat="44.2017853" lon="11.5119135"><ele>344.0</ele><time>2026-05-01T13:22:12.133Z</time></trkpt><trkpt lat="44.2018827" lon="11.5117875"><ele>339.0</ele><time>2026-05-01T13:22:13.134Z</time></trkpt><trkpt lat="44.2019593" lon="11.5116425"><ele>334.0</ele><time>2026-05-01T13:22:14.135Z</time></trkpt><trkpt lat="44.202023" lon="11.511492"><ele>329.0</ele><time>2026-05-01T13:22:15.136Z</time></trkpt><trkpt lat="44.2020933" lon="11.511356"><ele>329.0</ele><time>2026-05-01T13:22:16.136Z</time></trkpt><trkpt lat="44.2021782" lon="11.5112435"><ele>329.0</ele><time>2026-05-01T13:22:17.136Z</time></trkpt><trkpt lat="44.2022757" lon="11.51115"><ele>329.0</ele><time>2026-05-01T13:22:18.137Z</time></trkpt><trkpt lat="44.202385" lon="11.5110792"><ele>329.0</ele><time>2026-05-01T13:22:19.137Z</time></trkpt><trkpt lat="44.2025055" lon="11.5110365"><ele>325.75</ele><time>2026-05-01T13:22:20.135Z</time></trkpt><trkpt lat="44.2026328" lon="11.5110252"><ele>322.5</ele><time>2026-05-01T13:22:21.135Z</time></trkpt><trkpt lat="44.2027645" lon="11.511034"><ele>319.25</ele><time>2026-05-01T13:22:22.135Z</time></trkpt><trkpt lat="44.2029022" lon="11.5110478"><ele>316.0</ele><time>2026-05-01T13:22:23.135Z</time></trkpt><trkpt lat="44.2030432" lon="11.5110607"><ele>316.25</ele><time>2026-05-01T13:22:24.137Z</time></trkpt><trkpt lat="44.203182" lon="11.5110755"><ele>316.5</ele><time>2026-05-01T13:22:25.134Z</time></trkpt><trkpt lat="44.2033213" lon="11.5110848"><ele>316.75</ele><time>2026-05-01T13:22:26.135Z</time></trkpt><trkpt lat="44.2034625" lon="11.5110975"><ele>317.0</ele><time>2026-05-01T13:22:27.136Z</time></trkpt><trkpt lat="44.2036052" lon="11.5111103"><ele>317.0</ele><time>2026-05-01T13:22:28.135Z</time></trkpt><trkpt lat="44.2037497" lon="11.5111252"><ele>317.0</ele><time>2026-05-01T13:22:29.134Z</time></trkpt><trkpt lat="44.2038938" lon="11.511146"><ele>317.0</ele><time>2026-05-01T13:22:30.136Z</time></trkpt><trkpt lat="44.2040362" lon="11.5111653"><ele>317.0</ele><time>2026-05-01T13:22:31.134Z</time></trkpt><trkpt lat="44.2041787" lon="11.5111835"><ele>314.5</ele><time>2026-05-01T13:22:32.134Z</time></trkpt><trkpt lat="44.2043203" lon="11.5111967"><ele>312.0</ele><time>2026-05-01T13:22:33.134Z</time></trkpt><trkpt lat="44.2044608" lon="11.5112072"><ele>309.5</ele><time>2026-05-01T13:22:34.132Z</time></trkpt><trkpt lat="44.2045997" lon="11.5112215"><ele>307.0</ele><time>2026-05-01T13:22:35.131Z</time></trkpt><trkpt lat="44.2047357" lon="11.5112355"><ele>311.75</ele><time>2026-05-01T13:22:36.132Z</time></trkpt><trkpt lat="44.20487" lon="11.511251"><ele>316.5</ele><time>2026-05-01T13:22:37.131Z</time></trkpt><trkpt lat="44.2050013" lon="11.5112662"><ele>321.25</ele><time>2026-05-01T13:22:38.134Z</time></trkpt><trkpt lat="44.2051295" lon="11.5112747"><ele>326.0</ele><time>2026-05-01T13:22:39.134Z</time></trkpt><trkpt lat="44.205255" lon="11.5112588"><ele>321.0</ele><time>2026-05-01T13:22:40.136Z</time></trkpt><trkpt lat="44.2053817" lon="11.5112202"><ele>316.0</ele><time>2026-05-01T13:22:41.134Z</time></trkpt><trkpt lat="44.2055103" lon="11.5111657"><ele>311.0</ele><time>2026-05-01T13:22:42.135Z</time></trkpt><trkpt lat="44.2056403" lon="11.5111082"><ele>306.0</ele><time>2026-05-01T13:22:43.136Z</time></trkpt><trkpt lat="44.2057682" lon="11.511065"><ele>304.0</ele><time>2026-05-01T13:22:44.134Z</time></trkpt><trkpt lat="44.2058965" lon="11.5110542"><ele>302.0</ele><time>2026-05-01T13:22:45.135Z</time></trkpt><trkpt lat="44.2060283" lon="11.5110782"><ele>300.0</ele><time>2026-05-01T13:22:46.134Z</time></trkpt><trkpt lat="44.2061528" lon="11.5111257"><ele>298.0</ele><time>2026-05-01T13:22:47.133Z</time></trkpt><trkpt lat="44.2062715" lon="11.5111738"><ele>298.0</ele><time>2026-05-01T13:22:48.134Z</time></trkpt><trkpt lat="44.2063863" lon="11.5112088"><ele>298.0</ele><time>2026-05-01T13:22:49.134Z</time></trkpt><trkpt lat="44.2064985" lon="11.5112243"><ele>298.0</ele><time>2026-05-01T13:22:50.132Z</time></trkpt><trkpt lat="44.2066147" lon="11.5112232"><ele>298.0</ele><time>2026-05-01T13:22:51.134Z</time></trkpt><trkpt lat="44.2067338" lon="11.5112017"><ele>295.0</ele><time>2026-05-01T13:22:52.132Z</time></trkpt><trkpt lat="44.2068515" lon="11.5111588"><ele>292.0</ele><time>2026-05-01T13:22:53.132Z</time></trkpt><trkpt lat="44.2069713" lon="11.5110877"><ele>289.0</ele><time>2026-05-01T13:22:54.133Z</time></trkpt><trkpt lat="44.2070825" lon="11.5110017"><ele>286.0</ele><time>2026-05-01T13:22:55.134Z</time></trkpt><trkpt lat="44.2071852" lon="11.5109103"><ele>286.0</ele><time>2026-05-01T13:22:56.134Z</time></trkpt><trkpt lat="44.2072822" lon="11.5108135"><ele>286.0</ele><time>2026-05-01T13:22:57.134Z</time></trkpt><trkpt lat="44.207378" lon="11.5107208"><ele>286.0</ele><time>2026-05-01T13:22:58.134Z</time></trkpt><trkpt lat="44.2074727" lon="11.5106547"><ele>286.0</ele><time>2026-05-01T13:22:59.133Z</time></trkpt><trkpt lat="44.2075465" lon="11.5106192"><ele>286.0</ele><time>2026-05-01T13:23:00.133Z</time></trkpt><trkpt lat="44.207612" lon="11.5105797"><ele>286.3333333333333</ele><time>2026-05-01T13:23:02.134Z</time></trkpt><trkpt lat="44.2076573" lon="11.5105107"><ele>286.66666666666663</ele><time>2026-05-01T13:23:08.137Z</time></trkpt><trkpt lat="44.2077098" lon="11.510432"><ele>287.0</ele><time>2026-05-01T13:23:11.137Z</time></trkpt><trkpt lat="44.2077457" lon="11.5103548"><ele>287.3333333333333</ele><time>2026-05-01T13:23:13.136Z</time></trkpt><trkpt lat="44.2078063" lon="11.5102523"><ele>287.6666666666667</ele><time>2026-05-01T13:23:15.135Z</time></trkpt><trkpt lat="44.2078597" lon="11.5101307"><ele>288.0</ele><time>2026-05-01T13:23:17.135Z</time></trkpt><trkpt lat="44.2078633" lon="11.5100392"><ele>283.1666666666667</ele><time>2026-05-01T13:23:19.138Z</time></trkpt><trkpt lat="44.2078787" lon="11.5099307"><ele>278.3333333333333</ele><time>2026-05-01T13:23:23.134Z</time></trkpt><trkpt lat="44.2078932" lon="11.5098318"><ele>273.5</ele><time>2026-05-01T13:23:25.134Z</time></trkpt><trkpt lat="44.207911" lon="11.5097243"><ele>268.66666666666663</ele><time>2026-05-01T13:23:27.137Z</time></trkpt><trkpt lat="44.2079422" lon="11.509638"><ele>263.8333333333333</ele><time>2026-05-01T13:23:29.136Z</time></trkpt><trkpt lat="44.2080317" lon="11.5096093"><ele>259.0</ele><time>2026-05-01T13:23:31.136Z</time></trkpt><trkpt lat="44.2081447" lon="11.5096477"><ele>258.4</ele><time>2026-05-01T13:23:33.137Z</time></trkpt><trkpt lat="44.208205" lon="11.5097387"><ele>257.79999999999995</ele><time>2026-05-01T13:23:35.135Z</time></trkpt><trkpt lat="44.2082633" lon="11.5098628"><ele>257.20000000000005</ele><time>2026-05-01T13:23:37.137Z</time></trkpt><trkpt lat="44.208305" lon="11.5099568"><ele>256.6</ele><time>2026-05-01T13:23:38.135Z</time></trkpt><trkpt lat="44.2083547" lon="11.510065"><ele>256.0</ele><time>2026-05-01T13:23:39.137Z</time></trkpt><trkpt lat="44.2084257" lon="11.5101582"><ele>256.0</ele><time>2026-05-01T13:23:40.137Z</time></trkpt><trkpt lat="44.208505" lon="11.5102193"><ele>256.0</ele><time>2026-05-01T13:23:41.135Z</time></trkpt><trkpt lat="44.2085968" lon="11.5102385"><ele>256.0</ele><time>2026-05-01T13:23:42.136Z</time></trkpt><trkpt lat="44.2086995" lon="11.5102138"><ele>256.0</ele><time>2026-05-01T13:23:43.135Z</time></trkpt><trkpt lat="44.208804" lon="11.5101655"><ele>256.0</ele><time>2026-05-01T13:23:44.134Z</time></trkpt><trkpt lat="44.2089113" lon="11.5101043"><ele>255.0</ele><time>2026-05-01T13:23:45.135Z</time></trkpt><trkpt lat="44.2090152" lon="11.510034"><ele>254.0</ele><time>2026-05-01T13:23:46.134Z</time></trkpt><trkpt lat="44.2091095" lon="11.5099398"><ele>253.0</ele><time>2026-05-01T13:23:47.133Z</time></trkpt><trkpt lat="44.209199" lon="11.5098335"><ele>252.0</ele><time>2026-05-01T13:23:48.132Z</time></trkpt><trkpt lat="44.2092892" lon="11.5097248"><ele>252.0</ele><time>2026-05-01T13:23:49.133Z</time></trkpt><trkpt lat="44.2093788" lon="11.509615"><ele>252.0</ele><time>2026-05-01T13:23:50.133Z</time></trkpt><trkpt lat="44.2094622" lon="11.5095053"><ele>252.0</ele><time>2026-05-01T13:23:51.134Z</time></trkpt><trkpt lat="44.2095435" lon="11.5094"><ele>252.0</ele><time>2026-05-01T13:23:52.136Z</time></trkpt><trkpt lat="44.2096333" lon="11.509317"><ele>246.75</ele><time>2026-05-01T13:23:53.135Z</time></trkpt><trkpt lat="44.2097372" lon="11.5092705"><ele>241.5</ele><time>2026-05-01T13:23:54.135Z</time></trkpt><trkpt lat="44.2098532" lon="11.509258"><ele>236.25</ele><time>2026-05-01T13:23:55.135Z</time></trkpt><trkpt lat="44.2099763" lon="11.5092593"><ele>231.0</ele><time>2026-05-01T13:23:56.134Z</time></trkpt><trkpt lat="44.210104" lon="11.5092633"><ele>231.0</ele><time>2026-05-01T13:23:57.137Z</time></trkpt><trkpt lat="44.210233" lon="11.5092648"><ele>231.0</ele><time>2026-05-01T13:23:58.134Z</time></trkpt><trkpt lat="44.2103568" lon="11.509264"><ele>231.0</ele><time>2026-05-01T13:23:59.134Z</time></trkpt><trkpt lat="44.210475" lon="11.5092607"><ele>231.0</ele><time>2026-05-01T13:24:00.135Z</time></trkpt><trkpt lat="44.2105923" lon="11.5092617"><ele>231.25</ele><time>2026-05-01T13:24:01.134Z</time></trkpt><trkpt lat="44.2107078" lon="11.5092542"><ele>231.5</ele><time>2026-05-01T13:24:02.135Z</time></trkpt><trkpt lat="44.2108245" lon="11.5092367"><ele>231.75</ele><time>2026-05-01T13:24:03.135Z</time></trkpt><trkpt lat="44.2109395" lon="11.509212"><ele>232.0</ele><time>2026-05-01T13:24:04.135Z</time></trkpt><trkpt lat="44.2110557" lon="11.5091788"><ele>232.0</ele><time>2026-05-01T13:24:05.135Z</time></trkpt><trkpt lat="44.2111697" lon="11.5091445"><ele>232.0</ele><time>2026-05-01T13:24:06.134Z</time></trkpt><trkpt lat="44.211284" lon="11.5091233"><ele>232.0</ele><time>2026-05-01T13:24:07.142Z</time></trkpt><trkpt lat="44.2114003" lon="11.5091225"><ele>232.0</ele><time>2026-05-01T13:24:08.144Z</time></trkpt><trkpt lat="44.2115173" lon="11.509151"><ele>230.25</ele><time>2026-05-01T13:24:09.146Z</time></trkpt><trkpt lat="44.2116315" lon="11.5092002"><ele>228.5</ele><time>2026-05-01T13:24:10.145Z</time></trkpt><trkpt lat="44.2117468" lon="11.5092528"><ele>226.75</ele><time>2026-05-01T13:24:11.144Z</time></trkpt><trkpt lat="44.2118618" lon="11.5092965"><ele>225.0</ele><time>2026-05-01T13:24:12.143Z</time></trkpt><trkpt lat="44.2119797" lon="11.5093262"><ele>225.0</ele><time>2026-05-01T13:24:13.141Z</time></trkpt><trkpt lat="44.2121085" lon="11.5093462"><ele>225.0</ele><time>2026-05-01T13:24:14.142Z</time></trkpt><trkpt lat="44.2122403" lon="11.5093548"><ele>225.0</ele><time>2026-05-01T13:24:15.142Z</time></trkpt><trkpt lat="44.2123702" lon="11.5093532"><ele>225.0</ele><time>2026-05-01T13:24:16.146Z</time></trkpt><trkpt lat="44.2124968" lon="11.5093302"><ele>222.5</ele><time>2026-05-01T13:24:17.142Z</time></trkpt><trkpt lat="44.2126242" lon="11.5092942"><ele>220.0</ele><time>2026-05-01T13:24:18.144Z</time></trkpt><trkpt lat="44.2127505" lon="11.5092422"><ele>217.5</ele><time>2026-05-01T13:24:19.145Z</time></trkpt><trkpt lat="44.2128773" lon="11.5091865"><ele>215.0</ele><time>2026-05-01T13:24:20.142Z</time></trkpt><trkpt lat="44.2130027" lon="11.5091308"><ele>215.0</ele><time>2026-05-01T13:24:21.142Z</time></trkpt><trkpt lat="44.2131272" lon="11.5090742"><ele>215.0</ele><time>2026-05-01T13:24:22.143Z</time></trkpt><trkpt lat="44.2132497" lon="11.509018"><ele>215.0</ele><time>2026-05-01T13:24:23.141Z</time></trkpt><trkpt lat="44.2133737" lon="11.5089648"><ele>215.0</ele><time>2026-05-01T13:24:24.142Z</time></trkpt><trkpt lat="44.2134968" lon="11.508917"><ele>217.25</ele><time>2026-05-01T13:24:25.133Z</time></trkpt><trkpt lat="44.2136173" lon="11.508864"><ele>219.5</ele><time>2026-05-01T13:24:26.133Z</time></trkpt><trkpt lat="44.2137388" lon="11.508808"><ele>221.75</ele><time>2026-05-01T13:24:27.133Z</time></trkpt><trkpt lat="44.2138618" lon="11.5087397"><ele>224.0</ele><time>2026-05-01T13:24:28.133Z</time></trkpt><trkpt lat="44.2139818" lon="11.5086558"><ele>218.25</ele><time>2026-05-01T13:24:29.133Z</time></trkpt><trkpt lat="44.2140955" lon="11.5085682"><ele>212.5</ele><time>2026-05-01T13:24:30.133Z</time></trkpt><trkpt lat="44.2142047" lon="11.5084822"><ele>206.75</ele><time>2026-05-01T13:24:31.132Z</time></trkpt><trkpt lat="44.2143097" lon="11.5083975"><ele>201.0</ele><time>2026-05-01T13:24:32.135Z</time></trkpt><trkpt lat="44.2144097" lon="11.5083043"><ele>201.0</ele><time>2026-05-01T13:24:33.133Z</time></trkpt><trkpt lat="44.2145005" lon="11.508193"><ele>201.0</ele><time>2026-05-01T13:24:34.134Z</time></trkpt><trkpt lat="44.2145788" lon="11.50806"><ele>201.0</ele><time>2026-05-01T13:24:35.134Z</time></trkpt><trkpt lat="44.2146477" lon="11.5079225"><ele>201.0</ele><time>2026-05-01T13:24:36.135Z</time></trkpt><trkpt lat="44.2147122" lon="11.5077895"><ele>197.8</ele><time>2026-05-01T13:24:37.133Z</time></trkpt><trkpt lat="44.214786" lon="11.5076748"><ele>194.60000000000002</ele><time>2026-05-01T13:24:38.133Z</time></trkpt><trkpt lat="44.2148747" lon="11.5075927"><ele>191.4</ele><time>2026-05-01T13:24:39.134Z</time></trkpt><trkpt lat="44.2149717" lon="11.5075525"><ele>188.2</ele><time>2026-05-01T13:24:40.136Z</time></trkpt><trkpt lat="44.2150693" lon="11.5075575"><ele>185.0</ele><time>2026-05-01T13:24:41.137Z</time></trkpt><trkpt lat="44.215166" lon="11.5075955"><ele>185.0</ele><time>2026-05-01T13:24:42.135Z</time></trkpt><trkpt lat="44.2152622" lon="11.5076558"><ele>185.0</ele><time>2026-05-01T13:24:43.133Z</time></trkpt><trkpt lat="44.215352" lon="11.5077228"><ele>185.0</ele><time>2026-05-01T13:24:44.133Z</time></trkpt><trkpt lat="44.2154382" lon="11.5077897"><ele>185.0</ele><time>2026-05-01T13:24:45.134Z</time></trkpt><trkpt lat="44.215525" lon="11.507846"><ele>185.0</ele><time>2026-05-01T13:24:46.135Z</time></trkpt><trkpt lat="44.2156142" lon="11.507875"><ele>185.33333333333331</ele><time>2026-05-01T13:24:47.135Z</time></trkpt><trkpt lat="44.2157018" lon="11.507862"><ele>185.66666666666666</ele><time>2026-05-01T13:24:48.137Z</time></trkpt><trkpt lat="44.2157808" lon="11.5078087"><ele>186.0</ele><time>2026-05-01T13:24:49.135Z</time></trkpt><trkpt lat="44.2158387" lon="11.5077222"><ele>186.33333333333334</ele><time>2026-05-01T13:24:50.135Z</time></trkpt><trkpt lat="44.2158628" lon="11.507614"><ele>186.66666666666669</ele><time>2026-05-01T13:24:51.135Z</time></trkpt><trkpt lat="44.21586" lon="11.507503"><ele>187.0</ele><time>2026-05-01T13:24:52.135Z</time></trkpt><trkpt lat="44.2158395" lon="11.5074037"><ele>187.0</ele><time>2026-05-01T13:24:53.136Z</time></trkpt><trkpt lat="44.2158032" lon="11.5073208"><ele>187.0</ele><time>2026-05-01T13:24:54.134Z</time></trkpt><trkpt lat="44.2157527" lon="11.5072602"><ele>187.0</ele><time>2026-05-01T13:24:55.134Z</time></trkpt><trkpt lat="44.2156425" lon="11.5072185"><ele>187.0</ele><time>2026-05-01T13:24:57.138Z</time></trkpt><trkpt lat="44.2155463" lon="11.507193"><ele>187.0</ele><time>2026-05-01T13:24:59.136Z</time></trkpt><trkpt lat="44.2154705" lon="11.5071308"><ele>187.0</ele><time>2026-05-01T13:25:01.133Z</time></trkpt><trkpt lat="44.2154108" lon="11.5070547"><ele>184.33333333333334</ele><time>2026-05-01T13:25:03.133Z</time></trkpt><trkpt lat="44.2153572" lon="11.5069902"><ele>181.66666666666669</ele><time>2026-05-01T13:25:05.135Z</time></trkpt><trkpt lat="44.2152868" lon="11.5069213"><ele>179.0</ele><time>2026-05-01T13:25:08.135Z</time></trkpt><trkpt lat="44.2152358" lon="11.5068593"><ele>176.33333333333334</ele><time>2026-05-01T13:25:10.135Z</time></trkpt><trkpt lat="44.2151675" lon="11.5067772"><ele>173.66666666666666</ele><time>2026-05-01T13:25:12.134Z</time></trkpt><trkpt lat="44.215087" lon="11.5066707"><ele>171.0</ele><time>2026-05-01T13:25:14.132Z</time></trkpt><trkpt lat="44.214999" lon="11.5065557"><ele>171.0</ele><time>2026-05-01T13:25:16.135Z</time></trkpt><trkpt lat="44.2149038" lon="11.5064432"><ele>171.0</ele><time>2026-05-01T13:25:18.136Z</time></trkpt><trkpt lat="44.2148295" lon="11.5063495"><ele>171.0</ele><time>2026-05-01T13:25:20.136Z</time></trkpt><trkpt lat="44.2147638" lon="11.5062768"><ele>171.0</ele><time>2026-05-01T13:25:37.136Z</time></trkpt><trkpt lat="44.2147047" lon="11.5062112"><ele>171.0</ele><time>2026-05-01T13:25:39.138Z</time></trkpt><trkpt lat="44.2146188" lon="11.50608"><ele>174.16666666666666</ele><time>2026-05-01T13:25:41.137Z</time></trkpt><trkpt lat="44.2145653" lon="11.5060122"><ele>177.33333333333334</ele><time>2026-05-01T13:25:42.136Z</time></trkpt><trkpt lat="44.2145115" lon="11.5059652"><ele>180.5</ele><time>2026-05-01T13:25:43.136Z</time></trkpt><trkpt lat="44.2144088" lon="11.5059863"><ele>183.66666666666669</ele><time>2026-05-01T13:25:45.136Z</time></trkpt><trkpt lat="44.2143105" lon="11.506098"><ele>186.83333333333334</ele><time>2026-05-01T13:25:47.135Z</time></trkpt><trkpt lat="44.2142497" lon="11.506145"><ele>190.0</ele><time>2026-05-01T13:25:48.139Z</time></trkpt><trkpt lat="44.2141788" lon="11.5061748"><ele>190.0</ele><time>2026-05-01T13:25:49.133Z</time></trkpt><trkpt lat="44.214106" lon="11.5061978"><ele>190.0</ele><time>2026-05-01T13:25:50.131Z</time></trkpt><trkpt lat="44.21403" lon="11.506224"><ele>190.0</ele><time>2026-05-01T13:25:51.133Z</time></trkpt><trkpt lat="44.2139578" lon="11.5062633"><ele>190.0</ele><time>2026-05-01T13:25:52.133Z</time></trkpt><trkpt lat="44.2138915" lon="11.506316"><ele>190.0</ele><time>2026-05-01T13:25:53.131Z</time></trkpt><trkpt lat="44.213834" lon="11.5063727"><ele>190.0</ele><time>2026-05-01T13:25:54.135Z</time></trkpt><trkpt lat="44.2137812" lon="11.5064233"><ele>190.0</ele><time>2026-05-01T13:25:55.136Z</time></trkpt><trkpt lat="44.2137255" lon="11.5064652"><ele>189.14285714285714</ele><time>2026-05-01T13:25:56.136Z</time></trkpt><trkpt lat="44.2136667" lon="11.5065015"><ele>188.28571428571428</ele><time>2026-05-01T13:25:57.137Z</time></trkpt><trkpt lat="44.2136035" lon="11.5065322"><ele>187.42857142857144</ele><time>2026-05-01T13:25:58.137Z</time></trkpt><trkpt lat="44.2135393" lon="11.5065667"><ele>186.57142857142856</ele><time>2026-05-01T13:25:59.136Z</time></trkpt><trkpt lat="44.2134737" lon="11.506604"><ele>185.7142857142857</ele><time>2026-05-01T13:26:00.136Z</time></trkpt><trkpt lat="44.213409" lon="11.5066312"><ele>184.85714285714286</ele><time>2026-05-01T13:26:01.137Z</time></trkpt><trkpt lat="44.2133453" lon="11.5066387"><ele>184.0</ele><time>2026-05-01T13:26:02.14Z</time></trkpt><trkpt lat="44.2132405" lon="11.5065785"><ele>184.0</ele><time>2026-05-01T13:26:04.136Z</time></trkpt><trkpt lat="44.21323" lon="11.5064285"><ele>184.0</ele><time>2026-05-01T13:26:06.137Z</time></trkpt><trkpt lat="44.2132725" lon="11.5063623"><ele>184.0</ele><time>2026-05-01T13:26:07.136Z</time></trkpt><trkpt lat="44.213341" lon="11.5063062"><ele>184.0</ele><time>2026-05-01T13:26:08.136Z</time></trkpt><trkpt lat="44.2134197" lon="11.5062592"><ele>184.0</ele><time>2026-05-01T13:26:09.135Z</time></trkpt><trkpt lat="44.2134995" lon="11.5062173"><ele>184.0</ele><time>2026-05-01T13:26:10.136Z</time></trkpt><trkpt lat="44.2135835" lon="11.5061788"><ele>185.0</ele><time>2026-05-01T13:26:11.136Z</time></trkpt><trkpt lat="44.2136692" lon="11.5061373"><ele>186.0</ele><time>2026-05-01T13:26:12.136Z</time></trkpt><trkpt lat="44.2137567" lon="11.5060955"><ele>187.0</ele><time>2026-05-01T13:26:13.136Z</time></trkpt><trkpt lat="44.213845" lon="11.5060572"><ele>188.0</ele><time>2026-05-01T13:26:14.134Z</time></trkpt><trkpt lat="44.2139292" lon="11.5060152"><ele>189.0</ele><time>2026-05-01T13:26:15.135Z</time></trkpt><trkpt lat="44.2140038" lon="11.5059778"><ele>190.0</ele><time>2026-05-01T13:26:16.134Z</time></trkpt><trkpt lat="44.2140682" lon="11.5059408"><ele>190.0</ele><time>2026-05-01T13:26:17.134Z</time></trkpt><trkpt lat="44.2141717" lon="11.5058598"><ele>190.0</ele><time>2026-05-01T13:26:19.138Z</time></trkpt><trkpt lat="44.214244" lon="11.5057632"><ele>190.0</ele><time>2026-05-01T13:26:21.136Z</time></trkpt><trkpt lat="44.2142067" lon="11.505657"><ele>190.0</ele><time>2026-05-01T13:26:23.136Z</time></trkpt><trkpt lat="44.2140733" lon="11.5056195"><ele>190.0</ele><time>2026-05-01T13:26:25.136Z</time></trkpt><trkpt lat="44.2139915" lon="11.5056082"><ele>191.33333333333334</ele><time>2026-05-01T13:26:26.135Z</time></trkpt><trkpt lat="44.213906" lon="11.5056008"><ele>192.66666666666669</ele><time>2026-05-01T13:26:27.135Z</time></trkpt><trkpt lat="44.2138178" lon="11.5055975"><ele>194.0</ele><time>2026-05-01T13:26:28.135Z</time></trkpt><trkpt lat="44.2137293" lon="11.5055973"><ele>195.33333333333334</ele><time>2026-05-01T13:26:29.136Z</time></trkpt><trkpt lat="44.2136417" lon="11.5055992"><ele>196.66666666666666</ele><time>2026-05-01T13:26:30.134Z</time></trkpt><trkpt lat="44.2135552" lon="11.5056037"><ele>198.0</ele><time>2026-05-01T13:26:31.135Z</time></trkpt><trkpt lat="44.2134658" lon="11.5056063"><ele>198.0</ele><time>2026-05-01T13:26:32.135Z</time></trkpt><trkpt lat="44.2133757" lon="11.5056062"><ele>198.0</ele><time>2026-05-01T13:26:33.133Z</time></trkpt><trkpt lat="44.2132872" lon="11.5056062"><ele>198.0</ele><time>2026-05-01T13:26:34.134Z</time></trkpt><trkpt lat="44.2131987" lon="11.5056027"><ele>198.0</ele><time>2026-05-01T13:26:35.135Z</time></trkpt><trkpt lat="44.2131113" lon="11.5056038"><ele>198.0</ele><time>2026-05-01T13:26:36.134Z</time></trkpt><trkpt lat="44.213025" lon="11.5056002"><ele>198.0</ele><time>2026-05-01T13:26:37.135Z</time></trkpt><trkpt lat="44.2129402" lon="11.5055972"><ele>199.0</ele><time>2026-05-01T13:26:38.135Z</time></trkpt><trkpt lat="44.2128555" lon="11.5055935"><ele>200.0</ele><time>2026-05-01T13:26:39.133Z</time></trkpt><trkpt lat="44.2127727" lon="11.505592"><ele>201.0</ele><time>2026-05-01T13:26:40.133Z</time></trkpt><trkpt lat="44.2126918" lon="11.5055948"><ele>202.0</ele><time>2026-05-01T13:26:41.133Z</time></trkpt><trkpt lat="44.212613" lon="11.5055928"><ele>203.0</ele><time>2026-05-01T13:26:42.135Z</time></trkpt><trkpt lat="44.2125425" lon="11.5055773"><ele>204.0</ele><time>2026-05-01T13:26:43.136Z</time></trkpt><trkpt lat="44.21247" lon="11.5054612"><ele>205.83333333333334</ele><time>2026-05-01T13:26:45.134Z</time></trkpt><trkpt lat="44.2125168" lon="11.5053145"><ele>207.66666666666669</ele><time>2026-05-01T13:26:47.134Z</time></trkpt><trkpt lat="44.2125748" lon="11.5052712"><ele>209.5</ele><time>2026-05-01T13:26:48.135Z</time></trkpt><trkpt lat="44.212644" lon="11.5052425"><ele>211.33333333333334</ele><time>2026-05-01T13:26:49.134Z</time></trkpt><trkpt lat="44.2127198" lon="11.5052148"><ele>213.16666666666669</ele><time>2026-05-01T13:26:50.135Z</time></trkpt><trkpt lat="44.2127995" lon="11.5051845"><ele>215.0</ele><time>2026-05-01T13:26:51.135Z</time></trkpt><trkpt lat="44.2128822" lon="11.5051507"><ele>215.00000000000003</ele><time>2026-05-01T13:26:52.135Z</time></trkpt><trkpt lat="44.2129675" lon="11.5051268"><ele>215.0</ele><time>2026-05-01T13:26:53.135Z</time></trkpt><trkpt lat="44.2130427" lon="11.5050852"><ele>215.0</ele><time>2026-05-01T13:26:54.134Z</time></trkpt><trkpt lat="44.2131142" lon="11.505043"><ele>215.0</ele><time>2026-05-01T13:26:55.134Z</time></trkpt><trkpt lat="44.213186" lon="11.5050035"><ele>215.00000000000003</ele><time>2026-05-01T13:26:56.135Z</time></trkpt><trkpt lat="44.2132588" lon="11.5049702"><ele>215.0</ele><time>2026-05-01T13:26:57.135Z</time></trkpt><trkpt lat="44.2133292" lon="11.5049522"><ele>214.6</ele><time>2026-05-01T13:26:58.135Z</time></trkpt><trkpt lat="44.2133925" lon="11.5049422"><ele>214.2</ele><time>2026-05-01T13:26:59.135Z</time></trkpt><trkpt lat="44.2134853" lon="11.5049082"><ele>213.8</ele><time>2026-05-01T13:27:01.138Z</time></trkpt><trkpt lat="44.2135308" lon="11.5048385"><ele>213.4</ele><time>2026-05-01T13:27:03.135Z</time></trkpt><trkpt lat="44.2134685" lon="11.5047432"><ele>213.0</ele><time>2026-05-01T13:27:06.137Z</time></trkpt><trkpt lat="44.2133335" lon="11.5047298"><ele>213.0</ele><time>2026-05-01T13:27:08.135Z</time></trkpt><trkpt lat="44.2132495" lon="11.5047257"><ele>213.0</ele><time>2026-05-01T13:27:09.137Z</time></trkpt><trkpt lat="44.21316" lon="11.5047225"><ele>213.0</ele><time>2026-05-01T13:27:10.137Z</time></trkpt><trkpt lat="44.2130682" lon="11.5047183"><ele>213.0</ele><time>2026-05-01T13:27:11.136Z</time></trkpt><trkpt lat="44.2129773" lon="11.5047152"><ele>213.0</ele><time>2026-05-01T13:27:12.136Z</time></trkpt><trkpt lat="44.2128867" lon="11.5047122"><ele>213.0</ele><time>2026-05-01T13:27:13.134Z</time></trkpt><trkpt lat="44.2127967" lon="11.5047097"><ele>213.33333333333334</ele><time>2026-05-01T13:27:14.133Z</time></trkpt><trkpt lat="44.2127102" lon="11.5047107"><ele>213.66666666666669</ele><time>2026-05-01T13:27:15.134Z</time></trkpt><trkpt lat="44.2126242" lon="11.5047192"><ele>214.0</ele><time>2026-05-01T13:27:16.135Z</time></trkpt><trkpt lat="44.212538" lon="11.504734"><ele>214.33333333333334</ele><time>2026-05-01T13:27:17.135Z</time></trkpt><trkpt lat="44.2124542" lon="11.5047558"><ele>214.66666666666669</ele><time>2026-05-01T13:27:18.137Z</time></trkpt><trkpt lat="44.2123697" lon="11.5047792"><ele>215.0</ele><time>2026-05-01T13:27:19.136Z</time></trkpt><trkpt lat="44.2122852" lon="11.5048033"><ele>216.0</ele><time>2026-05-01T13:27:20.137Z</time></trkpt><trkpt lat="44.2121988" lon="11.5048217"><ele>217.0</ele><time>2026-05-01T13:27:21.138Z</time></trkpt><trkpt lat="44.2121102" lon="11.5048287"><ele>218.0</ele><time>2026-05-01T13:27:22.137Z</time></trkpt><trkpt lat="44.2120185" lon="11.504829"><ele>219.0</ele><time>2026-05-01T13:27:23.136Z</time></trkpt><trkpt lat="44.2119242" lon="11.5048258"><ele>220.0</ele><time>2026-05-01T13:27:24.156Z</time></trkpt><trkpt lat="44.2118282" lon="11.504816"><ele>220.0</ele><time>2026-05-01T13:27:25.155Z</time></trkpt><trkpt lat="44.2117305" lon="11.5047938"><ele>220.0</ele><time>2026-05-01T13:27:26.137Z</time></trkpt><trkpt lat="44.211631" lon="11.5047587"><ele>220.0</ele><time>2026-05-01T13:27:27.137Z</time></trkpt><trkpt lat="44.2115313" lon="11.504713"><ele>220.0</ele><time>2026-05-01T13:27:28.136Z</time></trkpt><trkpt lat="44.21143" lon="11.5046673"><ele>220.0</ele><time>2026-05-01T13:27:29.134Z</time></trkpt><trkpt lat="44.2113282" lon="11.5046185"><ele>221.0</ele><time>2026-05-01T13:27:30.135Z</time></trkpt><trkpt lat="44.2112228" lon="11.5045748"><ele>222.0</ele><time>2026-05-01T13:27:31.134Z</time></trkpt><trkpt lat="44.2111185" lon="11.504529"><ele>223.0</ele><time>2026-05-01T13:27:32.138Z</time></trkpt><trkpt lat="44.2110158" lon="11.5044823"><ele>224.0</ele><time>2026-05-01T13:27:33.137Z</time></trkpt><trkpt lat="44.210914" lon="11.504436"><ele>225.0</ele><time>2026-05-01T13:27:34.14Z</time></trkpt><trkpt lat="44.2108118" lon="11.5043895"><ele>225.0</ele><time>2026-05-01T13:27:35.137Z</time></trkpt><trkpt lat="44.2107088" lon="11.5043418"><ele>225.0</ele><time>2026-05-01T13:27:36.138Z</time></trkpt><trkpt lat="44.2106042" lon="11.5042937"><ele>225.0</ele><time>2026-05-01T13:27:37.138Z</time></trkpt><trkpt lat="44.2104983" lon="11.5042438"><ele>225.0</ele><time>2026-05-01T13:27:38.137Z</time></trkpt><trkpt lat="44.2103915" lon="11.5041937"><ele>225.0</ele><time>2026-05-01T13:27:39.138Z</time></trkpt><trkpt lat="44.2102823" lon="11.5041448"><ele>225.75</ele><time>2026-05-01T13:27:40.137Z</time></trkpt><trkpt lat="44.2101718" lon="11.5040958"><ele>226.5</ele><time>2026-05-01T13:27:41.137Z</time></trkpt><trkpt lat="44.2100602" lon="11.5040458"><ele>227.25</ele><time>2026-05-01T13:27:42.138Z</time></trkpt><trkpt lat="44.2099485" lon="11.5039972"><ele>228.0</ele><time>2026-05-01T13:27:43.138Z</time></trkpt><trkpt lat="44.209837" lon="11.5039463"><ele>228.0</ele><time>2026-05-01T13:27:44.139Z</time></trkpt><trkpt lat="44.209725" lon="11.5038943"><ele>228.0</ele><time>2026-05-01T13:27:45.138Z</time></trkpt><trkpt lat="44.2096127" lon="11.5038412"><ele>228.0</ele><time>2026-05-01T13:27:46.139Z</time></trkpt><trkpt lat="44.2095078" lon="11.5037932"><ele>228.0</ele><time>2026-05-01T13:27:47.137Z</time></trkpt><trkpt lat="44.2094228" lon="11.5037472"><ele>228.0</ele><time>2026-05-01T13:27:48.137Z</time></trkpt><trkpt lat="44.2093588" lon="11.5036833"><ele>228.0</ele><time>2026-05-01T13:27:49.139Z</time></trkpt><trkpt lat="44.2093188" lon="11.5036017"><ele>228.0</ele><time>2026-05-01T13:27:50.137Z</time></trkpt><trkpt lat="44.2092963" lon="11.5035045"><ele>228.0</ele><time>2026-05-01T13:27:51.137Z</time></trkpt><trkpt lat="44.2092867" lon="11.5033955"><ele>228.0</ele><time>2026-05-01T13:27:52.136Z</time></trkpt><trkpt lat="44.2092818" lon="11.5032813"><ele>228.0</ele><time>2026-05-01T13:27:53.133Z</time></trkpt><trkpt lat="44.2092738" lon="11.5031663"><ele>228.0</ele><time>2026-05-01T13:27:54.133Z</time></trkpt><trkpt lat="44.209262" lon="11.5030538"><ele>228.0</ele><time>2026-05-01T13:27:55.133Z</time></trkpt><trkpt lat="44.209251" lon="11.5029437"><ele>228.0</ele><time>2026-05-01T13:27:56.134Z</time></trkpt><trkpt lat="44.2092542" lon="11.5028352"><ele>228.0</ele><time>2026-05-01T13:27:57.136Z</time></trkpt><trkpt lat="44.2092788" lon="11.5027313"><ele>228.0</ele><time>2026-05-01T13:27:58.135Z</time></trkpt><trkpt lat="44.2093205" lon="11.5026325"><ele>228.0</ele><time>2026-05-01T13:27:59.135Z</time></trkpt><trkpt lat="44.209364" lon="11.5025382"><ele>228.0</ele><time>2026-05-01T13:28:00.134Z</time></trkpt><trkpt lat="44.2094098" lon="11.5024568"><ele>229.4</ele><time>2026-05-01T13:28:01.135Z</time></trkpt><trkpt lat="44.209514" lon="11.5023877"><ele>230.8</ele><time>2026-05-01T13:28:03.135Z</time></trkpt><trkpt lat="44.2096247" lon="11.502404"><ele>232.2</ele><time>2026-05-01T13:28:05.134Z</time></trkpt><trkpt lat="44.2097445" lon="11.5023152"><ele>233.6</ele><time>2026-05-01T13:28:07.135Z</time></trkpt><trkpt lat="44.2098123" lon="11.5022518"><ele>235.0</ele><time>2026-05-01T13:28:08.136Z</time></trkpt><trkpt lat="44.2098852" lon="11.5021822"><ele>236.33333333333331</ele><time>2026-05-01T13:28:09.134Z</time></trkpt><trkpt lat="44.2099587" lon="11.502112"><ele>237.66666666666666</ele><time>2026-05-01T13:28:10.136Z</time></trkpt><trkpt lat="44.2100312" lon="11.502042"><ele>239.0</ele><time>2026-05-01T13:28:11.134Z</time></trkpt><trkpt lat="44.2101042" lon="11.5019783"><ele>240.33333333333331</ele><time>2026-05-01T13:28:12.135Z</time></trkpt><trkpt lat="44.2101797" lon="11.501918"><ele>241.66666666666666</ele><time>2026-05-01T13:28:13.139Z</time></trkpt><trkpt lat="44.2102513" lon="11.5018575"><ele>243.0</ele><time>2026-05-01T13:28:14.133Z</time></trkpt><trkpt lat="44.2103235" lon="11.5017987"><ele>246.0</ele><time>2026-05-01T13:28:15.134Z</time></trkpt><trkpt lat="44.2103955" lon="11.501736"><ele>249.0</ele><time>2026-05-01T13:28:16.135Z</time></trkpt><trkpt lat="44.2104687" lon="11.5016672"><ele>252.0</ele><time>2026-05-01T13:28:17.141Z</time></trkpt><trkpt lat="44.2105405" lon="11.501598"><ele>255.0</ele><time>2026-05-01T13:28:18.14Z</time></trkpt><trkpt lat="44.2106105" lon="11.501525"><ele>258.0</ele><time>2026-05-01T13:28:19.13Z</time></trkpt><trkpt lat="44.2106857" lon="11.5014642"><ele>261.0</ele><time>2026-05-01T13:28:20.13Z</time></trkpt><trkpt lat="44.2107605" lon="11.5014065"><ele>261.0</ele><time>2026-05-01T13:28:21.132Z</time></trkpt><trkpt lat="44.2108365" lon="11.5013468"><ele>261.0</ele><time>2026-05-01T13:28:22.133Z</time></trkpt><trkpt lat="44.2109103" lon="11.5012762"><ele>261.0</ele><time>2026-05-01T13:28:23.132Z</time></trkpt><trkpt lat="44.2109847" lon="11.5012033"><ele>261.0</ele><time>2026-05-01T13:28:24.133Z</time></trkpt><trkpt lat="44.211058" lon="11.5011332"><ele>261.0</ele><time>2026-05-01T13:28:25.132Z</time></trkpt><trkpt lat="44.2111285" lon="11.5010733"><ele>261.0</ele><time>2026-05-01T13:28:26.132Z</time></trkpt><trkpt lat="44.2112063" lon="11.5010178"><ele>266.1666666666667</ele><time>2026-05-01T13:28:27.133Z</time></trkpt><trkpt lat="44.21128" lon="11.5009498"><ele>271.3333333333333</ele><time>2026-05-01T13:28:28.134Z</time></trkpt><trkpt lat="44.2113415" lon="11.5008618"><ele>276.5</ele><time>2026-05-01T13:28:29.133Z</time></trkpt><trkpt lat="44.211387" lon="11.5007607"><ele>281.66666666666663</ele><time>2026-05-01T13:28:30.133Z</time></trkpt><trkpt lat="44.2114272" lon="11.500651"><ele>286.8333333333333</ele><time>2026-05-01T13:28:31.133Z</time></trkpt><trkpt lat="44.2114662" lon="11.5005295"><ele>292.0</ele><time>2026-05-01T13:28:32.133Z</time></trkpt><trkpt lat="44.2115077" lon="11.5004283"><ele>292.3333333333333</ele><time>2026-05-01T13:28:33.132Z</time></trkpt><trkpt lat="44.2115658" lon="11.5003625"><ele>292.66666666666663</ele><time>2026-05-01T13:28:34.134Z</time></trkpt><trkpt lat="44.2116852" lon="11.5003552"><ele>293.0</ele><time>2026-05-01T13:28:36.134Z</time></trkpt><trkpt lat="44.2117518" lon="11.5003937"><ele>293.3333333333333</ele><time>2026-05-01T13:28:37.132Z</time></trkpt><trkpt lat="44.211824" lon="11.500426"><ele>293.6666666666667</ele><time>2026-05-01T13:28:38.131Z</time></trkpt><trkpt lat="44.2119197" lon="11.5004408"><ele>294.0</ele><time>2026-05-01T13:28:40.133Z</time></trkpt><trkpt lat="44.2119718" lon="11.5003888"><ele>298.3333333333333</ele><time>2026-05-01T13:28:42.131Z</time></trkpt><trkpt lat="44.2119512" lon="11.5002867"><ele>302.6666666666667</ele><time>2026-05-01T13:28:44.132Z</time></trkpt><trkpt lat="44.2118618" lon="11.5001977"><ele>307.0</ele><time>2026-05-01T13:28:46.134Z</time></trkpt><trkpt lat="44.211817" lon="11.50013"><ele>311.33333333333337</ele><time>2026-05-01T13:28:47.134Z</time></trkpt><trkpt lat="44.2117795" lon="11.5000505"><ele>315.6666666666667</ele><time>2026-05-01T13:28:48.133Z</time></trkpt><trkpt lat="44.2117468" lon="11.499963"><ele>320.0</ele><time>2026-05-01T13:28:49.134Z</time></trkpt><trkpt lat="44.211712" lon="11.4998812"><ele>320.0</ele><time>2026-05-01T13:28:50.134Z</time></trkpt><trkpt lat="44.2116648" lon="11.4998117"><ele>320.0</ele><time>2026-05-01T13:28:51.134Z</time></trkpt><trkpt lat="44.2116052" lon="11.4997648"><ele>320.0</ele><time>2026-05-01T13:28:52.134Z</time></trkpt><trkpt lat="44.211535" lon="11.4997477"><ele>320.0</ele><time>2026-05-01T13:28:53.134Z</time></trkpt><trkpt lat="44.2114613" lon="11.4997605"><ele>320.0</ele><time>2026-05-01T13:28:54.134Z</time></trkpt><trkpt lat="44.2113912" lon="11.4997845"><ele>320.0</ele><time>2026-05-01T13:28:55.134Z</time></trkpt><trkpt lat="44.2113257" lon="11.4997908"><ele>320.0</ele><time>2026-05-01T13:28:56.134Z</time></trkpt><trkpt lat="44.2112407" lon="11.4996948"><ele>317.5</ele><time>2026-05-01T13:28:58.135Z</time></trkpt><trkpt lat="44.2112372" lon="11.499606"><ele>315.0</ele><time>2026-05-01T13:28:59.135Z</time></trkpt><trkpt lat="44.2112473" lon="11.4995043"><ele>312.5</ele><time>2026-05-01T13:29:00.135Z</time></trkpt><trkpt lat="44.2112623" lon="11.4993947"><ele>310.0</ele><time>2026-05-01T13:29:01.136Z</time></trkpt><trkpt lat="44.2112798" lon="11.499279"><ele>307.5</ele><time>2026-05-01T13:29:02.135Z</time></trkpt><trkpt lat="44.2113068" lon="11.4991613"><ele>305.0</ele><time>2026-05-01T13:29:03.135Z</time></trkpt><trkpt lat="44.2113457" lon="11.4990465"><ele>304.5</ele><time>2026-05-01T13:29:04.136Z</time></trkpt><trkpt lat="44.2113948" lon="11.4989417"><ele>304.0</ele><time>2026-05-01T13:29:05.134Z</time></trkpt><trkpt lat="44.211455" lon="11.4988567"><ele>303.5</ele><time>2026-05-01T13:29:06.134Z</time></trkpt><trkpt lat="44.2115267" lon="11.4987935"><ele>303.0</ele><time>2026-05-01T13:29:07.133Z</time></trkpt><trkpt lat="44.2116057" lon="11.498745"><ele>302.5</ele><time>2026-05-01T13:29:08.134Z</time></trkpt><trkpt lat="44.21169" lon="11.4986988"><ele>302.0</ele><time>2026-05-01T13:29:09.133Z</time></trkpt><trkpt lat="44.2117743" lon="11.4986487"><ele>308.1666666666667</ele><time>2026-05-01T13:29:10.136Z</time></trkpt><trkpt lat="44.2118548" lon="11.4985933"><ele>314.33333333333337</ele><time>2026-05-01T13:29:11.135Z</time></trkpt><trkpt lat="44.2119293" lon="11.4985307"><ele>320.5</ele><time>2026-05-01T13:29:12.138Z</time></trkpt><trkpt lat="44.2119977" lon="11.4984627"><ele>326.6666666666667</ele><time>2026-05-01T13:29:13.133Z</time></trkpt><trkpt lat="44.2120598" lon="11.4983912"><ele>332.8333333333333</ele><time>2026-05-01T13:29:14.133Z</time></trkpt><trkpt lat="44.2121093" lon="11.4983033"><ele>339.0</ele><time>2026-05-01T13:29:15.134Z</time></trkpt><trkpt lat="44.2121532" lon="11.498201"><ele>339.0</ele><time>2026-05-01T13:29:16.133Z</time></trkpt><trkpt lat="44.2121863" lon="11.4980845"><ele>339.0</ele><time>2026-05-01T13:29:17.132Z</time></trkpt><trkpt lat="44.212204" lon="11.497964"><ele>339.0</ele><time>2026-05-01T13:29:18.133Z</time></trkpt><trkpt lat="44.2122023" lon="11.4978465"><ele>339.0</ele><time>2026-05-01T13:29:19.133Z</time></trkpt><trkpt lat="44.2121937" lon="11.4977328"><ele>339.0</ele><time>2026-05-01T13:29:20.131Z</time></trkpt><trkpt lat="44.212199" lon="11.4976242"><ele>339.0</ele><time>2026-05-01T13:29:21.133Z</time></trkpt><trkpt lat="44.212223" lon="11.4975157"><ele>339.8333333333333</ele><time>2026-05-01T13:29:22.134Z</time></trkpt><trkpt lat="44.2122652" lon="11.4974267"><ele>340.6666666666667</ele><time>2026-05-01T13:29:23.134Z</time></trkpt><trkpt lat="44.212328" lon="11.4973498"><ele>341.5</ele><time>2026-05-01T13:29:24.134Z</time></trkpt><trkpt lat="44.2124003" lon="11.4972777"><ele>342.33333333333337</ele><time>2026-05-01T13:29:25.135Z</time></trkpt><trkpt lat="44.2124812" lon="11.4972022"><ele>343.1666666666667</ele><time>2026-05-01T13:29:26.134Z</time></trkpt><trkpt lat="44.2125718" lon="11.4971353"><ele>344.0</ele><time>2026-05-01T13:29:27.136Z</time></trkpt><trkpt lat="44.212664" lon="11.4970713"><ele>344.0</ele><time>2026-05-01T13:29:28.136Z</time></trkpt><trkpt lat="44.2127442" lon="11.4970038"><ele>344.0</ele><time>2026-05-01T13:29:29.135Z</time></trkpt><trkpt lat="44.2128187" lon="11.4969195"><ele>344.0</ele><time>2026-05-01T13:29:30.135Z</time></trkpt><trkpt lat="44.2128962" lon="11.4968245"><ele>344.0</ele><time>2026-05-01T13:29:31.133Z</time></trkpt><trkpt lat="44.2129747" lon="11.496724"><ele>344.0</ele><time>2026-05-01T13:29:32.133Z</time></trkpt><trkpt lat="44.2130487" lon="11.4966148"><ele>344.0</ele><time>2026-05-01T13:29:33.133Z</time></trkpt><trkpt lat="44.2131182" lon="11.4964983"><ele>344.0</ele><time>2026-05-01T13:29:34.136Z</time></trkpt><trkpt lat="44.2131817" lon="11.4963703"><ele>344.0</ele><time>2026-05-01T13:29:35.134Z</time></trkpt><trkpt lat="44.2132457" lon="11.4962463"><ele>344.0</ele><time>2026-05-01T13:29:36.134Z</time></trkpt><trkpt lat="44.2133112" lon="11.4961423"><ele>344.0</ele><time>2026-05-01T13:29:37.136Z</time></trkpt><trkpt lat="44.2133743" lon="11.4960552"><ele>346.8571428571429</ele><time>2026-05-01T13:29:38.134Z</time></trkpt><trkpt lat="44.2134352" lon="11.4959838"><ele>349.7142857142857</ele><time>2026-05-01T13:29:39.137Z</time></trkpt><trkpt lat="44.2134947" lon="11.4959195"><ele>352.57142857142856</ele><time>2026-05-01T13:29:40.135Z</time></trkpt><trkpt lat="44.2135582" lon="11.4958508"><ele>355.42857142857144</ele><time>2026-05-01T13:29:41.134Z</time></trkpt><trkpt lat="44.2136132" lon="11.4957867"><ele>358.2857142857143</ele><time>2026-05-01T13:29:42.135Z</time></trkpt><trkpt lat="44.213663" lon="11.4957158"><ele>361.14285714285717</ele><time>2026-05-01T13:29:43.134Z</time></trkpt><trkpt lat="44.213707" lon="11.4956385"><ele>364.0</ele><time>2026-05-01T13:29:44.133Z</time></trkpt><trkpt lat="44.2137588" lon="11.4955587"><ele>364.0</ele><time>2026-05-01T13:29:45.133Z</time></trkpt><trkpt lat="44.2138213" lon="11.4954942"><ele>364.0</ele><time>2026-05-01T13:29:46.133Z</time></trkpt><trkpt lat="44.2138877" lon="11.4954368"><ele>364.0</ele><time>2026-05-01T13:29:47.133Z</time></trkpt><trkpt lat="44.2139568" lon="11.4953567"><ele>364.0</ele><time>2026-05-01T13:29:48.135Z</time></trkpt><trkpt lat="44.214035" lon="11.4952875"><ele>364.0</ele><time>2026-05-01T13:29:49.134Z</time></trkpt><trkpt lat="44.2141112" lon="11.4952268"><ele>364.0</ele><time>2026-05-01T13:29:50.135Z</time></trkpt><trkpt lat="44.214178" lon="11.4952025"><ele>366.66666666666663</ele><time>2026-05-01T13:29:51.134Z</time></trkpt><trkpt lat="44.2142512" lon="11.4951943"><ele>369.3333333333333</ele><time>2026-05-01T13:29:52.134Z</time></trkpt><trkpt lat="44.2143365" lon="11.4952028"><ele>372.0</ele><time>2026-05-01T13:29:53.134Z</time></trkpt><trkpt lat="44.2144113" lon="11.4952023"><ele>374.6666666666667</ele><time>2026-05-01T13:29:54.135Z</time></trkpt><trkpt lat="44.2144775" lon="11.4951858"><ele>377.33333333333337</ele><time>2026-05-01T13:29:55.133Z</time></trkpt><trkpt lat="44.2145642" lon="11.4950433"><ele>380.0</ele><time>2026-05-01T13:29:57.133Z</time></trkpt><trkpt lat="44.2146158" lon="11.4949305"><ele>380.0</ele><time>2026-05-01T13:29:58.133Z</time></trkpt><trkpt lat="44.2146762" lon="11.494808"><ele>380.0</ele><time>2026-05-01T13:29:59.135Z</time></trkpt><trkpt lat="44.2147365" lon="11.494698"><ele>380.0</ele><time>2026-05-01T13:30:00.135Z</time></trkpt><trkpt lat="44.2148013" lon="11.4946013"><ele>380.0</ele><time>2026-05-01T13:30:01.134Z</time></trkpt><trkpt lat="44.2148658" lon="11.4945045"><ele>380.0</ele><time>2026-05-01T13:30:02.134Z</time></trkpt><trkpt lat="44.2149278" lon="11.4944077"><ele>383.33333333333337</ele><time>2026-05-01T13:30:03.135Z</time></trkpt><trkpt lat="44.2149963" lon="11.4943322"><ele>386.6666666666667</ele><time>2026-05-01T13:30:04.134Z</time></trkpt><trkpt lat="44.2150708" lon="11.494259"><ele>390.0</ele><time>2026-05-01T13:30:05.134Z</time></trkpt><trkpt lat="44.2151345" lon="11.4941747"><ele>393.33333333333337</ele><time>2026-05-01T13:30:06.132Z</time></trkpt><trkpt lat="44.2151777" lon="11.4940827"><ele>396.6666666666667</ele><time>2026-05-01T13:30:07.131Z</time></trkpt><trkpt lat="44.2152015" lon="11.4939842"><ele>400.0</ele><time>2026-05-01T13:30:08.131Z</time></trkpt><trkpt lat="44.2152018" lon="11.4938895"><ele>400.00000000000006</ele><time>2026-05-01T13:30:09.134Z</time></trkpt><trkpt lat="44.2151873" lon="11.4937885"><ele>400.0</ele><time>2026-05-01T13:30:10.133Z</time></trkpt><trkpt lat="44.2151542" lon="11.4936723"><ele>400.0</ele><time>2026-05-01T13:30:11.132Z</time></trkpt><trkpt lat="44.2151213" lon="11.4935675"><ele>400.0</ele><time>2026-05-01T13:30:12.132Z</time></trkpt><trkpt lat="44.2150838" lon="11.4934568"><ele>400.00000000000006</ele><time>2026-05-01T13:30:13.133Z</time></trkpt><trkpt lat="44.2150368" lon="11.4933485"><ele>400.0</ele><time>2026-05-01T13:30:14.131Z</time></trkpt><trkpt lat="44.2150012" lon="11.4932543"><ele>401.28571428571433</ele><time>2026-05-01T13:30:15.133Z</time></trkpt><trkpt lat="44.2149807" lon="11.4931702"><ele>402.57142857142856</ele><time>2026-05-01T13:30:16.133Z</time></trkpt><trkpt lat="44.214968" lon="11.4930783"><ele>403.8571428571429</ele><time>2026-05-01T13:30:17.133Z</time></trkpt><trkpt lat="44.2149653" lon="11.4929783"><ele>405.14285714285717</ele><time>2026-05-01T13:30:18.134Z</time></trkpt><trkpt lat="44.2149853" lon="11.4928853"><ele>406.42857142857144</ele><time>2026-05-01T13:30:19.133Z</time></trkpt><trkpt lat="44.2150317" lon="11.4927965"><ele>407.7142857142857</ele><time>2026-05-01T13:30:20.132Z</time></trkpt><trkpt lat="44.2150873" lon="11.4926958"><ele>409.0</ele><time>2026-05-01T13:30:21.131Z</time></trkpt><trkpt lat="44.2151477" lon="11.4925738"><ele>409.6666666666667</ele><time>2026-05-01T13:30:22.135Z</time></trkpt><trkpt lat="44.2152048" lon="11.4924532"><ele>410.33333333333337</ele><time>2026-05-01T13:30:23.135Z</time></trkpt><trkpt lat="44.2152443" lon="11.49235"><ele>411.0</ele><time>2026-05-01T13:30:24.135Z</time></trkpt><trkpt lat="44.2152557" lon="11.4922477"><ele>411.66666666666663</ele><time>2026-05-01T13:30:25.135Z</time></trkpt><trkpt lat="44.2152533" lon="11.4921188"><ele>412.3333333333333</ele><time>2026-05-01T13:30:26.136Z</time></trkpt><trkpt lat="44.2152588" lon="11.4919878"><ele>413.0</ele><time>2026-05-01T13:30:27.135Z</time></trkpt><trkpt lat="44.2152833" lon="11.491865"><ele>412.99999999999994</ele><time>2026-05-01T13:30:28.136Z</time></trkpt><trkpt lat="44.2153072" lon="11.4917522"><ele>413.0</ele><time>2026-05-01T13:30:29.135Z</time></trkpt><trkpt lat="44.2153217" lon="11.491635"><ele>413.0</ele><time>2026-05-01T13:30:30.136Z</time></trkpt><trkpt lat="44.2153198" lon="11.4915118"><ele>413.0</ele><time>2026-05-01T13:30:31.135Z</time></trkpt><trkpt lat="44.2153343" lon="11.4913968"><ele>412.99999999999994</ele><time>2026-05-01T13:30:32.135Z</time></trkpt><trkpt lat="44.2153657" lon="11.491295"><ele>413.0</ele><time>2026-05-01T13:30:33.135Z</time></trkpt><trkpt lat="44.2154015" lon="11.491203"><ele>410.79999999999995</ele><time>2026-05-01T13:30:34.135Z</time></trkpt><trkpt lat="44.2155002" lon="11.4911358"><ele>408.6</ele><time>2026-05-01T13:30:36.136Z</time></trkpt><trkpt lat="44.2156287" lon="11.491126"><ele>406.4</ele><time>2026-05-01T13:30:38.135Z</time></trkpt><trkpt lat="44.2157032" lon="11.4911045"><ele>404.20000000000005</ele><time>2026-05-01T13:30:39.134Z</time></trkpt><trkpt lat="44.2157825" lon="11.4910728"><ele>402.0</ele><time>2026-05-01T13:30:40.134Z</time></trkpt><trkpt lat="44.2158477" lon="11.491026"><ele>407.5</ele><time>2026-05-01T13:30:41.134Z</time></trkpt><trkpt lat="44.215903" lon="11.49096"><ele>413.0</ele><time>2026-05-01T13:30:42.134Z</time></trkpt><trkpt lat="44.2159593" lon="11.4908883"><ele>418.5</ele><time>2026-05-01T13:30:43.133Z</time></trkpt><trkpt lat="44.2160093" lon="11.4908148"><ele>424.0</ele><time>2026-05-01T13:30:44.131Z</time></trkpt><trkpt lat="44.216083" lon="11.490689"><ele>429.5</ele><time>2026-05-01T13:30:46.133Z</time></trkpt><trkpt lat="44.216138" lon="11.4906028"><ele>435.0</ele><time>2026-05-01T13:30:48.134Z</time></trkpt><trkpt lat="44.2162122" lon="11.4905445"><ele>435.0</ele><time>2026-05-01T13:30:52.134Z</time></trkpt><trkpt lat="44.2162772" lon="11.4905012"><ele>435.0</ele><time>2026-05-01T13:30:54.134Z</time></trkpt><trkpt lat="44.216356" lon="11.4904832"><ele>435.0</ele><time>2026-05-01T13:30:56.131Z</time></trkpt><trkpt lat="44.2164655" lon="11.490436"><ele>435.0</ele><time>2026-05-01T13:30:58.133Z</time></trkpt><trkpt lat="44.2165545" lon="11.4903563"><ele>435.0</ele><time>2026-05-01T13:31:00.131Z</time></trkpt><trkpt lat="44.2166337" lon="11.4902478"><ele>438.1666666666667</ele><time>2026-05-01T13:31:02.131Z</time></trkpt><trkpt lat="44.21671" lon="11.4901033"><ele>441.33333333333337</ele><time>2026-05-01T13:31:04.133Z</time></trkpt><trkpt lat="44.2167533" lon="11.4900352"><ele>444.5</ele><time>2026-05-01T13:31:05.134Z</time></trkpt><trkpt lat="44.2167882" lon="11.4899565"><ele>447.6666666666667</ele><time>2026-05-01T13:31:06.134Z</time></trkpt><trkpt lat="44.216828" lon="11.4898768"><ele>450.83333333333337</ele><time>2026-05-01T13:31:07.135Z</time></trkpt><trkpt lat="44.2168678" lon="11.4897875"><ele>454.0</ele><time>2026-05-01T13:31:08.136Z</time></trkpt><trkpt lat="44.2169058" lon="11.4896735"><ele>457.0</ele><time>2026-05-01T13:31:09.134Z</time></trkpt><trkpt lat="44.2169505" lon="11.489526"><ele>460.0</ele><time>2026-05-01T13:31:10.134Z</time></trkpt><trkpt lat="44.2170032" lon="11.4893797"><ele>463.0</ele><time>2026-05-01T13:31:11.133Z</time></trkpt><trkpt lat="44.2170737" lon="11.4892487"><ele>466.0</ele><time>2026-05-01T13:31:12.133Z</time></trkpt><trkpt lat="44.217145" lon="11.4891415"><ele>466.0</ele><time>2026-05-01T13:31:13.133Z</time></trkpt><trkpt lat="44.217217" lon="11.4890037"><ele>466.0</ele><time>2026-05-01T13:31:14.135Z</time></trkpt><trkpt lat="44.2172925" lon="11.4888412"><ele>466.0</ele><time>2026-05-01T13:31:15.134Z</time></trkpt><trkpt lat="44.2173592" lon="11.4887078"><ele>466.0</ele><time>2026-05-01T13:31:16.134Z</time></trkpt><trkpt lat="44.2174237" lon="11.4885943"><ele>469.83333333333337</ele><time>2026-05-01T13:31:17.133Z</time></trkpt><trkpt lat="44.2174865" lon="11.4884928"><ele>473.6666666666667</ele><time>2026-05-01T13:31:18.133Z</time></trkpt><trkpt lat="44.2175465" lon="11.488425"><ele>477.5</ele><time>2026-05-01T13:31:19.133Z</time></trkpt><trkpt lat="44.217609" lon="11.4883883"><ele>481.33333333333337</ele><time>2026-05-01T13:31:20.133Z</time></trkpt><trkpt lat="44.2176767" lon="11.488379"><ele>485.1666666666667</ele><time>2026-05-01T13:31:21.133Z</time></trkpt><trkpt lat="44.2177565" lon="11.4883735"><ele>489.0</ele><time>2026-05-01T13:31:22.133Z</time></trkpt><trkpt lat="44.2178527" lon="11.4883635"><ele>489.0</ele><time>2026-05-01T13:31:23.131Z</time></trkpt><trkpt lat="44.217943" lon="11.4883412"><ele>489.0</ele><time>2026-05-01T13:31:24.134Z</time></trkpt><trkpt lat="44.2180093" lon="11.4882927"><ele>489.0</ele><time>2026-05-01T13:31:25.135Z</time></trkpt><trkpt lat="44.2180595" lon="11.4882178"><ele>489.0</ele><time>2026-05-01T13:31:26.134Z</time></trkpt><trkpt lat="44.2180987" lon="11.4881152"><ele>489.0</ele><time>2026-05-01T13:31:27.135Z</time></trkpt><trkpt lat="44.2181202" lon="11.4880122"><ele>489.0</ele><time>2026-05-01T13:31:28.135Z</time></trkpt><trkpt lat="44.2181252" lon="11.487902"><ele>490.5</ele><time>2026-05-01T13:31:29.135Z</time></trkpt><trkpt lat="44.2181118" lon="11.4877967"><ele>492.0</ele><time>2026-05-01T13:31:30.135Z</time></trkpt><trkpt lat="44.2180743" lon="11.4877045"><ele>493.5</ele><time>2026-05-01T13:31:31.134Z</time></trkpt><trkpt lat="44.2180278" lon="11.4876197"><ele>495.0</ele><time>2026-05-01T13:31:32.134Z</time></trkpt><trkpt lat="44.21799" lon="11.4875345"><ele>496.5</ele><time>2026-05-01T13:31:33.134Z</time></trkpt><trkpt lat="44.217974" lon="11.4874277"><ele>498.0</ele><time>2026-05-01T13:31:34.135Z</time></trkpt><trkpt lat="44.2179628" lon="11.4873128"><ele>498.0</ele><time>2026-05-01T13:31:35.133Z</time></trkpt><trkpt lat="44.2179412" lon="11.4871793"><ele>498.0</ele><time>2026-05-01T13:31:37.136Z</time></trkpt><trkpt lat="44.2178922" lon="11.487059"><ele>498.0</ele><time>2026-05-01T13:31:40.137Z</time></trkpt><trkpt lat="44.2178752" lon="11.4869697"><ele>498.0</ele><time>2026-05-01T13:31:42.135Z</time></trkpt><trkpt lat="44.21787" lon="11.4868658"><ele>498.0</ele><time>2026-05-01T13:31:44.137Z</time></trkpt><trkpt lat="44.2178925" lon="11.4867447"><ele>498.0</ele><time>2026-05-01T13:31:47.135Z</time></trkpt><trkpt lat="44.2178997" lon="11.4866182"><ele>498.3333333333333</ele><time>2026-05-01T13:31:50.136Z</time></trkpt><trkpt lat="44.217915" lon="11.4864822"><ele>498.66666666666663</ele><time>2026-05-01T13:35:54.139Z</time></trkpt><trkpt lat="44.217897" lon="11.4863902"><ele>499.0</ele><time>2026-05-01T13:35:56.138Z</time></trkpt><trkpt lat="44.2178397" lon="11.4862535"><ele>499.3333333333333</ele><time>2026-05-01T13:35:58.14Z</time></trkpt><trkpt lat="44.2178102" lon="11.4861695"><ele>499.66666666666663</ele><time>2026-05-01T13:35:59.139Z</time></trkpt><trkpt lat="44.2177797" lon="11.4860762"><ele>500.0</ele><time>2026-05-01T13:36:00.141Z</time></trkpt><trkpt lat="44.2177437" lon="11.485974"><ele>497.8</ele><time>2026-05-01T13:36:01.14Z</time></trkpt><trkpt lat="44.2177" lon="11.4858688"><ele>495.6</ele><time>2026-05-01T13:36:02.138Z</time></trkpt><trkpt lat="44.2176467" lon="11.4857687"><ele>493.4</ele><time>2026-05-01T13:36:03.137Z</time></trkpt><trkpt lat="44.217585" lon="11.4856742"><ele>491.2</ele><time>2026-05-01T13:36:04.137Z</time></trkpt><trkpt lat="44.2175142" lon="11.485588"><ele>489.0</ele><time>2026-05-01T13:36:05.136Z</time></trkpt><trkpt lat="44.2174265" lon="11.4855133"><ele>489.0</ele><time>2026-05-01T13:36:06.138Z</time></trkpt><trkpt lat="44.217331" lon="11.4854467"><ele>489.0</ele><time>2026-05-01T13:36:07.139Z</time></trkpt><trkpt lat="44.2172322" lon="11.4853837"><ele>489.0</ele><time>2026-05-01T13:36:08.142Z</time></trkpt><trkpt lat="44.2171313" lon="11.4853242"><ele>489.0</ele><time>2026-05-01T13:36:09.14Z</time></trkpt><trkpt lat="44.2170297" lon="11.4852662"><ele>489.0</ele><time>2026-05-01T13:36:10.141Z</time></trkpt><trkpt lat="44.216925" lon="11.4852085"><ele>490.25</ele><time>2026-05-01T13:36:11.14Z</time></trkpt><trkpt lat="44.2168183" lon="11.4851475"><ele>491.5</ele><time>2026-05-01T13:36:12.14Z</time></trkpt><trkpt lat="44.21671" lon="11.4850805"><ele>492.75</ele><time>2026-05-01T13:36:13.14Z</time></trkpt><trkpt lat="44.2166018" lon="11.485014"><ele>494.0</ele><time>2026-05-01T13:36:14.14Z</time></trkpt><trkpt lat="44.2164942" lon="11.4849503"><ele>496.5</ele><time>2026-05-01T13:36:15.141Z</time></trkpt><trkpt lat="44.2163862" lon="11.4848902"><ele>499.0</ele><time>2026-05-01T13:36:16.14Z</time></trkpt><trkpt lat="44.2162758" lon="11.4848318"><ele>501.5</ele><time>2026-05-01T13:36:17.139Z</time></trkpt><trkpt lat="44.2161622" lon="11.484779"><ele>504.0</ele><time>2026-05-01T13:36:18.142Z</time></trkpt><trkpt lat="44.216043" lon="11.4847305"><ele>504.0</ele><time>2026-05-01T13:36:19.14Z</time></trkpt><trkpt lat="44.215922" lon="11.4846818"><ele>504.0</ele><time>2026-05-01T13:36:20.139Z</time></trkpt><trkpt lat="44.2158073" lon="11.4846278"><ele>504.0</ele><time>2026-05-01T13:36:21.14Z</time></trkpt><trkpt lat="44.2156988" lon="11.4845633"><ele>504.0</ele><time>2026-05-01T13:36:22.139Z</time></trkpt><trkpt lat="44.2155957" lon="11.48448"><ele>502.6</ele><time>2026-05-01T13:36:23.138Z</time></trkpt><trkpt lat="44.2155055" lon="11.4843718"><ele>501.2</ele><time>2026-05-01T13:36:24.138Z</time></trkpt><trkpt lat="44.2154297" lon="11.4842493"><ele>499.80000000000007</ele><time>2026-05-01T13:36:25.141Z</time></trkpt><trkpt lat="44.215367" lon="11.4841243"><ele>498.40000000000003</ele><time>2026-05-01T13:36:26.138Z</time></trkpt><trkpt lat="44.2153195" lon="11.4839957"><ele>497.0</ele><time>2026-05-01T13:36:27.135Z</time></trkpt><trkpt lat="44.2152858" lon="11.4838645"><ele>497.0</ele><time>2026-05-01T13:36:28.138Z</time></trkpt><trkpt lat="44.2152605" lon="11.4837288"><ele>497.00000000000006</ele><time>2026-05-01T13:36:29.136Z</time></trkpt><trkpt lat="44.2152372" lon="11.4835897"><ele>497.00000000000006</ele><time>2026-05-01T13:36:30.138Z</time></trkpt><trkpt lat="44.215218" lon="11.4834563"><ele>497.0</ele><time>2026-05-01T13:36:31.138Z</time></trkpt><trkpt lat="44.2151998" lon="11.4833372"><ele>497.0</ele><time>2026-05-01T13:36:32.139Z</time></trkpt><trkpt lat="44.2151837" lon="11.483236"><ele>496.99999999999994</ele><time>2026-05-01T13:36:33.149Z</time></trkpt><trkpt lat="44.2151613" lon="11.4831428"><ele>497.0</ele><time>2026-05-01T13:36:34.147Z</time></trkpt><trkpt lat="44.2151305" lon="11.4830513"><ele>497.0</ele><time>2026-05-01T13:36:35.137Z</time></trkpt><trkpt lat="44.2150907" lon="11.4829538"><ele>497.0</ele><time>2026-05-01T13:36:36.139Z</time></trkpt><trkpt lat="44.215043" lon="11.4828495"><ele>496.99999999999994</ele><time>2026-05-01T13:36:37.137Z</time></trkpt><trkpt lat="44.214992" lon="11.4827383"><ele>497.0</ele><time>2026-05-01T13:36:38.138Z</time></trkpt><trkpt lat="44.2149415" lon="11.4826178"><ele>497.0</ele><time>2026-05-01T13:36:39.14Z</time></trkpt><trkpt lat="44.2148937" lon="11.4824885"><ele>497.00000000000006</ele><time>2026-05-01T13:36:40.139Z</time></trkpt><trkpt lat="44.2148472" lon="11.4823523"><ele>497.00000000000006</ele><time>2026-05-01T13:36:41.138Z</time></trkpt><trkpt lat="44.2148027" lon="11.4822117"><ele>497.0</ele><time>2026-05-01T13:36:42.138Z</time></trkpt><trkpt lat="44.2147633" lon="11.482067"><ele>497.0</ele><time>2026-05-01T13:36:43.138Z</time></trkpt><trkpt lat="44.2147267" lon="11.4819225"><ele>502.8</ele><time>2026-05-01T13:36:44.137Z</time></trkpt><trkpt lat="44.2146913" lon="11.4817818"><ele>508.6</ele><time>2026-05-01T13:36:45.138Z</time></trkpt><trkpt lat="44.214649" lon="11.481652"><ele>514.4000000000001</ele><time>2026-05-01T13:36:46.137Z</time></trkpt><trkpt lat="44.2145942" lon="11.4815347"><ele>520.2</ele><time>2026-05-01T13:36:47.137Z</time></trkpt><trkpt lat="44.2145262" lon="11.4814375"><ele>526.0</ele><time>2026-05-01T13:36:48.137Z</time></trkpt><trkpt lat="44.2144462" lon="11.4813687"><ele>526.0</ele><time>2026-05-01T13:36:49.141Z</time></trkpt><trkpt lat="44.2143595" lon="11.4813222"><ele>526.0</ele><time>2026-05-01T13:36:50.138Z</time></trkpt><trkpt lat="44.2142768" lon="11.4812752"><ele>526.0</ele><time>2026-05-01T13:36:51.139Z</time></trkpt><trkpt lat="44.2142055" lon="11.4812078"><ele>526.0</ele><time>2026-05-01T13:36:52.135Z</time></trkpt><trkpt lat="44.214149" lon="11.4811147"><ele>526.0</ele><time>2026-05-01T13:36:53.134Z</time></trkpt><trkpt lat="44.2141078" lon="11.4810045"><ele>526.0</ele><time>2026-05-01T13:36:54.135Z</time></trkpt><trkpt lat="44.2140753" lon="11.4808872"><ele>525.4</ele><time>2026-05-01T13:36:55.135Z</time></trkpt><trkpt lat="44.2140353" lon="11.4807782"><ele>524.8</ele><time>2026-05-01T13:36:56.141Z</time></trkpt><trkpt lat="44.2139798" lon="11.4806823"><ele>524.1999999999999</ele><time>2026-05-01T13:36:57.138Z</time></trkpt><trkpt lat="44.2139005" lon="11.4806127"><ele>523.6</ele><time>2026-05-01T13:36:58.136Z</time></trkpt><trkpt lat="44.2138098" lon="11.4805588"><ele>523.0</ele><time>2026-05-01T13:36:59.139Z</time></trkpt><trkpt lat="44.2137192" lon="11.4804963"><ele>525.1999999999999</ele><time>2026-05-01T13:37:00.139Z</time></trkpt><trkpt lat="44.2136338" lon="11.4804235"><ele>527.4</ele><time>2026-05-01T13:37:01.138Z</time></trkpt><trkpt lat="44.2135523" lon="11.4803352"><ele>529.5999999999999</ele><time>2026-05-01T13:37:02.138Z</time></trkpt><trkpt lat="44.2134677" lon="11.4802445"><ele>531.8</ele><time>2026-05-01T13:37:03.138Z</time></trkpt><trkpt lat="44.213381" lon="11.4801565"><ele>534.0</ele><time>2026-05-01T13:37:04.137Z</time></trkpt><trkpt lat="44.2132952" lon="11.4800628"><ele>534.0</ele><time>2026-05-01T13:37:05.136Z</time></trkpt><trkpt lat="44.2132108" lon="11.4799652"><ele>534.0</ele><time>2026-05-01T13:37:06.137Z</time></trkpt><trkpt lat="44.2131253" lon="11.47987"><ele>534.0</ele><time>2026-05-01T13:37:07.136Z</time></trkpt><trkpt lat="44.2130403" lon="11.4797807"><ele>534.0</ele><time>2026-05-01T13:37:08.135Z</time></trkpt><trkpt lat="44.2129585" lon="11.4796955"><ele>534.0</ele><time>2026-05-01T13:37:09.135Z</time></trkpt><trkpt lat="44.2128712" lon="11.4796058"><ele>537.0</ele><time>2026-05-01T13:37:10.137Z</time></trkpt><trkpt lat="44.2127843" lon="11.4795135"><ele>540.0</ele><time>2026-05-01T13:37:11.137Z</time></trkpt><trkpt lat="44.2126965" lon="11.4794198"><ele>543.0</ele><time>2026-05-01T13:37:12.138Z</time></trkpt><trkpt lat="44.2126092" lon="11.4793237"><ele>546.0</ele><time>2026-05-01T13:37:13.137Z</time></trkpt><trkpt lat="44.2125237" lon="11.4792237"><ele>549.0</ele><time>2026-05-01T13:37:14.135Z</time></trkpt><trkpt lat="44.2124425" lon="11.4791148"><ele>549.0</ele><time>2026-05-01T13:37:15.137Z</time></trkpt><trkpt lat="44.2123672" lon="11.4790023"><ele>549.0</ele><time>2026-05-01T13:37:16.134Z</time></trkpt><trkpt lat="44.2122935" lon="11.4788888"><ele>549.0</ele><time>2026-05-01T13:37:17.133Z</time></trkpt><trkpt lat="44.2122165" lon="11.4787828"><ele>549.0</ele><time>2026-05-01T13:37:18.133Z</time></trkpt><trkpt lat="44.21213" lon="11.4786992"><ele>549.0</ele><time>2026-05-01T13:37:19.134Z</time></trkpt><trkpt lat="44.2120293" lon="11.4786373"><ele>551.4</ele><time>2026-05-01T13:37:20.135Z</time></trkpt><trkpt lat="44.2119202" lon="11.4785922"><ele>553.8</ele><time>2026-05-01T13:37:21.136Z</time></trkpt><trkpt lat="44.2118245" lon="11.4785397"><ele>556.2</ele><time>2026-05-01T13:37:22.136Z</time></trkpt><trkpt lat="44.211746" lon="11.4784597"><ele>558.6</ele><time>2026-05-01T13:37:23.136Z</time></trkpt><trkpt lat="44.2116815" lon="11.4783567"><ele>561.0</ele><time>2026-05-01T13:37:24.136Z</time></trkpt><trkpt lat="44.2116098" lon="11.478263"><ele>561.0</ele><time>2026-05-01T13:37:25.136Z</time></trkpt><trkpt lat="44.2115152" lon="11.4781885"><ele>561.0</ele><time>2026-05-01T13:37:26.137Z</time></trkpt><trkpt lat="44.2114203" lon="11.4781088"><ele>561.0</ele><time>2026-05-01T13:37:27.136Z</time></trkpt><trkpt lat="44.2113413" lon="11.4780087"><ele>561.0</ele><time>2026-05-01T13:37:28.136Z</time></trkpt><trkpt lat="44.2112673" lon="11.477898"><ele>561.0</ele><time>2026-05-01T13:37:29.136Z</time></trkpt><trkpt lat="44.2111968" lon="11.4777843"><ele>563.8</ele><time>2026-05-01T13:37:30.136Z</time></trkpt><trkpt lat="44.2111273" lon="11.4776688"><ele>566.6</ele><time>2026-05-01T13:37:31.138Z</time></trkpt><trkpt lat="44.211051" lon="11.4775653"><ele>569.4</ele><time>2026-05-01T13:37:32.136Z</time></trkpt><trkpt lat="44.2109578" lon="11.4774775"><ele>572.2</ele><time>2026-05-01T13:37:33.137Z</time></trkpt><trkpt lat="44.2108612" lon="11.4773947"><ele>575.0</ele><time>2026-05-01T13:37:34.135Z</time></trkpt><trkpt lat="44.210775" lon="11.4773057"><ele>575.0</ele><time>2026-05-01T13:37:35.136Z</time></trkpt><trkpt lat="44.2107017" lon="11.4772162"><ele>575.0</ele><time>2026-05-01T13:37:36.136Z</time></trkpt><trkpt lat="44.2106382" lon="11.4771438"><ele>575.0</ele><time>2026-05-01T13:37:37.136Z</time></trkpt><trkpt lat="44.2105743" lon="11.477094"><ele>575.0</ele><time>2026-05-01T13:37:38.136Z</time></trkpt><trkpt lat="44.2105072" lon="11.4770917"><ele>575.0</ele><time>2026-05-01T13:37:39.137Z</time></trkpt><trkpt lat="44.210448" lon="11.477225"><ele>575.0</ele><time>2026-05-01T13:37:41.133Z</time></trkpt><trkpt lat="44.2104753" lon="11.4773085"><ele>579.2</ele><time>2026-05-01T13:37:42.135Z</time></trkpt><trkpt lat="44.2105185" lon="11.4773977"><ele>583.4</ele><time>2026-05-01T13:37:43.135Z</time></trkpt><trkpt lat="44.210544" lon="11.4774963"><ele>587.6</ele><time>2026-05-01T13:37:44.136Z</time></trkpt><trkpt lat="44.2104893" lon="11.4776208"><ele>591.8</ele><time>2026-05-01T13:37:46.14Z</time></trkpt><trkpt lat="44.2103817" lon="11.477566"><ele>596.0</ele><time>2026-05-01T13:37:48.137Z</time></trkpt><trkpt lat="44.2103228" lon="11.4774872"><ele>596.0</ele><time>2026-05-01T13:37:49.141Z</time></trkpt><trkpt lat="44.21026" lon="11.4773972"><ele>596.0</ele><time>2026-05-01T13:37:50.138Z</time></trkpt><trkpt lat="44.2101942" lon="11.4773043"><ele>596.0</ele><time>2026-05-01T13:37:51.139Z</time></trkpt><trkpt lat="44.2101225" lon="11.4772093"><ele>596.0</ele><time>2026-05-01T13:37:52.136Z</time></trkpt><trkpt lat="44.2100425" lon="11.4771205"><ele>596.0</ele><time>2026-05-01T13:37:53.137Z</time></trkpt><trkpt lat="44.2099522" lon="11.4770373"><ele>593.8</ele><time>2026-05-01T13:37:54.138Z</time></trkpt><trkpt lat="44.2098563" lon="11.4769627"><ele>591.6</ele><time>2026-05-01T13:37:55.137Z</time></trkpt><trkpt lat="44.2097607" lon="11.476904"><ele>589.4</ele><time>2026-05-01T13:37:56.138Z</time></trkpt><trkpt lat="44.2096592" lon="11.4768598"><ele>587.2</ele><time>2026-05-01T13:37:57.137Z</time></trkpt><trkpt lat="44.2095523" lon="11.4768328"><ele>585.0</ele><time>2026-05-01T13:37:58.14Z</time></trkpt><trkpt lat="44.2094443" lon="11.47681"><ele>589.4</ele><time>2026-05-01T13:37:59.138Z</time></trkpt><trkpt lat="44.2093383" lon="11.4767758"><ele>593.8</ele><time>2026-05-01T13:38:00.14Z</time></trkpt><trkpt lat="44.209239" lon="11.4767252"><ele>598.2</ele><time>2026-05-01T13:38:01.139Z</time></trkpt><trkpt lat="44.2091452" lon="11.4766715"><ele>602.6</ele><time>2026-05-01T13:38:02.139Z</time></trkpt><trkpt lat="44.2090525" lon="11.4766403"><ele>607.0</ele><time>2026-05-01T13:38:03.137Z</time></trkpt><trkpt lat="44.208981" lon="11.4766573"><ele>607.0</ele><time>2026-05-01T13:38:04.136Z</time></trkpt><trkpt lat="44.2089333" lon="11.4767622"><ele>607.0</ele><time>2026-05-01T13:38:06.137Z</time></trkpt><trkpt lat="44.2089705" lon="11.4769455"><ele>607.0</ele><time>2026-05-01T13:38:08.135Z</time></trkpt><trkpt lat="44.2090098" lon="11.4770577"><ele>607.0</ele><time>2026-05-01T13:38:09.138Z</time></trkpt><trkpt lat="44.2090502" lon="11.4771717"><ele>607.0</ele><time>2026-05-01T13:38:10.137Z</time></trkpt><trkpt lat="44.2090857" lon="11.4772632"><ele>609.2</ele><time>2026-05-01T13:38:11.138Z</time></trkpt><trkpt lat="44.2091023" lon="11.4773983"><ele>611.4000000000001</ele><time>2026-05-01T13:38:13.139Z</time></trkpt><trkpt lat="44.2090512" lon="11.4775192"><ele>613.5999999999999</ele><time>2026-05-01T13:38:15.138Z</time></trkpt><trkpt lat="44.2089737" lon="11.4776325"><ele>615.8</ele><time>2026-05-01T13:38:17.139Z</time></trkpt><trkpt lat="44.2089342" lon="11.477704"><ele>618.0</ele><time>2026-05-01T13:38:18.137Z</time></trkpt><trkpt lat="44.208895" lon="11.477795"><ele>621.3333333333334</ele><time>2026-05-01T13:38:19.137Z</time></trkpt><trkpt lat="44.2088592" lon="11.4778835"><ele>624.6666666666666</ele><time>2026-05-01T13:38:20.139Z</time></trkpt><trkpt lat="44.208824" lon="11.4779688"><ele>628.0</ele><time>2026-05-01T13:38:21.138Z</time></trkpt><trkpt lat="44.2088012" lon="11.478057"><ele>631.3333333333333</ele><time>2026-05-01T13:38:22.138Z</time></trkpt><trkpt lat="44.2087697" lon="11.4781947"><ele>634.6666666666666</ele><time>2026-05-01T13:38:24.138Z</time></trkpt><trkpt lat="44.2087142" lon="11.4782462"><ele>638.0</ele><time>2026-05-01T13:38:26.137Z</time></trkpt><trkpt lat="44.2086453" lon="11.4782945"><ele>639.0</ele><time>2026-05-01T13:38:28.137Z</time></trkpt><trkpt lat="44.2085668" lon="11.4783295"><ele>640.0</ele><time>2026-05-01T13:38:30.135Z</time></trkpt><trkpt lat="44.2084773" lon="11.4782937"><ele>641.0</ele><time>2026-05-01T13:38:32.135Z</time></trkpt><trkpt lat="44.208393" lon="11.4782568"><ele>642.0</ele><time>2026-05-01T13:38:34.138Z</time></trkpt><trkpt lat="44.2083107" lon="11.478172"><ele>643.0</ele><time>2026-05-01T13:38:36.137Z</time></trkpt><trkpt lat="44.2082065" lon="11.4781138"><ele>644.8</ele><time>2026-05-01T13:38:38.136Z</time></trkpt><trkpt lat="44.2081205" lon="11.4780392"><ele>646.5999999999999</ele><time>2026-05-01T13:38:40.137Z</time></trkpt><trkpt lat="44.2080367" lon="11.4779388"><ele>648.4000000000001</ele><time>2026-05-01T13:38:42.138Z</time></trkpt><trkpt lat="44.2079488" lon="11.4778493"><ele>650.2</ele><time>2026-05-01T13:38:44.14Z</time></trkpt><trkpt lat="44.2078737" lon="11.4777758"><ele>652.0</ele><time>2026-05-01T13:38:46.138Z</time></trkpt><trkpt lat="44.2077663" lon="11.4777058"><ele>652.0</ele><time>2026-05-01T13:38:48.139Z</time></trkpt><trkpt lat="44.2077102" lon="11.4776425"><ele>652.0</ele><time>2026-05-01T13:38:49.139Z</time></trkpt><trkpt lat="44.2076555" lon="11.4775712"><ele>652.0</ele><time>2026-05-01T13:38:50.14Z</time></trkpt><trkpt lat="44.2075973" lon="11.4774948"><ele>652.0</ele><time>2026-05-01T13:38:51.139Z</time></trkpt><trkpt lat="44.2075302" lon="11.4774142"><ele>652.0</ele><time>2026-05-01T13:38:52.138Z</time></trkpt><trkpt lat="44.2074602" lon="11.477319"><ele>652.0</ele><time>2026-05-01T13:38:53.139Z</time></trkpt><trkpt lat="44.2073908" lon="11.4772085"><ele>651.2</ele><time>2026-05-01T13:38:54.135Z</time></trkpt><trkpt lat="44.2073298" lon="11.477098"><ele>650.4000000000001</ele><time>2026-05-01T13:38:55.135Z</time></trkpt><trkpt lat="44.2072772" lon="11.4769863"><ele>649.5999999999999</ele><time>2026-05-01T13:38:56.134Z</time></trkpt><trkpt lat="44.2072333" lon="11.4768723"><ele>648.8</ele><time>2026-05-01T13:38:57.134Z</time></trkpt><trkpt lat="44.2071863" lon="11.4767517"><ele>648.0</ele><time>2026-05-01T13:38:58.14Z</time></trkpt><trkpt lat="44.2071358" lon="11.4766382"><ele>648.5999999999999</ele><time>2026-05-01T13:38:59.136Z</time></trkpt><trkpt lat="44.2070673" lon="11.4765402"><ele>649.1999999999999</ele><time>2026-05-01T13:39:00.137Z</time></trkpt><trkpt lat="44.2069933" lon="11.4764438"><ele>649.8</ele><time>2026-05-01T13:39:01.137Z</time></trkpt><trkpt lat="44.2069163" lon="11.4763463"><ele>650.4</ele><time>2026-05-01T13:39:02.139Z</time></trkpt><trkpt lat="44.2068412" lon="11.4762455"><ele>651.0</ele><time>2026-05-01T13:39:03.137Z</time></trkpt><trkpt lat="44.206763" lon="11.4761428"><ele>651.0</ele><time>2026-05-01T13:39:04.14Z</time></trkpt><trkpt lat="44.2066807" lon="11.4760425"><ele>651.0</ele><time>2026-05-01T13:39:05.137Z</time></trkpt><trkpt lat="44.2065992" lon="11.4759467"><ele>651.0</ele><time>2026-05-01T13:39:06.137Z</time></trkpt><trkpt lat="44.206518" lon="11.4758548"><ele>651.0</ele><time>2026-05-01T13:39:07.137Z</time></trkpt><trkpt lat="44.2064357" lon="11.4757682"><ele>651.0</ele><time>2026-05-01T13:39:08.138Z</time></trkpt><trkpt lat="44.2063478" lon="11.4756943"><ele>651.0</ele><time>2026-05-01T13:39:09.138Z</time></trkpt><trkpt lat="44.2062528" lon="11.4756287"><ele>651.0</ele><time>2026-05-01T13:39:10.138Z</time></trkpt><trkpt lat="44.206154" lon="11.4755647"><ele>651.0</ele><time>2026-05-01T13:39:11.138Z</time></trkpt><trkpt lat="44.2060547" lon="11.4754968"><ele>651.0</ele><time>2026-05-01T13:39:12.14Z</time></trkpt><trkpt lat="44.205954" lon="11.4754273"><ele>651.0</ele><time>2026-05-01T13:39:13.139Z</time></trkpt><trkpt lat="44.205844" lon="11.4753707"><ele>651.0</ele><time>2026-05-01T13:39:14.138Z</time></trkpt><trkpt lat="44.2057288" lon="11.4753292"><ele>651.0</ele><time>2026-05-01T13:39:15.138Z</time></trkpt><trkpt lat="44.2056112" lon="11.475302"><ele>651.0</ele><time>2026-05-01T13:39:16.138Z</time></trkpt><trkpt lat="44.2054923" lon="11.4752845"><ele>651.0</ele><time>2026-05-01T13:39:17.138Z</time></trkpt><trkpt lat="44.2053703" lon="11.4752688"><ele>652.75</ele><time>2026-05-01T13:39:18.136Z</time></trkpt><trkpt lat="44.2052472" lon="11.4752503"><ele>654.5</ele><time>2026-05-01T13:39:19.136Z</time></trkpt><trkpt lat="44.2051237" lon="11.4752288"><ele>656.25</ele><time>2026-05-01T13:39:20.135Z</time></trkpt><trkpt lat="44.2050002" lon="11.4752007"><ele>658.0</ele><time>2026-05-01T13:39:21.137Z</time></trkpt><trkpt lat="44.2048787" lon="11.4751698"><ele>660.75</ele><time>2026-05-01T13:39:22.136Z</time></trkpt><trkpt lat="44.2047592" lon="11.4751307"><ele>663.5</ele><time>2026-05-01T13:39:23.137Z</time></trkpt><trkpt lat="44.2046432" lon="11.4750862"><ele>666.25</ele><time>2026-05-01T13:39:24.14Z</time></trkpt><trkpt lat="44.2045317" lon="11.475036"><ele>669.0</ele><time>2026-05-01T13:39:25.138Z</time></trkpt><trkpt lat="44.2044193" lon="11.474983"><ele>669.0</ele><time>2026-05-01T13:39:26.137Z</time></trkpt><trkpt lat="44.2043033" lon="11.4749292"><ele>669.0</ele><time>2026-05-01T13:39:27.137Z</time></trkpt><trkpt lat="44.2041878" lon="11.4748728"><ele>669.0</ele><time>2026-05-01T13:39:28.138Z</time></trkpt><trkpt lat="44.2040752" lon="11.4748165"><ele>669.0</ele><time>2026-05-01T13:39:29.136Z</time></trkpt><trkpt lat="44.203967" lon="11.4747493"><ele>669.5</ele><time>2026-05-01T13:39:30.138Z</time></trkpt><trkpt lat="44.2038623" lon="11.4746788"><ele>670.0</ele><time>2026-05-01T13:39:31.139Z</time></trkpt><trkpt lat="44.2037572" lon="11.4746172"><ele>670.5</ele><time>2026-05-01T13:39:32.137Z</time></trkpt><trkpt lat="44.2036477" lon="11.474565"><ele>671.0</ele><time>2026-05-01T13:39:33.138Z</time></trkpt><trkpt lat="44.2035365" lon="11.4745107"><ele>671.0</ele><time>2026-05-01T13:39:34.138Z</time></trkpt><trkpt lat="44.2034297" lon="11.4744418"><ele>671.0</ele><time>2026-05-01T13:39:35.138Z</time></trkpt><trkpt lat="44.2033305" lon="11.4743583"><ele>671.0</ele><time>2026-05-01T13:39:36.139Z</time></trkpt><trkpt lat="44.2032308" lon="11.4742702"><ele>671.0</ele><time>2026-05-01T13:39:37.137Z</time></trkpt><trkpt lat="44.2031252" lon="11.4741808"><ele>675.25</ele><time>2026-05-01T13:39:38.138Z</time></trkpt><trkpt lat="44.2030173" lon="11.4740913"><ele>679.5</ele><time>2026-05-01T13:39:39.138Z</time></trkpt><trkpt lat="44.2029068" lon="11.4740022"><ele>683.75</ele><time>2026-05-01T13:39:40.138Z</time></trkpt><trkpt lat="44.2027942" lon="11.4739145"><ele>688.0</ele><time>2026-05-01T13:39:41.138Z</time></trkpt><trkpt lat="44.2026825" lon="11.473825"><ele>689.25</ele><time>2026-05-01T13:39:42.139Z</time></trkpt><trkpt lat="44.2025722" lon="11.4737313"><ele>690.5</ele><time>2026-05-01T13:39:43.135Z</time></trkpt><trkpt lat="44.2024615" lon="11.47364"><ele>691.75</ele><time>2026-05-01T13:39:44.135Z</time></trkpt><trkpt lat="44.2023467" lon="11.4735578"><ele>693.0</ele><time>2026-05-01T13:39:45.135Z</time></trkpt><trkpt lat="44.2022282" lon="11.4734877"><ele>693.0</ele><time>2026-05-01T13:39:46.136Z</time></trkpt><trkpt lat="44.2021092" lon="11.4734263"><ele>693.0</ele><time>2026-05-01T13:39:47.138Z</time></trkpt><trkpt lat="44.2019913" lon="11.4733702"><ele>693.0</ele><time>2026-05-01T13:39:48.138Z</time></trkpt><trkpt lat="44.2018757" lon="11.4733177"><ele>693.0</ele><time>2026-05-01T13:39:49.138Z</time></trkpt><trkpt lat="44.201759" lon="11.4732678"><ele>693.0</ele><time>2026-05-01T13:39:50.139Z</time></trkpt><trkpt lat="44.2016415" lon="11.47322"><ele>693.0</ele><time>2026-05-01T13:39:51.138Z</time></trkpt><trkpt lat="44.2015243" lon="11.473178"><ele>693.0</ele><time>2026-05-01T13:39:52.14Z</time></trkpt><trkpt lat="44.201407" lon="11.4731432"><ele>693.0</ele><time>2026-05-01T13:39:53.138Z</time></trkpt><trkpt lat="44.2012903" lon="11.4731107"><ele>693.25</ele><time>2026-05-01T13:39:54.138Z</time></trkpt><trkpt lat="44.201175" lon="11.4730738"><ele>693.5</ele><time>2026-05-01T13:39:55.139Z</time></trkpt><trkpt lat="44.2010602" lon="11.4730277"><ele>693.75</ele><time>2026-05-01T13:39:56.139Z</time></trkpt><trkpt lat="44.2009442" lon="11.4729737"><ele>694.0</ele><time>2026-05-01T13:39:57.138Z</time></trkpt><trkpt lat="44.2008293" lon="11.4729127"><ele>694.0</ele><time>2026-05-01T13:39:58.138Z</time></trkpt><trkpt lat="44.2007148" lon="11.4728533"><ele>694.0</ele><time>2026-05-01T13:39:59.138Z</time></trkpt><trkpt lat="44.2006008" lon="11.4728037"><ele>694.0</ele><time>2026-05-01T13:40:00.138Z</time></trkpt><trkpt lat="44.2004883" lon="11.4727563"><ele>694.0</ele><time>2026-05-01T13:40:01.139Z</time></trkpt><trkpt lat="44.2003838" lon="11.4726995"><ele>696.6</ele><time>2026-05-01T13:40:02.14Z</time></trkpt><trkpt lat="44.2002867" lon="11.4726405"><ele>699.2</ele><time>2026-05-01T13:40:03.139Z</time></trkpt><trkpt lat="44.2001925" lon="11.4725907"><ele>701.8000000000001</ele><time>2026-05-01T13:40:04.139Z</time></trkpt><trkpt lat="44.2000978" lon="11.4725538"><ele>704.4000000000001</ele><time>2026-05-01T13:40:05.137Z</time></trkpt><trkpt lat="44.200008" lon="11.47253"><ele>707.0</ele><time>2026-05-01T13:40:06.139Z</time></trkpt><trkpt lat="44.1999233" lon="11.4725112"><ele>707.0</ele><time>2026-05-01T13:40:07.137Z</time></trkpt><trkpt lat="44.1998403" lon="11.472484"><ele>707.0</ele><time>2026-05-01T13:40:08.136Z</time></trkpt><trkpt lat="44.1997612" lon="11.4724415"><ele>707.0</ele><time>2026-05-01T13:40:09.136Z</time></trkpt><trkpt lat="44.1996843" lon="11.4723893"><ele>707.0</ele><time>2026-05-01T13:40:10.135Z</time></trkpt><trkpt lat="44.1996058" lon="11.4723485"><ele>707.0</ele><time>2026-05-01T13:40:11.135Z</time></trkpt><trkpt lat="44.1995213" lon="11.472326"><ele>707.0</ele><time>2026-05-01T13:40:12.137Z</time></trkpt><trkpt lat="44.1994338" lon="11.4723205"><ele>709.1666666666666</ele><time>2026-05-01T13:40:13.139Z</time></trkpt><trkpt lat="44.1993497" lon="11.472333"><ele>711.3333333333333</ele><time>2026-05-01T13:40:14.138Z</time></trkpt><trkpt lat="44.1992762" lon="11.4723445"><ele>713.5</ele><time>2026-05-01T13:40:15.137Z</time></trkpt><trkpt lat="44.1992132" lon="11.4723445"><ele>715.6666666666666</ele><time>2026-05-01T13:40:16.137Z</time></trkpt><trkpt lat="44.199115" lon="11.472335"><ele>717.8333333333334</ele><time>2026-05-01T13:40:18.137Z</time></trkpt><trkpt lat="44.1990345" lon="11.472321"><ele>720.0</ele><time>2026-05-01T13:40:20.138Z</time></trkpt><trkpt lat="44.1989375" lon="11.4723083"><ele>721.5</ele><time>2026-05-01T13:40:22.138Z</time></trkpt><trkpt lat="44.1988108" lon="11.47228"><ele>723.0</ele><time>2026-05-01T13:40:24.137Z</time></trkpt><trkpt lat="44.198741" lon="11.4722538"><ele>724.5</ele><time>2026-05-01T13:40:25.138Z</time></trkpt><trkpt lat="44.1986678" lon="11.4722203"><ele>726.0</ele><time>2026-05-01T13:40:26.138Z</time></trkpt><trkpt lat="44.1985942" lon="11.4721812"><ele>727.5</ele><time>2026-05-01T13:40:27.138Z</time></trkpt><trkpt lat="44.1985242" lon="11.4721365"><ele>729.0</ele><time>2026-05-01T13:40:28.139Z</time></trkpt><trkpt lat="44.1984552" lon="11.472089"><ele>730.1666666666666</ele><time>2026-05-01T13:40:29.138Z</time></trkpt><trkpt lat="44.1983915" lon="11.47204"><ele>731.3333333333334</ele><time>2026-05-01T13:40:30.138Z</time></trkpt><trkpt lat="44.1983327" lon="11.4719935"><ele>732.5</ele><time>2026-05-01T13:40:31.138Z</time></trkpt><trkpt lat="44.1982232" lon="11.4719462"><ele>733.6666666666667</ele><time>2026-05-01T13:40:33.136Z</time></trkpt><trkpt lat="44.1981098" lon="11.4719978"><ele>734.8333333333334</ele><time>2026-05-01T13:40:35.135Z</time></trkpt><trkpt lat="44.1980372" lon="11.4720138"><ele>736.0</ele><time>2026-05-01T13:40:36.137Z</time></trkpt><trkpt lat="44.1979582" lon="11.4720143"><ele>738.6666666666667</ele><time>2026-05-01T13:40:37.137Z</time></trkpt><trkpt lat="44.197874" lon="11.4720175"><ele>741.3333333333334</ele><time>2026-05-01T13:40:38.137Z</time></trkpt><trkpt lat="44.1977932" lon="11.4720168"><ele>744.0</ele><time>2026-05-01T13:40:39.137Z</time></trkpt><trkpt lat="44.1977203" lon="11.4720157"><ele>746.6666666666666</ele><time>2026-05-01T13:40:40.137Z</time></trkpt><trkpt lat="44.1976408" lon="11.4720158"><ele>749.3333333333333</ele><time>2026-05-01T13:40:41.136Z</time></trkpt><trkpt lat="44.1975583" lon="11.4720153"><ele>752.0</ele><time>2026-05-01T13:40:42.137Z</time></trkpt><trkpt lat="44.1974768" lon="11.4720093"><ele>752.0</ele><time>2026-05-01T13:40:43.139Z</time></trkpt><trkpt lat="44.1973987" lon="11.4720072"><ele>752.0</ele><time>2026-05-01T13:40:44.138Z</time></trkpt><trkpt lat="44.1973248" lon="11.4720105"><ele>752.0</ele><time>2026-05-01T13:40:45.138Z</time></trkpt><trkpt lat="44.1972587" lon="11.4720112"><ele>752.0</ele><time>2026-05-01T13:40:46.139Z</time></trkpt><trkpt lat="44.1971942" lon="11.4719998"><ele>752.0</ele><time>2026-05-01T13:40:47.138Z</time></trkpt><trkpt lat="44.197123" lon="11.4719667"><ele>752.0</ele><time>2026-05-01T13:40:48.138Z</time></trkpt><trkpt lat="44.1970585" lon="11.4719158"><ele>752.0</ele><time>2026-05-01T13:40:49.138Z</time></trkpt><trkpt lat="44.1969923" lon="11.471833"><ele>755.3333333333333</ele><time>2026-05-01T13:40:50.137Z</time></trkpt><trkpt lat="44.1969262" lon="11.471751"><ele>758.6666666666666</ele><time>2026-05-01T13:40:51.138Z</time></trkpt><trkpt lat="44.1968607" lon="11.471678"><ele>762.0</ele><time>2026-05-01T13:40:52.138Z</time></trkpt><trkpt lat="44.196797" lon="11.4716202"><ele>765.3333333333333</ele><time>2026-05-01T13:40:53.139Z</time></trkpt><trkpt lat="44.1967433" lon="11.4715473"><ele>768.6666666666666</ele><time>2026-05-01T13:40:54.139Z</time></trkpt><trkpt lat="44.1966943" lon="11.471464"><ele>772.0</ele><time>2026-05-01T13:40:55.138Z</time></trkpt><trkpt lat="44.1966435" lon="11.4713752"><ele>771.9999999999999</ele><time>2026-05-01T13:40:56.136Z</time></trkpt><trkpt lat="44.196592" lon="11.47129"><ele>772.0</ele><time>2026-05-01T13:40:57.134Z</time></trkpt><trkpt lat="44.1965363" lon="11.4712077"><ele>772.0</ele><time>2026-05-01T13:40:58.136Z</time></trkpt><trkpt lat="44.1964675" lon="11.4711255"><ele>772.0</ele><time>2026-05-01T13:40:59.135Z</time></trkpt><trkpt lat="44.196398" lon="11.471049"><ele>771.9999999999999</ele><time>2026-05-01T13:41:00.137Z</time></trkpt><trkpt lat="44.1963307" lon="11.4709728"><ele>772.0</ele><time>2026-05-01T13:41:01.137Z</time></trkpt><trkpt lat="44.1962648" lon="11.470894"><ele>776.0</ele><time>2026-05-01T13:41:02.141Z</time></trkpt><trkpt lat="44.1961933" lon="11.4708205"><ele>780.0</ele><time>2026-05-01T13:41:03.139Z</time></trkpt><trkpt lat="44.196115" lon="11.4707597"><ele>784.0</ele><time>2026-05-01T13:41:04.138Z</time></trkpt><trkpt lat="44.1960297" lon="11.4707053"><ele>788.0</ele><time>2026-05-01T13:41:05.139Z</time></trkpt><trkpt lat="44.1959413" lon="11.470647"><ele>792.0</ele><time>2026-05-01T13:41:06.139Z</time></trkpt><trkpt lat="44.1958608" lon="11.470578"><ele>792.0</ele><time>2026-05-01T13:41:07.139Z</time></trkpt><trkpt lat="44.1957775" lon="11.4705085"><ele>792.0</ele><time>2026-05-01T13:41:08.139Z</time></trkpt><trkpt lat="44.1956765" lon="11.4704452"><ele>792.0</ele><time>2026-05-01T13:41:09.138Z</time></trkpt><trkpt lat="44.1955715" lon="11.4703893"><ele>792.0</ele><time>2026-05-01T13:41:10.141Z</time></trkpt><trkpt lat="44.1954822" lon="11.4703553"><ele>792.0</ele><time>2026-05-01T13:41:11.138Z</time></trkpt><trkpt lat="44.1954005" lon="11.4703033"><ele>793.3333333333334</ele><time>2026-05-01T13:41:13.137Z</time></trkpt><trkpt lat="44.1953978" lon="11.4701973"><ele>794.6666666666667</ele><time>2026-05-01T13:41:15.137Z</time></trkpt><trkpt lat="44.1953888" lon="11.4700963"><ele>796.0</ele><time>2026-05-01T13:41:17.138Z</time></trkpt><trkpt lat="44.19537" lon="11.4700002"><ele>797.3333333333334</ele><time>2026-05-01T13:41:19.137Z</time></trkpt><trkpt lat="44.1953382" lon="11.4698668"><ele>798.6666666666667</ele><time>2026-05-01T13:41:21.134Z</time></trkpt><trkpt lat="44.1952833" lon="11.4697183"><ele>800.0</ele><time>2026-05-01T13:41:23.138Z</time></trkpt><trkpt lat="44.1952357" lon="11.4696273"><ele>799.5714285714287</ele><time>2026-05-01T13:41:24.135Z</time></trkpt><trkpt lat="44.195189" lon="11.4695322"><ele>799.1428571428571</ele><time>2026-05-01T13:41:25.137Z</time></trkpt><trkpt lat="44.1951552" lon="11.4694383"><ele>798.7142857142858</ele><time>2026-05-01T13:41:26.135Z</time></trkpt><trkpt lat="44.1951285" lon="11.469356"><ele>798.2857142857143</ele><time>2026-05-01T13:41:27.136Z</time></trkpt><trkpt lat="44.1950968" lon="11.4692755"><ele>797.8571428571429</ele><time>2026-05-01T13:41:28.136Z</time></trkpt><trkpt lat="44.1950653" lon="11.4691988"><ele>797.4285714285714</ele><time>2026-05-01T13:41:29.137Z</time></trkpt><trkpt lat="44.1950378" lon="11.4691165"><ele>797.0</ele><time>2026-05-01T13:41:30.136Z</time></trkpt><trkpt lat="44.1950092" lon="11.4690342"><ele>797.0</ele><time>2026-05-01T13:41:31.136Z</time></trkpt><trkpt lat="44.1949802" lon="11.4689528"><ele>797.0</ele><time>2026-05-01T13:41:32.135Z</time></trkpt><trkpt lat="44.1949497" lon="11.4688142"><ele>797.0</ele><time>2026-05-01T13:41:34.137Z</time></trkpt><trkpt lat="44.1949585" lon="11.468699"><ele>797.0</ele><time>2026-05-01T13:41:36.136Z</time></trkpt><trkpt lat="44.1949208" lon="11.4685892"><ele>797.0</ele><time>2026-05-01T13:41:38.136Z</time></trkpt><trkpt lat="44.1948015" lon="11.4684962"><ele>797.1666666666667</ele><time>2026-05-01T13:41:40.139Z</time></trkpt><trkpt lat="44.19472" lon="11.4684525"><ele>797.3333333333334</ele><time>2026-05-01T13:41:41.137Z</time></trkpt><trkpt lat="44.1946393" lon="11.4684122"><ele>797.5</ele><time>2026-05-01T13:41:42.136Z</time></trkpt><trkpt lat="44.1945698" lon="11.4683718"><ele>797.6666666666667</ele><time>2026-05-01T13:41:43.139Z</time></trkpt><trkpt lat="44.1945117" lon="11.4683128"><ele>797.8333333333334</ele><time>2026-05-01T13:41:44.138Z</time></trkpt><trkpt lat="44.1944745" lon="11.4681713"><ele>798.0</ele><time>2026-05-01T13:41:46.134Z</time></trkpt><trkpt lat="44.1945255" lon="11.4680267"><ele>795.75</ele><time>2026-05-01T13:41:48.134Z</time></trkpt><trkpt lat="44.1945348" lon="11.4678585"><ele>793.5</ele><time>2026-05-01T13:41:50.136Z</time></trkpt><trkpt lat="44.194553" lon="11.4677057"><ele>791.25</ele><time>2026-05-01T13:41:52.137Z</time></trkpt><trkpt lat="44.1946287" lon="11.467574"><ele>789.0</ele><time>2026-05-01T13:41:54.136Z</time></trkpt><trkpt lat="44.1946778" lon="11.4674087"><ele>789.0</ele><time>2026-05-01T13:41:56.137Z</time></trkpt><trkpt lat="44.194688" lon="11.4673033"><ele>789.0</ele><time>2026-05-01T13:41:57.138Z</time></trkpt><trkpt lat="44.1946982" lon="11.4671963"><ele>789.0</ele><time>2026-05-01T13:41:58.137Z</time></trkpt><trkpt lat="44.1947062" lon="11.4671005"><ele>789.0</ele><time>2026-05-01T13:41:59.135Z</time></trkpt><trkpt lat="44.1947032" lon="11.467003"><ele>789.0</ele><time>2026-05-01T13:42:00.136Z</time></trkpt><trkpt lat="44.1947147" lon="11.4669133"><ele>789.0</ele><time>2026-05-01T13:42:01.137Z</time></trkpt><trkpt lat="44.1948068" lon="11.466793"><ele>789.3333333333334</ele><time>2026-05-01T13:42:03.137Z</time></trkpt><trkpt lat="44.1948638" lon="11.4667328"><ele>789.6666666666667</ele><time>2026-05-01T13:42:04.139Z</time></trkpt><trkpt lat="44.1949128" lon="11.4666703"><ele>790.0</ele><time>2026-05-01T13:42:05.138Z</time></trkpt><trkpt lat="44.1949875" lon="11.4665577"><ele>790.3333333333334</ele><time>2026-05-01T13:42:07.137Z</time></trkpt><trkpt lat="44.1950572" lon="11.4665323"><ele>790.6666666666667</ele><time>2026-05-01T13:42:10.136Z</time></trkpt><trkpt lat="44.1950912" lon="11.4666685"><ele>791.0</ele><time>2026-05-01T13:42:13.136Z</time></trkpt><trkpt lat="44.1951337" lon="11.4667578"><ele>791.0</ele><time>2026-05-01T13:42:15.137Z</time></trkpt><trkpt lat="44.1951582" lon="11.4666362"><ele>791.0</ele><time>2026-05-01T13:42:19.137Z</time></trkpt><trkpt lat="44.1952025" lon="11.466451"><ele>791.0</ele><time>2026-05-01T13:42:21.14Z</time></trkpt><trkpt lat="44.195243" lon="11.4663445"><ele>791.0</ele><time>2026-05-01T13:42:22.137Z</time></trkpt><trkpt lat="44.1952878" lon="11.4662327"><ele>791.0</ele><time>2026-05-01T13:42:23.137Z</time></trkpt><trkpt lat="44.1953342" lon="11.4661232"><ele>791.5000000000001</ele><time>2026-05-01T13:42:24.137Z</time></trkpt><trkpt lat="44.1953823" lon="11.4660175"><ele>792.0</ele><time>2026-05-01T13:42:25.137Z</time></trkpt><trkpt lat="44.1954263" lon="11.4659188"><ele>792.5</ele><time>2026-05-01T13:42:26.135Z</time></trkpt><trkpt lat="44.195463" lon="11.4658218"><ele>793.0</ele><time>2026-05-01T13:42:27.136Z</time></trkpt><trkpt lat="44.1954838" lon="11.4657228"><ele>793.5000000000001</ele><time>2026-05-01T13:42:28.135Z</time></trkpt><trkpt lat="44.195536" lon="11.4655758"><ele>794.0</ele><time>2026-05-01T13:42:30.136Z</time></trkpt><trkpt lat="44.195643" lon="11.4654947"><ele>794.4285714285714</ele><time>2026-05-01T13:42:32.135Z</time></trkpt><trkpt lat="44.1957043" lon="11.4654662"><ele>794.8571428571429</ele><time>2026-05-01T13:42:33.134Z</time></trkpt><trkpt lat="44.1957687" lon="11.465451"><ele>795.2857142857142</ele><time>2026-05-01T13:42:34.135Z</time></trkpt><trkpt lat="44.1958335" lon="11.4654482"><ele>795.7142857142858</ele><time>2026-05-01T13:42:35.134Z</time></trkpt><trkpt lat="44.195894" lon="11.465412"><ele>796.1428571428572</ele><time>2026-05-01T13:42:47.138Z</time></trkpt><trkpt lat="44.1959378" lon="11.465343"><ele>796.5714285714286</ele><time>2026-05-01T13:42:49.136Z</time></trkpt><trkpt lat="44.1959913" lon="11.4652482"><ele>797.0</ele><time>2026-05-01T13:42:51.137Z</time></trkpt><trkpt lat="44.1960012" lon="11.465156"><ele>798.6</ele><time>2026-05-01T13:42:53.136Z</time></trkpt><trkpt lat="44.195902" lon="11.4651035"><ele>800.2</ele><time>2026-05-01T13:42:56.137Z</time></trkpt><trkpt lat="44.1957965" lon="11.4650502"><ele>801.8</ele><time>2026-05-01T13:42:58.137Z</time></trkpt><trkpt lat="44.1957003" lon="11.4649433"><ele>803.4</ele><time>2026-05-01T13:43:00.135Z</time></trkpt><trkpt lat="44.1956402" lon="11.4648858"><ele>805.0</ele><time>2026-05-01T13:43:01.135Z</time></trkpt><trkpt lat="44.195575" lon="11.4648335"><ele>804.9999999999999</ele><time>2026-05-01T13:43:02.136Z</time></trkpt><trkpt lat="44.1955117" lon="11.46478"><ele>805.0</ele><time>2026-05-01T13:43:03.138Z</time></trkpt><trkpt lat="44.1954492" lon="11.4647205"><ele>805.0</ele><time>2026-05-01T13:43:04.137Z</time></trkpt><trkpt lat="44.1953895" lon="11.4646512"><ele>805.0</ele><time>2026-05-01T13:43:05.137Z</time></trkpt><trkpt lat="44.1953328" lon="11.4645685"><ele>804.9999999999999</ele><time>2026-05-01T13:43:06.137Z</time></trkpt><trkpt lat="44.1953113" lon="11.4644073"><ele>805.0</ele><time>2026-05-01T13:43:08.135Z</time></trkpt><trkpt lat="44.1953488" lon="11.464211"><ele>808.1666666666666</ele><time>2026-05-01T13:43:10.136Z</time></trkpt><trkpt lat="44.195355" lon="11.464102"><ele>811.3333333333333</ele><time>2026-05-01T13:43:11.135Z</time></trkpt><trkpt lat="44.1953408" lon="11.4639917"><ele>814.5</ele><time>2026-05-01T13:43:12.135Z</time></trkpt><trkpt lat="44.1953233" lon="11.463882"><ele>817.6666666666667</ele><time>2026-05-01T13:43:13.135Z</time></trkpt><trkpt lat="44.1952995" lon="11.4637967"><ele>820.8333333333334</ele><time>2026-05-01T13:43:14.134Z</time></trkpt><trkpt lat="44.1952033" lon="11.4636612"><ele>824.0</ele><time>2026-05-01T13:43:16.136Z</time></trkpt><trkpt lat="44.1951475" lon="11.4635728"><ele>826.6666666666667</ele><time>2026-05-01T13:43:17.136Z</time></trkpt><trkpt lat="44.1950973" lon="11.4634867"><ele>829.3333333333334</ele><time>2026-05-01T13:43:18.136Z</time></trkpt><trkpt lat="44.1950467" lon="11.4634143"><ele>832.0</ele><time>2026-05-01T13:43:19.135Z</time></trkpt><trkpt lat="44.1949922" lon="11.4633515"><ele>834.6666666666667</ele><time>2026-05-01T13:43:20.135Z</time></trkpt><trkpt lat="44.194946" lon="11.4632197"><ele>837.3333333333334</ele><time>2026-05-01T13:43:22.135Z</time></trkpt><trkpt lat="44.1949817" lon="11.4630628"><ele>840.0</ele><time>2026-05-01T13:43:24.135Z</time></trkpt><trkpt lat="44.195025" lon="11.4629482"><ele>843.4</ele><time>2026-05-01T13:43:25.132Z</time></trkpt><trkpt lat="44.1950843" lon="11.4628328"><ele>846.8</ele><time>2026-05-01T13:43:26.133Z</time></trkpt><trkpt lat="44.1951415" lon="11.4627213"><ele>850.2</ele><time>2026-05-01T13:43:27.136Z</time></trkpt><trkpt lat="44.1951968" lon="11.4626028"><ele>853.6</ele><time>2026-05-01T13:43:28.135Z</time></trkpt><trkpt lat="44.195255" lon="11.4624735"><ele>857.0</ele><time>2026-05-01T13:43:29.134Z</time></trkpt><trkpt lat="44.1952993" lon="11.4623475"><ele>857.0</ele><time>2026-05-01T13:43:30.135Z</time></trkpt><trkpt lat="44.1953407" lon="11.4622207"><ele>857.0</ele><time>2026-05-01T13:43:31.135Z</time></trkpt><trkpt lat="44.1953798" lon="11.4621012"><ele>857.0</ele><time>2026-05-01T13:43:32.134Z</time></trkpt><trkpt lat="44.195425" lon="11.4619913"><ele>857.0</ele><time>2026-05-01T13:43:33.134Z</time></trkpt><trkpt lat="44.1954583" lon="11.4618772"><ele>857.0</ele><time>2026-05-01T13:43:34.135Z</time></trkpt><trkpt lat="44.195479" lon="11.46176"><ele>857.6</ele><time>2026-05-01T13:43:35.134Z</time></trkpt><trkpt lat="44.1954923" lon="11.4616023"><ele>858.2</ele><time>2026-05-01T13:43:36.135Z</time></trkpt><trkpt lat="44.1954967" lon="11.461438"><ele>858.8</ele><time>2026-05-01T13:43:37.135Z</time></trkpt><trkpt lat="44.1955095" lon="11.4613057"><ele>859.4</ele><time>2026-05-01T13:43:38.134Z</time></trkpt><trkpt lat="44.1955182" lon="11.4611748"><ele>860.0</ele><time>2026-05-01T13:43:39.134Z</time></trkpt><trkpt lat="44.1955448" lon="11.46102"><ele>860.0</ele><time>2026-05-01T13:43:40.135Z</time></trkpt><trkpt lat="44.1955857" lon="11.4608593"><ele>860.0</ele><time>2026-05-01T13:43:41.133Z</time></trkpt><trkpt lat="44.1956238" lon="11.4606928"><ele>860.0</ele><time>2026-05-01T13:43:42.134Z</time></trkpt><trkpt lat="44.1956697" lon="11.4605427"><ele>860.0</ele><time>2026-05-01T13:43:43.133Z</time></trkpt><trkpt lat="44.1957268" lon="11.4604125"><ele>856.6</ele><time>2026-05-01T13:43:44.132Z</time></trkpt><trkpt lat="44.195797" lon="11.4602965"><ele>853.2</ele><time>2026-05-01T13:43:45.134Z</time></trkpt><trkpt lat="44.1958735" lon="11.4602118"><ele>849.8</ele><time>2026-05-01T13:43:46.135Z</time></trkpt><trkpt lat="44.1959613" lon="11.4601537"><ele>846.4</ele><time>2026-05-01T13:43:47.134Z</time></trkpt><trkpt lat="44.1960457" lon="11.4601015"><ele>843.0</ele><time>2026-05-01T13:43:48.136Z</time></trkpt><trkpt lat="44.1961275" lon="11.4600517"><ele>843.0</ele><time>2026-05-01T13:43:49.133Z</time></trkpt><trkpt lat="44.196195" lon="11.4599807"><ele>843.0</ele><time>2026-05-01T13:43:50.132Z</time></trkpt><trkpt lat="44.1962693" lon="11.4598827"><ele>843.0</ele><time>2026-05-01T13:43:51.132Z</time></trkpt><trkpt lat="44.1963552" lon="11.4597585"><ele>843.0</ele><time>2026-05-01T13:43:52.136Z</time></trkpt><trkpt lat="44.1964257" lon="11.4596553"><ele>843.0</ele><time>2026-05-01T13:43:53.135Z</time></trkpt><trkpt lat="44.1965083" lon="11.4595533"><ele>841.75</ele><time>2026-05-01T13:43:54.136Z</time></trkpt><trkpt lat="44.1966065" lon="11.4594485"><ele>840.5</ele><time>2026-05-01T13:43:55.135Z</time></trkpt><trkpt lat="44.1967192" lon="11.459363"><ele>839.25</ele><time>2026-05-01T13:43:56.135Z</time></trkpt><trkpt lat="44.1968255" lon="11.459296"><ele>838.0</ele><time>2026-05-01T13:43:57.135Z</time></trkpt><trkpt lat="44.1969127" lon="11.4592442"><ele>837.9999999999999</ele><time>2026-05-01T13:43:58.138Z</time></trkpt><trkpt lat="44.1969968" lon="11.4592273"><ele>838.0</ele><time>2026-05-01T13:43:59.133Z</time></trkpt><trkpt lat="44.1970827" lon="11.459237"><ele>838.0</ele><time>2026-05-01T13:44:00.136Z</time></trkpt><trkpt lat="44.1971663" lon="11.4592448"><ele>838.0</ele><time>2026-05-01T13:44:01.135Z</time></trkpt><trkpt lat="44.1972395" lon="11.4592293"><ele>837.9999999999999</ele><time>2026-05-01T13:44:02.136Z</time></trkpt><trkpt lat="44.1973133" lon="11.459171"><ele>838.0</ele><time>2026-05-01T13:44:03.135Z</time></trkpt><trkpt lat="44.1973978" lon="11.4591035"><ele>837.5999999999999</ele><time>2026-05-01T13:44:04.135Z</time></trkpt><trkpt lat="44.1974823" lon="11.4590352"><ele>837.1999999999999</ele><time>2026-05-01T13:44:05.136Z</time></trkpt><trkpt lat="44.1975632" lon="11.4589788"><ele>836.8</ele><time>2026-05-01T13:44:06.137Z</time></trkpt><trkpt lat="44.1976528" lon="11.4589233"><ele>836.4</ele><time>2026-05-01T13:44:07.138Z</time></trkpt><trkpt lat="44.1977577" lon="11.4588647"><ele>836.0</ele><time>2026-05-01T13:44:08.136Z</time></trkpt><trkpt lat="44.1978693" lon="11.4587985"><ele>835.75</ele><time>2026-05-01T13:44:09.136Z</time></trkpt><trkpt lat="44.1979793" lon="11.4587245"><ele>835.5</ele><time>2026-05-01T13:44:10.137Z</time></trkpt><trkpt lat="44.1980868" lon="11.4586455"><ele>835.25</ele><time>2026-05-01T13:44:11.136Z</time></trkpt><trkpt lat="44.1981888" lon="11.4585763"><ele>835.0</ele><time>2026-05-01T13:44:12.135Z</time></trkpt><trkpt lat="44.198272" lon="11.4585032"><ele>835.0</ele><time>2026-05-01T13:44:13.134Z</time></trkpt><trkpt lat="44.1983487" lon="11.4584073"><ele>835.0</ele><time>2026-05-01T13:44:14.134Z</time></trkpt><trkpt lat="44.1984212" lon="11.4583025"><ele>835.0</ele><time>2026-05-01T13:44:15.134Z</time></trkpt><trkpt lat="44.1984948" lon="11.4581898"><ele>835.0</ele><time>2026-05-01T13:44:16.136Z</time></trkpt><trkpt lat="44.1985642" lon="11.4580935"><ele>835.0</ele><time>2026-05-01T13:44:17.135Z</time></trkpt><trkpt lat="44.1986193" lon="11.4580122"><ele>834.1428571428572</ele><time>2026-05-01T13:44:18.136Z</time></trkpt><trkpt lat="44.1986595" lon="11.457921"><ele>833.2857142857143</ele><time>2026-05-01T13:44:19.135Z</time></trkpt><trkpt lat="44.1986815" lon="11.4578302"><ele>832.4285714285714</ele><time>2026-05-01T13:44:20.135Z</time></trkpt><trkpt lat="44.1986935" lon="11.4577387"><ele>831.5714285714287</ele><time>2026-05-01T13:44:21.137Z</time></trkpt><trkpt lat="44.1987233" lon="11.4576482"><ele>830.7142857142857</ele><time>2026-05-01T13:44:22.136Z</time></trkpt><trkpt lat="44.1987678" lon="11.4575722"><ele>829.8571428571429</ele><time>2026-05-01T13:44:23.136Z</time></trkpt><trkpt lat="44.198829" lon="11.4575065"><ele>829.0</ele><time>2026-05-01T13:44:24.137Z</time></trkpt><trkpt lat="44.1988962" lon="11.4574595"><ele>828.9999999999999</ele><time>2026-05-01T13:44:25.138Z</time></trkpt><trkpt lat="44.1989535" lon="11.4574173"><ele>829.0</ele><time>2026-05-01T13:44:26.136Z</time></trkpt><trkpt lat="44.1990118" lon="11.4573652"><ele>829.0</ele><time>2026-05-01T13:44:27.136Z</time></trkpt><trkpt lat="44.1990717" lon="11.457301"><ele>829.0</ele><time>2026-05-01T13:44:28.137Z</time></trkpt><trkpt lat="44.199124" lon="11.4572242"><ele>828.9999999999999</ele><time>2026-05-01T13:44:29.136Z</time></trkpt><trkpt lat="44.1991762" lon="11.4571275"><ele>829.0</ele><time>2026-05-01T13:44:30.138Z</time></trkpt><trkpt lat="44.1992255" lon="11.4570352"><ele>830.9999999999999</ele><time>2026-05-01T13:44:31.138Z</time></trkpt><trkpt lat="44.1992743" lon="11.456952"><ele>833.0</ele><time>2026-05-01T13:44:33.137Z</time></trkpt><trkpt lat="44.1993425" lon="11.4569013"><ele>835.0</ele><time>2026-05-01T13:44:47.138Z</time></trkpt><trkpt lat="44.1993977" lon="11.456816"><ele>837.0</ele><time>2026-05-01T13:44:49.137Z</time></trkpt><trkpt lat="44.199462" lon="11.456694"><ele>838.9999999999999</ele><time>2026-05-01T13:44:51.137Z</time></trkpt><trkpt lat="44.1995082" lon="11.4565875"><ele>841.0</ele><time>2026-05-01T13:44:53.137Z</time></trkpt><trkpt lat="44.1995775" lon="11.4564528"><ele>840.9999999999999</ele><time>2026-05-01T13:44:55.137Z</time></trkpt><trkpt lat="44.1996033" lon="11.4562942"><ele>841.0</ele><time>2026-05-01T13:44:57.137Z</time></trkpt><trkpt lat="44.1995998" lon="11.4562017"><ele>841.0</ele><time>2026-05-01T13:44:58.137Z</time></trkpt><trkpt lat="44.1995853" lon="11.4560932"><ele>841.0</ele><time>2026-05-01T13:44:59.138Z</time></trkpt><trkpt lat="44.1995712" lon="11.4559868"><ele>840.9999999999999</ele><time>2026-05-01T13:45:00.136Z</time></trkpt><trkpt lat="44.1995647" lon="11.455876"><ele>841.0</ele><time>2026-05-01T13:45:01.135Z</time></trkpt><trkpt lat="44.1995552" lon="11.455766"><ele>842.1666666666666</ele><time>2026-05-01T13:45:02.134Z</time></trkpt><trkpt lat="44.1995327" lon="11.4556587"><ele>843.3333333333333</ele><time>2026-05-01T13:45:03.133Z</time></trkpt><trkpt lat="44.1994985" lon="11.4555652"><ele>844.5</ele><time>2026-05-01T13:45:04.134Z</time></trkpt><trkpt lat="44.1994608" lon="11.4554762"><ele>845.6666666666667</ele><time>2026-05-01T13:45:05.134Z</time></trkpt><trkpt lat="44.1994368" lon="11.455388"><ele>846.8333333333334</ele><time>2026-05-01T13:45:06.135Z</time></trkpt><trkpt lat="44.1993518" lon="11.4552547"><ele>848.0</ele><time>2026-05-01T13:45:08.135Z</time></trkpt><trkpt lat="44.1992677" lon="11.4552115"><ele>850.0000000000001</ele><time>2026-05-01T13:45:09.136Z</time></trkpt><trkpt lat="44.199178" lon="11.4551827"><ele>852.0</ele><time>2026-05-01T13:45:10.137Z</time></trkpt><trkpt lat="44.1990913" lon="11.4551692"><ele>854.0</ele><time>2026-05-01T13:45:11.134Z</time></trkpt><trkpt lat="44.1990172" lon="11.4551595"><ele>856.0</ele><time>2026-05-01T13:45:12.136Z</time></trkpt><trkpt lat="44.1989217" lon="11.4550713"><ele>858.0000000000001</ele><time>2026-05-01T13:45:14.135Z</time></trkpt><trkpt lat="44.198886" lon="11.4549982"><ele>860.0</ele><time>2026-05-01T13:45:15.136Z</time></trkpt><trkpt lat="44.198832" lon="11.4549443"><ele>860.0</ele><time>2026-05-01T13:45:16.137Z</time></trkpt><trkpt lat="44.1987702" lon="11.4548822"><ele>860.0</ele><time>2026-05-01T13:45:17.136Z</time></trkpt><trkpt lat="44.1986963" lon="11.454813"><ele>860.0</ele><time>2026-05-01T13:45:18.136Z</time></trkpt><trkpt lat="44.198613" lon="11.454741"><ele>860.0</ele><time>2026-05-01T13:45:19.136Z</time></trkpt><trkpt lat="44.1985332" lon="11.454671"><ele>860.0</ele><time>2026-05-01T13:45:20.135Z</time></trkpt><trkpt lat="44.198461" lon="11.4545872"><ele>862.3333333333334</ele><time>2026-05-01T13:45:21.139Z</time></trkpt><trkpt lat="44.198404" lon="11.4545205"><ele>864.6666666666667</ele><time>2026-05-01T13:45:22.135Z</time></trkpt><trkpt lat="44.1983383" lon="11.4544622"><ele>867.0</ele><time>2026-05-01T13:45:23.135Z</time></trkpt><trkpt lat="44.1982735" lon="11.4544002"><ele>869.3333333333333</ele><time>2026-05-01T13:45:24.137Z</time></trkpt><trkpt lat="44.1982225" lon="11.4543357"><ele>871.6666666666666</ele><time>2026-05-01T13:45:25.136Z</time></trkpt><trkpt lat="44.1981505" lon="11.4542183"><ele>874.0</ele><time>2026-05-01T13:45:27.137Z</time></trkpt><trkpt lat="44.1981222" lon="11.4541343"><ele>873.9999999999999</ele><time>2026-05-01T13:45:30.138Z</time></trkpt><trkpt lat="44.1982083" lon="11.4541463"><ele>874.0</ele><time>2026-05-01T13:45:32.137Z</time></trkpt><trkpt lat="44.1982715" lon="11.4541812"><ele>874.0</ele><time>2026-05-01T13:45:33.137Z</time></trkpt><trkpt lat="44.1983702" lon="11.4541968"><ele>874.0</ele><time>2026-05-01T13:45:35.136Z</time></trkpt><trkpt lat="44.1984418" lon="11.4541925"><ele>873.9999999999999</ele><time>2026-05-01T13:45:37.139Z</time></trkpt><trkpt lat="44.1985018" lon="11.4542665"><ele>874.0</ele><time>2026-05-01T13:45:39.138Z</time></trkpt><trkpt lat="44.1985713" lon="11.4543338"><ele>873.9999999999999</ele><time>2026-05-01T13:45:41.137Z</time></trkpt><trkpt lat="44.1986558" lon="11.4543623"><ele>874.0</ele><time>2026-05-01T13:45:43.138Z</time></trkpt><trkpt lat="44.198737" lon="11.4543733"><ele>874.0</ele><time>2026-05-01T13:45:45.138Z</time></trkpt><trkpt lat="44.1988105" lon="11.4543605"><ele>874.0</ele><time>2026-05-01T13:45:50.136Z</time></trkpt><trkpt lat="44.1988767" lon="11.4543108"><ele>873.9999999999999</ele><time>2026-05-01T13:45:54.139Z</time></trkpt><trkpt lat="44.1989685" lon="11.454322"><ele>874.0</ele><time>2026-05-01T13:45:57.139Z</time></trkpt><trkpt lat="44.1990497" lon="11.454377"><ele>874.9999999999999</ele><time>2026-05-01T13:45:59.138Z</time></trkpt><trkpt lat="44.1991632" lon="11.4544118"><ele>876.0</ele><time>2026-05-01T13:46:01.138Z</time></trkpt><trkpt lat="44.199228" lon="11.4544183"><ele>877.0</ele><time>2026-05-01T13:46:02.137Z</time></trkpt><trkpt lat="44.1992935" lon="11.4544195"><ele>878.0</ele><time>2026-05-01T13:46:03.138Z</time></trkpt><trkpt lat="44.1993612" lon="11.4544203"><ele>878.9999999999999</ele><time>2026-05-01T13:46:04.137Z</time></trkpt><trkpt lat="44.199477" lon="11.4544075"><ele>880.0</ele><time>2026-05-01T13:46:06.139Z</time></trkpt><trkpt lat="44.1995402" lon="11.4543757"><ele>879.9999999999999</ele><time>2026-05-01T13:46:07.138Z</time></trkpt><trkpt lat="44.1996142" lon="11.454329"><ele>880.0</ele><time>2026-05-01T13:46:08.137Z</time></trkpt><trkpt lat="44.199694" lon="11.454288"><ele>880.0</ele><time>2026-05-01T13:46:09.137Z</time></trkpt><trkpt lat="44.199763" lon="11.4542698"><ele>880.0</ele><time>2026-05-01T13:46:10.137Z</time></trkpt><trkpt lat="44.1998677" lon="11.454304"><ele>879.9999999999999</ele><time>2026-05-01T13:46:12.138Z</time></trkpt><trkpt lat="44.1998997" lon="11.4544108"><ele>880.0</ele><time>2026-05-01T13:46:14.137Z</time></trkpt><trkpt lat="44.1999415" lon="11.454499"><ele>882.8333333333333</ele><time>2026-05-01T13:46:16.135Z</time></trkpt><trkpt lat="44.2000192" lon="11.4544602"><ele>885.6666666666666</ele><time>2026-05-01T13:46:18.136Z</time></trkpt><trkpt lat="44.2000868" lon="11.4544023"><ele>888.5</ele><time>2026-05-01T13:46:20.138Z</time></trkpt><trkpt lat="44.2001698" lon="11.4544008"><ele>891.3333333333333</ele><time>2026-05-01T13:46:22.137Z</time></trkpt><trkpt lat="44.20024" lon="11.454406"><ele>894.1666666666666</ele><time>2026-05-01T13:46:24.137Z</time></trkpt><trkpt lat="44.200325" lon="11.4543977"><ele>897.0</ele><time>2026-05-01T13:46:26.138Z</time></trkpt><trkpt lat="44.2003927" lon="11.4543957"><ele>897.0</ele><time>2026-05-01T13:46:28.137Z</time></trkpt><trkpt lat="44.2004985" lon="11.4543608"><ele>897.0</ele><time>2026-05-01T13:46:30.137Z</time></trkpt><trkpt lat="44.200562" lon="11.4543262"><ele>897.0</ele><time>2026-05-01T13:46:31.138Z</time></trkpt><trkpt lat="44.2006275" lon="11.4542953"><ele>897.0</ele><time>2026-05-01T13:46:32.137Z</time></trkpt><trkpt lat="44.2007228" lon="11.4542313"><ele>897.0</ele><time>2026-05-01T13:46:34.138Z</time></trkpt><trkpt lat="44.2007518" lon="11.4541195"><ele>897.0</ele><time>2026-05-01T13:46:36.138Z</time></trkpt><trkpt lat="44.2007633" lon="11.4539767"><ele>900.6666666666666</ele><time>2026-05-01T13:46:38.139Z</time></trkpt><trkpt lat="44.200796" lon="11.453824"><ele>904.3333333333333</ele><time>2026-05-01T13:46:40.139Z</time></trkpt><trkpt lat="44.2008297" lon="11.4537478"><ele>908.0</ele><time>2026-05-01T13:46:41.136Z</time></trkpt><trkpt lat="44.200871" lon="11.4536577"><ele>911.6666666666666</ele><time>2026-05-01T13:46:42.137Z</time></trkpt><trkpt lat="44.2009085" lon="11.4535617"><ele>915.3333333333333</ele><time>2026-05-01T13:46:43.136Z</time></trkpt><trkpt lat="44.2009337" lon="11.4534595"><ele>919.0</ele><time>2026-05-01T13:46:44.137Z</time></trkpt><trkpt lat="44.2009612" lon="11.4533558"><ele>919.1666666666666</ele><time>2026-05-01T13:46:45.137Z</time></trkpt><trkpt lat="44.2009973" lon="11.4532672"><ele>919.3333333333333</ele><time>2026-05-01T13:46:46.137Z</time></trkpt><trkpt lat="44.2010527" lon="11.4531642"><ele>919.5</ele><time>2026-05-01T13:46:48.137Z</time></trkpt><trkpt lat="44.2010863" lon="11.4530722"><ele>919.6666666666667</ele><time>2026-05-01T13:46:50.136Z</time></trkpt><trkpt lat="44.2011063" lon="11.4529555"><ele>919.8333333333334</ele><time>2026-05-01T13:46:52.136Z</time></trkpt><trkpt lat="44.201117" lon="11.4528067"><ele>920.0</ele><time>2026-05-01T13:46:54.138Z</time></trkpt><trkpt lat="44.2010702" lon="11.452653"><ele>921.0</ele><time>2026-05-01T13:46:56.137Z</time></trkpt><trkpt lat="44.2010332" lon="11.45253"><ele>922.0</ele><time>2026-05-01T13:46:57.137Z</time></trkpt><trkpt lat="44.2010163" lon="11.4523983"><ele>923.0</ele><time>2026-05-01T13:46:58.137Z</time></trkpt><trkpt lat="44.2009937" lon="11.4522848"><ele>924.0</ele><time>2026-05-01T13:46:59.136Z</time></trkpt><trkpt lat="44.2009738" lon="11.4521968"><ele>925.0</ele><time>2026-05-01T13:47:00.137Z</time></trkpt><trkpt lat="44.2009535" lon="11.4520413"><ele>925.3333333333333</ele><time>2026-05-01T13:47:02.136Z</time></trkpt><trkpt lat="44.2009388" lon="11.4519508"><ele>925.6666666666666</ele><time>2026-05-01T13:47:03.136Z</time></trkpt><trkpt lat="44.2009118" lon="11.4518585"><ele>926.0</ele><time>2026-05-01T13:47:04.135Z</time></trkpt><trkpt lat="44.2008812" lon="11.451754"><ele>926.3333333333333</ele><time>2026-05-01T13:47:05.134Z</time></trkpt><trkpt lat="44.200841" lon="11.4516455"><ele>926.6666666666666</ele><time>2026-05-01T13:47:06.134Z</time></trkpt><trkpt lat="44.2007847" lon="11.4515298"><ele>927.0</ele><time>2026-05-01T13:47:07.133Z</time></trkpt><trkpt lat="44.2007398" lon="11.4514095"><ele>927.1666666666666</ele><time>2026-05-01T13:47:08.135Z</time></trkpt><trkpt lat="44.2007083" lon="11.4512823"><ele>927.3333333333333</ele><time>2026-05-01T13:47:09.135Z</time></trkpt><trkpt lat="44.200704" lon="11.4511533"><ele>927.5</ele><time>2026-05-01T13:47:10.136Z</time></trkpt><trkpt lat="44.200707" lon="11.451063"><ele>927.6666666666666</ele><time>2026-05-01T13:47:11.135Z</time></trkpt><trkpt lat="44.200688" lon="11.4509028"><ele>927.8333333333333</ele><time>2026-05-01T13:47:13.137Z</time></trkpt><trkpt lat="44.2006712" lon="11.4508052"><ele>928.0</ele><time>2026-05-01T13:47:14.138Z</time></trkpt><trkpt lat="44.2006558" lon="11.4507057"><ele>926.1666666666666</ele><time>2026-05-01T13:47:15.136Z</time></trkpt><trkpt lat="44.2006448" lon="11.4506042"><ele>924.3333333333333</ele><time>2026-05-01T13:47:16.136Z</time></trkpt><trkpt lat="44.2006222" lon="11.4505082"><ele>922.5</ele><time>2026-05-01T13:47:17.137Z</time></trkpt><trkpt lat="44.2005983" lon="11.4503992"><ele>920.6666666666667</ele><time>2026-05-01T13:47:18.137Z</time></trkpt><trkpt lat="44.200592" lon="11.4502707"><ele>918.8333333333334</ele><time>2026-05-01T13:47:19.137Z</time></trkpt><trkpt lat="44.2005935" lon="11.4501362"><ele>917.0</ele><time>2026-05-01T13:47:20.136Z</time></trkpt><trkpt lat="44.200566" lon="11.4499927"><ele>916.4000000000001</ele><time>2026-05-01T13:47:21.136Z</time></trkpt><trkpt lat="44.2005235" lon="11.4498358"><ele>915.8000000000001</ele><time>2026-05-01T13:47:22.137Z</time></trkpt><trkpt lat="44.2004988" lon="11.4496872"><ele>915.2</ele><time>2026-05-01T13:47:23.138Z</time></trkpt><trkpt lat="44.2004938" lon="11.4495425"><ele>914.6</ele><time>2026-05-01T13:47:24.137Z</time></trkpt><trkpt lat="44.2005018" lon="11.4494167"><ele>914.0</ele><time>2026-05-01T13:47:25.137Z</time></trkpt><trkpt lat="44.2004957" lon="11.4493077"><ele>914.0000000000001</ele><time>2026-05-01T13:47:26.137Z</time></trkpt><trkpt lat="44.2004707" lon="11.4492055"><ele>914.0</ele><time>2026-05-01T13:47:27.137Z</time></trkpt><trkpt lat="44.200435" lon="11.4490902"><ele>914.0</ele><time>2026-05-01T13:47:28.136Z</time></trkpt><trkpt lat="44.2003932" lon="11.4489727"><ele>914.0</ele><time>2026-05-01T13:47:29.135Z</time></trkpt><trkpt lat="44.2003477" lon="11.4488822"><ele>914.0000000000001</ele><time>2026-05-01T13:47:30.135Z</time></trkpt><trkpt lat="44.2002922" lon="11.4487613"><ele>914.0</ele><time>2026-05-01T13:47:32.136Z</time></trkpt><trkpt lat="44.2002328" lon="11.44871"><ele>913.8000000000001</ele><time>2026-05-01T13:47:33.137Z</time></trkpt><trkpt lat="44.2001582" lon="11.448642"><ele>913.6000000000001</ele><time>2026-05-01T13:47:34.137Z</time></trkpt><trkpt lat="44.2000628" lon="11.4485432"><ele>913.4</ele><time>2026-05-01T13:47:35.137Z</time></trkpt><trkpt lat="44.1999653" lon="11.4484517"><ele>913.2</ele><time>2026-05-01T13:47:36.137Z</time></trkpt><trkpt lat="44.1998883" lon="11.4483582"><ele>913.0</ele><time>2026-05-01T13:47:37.138Z</time></trkpt><trkpt lat="44.1998318" lon="11.4482673"><ele>912.9999999999999</ele><time>2026-05-01T13:47:38.136Z</time></trkpt><trkpt lat="44.1997748" lon="11.4481747"><ele>913.0</ele><time>2026-05-01T13:47:39.136Z</time></trkpt><trkpt lat="44.1997105" lon="11.4480775"><ele>913.0</ele><time>2026-05-01T13:47:40.137Z</time></trkpt><trkpt lat="44.1996488" lon="11.4479937"><ele>913.0</ele><time>2026-05-01T13:47:41.137Z</time></trkpt><trkpt lat="44.1995895" lon="11.447922"><ele>912.9999999999999</ele><time>2026-05-01T13:47:42.139Z</time></trkpt><trkpt lat="44.199547" lon="11.4478312"><ele>913.0</ele><time>2026-05-01T13:47:43.137Z</time></trkpt><trkpt lat="44.199525" lon="11.4477142"><ele>916.0</ele><time>2026-05-01T13:47:44.136Z</time></trkpt><trkpt lat="44.1995017" lon="11.4476038"><ele>919.0</ele><time>2026-05-01T13:47:45.136Z</time></trkpt><trkpt lat="44.1994302" lon="11.4474878"><ele>922.0</ele><time>2026-05-01T13:47:47.139Z</time></trkpt><trkpt lat="44.199373" lon="11.4473473"><ele>925.0</ele><time>2026-05-01T13:47:49.137Z</time></trkpt><trkpt lat="44.1993553" lon="11.4472312"><ele>928.0</ele><time>2026-05-01T13:47:50.136Z</time></trkpt><trkpt lat="44.199327" lon="11.4470888"><ele>929.2</ele><time>2026-05-01T13:47:51.137Z</time></trkpt><trkpt lat="44.1992917" lon="11.4469525"><ele>930.4</ele><time>2026-05-01T13:47:52.137Z</time></trkpt><trkpt lat="44.1992792" lon="11.4467973"><ele>931.6000000000001</ele><time>2026-05-01T13:47:53.135Z</time></trkpt><trkpt lat="44.1992825" lon="11.4466265"><ele>932.8000000000001</ele><time>2026-05-01T13:47:54.135Z</time></trkpt><trkpt lat="44.199281" lon="11.4464762"><ele>934.0</ele><time>2026-05-01T13:47:55.135Z</time></trkpt><trkpt lat="44.1992587" lon="11.4463445"><ele>934.8000000000001</ele><time>2026-05-01T13:47:56.135Z</time></trkpt><trkpt lat="44.1992343" lon="11.4462395"><ele>935.6000000000001</ele><time>2026-05-01T13:47:57.137Z</time></trkpt><trkpt lat="44.1992017" lon="11.4461055"><ele>936.4</ele><time>2026-05-01T13:47:59.136Z</time></trkpt><trkpt lat="44.1992027" lon="11.4459745"><ele>937.2</ele><time>2026-05-01T13:48:01.136Z</time></trkpt><trkpt lat="44.1992143" lon="11.445789"><ele>938.0</ele><time>2026-05-01T13:48:03.135Z</time></trkpt><trkpt lat="44.1992322" lon="11.4456882"><ele>938.0</ele><time>2026-05-01T13:48:04.137Z</time></trkpt><trkpt lat="44.199259" lon="11.445521"><ele>938.0</ele><time>2026-05-01T13:48:06.137Z</time></trkpt><trkpt lat="44.1992715" lon="11.4453602"><ele>938.0</ele><time>2026-05-01T13:48:08.136Z</time></trkpt><trkpt lat="44.1992813" lon="11.445195"><ele>938.0</ele><time>2026-05-01T13:48:10.135Z</time></trkpt><trkpt lat="44.1992413" lon="11.4450273"><ele>941.0</ele><time>2026-05-01T13:48:12.135Z</time></trkpt><trkpt lat="44.1992215" lon="11.4449425"><ele>944.0</ele><time>2026-05-01T13:48:13.136Z</time></trkpt><trkpt lat="44.1991938" lon="11.4447837"><ele>947.0</ele><time>2026-05-01T13:48:15.136Z</time></trkpt><trkpt lat="44.1991223" lon="11.4446385"><ele>950.0</ele><time>2026-05-01T13:48:17.135Z</time></trkpt><trkpt lat="44.1990617" lon="11.4445708"><ele>953.0</ele><time>2026-05-01T13:48:18.135Z</time></trkpt><trkpt lat="44.1989913" lon="11.444498"><ele>954.4</ele><time>2026-05-01T13:48:19.134Z</time></trkpt><trkpt lat="44.1989267" lon="11.4444035"><ele>955.8</ele><time>2026-05-01T13:48:20.135Z</time></trkpt><trkpt lat="44.1988582" lon="11.444295"><ele>957.2</ele><time>2026-05-01T13:48:21.135Z</time></trkpt><trkpt lat="44.1987718" lon="11.444184"><ele>958.6</ele><time>2026-05-01T13:48:22.136Z</time></trkpt><trkpt lat="44.198676" lon="11.444072"><ele>960.0</ele><time>2026-05-01T13:48:23.136Z</time></trkpt><trkpt lat="44.1985707" lon="11.443961"><ele>960.0</ele><time>2026-05-01T13:48:24.139Z</time></trkpt><trkpt lat="44.1984783" lon="11.4438738"><ele>960.0</ele><time>2026-05-01T13:48:25.137Z</time></trkpt><trkpt lat="44.1984095" lon="11.4437925"><ele>960.0</ele><time>2026-05-01T13:48:26.137Z</time></trkpt><trkpt lat="44.1983653" lon="11.4437013"><ele>960.0</ele><time>2026-05-01T13:48:27.138Z</time></trkpt><trkpt lat="44.1983373" lon="11.4435962"><ele>960.0</ele><time>2026-05-01T13:48:28.138Z</time></trkpt><trkpt lat="44.1983248" lon="11.44348"><ele>960.0</ele><time>2026-05-01T13:48:29.139Z</time></trkpt><trkpt lat="44.198339" lon="11.4433743"><ele>962.6</ele><time>2026-05-01T13:48:30.137Z</time></trkpt><trkpt lat="44.198392" lon="11.4432645"><ele>965.2</ele><time>2026-05-01T13:48:31.139Z</time></trkpt><trkpt lat="44.1984418" lon="11.4431403"><ele>967.8</ele><time>2026-05-01T13:48:32.139Z</time></trkpt><trkpt lat="44.1984865" lon="11.4430245"><ele>970.4</ele><time>2026-05-01T13:48:33.138Z</time></trkpt><trkpt lat="44.1985368" lon="11.442923"><ele>973.0</ele><time>2026-05-01T13:48:34.14Z</time></trkpt><trkpt lat="44.1985792" lon="11.4428348"><ele>972.9999999999999</ele><time>2026-05-01T13:48:35.141Z</time></trkpt><trkpt lat="44.198623" lon="11.4427135"><ele>973.0</ele><time>2026-05-01T13:48:37.138Z</time></trkpt><trkpt lat="44.1986128" lon="11.4426163"><ele>973.0</ele><time>2026-05-01T13:48:40.139Z</time></trkpt><trkpt lat="44.198605" lon="11.4425172"><ele>973.0</ele><time>2026-05-01T13:48:44.136Z</time></trkpt><trkpt lat="44.1986275" lon="11.4424182"><ele>972.9999999999999</ele><time>2026-05-01T13:48:48.138Z</time></trkpt><trkpt lat="44.198682" lon="11.4423187"><ele>973.0</ele><time>2026-05-01T13:48:51.136Z</time></trkpt><trkpt lat="44.1987112" lon="11.442238"><ele>970.4999999999999</ele><time>2026-05-01T13:48:53.137Z</time></trkpt><trkpt lat="44.198696" lon="11.4420877"><ele>968.0</ele><time>2026-05-01T13:48:55.139Z</time></trkpt><trkpt lat="44.1987017" lon="11.441955"><ele>965.5</ele><time>2026-05-01T13:48:57.138Z</time></trkpt><trkpt lat="44.198727" lon="11.4418495"><ele>963.0</ele><time>2026-05-01T13:48:59.14Z</time></trkpt><trkpt lat="44.1987552" lon="11.4417462"><ele>960.4999999999999</ele><time>2026-05-01T13:49:01.137Z</time></trkpt><trkpt lat="44.1987918" lon="11.4416493"><ele>958.0</ele><time>2026-05-01T13:49:03.136Z</time></trkpt><trkpt lat="44.1988275" lon="11.4415263"><ele>958.0</ele><time>2026-05-01T13:49:05.137Z</time></trkpt><trkpt lat="44.1988755" lon="11.4413877"><ele>958.0</ele><time>2026-05-01T13:49:07.135Z</time></trkpt><trkpt lat="44.1988958" lon="11.441257"><ele>958.0</ele><time>2026-05-01T13:49:09.136Z</time></trkpt><trkpt lat="44.1989197" lon="11.4411205"><ele>958.0</ele><time>2026-05-01T13:49:11.136Z</time></trkpt><trkpt lat="44.1989108" lon="11.4409668"><ele>958.0</ele><time>2026-05-01T13:49:13.136Z</time></trkpt><trkpt lat="44.1989252" lon="11.440825"><ele>960.2</ele><time>2026-05-01T13:49:15.157Z</time></trkpt><trkpt lat="44.19897" lon="11.4406845"><ele>962.4</ele><time>2026-05-01T13:49:17.157Z</time></trkpt><trkpt lat="44.199019" lon="11.4405332"><ele>964.6000000000001</ele><time>2026-05-01T13:49:19.136Z</time></trkpt><trkpt lat="44.1990532" lon="11.4404565"><ele>966.8000000000001</ele><time>2026-05-01T13:49:20.137Z</time></trkpt><trkpt lat="44.1990858" lon="11.4403753"><ele>969.0</ele><time>2026-05-01T13:49:21.136Z</time></trkpt><trkpt lat="44.1991378" lon="11.4402427"><ele>969.0</ele><time>2026-05-01T13:49:23.136Z</time></trkpt><trkpt lat="44.1991812" lon="11.440179"><ele>969.0</ele><time>2026-05-01T13:49:24.136Z</time></trkpt><trkpt lat="44.1992263" lon="11.4401172"><ele>969.0</ele><time>2026-05-01T13:49:25.135Z</time></trkpt><trkpt lat="44.1992672" lon="11.4400487"><ele>969.0</ele><time>2026-05-01T13:49:26.135Z</time></trkpt><trkpt lat="44.1993085" lon="11.4399055"><ele>969.0</ele><time>2026-05-01T13:49:28.137Z</time></trkpt><trkpt lat="44.1993357" lon="11.4397667"><ele>969.0</ele><time>2026-05-01T13:49:30.135Z</time></trkpt><trkpt lat="44.1993152" lon="11.4396085"><ele>966.2</ele><time>2026-05-01T13:49:32.133Z</time></trkpt><trkpt lat="44.1992968" lon="11.43952"><ele>963.4000000000001</ele><time>2026-05-01T13:49:33.133Z</time></trkpt><trkpt lat="44.1992523" lon="11.4393562"><ele>960.6</ele><time>2026-05-01T13:49:35.135Z</time></trkpt><trkpt lat="44.1992307" lon="11.439244"><ele>957.8</ele><time>2026-05-01T13:49:36.137Z</time></trkpt><trkpt lat="44.1992055" lon="11.4391272"><ele>955.0</ele><time>2026-05-01T13:49:37.138Z</time></trkpt><trkpt lat="44.1991753" lon="11.4389923"><ele>954.9999999999999</ele><time>2026-05-01T13:49:38.136Z</time></trkpt><trkpt lat="44.1991492" lon="11.4388665"><ele>955.0</ele><time>2026-05-01T13:49:39.138Z</time></trkpt><trkpt lat="44.1991247" lon="11.4387403"><ele>955.0</ele><time>2026-05-01T13:49:40.137Z</time></trkpt><trkpt lat="44.1991038" lon="11.438619"><ele>955.0</ele><time>2026-05-01T13:49:41.137Z</time></trkpt><trkpt lat="44.1990945" lon="11.4385072"><ele>954.9999999999999</ele><time>2026-05-01T13:49:42.137Z</time></trkpt><trkpt lat="44.1990883" lon="11.4384038"><ele>955.0</ele><time>2026-05-01T13:49:43.136Z</time></trkpt><trkpt lat="44.1990722" lon="11.4383065"><ele>952.4999999999999</ele><time>2026-05-01T13:49:44.137Z</time></trkpt><trkpt lat="44.1990495" lon="11.4382227"><ele>950.0</ele><time>2026-05-01T13:49:45.137Z</time></trkpt><trkpt lat="44.1990138" lon="11.4381227"><ele>947.5</ele><time>2026-05-01T13:49:46.138Z</time></trkpt><trkpt lat="44.1989952" lon="11.4380293"><ele>945.0</ele><time>2026-05-01T13:49:47.136Z</time></trkpt><trkpt lat="44.1990008" lon="11.437852"><ele>942.4999999999999</ele><time>2026-05-01T13:49:49.136Z</time></trkpt><trkpt lat="44.1990027" lon="11.4377578"><ele>940.0</ele><time>2026-05-01T13:49:50.137Z</time></trkpt><trkpt lat="44.1990037" lon="11.4376598"><ele>940.0</ele><time>2026-05-01T13:49:51.138Z</time></trkpt><trkpt lat="44.199017" lon="11.4375703"><ele>940.0</ele><time>2026-05-01T13:49:52.137Z</time></trkpt><trkpt lat="44.1990277" lon="11.4374015"><ele>940.0</ele><time>2026-05-01T13:49:54.139Z</time></trkpt><trkpt lat="44.1990223" lon="11.4372693"><ele>940.0</ele><time>2026-05-01T13:49:56.134Z</time></trkpt><trkpt lat="44.1990102" lon="11.437136"><ele>940.0</ele><time>2026-05-01T13:49:58.137Z</time></trkpt><trkpt lat="44.1990198" lon="11.4369842"><ele>940.4</ele><time>2026-05-01T13:50:00.136Z</time></trkpt><trkpt lat="44.199042" lon="11.436837"><ele>940.8</ele><time>2026-05-01T13:50:02.136Z</time></trkpt><trkpt lat="44.199047" lon="11.436674"><ele>941.2</ele><time>2026-05-01T13:50:04.137Z</time></trkpt><trkpt lat="44.1990525" lon="11.4365557"><ele>941.6</ele><time>2026-05-01T13:50:06.136Z</time></trkpt><trkpt lat="44.1990293" lon="11.4364183"><ele>942.0</ele><time>2026-05-01T13:50:08.137Z</time></trkpt><trkpt lat="44.1990187" lon="11.4362783"><ele>942.0</ele><time>2026-05-01T13:50:10.137Z</time></trkpt><trkpt lat="44.1990028" lon="11.4361162"><ele>942.0</ele><time>2026-05-01T13:50:12.137Z</time></trkpt><trkpt lat="44.1989815" lon="11.4360072"><ele>942.0</ele><time>2026-05-01T13:50:13.137Z</time></trkpt><trkpt lat="44.1989622" lon="11.4359122"><ele>942.0</ele><time>2026-05-01T13:50:14.139Z</time></trkpt><trkpt lat="44.1989442" lon="11.4357752"><ele>942.0</ele><time>2026-05-01T13:50:16.137Z</time></trkpt><trkpt lat="44.1989572" lon="11.4356578"><ele>941.0</ele><time>2026-05-01T13:50:18.136Z</time></trkpt><trkpt lat="44.1989703" lon="11.4354987"><ele>940.0</ele><time>2026-05-01T13:50:20.133Z</time></trkpt><trkpt lat="44.1989677" lon="11.4354093"><ele>939.0</ele><time>2026-05-01T13:50:21.135Z</time></trkpt><trkpt lat="44.1990073" lon="11.4352815"><ele>938.0</ele><time>2026-05-01T13:50:23.135Z</time></trkpt><trkpt lat="44.1990613" lon="11.4351808"><ele>937.0</ele><time>2026-05-01T13:50:25.136Z</time></trkpt><trkpt lat="44.1991047" lon="11.435085"><ele>936.9999999999999</ele><time>2026-05-01T13:50:27.136Z</time></trkpt><trkpt lat="44.1991425" lon="11.4349762"><ele>937.0</ele><time>2026-05-01T13:50:29.135Z</time></trkpt><trkpt lat="44.1991872" lon="11.4348705"><ele>937.0</ele><time>2026-05-01T13:50:31.136Z</time></trkpt><trkpt lat="44.1992273" lon="11.4347692"><ele>937.0</ele><time>2026-05-01T13:50:33.137Z</time></trkpt><trkpt lat="44.1992633" lon="11.4346695"><ele>936.9999999999999</ele><time>2026-05-01T13:50:35.136Z</time></trkpt><trkpt lat="44.1993188" lon="11.4345505"><ele>937.0</ele><time>2026-05-01T13:50:37.136Z</time></trkpt><trkpt lat="44.1993737" lon="11.4344163"><ele>933.0</ele><time>2026-05-01T13:50:39.136Z</time></trkpt><trkpt lat="44.1994152" lon="11.4342735"><ele>929.0</ele><time>2026-05-01T13:50:41.136Z</time></trkpt><trkpt lat="44.1994715" lon="11.4341182"><ele>925.0</ele><time>2026-05-01T13:50:43.137Z</time></trkpt><trkpt lat="44.199486" lon="11.4339733"><ele>921.0</ele><time>2026-05-01T13:50:45.134Z</time></trkpt><trkpt lat="44.1994782" lon="11.433794"><ele>919.0</ele><time>2026-05-01T13:50:47.133Z</time></trkpt><trkpt lat="44.1994813" lon="11.4336898"><ele>917.0</ele><time>2026-05-01T13:50:48.134Z</time></trkpt><trkpt lat="44.1995025" lon="11.4335163"><ele>915.0</ele><time>2026-05-01T13:50:50.135Z</time></trkpt><trkpt lat="44.1995098" lon="11.4334193"><ele>913.0</ele><time>2026-05-01T13:50:51.135Z</time></trkpt><trkpt lat="44.1995068" lon="11.4333075"><ele>911.0</ele><time>2026-05-01T13:50:52.136Z</time></trkpt><trkpt lat="44.1995073" lon="11.4332005"><ele>909.0</ele><time>2026-05-01T13:50:53.135Z</time></trkpt><trkpt lat="44.1995152" lon="11.433113"><ele>908.8000000000001</ele><time>2026-05-01T13:50:54.136Z</time></trkpt><trkpt lat="44.1994815" lon="11.4329668"><ele>908.6000000000001</ele><time>2026-05-01T13:50:56.136Z</time></trkpt><trkpt lat="44.1994275" lon="11.4328217"><ele>908.4</ele><time>2026-05-01T13:50:58.136Z</time></trkpt><trkpt lat="44.1993712" lon="11.4327042"><ele>908.2</ele><time>2026-05-01T13:51:00.136Z</time></trkpt><trkpt lat="44.1993282" lon="11.4326308"><ele>908.0</ele><time>2026-05-01T13:51:01.137Z</time></trkpt><trkpt lat="44.1992865" lon="11.4325548"><ele>908.0000000000001</ele><time>2026-05-01T13:51:02.135Z</time></trkpt><trkpt lat="44.1992653" lon="11.4323833"><ele>908.0</ele><time>2026-05-01T13:51:04.136Z</time></trkpt><trkpt lat="44.199257" lon="11.4322582"><ele>908.0</ele><time>2026-05-01T13:51:06.136Z</time></trkpt><trkpt lat="44.1992438" lon="11.4321675"><ele>908.0</ele><time>2026-05-01T13:51:09.134Z</time></trkpt><trkpt lat="44.1992225" lon="11.4320833"><ele>908.0000000000001</ele><time>2026-05-01T13:51:12.133Z</time></trkpt><trkpt lat="44.1991863" lon="11.4319632"><ele>908.0</ele><time>2026-05-01T13:51:15.136Z</time></trkpt><trkpt lat="44.1991245" lon="11.4318747"><ele>907.1666666666667</ele><time>2026-05-01T13:51:17.135Z</time></trkpt><trkpt lat="44.1990435" lon="11.4317577"><ele>906.3333333333334</ele><time>2026-05-01T13:51:19.135Z</time></trkpt><trkpt lat="44.1989977" lon="11.4316973"><ele>905.5</ele><time>2026-05-01T13:51:20.135Z</time></trkpt><trkpt lat="44.1989498" lon="11.4316383"><ele>904.6666666666667</ele><time>2026-05-01T13:51:21.135Z</time></trkpt><trkpt lat="44.198893" lon="11.4315643"><ele>903.8333333333334</ele><time>2026-05-01T13:51:23.135Z</time></trkpt><trkpt lat="44.1988415" lon="11.4314782"><ele>903.0</ele><time>2026-05-01T13:51:26.135Z</time></trkpt><trkpt lat="44.1988092" lon="11.4313973"><ele>899.1428571428571</ele><time>2026-05-01T13:51:28.135Z</time></trkpt><trkpt lat="44.198773" lon="11.4312962"><ele>895.2857142857142</ele><time>2026-05-01T13:51:32.135Z</time></trkpt><trkpt lat="44.1987385" lon="11.4312095"><ele>891.4285714285714</ele><time>2026-05-01T13:51:37.136Z</time></trkpt><trkpt lat="44.1987033" lon="11.4311018"><ele>887.5714285714286</ele><time>2026-05-01T13:51:40.136Z</time></trkpt><trkpt lat="44.198706" lon="11.4309977"><ele>883.7142857142857</ele><time>2026-05-01T13:51:43.135Z</time></trkpt><trkpt lat="44.198704" lon="11.4309085"><ele>879.8571428571429</ele><time>2026-05-01T13:51:46.137Z</time></trkpt><trkpt lat="44.1987172" lon="11.4308102"><ele>876.0</ele><time>2026-05-01T13:51:49.136Z</time></trkpt><trkpt lat="44.1987642" lon="11.4307077"><ele>876.0</ele><time>2026-05-01T13:51:53.136Z</time></trkpt><trkpt lat="44.198812" lon="11.4306342"><ele>876.0</ele><time>2026-05-01T13:51:55.136Z</time></trkpt><trkpt lat="44.1988693" lon="11.4305428"><ele>876.0</ele><time>2026-05-01T13:51:57.136Z</time></trkpt><trkpt lat="44.1989172" lon="11.430471"><ele>876.0</ele><time>2026-05-01T13:51:59.134Z</time></trkpt><trkpt lat="44.1989603" lon="11.430386"><ele>876.0</ele><time>2026-05-01T13:52:03.137Z</time></trkpt><trkpt lat="44.1990168" lon="11.4302883"><ele>876.0</ele><time>2026-05-01T13:52:06.138Z</time></trkpt><trkpt lat="44.1990638" lon="11.4302147"><ele>875.3333333333334</ele><time>2026-05-01T13:52:08.136Z</time></trkpt><trkpt lat="44.199107" lon="11.4301215"><ele>874.6666666666667</ele><time>2026-05-01T13:52:10.136Z</time></trkpt><trkpt lat="44.1991673" lon="11.4300347"><ele>874.0</ele><time>2026-05-01T13:52:12.136Z</time></trkpt><trkpt lat="44.1992095" lon="11.4299277"><ele>873.3333333333334</ele><time>2026-05-01T13:52:14.136Z</time></trkpt><trkpt lat="44.1992358" lon="11.4298325"><ele>872.6666666666667</ele><time>2026-05-01T13:52:16.137Z</time></trkpt><trkpt lat="44.1992787" lon="11.4297287"><ele>872.0</ele><time>2026-05-01T13:52:18.136Z</time></trkpt><trkpt lat="44.1993287" lon="11.4296202"><ele>868.0</ele><time>2026-05-01T13:52:20.137Z</time></trkpt><trkpt lat="44.1993855" lon="11.429501"><ele>864.0</ele><time>2026-05-01T13:52:22.135Z</time></trkpt><trkpt lat="44.1994467" lon="11.4293692"><ele>860.0</ele><time>2026-05-01T13:52:24.135Z</time></trkpt><trkpt lat="44.1995085" lon="11.429262"><ele>856.0</ele><time>2026-05-01T13:52:26.135Z</time></trkpt><trkpt lat="44.1995675" lon="11.4292258"><ele>852.0</ele><time>2026-05-01T13:52:28.137Z</time></trkpt><trkpt lat="44.1996145" lon="11.4291508"><ele>852.0</ele><time>2026-05-01T13:52:30.137Z</time></trkpt><trkpt lat="44.1997045" lon="11.4291583"><ele>852.0</ele><time>2026-05-01T13:52:33.137Z</time></trkpt><trkpt lat="44.1997697" lon="11.4290927"><ele>852.0</ele><time>2026-05-01T13:52:36.136Z</time></trkpt><trkpt lat="44.1997977" lon="11.4289845"><ele>852.0</ele><time>2026-05-01T13:52:39.136Z</time></trkpt><trkpt lat="44.1998417" lon="11.4288942"><ele>852.0</ele><time>2026-05-01T13:52:41.136Z</time></trkpt><trkpt lat="44.1998967" lon="11.4288032"><ele>852.0</ele><time>2026-05-01T13:52:43.137Z</time></trkpt><trkpt lat="44.1999607" lon="11.4287135"><ele>850.6666666666666</ele><time>2026-05-01T13:52:45.136Z</time></trkpt><trkpt lat="44.2000092" lon="11.4286348"><ele>849.3333333333333</ele><time>2026-05-01T13:52:47.133Z</time></trkpt><trkpt lat="44.2000575" lon="11.4285472"><ele>848.0</ele><time>2026-05-01T13:52:49.133Z</time></trkpt><trkpt lat="44.200123" lon="11.4284892"><ele>846.6666666666666</ele><time>2026-05-01T13:52:51.135Z</time></trkpt><trkpt lat="44.2001858" lon="11.4284108"><ele>845.3333333333333</ele><time>2026-05-01T13:52:53.135Z</time></trkpt><trkpt lat="44.2002343" lon="11.4283195"><ele>844.0</ele><time>2026-05-01T13:52:55.136Z</time></trkpt><trkpt lat="44.2002942" lon="11.4282413"><ele>843.9999999999999</ele><time>2026-05-01T13:52:57.136Z</time></trkpt><trkpt lat="44.2003525" lon="11.4281565"><ele>844.0</ele><time>2026-05-01T13:52:59.138Z</time></trkpt><trkpt lat="44.2004127" lon="11.4280868"><ele>844.0</ele><time>2026-05-01T13:53:01.136Z</time></trkpt><trkpt lat="44.2004687" lon="11.4280313"><ele>844.0</ele><time>2026-05-01T13:53:03.137Z</time></trkpt><trkpt lat="44.2005343" lon="11.4279703"><ele>843.9999999999999</ele><time>2026-05-01T13:53:05.135Z</time></trkpt><trkpt lat="44.2005965" lon="11.427903"><ele>844.0</ele><time>2026-05-01T13:53:07.136Z</time></trkpt><trkpt lat="44.2006515" lon="11.4278135"><ele>841.0</ele><time>2026-05-01T13:53:09.136Z</time></trkpt><trkpt lat="44.2006837" lon="11.4277135"><ele>838.0</ele><time>2026-05-01T13:53:11.134Z</time></trkpt><trkpt lat="44.2007167" lon="11.4276148"><ele>835.0</ele><time>2026-05-01T13:53:13.134Z</time></trkpt><trkpt lat="44.2007603" lon="11.4275413"><ele>832.0</ele><time>2026-05-01T13:53:15.135Z</time></trkpt><trkpt lat="44.2008152" lon="11.4274857"><ele>829.0</ele><time>2026-05-01T13:53:18.138Z</time></trkpt><trkpt lat="44.2008602" lon="11.427386"><ele>826.0</ele><time>2026-05-01T13:53:21.137Z</time></trkpt><trkpt lat="44.200892" lon="11.4273023"><ele>823.0</ele><time>2026-05-01T13:53:23.136Z</time></trkpt><trkpt lat="44.2009258" lon="11.4272132"><ele>820.4285714285714</ele><time>2026-05-01T13:53:26.136Z</time></trkpt><trkpt lat="44.2009543" lon="11.4271348"><ele>817.8571428571429</ele><time>2026-05-01T13:53:32.135Z</time></trkpt><trkpt lat="44.2009853" lon="11.427037"><ele>815.2857142857142</ele><time>2026-05-01T13:53:47.136Z</time></trkpt><trkpt lat="44.2010028" lon="11.4269415"><ele>812.7142857142858</ele><time>2026-05-01T13:53:53.136Z</time></trkpt><trkpt lat="44.2010247" lon="11.4268418"><ele>810.1428571428571</ele><time>2026-05-01T13:53:58.137Z</time></trkpt><trkpt lat="44.2011035" lon="11.4268068"><ele>807.5714285714286</ele><time>2026-05-01T13:54:03.135Z</time></trkpt><trkpt lat="44.2011833" lon="11.4268057"><ele>805.0</ele><time>2026-05-01T13:54:07.137Z</time></trkpt><trkpt lat="44.2012583" lon="11.4267973"><ele>804.9999999999999</ele><time>2026-05-01T13:54:10.137Z</time></trkpt><trkpt lat="44.2013285" lon="11.4268437"><ele>805.0</ele><time>2026-05-01T13:54:14.137Z</time></trkpt><trkpt lat="44.2013857" lon="11.4267917"><ele>805.0</ele><time>2026-05-01T13:54:18.136Z</time></trkpt><trkpt lat="44.201446" lon="11.426715"><ele>805.0</ele><time>2026-05-01T13:54:21.137Z</time></trkpt><trkpt lat="44.201501" lon="11.4267968"><ele>804.9999999999999</ele><time>2026-05-01T13:54:24.136Z</time></trkpt><trkpt lat="44.201516" lon="11.4268958"><ele>805.0</ele><time>2026-05-01T13:54:27.135Z</time></trkpt><trkpt lat="44.2015647" lon="11.4269822"><ele>803.9999999999999</ele><time>2026-05-01T13:54:30.136Z</time></trkpt><trkpt lat="44.2016088" lon="11.4270692"><ele>803.0</ele><time>2026-05-01T13:54:34.136Z</time></trkpt><trkpt lat="44.2016302" lon="11.4271637"><ele>802.0</ele><time>2026-05-01T13:54:37.136Z</time></trkpt><trkpt lat="44.2016375" lon="11.427259"><ele>801.0</ele><time>2026-05-01T13:54:41.135Z</time></trkpt><trkpt lat="44.2016245" lon="11.427385"><ele>799.9999999999999</ele><time>2026-05-01T13:54:46.135Z</time></trkpt><trkpt lat="44.2015955" lon="11.4274857"><ele>799.0</ele><time>2026-05-01T13:54:48.135Z</time></trkpt><trkpt lat="44.201665" lon="11.4275373"><ele>798.9999999999999</ele><time>2026-05-01T13:54:55.135Z</time></trkpt><trkpt lat="44.201728" lon="11.4275562"><ele>799.0</ele><time>2026-05-01T13:54:57.135Z</time></trkpt><trkpt lat="44.2018142" lon="11.4275653"><ele>799.0</ele><time>2026-05-01T13:55:00.136Z</time></trkpt><trkpt lat="44.2019093" lon="11.4275882"><ele>799.0</ele><time>2026-05-01T13:55:03.135Z</time></trkpt><trkpt lat="44.2019778" lon="11.4275698"><ele>798.9999999999999</ele><time>2026-05-01T13:55:05.134Z</time></trkpt><trkpt lat="44.202049" lon="11.4275207"><ele>799.0</ele><time>2026-05-01T13:55:07.134Z</time></trkpt><trkpt lat="44.2021137" lon="11.427439"><ele>798.9999999999999</ele><time>2026-05-01T13:55:09.133Z</time></trkpt><trkpt lat="44.2021648" lon="11.4273632"><ele>799.0</ele><time>2026-05-01T13:55:11.133Z</time></trkpt><trkpt lat="44.2022365" lon="11.4273233"><ele>799.0</ele><time>2026-05-01T13:55:13.134Z</time></trkpt><trkpt lat="44.2023255" lon="11.4273027"><ele>799.0</ele><time>2026-05-01T13:55:15.133Z</time></trkpt><trkpt lat="44.2024108" lon="11.4273357"><ele>798.9999999999999</ele><time>2026-05-01T13:55:17.132Z</time></trkpt><trkpt lat="44.2024527" lon="11.4274435"><ele>799.0</ele><time>2026-05-01T13:55:19.135Z</time></trkpt><trkpt lat="44.2025357" lon="11.427497"><ele>794.6</ele><time>2026-05-01T13:55:22.134Z</time></trkpt><trkpt lat="44.2026792" lon="11.427468"><ele>790.2</ele><time>2026-05-01T13:55:24.134Z</time></trkpt><trkpt lat="44.2027838" lon="11.4274585"><ele>785.8000000000001</ele><time>2026-05-01T13:55:25.134Z</time></trkpt><trkpt lat="44.2028815" lon="11.4274417"><ele>781.4000000000001</ele><time>2026-05-01T13:55:26.132Z</time></trkpt><trkpt lat="44.2029712" lon="11.4274115"><ele>777.0</ele><time>2026-05-01T13:55:27.132Z</time></trkpt><trkpt lat="44.2030588" lon="11.4273628"><ele>777.0</ele><time>2026-05-01T13:55:28.133Z</time></trkpt><trkpt lat="44.2031427" lon="11.4273148"><ele>777.0</ele><time>2026-05-01T13:55:29.133Z</time></trkpt><trkpt lat="44.203221" lon="11.427276"><ele>777.0</ele><time>2026-05-01T13:55:30.134Z</time></trkpt><trkpt lat="44.2032925" lon="11.4272545"><ele>777.0</ele><time>2026-05-01T13:55:31.135Z</time></trkpt><trkpt lat="44.2033568" lon="11.4272608"><ele>777.0</ele><time>2026-05-01T13:55:32.135Z</time></trkpt><trkpt lat="44.2034695" lon="11.4273298"><ele>777.0</ele><time>2026-05-01T13:55:34.133Z</time></trkpt><trkpt lat="44.203569" lon="11.4274665"><ele>778.1666666666666</ele><time>2026-05-01T13:55:36.135Z</time></trkpt><trkpt lat="44.2036202" lon="11.4275273"><ele>779.3333333333333</ele><time>2026-05-01T13:55:37.134Z</time></trkpt><trkpt lat="44.2036918" lon="11.4275868"><ele>780.5</ele><time>2026-05-01T13:55:38.535Z</time></trkpt><trkpt lat="44.203741" lon="11.4277027"><ele>781.6666666666666</ele><time>2026-05-01T13:55:40.133Z</time></trkpt><trkpt lat="44.2037805" lon="11.427796"><ele>782.8333333333333</ele><time>2026-05-01T13:55:41.133Z</time></trkpt><trkpt lat="44.2038272" lon="11.4278903"><ele>784.0</ele><time>2026-05-01T13:55:42.134Z</time></trkpt><trkpt lat="44.2038475" lon="11.4279805"><ele>783.9999999999999</ele><time>2026-05-01T13:55:43.135Z</time></trkpt><trkpt lat="44.2038993" lon="11.4280772"><ele>784.0</ele><time>2026-05-01T13:55:44.134Z</time></trkpt><trkpt lat="44.2039432" lon="11.428167"><ele>784.0</ele><time>2026-05-01T13:55:45.135Z</time></trkpt><trkpt lat="44.2039727" lon="11.4282657"><ele>784.0</ele><time>2026-05-01T13:55:46.135Z</time></trkpt><trkpt lat="44.2040083" lon="11.4283422"><ele>783.9999999999999</ele><time>2026-05-01T13:55:47.134Z</time></trkpt><trkpt lat="44.204005" lon="11.428459"><ele>784.0</ele><time>2026-05-01T13:55:49.136Z</time></trkpt><trkpt lat="44.2040355" lon="11.4286053"><ele>778.6</ele><time>2026-05-01T13:55:51.136Z</time></trkpt><trkpt lat="44.2040875" lon="11.4286753"><ele>773.2</ele><time>2026-05-01T13:55:52.134Z</time></trkpt><trkpt lat="44.2041743" lon="11.4287743"><ele>767.8000000000001</ele><time>2026-05-01T13:55:54.134Z</time></trkpt><trkpt lat="44.2042337" lon="11.4288923"><ele>762.4000000000001</ele><time>2026-05-01T13:55:56.135Z</time></trkpt><trkpt lat="44.2042695" lon="11.4290075"><ele>757.0</ele><time>2026-05-01T13:55:58.133Z</time></trkpt><trkpt lat="44.2043395" lon="11.4291072"><ele>757.0</ele><time>2026-05-01T13:56:00.134Z</time></trkpt><trkpt lat="44.204367" lon="11.4292107"><ele>757.0</ele><time>2026-05-01T13:56:02.135Z</time></trkpt><trkpt lat="44.2043777" lon="11.429354"><ele>757.0</ele><time>2026-05-01T13:56:04.134Z</time></trkpt><trkpt lat="44.2043493" lon="11.4295153"><ele>757.0</ele><time>2026-05-01T13:56:06.134Z</time></trkpt><trkpt lat="44.2042813" lon="11.4296315"><ele>757.0</ele><time>2026-05-01T13:56:08.135Z</time></trkpt><trkpt lat="44.2042293" lon="11.4297588"><ele>756.8333333333334</ele><time>2026-05-01T13:56:10.135Z</time></trkpt><trkpt lat="44.2041892" lon="11.4299175"><ele>756.6666666666667</ele><time>2026-05-01T13:56:12.134Z</time></trkpt><trkpt lat="44.2042292" lon="11.4300752"><ele>756.5</ele><time>2026-05-01T13:56:14.135Z</time></trkpt><trkpt lat="44.2042757" lon="11.4301512"><ele>756.3333333333334</ele><time>2026-05-01T13:56:15.134Z</time></trkpt><trkpt lat="44.2043143" lon="11.4302225"><ele>756.1666666666666</ele><time>2026-05-01T13:56:16.135Z</time></trkpt><trkpt lat="44.2043503" lon="11.4303102"><ele>756.0</ele><time>2026-05-01T13:56:17.135Z</time></trkpt><trkpt lat="44.2043788" lon="11.430401"><ele>755.1428571428571</ele><time>2026-05-01T13:56:18.136Z</time></trkpt><trkpt lat="44.2043905" lon="11.4305"><ele>754.2857142857142</ele><time>2026-05-01T13:56:19.135Z</time></trkpt><trkpt lat="44.2043872" lon="11.43061"><ele>753.4285714285714</ele><time>2026-05-01T13:56:20.135Z</time></trkpt><trkpt lat="44.2043735" lon="11.4307148"><ele>752.5714285714286</ele><time>2026-05-01T13:56:21.135Z</time></trkpt><trkpt lat="44.2043817" lon="11.430814"><ele>751.7142857142857</ele><time>2026-05-01T13:56:22.135Z</time></trkpt><trkpt lat="44.2044208" lon="11.4308993"><ele>750.8571428571429</ele><time>2026-05-01T13:56:24.136Z</time></trkpt><trkpt lat="44.2044845" lon="11.4309318"><ele>750.0</ele><time>2026-05-01T13:56:30.133Z</time></trkpt><trkpt lat="44.2045257" lon="11.4310232"><ele>750.0</ele><time>2026-05-01T13:56:33.134Z</time></trkpt><trkpt lat="44.2045505" lon="11.4311673"><ele>750.0</ele><time>2026-05-01T13:56:35.136Z</time></trkpt><trkpt lat="44.204575" lon="11.431328"><ele>750.0</ele><time>2026-05-01T13:56:37.134Z</time></trkpt><trkpt lat="44.2046083" lon="11.4314618"><ele>750.0</ele><time>2026-05-01T13:56:39.135Z</time></trkpt><trkpt lat="44.2046808" lon="11.4315558"><ele>750.0</ele><time>2026-05-01T13:56:41.135Z</time></trkpt><trkpt lat="44.2047987" lon="11.4315555"><ele>745.2</ele><time>2026-05-01T13:56:43.136Z</time></trkpt><trkpt lat="44.2049025" lon="11.4314743"><ele>740.4</ele><time>2026-05-01T13:56:45.135Z</time></trkpt><trkpt lat="44.2050123" lon="11.4314495"><ele>735.5999999999999</ele><time>2026-05-01T13:56:47.136Z</time></trkpt><trkpt lat="44.2050672" lon="11.4315502"><ele>730.8</ele><time>2026-05-01T13:56:49.136Z</time></trkpt><trkpt lat="44.2051198" lon="11.4316225"><ele>726.0</ele><time>2026-05-01T13:56:51.135Z</time></trkpt><trkpt lat="44.2051752" lon="11.4315457"><ele>726.0</ele><time>2026-05-01T13:56:54.134Z</time></trkpt><trkpt lat="44.2051708" lon="11.4314053"><ele>726.0</ele><time>2026-05-01T13:56:56.136Z</time></trkpt><trkpt lat="44.2051778" lon="11.4313005"><ele>726.0</ele><time>2026-05-01T13:56:58.136Z</time></trkpt><trkpt lat="44.2051867" lon="11.431161"><ele>726.0</ele><time>2026-05-01T13:57:02.136Z</time></trkpt><trkpt lat="44.2051915" lon="11.4310183"><ele>726.0</ele><time>2026-05-01T13:57:04.137Z</time></trkpt><trkpt lat="44.205239" lon="11.4308553"><ele>726.0</ele><time>2026-05-01T13:57:06.136Z</time></trkpt><trkpt lat="44.205291" lon="11.4307705"><ele>726.0</ele><time>2026-05-01T13:57:07.137Z</time></trkpt><trkpt lat="44.2053597" lon="11.4306935"><ele>726.0</ele><time>2026-05-01T13:57:08.136Z</time></trkpt><trkpt lat="44.2054335" lon="11.4306195"><ele>726.0</ele><time>2026-05-01T13:57:09.136Z</time></trkpt><trkpt lat="44.2055035" lon="11.430539"><ele>726.0</ele><time>2026-05-01T13:57:10.137Z</time></trkpt><trkpt lat="44.2055618" lon="11.4304477"><ele>726.0</ele><time>2026-05-01T13:57:11.136Z</time></trkpt><trkpt lat="44.2056063" lon="11.4303433"><ele>727.3333333333334</ele><time>2026-05-01T13:57:12.137Z</time></trkpt><trkpt lat="44.2056318" lon="11.4302295"><ele>728.6666666666666</ele><time>2026-05-01T13:57:13.136Z</time></trkpt><trkpt lat="44.2056338" lon="11.430106"><ele>730.0</ele><time>2026-05-01T13:57:14.136Z</time></trkpt><trkpt lat="44.2056203" lon="11.4299798"><ele>731.3333333333333</ele><time>2026-05-01T13:57:15.136Z</time></trkpt><trkpt lat="44.2056072" lon="11.4298557"><ele>732.6666666666666</ele><time>2026-05-01T13:57:16.135Z</time></trkpt><trkpt lat="44.2056042" lon="11.4297352"><ele>734.0</ele><time>2026-05-01T13:57:17.135Z</time></trkpt><trkpt lat="44.205627" lon="11.4296213"><ele>730.4000000000001</ele><time>2026-05-01T13:57:18.135Z</time></trkpt><trkpt lat="44.205672" lon="11.429516"><ele>726.8</ele><time>2026-05-01T13:57:19.135Z</time></trkpt><trkpt lat="44.2057312" lon="11.42942"><ele>723.2</ele><time>2026-05-01T13:57:20.136Z</time></trkpt><trkpt lat="44.20579" lon="11.4293215"><ele>719.5999999999999</ele><time>2026-05-01T13:57:21.135Z</time></trkpt><trkpt lat="44.2058333" lon="11.4292068"><ele>716.0</ele><time>2026-05-01T13:57:22.136Z</time></trkpt><trkpt lat="44.2058578" lon="11.4290758"><ele>716.0</ele><time>2026-05-01T13:57:23.136Z</time></trkpt><trkpt lat="44.2058698" lon="11.4289348"><ele>716.0</ele><time>2026-05-01T13:57:24.136Z</time></trkpt><trkpt lat="44.2058773" lon="11.4287918"><ele>716.0</ele><time>2026-05-01T13:57:25.136Z</time></trkpt><trkpt lat="44.2058838" lon="11.4286492"><ele>716.0</ele><time>2026-05-01T13:57:26.135Z</time></trkpt><trkpt lat="44.2058892" lon="11.4285072"><ele>716.0</ele><time>2026-05-01T13:57:27.136Z</time></trkpt><trkpt lat="44.2058932" lon="11.4283663"><ele>715.1999999999999</ele><time>2026-05-01T13:57:28.137Z</time></trkpt><trkpt lat="44.205898" lon="11.4282228"><ele>714.4</ele><time>2026-05-01T13:57:29.136Z</time></trkpt><trkpt lat="44.2059053" lon="11.4280775"><ele>713.6</ele><time>2026-05-01T13:57:30.137Z</time></trkpt><trkpt lat="44.2059092" lon="11.4279347"><ele>712.8</ele><time>2026-05-01T13:57:31.137Z</time></trkpt><trkpt lat="44.2059063" lon="11.4277943"><ele>712.0</ele><time>2026-05-01T13:57:32.136Z</time></trkpt><trkpt lat="44.2059" lon="11.4276512"><ele>710.4000000000001</ele><time>2026-05-01T13:57:33.138Z</time></trkpt><trkpt lat="44.2058968" lon="11.427506"><ele>708.8000000000001</ele><time>2026-05-01T13:57:34.137Z</time></trkpt><trkpt lat="44.2058985" lon="11.4273642"><ele>707.2</ele><time>2026-05-01T13:57:35.137Z</time></trkpt><trkpt lat="44.2059043" lon="11.4272218"><ele>705.6</ele><time>2026-05-01T13:57:36.137Z</time></trkpt><trkpt lat="44.2059115" lon="11.4270757"><ele>704.0</ele><time>2026-05-01T13:57:37.136Z</time></trkpt><trkpt lat="44.2059203" lon="11.4269275"><ele>701.1666666666666</ele><time>2026-05-01T13:57:38.136Z</time></trkpt><trkpt lat="44.2059338" lon="11.4267967"><ele>698.3333333333333</ele><time>2026-05-01T13:57:39.137Z</time></trkpt><trkpt lat="44.2059582" lon="11.4266897"><ele>695.5</ele><time>2026-05-01T13:57:40.137Z</time></trkpt><trkpt lat="44.2059963" lon="11.4266065"><ele>692.6666666666666</ele><time>2026-05-01T13:57:41.135Z</time></trkpt><trkpt lat="44.2060457" lon="11.4265423"><ele>689.8333333333334</ele><time>2026-05-01T13:57:42.135Z</time></trkpt><trkpt lat="44.2061063" lon="11.4264997"><ele>687.0</ele><time>2026-05-01T13:57:43.135Z</time></trkpt><trkpt lat="44.2061793" lon="11.4264878"><ele>687.0</ele><time>2026-05-01T13:57:44.135Z</time></trkpt><trkpt lat="44.2062587" lon="11.4265053"><ele>687.0</ele><time>2026-05-01T13:57:45.139Z</time></trkpt><trkpt lat="44.2063443" lon="11.4265557"><ele>687.0</ele><time>2026-05-01T13:57:46.139Z</time></trkpt><trkpt lat="44.2064292" lon="11.4266323"><ele>687.0</ele><time>2026-05-01T13:57:47.138Z</time></trkpt><trkpt lat="44.2065112" lon="11.426726"><ele>687.0</ele><time>2026-05-01T13:57:48.138Z</time></trkpt><trkpt lat="44.2065937" lon="11.426828"><ele>684.2</ele><time>2026-05-01T13:57:49.139Z</time></trkpt><trkpt lat="44.2066778" lon="11.4269363"><ele>681.4000000000001</ele><time>2026-05-01T13:57:50.137Z</time></trkpt><trkpt lat="44.2067558" lon="11.4270515"><ele>678.5999999999999</ele><time>2026-05-01T13:57:51.137Z</time></trkpt><trkpt lat="44.2068205" lon="11.4271745"><ele>675.8</ele><time>2026-05-01T13:57:52.138Z</time></trkpt><trkpt lat="44.2068692" lon="11.427308"><ele>673.0</ele><time>2026-05-01T13:57:53.137Z</time></trkpt><trkpt lat="44.2068992" lon="11.4274472"><ele>673.0</ele><time>2026-05-01T13:57:54.137Z</time></trkpt><trkpt lat="44.2069265" lon="11.4275898"><ele>673.0</ele><time>2026-05-01T13:57:55.138Z</time></trkpt><trkpt lat="44.2069725" lon="11.4277375"><ele>673.0</ele><time>2026-05-01T13:57:56.137Z</time></trkpt><trkpt lat="44.2070372" lon="11.4278897"><ele>673.0</ele><time>2026-05-01T13:57:57.137Z</time></trkpt><trkpt lat="44.2071102" lon="11.428047"><ele>674.5</ele><time>2026-05-01T13:57:58.138Z</time></trkpt><trkpt lat="44.2071877" lon="11.4282038"><ele>676.0</ele><time>2026-05-01T13:57:59.137Z</time></trkpt><trkpt lat="44.2072598" lon="11.4283615"><ele>677.5</ele><time>2026-05-01T13:58:00.138Z</time></trkpt><trkpt lat="44.2073207" lon="11.4285232"><ele>679.0</ele><time>2026-05-01T13:58:01.137Z</time></trkpt><trkpt lat="44.207362" lon="11.4286877"><ele>671.75</ele><time>2026-05-01T13:58:02.137Z</time></trkpt><trkpt lat="44.2073915" lon="11.428857"><ele>664.5</ele><time>2026-05-01T13:58:03.138Z</time></trkpt><trkpt lat="44.2074257" lon="11.4290188"><ele>657.25</ele><time>2026-05-01T13:58:04.137Z</time></trkpt><trkpt lat="44.2074838" lon="11.4291577"><ele>650.0</ele><time>2026-05-01T13:58:05.135Z</time></trkpt><trkpt lat="44.2075617" lon="11.4292682"><ele>650.0</ele><time>2026-05-01T13:58:06.134Z</time></trkpt><trkpt lat="44.2076613" lon="11.4293382"><ele>650.0</ele><time>2026-05-01T13:58:07.133Z</time></trkpt><trkpt lat="44.2077783" lon="11.4293822"><ele>650.0</ele><time>2026-05-01T13:58:08.133Z</time></trkpt><trkpt lat="44.2078993" lon="11.4294032"><ele>650.0</ele><time>2026-05-01T13:58:09.134Z</time></trkpt><trkpt lat="44.2080183" lon="11.429417"><ele>650.0</ele><time>2026-05-01T13:58:10.135Z</time></trkpt><trkpt lat="44.2081383" lon="11.429421"><ele>650.0</ele><time>2026-05-01T13:58:11.136Z</time></trkpt><trkpt lat="44.2082568" lon="11.4294275"><ele>650.0</ele><time>2026-05-01T13:58:12.135Z</time></trkpt><trkpt lat="44.2083733" lon="11.4294308"><ele>650.0</ele><time>2026-05-01T13:58:13.136Z</time></trkpt><trkpt lat="44.2084867" lon="11.4294475"><ele>649.2</ele><time>2026-05-01T13:58:14.135Z</time></trkpt><trkpt lat="44.2085913" lon="11.4294948"><ele>648.4</ele><time>2026-05-01T13:58:15.136Z</time></trkpt><trkpt lat="44.2086828" lon="11.4295745"><ele>647.5999999999999</ele><time>2026-05-01T13:58:16.137Z</time></trkpt><trkpt lat="44.2087642" lon="11.4296697"><ele>646.8</ele><time>2026-05-01T13:58:17.136Z</time></trkpt><trkpt lat="44.2088393" lon="11.4297708"><ele>646.0</ele><time>2026-05-01T13:58:18.137Z</time></trkpt><trkpt lat="44.2089153" lon="11.4298695"><ele>646.0</ele><time>2026-05-01T13:58:19.139Z</time></trkpt><trkpt lat="44.2089908" lon="11.42996"><ele>646.0</ele><time>2026-05-01T13:58:20.136Z</time></trkpt><trkpt lat="44.2090597" lon="11.4300335"><ele>646.0</ele><time>2026-05-01T13:58:21.136Z</time></trkpt><trkpt lat="44.209126" lon="11.4300713"><ele>646.0</ele><time>2026-05-01T13:58:22.137Z</time></trkpt><trkpt lat="44.2092165" lon="11.4299993"><ele>646.0</ele><time>2026-05-01T13:58:24.137Z</time></trkpt><trkpt lat="44.2092122" lon="11.4299093"><ele>646.0</ele><time>2026-05-01T13:58:25.138Z</time></trkpt><trkpt lat="44.2091882" lon="11.4298002"><ele>641.1999999999999</ele><time>2026-05-01T13:58:26.138Z</time></trkpt><trkpt lat="44.209157" lon="11.429676"><ele>636.4</ele><time>2026-05-01T13:58:27.138Z</time></trkpt><trkpt lat="44.2091297" lon="11.4295478"><ele>631.6</ele><time>2026-05-01T13:58:28.137Z</time></trkpt><trkpt lat="44.2091107" lon="11.4294198"><ele>626.8</ele><time>2026-05-01T13:58:29.139Z</time></trkpt><trkpt lat="44.2091068" lon="11.4292948"><ele>622.0</ele><time>2026-05-01T13:58:30.134Z</time></trkpt><trkpt lat="44.2091265" lon="11.429173"><ele>621.3333333333334</ele><time>2026-05-01T13:58:31.136Z</time></trkpt><trkpt lat="44.2091643" lon="11.4290655"><ele>620.6666666666667</ele><time>2026-05-01T13:58:32.135Z</time></trkpt><trkpt lat="44.2092155" lon="11.428971"><ele>620.0</ele><time>2026-05-01T13:58:33.135Z</time></trkpt><trkpt lat="44.2092692" lon="11.4288933"><ele>619.3333333333334</ele><time>2026-05-01T13:58:34.136Z</time></trkpt><trkpt lat="44.2093202" lon="11.4288028"><ele>618.6666666666666</ele><time>2026-05-01T13:58:35.135Z</time></trkpt><trkpt lat="44.2093523" lon="11.4286973"><ele>618.0</ele><time>2026-05-01T13:58:36.135Z</time></trkpt><trkpt lat="44.2093542" lon="11.4285752"><ele>617.1666666666666</ele><time>2026-05-01T13:58:37.135Z</time></trkpt><trkpt lat="44.2093367" lon="11.4284533"><ele>616.3333333333334</ele><time>2026-05-01T13:58:38.135Z</time></trkpt><trkpt lat="44.2093008" lon="11.4283445"><ele>615.5</ele><time>2026-05-01T13:58:39.135Z</time></trkpt><trkpt lat="44.2092467" lon="11.4282615"><ele>614.6666666666667</ele><time>2026-05-01T13:58:40.136Z</time></trkpt><trkpt lat="44.2091765" lon="11.4282012"><ele>613.8333333333334</ele><time>2026-05-01T13:58:41.135Z</time></trkpt><trkpt lat="44.2091018" lon="11.4281493"><ele>613.0</ele><time>2026-05-01T13:58:42.135Z</time></trkpt><trkpt lat="44.2090298" lon="11.4280865"><ele>616.4</ele><time>2026-05-01T13:58:43.135Z</time></trkpt><trkpt lat="44.2089605" lon="11.4280092"><ele>619.8</ele><time>2026-05-01T13:58:44.135Z</time></trkpt><trkpt lat="44.2089028" lon="11.4279175"><ele>623.2</ele><time>2026-05-01T13:58:45.137Z</time></trkpt><trkpt lat="44.2088523" lon="11.4278162"><ele>626.6</ele><time>2026-05-01T13:58:46.137Z</time></trkpt><trkpt lat="44.2088075" lon="11.4277033"><ele>630.0</ele><time>2026-05-01T13:58:47.137Z</time></trkpt><trkpt lat="44.2087703" lon="11.4275802"><ele>630.0</ele><time>2026-05-01T13:58:48.137Z</time></trkpt><trkpt lat="44.2087407" lon="11.4274503"><ele>630.0</ele><time>2026-05-01T13:58:49.136Z</time></trkpt><trkpt lat="44.2087248" lon="11.427314"><ele>630.0</ele><time>2026-05-01T13:58:50.137Z</time></trkpt><trkpt lat="44.2087265" lon="11.4271767"><ele>630.0</ele><time>2026-05-01T13:58:51.137Z</time></trkpt><trkpt lat="44.2087383" lon="11.4270458"><ele>630.0</ele><time>2026-05-01T13:58:52.137Z</time></trkpt><trkpt lat="44.2087375" lon="11.4269202"><ele>627.8</ele><time>2026-05-01T13:58:53.136Z</time></trkpt><trkpt lat="44.2087077" lon="11.4268093"><ele>625.6</ele><time>2026-05-01T13:58:54.134Z</time></trkpt><trkpt lat="44.2086542" lon="11.4267185"><ele>623.4</ele><time>2026-05-01T13:58:55.133Z</time></trkpt><trkpt lat="44.2085825" lon="11.4266338"><ele>621.2</ele><time>2026-05-01T13:58:56.134Z</time></trkpt><trkpt lat="44.2085117" lon="11.4265347"><ele>619.0</ele><time>2026-05-01T13:58:57.135Z</time></trkpt><trkpt lat="44.2084503" lon="11.4264222"><ele>615.2</ele><time>2026-05-01T13:58:58.135Z</time></trkpt><trkpt lat="44.2084015" lon="11.4262972"><ele>611.4</ele><time>2026-05-01T13:58:59.137Z</time></trkpt><trkpt lat="44.2083672" lon="11.4261605"><ele>607.6</ele><time>2026-05-01T13:59:00.137Z</time></trkpt><trkpt lat="44.2083532" lon="11.4260147"><ele>603.8</ele><time>2026-05-01T13:59:01.136Z</time></trkpt><trkpt lat="44.2083647" lon="11.4258678"><ele>600.0</ele><time>2026-05-01T13:59:02.136Z</time></trkpt><trkpt lat="44.208393" lon="11.425722"><ele>600.0</ele><time>2026-05-01T13:59:03.137Z</time></trkpt><trkpt lat="44.2084237" lon="11.4255783"><ele>600.0</ele><time>2026-05-01T13:59:04.137Z</time></trkpt><trkpt lat="44.208441" lon="11.4254327"><ele>600.0</ele><time>2026-05-01T13:59:05.136Z</time></trkpt><trkpt lat="44.2084292" lon="11.4252888"><ele>600.0</ele><time>2026-05-01T13:59:06.136Z</time></trkpt><trkpt lat="44.208381" lon="11.425168"><ele>600.0</ele><time>2026-05-01T13:59:07.137Z</time></trkpt><trkpt lat="44.2083075" lon="11.4250803"><ele>600.6666666666666</ele><time>2026-05-01T13:59:08.137Z</time></trkpt><trkpt lat="44.2082327" lon="11.4250038"><ele>601.3333333333334</ele><time>2026-05-01T13:59:09.137Z</time></trkpt><trkpt lat="44.2081763" lon="11.4249183"><ele>602.0</ele><time>2026-05-01T13:59:10.138Z</time></trkpt><trkpt lat="44.208152" lon="11.4248273"><ele>602.6666666666667</ele><time>2026-05-01T13:59:11.137Z</time></trkpt><trkpt lat="44.2082255" lon="11.4247305"><ele>603.3333333333334</ele><time>2026-05-01T13:59:13.137Z</time></trkpt><trkpt lat="44.2082917" lon="11.4247665"><ele>604.0</ele><time>2026-05-01T13:59:14.136Z</time></trkpt><trkpt lat="44.2083573" lon="11.4248493"><ele>600.0</ele><time>2026-05-01T13:59:15.137Z</time></trkpt><trkpt lat="44.2084367" lon="11.4249453"><ele>596.0</ele><time>2026-05-01T13:59:16.137Z</time></trkpt><trkpt lat="44.20853" lon="11.4250263"><ele>592.0</ele><time>2026-05-01T13:59:17.137Z</time></trkpt><trkpt lat="44.2086248" lon="11.4250982"><ele>588.0</ele><time>2026-05-01T13:59:18.136Z</time></trkpt><trkpt lat="44.208708" lon="11.4251872"><ele>584.0</ele><time>2026-05-01T13:59:19.135Z</time></trkpt><trkpt lat="44.2087638" lon="11.4253043"><ele>584.0</ele><time>2026-05-01T13:59:20.135Z</time></trkpt><trkpt lat="44.2087887" lon="11.4254372"><ele>584.0</ele><time>2026-05-01T13:59:21.135Z</time></trkpt><trkpt lat="44.2087965" lon="11.4255617"><ele>584.0</ele><time>2026-05-01T13:59:22.134Z</time></trkpt><trkpt lat="44.2088212" lon="11.425655"><ele>584.0</ele><time>2026-05-01T13:59:23.135Z</time></trkpt><trkpt lat="44.2089305" lon="11.4256787"><ele>584.0</ele><time>2026-05-01T13:59:25.135Z</time></trkpt><trkpt lat="44.208985" lon="11.4255172"><ele>584.0</ele><time>2026-05-01T13:59:27.135Z</time></trkpt><trkpt lat="44.2089898" lon="11.425393"><ele>584.0</ele><time>2026-05-01T13:59:28.135Z</time></trkpt><trkpt lat="44.2089807" lon="11.4252557"><ele>584.0</ele><time>2026-05-01T13:59:29.135Z</time></trkpt><trkpt lat="44.208944" lon="11.4251305"><ele>584.0</ele><time>2026-05-01T13:59:30.135Z</time></trkpt><trkpt lat="44.208886" lon="11.4250275"><ele>584.0</ele><time>2026-05-01T13:59:31.135Z</time></trkpt><trkpt lat="44.208818" lon="11.4249333"><ele>584.0</ele><time>2026-05-01T13:59:32.134Z</time></trkpt><trkpt lat="44.208746" lon="11.424837"><ele>584.0</ele><time>2026-05-01T13:59:33.135Z</time></trkpt><trkpt lat="44.208673" lon="11.424739"><ele>584.0</ele><time>2026-05-01T13:59:34.135Z</time></trkpt><trkpt lat="44.2086" lon="11.4246407"><ele>584.0</ele><time>2026-05-01T13:59:35.135Z</time></trkpt><trkpt lat="44.2085292" lon="11.4245427"><ele>584.0</ele><time>2026-05-01T13:59:36.133Z</time></trkpt><trkpt lat="44.2084752" lon="11.424443"><ele>582.6666666666666</ele><time>2026-05-01T13:59:37.135Z</time></trkpt><trkpt lat="44.2084645" lon="11.42434"><ele>581.3333333333333</ele><time>2026-05-01T13:59:38.136Z</time></trkpt><trkpt lat="44.2084772" lon="11.4242403"><ele>580.0</ele><time>2026-05-01T13:59:39.135Z</time></trkpt><trkpt lat="44.208508" lon="11.4241508"><ele>578.6666666666666</ele><time>2026-05-01T13:59:40.136Z</time></trkpt><trkpt lat="44.2085407" lon="11.4240548"><ele>577.3333333333334</ele><time>2026-05-01T13:59:41.135Z</time></trkpt><trkpt lat="44.20857" lon="11.4239493"><ele>576.0</ele><time>2026-05-01T13:59:42.136Z</time></trkpt><trkpt lat="44.208601" lon="11.4238377"><ele>576.0</ele><time>2026-05-01T13:59:43.135Z</time></trkpt><trkpt lat="44.2086237" lon="11.4237257"><ele>576.0</ele><time>2026-05-01T13:59:44.134Z</time></trkpt><trkpt lat="44.2086308" lon="11.4236053"><ele>576.0</ele><time>2026-05-01T13:59:45.134Z</time></trkpt><trkpt lat="44.208621" lon="11.4234695"><ele>576.0</ele><time>2026-05-01T13:59:46.135Z</time></trkpt><trkpt lat="44.208605" lon="11.4233237"><ele>576.0</ele><time>2026-05-01T13:59:47.135Z</time></trkpt><trkpt lat="44.2085878" lon="11.4231728"><ele>576.0</ele><time>2026-05-01T13:59:48.137Z</time></trkpt><trkpt lat="44.208571" lon="11.423019"><ele>576.0</ele><time>2026-05-01T13:59:49.136Z</time></trkpt><trkpt lat="44.2085562" lon="11.4228648"><ele>576.0</ele><time>2026-05-01T13:59:50.136Z</time></trkpt><trkpt lat="44.208539" lon="11.4227152"><ele>576.0</ele><time>2026-05-01T13:59:51.138Z</time></trkpt><trkpt lat="44.2085237" lon="11.4225692"><ele>576.0</ele><time>2026-05-01T13:59:52.137Z</time></trkpt><trkpt lat="44.2085065" lon="11.4224228"><ele>574.8</ele><time>2026-05-01T13:59:53.137Z</time></trkpt><trkpt lat="44.2084878" lon="11.422275"><ele>573.6</ele><time>2026-05-01T13:59:54.136Z</time></trkpt><trkpt lat="44.208468" lon="11.4221288"><ele>572.4</ele><time>2026-05-01T13:59:55.137Z</time></trkpt><trkpt lat="44.2084495" lon="11.4219858"><ele>571.2</ele><time>2026-05-01T13:59:56.136Z</time></trkpt><trkpt lat="44.2084325" lon="11.4218435"><ele>570.0</ele><time>2026-05-01T13:59:57.136Z</time></trkpt><trkpt lat="44.2084188" lon="11.421692"><ele>567.4</ele><time>2026-05-01T13:59:58.137Z</time></trkpt><trkpt lat="44.2084082" lon="11.421532"><ele>564.8</ele><time>2026-05-01T13:59:59.136Z</time></trkpt><trkpt lat="44.2084077" lon="11.4213727"><ele>562.2</ele><time>2026-05-01T14:00:00.137Z</time></trkpt><trkpt lat="44.2084182" lon="11.4212247"><ele>559.6</ele><time>2026-05-01T14:00:01.137Z</time></trkpt><trkpt lat="44.20843" lon="11.4210853"><ele>557.0</ele><time>2026-05-01T14:00:02.136Z</time></trkpt><trkpt lat="44.2084387" lon="11.4209373"><ele>556.25</ele><time>2026-05-01T14:00:03.136Z</time></trkpt><trkpt lat="44.208441" lon="11.4207773"><ele>555.5</ele><time>2026-05-01T14:00:04.136Z</time></trkpt><trkpt lat="44.2084332" lon="11.42061"><ele>554.75</ele><time>2026-05-01T14:00:05.136Z</time></trkpt><trkpt lat="44.2084282" lon="11.4204465"><ele>554.0</ele><time>2026-05-01T14:00:06.136Z</time></trkpt><trkpt lat="44.2084062" lon="11.4202872"><ele>553.2</ele><time>2026-05-01T14:00:07.136Z</time></trkpt><trkpt lat="44.2083803" lon="11.4201348"><ele>552.4</ele><time>2026-05-01T14:00:08.134Z</time></trkpt><trkpt lat="44.208367" lon="11.4199908"><ele>551.6</ele><time>2026-05-01T14:00:09.134Z</time></trkpt><trkpt lat="44.2083792" lon="11.41986"><ele>550.8</ele><time>2026-05-01T14:00:10.134Z</time></trkpt><trkpt lat="44.208414" lon="11.4197572"><ele>550.0</ele><time>2026-05-01T14:00:11.133Z</time></trkpt><trkpt lat="44.208502" lon="11.4197022"><ele>550.8</ele><time>2026-05-01T14:00:14.135Z</time></trkpt><trkpt lat="44.2086248" lon="11.4195997"><ele>551.6</ele><time>2026-05-01T14:00:16.136Z</time></trkpt><trkpt lat="44.2086978" lon="11.4195452"><ele>552.4</ele><time>2026-05-01T14:00:17.135Z</time></trkpt><trkpt lat="44.2087793" lon="11.419515"><ele>553.2</ele><time>2026-05-01T14:00:18.136Z</time></trkpt><trkpt lat="44.2088623" lon="11.4195202"><ele>554.0</ele><time>2026-05-01T14:00:19.138Z</time></trkpt><trkpt lat="44.2089375" lon="11.4195595"><ele>554.0</ele><time>2026-05-01T14:00:20.136Z</time></trkpt><trkpt lat="44.2089893" lon="11.419623"><ele>554.0</ele><time>2026-05-01T14:00:21.136Z</time></trkpt><trkpt lat="44.2089958" lon="11.4197957"><ele>554.0</ele><time>2026-05-01T14:00:23.134Z</time></trkpt><trkpt lat="44.2089618" lon="11.4198992"><ele>554.0</ele><time>2026-05-01T14:00:24.135Z</time></trkpt><trkpt lat="44.2089275" lon="11.4200245"><ele>554.0</ele><time>2026-05-01T14:00:25.134Z</time></trkpt><trkpt lat="44.2089058" lon="11.4201425"><ele>553.2</ele><time>2026-05-01T14:00:26.135Z</time></trkpt><trkpt lat="44.2089102" lon="11.4202585"><ele>552.4</ele><time>2026-05-01T14:00:27.136Z</time></trkpt><trkpt lat="44.2089467" lon="11.4203642"><ele>551.6</ele><time>2026-05-01T14:00:28.136Z</time></trkpt><trkpt lat="44.2090078" lon="11.4204527"><ele>550.8</ele><time>2026-05-01T14:00:29.139Z</time></trkpt><trkpt lat="44.2090895" lon="11.4205352"><ele>550.0</ele><time>2026-05-01T14:00:30.137Z</time></trkpt><trkpt lat="44.20918" lon="11.4206065"><ele>549.2</ele><time>2026-05-01T14:00:31.136Z</time></trkpt><trkpt lat="44.2092815" lon="11.4206457"><ele>548.4</ele><time>2026-05-01T14:00:32.135Z</time></trkpt><trkpt lat="44.2093977" lon="11.420652"><ele>547.6</ele><time>2026-05-01T14:00:33.134Z</time></trkpt><trkpt lat="44.2095118" lon="11.4206543"><ele>546.8</ele><time>2026-05-01T14:00:34.134Z</time></trkpt><trkpt lat="44.209614" lon="11.4206805"><ele>546.0</ele><time>2026-05-01T14:00:35.135Z</time></trkpt><trkpt lat="44.209714" lon="11.4207347"><ele>546.0</ele><time>2026-05-01T14:00:36.136Z</time></trkpt><trkpt lat="44.2098138" lon="11.420813"><ele>546.0</ele><time>2026-05-01T14:00:37.137Z</time></trkpt><trkpt lat="44.2099053" lon="11.4209095"><ele>546.0</ele><time>2026-05-01T14:00:38.137Z</time></trkpt><trkpt lat="44.209988" lon="11.4210198"><ele>546.0</ele><time>2026-05-01T14:00:39.138Z</time></trkpt><trkpt lat="44.210059" lon="11.421117"><ele>546.0</ele><time>2026-05-01T14:00:40.136Z</time></trkpt><trkpt lat="44.2101327" lon="11.4211813"><ele>547.8</ele><time>2026-05-01T14:00:41.135Z</time></trkpt><trkpt lat="44.2102182" lon="11.4212305"><ele>549.6</ele><time>2026-05-01T14:00:42.136Z</time></trkpt><trkpt lat="44.2103128" lon="11.4212762"><ele>551.4</ele><time>2026-05-01T14:00:43.136Z</time></trkpt><trkpt lat="44.2104137" lon="11.4213113"><ele>553.2</ele><time>2026-05-01T14:00:44.135Z</time></trkpt><trkpt lat="44.2105093" lon="11.4213157"><ele>555.0</ele><time>2026-05-01T14:00:45.136Z</time></trkpt><trkpt lat="44.2106037" lon="11.4212843"><ele>559.6</ele><time>2026-05-01T14:00:46.135Z</time></trkpt><trkpt lat="44.2106942" lon="11.4212215"><ele>564.2</ele><time>2026-05-01T14:00:47.137Z</time></trkpt><trkpt lat="44.2107742" lon="11.421138"><ele>568.8</ele><time>2026-05-01T14:00:48.137Z</time></trkpt><trkpt lat="44.2108438" lon="11.4210315"><ele>573.4</ele><time>2026-05-01T14:00:49.139Z</time></trkpt><trkpt lat="44.2109048" lon="11.4209062"><ele>578.0</ele><time>2026-05-01T14:00:50.138Z</time></trkpt><trkpt lat="44.2109673" lon="11.4207875"><ele>578.0</ele><time>2026-05-01T14:00:51.14Z</time></trkpt><trkpt lat="44.2110407" lon="11.4206842"><ele>578.0</ele><time>2026-05-01T14:00:52.138Z</time></trkpt><trkpt lat="44.211128" lon="11.4205965"><ele>578.0</ele><time>2026-05-01T14:00:53.139Z</time></trkpt><trkpt lat="44.2112258" lon="11.4205182"><ele>578.0</ele><time>2026-05-01T14:00:54.137Z</time></trkpt><trkpt lat="44.2113317" lon="11.4204383"><ele>578.0</ele><time>2026-05-01T14:00:55.138Z</time></trkpt><trkpt lat="44.2114362" lon="11.4203613"><ele>582.6</ele><time>2026-05-01T14:00:56.136Z</time></trkpt><trkpt lat="44.211531" lon="11.4203107"><ele>587.1999999999999</ele><time>2026-05-01T14:00:57.135Z</time></trkpt><trkpt lat="44.2116255" lon="11.4202907"><ele>591.8</ele><time>2026-05-01T14:00:58.136Z</time></trkpt><trkpt lat="44.211723" lon="11.4203068"><ele>596.4</ele><time>2026-05-01T14:00:59.14Z</time></trkpt><trkpt lat="44.2118315" lon="11.4203498"><ele>601.0</ele><time>2026-05-01T14:01:00.135Z</time></trkpt><trkpt lat="44.2119455" lon="11.420388"><ele>601.0</ele><time>2026-05-01T14:01:01.137Z</time></trkpt><trkpt lat="44.2120645" lon="11.4203973"><ele>601.0</ele><time>2026-05-01T14:01:02.137Z</time></trkpt><trkpt lat="44.2121845" lon="11.4203667"><ele>601.0</ele><time>2026-05-01T14:01:03.137Z</time></trkpt><trkpt lat="44.2123048" lon="11.4203015"><ele>601.0</ele><time>2026-05-01T14:01:04.137Z</time></trkpt><trkpt lat="44.2124208" lon="11.4202287"><ele>603.0</ele><time>2026-05-01T14:01:05.137Z</time></trkpt><trkpt lat="44.2125328" lon="11.4201425"><ele>605.0</ele><time>2026-05-01T14:01:06.149Z</time></trkpt><trkpt lat="44.2126403" lon="11.4200295"><ele>607.0</ele><time>2026-05-01T14:01:07.149Z</time></trkpt><trkpt lat="44.2127435" lon="11.4198958"><ele>609.0</ele><time>2026-05-01T14:01:08.155Z</time></trkpt><trkpt lat="44.212848" lon="11.41976"><ele>610.25</ele><time>2026-05-01T14:01:09.153Z</time></trkpt><trkpt lat="44.2129557" lon="11.4196227"><ele>611.5</ele><time>2026-05-01T14:01:10.152Z</time></trkpt><trkpt lat="44.2130603" lon="11.4194892"><ele>612.75</ele><time>2026-05-01T14:01:11.15Z</time></trkpt><trkpt lat="44.2131592" lon="11.4193542"><ele>614.0</ele><time>2026-05-01T14:01:12.15Z</time></trkpt><trkpt lat="44.2132463" lon="11.419217"><ele>614.5</ele><time>2026-05-01T14:01:13.152Z</time></trkpt><trkpt lat="44.2133227" lon="11.4190702"><ele>615.0</ele><time>2026-05-01T14:01:14.148Z</time></trkpt><trkpt lat="44.2133822" lon="11.4189087"><ele>615.5</ele><time>2026-05-01T14:01:15.153Z</time></trkpt><trkpt lat="44.2134338" lon="11.4187392"><ele>616.0</ele><time>2026-05-01T14:01:16.151Z</time></trkpt><trkpt lat="44.2134908" lon="11.4185785"><ele>617.5</ele><time>2026-05-01T14:01:17.15Z</time></trkpt><trkpt lat="44.2135635" lon="11.4184398"><ele>619.0</ele><time>2026-05-01T14:01:18.151Z</time></trkpt><trkpt lat="44.2136563" lon="11.4183245"><ele>620.5</ele><time>2026-05-01T14:01:19.153Z</time></trkpt><trkpt lat="44.2137652" lon="11.4182243"><ele>622.0</ele><time>2026-05-01T14:01:20.149Z</time></trkpt><trkpt lat="44.2138805" lon="11.4181227"><ele>622.75</ele><time>2026-05-01T14:01:21.148Z</time></trkpt><trkpt lat="44.2139915" lon="11.4180203"><ele>623.5</ele><time>2026-05-01T14:01:22.147Z</time></trkpt><trkpt lat="44.2140997" lon="11.4179153"><ele>624.25</ele><time>2026-05-01T14:01:23.148Z</time></trkpt><trkpt lat="44.2142088" lon="11.4178053"><ele>625.0</ele><time>2026-05-01T14:01:24.147Z</time></trkpt><trkpt lat="44.2143113" lon="11.4176867"><ele>628.5</ele><time>2026-05-01T14:01:25.151Z</time></trkpt><trkpt lat="44.2144048" lon="11.4175577"><ele>632.0</ele><time>2026-05-01T14:01:26.151Z</time></trkpt><trkpt lat="44.2144938" lon="11.4174258"><ele>635.5</ele><time>2026-05-01T14:01:27.15Z</time></trkpt><trkpt lat="44.214584" lon="11.41729"><ele>639.0</ele><time>2026-05-01T14:01:28.15Z</time></trkpt><trkpt lat="44.2146798" lon="11.4171635"><ele>642.5</ele><time>2026-05-01T14:01:29.15Z</time></trkpt><trkpt lat="44.2147852" lon="11.4170545"><ele>646.0</ele><time>2026-05-01T14:01:30.152Z</time></trkpt><trkpt lat="44.2148985" lon="11.4169603"><ele>649.5</ele><time>2026-05-01T14:01:31.151Z</time></trkpt><trkpt lat="44.2150125" lon="11.4168817"><ele>653.0</ele><time>2026-05-01T14:01:32.15Z</time></trkpt><trkpt lat="44.2151142" lon="11.4168045"><ele>653.2</ele><time>2026-05-01T14:01:33.149Z</time></trkpt><trkpt lat="44.2151897" lon="11.4167193"><ele>653.4</ele><time>2026-05-01T14:01:34.148Z</time></trkpt><trkpt lat="44.2152463" lon="11.4166137"><ele>653.6</ele><time>2026-05-01T14:01:35.147Z</time></trkpt><trkpt lat="44.2152885" lon="11.4164882"><ele>653.8000000000001</ele><time>2026-05-01T14:01:36.149Z</time></trkpt><trkpt lat="44.215326" lon="11.4163643"><ele>654.0</ele><time>2026-05-01T14:01:37.147Z</time></trkpt><trkpt lat="44.2153707" lon="11.4162365"><ele>656.0</ele><time>2026-05-01T14:01:38.147Z</time></trkpt><trkpt lat="44.2154313" lon="11.4161175"><ele>658.0</ele><time>2026-05-01T14:01:39.147Z</time></trkpt><trkpt lat="44.2155017" lon="11.4160157"><ele>660.0</ele><time>2026-05-01T14:01:40.148Z</time></trkpt><trkpt lat="44.2155767" lon="11.415923"><ele>662.0</ele><time>2026-05-01T14:01:41.14Z</time></trkpt><trkpt lat="44.2156438" lon="11.415847"><ele>664.0</ele><time>2026-05-01T14:01:42.14Z</time></trkpt><trkpt lat="44.2156955" lon="11.4157693"><ele>664.0</ele><time>2026-05-01T14:01:43.139Z</time></trkpt><trkpt lat="44.2157118" lon="11.4156835"><ele>664.0</ele><time>2026-05-01T14:01:44.137Z</time></trkpt><trkpt lat="44.2156333" lon="11.4155748"><ele>664.0</ele><time>2026-05-01T14:01:46.136Z</time></trkpt><trkpt lat="44.2155617" lon="11.4155973"><ele>664.0</ele><time>2026-05-01T14:01:47.137Z</time></trkpt><trkpt lat="44.2154885" lon="11.4156575"><ele>664.0</ele><time>2026-05-01T14:01:48.136Z</time></trkpt><trkpt lat="44.2154047" lon="11.4157233"><ele>664.0</ele><time>2026-05-01T14:01:49.137Z</time></trkpt><trkpt lat="44.2153125" lon="11.4157745"><ele>664.4000000000001</ele><time>2026-05-01T14:01:50.139Z</time></trkpt><trkpt lat="44.2152147" lon="11.4158003"><ele>664.8</ele><time>2026-05-01T14:01:51.139Z</time></trkpt><trkpt lat="44.2151058" lon="11.4158007"><ele>665.2</ele><time>2026-05-01T14:01:52.139Z</time></trkpt><trkpt lat="44.2149925" lon="11.415786"><ele>665.5999999999999</ele><time>2026-05-01T14:01:53.139Z</time></trkpt><trkpt lat="44.214873" lon="11.4157662"><ele>666.0</ele><time>2026-05-01T14:01:54.138Z</time></trkpt><trkpt lat="44.2147562" lon="11.4157563"><ele>666.0</ele><time>2026-05-01T14:01:55.139Z</time></trkpt><trkpt lat="44.2146563" lon="11.4157585"><ele>666.0</ele><time>2026-05-01T14:01:56.138Z</time></trkpt><trkpt lat="44.2145735" lon="11.4157602"><ele>666.0</ele><time>2026-05-01T14:01:57.143Z</time></trkpt><trkpt lat="44.2145058" lon="11.4157438"><ele>666.0</ele><time>2026-05-01T14:01:58.14Z</time></trkpt><trkpt lat="44.2144598" lon="11.4156267"><ele>666.0</ele><time>2026-05-01T14:02:00.139Z</time></trkpt><trkpt lat="44.2145568" lon="11.4154967"><ele>665.5999999999999</ele><time>2026-05-01T14:02:02.138Z</time></trkpt><trkpt lat="44.2146372" lon="11.415421"><ele>665.2</ele><time>2026-05-01T14:02:03.138Z</time></trkpt><trkpt lat="44.2147247" lon="11.4153322"><ele>664.8</ele><time>2026-05-01T14:02:04.139Z</time></trkpt><trkpt lat="44.214818" lon="11.4152222"><ele>664.4000000000001</ele><time>2026-05-01T14:02:05.139Z</time></trkpt><trkpt lat="44.2149088" lon="11.4151108"><ele>664.0</ele><time>2026-05-01T14:02:06.138Z</time></trkpt><trkpt lat="44.2149932" lon="11.4150075"><ele>667.75</ele><time>2026-05-01T14:02:07.139Z</time></trkpt><trkpt lat="44.2150767" lon="11.4149093"><ele>671.5</ele><time>2026-05-01T14:02:08.138Z</time></trkpt><trkpt lat="44.2151627" lon="11.4148063"><ele>675.25</ele><time>2026-05-01T14:02:09.139Z</time></trkpt><trkpt lat="44.2152503" lon="11.4147015"><ele>679.0</ele><time>2026-05-01T14:02:10.137Z</time></trkpt><trkpt lat="44.21534" lon="11.4145892"><ele>679.0</ele><time>2026-05-01T14:02:11.136Z</time></trkpt><trkpt lat="44.2154285" lon="11.4144712"><ele>679.0</ele><time>2026-05-01T14:02:12.137Z</time></trkpt><trkpt lat="44.2155182" lon="11.4143568"><ele>679.0</ele><time>2026-05-01T14:02:13.137Z</time></trkpt><trkpt lat="44.2156012" lon="11.4142327"><ele>679.0</ele><time>2026-05-01T14:02:14.138Z</time></trkpt><trkpt lat="44.2156667" lon="11.4140952"><ele>680.25</ele><time>2026-05-01T14:02:15.139Z</time></trkpt><trkpt lat="44.2157157" lon="11.4139348"><ele>681.5</ele><time>2026-05-01T14:02:16.138Z</time></trkpt><trkpt lat="44.2157583" lon="11.4137623"><ele>682.75</ele><time>2026-05-01T14:02:17.138Z</time></trkpt><trkpt lat="44.2157923" lon="11.4136022"><ele>684.0</ele><time>2026-05-01T14:02:18.139Z</time></trkpt><trkpt lat="44.2158368" lon="11.4134478"><ele>684.75</ele><time>2026-05-01T14:02:19.139Z</time></trkpt><trkpt lat="44.215904" lon="11.4133012"><ele>685.5</ele><time>2026-05-01T14:02:20.139Z</time></trkpt><trkpt lat="44.2159933" lon="11.4131652"><ele>686.25</ele><time>2026-05-01T14:02:21.139Z</time></trkpt><trkpt lat="44.21609" lon="11.413037"><ele>687.0</ele><time>2026-05-01T14:02:22.139Z</time></trkpt><trkpt lat="44.2161935" lon="11.4129195"><ele>687.0</ele><time>2026-05-01T14:02:23.139Z</time></trkpt><trkpt lat="44.216308" lon="11.4127993"><ele>687.0</ele><time>2026-05-01T14:02:24.138Z</time></trkpt><trkpt lat="44.2164198" lon="11.4126878"><ele>687.0</ele><time>2026-05-01T14:02:25.14Z</time></trkpt><trkpt lat="44.2165283" lon="11.4126023"><ele>687.0</ele><time>2026-05-01T14:02:26.139Z</time></trkpt><trkpt lat="44.2166503" lon="11.4125385"><ele>688.5</ele><time>2026-05-01T14:02:27.14Z</time></trkpt><trkpt lat="44.2167742" lon="11.4124842"><ele>690.0</ele><time>2026-05-01T14:02:28.138Z</time></trkpt><trkpt lat="44.2168975" lon="11.4124255"><ele>691.5</ele><time>2026-05-01T14:02:29.142Z</time></trkpt><trkpt lat="44.2170278" lon="11.412357"><ele>693.0</ele><time>2026-05-01T14:02:30.14Z</time></trkpt><trkpt lat="44.2171558" lon="11.4122793"><ele>693.0</ele><time>2026-05-01T14:02:31.139Z</time></trkpt><trkpt lat="44.2172608" lon="11.4121915"><ele>693.0</ele><time>2026-05-01T14:02:32.138Z</time></trkpt><trkpt lat="44.2173507" lon="11.4120795"><ele>693.0</ele><time>2026-05-01T14:02:33.138Z</time></trkpt><trkpt lat="44.2174262" lon="11.4119275"><ele>693.0</ele><time>2026-05-01T14:02:34.139Z</time></trkpt><trkpt lat="44.2174932" lon="11.4117493"><ele>695.5</ele><time>2026-05-01T14:02:35.137Z</time></trkpt><trkpt lat="44.217557" lon="11.4115775"><ele>698.0</ele><time>2026-05-01T14:02:36.136Z</time></trkpt><trkpt lat="44.2176215" lon="11.4114143"><ele>700.5</ele><time>2026-05-01T14:02:37.135Z</time></trkpt><trkpt lat="44.2176848" lon="11.411257"><ele>703.0</ele><time>2026-05-01T14:02:38.136Z</time></trkpt><trkpt lat="44.2177458" lon="11.4110942"><ele>703.5</ele><time>2026-05-01T14:02:39.138Z</time></trkpt><trkpt lat="44.2178053" lon="11.4109205"><ele>704.0</ele><time>2026-05-01T14:02:40.138Z</time></trkpt><trkpt lat="44.2178693" lon="11.410743"><ele>704.5</ele><time>2026-05-01T14:02:41.139Z</time></trkpt><trkpt lat="44.2179357" lon="11.4105762"><ele>705.0</ele><time>2026-05-01T14:02:42.139Z</time></trkpt><trkpt lat="44.218003" lon="11.410419"><ele>705.0</ele><time>2026-05-01T14:02:43.138Z</time></trkpt><trkpt lat="44.2180682" lon="11.4102623"><ele>705.0</ele><time>2026-05-01T14:02:44.138Z</time></trkpt><trkpt lat="44.2181263" lon="11.4100992"><ele>705.0</ele><time>2026-05-01T14:02:45.139Z</time></trkpt><trkpt lat="44.2181892" lon="11.4099428"><ele>705.0</ele><time>2026-05-01T14:02:46.139Z</time></trkpt><trkpt lat="44.2182628" lon="11.4097988"><ele>707.75</ele><time>2026-05-01T14:02:47.139Z</time></trkpt><trkpt lat="44.2183453" lon="11.4096672"><ele>710.5</ele><time>2026-05-01T14:02:48.139Z</time></trkpt><trkpt lat="44.218438" lon="11.409543"><ele>713.25</ele><time>2026-05-01T14:02:49.14Z</time></trkpt><trkpt lat="44.2185342" lon="11.4094093"><ele>716.0</ele><time>2026-05-01T14:02:50.138Z</time></trkpt><trkpt lat="44.2186325" lon="11.4092677"><ele>716.0</ele><time>2026-05-01T14:02:51.139Z</time></trkpt><trkpt lat="44.2187302" lon="11.4091267"><ele>716.0</ele><time>2026-05-01T14:02:52.141Z</time></trkpt><trkpt lat="44.2188278" lon="11.4089843"><ele>716.0</ele><time>2026-05-01T14:02:53.141Z</time></trkpt><trkpt lat="44.2189285" lon="11.4088392"><ele>716.0</ele><time>2026-05-01T14:02:54.139Z</time></trkpt><trkpt lat="44.2190218" lon="11.4086983"><ele>719.5</ele><time>2026-05-01T14:02:55.14Z</time></trkpt><trkpt lat="44.2191188" lon="11.4085502"><ele>723.0</ele><time>2026-05-01T14:02:56.141Z</time></trkpt><trkpt lat="44.2192163" lon="11.4084058"><ele>726.5</ele><time>2026-05-01T14:02:57.14Z</time></trkpt><trkpt lat="44.2193075" lon="11.4082722"><ele>730.0</ele><time>2026-05-01T14:02:58.14Z</time></trkpt><trkpt lat="44.2193847" lon="11.4081582"><ele>730.0</ele><time>2026-05-01T14:02:59.138Z</time></trkpt><trkpt lat="44.2194493" lon="11.408064"><ele>730.0</ele><time>2026-05-01T14:03:00.137Z</time></trkpt><trkpt lat="44.2195002" lon="11.4079923"><ele>730.0</ele><time>2026-05-01T14:03:01.137Z</time></trkpt><trkpt lat="44.2195595" lon="11.4079228"><ele>730.0</ele><time>2026-05-01T14:03:03.141Z</time></trkpt><trkpt lat="44.2196142" lon="11.4078612"><ele>730.0</ele><time>2026-05-01T14:03:10.139Z</time></trkpt><trkpt lat="44.2196713" lon="11.407708"><ele>730.0</ele><time>2026-05-01T14:03:12.14Z</time></trkpt><trkpt lat="44.2196975" lon="11.4076102"><ele>730.2</ele><time>2026-05-01T14:03:13.139Z</time></trkpt><trkpt lat="44.2197228" lon="11.4074983"><ele>730.4</ele><time>2026-05-01T14:03:14.137Z</time></trkpt><trkpt lat="44.2197513" lon="11.4073873"><ele>730.5999999999999</ele><time>2026-05-01T14:03:15.138Z</time></trkpt><trkpt lat="44.219782" lon="11.4072667"><ele>730.8</ele><time>2026-05-01T14:03:16.139Z</time></trkpt><trkpt lat="44.2198137" lon="11.4071327"><ele>731.0</ele><time>2026-05-01T14:03:17.16Z</time></trkpt><trkpt lat="44.2198407" lon="11.407001"><ele>732.5999999999999</ele><time>2026-05-01T14:03:18.161Z</time></trkpt><trkpt lat="44.2198672" lon="11.4068673"><ele>734.2</ele><time>2026-05-01T14:03:19.161Z</time></trkpt><trkpt lat="44.2198927" lon="11.40674"><ele>735.8</ele><time>2026-05-01T14:03:20.161Z</time></trkpt><trkpt lat="44.2199282" lon="11.4066085"><ele>737.4000000000001</ele><time>2026-05-01T14:03:21.165Z</time></trkpt><trkpt lat="44.2199722" lon="11.4064648"><ele>739.0</ele><time>2026-05-01T14:03:22.163Z</time></trkpt><trkpt lat="44.2200178" lon="11.4063037"><ele>740.0</ele><time>2026-05-01T14:03:23.159Z</time></trkpt><trkpt lat="44.2200597" lon="11.4061355"><ele>741.0</ele><time>2026-05-01T14:03:24.157Z</time></trkpt><trkpt lat="44.2200982" lon="11.4059652"><ele>742.0</ele><time>2026-05-01T14:03:25.161Z</time></trkpt><trkpt lat="44.2201367" lon="11.4057973"><ele>743.0</ele><time>2026-05-01T14:03:26.158Z</time></trkpt><trkpt lat="44.2201805" lon="11.4056335"><ele>744.0</ele><time>2026-05-01T14:03:27.147Z</time></trkpt><trkpt lat="44.220222" lon="11.4054813"><ele>745.0</ele><time>2026-05-01T14:03:28.15Z</time></trkpt><trkpt lat="44.2202592" lon="11.4053367"><ele>746.0</ele><time>2026-05-01T14:03:29.153Z</time></trkpt><trkpt lat="44.2202948" lon="11.405205"><ele>747.0</ele><time>2026-05-01T14:03:30.151Z</time></trkpt><trkpt lat="44.2203243" lon="11.405088"><ele>748.0</ele><time>2026-05-01T14:03:31.163Z</time></trkpt><trkpt lat="44.2203558" lon="11.4049748"><ele>748.0</ele><time>2026-05-01T14:03:32.164Z</time></trkpt><trkpt lat="44.2203875" lon="11.4048723"><ele>748.0</ele><time>2026-05-01T14:03:33.154Z</time></trkpt><trkpt lat="44.2204267" lon="11.404772"><ele>748.0</ele><time>2026-05-01T14:03:34.152Z</time></trkpt><trkpt lat="44.2204763" lon="11.4046733"><ele>748.0</ele><time>2026-05-01T14:03:35.15Z</time></trkpt><trkpt lat="44.2205198" lon="11.404581"><ele>748.0</ele><time>2026-05-01T14:03:36.15Z</time></trkpt><trkpt lat="44.22056" lon="11.404484"><ele>748.0</ele><time>2026-05-01T14:03:37.152Z</time></trkpt><trkpt lat="44.2206012" lon="11.404372"><ele>747.8</ele><time>2026-05-01T14:03:38.152Z</time></trkpt><trkpt lat="44.2206472" lon="11.4042435"><ele>747.5999999999999</ele><time>2026-05-01T14:03:39.152Z</time></trkpt><trkpt lat="44.2206942" lon="11.4041233"><ele>747.4000000000001</ele><time>2026-05-01T14:03:40.153Z</time></trkpt><trkpt lat="44.2207393" lon="11.4040117"><ele>747.2</ele><time>2026-05-01T14:03:41.151Z</time></trkpt><trkpt lat="44.2207847" lon="11.4039007"><ele>747.0</ele><time>2026-05-01T14:03:42.151Z</time></trkpt><trkpt lat="44.2208307" lon="11.4037902"><ele>750.5</ele><time>2026-05-01T14:03:43.151Z</time></trkpt><trkpt lat="44.2208732" lon="11.4036757"><ele>754.0</ele><time>2026-05-01T14:03:44.15Z</time></trkpt><trkpt lat="44.2209045" lon="11.4035502"><ele>757.5</ele><time>2026-05-01T14:03:45.151Z</time></trkpt><trkpt lat="44.2209345" lon="11.4034297"><ele>761.0</ele><time>2026-05-01T14:03:46.15Z</time></trkpt><trkpt lat="44.2209555" lon="11.403325"><ele>764.5</ele><time>2026-05-01T14:03:47.151Z</time></trkpt><trkpt lat="44.2209542" lon="11.4032157"><ele>768.0</ele><time>2026-05-01T14:03:48.146Z</time></trkpt><trkpt lat="44.2209452" lon="11.403076"><ele>769.2</ele><time>2026-05-01T14:03:49.147Z</time></trkpt><trkpt lat="44.2209328" lon="11.4029207"><ele>770.4</ele><time>2026-05-01T14:03:50.145Z</time></trkpt><trkpt lat="44.2209195" lon="11.4027803"><ele>771.6</ele><time>2026-05-01T14:03:51.146Z</time></trkpt><trkpt lat="44.2209235" lon="11.4026813"><ele>772.8000000000001</ele><time>2026-05-01T14:03:52.151Z</time></trkpt><trkpt lat="44.2209775" lon="11.4025635"><ele>774.0</ele><time>2026-05-01T14:03:54.151Z</time></trkpt><trkpt lat="44.2209448" lon="11.402425"><ele>774.0</ele><time>2026-05-01T14:03:56.152Z</time></trkpt><trkpt lat="44.2208917" lon="11.4023557"><ele>774.0</ele><time>2026-05-01T14:03:57.152Z</time></trkpt><trkpt lat="44.2208365" lon="11.4023025"><ele>774.0</ele><time>2026-05-01T14:03:58.153Z</time></trkpt><trkpt lat="44.2207308" lon="11.402213"><ele>774.0</ele><time>2026-05-01T14:04:00.152Z</time></trkpt><trkpt lat="44.220674" lon="11.4021538"><ele>774.0</ele><time>2026-05-01T14:04:01.151Z</time></trkpt><trkpt lat="44.2206227" lon="11.4020728"><ele>774.0</ele><time>2026-05-01T14:04:02.153Z</time></trkpt><trkpt lat="44.2205765" lon="11.4019693"><ele>773.0</ele><time>2026-05-01T14:04:03.153Z</time></trkpt><trkpt lat="44.2205458" lon="11.401865"><ele>772.0</ele><time>2026-05-01T14:04:04.151Z</time></trkpt><trkpt lat="44.220535" lon="11.401757"><ele>771.0</ele><time>2026-05-01T14:04:05.139Z</time></trkpt><trkpt lat="44.220531" lon="11.4016392"><ele>770.0</ele><time>2026-05-01T14:04:06.148Z</time></trkpt><trkpt lat="44.2205178" lon="11.4015233"><ele>769.0</ele><time>2026-05-01T14:04:07.15Z</time></trkpt><trkpt lat="44.2205128" lon="11.4014297"><ele>768.0</ele><time>2026-05-01T14:04:08.148Z</time></trkpt><trkpt lat="44.220524" lon="11.4012482"><ele>768.0</ele><time>2026-05-01T14:04:10.152Z</time></trkpt><trkpt lat="44.2205385" lon="11.4011415"><ele>768.0</ele><time>2026-05-01T14:04:11.151Z</time></trkpt><trkpt lat="44.2205523" lon="11.4010417"><ele>768.0</ele><time>2026-05-01T14:04:12.15Z</time></trkpt><trkpt lat="44.2205687" lon="11.4009555"><ele>768.0</ele><time>2026-05-01T14:04:13.149Z</time></trkpt><trkpt lat="44.220585" lon="11.40086"><ele>768.0</ele><time>2026-05-01T14:04:42.138Z</time></trkpt><trkpt lat="44.2205768" lon="11.4007375"><ele>768.0</ele><time>2026-05-01T14:04:44.14Z</time></trkpt><trkpt lat="44.2205765" lon="11.4006048"><ele>769.4</ele><time>2026-05-01T14:04:46.139Z</time></trkpt><trkpt lat="44.2206242" lon="11.4004455"><ele>770.8</ele><time>2026-05-01T14:04:48.138Z</time></trkpt><trkpt lat="44.2206648" lon="11.4003563"><ele>772.2</ele><time>2026-05-01T14:04:49.139Z</time></trkpt><trkpt lat="44.2206917" lon="11.4002615"><ele>773.6</ele><time>2026-05-01T14:04:50.138Z</time></trkpt><trkpt lat="44.2207008" lon="11.4001712"><ele>775.0</ele><time>2026-05-01T14:04:51.138Z</time></trkpt><trkpt lat="44.2206568" lon="11.4000257"><ele>774.9999999999999</ele><time>2026-05-01T14:04:53.138Z</time></trkpt><trkpt lat="44.220618" lon="11.3999542"><ele>775.0</ele><time>2026-05-01T14:04:54.138Z</time></trkpt><trkpt lat="44.2205672" lon="11.3998992"><ele>775.0</ele><time>2026-05-01T14:04:55.139Z</time></trkpt><trkpt lat="44.2205068" lon="11.3998697"><ele>775.0</ele><time>2026-05-01T14:04:56.136Z</time></trkpt><trkpt lat="44.2204453" lon="11.3998472"><ele>774.9999999999999</ele><time>2026-05-01T14:04:57.139Z</time></trkpt><trkpt lat="44.220353" lon="11.3997412"><ele>775.0</ele><time>2026-05-01T14:04:59.139Z</time></trkpt><trkpt lat="44.2202782" lon="11.3995992"><ele>777.3333333333333</ele><time>2026-05-01T14:05:01.139Z</time></trkpt><trkpt lat="44.2202377" lon="11.3995312"><ele>779.6666666666666</ele><time>2026-05-01T14:05:02.137Z</time></trkpt><trkpt lat="44.2202012" lon="11.3994522"><ele>782.0</ele><time>2026-05-01T14:05:03.137Z</time></trkpt><trkpt lat="44.2201697" lon="11.3993625"><ele>784.3333333333333</ele><time>2026-05-01T14:05:04.138Z</time></trkpt><trkpt lat="44.2201632" lon="11.3992055"><ele>786.6666666666666</ele><time>2026-05-01T14:05:06.141Z</time></trkpt><trkpt lat="44.2202382" lon="11.399106"><ele>789.0</ele><time>2026-05-01T14:05:08.137Z</time></trkpt><trkpt lat="44.2203103" lon="11.3989832"><ele>789.0</ele><time>2026-05-01T14:05:10.138Z</time></trkpt><trkpt lat="44.2203847" lon="11.398888"><ele>789.0</ele><time>2026-05-01T14:05:12.138Z</time></trkpt><trkpt lat="44.2204998" lon="11.3988095"><ele>789.0</ele><time>2026-05-01T14:05:14.137Z</time></trkpt><trkpt lat="44.2205437" lon="11.3987335"><ele>789.0</ele><time>2026-05-01T14:05:15.137Z</time></trkpt><trkpt lat="44.2205803" lon="11.3986353"><ele>789.0</ele><time>2026-05-01T14:05:16.138Z</time></trkpt><trkpt lat="44.2206082" lon="11.398548"><ele>789.0</ele><time>2026-05-01T14:05:17.138Z</time></trkpt><trkpt lat="44.2206373" lon="11.3983745"><ele>791.0</ele><time>2026-05-01T14:05:19.137Z</time></trkpt><trkpt lat="44.2206458" lon="11.3982545"><ele>793.0</ele><time>2026-05-01T14:05:20.136Z</time></trkpt><trkpt lat="44.2206543" lon="11.3981297"><ele>795.0</ele><time>2026-05-01T14:05:21.137Z</time></trkpt><trkpt lat="44.2206592" lon="11.3980168"><ele>797.0</ele><time>2026-05-01T14:05:22.137Z</time></trkpt><trkpt lat="44.2206482" lon="11.3979103"><ele>799.0</ele><time>2026-05-01T14:05:23.138Z</time></trkpt><trkpt lat="44.2206322" lon="11.3978242"><ele>801.0</ele><time>2026-05-01T14:05:27.136Z</time></trkpt><trkpt lat="44.2205873" lon="11.3977283"><ele>801.0</ele><time>2026-05-01T14:05:36.143Z</time></trkpt><trkpt lat="44.2205437" lon="11.3975997"><ele>801.0</ele><time>2026-05-01T14:05:38.141Z</time></trkpt><trkpt lat="44.2205222" lon="11.397466"><ele>801.0</ele><time>2026-05-01T14:05:40.14Z</time></trkpt><trkpt lat="44.2205015" lon="11.397331"><ele>801.0</ele><time>2026-05-01T14:05:42.14Z</time></trkpt><trkpt lat="44.2204927" lon="11.397193"><ele>801.0</ele><time>2026-05-01T14:05:44.14Z</time></trkpt><trkpt lat="44.2204817" lon="11.397038"><ele>801.5</ele><time>2026-05-01T14:05:46.14Z</time></trkpt><trkpt lat="44.2204623" lon="11.3969452"><ele>802.0</ele><time>2026-05-01T14:05:47.14Z</time></trkpt><trkpt lat="44.2204368" lon="11.3968332"><ele>802.5</ele><time>2026-05-01T14:05:48.151Z</time></trkpt><trkpt lat="44.2204062" lon="11.396703"><ele>803.0</ele><time>2026-05-01T14:05:49.152Z</time></trkpt><trkpt lat="44.2203772" lon="11.3965738"><ele>803.5</ele><time>2026-05-01T14:05:50.153Z</time></trkpt><trkpt lat="44.2203577" lon="11.3964633"><ele>804.0</ele><time>2026-05-01T14:05:51.151Z</time></trkpt><trkpt lat="44.2203413" lon="11.3963678"><ele>805.0</ele><time>2026-05-01T14:05:52.15Z</time></trkpt><trkpt lat="44.2203198" lon="11.3962837"><ele>806.0</ele><time>2026-05-01T14:05:53.151Z</time></trkpt><trkpt lat="44.2202912" lon="11.3962013"><ele>807.0</ele><time>2026-05-01T14:05:54.15Z</time></trkpt><trkpt lat="44.2202615" lon="11.3961205"><ele>808.0</ele><time>2026-05-01T14:05:55.153Z</time></trkpt><trkpt lat="44.2202242" lon="11.3959622"><ele>809.0</ele><time>2026-05-01T14:05:57.153Z</time></trkpt><trkpt lat="44.2201938" lon="11.3958207"><ele>810.0</ele><time>2026-05-01T14:05:59.151Z</time></trkpt><trkpt lat="44.2201517" lon="11.3956552"><ele>810.0</ele><time>2026-05-01T14:06:01.15Z</time></trkpt><trkpt lat="44.2201375" lon="11.3955657"><ele>810.0</ele><time>2026-05-01T14:06:02.151Z</time></trkpt><trkpt lat="44.2201412" lon="11.3954682"><ele>810.0</ele><time>2026-05-01T14:06:03.152Z</time></trkpt><trkpt lat="44.220146" lon="11.3953715"><ele>810.0</ele><time>2026-05-01T14:06:04.152Z</time></trkpt><trkpt lat="44.2201323" lon="11.3952072"><ele>810.0</ele><time>2026-05-01T14:06:06.152Z</time></trkpt><trkpt lat="44.2200863" lon="11.3950753"><ele>810.0</ele><time>2026-05-01T14:06:08.153Z</time></trkpt><trkpt lat="44.2200488" lon="11.394993"><ele>809.8</ele><time>2026-05-01T14:06:09.154Z</time></trkpt><trkpt lat="44.2200143" lon="11.3949058"><ele>809.6</ele><time>2026-05-01T14:06:10.155Z</time></trkpt><trkpt lat="44.2199918" lon="11.3947443"><ele>809.4000000000001</ele><time>2026-05-01T14:06:12.155Z</time></trkpt><trkpt lat="44.2199373" lon="11.3945847"><ele>809.2</ele><time>2026-05-01T14:06:14.152Z</time></trkpt><trkpt lat="44.2198615" lon="11.3945378"><ele>809.0</ele><time>2026-05-01T14:06:15.15Z</time></trkpt><trkpt lat="44.2197593" lon="11.394512"><ele>809.0</ele><time>2026-05-01T14:06:16.149Z</time></trkpt><trkpt lat="44.2196647" lon="11.3944745"><ele>809.0</ele><time>2026-05-01T14:06:17.15Z</time></trkpt><trkpt lat="44.2195673" lon="11.3944303"><ele>809.0</ele><time>2026-05-01T14:06:18.149Z</time></trkpt><trkpt lat="44.2194597" lon="11.3943903"><ele>809.0</ele><time>2026-05-01T14:06:19.153Z</time></trkpt><trkpt lat="44.2193405" lon="11.3943687"><ele>809.0</ele><time>2026-05-01T14:06:20.153Z</time></trkpt><trkpt lat="44.2192213" lon="11.3943577"><ele>809.0</ele><time>2026-05-01T14:06:21.156Z</time></trkpt><trkpt lat="44.2191098" lon="11.394352"><ele>809.0</ele><time>2026-05-01T14:06:22.157Z</time></trkpt><trkpt lat="44.219003" lon="11.3943538"><ele>809.0</ele><time>2026-05-01T14:06:23.156Z</time></trkpt><trkpt lat="44.218905" lon="11.394347"><ele>809.0</ele><time>2026-05-01T14:06:24.156Z</time></trkpt><trkpt lat="44.2188117" lon="11.394338"><ele>809.0</ele><time>2026-05-01T14:06:25.156Z</time></trkpt><trkpt lat="44.2187233" lon="11.394331"><ele>810.1666666666667</ele><time>2026-05-01T14:06:26.154Z</time></trkpt><trkpt lat="44.2186422" lon="11.3943435"><ele>811.3333333333334</ele><time>2026-05-01T14:06:27.154Z</time></trkpt><trkpt lat="44.218575" lon="11.3943858"><ele>812.5</ele><time>2026-05-01T14:06:28.156Z</time></trkpt><trkpt lat="44.21851" lon="11.3944498"><ele>813.6666666666667</ele><time>2026-05-01T14:06:29.156Z</time></trkpt><trkpt lat="44.2184378" lon="11.3945257"><ele>814.8333333333334</ele><time>2026-05-01T14:06:30.155Z</time></trkpt><trkpt lat="44.2183648" lon="11.3946062"><ele>816.0</ele><time>2026-05-01T14:06:31.152Z</time></trkpt><trkpt lat="44.2182992" lon="11.3946848"><ele>816.4285714285714</ele><time>2026-05-01T14:06:32.153Z</time></trkpt><trkpt lat="44.2182287" lon="11.3947443"><ele>816.8571428571429</ele><time>2026-05-01T14:06:33.154Z</time></trkpt><trkpt lat="44.2181547" lon="11.3947685"><ele>817.2857142857142</ele><time>2026-05-01T14:06:34.154Z</time></trkpt><trkpt lat="44.2180852" lon="11.3947503"><ele>817.7142857142858</ele><time>2026-05-01T14:06:35.153Z</time></trkpt><trkpt lat="44.2180245" lon="11.3947058"><ele>818.1428571428571</ele><time>2026-05-01T14:06:36.154Z</time></trkpt><trkpt lat="44.2179703" lon="11.3946598"><ele>818.5714285714286</ele><time>2026-05-01T14:06:37.151Z</time></trkpt><trkpt lat="44.2179033" lon="11.394642"><ele>819.0</ele><time>2026-05-01T14:06:38.139Z</time></trkpt><trkpt lat="44.2178222" lon="11.3946263"><ele>820.6666666666666</ele><time>2026-05-01T14:06:39.14Z</time></trkpt><trkpt lat="44.2177353" lon="11.3945885"><ele>822.3333333333333</ele><time>2026-05-01T14:06:40.138Z</time></trkpt><trkpt lat="44.2176575" lon="11.3945462"><ele>824.0</ele><time>2026-05-01T14:06:41.138Z</time></trkpt><trkpt lat="44.2175847" lon="11.3945175"><ele>825.6666666666666</ele><time>2026-05-01T14:06:42.137Z</time></trkpt><trkpt lat="44.2174703" lon="11.3945045"><ele>827.3333333333333</ele><time>2026-05-01T14:06:44.14Z</time></trkpt><trkpt lat="44.2174035" lon="11.3944977"><ele>829.0</ele><time>2026-05-01T14:06:45.14Z</time></trkpt><trkpt lat="44.2173172" lon="11.3944947"><ele>829.5</ele><time>2026-05-01T14:06:46.142Z</time></trkpt><trkpt lat="44.2172048" lon="11.3945028"><ele>830.0</ele><time>2026-05-01T14:06:47.14Z</time></trkpt><trkpt lat="44.2170685" lon="11.3945057"><ele>830.5</ele><time>2026-05-01T14:06:48.14Z</time></trkpt><trkpt lat="44.2169322" lon="11.3944783"><ele>831.0</ele><time>2026-05-01T14:06:49.142Z</time></trkpt><trkpt lat="44.2168105" lon="11.3944267"><ele>831.0</ele><time>2026-05-01T14:06:50.14Z</time></trkpt><trkpt lat="44.2166942" lon="11.3943602"><ele>831.0</ele><time>2026-05-01T14:06:51.141Z</time></trkpt><trkpt lat="44.216589" lon="11.3942878"><ele>831.0</ele><time>2026-05-01T14:06:52.142Z</time></trkpt><trkpt lat="44.216502" lon="11.3942067"><ele>831.0</ele><time>2026-05-01T14:06:53.141Z</time></trkpt><trkpt lat="44.216444" lon="11.3941175"><ele>831.0</ele><time>2026-05-01T14:06:54.14Z</time></trkpt><trkpt lat="44.2164073" lon="11.3940252"><ele>832.8333333333334</ele><time>2026-05-01T14:06:55.14Z</time></trkpt><trkpt lat="44.2163765" lon="11.3939363"><ele>834.6666666666667</ele><time>2026-05-01T14:06:56.139Z</time></trkpt><trkpt lat="44.2163448" lon="11.393839"><ele>836.5</ele><time>2026-05-01T14:06:57.14Z</time></trkpt><trkpt lat="44.2163128" lon="11.3937415"><ele>838.3333333333334</ele><time>2026-05-01T14:06:58.14Z</time></trkpt><trkpt lat="44.2162715" lon="11.393655"><ele>840.1666666666667</ele><time>2026-05-01T14:06:59.14Z</time></trkpt><trkpt lat="44.2162127" lon="11.3935793"><ele>842.0</ele><time>2026-05-01T14:07:00.141Z</time></trkpt><trkpt lat="44.2161357" lon="11.3934953"><ele>842.75</ele><time>2026-05-01T14:07:01.141Z</time></trkpt><trkpt lat="44.2160603" lon="11.393385"><ele>843.5</ele><time>2026-05-01T14:07:02.141Z</time></trkpt><trkpt lat="44.215998" lon="11.3932528"><ele>844.25</ele><time>2026-05-01T14:07:03.141Z</time></trkpt><trkpt lat="44.2159365" lon="11.3931097"><ele>845.0</ele><time>2026-05-01T14:07:04.139Z</time></trkpt><trkpt lat="44.2158632" lon="11.3929548"><ele>845.0</ele><time>2026-05-01T14:07:05.137Z</time></trkpt><trkpt lat="44.2157865" lon="11.3927977"><ele>845.0</ele><time>2026-05-01T14:07:06.137Z</time></trkpt><trkpt lat="44.2157143" lon="11.3926548"><ele>845.0</ele><time>2026-05-01T14:07:07.137Z</time></trkpt><trkpt lat="44.2156467" lon="11.392529"><ele>845.0</ele><time>2026-05-01T14:07:08.137Z</time></trkpt><trkpt lat="44.2155808" lon="11.3924167"><ele>844.8</ele><time>2026-05-01T14:07:09.139Z</time></trkpt><trkpt lat="44.2155138" lon="11.392303"><ele>844.6</ele><time>2026-05-01T14:07:10.139Z</time></trkpt><trkpt lat="44.215441" lon="11.3922023"><ele>844.4000000000001</ele><time>2026-05-01T14:07:11.139Z</time></trkpt><trkpt lat="44.2153517" lon="11.3921222"><ele>844.2</ele><time>2026-05-01T14:07:12.139Z</time></trkpt><trkpt lat="44.2152488" lon="11.3920485"><ele>844.0</ele><time>2026-05-01T14:07:13.14Z</time></trkpt><trkpt lat="44.215151" lon="11.3919705"><ele>844.0</ele><time>2026-05-01T14:07:14.139Z</time></trkpt><trkpt lat="44.2150585" lon="11.39189"><ele>844.0</ele><time>2026-05-01T14:07:15.139Z</time></trkpt><trkpt lat="44.2149618" lon="11.391829"><ele>844.0</ele><time>2026-05-01T14:07:16.139Z</time></trkpt><trkpt lat="44.2148718" lon="11.3917553"><ele>844.0</ele><time>2026-05-01T14:07:17.141Z</time></trkpt><trkpt lat="44.2147902" lon="11.391656"><ele>844.0</ele><time>2026-05-01T14:07:18.139Z</time></trkpt><trkpt lat="44.2147068" lon="11.391568"><ele>846.0</ele><time>2026-05-01T14:07:19.138Z</time></trkpt><trkpt lat="44.2146097" lon="11.3914908"><ele>848.0</ele><time>2026-05-01T14:07:20.138Z</time></trkpt><trkpt lat="44.214497" lon="11.391426"><ele>850.0</ele><time>2026-05-01T14:07:21.14Z</time></trkpt><trkpt lat="44.2143852" lon="11.3913943"><ele>852.0</ele><time>2026-05-01T14:07:22.139Z</time></trkpt><trkpt lat="44.214269" lon="11.3913882"><ele>852.0</ele><time>2026-05-01T14:07:23.139Z</time></trkpt><trkpt lat="44.2141518" lon="11.3913872"><ele>852.0</ele><time>2026-05-01T14:07:24.14Z</time></trkpt><trkpt lat="44.2140473" lon="11.3913722"><ele>852.0</ele><time>2026-05-01T14:07:25.14Z</time></trkpt><trkpt lat="44.2139492" lon="11.3913497"><ele>852.0</ele><time>2026-05-01T14:07:26.138Z</time></trkpt><trkpt lat="44.2138652" lon="11.3913347"><ele>852.0</ele><time>2026-05-01T14:07:27.139Z</time></trkpt><trkpt lat="44.2137952" lon="11.391331"><ele>852.4000000000001</ele><time>2026-05-01T14:07:28.139Z</time></trkpt><trkpt lat="44.2136798" lon="11.3913248"><ele>852.8000000000001</ele><time>2026-05-01T14:07:30.138Z</time></trkpt><trkpt lat="44.213573" lon="11.3912653"><ele>853.2</ele><time>2026-05-01T14:07:32.138Z</time></trkpt><trkpt lat="44.213517" lon="11.3912053"><ele>853.6</ele><time>2026-05-01T14:07:33.14Z</time></trkpt><trkpt lat="44.2134517" lon="11.3911257"><ele>854.0</ele><time>2026-05-01T14:07:34.139Z</time></trkpt><trkpt lat="44.213373" lon="11.391035"><ele>854.0</ele><time>2026-05-01T14:07:35.139Z</time></trkpt><trkpt lat="44.2132748" lon="11.3909323"><ele>854.0</ele><time>2026-05-01T14:07:36.14Z</time></trkpt><trkpt lat="44.2131735" lon="11.3908398"><ele>854.0</ele><time>2026-05-01T14:07:37.139Z</time></trkpt><trkpt lat="44.2130768" lon="11.3907485"><ele>854.0</ele><time>2026-05-01T14:07:38.14Z</time></trkpt><trkpt lat="44.2129813" lon="11.3906512"><ele>852.75</ele><time>2026-05-01T14:07:39.139Z</time></trkpt><trkpt lat="44.2128895" lon="11.3905505"><ele>851.5</ele><time>2026-05-01T14:07:40.14Z</time></trkpt><trkpt lat="44.2127903" lon="11.3904473"><ele>850.25</ele><time>2026-05-01T14:07:41.139Z</time></trkpt><trkpt lat="44.2126825" lon="11.390332"><ele>849.0</ele><time>2026-05-01T14:07:42.14Z</time></trkpt><trkpt lat="44.2125807" lon="11.3902022"><ele>851.5</ele><time>2026-05-01T14:07:43.139Z</time></trkpt><trkpt lat="44.2124882" lon="11.3900655"><ele>854.0</ele><time>2026-05-01T14:07:44.138Z</time></trkpt><trkpt lat="44.2124125" lon="11.389931"><ele>856.5</ele><time>2026-05-01T14:07:45.139Z</time></trkpt><trkpt lat="44.2123425" lon="11.3897898"><ele>859.0</ele><time>2026-05-01T14:07:46.139Z</time></trkpt><trkpt lat="44.2122463" lon="11.3896437"><ele>860.3333333333333</ele><time>2026-05-01T14:07:47.138Z</time></trkpt><trkpt lat="44.212121" lon="11.3894937"><ele>861.6666666666667</ele><time>2026-05-01T14:07:48.151Z</time></trkpt><trkpt lat="44.2119927" lon="11.3893657"><ele>863.0</ele><time>2026-05-01T14:07:49.152Z</time></trkpt><trkpt lat="44.2118732" lon="11.3892592"><ele>863.0</ele><time>2026-05-01T14:07:50.15Z</time></trkpt><trkpt lat="44.2117593" lon="11.38918"><ele>863.0</ele><time>2026-05-01T14:07:51.149Z</time></trkpt><trkpt lat="44.2116497" lon="11.3891273"><ele>863.0</ele><time>2026-05-01T14:07:52.151Z</time></trkpt><trkpt lat="44.2115492" lon="11.3890825"><ele>863.0</ele><time>2026-05-01T14:07:53.146Z</time></trkpt><trkpt lat="44.2114572" lon="11.3890422"><ele>863.0</ele><time>2026-05-01T14:07:54.146Z</time></trkpt><trkpt lat="44.2113777" lon="11.3890023"><ele>862.3333333333334</ele><time>2026-05-01T14:07:55.146Z</time></trkpt><trkpt lat="44.2113085" lon="11.388968"><ele>861.6666666666667</ele><time>2026-05-01T14:07:56.147Z</time></trkpt><trkpt lat="44.2112457" lon="11.3889363"><ele>861.0</ele><time>2026-05-01T14:07:57.15Z</time></trkpt><trkpt lat="44.211146" lon="11.3888847"><ele>860.3333333333333</ele><time>2026-05-01T14:07:59.151Z</time></trkpt><trkpt lat="44.2110645" lon="11.3888635"><ele>859.6666666666666</ele><time>2026-05-01T14:08:01.152Z</time></trkpt><trkpt lat="44.2109833" lon="11.3888308"><ele>859.0</ele><time>2026-05-01T14:08:03.153Z</time></trkpt><trkpt lat="44.210893" lon="11.3888022"><ele>858.9999999999999</ele><time>2026-05-01T14:08:05.153Z</time></trkpt><trkpt lat="44.2107893" lon="11.3887398"><ele>859.0</ele><time>2026-05-01T14:08:07.153Z</time></trkpt><trkpt lat="44.2107315" lon="11.3886983"><ele>859.0</ele><time>2026-05-01T14:08:08.153Z</time></trkpt><trkpt lat="44.2106667" lon="11.3886577"><ele>859.0</ele><time>2026-05-01T14:08:09.152Z</time></trkpt><trkpt lat="44.2105985" lon="11.3886082"><ele>858.9999999999999</ele><time>2026-05-01T14:08:10.151Z</time></trkpt><trkpt lat="44.2105295" lon="11.388552"><ele>859.0</ele><time>2026-05-01T14:08:11.152Z</time></trkpt><trkpt lat="44.2104672" lon="11.3884975"><ele>859.2857142857142</ele><time>2026-05-01T14:08:12.151Z</time></trkpt><trkpt lat="44.2104068" lon="11.3884503"><ele>859.5714285714286</ele><time>2026-05-01T14:08:13.151Z</time></trkpt><trkpt lat="44.210342" lon="11.3884192"><ele>859.8571428571429</ele><time>2026-05-01T14:08:14.151Z</time></trkpt><trkpt lat="44.210273" lon="11.3883927"><ele>860.1428571428571</ele><time>2026-05-01T14:08:15.153Z</time></trkpt><trkpt lat="44.210207" lon="11.3883597"><ele>860.4285714285714</ele><time>2026-05-01T14:08:16.152Z</time></trkpt><trkpt lat="44.2101398" lon="11.3883185"><ele>860.7142857142857</ele><time>2026-05-01T14:08:17.153Z</time></trkpt><trkpt lat="44.2100732" lon="11.3882748"><ele>861.0</ele><time>2026-05-01T14:08:18.149Z</time></trkpt><trkpt lat="44.2099998" lon="11.3882395"><ele>861.0</ele><time>2026-05-01T14:08:19.15Z</time></trkpt><trkpt lat="44.2099208" lon="11.3882103"><ele>861.0</ele><time>2026-05-01T14:08:20.148Z</time></trkpt><trkpt lat="44.2098382" lon="11.3881867"><ele>861.0</ele><time>2026-05-01T14:08:21.15Z</time></trkpt><trkpt lat="44.2097525" lon="11.3881663"><ele>861.0</ele><time>2026-05-01T14:08:22.152Z</time></trkpt><trkpt lat="44.2096627" lon="11.3881467"><ele>861.0</ele><time>2026-05-01T14:08:23.151Z</time></trkpt><trkpt lat="44.2095675" lon="11.3881255"><ele>861.0</ele><time>2026-05-01T14:08:24.152Z</time></trkpt><trkpt lat="44.2094713" lon="11.3880957"><ele>861.25</ele><time>2026-05-01T14:08:25.152Z</time></trkpt><trkpt lat="44.2093703" lon="11.3880642"><ele>861.5</ele><time>2026-05-01T14:08:26.151Z</time></trkpt><trkpt lat="44.2092607" lon="11.3880362"><ele>861.75</ele><time>2026-05-01T14:08:27.155Z</time></trkpt><trkpt lat="44.209145" lon="11.3879998"><ele>862.0</ele><time>2026-05-01T14:08:28.155Z</time></trkpt><trkpt lat="44.2090323" lon="11.3879595"><ele>863.5</ele><time>2026-05-01T14:08:29.154Z</time></trkpt><trkpt lat="44.2089193" lon="11.3879258"><ele>865.0</ele><time>2026-05-01T14:08:30.155Z</time></trkpt><trkpt lat="44.2088038" lon="11.3879007"><ele>866.5</ele><time>2026-05-01T14:08:31.155Z</time></trkpt><trkpt lat="44.2086885" lon="11.3878852"><ele>868.0</ele><time>2026-05-01T14:08:32.153Z</time></trkpt><trkpt lat="44.2085703" lon="11.3878822"><ele>868.0</ele><time>2026-05-01T14:08:33.141Z</time></trkpt><trkpt lat="44.2084487" lon="11.3878932"><ele>868.0</ele><time>2026-05-01T14:08:34.143Z</time></trkpt><trkpt lat="44.2083253" lon="11.3879143"><ele>868.0</ele><time>2026-05-01T14:08:35.14Z</time></trkpt><trkpt lat="44.2082012" lon="11.38794"><ele>868.0</ele><time>2026-05-01T14:08:36.14Z</time></trkpt><trkpt lat="44.2080778" lon="11.3879595"><ele>870.0</ele><time>2026-05-01T14:08:37.143Z</time></trkpt><trkpt lat="44.2079542" lon="11.3879753"><ele>872.0</ele><time>2026-05-01T14:08:38.14Z</time></trkpt><trkpt lat="44.207832" lon="11.3879983"><ele>874.0</ele><time>2026-05-01T14:08:39.141Z</time></trkpt><trkpt lat="44.207717" lon="11.3880413"><ele>876.0</ele><time>2026-05-01T14:08:40.14Z</time></trkpt><trkpt lat="44.2076223" lon="11.3881048"><ele>876.8333333333334</ele><time>2026-05-01T14:08:41.141Z</time></trkpt><trkpt lat="44.2075465" lon="11.3881772"><ele>877.6666666666667</ele><time>2026-05-01T14:08:42.139Z</time></trkpt><trkpt lat="44.207476" lon="11.388222"><ele>878.5</ele><time>2026-05-01T14:08:43.14Z</time></trkpt><trkpt lat="44.2074013" lon="11.3882333"><ele>879.3333333333334</ele><time>2026-05-01T14:08:44.138Z</time></trkpt><trkpt lat="44.2073203" lon="11.3882192"><ele>880.1666666666667</ele><time>2026-05-01T14:08:45.138Z</time></trkpt><trkpt lat="44.2072272" lon="11.388187"><ele>881.0</ele><time>2026-05-01T14:08:46.138Z</time></trkpt><trkpt lat="44.2071157" lon="11.3881467"><ele>882.75</ele><time>2026-05-01T14:08:47.141Z</time></trkpt><trkpt lat="44.2070023" lon="11.3881187"><ele>884.5</ele><time>2026-05-01T14:08:48.153Z</time></trkpt><trkpt lat="44.2068877" lon="11.3880902"><ele>886.25</ele><time>2026-05-01T14:08:49.152Z</time></trkpt><trkpt lat="44.2067735" lon="11.3880592"><ele>888.0</ele><time>2026-05-01T14:08:50.152Z</time></trkpt><trkpt lat="44.2066727" lon="11.3880275"><ele>888.0</ele><time>2026-05-01T14:08:51.152Z</time></trkpt><trkpt lat="44.2065715" lon="11.3880147"><ele>888.0</ele><time>2026-05-01T14:08:52.154Z</time></trkpt><trkpt lat="44.206456" lon="11.3880127"><ele>888.0</ele><time>2026-05-01T14:08:53.151Z</time></trkpt><trkpt lat="44.2063192" lon="11.388009"><ele>888.0</ele><time>2026-05-01T14:08:54.139Z</time></trkpt><trkpt lat="44.2061667" lon="11.3879958"><ele>889.75</ele><time>2026-05-01T14:08:55.14Z</time></trkpt><trkpt lat="44.2060273" lon="11.3879728"><ele>891.5</ele><time>2026-05-01T14:08:56.14Z</time></trkpt><trkpt lat="44.2059033" lon="11.3879463"><ele>893.25</ele><time>2026-05-01T14:08:57.138Z</time></trkpt><trkpt lat="44.2057983" lon="11.3879297"><ele>895.0</ele><time>2026-05-01T14:08:58.14Z</time></trkpt><trkpt lat="44.2057113" lon="11.387899"><ele>897.8</ele><time>2026-05-01T14:08:59.14Z</time></trkpt><trkpt lat="44.205628" lon="11.3878333"><ele>900.6</ele><time>2026-05-01T14:09:00.14Z</time></trkpt><trkpt lat="44.2055532" lon="11.3877527"><ele>903.4000000000001</ele><time>2026-05-01T14:09:01.14Z</time></trkpt><trkpt lat="44.2054793" lon="11.3876805"><ele>906.2</ele><time>2026-05-01T14:09:02.138Z</time></trkpt><trkpt lat="44.205397" lon="11.3876097"><ele>909.0</ele><time>2026-05-01T14:09:03.139Z</time></trkpt><trkpt lat="44.2052982" lon="11.3875228"><ele>909.0</ele><time>2026-05-01T14:09:04.14Z</time></trkpt><trkpt lat="44.2051967" lon="11.38743"><ele>909.0000000000001</ele><time>2026-05-01T14:09:05.138Z</time></trkpt><trkpt lat="44.2051012" lon="11.3873515"><ele>909.0000000000001</ele><time>2026-05-01T14:09:06.138Z</time></trkpt><trkpt lat="44.2050047" lon="11.387285"><ele>909.0</ele><time>2026-05-01T14:09:07.137Z</time></trkpt><trkpt lat="44.2049257" lon="11.387238"><ele>909.0</ele><time>2026-05-01T14:09:08.136Z</time></trkpt><trkpt lat="44.2048555" lon="11.3872105"><ele>909.4285714285713</ele><time>2026-05-01T14:09:09.135Z</time></trkpt><trkpt lat="44.2047812" lon="11.3872105"><ele>909.8571428571429</ele><time>2026-05-01T14:09:10.137Z</time></trkpt><trkpt lat="44.2046952" lon="11.3872157"><ele>910.2857142857142</ele><time>2026-05-01T14:09:11.139Z</time></trkpt><trkpt lat="44.2046248" lon="11.3871997"><ele>910.7142857142857</ele><time>2026-05-01T14:09:12.141Z</time></trkpt><trkpt lat="44.2045732" lon="11.3871462"><ele>911.1428571428571</ele><time>2026-05-01T14:09:13.14Z</time></trkpt><trkpt lat="44.2045448" lon="11.3870637"><ele>911.5714285714286</ele><time>2026-05-01T14:09:14.14Z</time></trkpt><trkpt lat="44.204525" lon="11.3869687"><ele>912.0</ele><time>2026-05-01T14:09:15.139Z</time></trkpt><trkpt lat="44.204484" lon="11.3868747"><ele>913.3333333333334</ele><time>2026-05-01T14:09:16.138Z</time></trkpt><trkpt lat="44.204429" lon="11.3867775"><ele>914.6666666666667</ele><time>2026-05-01T14:09:17.14Z</time></trkpt><trkpt lat="44.2043773" lon="11.3866873"><ele>916.0</ele><time>2026-05-01T14:09:18.139Z</time></trkpt><trkpt lat="44.2043318" lon="11.3866008"><ele>917.3333333333334</ele><time>2026-05-01T14:09:19.139Z</time></trkpt><trkpt lat="44.204288" lon="11.3865112"><ele>918.6666666666667</ele><time>2026-05-01T14:09:20.139Z</time></trkpt><trkpt lat="44.2042467" lon="11.3864172"><ele>920.0</ele><time>2026-05-01T14:09:21.138Z</time></trkpt><trkpt lat="44.2042053" lon="11.3863297"><ele>919.9999999999999</ele><time>2026-05-01T14:09:22.139Z</time></trkpt><trkpt lat="44.2041632" lon="11.3862538"><ele>920.0</ele><time>2026-05-01T14:09:23.138Z</time></trkpt><trkpt lat="44.204124" lon="11.3861843"><ele>919.9999999999999</ele><time>2026-05-01T14:09:24.139Z</time></trkpt><trkpt lat="44.204085" lon="11.3861142"><ele>919.9999999999999</ele><time>2026-05-01T14:09:25.139Z</time></trkpt><trkpt lat="44.2040347" lon="11.3860358"><ele>920.0</ele><time>2026-05-01T14:09:26.138Z</time></trkpt><trkpt lat="44.2039717" lon="11.3859545"><ele>919.9999999999999</ele><time>2026-05-01T14:09:27.139Z</time></trkpt><trkpt lat="44.2039042" lon="11.3858828"><ele>919.9999999999999</ele><time>2026-05-01T14:09:28.139Z</time></trkpt><trkpt lat="44.2038397" lon="11.385818"><ele>920.6666666666667</ele><time>2026-05-01T14:09:29.138Z</time></trkpt><trkpt lat="44.2037822" lon="11.3857557"><ele>921.3333333333334</ele><time>2026-05-01T14:09:30.139Z</time></trkpt><trkpt lat="44.2037385" lon="11.3856923"><ele>922.0</ele><time>2026-05-01T14:09:31.138Z</time></trkpt><trkpt lat="44.2036698" lon="11.3855483"><ele>922.6666666666667</ele><time>2026-05-01T14:09:33.137Z</time></trkpt><trkpt lat="44.2036168" lon="11.3854867"><ele>923.3333333333334</ele><time>2026-05-01T14:09:34.136Z</time></trkpt><trkpt lat="44.2035593" lon="11.3854365"><ele>924.0</ele><time>2026-05-01T14:09:35.137Z</time></trkpt><trkpt lat="44.2034977" lon="11.3853883"><ele>924.1428571428571</ele><time>2026-05-01T14:09:36.139Z</time></trkpt><trkpt lat="44.2034282" lon="11.3853497"><ele>924.2857142857142</ele><time>2026-05-01T14:09:37.139Z</time></trkpt><trkpt lat="44.2033523" lon="11.3853185"><ele>924.4285714285714</ele><time>2026-05-01T14:09:38.139Z</time></trkpt><trkpt lat="44.2032893" lon="11.3852733"><ele>924.5714285714286</ele><time>2026-05-01T14:09:39.14Z</time></trkpt><trkpt lat="44.2032392" lon="11.3851938"><ele>924.7142857142857</ele><time>2026-05-01T14:09:40.14Z</time></trkpt><trkpt lat="44.203191" lon="11.3851162"><ele>924.8571428571429</ele><time>2026-05-01T14:09:41.139Z</time></trkpt><trkpt lat="44.203135" lon="11.3850518"><ele>925.0</ele><time>2026-05-01T14:09:42.139Z</time></trkpt><trkpt lat="44.2030797" lon="11.3849918"><ele>925.3333333333333</ele><time>2026-05-01T14:09:43.141Z</time></trkpt><trkpt lat="44.2030175" lon="11.384927"><ele>925.6666666666666</ele><time>2026-05-01T14:09:44.139Z</time></trkpt><trkpt lat="44.202953" lon="11.384873"><ele>926.0</ele><time>2026-05-01T14:09:45.139Z</time></trkpt><trkpt lat="44.2028833" lon="11.3848223"><ele>926.3333333333333</ele><time>2026-05-01T14:09:46.14Z</time></trkpt><trkpt lat="44.2028237" lon="11.384753"><ele>926.6666666666666</ele><time>2026-05-01T14:09:47.138Z</time></trkpt><trkpt lat="44.2027682" lon="11.3846882"><ele>927.0</ele><time>2026-05-01T14:09:48.14Z</time></trkpt><trkpt lat="44.2026923" lon="11.3845718"><ele>927.6666666666666</ele><time>2026-05-01T14:09:50.14Z</time></trkpt><trkpt lat="44.2026508" lon="11.384487"><ele>928.3333333333333</ele><time>2026-05-01T14:09:51.14Z</time></trkpt><trkpt lat="44.2026115" lon="11.384382"><ele>929.0</ele><time>2026-05-01T14:09:52.141Z</time></trkpt><trkpt lat="44.2025753" lon="11.3842897"><ele>929.6666666666666</ele><time>2026-05-01T14:09:53.139Z</time></trkpt><trkpt lat="44.2025347" lon="11.3841942"><ele>930.3333333333333</ele><time>2026-05-01T14:09:54.141Z</time></trkpt><trkpt lat="44.2024982" lon="11.3840998"><ele>931.0</ele><time>2026-05-01T14:09:55.139Z</time></trkpt><trkpt lat="44.2024602" lon="11.384"><ele>930.9999999999999</ele><time>2026-05-01T14:09:56.138Z</time></trkpt><trkpt lat="44.2024132" lon="11.3839018"><ele>931.0</ele><time>2026-05-01T14:09:57.138Z</time></trkpt><trkpt lat="44.2023562" lon="11.3838175"><ele>931.0</ele><time>2026-05-01T14:09:58.137Z</time></trkpt><trkpt lat="44.2023027" lon="11.383744"><ele>931.0</ele><time>2026-05-01T14:09:59.137Z</time></trkpt><trkpt lat="44.2022592" lon="11.3836498"><ele>930.9999999999999</ele><time>2026-05-01T14:10:00.163Z</time></trkpt><trkpt lat="44.202226" lon="11.383547"><ele>931.0</ele><time>2026-05-01T14:10:01.16Z</time></trkpt><trkpt lat="44.202185" lon="11.3834548"><ele>931.4999999999999</ele><time>2026-05-01T14:10:02.148Z</time></trkpt><trkpt lat="44.2021427" lon="11.3833638"><ele>932.0</ele><time>2026-05-01T14:10:03.151Z</time></trkpt><trkpt lat="44.202113" lon="11.3832613"><ele>932.5</ele><time>2026-05-01T14:10:04.151Z</time></trkpt><trkpt lat="44.2020835" lon="11.3831677"><ele>933.0</ele><time>2026-05-01T14:10:05.15Z</time></trkpt><trkpt lat="44.202044" lon="11.3830975"><ele>933.4999999999999</ele><time>2026-05-01T14:10:06.148Z</time></trkpt><trkpt lat="44.201986" lon="11.3830295"><ele>934.0</ele><time>2026-05-01T14:10:07.15Z</time></trkpt><trkpt lat="44.201915" lon="11.382949"><ele>933.9999999999999</ele><time>2026-05-01T14:10:08.15Z</time></trkpt><trkpt lat="44.2018462" lon="11.3828653"><ele>934.0</ele><time>2026-05-01T14:10:09.151Z</time></trkpt><trkpt lat="44.2017777" lon="11.3827857"><ele>934.0</ele><time>2026-05-01T14:10:10.153Z</time></trkpt><trkpt lat="44.2017213" lon="11.3826905"><ele>934.0</ele><time>2026-05-01T14:10:11.15Z</time></trkpt><trkpt lat="44.2016738" lon="11.3826207"><ele>933.9999999999999</ele><time>2026-05-01T14:10:12.137Z</time></trkpt><trkpt lat="44.2015867" lon="11.3825488"><ele>934.0</ele><time>2026-05-01T14:10:14.149Z</time></trkpt><trkpt lat="44.2014787" lon="11.3824472"><ele>934.2857142857142</ele><time>2026-05-01T14:10:16.164Z</time></trkpt><trkpt lat="44.2014225" lon="11.3823723"><ele>934.5714285714286</ele><time>2026-05-01T14:10:17.162Z</time></trkpt><trkpt lat="44.201378" lon="11.3822893"><ele>934.8571428571429</ele><time>2026-05-01T14:10:18.161Z</time></trkpt><trkpt lat="44.2013378" lon="11.3822072"><ele>935.1428571428571</ele><time>2026-05-01T14:10:19.157Z</time></trkpt><trkpt lat="44.2012918" lon="11.3821287"><ele>935.4285714285716</ele><time>2026-05-01T14:10:20.156Z</time></trkpt><trkpt lat="44.2012427" lon="11.3820533"><ele>935.7142857142858</ele><time>2026-05-01T14:10:21.156Z</time></trkpt><trkpt lat="44.2011832" lon="11.3820027"><ele>936.0</ele><time>2026-05-01T14:10:22.156Z</time></trkpt><trkpt lat="44.2011203" lon="11.3819402"><ele>936.0</ele><time>2026-05-01T14:10:23.156Z</time></trkpt><trkpt lat="44.2010542" lon="11.3818643"><ele>936.0</ele><time>2026-05-01T14:10:24.159Z</time></trkpt><trkpt lat="44.2009843" lon="11.3817902"><ele>936.0</ele><time>2026-05-01T14:10:25.16Z</time></trkpt><trkpt lat="44.2009142" lon="11.3817197"><ele>936.0</ele><time>2026-05-01T14:10:26.137Z</time></trkpt><trkpt lat="44.200849" lon="11.3816533"><ele>936.0</ele><time>2026-05-01T14:10:27.138Z</time></trkpt><trkpt lat="44.2007775" lon="11.381584"><ele>936.0</ele><time>2026-05-01T14:10:28.138Z</time></trkpt><trkpt lat="44.200705" lon="11.3815087"><ele>936.6666666666666</ele><time>2026-05-01T14:10:29.138Z</time></trkpt><trkpt lat="44.2006355" lon="11.3814287"><ele>937.3333333333333</ele><time>2026-05-01T14:10:30.139Z</time></trkpt><trkpt lat="44.200572" lon="11.3813618"><ele>938.0</ele><time>2026-05-01T14:10:31.138Z</time></trkpt><trkpt lat="44.2005058" lon="11.3812887"><ele>938.6666666666666</ele><time>2026-05-01T14:10:32.138Z</time></trkpt><trkpt lat="44.2004463" lon="11.3812168"><ele>939.3333333333333</ele><time>2026-05-01T14:10:33.139Z</time></trkpt><trkpt lat="44.2003943" lon="11.3811565"><ele>940.0</ele><time>2026-05-01T14:10:34.138Z</time></trkpt><trkpt lat="44.2003363" lon="11.3810965"><ele>939.9999999999999</ele><time>2026-05-01T14:10:35.139Z</time></trkpt><trkpt lat="44.2002703" lon="11.3810293"><ele>940.0</ele><time>2026-05-01T14:10:36.139Z</time></trkpt><trkpt lat="44.2002082" lon="11.380957"><ele>940.0</ele><time>2026-05-01T14:10:37.139Z</time></trkpt><trkpt lat="44.2001422" lon="11.3808848"><ele>940.0</ele><time>2026-05-01T14:10:38.138Z</time></trkpt><trkpt lat="44.2000665" lon="11.38081"><ele>939.9999999999999</ele><time>2026-05-01T14:10:39.138Z</time></trkpt><trkpt lat="44.2000033" lon="11.3807327"><ele>940.0</ele><time>2026-05-01T14:10:40.139Z</time></trkpt><trkpt lat="44.199953" lon="11.3806552"><ele>940.0</ele><time>2026-05-01T14:10:41.138Z</time></trkpt><trkpt lat="44.1999075" lon="11.3805727"><ele>940.0</ele><time>2026-05-01T14:10:42.138Z</time></trkpt><trkpt lat="44.1998565" lon="11.3804785"><ele>940.0</ele><time>2026-05-01T14:10:43.138Z</time></trkpt><trkpt lat="44.1998063" lon="11.3803745"><ele>940.0</ele><time>2026-05-01T14:10:44.138Z</time></trkpt><trkpt lat="44.1997713" lon="11.380293"><ele>940.0</ele><time>2026-05-01T14:10:45.136Z</time></trkpt><trkpt lat="44.1997067" lon="11.3801288"><ele>941.0</ele><time>2026-05-01T14:10:47.136Z</time></trkpt><trkpt lat="44.1996742" lon="11.380033"><ele>941.9999999999999</ele><time>2026-05-01T14:10:48.137Z</time></trkpt><trkpt lat="44.1996372" lon="11.3799343"><ele>943.0</ele><time>2026-05-01T14:10:49.139Z</time></trkpt><trkpt lat="44.1996052" lon="11.3798497"><ele>944.0</ele><time>2026-05-01T14:10:50.139Z</time></trkpt><trkpt lat="44.1995772" lon="11.3797533"><ele>944.9999999999999</ele><time>2026-05-01T14:10:51.14Z</time></trkpt><trkpt lat="44.1995527" lon="11.3796523"><ele>946.0</ele><time>2026-05-01T14:10:52.139Z</time></trkpt><trkpt lat="44.1995177" lon="11.379565"><ele>947.0</ele><time>2026-05-01T14:10:53.138Z</time></trkpt><trkpt lat="44.1994775" lon="11.3794903"><ele>947.8333333333334</ele><time>2026-05-01T14:10:54.138Z</time></trkpt><trkpt lat="44.1994425" lon="11.3794153"><ele>948.6666666666667</ele><time>2026-05-01T14:10:55.139Z</time></trkpt><trkpt lat="44.1994113" lon="11.3793243"><ele>949.5</ele><time>2026-05-01T14:10:56.137Z</time></trkpt><trkpt lat="44.1993752" lon="11.379234"><ele>950.3333333333333</ele><time>2026-05-01T14:10:57.138Z</time></trkpt><trkpt lat="44.1993467" lon="11.379155"><ele>951.1666666666666</ele><time>2026-05-01T14:10:58.137Z</time></trkpt><trkpt lat="44.1993287" lon="11.3790053"><ele>952.0</ele><time>2026-05-01T14:11:00.138Z</time></trkpt><trkpt lat="44.1992865" lon="11.3788612"><ele>952.4285714285714</ele><time>2026-05-01T14:11:02.138Z</time></trkpt><trkpt lat="44.1992552" lon="11.3787808"><ele>952.8571428571429</ele><time>2026-05-01T14:11:03.139Z</time></trkpt><trkpt lat="44.1992192" lon="11.3786305"><ele>953.2857142857142</ele><time>2026-05-01T14:11:05.138Z</time></trkpt><trkpt lat="44.1991993" lon="11.3785468"><ele>953.7142857142857</ele><time>2026-05-01T14:11:06.139Z</time></trkpt><trkpt lat="44.1991847" lon="11.3784613"><ele>954.1428571428571</ele><time>2026-05-01T14:11:07.139Z</time></trkpt><trkpt lat="44.1991728" lon="11.3783603"><ele>954.5714285714284</ele><time>2026-05-01T14:11:09.137Z</time></trkpt><trkpt lat="44.1991368" lon="11.3782852"><ele>954.9999999999999</ele><time>2026-05-01T14:11:56.138Z</time></trkpt><trkpt lat="44.1991098" lon="11.3782002"><ele>954.9999999999999</ele><time>2026-05-01T14:12:00.136Z</time></trkpt><trkpt lat="44.1990792" lon="11.3781053"><ele>955.0</ele><time>2026-05-01T14:12:05.138Z</time></trkpt><trkpt lat="44.1990203" lon="11.3780232"><ele>955.0</ele><time>2026-05-01T14:12:08.139Z</time></trkpt><trkpt lat="44.198983" lon="11.3779497"><ele>955.0</ele><time>2026-05-01T14:12:10.139Z</time></trkpt><trkpt lat="44.1989185" lon="11.3778593"><ele>954.9999999999999</ele><time>2026-05-01T14:12:12.139Z</time></trkpt><trkpt lat="44.1988442" lon="11.3777802"><ele>955.0</ele><time>2026-05-01T14:12:14.138Z</time></trkpt><trkpt lat="44.1987683" lon="11.3776893"><ele>953.6</ele><time>2026-05-01T14:12:16.139Z</time></trkpt><trkpt lat="44.1987113" lon="11.3775645"><ele>952.2</ele><time>2026-05-01T14:12:18.14Z</time></trkpt><trkpt lat="44.1986548" lon="11.3774757"><ele>950.8</ele><time>2026-05-01T14:12:20.139Z</time></trkpt><trkpt lat="44.1985957" lon="11.3773797"><ele>949.4</ele><time>2026-05-01T14:12:22.138Z</time></trkpt><trkpt lat="44.1985207" lon="11.3772715"><ele>948.0</ele><time>2026-05-01T14:12:24.136Z</time></trkpt><trkpt lat="44.1984343" lon="11.3771498"><ele>947.8333333333334</ele><time>2026-05-01T14:12:26.135Z</time></trkpt><trkpt lat="44.1983868" lon="11.3770797"><ele>947.6666666666667</ele><time>2026-05-01T14:12:27.138Z</time></trkpt><trkpt lat="44.198339" lon="11.3770105"><ele>947.5</ele><time>2026-05-01T14:12:28.138Z</time></trkpt><trkpt lat="44.1982898" lon="11.3769503"><ele>947.3333333333334</ele><time>2026-05-01T14:12:29.138Z</time></trkpt><trkpt lat="44.1982153" lon="11.3768353"><ele>947.1666666666667</ele><time>2026-05-01T14:12:31.137Z</time></trkpt><trkpt lat="44.1981773" lon="11.376718"><ele>947.0</ele><time>2026-05-01T14:12:33.137Z</time></trkpt><trkpt lat="44.1981388" lon="11.3766448"><ele>945.6</ele><time>2026-05-01T14:12:35.137Z</time></trkpt><trkpt lat="44.1980762" lon="11.3765765"><ele>944.2</ele><time>2026-05-01T14:12:37.137Z</time></trkpt><trkpt lat="44.1980115" lon="11.376497"><ele>942.8</ele><time>2026-05-01T14:12:39.138Z</time></trkpt><trkpt lat="44.1980232" lon="11.376399"><ele>941.4</ele><time>2026-05-01T14:12:41.137Z</time></trkpt><trkpt lat="44.1980662" lon="11.3762828"><ele>940.0</ele><time>2026-05-01T14:12:43.138Z</time></trkpt><trkpt lat="44.1981343" lon="11.3761462"><ele>939.2</ele><time>2026-05-01T14:12:45.139Z</time></trkpt><trkpt lat="44.1982223" lon="11.3760282"><ele>938.4</ele><time>2026-05-01T14:12:47.135Z</time></trkpt><trkpt lat="44.1982442" lon="11.3759082"><ele>937.5999999999999</ele><time>2026-05-01T14:12:49.136Z</time></trkpt><trkpt lat="44.1982448" lon="11.3757532"><ele>936.8</ele><time>2026-05-01T14:12:51.137Z</time></trkpt><trkpt lat="44.1982223" lon="11.3755918"><ele>936.0</ele><time>2026-05-01T14:12:53.139Z</time></trkpt><trkpt lat="44.1982233" lon="11.3754583"><ele>932.5999999999999</ele><time>2026-05-01T14:12:55.137Z</time></trkpt><trkpt lat="44.1982848" lon="11.3753465"><ele>929.1999999999999</ele><time>2026-05-01T14:12:57.162Z</time></trkpt><trkpt lat="44.1983358" lon="11.3751945"><ele>925.8000000000001</ele><time>2026-05-01T14:12:59.138Z</time></trkpt><trkpt lat="44.1983598" lon="11.3750483"><ele>922.4000000000001</ele><time>2026-05-01T14:13:01.138Z</time></trkpt><trkpt lat="44.1983965" lon="11.374927"><ele>919.0</ele><time>2026-05-01T14:13:03.139Z</time></trkpt><trkpt lat="44.19848" lon="11.3748745"><ele>919.0</ele><time>2026-05-01T14:13:05.138Z</time></trkpt><trkpt lat="44.1985605" lon="11.374835"><ele>919.0000000000001</ele><time>2026-05-01T14:13:07.139Z</time></trkpt><trkpt lat="44.1985933" lon="11.3747555"><ele>919.0000000000001</ele><time>2026-05-01T14:13:09.138Z</time></trkpt><trkpt lat="44.1986002" lon="11.3746328"><ele>919.0</ele><time>2026-05-01T14:13:15.136Z</time></trkpt><trkpt lat="44.1986275" lon="11.3745028"><ele>919.0</ele><time>2026-05-01T14:13:17.138Z</time></trkpt><trkpt lat="44.1986805" lon="11.3743445"><ele>916.8333333333333</ele><time>2026-05-01T14:13:19.139Z</time></trkpt><trkpt lat="44.198722" lon="11.3742628"><ele>914.6666666666666</ele><time>2026-05-01T14:13:20.14Z</time></trkpt><trkpt lat="44.1987693" lon="11.3741928"><ele>912.5</ele><time>2026-05-01T14:13:21.14Z</time></trkpt><trkpt lat="44.198822" lon="11.3740908"><ele>910.3333333333333</ele><time>2026-05-01T14:13:23.138Z</time></trkpt><trkpt lat="44.1988243" lon="11.373963"><ele>908.1666666666666</ele><time>2026-05-01T14:13:25.14Z</time></trkpt><trkpt lat="44.1988477" lon="11.373791"><ele>906.0</ele><time>2026-05-01T14:13:27.14Z</time></trkpt><trkpt lat="44.198863" lon="11.3737033"><ele>904.5</ele><time>2026-05-01T14:13:28.141Z</time></trkpt><trkpt lat="44.1989303" lon="11.3735558"><ele>903.0</ele><time>2026-05-01T14:13:30.14Z</time></trkpt><trkpt lat="44.1989827" lon="11.3734988"><ele>901.5</ele><time>2026-05-01T14:13:31.141Z</time></trkpt><trkpt lat="44.1990363" lon="11.3734397"><ele>900.0</ele><time>2026-05-01T14:13:32.141Z</time></trkpt><trkpt lat="44.1990878" lon="11.3733747"><ele>898.5</ele><time>2026-05-01T14:13:33.14Z</time></trkpt><trkpt lat="44.1991357" lon="11.3733063"><ele>897.0</ele><time>2026-05-01T14:13:34.14Z</time></trkpt><trkpt lat="44.1991823" lon="11.373244"><ele>897.0</ele><time>2026-05-01T14:13:35.14Z</time></trkpt><trkpt lat="44.1992252" lon="11.3731722"><ele>897.0</ele><time>2026-05-01T14:13:36.138Z</time></trkpt><trkpt lat="44.1992712" lon="11.3731022"><ele>897.0</ele><time>2026-05-01T14:13:37.138Z</time></trkpt><trkpt lat="44.199325" lon="11.3730412"><ele>897.0</ele><time>2026-05-01T14:13:38.143Z</time></trkpt><trkpt lat="44.1993883" lon="11.3729738"><ele>897.0</ele><time>2026-05-01T14:13:39.16Z</time></trkpt><trkpt lat="44.1994478" lon="11.372907"><ele>897.0</ele><time>2026-05-01T14:13:40.158Z</time></trkpt><trkpt lat="44.1995072" lon="11.3728327"><ele>897.0</ele><time>2026-05-01T14:13:41.164Z</time></trkpt><trkpt lat="44.1995708" lon="11.3727667"><ele>895.0</ele><time>2026-05-01T14:13:42.165Z</time></trkpt><trkpt lat="44.1996338" lon="11.3727052"><ele>893.0</ele><time>2026-05-01T14:13:43.163Z</time></trkpt><trkpt lat="44.1996893" lon="11.3726395"><ele>891.0</ele><time>2026-05-01T14:13:44.163Z</time></trkpt><trkpt lat="44.1997493" lon="11.3725798"><ele>889.0</ele><time>2026-05-01T14:13:45.163Z</time></trkpt><trkpt lat="44.1998048" lon="11.372526"><ele>887.0</ele><time>2026-05-01T14:13:46.165Z</time></trkpt><trkpt lat="44.1998695" lon="11.3724703"><ele>885.0</ele><time>2026-05-01T14:13:47.151Z</time></trkpt><trkpt lat="44.1999425" lon="11.3724157"><ele>884.6</ele><time>2026-05-01T14:13:48.15Z</time></trkpt><trkpt lat="44.200021" lon="11.3723605"><ele>884.2</ele><time>2026-05-01T14:13:49.15Z</time></trkpt><trkpt lat="44.2000907" lon="11.3723087"><ele>883.8</ele><time>2026-05-01T14:13:50.15Z</time></trkpt><trkpt lat="44.2001513" lon="11.372253"><ele>883.4</ele><time>2026-05-01T14:13:51.163Z</time></trkpt><trkpt lat="44.200252" lon="11.3721487"><ele>883.0</ele><time>2026-05-01T14:13:53.163Z</time></trkpt><trkpt lat="44.200351" lon="11.3720628"><ele>881.8</ele><time>2026-05-01T14:13:55.164Z</time></trkpt><trkpt lat="44.2004598" lon="11.3719968"><ele>880.5999999999999</ele><time>2026-05-01T14:13:57.163Z</time></trkpt><trkpt lat="44.200536" lon="11.3719133"><ele>879.4000000000001</ele><time>2026-05-01T14:13:59.138Z</time></trkpt><trkpt lat="44.2005838" lon="11.371817"><ele>878.2</ele><time>2026-05-01T14:14:01.138Z</time></trkpt><trkpt lat="44.2006537" lon="11.3717008"><ele>877.0</ele><time>2026-05-01T14:14:03.137Z</time></trkpt><trkpt lat="44.2007143" lon="11.3715625"><ele>876.9999999999999</ele><time>2026-05-01T14:14:05.139Z</time></trkpt><trkpt lat="44.2007435" lon="11.3714805"><ele>877.0</ele><time>2026-05-01T14:14:06.138Z</time></trkpt><trkpt lat="44.200776" lon="11.3714012"><ele>877.0</ele><time>2026-05-01T14:14:07.138Z</time></trkpt><trkpt lat="44.2007982" lon="11.3713175"><ele>877.0</ele><time>2026-05-01T14:14:08.14Z</time></trkpt><trkpt lat="44.2008255" lon="11.3711693"><ele>876.9999999999999</ele><time>2026-05-01T14:14:10.138Z</time></trkpt><trkpt lat="44.2008492" lon="11.3710188"><ele>877.0</ele><time>2026-05-01T14:14:12.139Z</time></trkpt><trkpt lat="44.2008517" lon="11.3708593"><ele>875.9999999999999</ele><time>2026-05-01T14:14:14.139Z</time></trkpt><trkpt lat="44.2008462" lon="11.3707628"><ele>875.0</ele><time>2026-05-01T14:14:15.14Z</time></trkpt><trkpt lat="44.2008352" lon="11.3706625"><ele>874.0</ele><time>2026-05-01T14:14:16.139Z</time></trkpt><trkpt lat="44.2008302" lon="11.3705735"><ele>873.0</ele><time>2026-05-01T14:14:17.138Z</time></trkpt><trkpt lat="44.2008653" lon="11.3704053"><ele>871.9999999999999</ele><time>2026-05-01T14:14:19.138Z</time></trkpt><trkpt lat="44.2008932" lon="11.3703163"><ele>871.0</ele><time>2026-05-01T14:14:20.139Z</time></trkpt><trkpt lat="44.200934" lon="11.3702278"><ele>870.4999999999999</ele><time>2026-05-01T14:14:21.14Z</time></trkpt><trkpt lat="44.2009765" lon="11.3701577"><ele>870.0</ele><time>2026-05-01T14:14:22.14Z</time></trkpt><trkpt lat="44.2010688" lon="11.3700712"><ele>869.5</ele><time>2026-05-01T14:14:24.139Z</time></trkpt><trkpt lat="44.201186" lon="11.3700055"><ele>869.0</ele><time>2026-05-01T14:14:26.136Z</time></trkpt><trkpt lat="44.2012428" lon="11.369956"><ele>868.4999999999999</ele><time>2026-05-01T14:14:27.136Z</time></trkpt><trkpt lat="44.2012977" lon="11.3698982"><ele>868.0</ele><time>2026-05-01T14:14:28.137Z</time></trkpt><trkpt lat="44.2013555" lon="11.3698367"><ele>867.9999999999999</ele><time>2026-05-01T14:14:29.139Z</time></trkpt><trkpt lat="44.201409" lon="11.3697755"><ele>868.0</ele><time>2026-05-01T14:14:30.139Z</time></trkpt><trkpt lat="44.201463" lon="11.3697145"><ele>868.0</ele><time>2026-05-01T14:14:31.138Z</time></trkpt><trkpt lat="44.2015198" lon="11.3696652"><ele>868.0</ele><time>2026-05-01T14:14:32.138Z</time></trkpt><trkpt lat="44.2016293" lon="11.3695915"><ele>867.9999999999999</ele><time>2026-05-01T14:14:34.139Z</time></trkpt><trkpt lat="44.2017315" lon="11.3695378"><ele>868.0</ele><time>2026-05-01T14:14:36.138Z</time></trkpt><trkpt lat="44.2018322" lon="11.3695145"><ele>866.3333333333333</ele><time>2026-05-01T14:14:38.138Z</time></trkpt><trkpt lat="44.2018933" lon="11.3694062"><ele>864.6666666666666</ele><time>2026-05-01T14:14:40.138Z</time></trkpt><trkpt lat="44.201953" lon="11.3692602"><ele>863.0</ele><time>2026-05-01T14:14:42.138Z</time></trkpt><trkpt lat="44.2019867" lon="11.3691832"><ele>861.3333333333333</ele><time>2026-05-01T14:14:43.139Z</time></trkpt><trkpt lat="44.2020158" lon="11.3690892"><ele>859.6666666666666</ele><time>2026-05-01T14:14:44.138Z</time></trkpt><trkpt lat="44.2020528" lon="11.3689893"><ele>858.0</ele><time>2026-05-01T14:14:45.14Z</time></trkpt><trkpt lat="44.2020945" lon="11.3688857"><ele>856.1666666666666</ele><time>2026-05-01T14:14:46.14Z</time></trkpt><trkpt lat="44.2021355" lon="11.3687932"><ele>854.3333333333333</ele><time>2026-05-01T14:14:47.138Z</time></trkpt><trkpt lat="44.2021682" lon="11.3686957"><ele>852.5</ele><time>2026-05-01T14:14:48.139Z</time></trkpt><trkpt lat="44.2022043" lon="11.3686047"><ele>850.6666666666666</ele><time>2026-05-01T14:14:49.138Z</time></trkpt><trkpt lat="44.2022433" lon="11.368512"><ele>848.8333333333333</ele><time>2026-05-01T14:14:50.136Z</time></trkpt><trkpt lat="44.2022757" lon="11.3684155"><ele>847.0</ele><time>2026-05-01T14:14:51.136Z</time></trkpt><trkpt lat="44.2023053" lon="11.3683133"><ele>846.9999999999999</ele><time>2026-05-01T14:14:52.137Z</time></trkpt><trkpt lat="44.2023387" lon="11.3682217"><ele>847.0</ele><time>2026-05-01T14:14:53.136Z</time></trkpt><trkpt lat="44.2023837" lon="11.3681353"><ele>847.0</ele><time>2026-05-01T14:14:54.14Z</time></trkpt><trkpt lat="44.2024367" lon="11.3680725"><ele>847.0</ele><time>2026-05-01T14:14:55.139Z</time></trkpt><trkpt lat="44.2024843" lon="11.3680145"><ele>846.9999999999999</ele><time>2026-05-01T14:14:56.139Z</time></trkpt><trkpt lat="44.2025542" lon="11.3678708"><ele>847.0</ele><time>2026-05-01T14:14:58.138Z</time></trkpt><trkpt lat="44.2025938" lon="11.3677785"><ele>845.8571428571429</ele><time>2026-05-01T14:14:59.137Z</time></trkpt><trkpt lat="44.2026287" lon="11.3676903"><ele>844.7142857142858</ele><time>2026-05-01T14:15:00.139Z</time></trkpt><trkpt lat="44.2026625" lon="11.3676055"><ele>843.5714285714286</ele><time>2026-05-01T14:15:01.139Z</time></trkpt><trkpt lat="44.2027032" lon="11.3675327"><ele>842.4285714285714</ele><time>2026-05-01T14:15:02.139Z</time></trkpt><trkpt lat="44.202749" lon="11.3674685"><ele>841.2857142857143</ele><time>2026-05-01T14:15:03.139Z</time></trkpt><trkpt lat="44.2027995" lon="11.3674093"><ele>840.1428571428571</ele><time>2026-05-01T14:15:04.14Z</time></trkpt><trkpt lat="44.2028563" lon="11.367359"><ele>839.0</ele><time>2026-05-01T14:15:05.139Z</time></trkpt><trkpt lat="44.2029152" lon="11.3673137"><ele>839.0</ele><time>2026-05-01T14:15:06.138Z</time></trkpt><trkpt lat="44.20297" lon="11.3672585"><ele>839.0</ele><time>2026-05-01T14:15:07.139Z</time></trkpt><trkpt lat="44.2030218" lon="11.3671913"><ele>839.0</ele><time>2026-05-01T14:15:08.137Z</time></trkpt><trkpt lat="44.2030617" lon="11.367114"><ele>839.0</ele><time>2026-05-01T14:15:09.14Z</time></trkpt><trkpt lat="44.2031022" lon="11.3670393"><ele>839.0</ele><time>2026-05-01T14:15:10.138Z</time></trkpt><trkpt lat="44.2031497" lon="11.3669685"><ele>839.0</ele><time>2026-05-01T14:15:11.138Z</time></trkpt><trkpt lat="44.2031997" lon="11.3669112"><ele>839.0</ele><time>2026-05-01T14:15:12.139Z</time></trkpt><trkpt lat="44.2032887" lon="11.3667943"><ele>836.0</ele><time>2026-05-01T14:15:14.138Z</time></trkpt><trkpt lat="44.2033768" lon="11.3666745"><ele>833.0</ele><time>2026-05-01T14:15:16.137Z</time></trkpt><trkpt lat="44.203436" lon="11.3665332"><ele>830.0</ele><time>2026-05-01T14:15:18.137Z</time></trkpt><trkpt lat="44.2035062" lon="11.3663925"><ele>827.0</ele><time>2026-05-01T14:15:20.138Z</time></trkpt><trkpt lat="44.2035792" lon="11.3662962"><ele>825.0</ele><time>2026-05-01T14:15:22.138Z</time></trkpt><trkpt lat="44.2036398" lon="11.3661773"><ele>823.0</ele><time>2026-05-01T14:15:24.137Z</time></trkpt><trkpt lat="44.2036622" lon="11.3660915"><ele>821.0</ele><time>2026-05-01T14:15:25.137Z</time></trkpt><trkpt lat="44.2037103" lon="11.3659447"><ele>819.0</ele><time>2026-05-01T14:15:27.138Z</time></trkpt><trkpt lat="44.2037575" lon="11.365789"><ele>817.0</ele><time>2026-05-01T14:15:29.138Z</time></trkpt><trkpt lat="44.2037878" lon="11.3657002"><ele>816.9999999999999</ele><time>2026-05-01T14:15:30.139Z</time></trkpt><trkpt lat="44.2038165" lon="11.3656125"><ele>817.0</ele><time>2026-05-01T14:15:31.139Z</time></trkpt><trkpt lat="44.2038412" lon="11.3655237"><ele>817.0</ele><time>2026-05-01T14:15:32.138Z</time></trkpt><trkpt lat="44.2038635" lon="11.3654352"><ele>817.0</ele><time>2026-05-01T14:15:33.337Z</time></trkpt><trkpt lat="44.2038375" lon="11.3652955"><ele>816.9999999999999</ele><time>2026-05-01T14:15:35.137Z</time></trkpt><trkpt lat="44.2038068" lon="11.3651537"><ele>817.0</ele><time>2026-05-01T14:15:37.137Z</time></trkpt><trkpt lat="44.203844" lon="11.3650378"><ele>813.5</ele><time>2026-05-01T14:15:39.135Z</time></trkpt><trkpt lat="44.2039197" lon="11.3649382"><ele>810.0</ele><time>2026-05-01T14:15:41.135Z</time></trkpt><trkpt lat="44.2040018" lon="11.3648448"><ele>806.5</ele><time>2026-05-01T14:15:43.137Z</time></trkpt><trkpt lat="44.204037" lon="11.3647098"><ele>803.0</ele><time>2026-05-01T14:15:45.137Z</time></trkpt><trkpt lat="44.2040052" lon="11.3645205"><ele>801.1666666666667</ele><time>2026-05-01T14:15:47.137Z</time></trkpt><trkpt lat="44.2039847" lon="11.3643857"><ele>799.3333333333334</ele><time>2026-05-01T14:15:48.137Z</time></trkpt><trkpt lat="44.203964" lon="11.3642468"><ele>797.5</ele><time>2026-05-01T14:15:49.139Z</time></trkpt><trkpt lat="44.2039475" lon="11.3641285"><ele>795.6666666666667</ele><time>2026-05-01T14:15:50.138Z</time></trkpt><trkpt lat="44.2039252" lon="11.3640273"><ele>793.8333333333334</ele><time>2026-05-01T14:15:51.137Z</time></trkpt><trkpt lat="44.2039132" lon="11.3639295"><ele>792.0</ele><time>2026-05-01T14:15:52.138Z</time></trkpt><trkpt lat="44.2039133" lon="11.3638375"><ele>790.8333333333334</ele><time>2026-05-01T14:15:53.137Z</time></trkpt><trkpt lat="44.2039343" lon="11.3637505"><ele>789.6666666666667</ele><time>2026-05-01T14:15:54.137Z</time></trkpt><trkpt lat="44.2039345" lon="11.3636505"><ele>788.5</ele><time>2026-05-01T14:15:55.137Z</time></trkpt><trkpt lat="44.2039303" lon="11.3635338"><ele>787.3333333333334</ele><time>2026-05-01T14:15:56.139Z</time></trkpt><trkpt lat="44.2039303" lon="11.3634187"><ele>786.1666666666667</ele><time>2026-05-01T14:15:57.137Z</time></trkpt><trkpt lat="44.2039433" lon="11.3633033"><ele>785.0</ele><time>2026-05-01T14:15:58.138Z</time></trkpt><trkpt lat="44.2039525" lon="11.363191"><ele>785.0</ele><time>2026-05-01T14:15:59.137Z</time></trkpt><trkpt lat="44.2039495" lon="11.3630855"><ele>785.0</ele><time>2026-05-01T14:16:00.138Z</time></trkpt><trkpt lat="44.203955" lon="11.3629935"><ele>785.0</ele><time>2026-05-01T14:16:01.139Z</time></trkpt><trkpt lat="44.203971" lon="11.362905"><ele>785.0</ele><time>2026-05-01T14:16:02.138Z</time></trkpt><trkpt lat="44.2039968" lon="11.3628173"><ele>785.0</ele><time>2026-05-01T14:16:03.138Z</time></trkpt><trkpt lat="44.2040317" lon="11.3627183"><ele>785.0</ele><time>2026-05-01T14:16:04.137Z</time></trkpt><trkpt lat="44.20407" lon="11.3626157"><ele>785.0</ele><time>2026-05-01T14:16:05.136Z</time></trkpt><trkpt lat="44.2041003" lon="11.3625093"><ele>783.4</ele><time>2026-05-01T14:16:06.137Z</time></trkpt><trkpt lat="44.204137" lon="11.3624073"><ele>781.8</ele><time>2026-05-01T14:16:07.138Z</time></trkpt><trkpt lat="44.204181" lon="11.3623007"><ele>780.2</ele><time>2026-05-01T14:16:08.137Z</time></trkpt><trkpt lat="44.2042212" lon="11.3621848"><ele>778.6</ele><time>2026-05-01T14:16:09.139Z</time></trkpt><trkpt lat="44.2042448" lon="11.3620607"><ele>777.0</ele><time>2026-05-01T14:16:10.138Z</time></trkpt><trkpt lat="44.2042528" lon="11.3619275"><ele>775.5</ele><time>2026-05-01T14:16:11.138Z</time></trkpt><trkpt lat="44.2042587" lon="11.3617997"><ele>774.0</ele><time>2026-05-01T14:16:12.14Z</time></trkpt><trkpt lat="44.2042655" lon="11.3616793"><ele>772.5</ele><time>2026-05-01T14:16:13.143Z</time></trkpt><trkpt lat="44.2042642" lon="11.3615558"><ele>771.0</ele><time>2026-05-01T14:16:14.14Z</time></trkpt><trkpt lat="44.2042568" lon="11.3614327"><ele>769.5</ele><time>2026-05-01T14:16:15.14Z</time></trkpt><trkpt lat="44.204252" lon="11.36131"><ele>768.0</ele><time>2026-05-01T14:16:16.139Z</time></trkpt><trkpt lat="44.2042543" lon="11.3611908"><ele>766.6666666666666</ele><time>2026-05-01T14:16:17.14Z</time></trkpt><trkpt lat="44.2042565" lon="11.3610727"><ele>765.3333333333334</ele><time>2026-05-01T14:16:18.139Z</time></trkpt><trkpt lat="44.2042608" lon="11.3609585"><ele>764.0</ele><time>2026-05-01T14:16:19.14Z</time></trkpt><trkpt lat="44.2042753" lon="11.3608462"><ele>762.6666666666667</ele><time>2026-05-01T14:16:20.139Z</time></trkpt><trkpt lat="44.2042927" lon="11.3607337"><ele>761.3333333333334</ele><time>2026-05-01T14:16:21.139Z</time></trkpt><trkpt lat="44.204306" lon="11.3606152"><ele>760.0</ele><time>2026-05-01T14:16:22.139Z</time></trkpt><trkpt lat="44.2043137" lon="11.3604943"><ele>758.5</ele><time>2026-05-01T14:16:23.14Z</time></trkpt><trkpt lat="44.20432" lon="11.3603772"><ele>757.0</ele><time>2026-05-01T14:16:24.14Z</time></trkpt><trkpt lat="44.2043447" lon="11.3602728"><ele>755.5</ele><time>2026-05-01T14:16:25.141Z</time></trkpt><trkpt lat="44.2043692" lon="11.3601687"><ele>754.0</ele><time>2026-05-01T14:16:26.139Z</time></trkpt><trkpt lat="44.2043782" lon="11.3600667"><ele>752.5</ele><time>2026-05-01T14:16:27.14Z</time></trkpt><trkpt lat="44.2043693" lon="11.359974"><ele>751.0</ele><time>2026-05-01T14:16:28.137Z</time></trkpt><trkpt lat="44.2043525" lon="11.3598797"><ele>751.0</ele><time>2026-05-01T14:16:29.137Z</time></trkpt><trkpt lat="44.2043395" lon="11.3597787"><ele>751.0</ele><time>2026-05-01T14:16:30.137Z</time></trkpt><trkpt lat="44.2043278" lon="11.3596675"><ele>751.0</ele><time>2026-05-01T14:16:31.138Z</time></trkpt><trkpt lat="44.204316" lon="11.3595578"><ele>751.0</ele><time>2026-05-01T14:16:32.138Z</time></trkpt><trkpt lat="44.2043007" lon="11.3594597"><ele>751.0</ele><time>2026-05-01T14:16:33.138Z</time></trkpt><trkpt lat="44.2042728" lon="11.3593547"><ele>751.0</ele><time>2026-05-01T14:16:34.138Z</time></trkpt><trkpt lat="44.204237" lon="11.3592508"><ele>749.0</ele><time>2026-05-01T14:16:35.141Z</time></trkpt><trkpt lat="44.204199" lon="11.3591522"><ele>747.0</ele><time>2026-05-01T14:16:36.139Z</time></trkpt><trkpt lat="44.2041645" lon="11.3590535"><ele>745.0</ele><time>2026-05-01T14:16:37.14Z</time></trkpt><trkpt lat="44.2041063" lon="11.3589497"><ele>743.0</ele><time>2026-05-01T14:16:39.138Z</time></trkpt><trkpt lat="44.2040053" lon="11.3589375"><ele>741.0</ele><time>2026-05-01T14:16:41.138Z</time></trkpt><trkpt lat="44.2038803" lon="11.3589608"><ele>740.0</ele><time>2026-05-01T14:16:43.138Z</time></trkpt><trkpt lat="44.2038152" lon="11.3589555"><ele>739.0</ele><time>2026-05-01T14:16:44.139Z</time></trkpt><trkpt lat="44.203753" lon="11.3589355"><ele>738.0</ele><time>2026-05-01T14:16:45.139Z</time></trkpt><trkpt lat="44.2036885" lon="11.3589195"><ele>737.0</ele><time>2026-05-01T14:16:46.139Z</time></trkpt><trkpt lat="44.2036228" lon="11.358902"><ele>736.0</ele><time>2026-05-01T14:16:47.139Z</time></trkpt><trkpt lat="44.2035227" lon="11.3588562"><ele>735.0</ele><time>2026-05-01T14:16:49.138Z</time></trkpt><trkpt lat="44.203532" lon="11.358718"><ele>732.8</ele><time>2026-05-01T14:16:52.137Z</time></trkpt><trkpt lat="44.2035857" lon="11.3586388"><ele>730.6</ele><time>2026-05-01T14:16:53.136Z</time></trkpt><trkpt lat="44.2036537" lon="11.3585448"><ele>728.4000000000001</ele><time>2026-05-01T14:16:54.136Z</time></trkpt><trkpt lat="44.2037282" lon="11.3584335"><ele>726.2</ele><time>2026-05-01T14:16:55.136Z</time></trkpt><trkpt lat="44.2038083" lon="11.3583152"><ele>724.0</ele><time>2026-05-01T14:16:56.139Z</time></trkpt><trkpt lat="44.2038898" lon="11.3581942"><ele>724.0</ele><time>2026-05-01T14:16:57.139Z</time></trkpt><trkpt lat="44.2039687" lon="11.3580745"><ele>724.0</ele><time>2026-05-01T14:16:58.141Z</time></trkpt><trkpt lat="44.2040468" lon="11.3579572"><ele>724.0</ele><time>2026-05-01T14:16:59.139Z</time></trkpt><trkpt lat="44.2041255" lon="11.3578418"><ele>724.0</ele><time>2026-05-01T14:17:00.139Z</time></trkpt><trkpt lat="44.2042037" lon="11.3577305"><ele>723.2</ele><time>2026-05-01T14:17:01.138Z</time></trkpt><trkpt lat="44.2042785" lon="11.3576223"><ele>722.4000000000001</ele><time>2026-05-01T14:17:02.139Z</time></trkpt><trkpt lat="44.2043483" lon="11.3575237"><ele>721.6</ele><time>2026-05-01T14:17:03.138Z</time></trkpt><trkpt lat="44.2044185" lon="11.357438"><ele>720.8</ele><time>2026-05-01T14:17:04.139Z</time></trkpt><trkpt lat="44.204496" lon="11.3573663"><ele>720.0</ele><time>2026-05-01T14:17:05.139Z</time></trkpt><trkpt lat="44.204576" lon="11.35731"><ele>720.0</ele><time>2026-05-01T14:17:06.14Z</time></trkpt><trkpt lat="44.2046568" lon="11.3572705"><ele>720.0</ele><time>2026-05-01T14:17:07.14Z</time></trkpt><trkpt lat="44.2047418" lon="11.3572502"><ele>720.0</ele><time>2026-05-01T14:17:08.141Z</time></trkpt><trkpt lat="44.20483" lon="11.3572395"><ele>720.0</ele><time>2026-05-01T14:17:09.139Z</time></trkpt><trkpt lat="44.2049158" lon="11.3572348"><ele>720.0</ele><time>2026-05-01T14:17:10.14Z</time></trkpt><trkpt lat="44.2049958" lon="11.3572328"><ele>720.0</ele><time>2026-05-01T14:17:11.142Z</time></trkpt><trkpt lat="44.2050662" lon="11.3572318"><ele>719.5</ele><time>2026-05-01T14:17:12.14Z</time></trkpt><trkpt lat="44.205175" lon="11.3572085"><ele>719.0</ele><time>2026-05-01T14:17:14.139Z</time></trkpt><trkpt lat="44.2052633" lon="11.3571308"><ele>718.5</ele><time>2026-05-01T14:17:16.164Z</time></trkpt><trkpt lat="44.2053157" lon="11.3570798"><ele>718.0</ele><time>2026-05-01T14:17:17.162Z</time></trkpt><trkpt lat="44.2053737" lon="11.3570187"><ele>717.5</ele><time>2026-05-01T14:17:18.162Z</time></trkpt><trkpt lat="44.2054278" lon="11.3569485"><ele>717.0</ele><time>2026-05-01T14:17:19.164Z</time></trkpt><trkpt lat="44.2054778" lon="11.3568713"><ele>715.0</ele><time>2026-05-01T14:17:20.15Z</time></trkpt><trkpt lat="44.205525" lon="11.3567892"><ele>713.0</ele><time>2026-05-01T14:17:21.151Z</time></trkpt><trkpt lat="44.2055715" lon="11.3567132"><ele>711.0</ele><time>2026-05-01T14:17:22.14Z</time></trkpt><trkpt lat="44.2056088" lon="11.3566407"><ele>709.0</ele><time>2026-05-01T14:17:23.141Z</time></trkpt><trkpt lat="44.2056745" lon="11.3564775"><ele>707.0</ele><time>2026-05-01T14:17:25.139Z</time></trkpt><trkpt lat="44.2057057" lon="11.3563815"><ele>705.0</ele><time>2026-05-01T14:17:26.14Z</time></trkpt><trkpt lat="44.2057303" lon="11.3562822"><ele>702.8333333333334</ele><time>2026-05-01T14:17:27.14Z</time></trkpt><trkpt lat="44.2057487" lon="11.3561765"><ele>700.6666666666666</ele><time>2026-05-01T14:17:28.141Z</time></trkpt><trkpt lat="44.2057673" lon="11.3560702"><ele>698.5</ele><time>2026-05-01T14:17:29.14Z</time></trkpt><trkpt lat="44.2057857" lon="11.3559687"><ele>696.3333333333333</ele><time>2026-05-01T14:17:30.141Z</time></trkpt><trkpt lat="44.2058022" lon="11.3558635"><ele>694.1666666666666</ele><time>2026-05-01T14:17:31.14Z</time></trkpt><trkpt lat="44.2058248" lon="11.3557553"><ele>692.0</ele><time>2026-05-01T14:17:32.139Z</time></trkpt><trkpt lat="44.2058662" lon="11.3556565"><ele>692.0</ele><time>2026-05-01T14:17:33.14Z</time></trkpt><trkpt lat="44.2059217" lon="11.3555753"><ele>692.0</ele><time>2026-05-01T14:17:34.141Z</time></trkpt><trkpt lat="44.2059802" lon="11.355498"><ele>692.0</ele><time>2026-05-01T14:17:35.141Z</time></trkpt><trkpt lat="44.206044" lon="11.3554135"><ele>692.0</ele><time>2026-05-01T14:17:36.141Z</time></trkpt><trkpt lat="44.2061098" lon="11.3553348"><ele>692.0</ele><time>2026-05-01T14:17:37.142Z</time></trkpt><trkpt lat="44.2061733" lon="11.3552553"><ele>692.0</ele><time>2026-05-01T14:17:38.14Z</time></trkpt><trkpt lat="44.2062353" lon="11.3551735"><ele>689.4000000000001</ele><time>2026-05-01T14:17:39.14Z</time></trkpt><trkpt lat="44.2062925" lon="11.3550822"><ele>686.8000000000001</ele><time>2026-05-01T14:17:40.14Z</time></trkpt><trkpt lat="44.2063462" lon="11.3549725"><ele>684.2</ele><time>2026-05-01T14:17:41.139Z</time></trkpt><trkpt lat="44.206406" lon="11.3548437"><ele>681.6</ele><time>2026-05-01T14:17:42.139Z</time></trkpt><trkpt lat="44.2064688" lon="11.3547238"><ele>679.0</ele><time>2026-05-01T14:17:43.14Z</time></trkpt><trkpt lat="44.2065325" lon="11.3546132"><ele>677.4000000000001</ele><time>2026-05-01T14:17:44.138Z</time></trkpt><trkpt lat="44.2065873" lon="11.3545042"><ele>675.8</ele><time>2026-05-01T14:17:45.139Z</time></trkpt><trkpt lat="44.2066263" lon="11.3544108"><ele>674.2</ele><time>2026-05-01T14:17:46.14Z</time></trkpt><trkpt lat="44.2066817" lon="11.354264"><ele>672.5999999999999</ele><time>2026-05-01T14:17:48.14Z</time></trkpt><trkpt lat="44.2067563" lon="11.3541207"><ele>671.0</ele><time>2026-05-01T14:17:50.139Z</time></trkpt><trkpt lat="44.2067902" lon="11.3540428"><ele>671.0</ele><time>2026-05-01T14:17:51.141Z</time></trkpt><trkpt lat="44.2068097" lon="11.3538878"><ele>671.0</ele><time>2026-05-01T14:17:53.137Z</time></trkpt><trkpt lat="44.2067832" lon="11.3537483"><ele>671.0</ele><time>2026-05-01T14:17:55.14Z</time></trkpt><trkpt lat="44.2067608" lon="11.3536365"><ele>671.0</ele><time>2026-05-01T14:17:57.14Z</time></trkpt><trkpt lat="44.2067277" lon="11.3535315"><ele>671.0</ele><time>2026-05-01T14:17:59.14Z</time></trkpt><trkpt lat="44.2066525" lon="11.3534022"><ele>669.1999999999999</ele><time>2026-05-01T14:18:01.139Z</time></trkpt><trkpt lat="44.2065802" lon="11.3532728"><ele>667.4</ele><time>2026-05-01T14:18:03.139Z</time></trkpt><trkpt lat="44.2065363" lon="11.3531703"><ele>665.6</ele><time>2026-05-01T14:18:05.139Z</time></trkpt><trkpt lat="44.2064633" lon="11.3530612"><ele>663.8</ele><time>2026-05-01T14:18:07.138Z</time></trkpt><trkpt lat="44.206404" lon="11.3529628"><ele>662.0</ele><time>2026-05-01T14:18:09.137Z</time></trkpt><trkpt lat="44.206337" lon="11.3528845"><ele>659.4000000000001</ele><time>2026-05-01T14:18:11.139Z</time></trkpt><trkpt lat="44.2062548" lon="11.3528172"><ele>656.8000000000001</ele><time>2026-05-01T14:18:13.139Z</time></trkpt><trkpt lat="44.2061697" lon="11.3527582"><ele>654.2</ele><time>2026-05-01T14:18:15.16Z</time></trkpt><trkpt lat="44.2061083" lon="11.3526682"><ele>651.6</ele><time>2026-05-01T14:18:17.138Z</time></trkpt><trkpt lat="44.2060603" lon="11.3525457"><ele>649.0</ele><time>2026-05-01T14:18:19.137Z</time></trkpt><trkpt lat="44.2060217" lon="11.3524115"><ele>649.0</ele><time>2026-05-01T14:18:21.137Z</time></trkpt><trkpt lat="44.2060712" lon="11.3523133"><ele>649.0</ele><time>2026-05-01T14:18:23.137Z</time></trkpt><trkpt lat="44.2061848" lon="11.3522063"><ele>649.0</ele><time>2026-05-01T14:18:25.137Z</time></trkpt><trkpt lat="44.206257" lon="11.3521473"><ele>649.0</ele><time>2026-05-01T14:18:26.135Z</time></trkpt><trkpt lat="44.2063097" lon="11.3520945"><ele>649.0</ele><time>2026-05-01T14:18:27.137Z</time></trkpt><trkpt lat="44.2063612" lon="11.3520437"><ele>649.0</ele><time>2026-05-01T14:18:28.137Z</time></trkpt><trkpt lat="44.20644" lon="11.3519428"><ele>647.4000000000001</ele><time>2026-05-01T14:18:30.136Z</time></trkpt><trkpt lat="44.2064962" lon="11.3518392"><ele>645.8</ele><time>2026-05-01T14:18:32.136Z</time></trkpt><trkpt lat="44.206593" lon="11.351767"><ele>644.2</ele><time>2026-05-01T14:18:34.137Z</time></trkpt><trkpt lat="44.2067023" lon="11.351698"><ele>642.5999999999999</ele><time>2026-05-01T14:18:36.137Z</time></trkpt><trkpt lat="44.2068012" lon="11.3516165"><ele>641.0</ele><time>2026-05-01T14:18:38.139Z</time></trkpt><trkpt lat="44.2068593" lon="11.3515713"><ele>641.0</ele><time>2026-05-01T14:18:39.139Z</time></trkpt><trkpt lat="44.2069183" lon="11.351523"><ele>641.0</ele><time>2026-05-01T14:18:40.14Z</time></trkpt><trkpt lat="44.2069757" lon="11.3514747"><ele>641.0</ele><time>2026-05-01T14:18:41.138Z</time></trkpt><trkpt lat="44.2070358" lon="11.3514293"><ele>641.0</ele><time>2026-05-01T14:18:42.138Z</time></trkpt><trkpt lat="44.2071398" lon="11.3513392"><ele>641.0</ele><time>2026-05-01T14:18:44.137Z</time></trkpt><trkpt lat="44.2072505" lon="11.3512678"><ele>641.0</ele><time>2026-05-01T14:18:46.137Z</time></trkpt><trkpt lat="44.2073192" lon="11.351233"><ele>638.3333333333333</ele><time>2026-05-01T14:18:47.137Z</time></trkpt><trkpt lat="44.2073867" lon="11.3511818"><ele>635.6666666666666</ele><time>2026-05-01T14:18:48.137Z</time></trkpt><trkpt lat="44.2074515" lon="11.3511228"><ele>633.0</ele><time>2026-05-01T14:18:49.139Z</time></trkpt><trkpt lat="44.2075177" lon="11.35106"><ele>630.3333333333334</ele><time>2026-05-01T14:18:50.137Z</time></trkpt><trkpt lat="44.2075778" lon="11.3509937"><ele>627.6666666666667</ele><time>2026-05-01T14:18:51.137Z</time></trkpt><trkpt lat="44.2076435" lon="11.3509208"><ele>625.0</ele><time>2026-05-01T14:18:52.137Z</time></trkpt><trkpt lat="44.207707" lon="11.3508627"><ele>625.0000000000001</ele><time>2026-05-01T14:18:53.137Z</time></trkpt><trkpt lat="44.2077762" lon="11.3508168"><ele>625.0</ele><time>2026-05-01T14:18:54.137Z</time></trkpt><trkpt lat="44.2078447" lon="11.3507768"><ele>625.0</ele><time>2026-05-01T14:18:55.136Z</time></trkpt><trkpt lat="44.2079168" lon="11.3507392"><ele>625.0</ele><time>2026-05-01T14:18:56.136Z</time></trkpt><trkpt lat="44.2079915" lon="11.3507245"><ele>625.0</ele><time>2026-05-01T14:18:57.136Z</time></trkpt><trkpt lat="44.2080578" lon="11.3507415"><ele>625.0000000000001</ele><time>2026-05-01T14:18:58.136Z</time></trkpt><trkpt lat="44.2081185" lon="11.3507677"><ele>625.0</ele><time>2026-05-01T14:18:59.136Z</time></trkpt><trkpt lat="44.2082448" lon="11.3508012"><ele>624.1666666666667</ele><time>2026-05-01T14:19:01.138Z</time></trkpt><trkpt lat="44.2083127" lon="11.3507997"><ele>623.3333333333334</ele><time>2026-05-01T14:19:02.137Z</time></trkpt><trkpt lat="44.2083752" lon="11.3507838"><ele>622.5</ele><time>2026-05-01T14:19:03.137Z</time></trkpt><trkpt lat="44.2084642" lon="11.3506728"><ele>621.6666666666666</ele><time>2026-05-01T14:19:05.136Z</time></trkpt><trkpt lat="44.2085098" lon="11.350581"><ele>620.8333333333333</ele><time>2026-05-01T14:19:06.137Z</time></trkpt><trkpt lat="44.2085545" lon="11.3504775"><ele>620.0</ele><time>2026-05-01T14:19:07.138Z</time></trkpt><trkpt lat="44.208592" lon="11.3503653"><ele>618.5</ele><time>2026-05-01T14:19:08.138Z</time></trkpt><trkpt lat="44.2086192" lon="11.350247"><ele>617.0</ele><time>2026-05-01T14:19:09.139Z</time></trkpt><trkpt lat="44.2086402" lon="11.3501248"><ele>615.5</ele><time>2026-05-01T14:19:10.138Z</time></trkpt><trkpt lat="44.2086568" lon="11.3500025"><ele>614.0</ele><time>2026-05-01T14:19:11.139Z</time></trkpt><trkpt lat="44.2086712" lon="11.3498982"><ele>612.5</ele><time>2026-05-01T14:19:12.139Z</time></trkpt><trkpt lat="44.2086895" lon="11.3497678"><ele>611.0</ele><time>2026-05-01T14:19:14.141Z</time></trkpt><trkpt lat="44.2086948" lon="11.3496575"><ele>608.2</ele><time>2026-05-01T14:19:16.138Z</time></trkpt><trkpt lat="44.2086395" lon="11.3494938"><ele>605.4000000000001</ele><time>2026-05-01T14:19:18.138Z</time></trkpt><trkpt lat="44.208582" lon="11.3494112"><ele>602.6</ele><time>2026-05-01T14:19:19.138Z</time></trkpt><trkpt lat="44.208507" lon="11.3493313"><ele>599.8000000000001</ele><time>2026-05-01T14:19:20.137Z</time></trkpt><trkpt lat="44.2084165" lon="11.3492625"><ele>597.0</ele><time>2026-05-01T14:19:21.136Z</time></trkpt><trkpt lat="44.2083185" lon="11.349201"><ele>597.0</ele><time>2026-05-01T14:19:22.136Z</time></trkpt><trkpt lat="44.2082182" lon="11.3491392"><ele>597.0</ele><time>2026-05-01T14:19:23.138Z</time></trkpt><trkpt lat="44.2081167" lon="11.3490773"><ele>597.0</ele><time>2026-05-01T14:19:24.138Z</time></trkpt><trkpt lat="44.208014" lon="11.3490177"><ele>597.0</ele><time>2026-05-01T14:19:25.138Z</time></trkpt><trkpt lat="44.207912" lon="11.3489567"><ele>597.0</ele><time>2026-05-01T14:19:26.138Z</time></trkpt><trkpt lat="44.207809" lon="11.348896"><ele>595.4</ele><time>2026-05-01T14:19:27.151Z</time></trkpt><trkpt lat="44.207704" lon="11.3488368"><ele>593.8000000000001</ele><time>2026-05-01T14:19:28.14Z</time></trkpt><trkpt lat="44.2076005" lon="11.348776"><ele>592.2</ele><time>2026-05-01T14:19:29.139Z</time></trkpt><trkpt lat="44.2074975" lon="11.3487157"><ele>590.6</ele><time>2026-05-01T14:19:30.14Z</time></trkpt><trkpt lat="44.207395" lon="11.3486582"><ele>589.0</ele><time>2026-05-01T14:19:31.14Z</time></trkpt><trkpt lat="44.207293" lon="11.3486033"><ele>589.0</ele><time>2026-05-01T14:19:32.139Z</time></trkpt><trkpt lat="44.2071918" lon="11.348547"><ele>589.0</ele><time>2026-05-01T14:19:33.14Z</time></trkpt><trkpt lat="44.207092" lon="11.3484883"><ele>589.0</ele><time>2026-05-01T14:19:34.139Z</time></trkpt><trkpt lat="44.2069925" lon="11.3484295"><ele>589.0</ele><time>2026-05-01T14:19:35.138Z</time></trkpt><trkpt lat="44.2068928" lon="11.3483718"><ele>589.0</ele><time>2026-05-01T14:19:36.139Z</time></trkpt><trkpt lat="44.206791" lon="11.3483153"><ele>589.0</ele><time>2026-05-01T14:19:37.138Z</time></trkpt><trkpt lat="44.2066873" lon="11.34826"><ele>589.0</ele><time>2026-05-01T14:19:38.138Z</time></trkpt><trkpt lat="44.2065833" lon="11.3482033"><ele>589.0</ele><time>2026-05-01T14:19:39.138Z</time></trkpt><trkpt lat="44.2064807" lon="11.3481492"><ele>589.0</ele><time>2026-05-01T14:19:40.138Z</time></trkpt><trkpt lat="44.2063787" lon="11.348119"><ele>589.0</ele><time>2026-05-01T14:19:41.139Z</time></trkpt><trkpt lat="44.20628" lon="11.3481135"><ele>590.0</ele><time>2026-05-01T14:19:42.138Z</time></trkpt><trkpt lat="44.2061815" lon="11.3481267"><ele>591.0</ele><time>2026-05-01T14:19:43.138Z</time></trkpt><trkpt lat="44.2060795" lon="11.3481247"><ele>592.0</ele><time>2026-05-01T14:19:44.136Z</time></trkpt><trkpt lat="44.2059788" lon="11.348093"><ele>593.0</ele><time>2026-05-01T14:19:45.137Z</time></trkpt><trkpt lat="44.2058925" lon="11.3480238"><ele>594.0</ele><time>2026-05-01T14:19:46.137Z</time></trkpt><trkpt lat="44.2058333" lon="11.3479187"><ele>592.0</ele><time>2026-05-01T14:19:47.137Z</time></trkpt><trkpt lat="44.2058133" lon="11.3477923"><ele>590.0</ele><time>2026-05-01T14:19:48.14Z</time></trkpt><trkpt lat="44.2058315" lon="11.3476708"><ele>588.0</ele><time>2026-05-01T14:19:49.137Z</time></trkpt><trkpt lat="44.2058825" lon="11.3475603"><ele>586.0</ele><time>2026-05-01T14:19:50.138Z</time></trkpt><trkpt lat="44.2059563" lon="11.3474718"><ele>584.0</ele><time>2026-05-01T14:19:51.138Z</time></trkpt><trkpt lat="44.2060502" lon="11.3474197"><ele>584.0</ele><time>2026-05-01T14:19:52.139Z</time></trkpt><trkpt lat="44.2061538" lon="11.3474045"><ele>584.0</ele><time>2026-05-01T14:19:53.139Z</time></trkpt><trkpt lat="44.2062622" lon="11.3473937"><ele>584.0</ele><time>2026-05-01T14:19:54.139Z</time></trkpt><trkpt lat="44.2063675" lon="11.3473593"><ele>584.0</ele><time>2026-05-01T14:19:55.141Z</time></trkpt><trkpt lat="44.2064652" lon="11.3472848"><ele>584.0</ele><time>2026-05-01T14:19:56.164Z</time></trkpt><trkpt lat="44.2065547" lon="11.3471787"><ele>581.0</ele><time>2026-05-01T14:19:57.162Z</time></trkpt><trkpt lat="44.2066343" lon="11.3470603"><ele>578.0</ele><time>2026-05-01T14:19:58.163Z</time></trkpt><trkpt lat="44.2067095" lon="11.3469442"><ele>575.0</ele><time>2026-05-01T14:19:59.15Z</time></trkpt><trkpt lat="44.206787" lon="11.3468383"><ele>572.0</ele><time>2026-05-01T14:20:00.15Z</time></trkpt><trkpt lat="44.2068723" lon="11.3467488"><ele>569.0</ele><time>2026-05-01T14:20:01.154Z</time></trkpt><trkpt lat="44.2069658" lon="11.3466757"><ele>569.0</ele><time>2026-05-01T14:20:02.15Z</time></trkpt><trkpt lat="44.207066" lon="11.3466232"><ele>569.0</ele><time>2026-05-01T14:20:03.151Z</time></trkpt><trkpt lat="44.2071713" lon="11.3465927"><ele>569.0</ele><time>2026-05-01T14:20:04.164Z</time></trkpt><trkpt lat="44.20728" lon="11.3465838"><ele>569.0</ele><time>2026-05-01T14:20:05.164Z</time></trkpt><trkpt lat="44.2073933" lon="11.3465915"><ele>569.0</ele><time>2026-05-01T14:20:06.166Z</time></trkpt><trkpt lat="44.2075065" lon="11.3466058"><ele>568.4</ele><time>2026-05-01T14:20:07.161Z</time></trkpt><trkpt lat="44.2076153" lon="11.3466187"><ele>567.8</ele><time>2026-05-01T14:20:08.157Z</time></trkpt><trkpt lat="44.20772" lon="11.3466325"><ele>567.2</ele><time>2026-05-01T14:20:09.161Z</time></trkpt><trkpt lat="44.2078257" lon="11.3466557"><ele>566.6</ele><time>2026-05-01T14:20:10.158Z</time></trkpt><trkpt lat="44.2079358" lon="11.3466793"><ele>566.0</ele><time>2026-05-01T14:20:11.159Z</time></trkpt><trkpt lat="44.208047" lon="11.3466958"><ele>566.0</ele><time>2026-05-01T14:20:12.139Z</time></trkpt><trkpt lat="44.2081587" lon="11.3467087"><ele>566.0</ele><time>2026-05-01T14:20:13.14Z</time></trkpt><trkpt lat="44.2082685" lon="11.3467118"><ele>566.0</ele><time>2026-05-01T14:20:14.138Z</time></trkpt><trkpt lat="44.2083763" lon="11.3467025"><ele>566.0</ele><time>2026-05-01T14:20:15.139Z</time></trkpt><trkpt lat="44.2084837" lon="11.3466802"><ele>566.0</ele><time>2026-05-01T14:20:16.139Z</time></trkpt><trkpt lat="44.2085892" lon="11.346646"><ele>565.0</ele><time>2026-05-01T14:20:17.139Z</time></trkpt><trkpt lat="44.2086922" lon="11.3466043"><ele>564.0</ele><time>2026-05-01T14:20:18.14Z</time></trkpt><trkpt lat="44.208795" lon="11.3465642"><ele>563.0</ele><time>2026-05-01T14:20:19.139Z</time></trkpt><trkpt lat="44.2088968" lon="11.346528"><ele>562.0</ele><time>2026-05-01T14:20:20.139Z</time></trkpt><trkpt lat="44.2089977" lon="11.3464933"><ele>561.0</ele><time>2026-05-01T14:20:21.138Z</time></trkpt><trkpt lat="44.2090977" lon="11.3464662"><ele>560.2</ele><time>2026-05-01T14:20:22.139Z</time></trkpt><trkpt lat="44.209197" lon="11.3464598"><ele>559.4000000000001</ele><time>2026-05-01T14:20:23.14Z</time></trkpt><trkpt lat="44.2092905" lon="11.346481"><ele>558.6</ele><time>2026-05-01T14:20:24.14Z</time></trkpt><trkpt lat="44.2093705" lon="11.346529"><ele>557.8000000000001</ele><time>2026-05-01T14:20:25.141Z</time></trkpt><trkpt lat="44.2094317" lon="11.3465867"><ele>557.0</ele><time>2026-05-01T14:20:26.14Z</time></trkpt><trkpt lat="44.2095142" lon="11.3466768"><ele>557.0</ele><time>2026-05-01T14:20:28.14Z</time></trkpt><trkpt lat="44.2095778" lon="11.3466793"><ele>557.0</ele><time>2026-05-01T14:20:30.14Z</time></trkpt><trkpt lat="44.2095932" lon="11.3465582"><ele>557.0</ele><time>2026-05-01T14:20:32.14Z</time></trkpt><trkpt lat="44.2096112" lon="11.3463765"><ele>557.0</ele><time>2026-05-01T14:20:34.138Z</time></trkpt><trkpt lat="44.2096088" lon="11.3462808"><ele>557.0</ele><time>2026-05-01T14:20:35.138Z</time></trkpt><trkpt lat="44.2095857" lon="11.346194"><ele>557.0</ele><time>2026-05-01T14:20:36.139Z</time></trkpt><trkpt lat="44.2095447" lon="11.34612"><ele>555.5714285714286</ele><time>2026-05-01T14:20:37.142Z</time></trkpt><trkpt lat="44.2094893" lon="11.3460618"><ele>554.1428571428571</ele><time>2026-05-01T14:20:38.141Z</time></trkpt><trkpt lat="44.2094237" lon="11.3460205"><ele>552.7142857142857</ele><time>2026-05-01T14:20:39.141Z</time></trkpt><trkpt lat="44.2093523" lon="11.3459878"><ele>551.2857142857142</ele><time>2026-05-01T14:20:40.141Z</time></trkpt><trkpt lat="44.2092843" lon="11.3459552"><ele>549.8571428571428</ele><time>2026-05-01T14:20:41.14Z</time></trkpt><trkpt lat="44.2092183" lon="11.3459215"><ele>548.4285714285714</ele><time>2026-05-01T14:20:42.14Z</time></trkpt><trkpt lat="44.2091513" lon="11.345893"><ele>547.0</ele><time>2026-05-01T14:20:43.14Z</time></trkpt><trkpt lat="44.2090862" lon="11.3458772"><ele>547.0</ele><time>2026-05-01T14:20:44.14Z</time></trkpt><trkpt lat="44.2089713" lon="11.3458592"><ele>551.0</ele><time>2026-05-01T14:20:46.141Z</time></trkpt><trkpt lat="44.2089045" lon="11.3458258"><ele>551.0</ele><time>2026-05-01T14:20:48.141Z</time></trkpt></trkseg></trk></gpx>